<?xml version='1.0' encoding='UTF-8'?><gpx version="1.1" creator="JPX - https://github.com/jenetics/jpx" xmlns="http://www.topografix.com/GPX/1/1"><trk><trkseg><trkpt lat="43.3745027" lon="13.153922"><ele>348.0</ele><time>2026-04-11T07:10:09.874Z</time></trkpt><trkpt lat="43.3745577" lon="13.1539878"><ele>348.0</ele><time>2026-04-11T07:10:11.884Z</time></trkpt><trkpt lat="43.3746164" lon="13.1540638"><ele>348.0</ele><time>2026-04-11T07:10:13.854Z</time></trkpt><trkpt lat="43.374691" lon="13.154142"><ele>348.0</ele><time>2026-04-11T07:10:15.866Z</time></trkpt><trkpt lat="43.3747795" lon="13.1541793"><ele>348.0</ele><time>2026-04-11T07:10:17.904Z</time></trkpt><trkpt lat="43.3748605" lon="13.1541594"><ele>348.0</ele><time>2026-04-11T07:10:19.876Z</time></trkpt><trkpt lat="43.3749286" lon="13.1540928"><ele>350.1666666666667</ele><time>2026-04-11T07:10:21.874Z</time></trkpt><trkpt lat="43.374994" lon="13.1540169"><ele>352.3333333333333</ele><time>2026-04-11T07:10:23.884Z</time></trkpt><trkpt lat="43.3750037" lon="13.1539072"><ele>354.5</ele><time>2026-04-11T07:10:25.903Z</time></trkpt><trkpt lat="43.3748974" lon="13.1538284"><ele>356.66666666666663</ele><time>2026-04-11T07:10:27.852Z</time></trkpt><trkpt lat="43.3748348" lon="13.1537889"><ele>358.8333333333333</ele><time>2026-04-11T07:10:28.849Z</time></trkpt><trkpt lat="43.3747743" lon="13.1537349"><ele>361.0</ele><time>2026-04-11T07:10:29.858Z</time></trkpt><trkpt lat="43.3747255" lon="13.153598"><ele>361.0</ele><time>2026-04-11T07:10:31.891Z</time></trkpt><trkpt lat="43.3747138" lon="13.1534965"><ele>361.0</ele><time>2026-04-11T07:10:33.864Z</time></trkpt><trkpt lat="43.3746925" lon="13.1534131"><ele>361.0</ele><time>2026-04-11T07:10:35.895Z</time></trkpt><trkpt lat="43.3746644" lon="13.1533165"><ele>361.0</ele><time>2026-04-11T07:10:38.882Z</time></trkpt><trkpt lat="43.3745989" lon="13.1532634"><ele>361.0</ele><time>2026-04-11T07:10:51.882Z</time></trkpt><trkpt lat="43.3744813" lon="13.1532963"><ele>361.0</ele><time>2026-04-11T07:10:53.892Z</time></trkpt><trkpt lat="43.374416" lon="13.1533293"><ele>358.4</ele><time>2026-04-11T07:10:54.88Z</time></trkpt><trkpt lat="43.3743417" lon="13.153368"><ele>355.8</ele><time>2026-04-11T07:10:55.865Z</time></trkpt><trkpt lat="43.3742482" lon="13.1534244"><ele>353.2</ele><time>2026-04-11T07:10:56.89Z</time></trkpt><trkpt lat="43.3741435" lon="13.1535009"><ele>350.59999999999997</ele><time>2026-04-11T07:10:57.906Z</time></trkpt><trkpt lat="43.3740283" lon="13.1535751"><ele>348.0</ele><time>2026-04-11T07:10:58.876Z</time></trkpt><trkpt lat="43.3739075" lon="13.1536525"><ele>344.5</ele><time>2026-04-11T07:10:59.873Z</time></trkpt><trkpt lat="43.3737812" lon="13.1537317"><ele>341.0</ele><time>2026-04-11T07:11:00.885Z</time></trkpt><trkpt lat="43.3736554" lon="13.1538102"><ele>337.5</ele><time>2026-04-11T07:11:01.868Z</time></trkpt><trkpt lat="43.3735276" lon="13.1538852"><ele>334.0</ele><time>2026-04-11T07:11:02.877Z</time></trkpt><trkpt lat="43.3733984" lon="13.1539633"><ele>334.0</ele><time>2026-04-11T07:11:03.902Z</time></trkpt><trkpt lat="43.3732684" lon="13.1540378"><ele>334.0</ele><time>2026-04-11T07:11:04.873Z</time></trkpt><trkpt lat="43.3731353" lon="13.1541108"><ele>334.0</ele><time>2026-04-11T07:11:05.874Z</time></trkpt><trkpt lat="43.373003" lon="13.1541774"><ele>334.0</ele><time>2026-04-11T07:11:06.88Z</time></trkpt><trkpt lat="43.3728664" lon="13.1542388"><ele>332.25</ele><time>2026-04-11T07:11:07.913Z</time></trkpt><trkpt lat="43.3727313" lon="13.1542884"><ele>330.5</ele><time>2026-04-11T07:11:08.889Z</time></trkpt><trkpt lat="43.3725936" lon="13.1543328"><ele>328.75</ele><time>2026-04-11T07:11:09.878Z</time></trkpt><trkpt lat="43.3724578" lon="13.1543666"><ele>327.0</ele><time>2026-04-11T07:11:10.865Z</time></trkpt><trkpt lat="43.3723196" lon="13.1543915"><ele>327.25</ele><time>2026-04-11T07:11:11.874Z</time></trkpt><trkpt lat="43.3721783" lon="13.154405"><ele>327.5</ele><time>2026-04-11T07:11:12.88Z</time></trkpt><trkpt lat="43.3720337" lon="13.154408"><ele>327.75</ele><time>2026-04-11T07:11:13.881Z</time></trkpt><trkpt lat="43.3718825" lon="13.154406"><ele>328.0</ele><time>2026-04-11T07:11:14.877Z</time></trkpt><trkpt lat="43.3717347" lon="13.1543983"><ele>328.0</ele><time>2026-04-11T07:11:15.882Z</time></trkpt><trkpt lat="43.3715851" lon="13.1543852"><ele>328.0</ele><time>2026-04-11T07:11:16.863Z</time></trkpt><trkpt lat="43.3714349" lon="13.1543745"><ele>328.0</ele><time>2026-04-11T07:11:17.883Z</time></trkpt><trkpt lat="43.371285" lon="13.1543607"><ele>331.3333333333333</ele><time>2026-04-11T07:11:18.877Z</time></trkpt><trkpt lat="43.3711272" lon="13.1543401"><ele>334.6666666666667</ele><time>2026-04-11T07:11:19.856Z</time></trkpt><trkpt lat="43.3709654" lon="13.1543184"><ele>338.0</ele><time>2026-04-11T07:11:20.877Z</time></trkpt><trkpt lat="43.3708013" lon="13.1542982"><ele>338.0</ele><time>2026-04-11T07:11:21.862Z</time></trkpt><trkpt lat="43.3706303" lon="13.1542758"><ele>338.0</ele><time>2026-04-11T07:11:22.865Z</time></trkpt><trkpt lat="43.3704613" lon="13.1542547"><ele>338.0</ele><time>2026-04-11T07:11:23.872Z</time></trkpt><trkpt lat="43.3702898" lon="13.154235"><ele>342.33333333333337</ele><time>2026-04-11T07:11:24.884Z</time></trkpt><trkpt lat="43.3701215" lon="13.1542148"><ele>346.6666666666667</ele><time>2026-04-11T07:11:25.88Z</time></trkpt><trkpt lat="43.3699545" lon="13.1541892"><ele>351.0</ele><time>2026-04-11T07:11:26.882Z</time></trkpt><trkpt lat="43.3697829" lon="13.1541666"><ele>355.0</ele><time>2026-04-11T07:11:27.893Z</time></trkpt><trkpt lat="43.3696226" lon="13.1541482"><ele>359.0</ele><time>2026-04-11T07:11:28.873Z</time></trkpt><trkpt lat="43.3694646" lon="13.1541392"><ele>363.0</ele><time>2026-04-11T07:11:29.849Z</time></trkpt><trkpt lat="43.3693136" lon="13.1541252"><ele>363.0</ele><time>2026-04-11T07:11:30.869Z</time></trkpt><trkpt lat="43.3691633" lon="13.1541061"><ele>363.0</ele><time>2026-04-11T07:11:31.916Z</time></trkpt><trkpt lat="43.3690151" lon="13.1540885"><ele>363.0</ele><time>2026-04-11T07:11:32.894Z</time></trkpt><trkpt lat="43.368865" lon="13.1540718"><ele>366.25</ele><time>2026-04-11T07:11:33.904Z</time></trkpt><trkpt lat="43.3687174" lon="13.1540561"><ele>369.5</ele><time>2026-04-11T07:11:34.863Z</time></trkpt><trkpt lat="43.3685725" lon="13.1540411"><ele>372.75</ele><time>2026-04-11T07:11:35.889Z</time></trkpt><trkpt lat="43.3684296" lon="13.1540207"><ele>376.0</ele><time>2026-04-11T07:11:36.872Z</time></trkpt><trkpt lat="43.368289" lon="13.153991"><ele>379.0</ele><time>2026-04-11T07:11:37.89Z</time></trkpt><trkpt lat="43.3681489" lon="13.153948"><ele>382.0</ele><time>2026-04-11T07:11:38.876Z</time></trkpt><trkpt lat="43.3680239" lon="13.1538719"><ele>385.0</ele><time>2026-04-11T07:11:39.88Z</time></trkpt><trkpt lat="43.3679057" lon="13.1537806"><ele>388.0</ele><time>2026-04-11T07:11:40.894Z</time></trkpt><trkpt lat="43.3677963" lon="13.1537041"><ele>390.25</ele><time>2026-04-11T07:11:41.887Z</time></trkpt><trkpt lat="43.3676881" lon="13.1536471"><ele>392.5</ele><time>2026-04-11T07:11:42.88Z</time></trkpt><trkpt lat="43.3675768" lon="13.1536258"><ele>394.75</ele><time>2026-04-11T07:11:43.85Z</time></trkpt><trkpt lat="43.3674658" lon="13.1536555"><ele>397.0</ele><time>2026-04-11T07:11:44.868Z</time></trkpt><trkpt lat="43.3673392" lon="13.1537035"><ele>397.0</ele><time>2026-04-11T07:11:45.867Z</time></trkpt><trkpt lat="43.3672267" lon="13.1537263"><ele>397.0</ele><time>2026-04-11T07:11:46.888Z</time></trkpt><trkpt lat="43.3671164" lon="13.1537051"><ele>397.0</ele><time>2026-04-11T07:11:47.876Z</time></trkpt><trkpt lat="43.3670172" lon="13.1536366"><ele>397.0</ele><time>2026-04-11T07:11:48.863Z</time></trkpt><trkpt lat="43.366947" lon="13.1535319"><ele>397.0</ele><time>2026-04-11T07:11:49.89Z</time></trkpt><trkpt lat="43.366884" lon="13.1533791"><ele>398.33333333333337</ele><time>2026-04-11T07:11:50.896Z</time></trkpt><trkpt lat="43.366816" lon="13.1532095"><ele>399.66666666666663</ele><time>2026-04-11T07:11:51.893Z</time></trkpt><trkpt lat="43.3667335" lon="13.1530271"><ele>401.0</ele><time>2026-04-11T07:11:52.877Z</time></trkpt><trkpt lat="43.3666393" lon="13.1528514"><ele>401.0</ele><time>2026-04-11T07:11:53.883Z</time></trkpt><trkpt lat="43.3665353" lon="13.1527004"><ele>401.0</ele><time>2026-04-11T07:11:54.885Z</time></trkpt><trkpt lat="43.3664143" lon="13.1525848"><ele>401.0</ele><time>2026-04-11T07:11:55.893Z</time></trkpt><trkpt lat="43.3662725" lon="13.1524969"><ele>399.66666666666663</ele><time>2026-04-11T07:11:56.871Z</time></trkpt><trkpt lat="43.3661137" lon="13.1524329"><ele>398.33333333333337</ele><time>2026-04-11T07:11:57.861Z</time></trkpt><trkpt lat="43.36595" lon="13.1523819"><ele>397.0</ele><time>2026-04-11T07:11:58.859Z</time></trkpt><trkpt lat="43.3657741" lon="13.152336"><ele>397.0</ele><time>2026-04-11T07:11:59.894Z</time></trkpt><trkpt lat="43.3655898" lon="13.1522785"><ele>397.0</ele><time>2026-04-11T07:12:00.882Z</time></trkpt><trkpt lat="43.3654067" lon="13.1521984"><ele>397.0</ele><time>2026-04-11T07:12:01.873Z</time></trkpt><trkpt lat="43.3652542" lon="13.1521146"><ele>399.33333333333337</ele><time>2026-04-11T07:12:02.854Z</time></trkpt><trkpt lat="43.3651126" lon="13.1520203"><ele>401.66666666666663</ele><time>2026-04-11T07:12:03.89Z</time></trkpt><trkpt lat="43.3649801" lon="13.1518988"><ele>404.0</ele><time>2026-04-11T07:12:04.898Z</time></trkpt><trkpt lat="43.3648602" lon="13.1517615"><ele>404.0</ele><time>2026-04-11T07:12:05.878Z</time></trkpt><trkpt lat="43.3647578" lon="13.1516009"><ele>404.0</ele><time>2026-04-11T07:12:06.87Z</time></trkpt><trkpt lat="43.3646765" lon="13.1514533"><ele>404.0</ele><time>2026-04-11T07:12:07.893Z</time></trkpt><trkpt lat="43.3646115" lon="13.1512987"><ele>404.0</ele><time>2026-04-11T07:12:08.876Z</time></trkpt><trkpt lat="43.3645437" lon="13.1511668"><ele>406.25</ele><time>2026-04-11T07:12:09.857Z</time></trkpt><trkpt lat="43.364463" lon="13.1510682"><ele>408.5</ele><time>2026-04-11T07:12:10.877Z</time></trkpt><trkpt lat="43.3643554" lon="13.1510161"><ele>410.75</ele><time>2026-04-11T07:12:11.849Z</time></trkpt><trkpt lat="43.3642262" lon="13.1509751"><ele>413.0</ele><time>2026-04-11T07:12:12.864Z</time></trkpt><trkpt lat="43.3640954" lon="13.1509711"><ele>413.0</ele><time>2026-04-11T07:12:13.895Z</time></trkpt><trkpt lat="43.3639369" lon="13.1509859"><ele>413.0</ele><time>2026-04-11T07:12:14.866Z</time></trkpt><trkpt lat="43.3637486" lon="13.1509941"><ele>413.0</ele><time>2026-04-11T07:12:15.901Z</time></trkpt><trkpt lat="43.3635583" lon="13.1509923"><ele>412.66666666666663</ele><time>2026-04-11T07:12:16.892Z</time></trkpt><trkpt lat="43.3633717" lon="13.1509943"><ele>412.33333333333337</ele><time>2026-04-11T07:12:17.924Z</time></trkpt><trkpt lat="43.3631929" lon="13.1509912"><ele>412.0</ele><time>2026-04-11T07:12:18.939Z</time></trkpt><trkpt lat="43.3630192" lon="13.1509858"><ele>411.6666666666667</ele><time>2026-04-11T07:12:19.904Z</time></trkpt><trkpt lat="43.3628528" lon="13.1509912"><ele>411.33333333333337</ele><time>2026-04-11T07:12:20.895Z</time></trkpt><trkpt lat="43.3626725" lon="13.1510135"><ele>411.0</ele><time>2026-04-11T07:12:21.884Z</time></trkpt><trkpt lat="43.3624878" lon="13.1510517"><ele>411.0</ele><time>2026-04-11T07:12:22.89Z</time></trkpt><trkpt lat="43.3623142" lon="13.1510954"><ele>411.0</ele><time>2026-04-11T07:12:23.918Z</time></trkpt><trkpt lat="43.3621519" lon="13.1511422"><ele>411.0</ele><time>2026-04-11T07:12:24.895Z</time></trkpt><trkpt lat="43.362005" lon="13.1511832"><ele>410.33333333333337</ele><time>2026-04-11T07:12:25.965Z</time></trkpt><trkpt lat="43.3618517" lon="13.1512276"><ele>409.6666666666667</ele><time>2026-04-11T07:12:26.918Z</time></trkpt><trkpt lat="43.3617025" lon="13.1512769"><ele>409.0</ele><time>2026-04-11T07:12:27.913Z</time></trkpt><trkpt lat="43.3615622" lon="13.1513303"><ele>409.0</ele><time>2026-04-11T07:12:28.882Z</time></trkpt><trkpt lat="43.3614225" lon="13.1513822"><ele>409.0</ele><time>2026-04-11T07:12:29.855Z</time></trkpt><trkpt lat="43.3612824" lon="13.1514288"><ele>409.0</ele><time>2026-04-11T07:12:30.909Z</time></trkpt><trkpt lat="43.3611374" lon="13.1514777"><ele>409.0</ele><time>2026-04-11T07:12:31.92Z</time></trkpt><trkpt lat="43.3609888" lon="13.1515357"><ele>409.0</ele><time>2026-04-11T07:12:32.9Z</time></trkpt><trkpt lat="43.3608343" lon="13.1515853"><ele>409.0</ele><time>2026-04-11T07:12:33.896Z</time></trkpt><trkpt lat="43.3606727" lon="13.1516109"><ele>409.0</ele><time>2026-04-11T07:12:34.911Z</time></trkpt><trkpt lat="43.3605168" lon="13.1515838"><ele>409.33333333333337</ele><time>2026-04-11T07:12:35.92Z</time></trkpt><trkpt lat="43.3603538" lon="13.1515118"><ele>409.66666666666663</ele><time>2026-04-11T07:12:36.903Z</time></trkpt><trkpt lat="43.3601918" lon="13.1514124"><ele>410.0</ele><time>2026-04-11T07:12:37.847Z</time></trkpt><trkpt lat="43.3600236" lon="13.151314"><ele>410.0</ele><time>2026-04-11T07:12:38.868Z</time></trkpt><trkpt lat="43.359848" lon="13.1512147"><ele>410.0</ele><time>2026-04-11T07:12:39.896Z</time></trkpt><trkpt lat="43.3596711" lon="13.1511114"><ele>410.0</ele><time>2026-04-11T07:12:40.896Z</time></trkpt><trkpt lat="43.3595075" lon="13.1509978"><ele>410.66666666666663</ele><time>2026-04-11T07:12:41.911Z</time></trkpt><trkpt lat="43.3593618" lon="13.1508521"><ele>411.33333333333337</ele><time>2026-04-11T07:12:42.91Z</time></trkpt><trkpt lat="43.3592372" lon="13.1506619"><ele>412.0</ele><time>2026-04-11T07:12:43.892Z</time></trkpt><trkpt lat="43.3591343" lon="13.1504742"><ele>412.5</ele><time>2026-04-11T07:12:44.901Z</time></trkpt><trkpt lat="43.3590348" lon="13.1503053"><ele>413.0</ele><time>2026-04-11T07:12:45.903Z</time></trkpt><trkpt lat="43.3589465" lon="13.1501547"><ele>413.5</ele><time>2026-04-11T07:12:46.879Z</time></trkpt><trkpt lat="43.3588616" lon="13.1500101"><ele>414.0</ele><time>2026-04-11T07:12:47.889Z</time></trkpt><trkpt lat="43.3587783" lon="13.1498708"><ele>414.0</ele><time>2026-04-11T07:12:48.891Z</time></trkpt><trkpt lat="43.3586938" lon="13.1497249"><ele>414.0</ele><time>2026-04-11T07:12:49.917Z</time></trkpt><trkpt lat="43.3585992" lon="13.1495783"><ele>414.0</ele><time>2026-04-11T07:12:50.923Z</time></trkpt><trkpt lat="43.3584941" lon="13.1494439"><ele>414.0</ele><time>2026-04-11T07:12:51.921Z</time></trkpt><trkpt lat="43.3583626" lon="13.1493253"><ele>414.0</ele><time>2026-04-11T07:12:52.903Z</time></trkpt><trkpt lat="43.3582129" lon="13.1492181"><ele>414.0</ele><time>2026-04-11T07:12:53.869Z</time></trkpt><trkpt lat="43.3580552" lon="13.1491294"><ele>414.0</ele><time>2026-04-11T07:12:54.901Z</time></trkpt><trkpt lat="43.3579029" lon="13.1490508"><ele>415.25</ele><time>2026-04-11T07:12:55.914Z</time></trkpt><trkpt lat="43.3577589" lon="13.148976"><ele>416.5</ele><time>2026-04-11T07:12:56.886Z</time></trkpt><trkpt lat="43.357626" lon="13.1488938"><ele>417.75</ele><time>2026-04-11T07:12:57.899Z</time></trkpt><trkpt lat="43.357511" lon="13.1487809"><ele>419.0</ele><time>2026-04-11T07:12:58.874Z</time></trkpt><trkpt lat="43.357396" lon="13.1486286"><ele>419.0</ele><time>2026-04-11T07:12:59.922Z</time></trkpt><trkpt lat="43.3572863" lon="13.1484602"><ele>419.0</ele><time>2026-04-11T07:13:00.908Z</time></trkpt><trkpt lat="43.35718" lon="13.1482957"><ele>419.0</ele><time>2026-04-11T07:13:01.901Z</time></trkpt><trkpt lat="43.3570778" lon="13.1481299"><ele>420.66666666666663</ele><time>2026-04-11T07:13:02.902Z</time></trkpt><trkpt lat="43.3569761" lon="13.1479519"><ele>422.33333333333337</ele><time>2026-04-11T07:13:03.871Z</time></trkpt><trkpt lat="43.3568756" lon="13.147751"><ele>424.0</ele><time>2026-04-11T07:13:04.9Z</time></trkpt><trkpt lat="43.3567803" lon="13.1475285"><ele>423.33333333333337</ele><time>2026-04-11T07:13:05.928Z</time></trkpt><trkpt lat="43.3566713" lon="13.1473152"><ele>422.66666666666663</ele><time>2026-04-11T07:13:06.913Z</time></trkpt><trkpt lat="43.3565333" lon="13.1471005"><ele>422.0</ele><time>2026-04-11T07:13:07.915Z</time></trkpt><trkpt lat="43.3563759" lon="13.1469099"><ele>423.3333333333333</ele><time>2026-04-11T07:13:08.903Z</time></trkpt><trkpt lat="43.3561936" lon="13.1467344"><ele>424.66666666666663</ele><time>2026-04-11T07:13:09.876Z</time></trkpt><trkpt lat="43.3559979" lon="13.1465799"><ele>426.0</ele><time>2026-04-11T07:13:10.911Z</time></trkpt><trkpt lat="43.3557826" lon="13.1464487"><ele>426.0</ele><time>2026-04-11T07:13:11.911Z</time></trkpt><trkpt lat="43.3555895" lon="13.1463257"><ele>426.0</ele><time>2026-04-11T07:13:12.861Z</time></trkpt><trkpt lat="43.3554172" lon="13.1462117"><ele>426.0</ele><time>2026-04-11T07:13:13.887Z</time></trkpt><trkpt lat="43.3552633" lon="13.1461044"><ele>428.25</ele><time>2026-04-11T07:13:14.912Z</time></trkpt><trkpt lat="43.3551284" lon="13.1460049"><ele>430.5</ele><time>2026-04-11T07:13:15.915Z</time></trkpt><trkpt lat="43.3550258" lon="13.1459213"><ele>432.75</ele><time>2026-04-11T07:13:16.916Z</time></trkpt><trkpt lat="43.3549371" lon="13.1458487"><ele>435.0</ele><time>2026-04-11T07:13:17.911Z</time></trkpt><trkpt lat="43.3548539" lon="13.145778"><ele>435.0</ele><time>2026-04-11T07:13:18.902Z</time></trkpt><trkpt lat="43.3547769" lon="13.1457155"><ele>435.0</ele><time>2026-04-11T07:13:19.914Z</time></trkpt><trkpt lat="43.3547104" lon="13.1456591"><ele>435.0</ele><time>2026-04-11T07:13:20.899Z</time></trkpt><trkpt lat="43.3546472" lon="13.1456034"><ele>435.0</ele><time>2026-04-11T07:13:21.923Z</time></trkpt><trkpt lat="43.3545853" lon="13.1455404"><ele>435.0</ele><time>2026-04-11T07:13:22.919Z</time></trkpt><trkpt lat="43.3545158" lon="13.1454674"><ele>435.0</ele><time>2026-04-11T07:13:23.906Z</time></trkpt><trkpt lat="43.3544365" lon="13.1453803"><ele>435.8</ele><time>2026-04-11T07:13:24.904Z</time></trkpt><trkpt lat="43.3543588" lon="13.1452859"><ele>436.6</ele><time>2026-04-11T07:13:25.898Z</time></trkpt><trkpt lat="43.3542843" lon="13.1451813"><ele>437.4</ele><time>2026-04-11T07:13:26.886Z</time></trkpt><trkpt lat="43.3542044" lon="13.145085"><ele>438.2</ele><time>2026-04-11T07:13:27.897Z</time></trkpt><trkpt lat="43.3541302" lon="13.1449943"><ele>439.0</ele><time>2026-04-11T07:13:28.897Z</time></trkpt><trkpt lat="43.3540616" lon="13.1449119"><ele>439.6666666666667</ele><time>2026-04-11T07:13:29.91Z</time></trkpt><trkpt lat="43.3539951" lon="13.144829"><ele>440.33333333333337</ele><time>2026-04-11T07:13:30.905Z</time></trkpt><trkpt lat="43.3539311" lon="13.1447523"><ele>441.0</ele><time>2026-04-11T07:13:31.88Z</time></trkpt><trkpt lat="43.353859" lon="13.1446766"><ele>441.66666666666663</ele><time>2026-04-11T07:13:32.896Z</time></trkpt><trkpt lat="43.3537834" lon="13.1446218"><ele>442.3333333333333</ele><time>2026-04-11T07:13:33.888Z</time></trkpt><trkpt lat="43.3537052" lon="13.1445788"><ele>443.0</ele><time>2026-04-11T07:13:34.894Z</time></trkpt><trkpt lat="43.3536126" lon="13.1445415"><ele>443.0</ele><time>2026-04-11T07:13:35.903Z</time></trkpt><trkpt lat="43.3535191" lon="13.1445259"><ele>442.99999999999994</ele><time>2026-04-11T07:13:36.892Z</time></trkpt><trkpt lat="43.3534163" lon="13.1445177"><ele>442.99999999999994</ele><time>2026-04-11T07:13:37.853Z</time></trkpt><trkpt lat="43.3533111" lon="13.144512"><ele>443.0</ele><time>2026-04-11T07:13:38.885Z</time></trkpt><trkpt lat="43.3531965" lon="13.1444885"><ele>443.0</ele><time>2026-04-11T07:13:39.906Z</time></trkpt><trkpt lat="43.3530868" lon="13.1444683"><ele>445.0</ele><time>2026-04-11T07:13:40.9Z</time></trkpt><trkpt lat="43.3529768" lon="13.1444506"><ele>446.99999999999994</ele><time>2026-04-11T07:13:41.887Z</time></trkpt><trkpt lat="43.3528711" lon="13.1444375"><ele>448.99999999999994</ele><time>2026-04-11T07:13:42.906Z</time></trkpt><trkpt lat="43.352765" lon="13.1444328"><ele>451.0</ele><time>2026-04-11T07:13:43.897Z</time></trkpt><trkpt lat="43.3526651" lon="13.1444308"><ele>453.0</ele><time>2026-04-11T07:13:44.876Z</time></trkpt><trkpt lat="43.3525825" lon="13.1444224"><ele>453.0</ele><time>2026-04-11T07:13:45.867Z</time></trkpt><trkpt lat="43.3524956" lon="13.1443866"><ele>453.0</ele><time>2026-04-11T07:13:46.912Z</time></trkpt><trkpt lat="43.3524187" lon="13.1443258"><ele>453.0</ele><time>2026-04-11T07:13:47.894Z</time></trkpt><trkpt lat="43.3523494" lon="13.1442603"><ele>453.0</ele><time>2026-04-11T07:13:48.891Z</time></trkpt><trkpt lat="43.352278" lon="13.144196"><ele>453.0</ele><time>2026-04-11T07:13:49.895Z</time></trkpt><trkpt lat="43.3522095" lon="13.1441268"><ele>453.0</ele><time>2026-04-11T07:13:50.89Z</time></trkpt><trkpt lat="43.3521509" lon="13.1440596"><ele>453.79999999999995</ele><time>2026-04-11T07:13:51.909Z</time></trkpt><trkpt lat="43.352104" lon="13.1439823"><ele>454.59999999999997</ele><time>2026-04-11T07:13:52.914Z</time></trkpt><trkpt lat="43.3520649" lon="13.1439075"><ele>455.40000000000003</ele><time>2026-04-11T07:13:53.912Z</time></trkpt><trkpt lat="43.3520332" lon="13.1438313"><ele>456.20000000000005</ele><time>2026-04-11T07:13:54.91Z</time></trkpt><trkpt lat="43.3519473" lon="13.1437333"><ele>457.0</ele><time>2026-04-11T07:13:56.907Z</time></trkpt><trkpt lat="43.3517897" lon="13.1437714"><ele>457.0</ele><time>2026-04-11T07:13:58.889Z</time></trkpt><trkpt lat="43.3516767" lon="13.1438165"><ele>457.00000000000006</ele><time>2026-04-11T07:13:59.91Z</time></trkpt><trkpt lat="43.351564" lon="13.1438409"><ele>457.00000000000006</ele><time>2026-04-11T07:14:00.903Z</time></trkpt><trkpt lat="43.3514577" lon="13.1438557"><ele>457.0</ele><time>2026-04-11T07:14:01.898Z</time></trkpt><trkpt lat="43.351353" lon="13.143866"><ele>457.0</ele><time>2026-04-11T07:14:02.904Z</time></trkpt><trkpt lat="43.351242" lon="13.1438769"><ele>456.75</ele><time>2026-04-11T07:14:03.899Z</time></trkpt><trkpt lat="43.3511262" lon="13.1438986"><ele>456.5</ele><time>2026-04-11T07:14:04.864Z</time></trkpt><trkpt lat="43.3510164" lon="13.1439342"><ele>456.25</ele><time>2026-04-11T07:14:05.851Z</time></trkpt><trkpt lat="43.3508989" lon="13.1439776"><ele>456.0</ele><time>2026-04-11T07:14:06.886Z</time></trkpt><trkpt lat="43.3507828" lon="13.1440347"><ele>456.20000000000005</ele><time>2026-04-11T07:14:07.905Z</time></trkpt><trkpt lat="43.3506766" lon="13.1440814"><ele>456.40000000000003</ele><time>2026-04-11T07:14:08.873Z</time></trkpt><trkpt lat="43.3505837" lon="13.1441188"><ele>456.6</ele><time>2026-04-11T07:14:09.906Z</time></trkpt><trkpt lat="43.3504971" lon="13.1441552"><ele>456.8</ele><time>2026-04-11T07:14:10.909Z</time></trkpt><trkpt lat="43.350409" lon="13.144196"><ele>457.0</ele><time>2026-04-11T07:14:11.892Z</time></trkpt><trkpt lat="43.3503281" lon="13.1442325"><ele>457.00000000000006</ele><time>2026-04-11T07:14:12.895Z</time></trkpt><trkpt lat="43.350251" lon="13.1442522"><ele>457.0</ele><time>2026-04-11T07:14:13.919Z</time></trkpt><trkpt lat="43.3501853" lon="13.1442251"><ele>457.0</ele><time>2026-04-11T07:14:14.889Z</time></trkpt><trkpt lat="43.3501187" lon="13.1440975"><ele>457.0</ele><time>2026-04-11T07:14:16.905Z</time></trkpt><trkpt lat="43.3501039" lon="13.1440045"><ele>457.00000000000006</ele><time>2026-04-11T07:14:17.909Z</time></trkpt><trkpt lat="43.3500766" lon="13.1438782"><ele>457.0</ele><time>2026-04-11T07:14:18.909Z</time></trkpt><trkpt lat="43.3500421" lon="13.1437425"><ele>457.20000000000005</ele><time>2026-04-11T07:14:19.913Z</time></trkpt><trkpt lat="43.3499969" lon="13.1436038"><ele>457.40000000000003</ele><time>2026-04-11T07:14:20.889Z</time></trkpt><trkpt lat="43.3499462" lon="13.1434719"><ele>457.59999999999997</ele><time>2026-04-11T07:14:21.891Z</time></trkpt><trkpt lat="43.3498955" lon="13.1433562"><ele>457.79999999999995</ele><time>2026-04-11T07:14:22.895Z</time></trkpt><trkpt lat="43.3498509" lon="13.14324"><ele>458.0</ele><time>2026-04-11T07:14:23.881Z</time></trkpt><trkpt lat="43.3498063" lon="13.1431051"><ele>458.75</ele><time>2026-04-11T07:14:24.909Z</time></trkpt><trkpt lat="43.3497583" lon="13.1429676"><ele>459.5</ele><time>2026-04-11T07:14:25.878Z</time></trkpt><trkpt lat="43.3497041" lon="13.1428176"><ele>460.25</ele><time>2026-04-11T07:14:26.899Z</time></trkpt><trkpt lat="43.3496495" lon="13.1426664"><ele>461.0</ele><time>2026-04-11T07:14:27.909Z</time></trkpt><trkpt lat="43.3495948" lon="13.1425166"><ele>461.8</ele><time>2026-04-11T07:14:28.895Z</time></trkpt><trkpt lat="43.3495423" lon="13.1423807"><ele>462.6</ele><time>2026-04-11T07:14:29.904Z</time></trkpt><trkpt lat="43.3494964" lon="13.1422582"><ele>463.4</ele><time>2026-04-11T07:14:30.931Z</time></trkpt><trkpt lat="43.3494582" lon="13.1421399"><ele>464.2</ele><time>2026-04-11T07:14:31.893Z</time></trkpt><trkpt lat="43.3494425" lon="13.1420251"><ele>465.0</ele><time>2026-04-11T07:14:32.88Z</time></trkpt><trkpt lat="43.3494389" lon="13.1418973"><ele>465.0</ele><time>2026-04-11T07:14:33.861Z</time></trkpt><trkpt lat="43.3494325" lon="13.14178"><ele>465.0</ele><time>2026-04-11T07:14:34.856Z</time></trkpt><trkpt lat="43.3494008" lon="13.1416646"><ele>465.0</ele><time>2026-04-11T07:14:35.848Z</time></trkpt><trkpt lat="43.3493519" lon="13.1415451"><ele>465.0</ele><time>2026-04-11T07:14:36.841Z</time></trkpt><trkpt lat="43.34929" lon="13.1414552"><ele>465.0</ele><time>2026-04-11T07:14:37.857Z</time></trkpt><trkpt lat="43.3492461" lon="13.1413283"><ele>465.6</ele><time>2026-04-11T07:14:38.85Z</time></trkpt><trkpt lat="43.3492008" lon="13.14119"><ele>466.2</ele><time>2026-04-11T07:14:39.844Z</time></trkpt><trkpt lat="43.3491609" lon="13.1410617"><ele>466.79999999999995</ele><time>2026-04-11T07:14:40.894Z</time></trkpt><trkpt lat="43.349112" lon="13.1409443"><ele>467.4</ele><time>2026-04-11T07:14:41.913Z</time></trkpt><trkpt lat="43.3490639" lon="13.1408341"><ele>468.0</ele><time>2026-04-11T07:14:42.911Z</time></trkpt><trkpt lat="43.3490013" lon="13.1407325"><ele>467.2</ele><time>2026-04-11T07:14:43.912Z</time></trkpt><trkpt lat="43.348932" lon="13.1406438"><ele>466.4</ele><time>2026-04-11T07:14:44.902Z</time></trkpt><trkpt lat="43.348854" lon="13.1405544"><ele>465.59999999999997</ele><time>2026-04-11T07:14:45.899Z</time></trkpt><trkpt lat="43.3487783" lon="13.1404685"><ele>464.79999999999995</ele><time>2026-04-11T07:14:46.893Z</time></trkpt><trkpt lat="43.3486884" lon="13.1403869"><ele>464.0</ele><time>2026-04-11T07:14:47.898Z</time></trkpt><trkpt lat="43.3485984" lon="13.1402975"><ele>465.2</ele><time>2026-04-11T07:14:48.889Z</time></trkpt><trkpt lat="43.3485168" lon="13.1401868"><ele>466.4</ele><time>2026-04-11T07:14:49.904Z</time></trkpt><trkpt lat="43.3484455" lon="13.1400607"><ele>467.6</ele><time>2026-04-11T07:14:50.908Z</time></trkpt><trkpt lat="43.3483911" lon="13.1399421"><ele>468.8</ele><time>2026-04-11T07:14:51.91Z</time></trkpt><trkpt lat="43.348348" lon="13.1398341"><ele>470.0</ele><time>2026-04-11T07:14:52.893Z</time></trkpt><trkpt lat="43.3483039" lon="13.1397324"><ele>469.99999999999994</ele><time>2026-04-11T07:14:53.852Z</time></trkpt><trkpt lat="43.3482613" lon="13.1396326"><ele>470.0</ele><time>2026-04-11T07:14:54.894Z</time></trkpt><trkpt lat="43.3482244" lon="13.1395355"><ele>470.0</ele><time>2026-04-11T07:14:55.902Z</time></trkpt><trkpt lat="43.3481929" lon="13.1394469"><ele>470.0</ele><time>2026-04-11T07:14:56.887Z</time></trkpt><trkpt lat="43.3481597" lon="13.1393557"><ele>469.99999999999994</ele><time>2026-04-11T07:14:57.895Z</time></trkpt><trkpt lat="43.3481283" lon="13.1392638"><ele>470.0</ele><time>2026-04-11T07:14:58.908Z</time></trkpt><trkpt lat="43.3480944" lon="13.1391816"><ele>470.0</ele><time>2026-04-11T07:14:59.927Z</time></trkpt><trkpt lat="43.3480579" lon="13.1391033"><ele>469.99999999999994</ele><time>2026-04-11T07:15:00.876Z</time></trkpt><trkpt lat="43.3480219" lon="13.1390291"><ele>470.0</ele><time>2026-04-11T07:15:01.902Z</time></trkpt><trkpt lat="43.3479787" lon="13.1389487"><ele>470.0</ele><time>2026-04-11T07:15:02.898Z</time></trkpt><trkpt lat="43.3479331" lon="13.1388667"><ele>469.99999999999994</ele><time>2026-04-11T07:15:03.895Z</time></trkpt><trkpt lat="43.34789" lon="13.1387783"><ele>470.0</ele><time>2026-04-11T07:15:04.855Z</time></trkpt><trkpt lat="43.3478483" lon="13.1386818"><ele>470.0</ele><time>2026-04-11T07:15:05.91Z</time></trkpt><trkpt lat="43.3478101" lon="13.1385882"><ele>467.99999999999994</ele><time>2026-04-11T07:15:06.905Z</time></trkpt><trkpt lat="43.3477761" lon="13.1384895"><ele>466.0</ele><time>2026-04-11T07:15:07.913Z</time></trkpt><trkpt lat="43.3477483" lon="13.1383892"><ele>464.0</ele><time>2026-04-11T07:15:08.889Z</time></trkpt><trkpt lat="43.3477227" lon="13.1382896"><ele>462.0</ele><time>2026-04-11T07:15:09.9Z</time></trkpt><trkpt lat="43.3476889" lon="13.1382015"><ele>459.99999999999994</ele><time>2026-04-11T07:15:10.892Z</time></trkpt><trkpt lat="43.3476474" lon="13.1381302"><ele>458.0</ele><time>2026-04-11T07:15:11.904Z</time></trkpt><trkpt lat="43.3475779" lon="13.1379941"><ele>457.57142857142856</ele><time>2026-04-11T07:15:13.894Z</time></trkpt><trkpt lat="43.347549" lon="13.1379038"><ele>457.14285714285717</ele><time>2026-04-11T07:15:14.859Z</time></trkpt><trkpt lat="43.3475254" lon="13.1378089"><ele>456.7142857142857</ele><time>2026-04-11T07:15:15.91Z</time></trkpt><trkpt lat="43.3475038" lon="13.1377141"><ele>456.2857142857143</ele><time>2026-04-11T07:15:16.903Z</time></trkpt><trkpt lat="43.3474849" lon="13.1376105"><ele>455.8571428571429</ele><time>2026-04-11T07:15:17.863Z</time></trkpt><trkpt lat="43.3474752" lon="13.1375097"><ele>455.42857142857144</ele><time>2026-04-11T07:15:18.881Z</time></trkpt><trkpt lat="43.3474738" lon="13.1374135"><ele>455.0</ele><time>2026-04-11T07:15:19.905Z</time></trkpt><trkpt lat="43.3474861" lon="13.137308"><ele>453.2</ele><time>2026-04-11T07:15:20.877Z</time></trkpt><trkpt lat="43.3475067" lon="13.1372029"><ele>451.4</ele><time>2026-04-11T07:15:21.881Z</time></trkpt><trkpt lat="43.3475362" lon="13.137081"><ele>449.6</ele><time>2026-04-11T07:15:22.87Z</time></trkpt><trkpt lat="43.3475687" lon="13.1369464"><ele>447.8</ele><time>2026-04-11T07:15:23.919Z</time></trkpt><trkpt lat="43.3476086" lon="13.1367985"><ele>446.0</ele><time>2026-04-11T07:15:24.865Z</time></trkpt><trkpt lat="43.3476488" lon="13.1366471"><ele>444.25</ele><time>2026-04-11T07:15:25.867Z</time></trkpt><trkpt lat="43.3476911" lon="13.1364906"><ele>442.5</ele><time>2026-04-11T07:15:26.888Z</time></trkpt><trkpt lat="43.347732" lon="13.1363319"><ele>440.75</ele><time>2026-04-11T07:15:27.896Z</time></trkpt><trkpt lat="43.3477674" lon="13.1361724"><ele>439.0</ele><time>2026-04-11T07:15:28.908Z</time></trkpt><trkpt lat="43.3478027" lon="13.136011"><ele>439.0</ele><time>2026-04-11T07:15:29.927Z</time></trkpt><trkpt lat="43.347834" lon="13.1358426"><ele>439.0</ele><time>2026-04-11T07:15:30.885Z</time></trkpt><trkpt lat="43.3478674" lon="13.1356749"><ele>439.0</ele><time>2026-04-11T07:15:31.899Z</time></trkpt><trkpt lat="43.3478911" lon="13.1355378"><ele>439.0</ele><time>2026-04-11T07:15:32.901Z</time></trkpt><trkpt lat="43.3479056" lon="13.1354228"><ele>439.0</ele><time>2026-04-11T07:15:33.906Z</time></trkpt><trkpt lat="43.3479087" lon="13.1353059"><ele>438.6666666666667</ele><time>2026-04-11T07:15:34.901Z</time></trkpt><trkpt lat="43.3478981" lon="13.1351977"><ele>438.33333333333337</ele><time>2026-04-11T07:15:35.899Z</time></trkpt><trkpt lat="43.3478744" lon="13.1350854"><ele>438.0</ele><time>2026-04-11T07:15:36.906Z</time></trkpt><trkpt lat="43.347842" lon="13.1349624"><ele>437.66666666666663</ele><time>2026-04-11T07:15:37.855Z</time></trkpt><trkpt lat="43.3478135" lon="13.1348384"><ele>437.3333333333333</ele><time>2026-04-11T07:15:38.885Z</time></trkpt><trkpt lat="43.3477905" lon="13.1347123"><ele>437.0</ele><time>2026-04-11T07:15:39.911Z</time></trkpt><trkpt lat="43.3477603" lon="13.1345875"><ele>437.0</ele><time>2026-04-11T07:15:40.894Z</time></trkpt><trkpt lat="43.3477281" lon="13.1344627"><ele>437.00000000000006</ele><time>2026-04-11T07:15:41.903Z</time></trkpt><trkpt lat="43.3477016" lon="13.1343445"><ele>437.00000000000006</ele><time>2026-04-11T07:15:42.913Z</time></trkpt><trkpt lat="43.3476722" lon="13.1342263"><ele>437.0</ele><time>2026-04-11T07:15:43.906Z</time></trkpt><trkpt lat="43.3476416" lon="13.1341139"><ele>437.0</ele><time>2026-04-11T07:15:44.923Z</time></trkpt><trkpt lat="43.3476095" lon="13.1340039"><ele>437.20000000000005</ele><time>2026-04-11T07:15:45.907Z</time></trkpt><trkpt lat="43.34758" lon="13.1338922"><ele>437.40000000000003</ele><time>2026-04-11T07:15:46.901Z</time></trkpt><trkpt lat="43.3475514" lon="13.1337664"><ele>437.59999999999997</ele><time>2026-04-11T07:15:47.879Z</time></trkpt><trkpt lat="43.3475135" lon="13.1336198"><ele>437.79999999999995</ele><time>2026-04-11T07:15:48.906Z</time></trkpt><trkpt lat="43.3474772" lon="13.1334751"><ele>438.0</ele><time>2026-04-11T07:15:49.883Z</time></trkpt><trkpt lat="43.3474464" lon="13.1333409"><ele>438.4</ele><time>2026-04-11T07:15:50.901Z</time></trkpt><trkpt lat="43.3474171" lon="13.1332112"><ele>438.79999999999995</ele><time>2026-04-11T07:15:51.907Z</time></trkpt><trkpt lat="43.3473876" lon="13.1330855"><ele>439.2</ele><time>2026-04-11T07:15:52.89Z</time></trkpt><trkpt lat="43.3473573" lon="13.1329593"><ele>439.6</ele><time>2026-04-11T07:15:53.915Z</time></trkpt><trkpt lat="43.347341" lon="13.1328338"><ele>440.0</ele><time>2026-04-11T07:15:54.914Z</time></trkpt><trkpt lat="43.3473298" lon="13.1327221"><ele>439.99999999999994</ele><time>2026-04-11T07:15:55.903Z</time></trkpt><trkpt lat="43.347311" lon="13.1326229"><ele>440.0</ele><time>2026-04-11T07:15:56.912Z</time></trkpt><trkpt lat="43.3472768" lon="13.1325264"><ele>440.0</ele><time>2026-04-11T07:15:57.892Z</time></trkpt><trkpt lat="43.3472275" lon="13.1324343"><ele>440.0</ele><time>2026-04-11T07:15:58.904Z</time></trkpt><trkpt lat="43.3471923" lon="13.1323496"><ele>439.99999999999994</ele><time>2026-04-11T07:15:59.903Z</time></trkpt><trkpt lat="43.3471751" lon="13.1322496"><ele>440.0</ele><time>2026-04-11T07:16:00.872Z</time></trkpt><trkpt lat="43.3471643" lon="13.1321514"><ele>440.71428571428567</ele><time>2026-04-11T07:16:01.907Z</time></trkpt><trkpt lat="43.3471406" lon="13.1320572"><ele>441.42857142857144</ele><time>2026-04-11T07:16:02.901Z</time></trkpt><trkpt lat="43.3471028" lon="13.131973"><ele>442.1428571428571</ele><time>2026-04-11T07:16:03.922Z</time></trkpt><trkpt lat="43.3470775" lon="13.131887"><ele>442.85714285714283</ele><time>2026-04-11T07:16:04.918Z</time></trkpt><trkpt lat="43.3470668" lon="13.131786"><ele>443.57142857142856</ele><time>2026-04-11T07:16:05.906Z</time></trkpt><trkpt lat="43.3470629" lon="13.1316865"><ele>444.2857142857143</ele><time>2026-04-11T07:16:06.841Z</time></trkpt><trkpt lat="43.3470446" lon="13.1315821"><ele>445.0</ele><time>2026-04-11T07:16:07.861Z</time></trkpt><trkpt lat="43.3470203" lon="13.1314938"><ele>446.33333333333337</ele><time>2026-04-11T07:16:08.865Z</time></trkpt><trkpt lat="43.346998" lon="13.1314056"><ele>447.6666666666667</ele><time>2026-04-11T07:16:09.843Z</time></trkpt><trkpt lat="43.3469734" lon="13.131312"><ele>449.0</ele><time>2026-04-11T07:16:10.845Z</time></trkpt><trkpt lat="43.3469528" lon="13.1312112"><ele>450.33333333333337</ele><time>2026-04-11T07:16:11.869Z</time></trkpt><trkpt lat="43.3469224" lon="13.1311119"><ele>451.6666666666667</ele><time>2026-04-11T07:16:12.865Z</time></trkpt><trkpt lat="43.3468808" lon="13.1310114"><ele>453.0</ele><time>2026-04-11T07:16:13.878Z</time></trkpt><trkpt lat="43.3468431" lon="13.1309213"><ele>453.0</ele><time>2026-04-11T07:16:14.884Z</time></trkpt><trkpt lat="43.3468001" lon="13.1308305"><ele>453.0</ele><time>2026-04-11T07:16:15.869Z</time></trkpt><trkpt lat="43.3467442" lon="13.1307231"><ele>453.0</ele><time>2026-04-11T07:16:16.851Z</time></trkpt><trkpt lat="43.3466895" lon="13.1306225"><ele>453.0</ele><time>2026-04-11T07:16:17.881Z</time></trkpt><trkpt lat="43.3466341" lon="13.1305206"><ele>453.0</ele><time>2026-04-11T07:16:18.861Z</time></trkpt><trkpt lat="43.3465898" lon="13.130441"><ele>453.0</ele><time>2026-04-11T07:16:19.879Z</time></trkpt><trkpt lat="43.3465444" lon="13.1303653"><ele>453.1666666666667</ele><time>2026-04-11T07:16:20.864Z</time></trkpt><trkpt lat="43.3464987" lon="13.1302922"><ele>453.33333333333337</ele><time>2026-04-11T07:16:21.876Z</time></trkpt><trkpt lat="43.3464487" lon="13.1302196"><ele>453.5</ele><time>2026-04-11T07:16:22.872Z</time></trkpt><trkpt lat="43.3463882" lon="13.1301325"><ele>453.6666666666667</ele><time>2026-04-11T07:16:23.868Z</time></trkpt><trkpt lat="43.3463343" lon="13.1300455"><ele>453.83333333333337</ele><time>2026-04-11T07:16:24.855Z</time></trkpt><trkpt lat="43.3462837" lon="13.1299536"><ele>454.0</ele><time>2026-04-11T07:16:25.87Z</time></trkpt><trkpt lat="43.3462416" lon="13.1298563"><ele>454.33333333333337</ele><time>2026-04-11T07:16:26.858Z</time></trkpt><trkpt lat="43.3461905" lon="13.1297633"><ele>454.6666666666667</ele><time>2026-04-11T07:16:27.857Z</time></trkpt><trkpt lat="43.3461383" lon="13.1296628"><ele>455.0</ele><time>2026-04-11T07:16:28.85Z</time></trkpt><trkpt lat="43.3460822" lon="13.1295679"><ele>455.33333333333337</ele><time>2026-04-11T07:16:29.865Z</time></trkpt><trkpt lat="43.3460473" lon="13.129478"><ele>455.6666666666667</ele><time>2026-04-11T07:16:30.885Z</time></trkpt><trkpt lat="43.3460081" lon="13.1293872"><ele>456.0</ele><time>2026-04-11T07:16:31.882Z</time></trkpt><trkpt lat="43.345969" lon="13.1293036"><ele>456.0</ele><time>2026-04-11T07:16:32.864Z</time></trkpt><trkpt lat="43.3459346" lon="13.1292239"><ele>455.99999999999994</ele><time>2026-04-11T07:16:33.873Z</time></trkpt><trkpt lat="43.3458977" lon="13.1291368"><ele>456.0</ele><time>2026-04-11T07:16:34.857Z</time></trkpt><trkpt lat="43.3458618" lon="13.1290449"><ele>456.0</ele><time>2026-04-11T07:16:35.907Z</time></trkpt><trkpt lat="43.3458285" lon="13.1289573"><ele>455.99999999999994</ele><time>2026-04-11T07:16:36.888Z</time></trkpt><trkpt lat="43.345795" lon="13.1288732"><ele>456.0</ele><time>2026-04-11T07:16:37.849Z</time></trkpt><trkpt lat="43.3457596" lon="13.1287853"><ele>456.0</ele><time>2026-04-11T07:16:38.886Z</time></trkpt><trkpt lat="43.3457348" lon="13.1286987"><ele>455.85714285714283</ele><time>2026-04-11T07:16:39.897Z</time></trkpt><trkpt lat="43.3457035" lon="13.1286101"><ele>455.71428571428567</ele><time>2026-04-11T07:16:40.897Z</time></trkpt><trkpt lat="43.3456806" lon="13.1285293"><ele>455.57142857142856</ele><time>2026-04-11T07:16:41.903Z</time></trkpt><trkpt lat="43.3456539" lon="13.1284474"><ele>455.42857142857144</ele><time>2026-04-11T07:16:42.91Z</time></trkpt><trkpt lat="43.3456231" lon="13.1283606"><ele>455.2857142857143</ele><time>2026-04-11T07:16:43.894Z</time></trkpt><trkpt lat="43.3455838" lon="13.1282694"><ele>455.1428571428571</ele><time>2026-04-11T07:16:44.888Z</time></trkpt><trkpt lat="43.3455245" lon="13.1281807"><ele>455.0</ele><time>2026-04-11T07:16:45.898Z</time></trkpt><trkpt lat="43.3454521" lon="13.1280953"><ele>456.25</ele><time>2026-04-11T07:16:46.879Z</time></trkpt><trkpt lat="43.3453532" lon="13.1280136"><ele>457.5</ele><time>2026-04-11T07:16:47.892Z</time></trkpt><trkpt lat="43.3452492" lon="13.1279441"><ele>458.75</ele><time>2026-04-11T07:16:48.881Z</time></trkpt><trkpt lat="43.3451374" lon="13.1278828"><ele>460.0</ele><time>2026-04-11T07:16:49.897Z</time></trkpt><trkpt lat="43.3450094" lon="13.1278174"><ele>460.0</ele><time>2026-04-11T07:16:50.907Z</time></trkpt><trkpt lat="43.3448759" lon="13.1277559"><ele>460.0</ele><time>2026-04-11T07:16:51.903Z</time></trkpt><trkpt lat="43.3447541" lon="13.1276966"><ele>460.0</ele><time>2026-04-11T07:16:52.876Z</time></trkpt><trkpt lat="43.3446426" lon="13.1276507"><ele>460.0</ele><time>2026-04-11T07:16:53.91Z</time></trkpt><trkpt lat="43.3445386" lon="13.1276247"><ele>458.75</ele><time>2026-04-11T07:16:54.889Z</time></trkpt><trkpt lat="43.3444277" lon="13.1276086"><ele>457.5</ele><time>2026-04-11T07:16:55.9Z</time></trkpt><trkpt lat="43.344308" lon="13.127577"><ele>456.25</ele><time>2026-04-11T07:16:56.893Z</time></trkpt><trkpt lat="43.3441955" lon="13.1275153"><ele>455.0</ele><time>2026-04-11T07:16:57.852Z</time></trkpt><trkpt lat="43.3440941" lon="13.1274409"><ele>457.5</ele><time>2026-04-11T07:16:59.057Z</time></trkpt><trkpt lat="43.3439194" lon="13.1273398"><ele>460.0</ele><time>2026-04-11T07:17:00.987Z</time></trkpt><trkpt lat="43.3438242" lon="13.1273114"><ele>462.5</ele><time>2026-04-11T07:17:01.907Z</time></trkpt><trkpt lat="43.3437179" lon="13.1273066"><ele>465.0</ele><time>2026-04-11T07:17:02.862Z</time></trkpt><trkpt lat="43.3436002" lon="13.1273072"><ele>465.8</ele><time>2026-04-11T07:17:03.862Z</time></trkpt><trkpt lat="43.3435052" lon="13.1273377"><ele>466.6</ele><time>2026-04-11T07:17:04.861Z</time></trkpt><trkpt lat="43.3434233" lon="13.1273786"><ele>467.4</ele><time>2026-04-11T07:17:05.852Z</time></trkpt><trkpt lat="43.3433289" lon="13.1274327"><ele>468.2</ele><time>2026-04-11T07:17:06.873Z</time></trkpt><trkpt lat="43.3432311" lon="13.1274974"><ele>469.0</ele><time>2026-04-11T07:17:07.862Z</time></trkpt><trkpt lat="43.3431337" lon="13.127556"><ele>467.4</ele><time>2026-04-11T07:17:08.897Z</time></trkpt><trkpt lat="43.3430247" lon="13.127615"><ele>465.79999999999995</ele><time>2026-04-11T07:17:09.874Z</time></trkpt><trkpt lat="43.3429184" lon="13.1276756"><ele>464.20000000000005</ele><time>2026-04-11T07:17:10.894Z</time></trkpt><trkpt lat="43.3428151" lon="13.1277011"><ele>462.6</ele><time>2026-04-11T07:17:11.903Z</time></trkpt><trkpt lat="43.3427168" lon="13.1277085"><ele>461.0</ele><time>2026-04-11T07:17:12.905Z</time></trkpt><trkpt lat="43.342627" lon="13.1276937"><ele>461.0</ele><time>2026-04-11T07:17:13.903Z</time></trkpt><trkpt lat="43.3425387" lon="13.1276642"><ele>461.0</ele><time>2026-04-11T07:17:14.853Z</time></trkpt><trkpt lat="43.3424537" lon="13.127613"><ele>461.0</ele><time>2026-04-11T07:17:15.924Z</time></trkpt><trkpt lat="43.342376" lon="13.1275455"><ele>461.0</ele><time>2026-04-11T07:17:16.918Z</time></trkpt><trkpt lat="43.3422903" lon="13.1274752"><ele>461.0</ele><time>2026-04-11T07:17:17.906Z</time></trkpt><trkpt lat="43.3421849" lon="13.1273789"><ele>464.0</ele><time>2026-04-11T07:17:18.876Z</time></trkpt><trkpt lat="43.3420614" lon="13.1272635"><ele>467.0</ele><time>2026-04-11T07:17:19.854Z</time></trkpt><trkpt lat="43.3419238" lon="13.1271363"><ele>470.0</ele><time>2026-04-11T07:17:20.889Z</time></trkpt><trkpt lat="43.3417915" lon="13.1270157"><ele>470.0</ele><time>2026-04-11T07:17:21.886Z</time></trkpt><trkpt lat="43.3416655" lon="13.1269113"><ele>470.0</ele><time>2026-04-11T07:17:22.895Z</time></trkpt><trkpt lat="43.3415441" lon="13.1268333"><ele>470.0</ele><time>2026-04-11T07:17:23.896Z</time></trkpt><trkpt lat="43.3414293" lon="13.1267777"><ele>470.0</ele><time>2026-04-11T07:17:24.915Z</time></trkpt><trkpt lat="43.3413117" lon="13.1267287"><ele>470.0</ele><time>2026-04-11T07:17:25.908Z</time></trkpt><trkpt lat="43.3411889" lon="13.1266954"><ele>470.0</ele><time>2026-04-11T07:17:26.87Z</time></trkpt><trkpt lat="43.3410618" lon="13.1266744"><ele>470.0</ele><time>2026-04-11T07:17:27.856Z</time></trkpt><trkpt lat="43.3409329" lon="13.1266548"><ele>470.0</ele><time>2026-04-11T07:17:28.848Z</time></trkpt><trkpt lat="43.3408055" lon="13.1266326"><ele>470.0</ele><time>2026-04-11T07:17:29.884Z</time></trkpt><trkpt lat="43.3406802" lon="13.1265968"><ele>470.0</ele><time>2026-04-11T07:17:30.892Z</time></trkpt><trkpt lat="43.3405549" lon="13.1265671"><ele>470.0</ele><time>2026-04-11T07:17:31.922Z</time></trkpt><trkpt lat="43.3404343" lon="13.1265338"><ele>470.0</ele><time>2026-04-11T07:17:32.899Z</time></trkpt><trkpt lat="43.3403139" lon="13.1264862"><ele>471.75</ele><time>2026-04-11T07:17:33.863Z</time></trkpt><trkpt lat="43.3401961" lon="13.1264313"><ele>473.5</ele><time>2026-04-11T07:17:34.888Z</time></trkpt><trkpt lat="43.3400815" lon="13.1263854"><ele>475.25</ele><time>2026-04-11T07:17:35.883Z</time></trkpt><trkpt lat="43.3399688" lon="13.1263564"><ele>477.0</ele><time>2026-04-11T07:17:36.913Z</time></trkpt><trkpt lat="43.3398592" lon="13.1263549"><ele>477.0</ele><time>2026-04-11T07:17:37.851Z</time></trkpt><trkpt lat="43.339752" lon="13.1263692"><ele>477.00000000000006</ele><time>2026-04-11T07:17:38.925Z</time></trkpt><trkpt lat="43.3396509" lon="13.126371"><ele>477.00000000000006</ele><time>2026-04-11T07:17:39.929Z</time></trkpt><trkpt lat="43.3395586" lon="13.1263328"><ele>477.0</ele><time>2026-04-11T07:17:40.91Z</time></trkpt><trkpt lat="43.3394656" lon="13.1262609"><ele>477.0</ele><time>2026-04-11T07:17:41.89Z</time></trkpt><trkpt lat="43.3393632" lon="13.1261615"><ele>478.75</ele><time>2026-04-11T07:17:42.901Z</time></trkpt><trkpt lat="43.3392485" lon="13.1260713"><ele>480.5</ele><time>2026-04-11T07:17:43.869Z</time></trkpt><trkpt lat="43.3391203" lon="13.1259719"><ele>482.25</ele><time>2026-04-11T07:17:44.858Z</time></trkpt><trkpt lat="43.3389751" lon="13.125871"><ele>484.0</ele><time>2026-04-11T07:17:45.903Z</time></trkpt><trkpt lat="43.3388266" lon="13.1257914"><ele>484.25</ele><time>2026-04-11T07:17:46.882Z</time></trkpt><trkpt lat="43.3386897" lon="13.1257243"><ele>484.5</ele><time>2026-04-11T07:17:47.902Z</time></trkpt><trkpt lat="43.3385691" lon="13.1256634"><ele>484.75</ele><time>2026-04-11T07:17:48.898Z</time></trkpt><trkpt lat="43.3384501" lon="13.1256015"><ele>485.0</ele><time>2026-04-11T07:17:49.906Z</time></trkpt><trkpt lat="43.3383316" lon="13.1255351"><ele>485.0</ele><time>2026-04-11T07:17:50.901Z</time></trkpt><trkpt lat="43.3382045" lon="13.1254331"><ele>485.0</ele><time>2026-04-11T07:17:51.898Z</time></trkpt><trkpt lat="43.3380864" lon="13.125313"><ele>485.0</ele><time>2026-04-11T07:17:52.887Z</time></trkpt><trkpt lat="43.3379598" lon="13.1251845"><ele>486.3333333333333</ele><time>2026-04-11T07:17:53.905Z</time></trkpt><trkpt lat="43.3378247" lon="13.1250483"><ele>487.66666666666663</ele><time>2026-04-11T07:17:54.886Z</time></trkpt><trkpt lat="43.3377006" lon="13.1249157"><ele>489.0</ele><time>2026-04-11T07:17:55.913Z</time></trkpt><trkpt lat="43.3375865" lon="13.124797"><ele>489.0</ele><time>2026-04-11T07:17:56.897Z</time></trkpt><trkpt lat="43.3374732" lon="13.1246794"><ele>489.0</ele><time>2026-04-11T07:17:57.917Z</time></trkpt><trkpt lat="43.3373557" lon="13.1245846"><ele>489.0</ele><time>2026-04-11T07:17:58.871Z</time></trkpt><trkpt lat="43.3372386" lon="13.124516"><ele>489.0</ele><time>2026-04-11T07:17:59.884Z</time></trkpt><trkpt lat="43.3370905" lon="13.1244701"><ele>490.66666666666663</ele><time>2026-04-11T07:18:00.898Z</time></trkpt><trkpt lat="43.3369316" lon="13.1244414"><ele>492.3333333333333</ele><time>2026-04-11T07:18:01.884Z</time></trkpt><trkpt lat="43.3367636" lon="13.1244245"><ele>494.0</ele><time>2026-04-11T07:18:02.848Z</time></trkpt><trkpt lat="43.3366013" lon="13.1243876"><ele>494.0</ele><time>2026-04-11T07:18:03.882Z</time></trkpt><trkpt lat="43.336442" lon="13.1243366"><ele>494.0</ele><time>2026-04-11T07:18:04.904Z</time></trkpt><trkpt lat="43.3362928" lon="13.1242782"><ele>494.0</ele><time>2026-04-11T07:18:05.905Z</time></trkpt><trkpt lat="43.3361646" lon="13.1242231"><ele>494.6</ele><time>2026-04-11T07:18:06.881Z</time></trkpt><trkpt lat="43.3360596" lon="13.1241708"><ele>495.2</ele><time>2026-04-11T07:18:07.901Z</time></trkpt><trkpt lat="43.3359613" lon="13.1241315"><ele>495.80000000000007</ele><time>2026-04-11T07:18:08.897Z</time></trkpt><trkpt lat="43.3358548" lon="13.1241008"><ele>496.40000000000003</ele><time>2026-04-11T07:18:09.902Z</time></trkpt><trkpt lat="43.3357307" lon="13.1240882"><ele>497.0</ele><time>2026-04-11T07:18:10.884Z</time></trkpt><trkpt lat="43.3355918" lon="13.1240769"><ele>497.75</ele><time>2026-04-11T07:18:11.91Z</time></trkpt><trkpt lat="43.3354472" lon="13.1240672"><ele>498.5</ele><time>2026-04-11T07:18:12.926Z</time></trkpt><trkpt lat="43.3353209" lon="13.1240408"><ele>499.25</ele><time>2026-04-11T07:18:13.908Z</time></trkpt><trkpt lat="43.3351968" lon="13.1240142"><ele>500.0</ele><time>2026-04-11T07:18:14.893Z</time></trkpt><trkpt lat="43.3350889" lon="13.1239924"><ele>500.0</ele><time>2026-04-11T07:18:15.897Z</time></trkpt><trkpt lat="43.3349825" lon="13.1239901"><ele>500.0</ele><time>2026-04-11T07:18:16.908Z</time></trkpt><trkpt lat="43.3348708" lon="13.1240145"><ele>500.0</ele><time>2026-04-11T07:18:17.896Z</time></trkpt><trkpt lat="43.3347508" lon="13.1240604"><ele>500.0</ele><time>2026-04-11T07:18:18.906Z</time></trkpt><trkpt lat="43.3346185" lon="13.1241219"><ele>500.0</ele><time>2026-04-11T07:18:19.903Z</time></trkpt><trkpt lat="43.3344787" lon="13.1241803"><ele>500.0</ele><time>2026-04-11T07:18:20.916Z</time></trkpt><trkpt lat="43.3343201" lon="13.1242262"><ele>500.0</ele><time>2026-04-11T07:18:21.903Z</time></trkpt><trkpt lat="43.3341561" lon="13.1242633"><ele>500.0</ele><time>2026-04-11T07:18:22.892Z</time></trkpt><trkpt lat="43.3339969" lon="13.1242904"><ele>500.0</ele><time>2026-04-11T07:18:23.915Z</time></trkpt><trkpt lat="43.3338508" lon="13.1242946"><ele>500.0</ele><time>2026-04-11T07:18:24.907Z</time></trkpt><trkpt lat="43.3337135" lon="13.1243129"><ele>500.0</ele><time>2026-04-11T07:18:25.907Z</time></trkpt><trkpt lat="43.333582" lon="13.1243204"><ele>500.8</ele><time>2026-04-11T07:18:26.857Z</time></trkpt><trkpt lat="43.3334689" lon="13.1243308"><ele>501.6</ele><time>2026-04-11T07:18:27.846Z</time></trkpt><trkpt lat="43.3333676" lon="13.124351"><ele>502.4</ele><time>2026-04-11T07:18:28.858Z</time></trkpt><trkpt lat="43.3332777" lon="13.1243721"><ele>503.2</ele><time>2026-04-11T07:18:29.894Z</time></trkpt><trkpt lat="43.3332055" lon="13.1243994"><ele>504.0</ele><time>2026-04-11T07:18:30.88Z</time></trkpt><trkpt lat="43.3331051" lon="13.1244249"><ele>503.2</ele><time>2026-04-11T07:18:32.864Z</time></trkpt><trkpt lat="43.3330406" lon="13.1243332"><ele>502.4</ele><time>2026-04-11T07:18:34.884Z</time></trkpt><trkpt lat="43.333025" lon="13.1242459"><ele>501.6</ele><time>2026-04-11T07:18:35.919Z</time></trkpt><trkpt lat="43.3330187" lon="13.1241313"><ele>500.8</ele><time>2026-04-11T07:18:36.844Z</time></trkpt><trkpt lat="43.3330032" lon="13.1240016"><ele>500.0</ele><time>2026-04-11T07:18:37.88Z</time></trkpt><trkpt lat="43.3329725" lon="13.1238524"><ele>499.4</ele><time>2026-04-11T07:18:38.838Z</time></trkpt><trkpt lat="43.3329403" lon="13.1237062"><ele>498.8</ele><time>2026-04-11T07:18:39.911Z</time></trkpt><trkpt lat="43.3329087" lon="13.1235677"><ele>498.20000000000005</ele><time>2026-04-11T07:18:40.915Z</time></trkpt><trkpt lat="43.3328791" lon="13.1234366"><ele>497.6</ele><time>2026-04-11T07:18:41.894Z</time></trkpt><trkpt lat="43.3328506" lon="13.1233107"><ele>497.0</ele><time>2026-04-11T07:18:42.913Z</time></trkpt><trkpt lat="43.3328092" lon="13.1231948"><ele>497.0</ele><time>2026-04-11T07:18:43.903Z</time></trkpt><trkpt lat="43.3327417" lon="13.1230813"><ele>497.0</ele><time>2026-04-11T07:18:44.911Z</time></trkpt><trkpt lat="43.332657" lon="13.1229644"><ele>497.0</ele><time>2026-04-11T07:18:45.918Z</time></trkpt><trkpt lat="43.3325517" lon="13.1228337"><ele>497.0</ele><time>2026-04-11T07:18:46.891Z</time></trkpt><trkpt lat="43.3324481" lon="13.1226878"><ele>497.0</ele><time>2026-04-11T07:18:47.887Z</time></trkpt><trkpt lat="43.3323558" lon="13.1225232"><ele>497.0</ele><time>2026-04-11T07:18:48.885Z</time></trkpt><trkpt lat="43.3322612" lon="13.1223489"><ele>497.0</ele><time>2026-04-11T07:18:49.868Z</time></trkpt><trkpt lat="43.3321638" lon="13.1221836"><ele>496.3333333333333</ele><time>2026-04-11T07:18:50.854Z</time></trkpt><trkpt lat="43.3320633" lon="13.1220153"><ele>495.66666666666663</ele><time>2026-04-11T07:18:51.894Z</time></trkpt><trkpt lat="43.3319573" lon="13.1218368"><ele>495.0</ele><time>2026-04-11T07:18:52.972Z</time></trkpt><trkpt lat="43.331746" lon="13.1214801"><ele>495.0</ele><time>2026-04-11T07:18:54.856Z</time></trkpt><trkpt lat="43.3316438" lon="13.1213191"><ele>495.0</ele><time>2026-04-11T07:18:55.883Z</time></trkpt><trkpt lat="43.3315357" lon="13.1211637"><ele>495.0</ele><time>2026-04-11T07:18:56.922Z</time></trkpt><trkpt lat="43.3314162" lon="13.1210256"><ele>494.33333333333337</ele><time>2026-04-11T07:18:57.901Z</time></trkpt><trkpt lat="43.3312824" lon="13.1208927"><ele>493.6666666666667</ele><time>2026-04-11T07:18:58.885Z</time></trkpt><trkpt lat="43.3311435" lon="13.1207812"><ele>493.0</ele><time>2026-04-11T07:18:59.886Z</time></trkpt><trkpt lat="43.3309998" lon="13.1207089"><ele>493.0</ele><time>2026-04-11T07:19:00.89Z</time></trkpt><trkpt lat="43.3308467" lon="13.120684"><ele>493.0</ele><time>2026-04-11T07:19:01.892Z</time></trkpt><trkpt lat="43.3306887" lon="13.1207101"><ele>493.0</ele><time>2026-04-11T07:19:02.91Z</time></trkpt><trkpt lat="43.3305303" lon="13.1207768"><ele>490.0</ele><time>2026-04-11T07:19:03.886Z</time></trkpt><trkpt lat="43.3303728" lon="13.1208513"><ele>487.0</ele><time>2026-04-11T07:19:04.908Z</time></trkpt><trkpt lat="43.3302235" lon="13.1209361"><ele>484.0</ele><time>2026-04-11T07:19:05.918Z</time></trkpt><trkpt lat="43.3300809" lon="13.1210195"><ele>484.0</ele><time>2026-04-11T07:19:06.916Z</time></trkpt><trkpt lat="43.3299415" lon="13.1211192"><ele>484.0</ele><time>2026-04-11T07:19:07.895Z</time></trkpt><trkpt lat="43.3298045" lon="13.1212523"><ele>484.0</ele><time>2026-04-11T07:19:08.856Z</time></trkpt><trkpt lat="43.3296798" lon="13.1214037"><ele>484.0</ele><time>2026-04-11T07:19:09.852Z</time></trkpt><trkpt lat="43.329554" lon="13.1215674"><ele>484.0</ele><time>2026-04-11T07:19:10.885Z</time></trkpt><trkpt lat="43.3294306" lon="13.1217372"><ele>484.0</ele><time>2026-04-11T07:19:11.881Z</time></trkpt><trkpt lat="43.329309" lon="13.1219184"><ele>484.0</ele><time>2026-04-11T07:19:12.887Z</time></trkpt><trkpt lat="43.3291885" lon="13.1221059"><ele>484.0</ele><time>2026-04-11T07:19:13.91Z</time></trkpt><trkpt lat="43.3290679" lon="13.1222862"><ele>484.0</ele><time>2026-04-11T07:19:14.873Z</time></trkpt><trkpt lat="43.3289573" lon="13.1224562"><ele>485.33333333333337</ele><time>2026-04-11T07:19:15.904Z</time></trkpt><trkpt lat="43.3288536" lon="13.1226293"><ele>486.66666666666663</ele><time>2026-04-11T07:19:16.862Z</time></trkpt><trkpt lat="43.3287585" lon="13.1228096"><ele>488.0</ele><time>2026-04-11T07:19:17.892Z</time></trkpt><trkpt lat="43.3286653" lon="13.1229937"><ele>488.0</ele><time>2026-04-11T07:19:18.891Z</time></trkpt><trkpt lat="43.3285802" lon="13.1231905"><ele>488.0</ele><time>2026-04-11T07:19:19.903Z</time></trkpt><trkpt lat="43.3285133" lon="13.1233925"><ele>488.0</ele><time>2026-04-11T07:19:20.901Z</time></trkpt><trkpt lat="43.3284663" lon="13.1236037"><ele>485.3333333333333</ele><time>2026-04-11T07:19:21.926Z</time></trkpt><trkpt lat="43.3284201" lon="13.1238347"><ele>482.66666666666663</ele><time>2026-04-11T07:19:22.904Z</time></trkpt><trkpt lat="43.3283733" lon="13.1240776"><ele>480.0</ele><time>2026-04-11T07:19:23.905Z</time></trkpt><trkpt lat="43.328316" lon="13.1243372"><ele>478.33333333333337</ele><time>2026-04-11T07:19:24.896Z</time></trkpt><trkpt lat="43.3282484" lon="13.1245928"><ele>476.6666666666667</ele><time>2026-04-11T07:19:25.882Z</time></trkpt><trkpt lat="43.3281669" lon="13.124824"><ele>475.0</ele><time>2026-04-11T07:19:26.896Z</time></trkpt><trkpt lat="43.3280782" lon="13.1250378"><ele>478.33333333333337</ele><time>2026-04-11T07:19:27.894Z</time></trkpt><trkpt lat="43.3279749" lon="13.1252354"><ele>481.66666666666663</ele><time>2026-04-11T07:19:28.894Z</time></trkpt><trkpt lat="43.3278548" lon="13.1254049"><ele>485.0</ele><time>2026-04-11T07:19:29.892Z</time></trkpt><trkpt lat="43.3277094" lon="13.1255584"><ele>485.0</ele><time>2026-04-11T07:19:30.881Z</time></trkpt><trkpt lat="43.3275561" lon="13.1256949"><ele>485.0</ele><time>2026-04-11T07:19:31.897Z</time></trkpt><trkpt lat="43.3273891" lon="13.1258242"><ele>485.0</ele><time>2026-04-11T07:19:32.885Z</time></trkpt><trkpt lat="43.3272155" lon="13.1259509"><ele>479.3333333333333</ele><time>2026-04-11T07:19:33.866Z</time></trkpt><trkpt lat="43.3270445" lon="13.1260765"><ele>473.66666666666663</ele><time>2026-04-11T07:19:34.868Z</time></trkpt><trkpt lat="43.3268812" lon="13.1261957"><ele>468.0</ele><time>2026-04-11T07:19:35.917Z</time></trkpt><trkpt lat="43.326725" lon="13.1263065"><ele>468.0</ele><time>2026-04-11T07:19:36.892Z</time></trkpt><trkpt lat="43.3265746" lon="13.1264096"><ele>468.0</ele><time>2026-04-11T07:19:37.895Z</time></trkpt><trkpt lat="43.3264201" lon="13.1265111"><ele>468.0</ele><time>2026-04-11T07:19:38.842Z</time></trkpt><trkpt lat="43.3262726" lon="13.126601"><ele>464.0</ele><time>2026-04-11T07:19:39.911Z</time></trkpt><trkpt lat="43.3261176" lon="13.1266801"><ele>460.0</ele><time>2026-04-11T07:19:40.903Z</time></trkpt><trkpt lat="43.3259614" lon="13.1267532"><ele>456.0</ele><time>2026-04-11T07:19:41.908Z</time></trkpt><trkpt lat="43.3257989" lon="13.126817"><ele>456.0</ele><time>2026-04-11T07:19:42.891Z</time></trkpt><trkpt lat="43.325641" lon="13.1268629"><ele>456.0</ele><time>2026-04-11T07:19:43.874Z</time></trkpt><trkpt lat="43.3254937" lon="13.1268646"><ele>456.0</ele><time>2026-04-11T07:19:44.874Z</time></trkpt><trkpt lat="43.3253503" lon="13.1268004"><ele>456.33333333333337</ele><time>2026-04-11T07:19:45.89Z</time></trkpt><trkpt lat="43.3252241" lon="13.1266738"><ele>456.6666666666667</ele><time>2026-04-11T07:19:46.921Z</time></trkpt><trkpt lat="43.3250963" lon="13.126528"><ele>457.0</ele><time>2026-04-11T07:19:47.884Z</time></trkpt><trkpt lat="43.3249788" lon="13.1263729"><ele>457.0</ele><time>2026-04-11T07:19:48.897Z</time></trkpt><trkpt lat="43.3248701" lon="13.1262304"><ele>457.0</ele><time>2026-04-11T07:19:49.914Z</time></trkpt><trkpt lat="43.3247706" lon="13.126097"><ele>457.0</ele><time>2026-04-11T07:19:50.895Z</time></trkpt><trkpt lat="43.3246701" lon="13.125984"><ele>457.0</ele><time>2026-04-11T07:19:51.909Z</time></trkpt><trkpt lat="43.3245542" lon="13.1259109"><ele>457.0</ele><time>2026-04-11T07:19:52.891Z</time></trkpt><trkpt lat="43.324425" lon="13.1258868"><ele>457.0</ele><time>2026-04-11T07:19:53.914Z</time></trkpt><trkpt lat="43.3242999" lon="13.1259221"><ele>457.0</ele><time>2026-04-11T07:19:54.898Z</time></trkpt><trkpt lat="43.324189" lon="13.1259824"><ele>457.0</ele><time>2026-04-11T07:19:55.907Z</time></trkpt><trkpt lat="43.3241079" lon="13.1260875"><ele>457.0</ele><time>2026-04-11T07:19:56.881Z</time></trkpt><trkpt lat="43.3240603" lon="13.1262379"><ele>457.0</ele><time>2026-04-11T07:19:57.909Z</time></trkpt><trkpt lat="43.3240462" lon="13.1264224"><ele>457.0</ele><time>2026-04-11T07:19:58.892Z</time></trkpt><trkpt lat="43.3240439" lon="13.1266349"><ele>457.0</ele><time>2026-04-11T07:19:59.908Z</time></trkpt><trkpt lat="43.3240485" lon="13.1268596"><ele>458.0</ele><time>2026-04-11T07:20:00.938Z</time></trkpt><trkpt lat="43.3240576" lon="13.1271247"><ele>459.0</ele><time>2026-04-11T07:20:01.906Z</time></trkpt><trkpt lat="43.3240519" lon="13.12741"><ele>460.0</ele><time>2026-04-11T07:20:02.856Z</time></trkpt><trkpt lat="43.3240507" lon="13.1276689"><ele>460.0</ele><time>2026-04-11T07:20:03.908Z</time></trkpt><trkpt lat="43.3240521" lon="13.1278995"><ele>460.0</ele><time>2026-04-11T07:20:04.882Z</time></trkpt><trkpt lat="43.3240514" lon="13.1281289"><ele>460.0</ele><time>2026-04-11T07:20:05.891Z</time></trkpt><trkpt lat="43.3240561" lon="13.1283454"><ele>460.5</ele><time>2026-04-11T07:20:06.881Z</time></trkpt><trkpt lat="43.3240553" lon="13.1285479"><ele>461.0</ele><time>2026-04-11T07:20:07.871Z</time></trkpt><trkpt lat="43.3240512" lon="13.1287458"><ele>461.5</ele><time>2026-04-11T07:20:08.908Z</time></trkpt><trkpt lat="43.3240491" lon="13.128938"><ele>462.0</ele><time>2026-04-11T07:20:09.899Z</time></trkpt><trkpt lat="43.3240353" lon="13.1291321"><ele>463.5</ele><time>2026-04-11T07:20:10.906Z</time></trkpt><trkpt lat="43.3240027" lon="13.1293158"><ele>465.0</ele><time>2026-04-11T07:20:11.921Z</time></trkpt><trkpt lat="43.3239436" lon="13.1295002"><ele>466.5</ele><time>2026-04-11T07:20:12.884Z</time></trkpt><trkpt lat="43.3238506" lon="13.1296483"><ele>468.0</ele><time>2026-04-11T07:20:13.895Z</time></trkpt><trkpt lat="43.3237297" lon="13.1297747"><ele>468.66666666666663</ele><time>2026-04-11T07:20:14.9Z</time></trkpt><trkpt lat="43.3235855" lon="13.1298607"><ele>469.3333333333333</ele><time>2026-04-11T07:20:15.901Z</time></trkpt><trkpt lat="43.3234281" lon="13.1299276"><ele>470.0</ele><time>2026-04-11T07:20:16.905Z</time></trkpt><trkpt lat="43.3232706" lon="13.1299959"><ele>470.0</ele><time>2026-04-11T07:20:17.9Z</time></trkpt><trkpt lat="43.3231177" lon="13.1300724"><ele>470.0</ele><time>2026-04-11T07:20:18.867Z</time></trkpt><trkpt lat="43.3229981" lon="13.1301735"><ele>470.0</ele><time>2026-04-11T07:20:19.917Z</time></trkpt><trkpt lat="43.3228924" lon="13.1303198"><ele>473.0</ele><time>2026-04-11T07:20:20.89Z</time></trkpt><trkpt lat="43.3228082" lon="13.1305099"><ele>476.0</ele><time>2026-04-11T07:20:21.912Z</time></trkpt><trkpt lat="43.3227271" lon="13.1307376"><ele>479.0</ele><time>2026-04-11T07:20:22.89Z</time></trkpt><trkpt lat="43.3226437" lon="13.1309656"><ele>479.66666666666663</ele><time>2026-04-11T07:20:23.903Z</time></trkpt><trkpt lat="43.3225515" lon="13.1312063"><ele>480.33333333333337</ele><time>2026-04-11T07:20:24.896Z</time></trkpt><trkpt lat="43.3224717" lon="13.1314218"><ele>481.0</ele><time>2026-04-11T07:20:25.878Z</time></trkpt><trkpt lat="43.3223912" lon="13.1316065"><ele>482.33333333333337</ele><time>2026-04-11T07:20:26.86Z</time></trkpt><trkpt lat="43.3222962" lon="13.1317796"><ele>483.66666666666663</ele><time>2026-04-11T07:20:27.91Z</time></trkpt><trkpt lat="43.3221781" lon="13.1319461"><ele>485.0</ele><time>2026-04-11T07:20:28.906Z</time></trkpt><trkpt lat="43.3220446" lon="13.1321041"><ele>485.3333333333333</ele><time>2026-04-11T07:20:29.884Z</time></trkpt><trkpt lat="43.3219133" lon="13.13228"><ele>485.66666666666663</ele><time>2026-04-11T07:20:30.868Z</time></trkpt><trkpt lat="43.3217797" lon="13.1324597"><ele>486.0</ele><time>2026-04-11T07:20:31.856Z</time></trkpt><trkpt lat="43.3216536" lon="13.1326381"><ele>486.0</ele><time>2026-04-11T07:20:32.88Z</time></trkpt><trkpt lat="43.3215281" lon="13.132779"><ele>486.0</ele><time>2026-04-11T07:20:33.894Z</time></trkpt><trkpt lat="43.3214122" lon="13.1329008"><ele>486.0</ele><time>2026-04-11T07:20:34.881Z</time></trkpt><trkpt lat="43.3212869" lon="13.1329897"><ele>486.0</ele><time>2026-04-11T07:20:35.885Z</time></trkpt><trkpt lat="43.3211404" lon="13.1330329"><ele>489.66666666666663</ele><time>2026-04-11T07:20:36.884Z</time></trkpt><trkpt lat="43.3209946" lon="13.1330536"><ele>493.3333333333333</ele><time>2026-04-11T07:20:37.881Z</time></trkpt><trkpt lat="43.3208383" lon="13.1330566"><ele>497.0</ele><time>2026-04-11T07:20:38.852Z</time></trkpt><trkpt lat="43.3206717" lon="13.1330551"><ele>496.66666666666663</ele><time>2026-04-11T07:20:39.901Z</time></trkpt><trkpt lat="43.3205119" lon="13.1330549"><ele>496.33333333333337</ele><time>2026-04-11T07:20:40.872Z</time></trkpt><trkpt lat="43.3203577" lon="13.1330376"><ele>496.0</ele><time>2026-04-11T07:20:41.888Z</time></trkpt><trkpt lat="43.3202148" lon="13.1329887"><ele>496.0</ele><time>2026-04-11T07:20:42.838Z</time></trkpt><trkpt lat="43.3200815" lon="13.1328892"><ele>496.0</ele><time>2026-04-11T07:20:43.886Z</time></trkpt><trkpt lat="43.3199752" lon="13.1327586"><ele>496.0</ele><time>2026-04-11T07:20:44.884Z</time></trkpt><trkpt lat="43.3198875" lon="13.1325843"><ele>496.0</ele><time>2026-04-11T07:20:45.896Z</time></trkpt><trkpt lat="43.3197901" lon="13.1324084"><ele>493.6666666666667</ele><time>2026-04-11T07:20:46.887Z</time></trkpt><trkpt lat="43.3196954" lon="13.1322247"><ele>491.33333333333337</ele><time>2026-04-11T07:20:47.899Z</time></trkpt><trkpt lat="43.3195996" lon="13.1320359"><ele>489.0</ele><time>2026-04-11T07:20:48.902Z</time></trkpt><trkpt lat="43.3195064" lon="13.1318463"><ele>489.0</ele><time>2026-04-11T07:20:49.901Z</time></trkpt><trkpt lat="43.3194087" lon="13.1316636"><ele>489.0</ele><time>2026-04-11T07:20:50.862Z</time></trkpt><trkpt lat="43.3193179" lon="13.1314942"><ele>489.0</ele><time>2026-04-11T07:20:51.895Z</time></trkpt><trkpt lat="43.3192376" lon="13.1313384"><ele>489.5</ele><time>2026-04-11T07:20:52.879Z</time></trkpt><trkpt lat="43.3191598" lon="13.1311901"><ele>490.0</ele><time>2026-04-11T07:20:53.907Z</time></trkpt><trkpt lat="43.3190796" lon="13.1310504"><ele>490.5</ele><time>2026-04-11T07:20:54.896Z</time></trkpt><trkpt lat="43.3189827" lon="13.1309335"><ele>491.0</ele><time>2026-04-11T07:20:55.89Z</time></trkpt><trkpt lat="43.3188601" lon="13.1308335"><ele>491.0</ele><time>2026-04-11T07:20:56.843Z</time></trkpt><trkpt lat="43.3187279" lon="13.1307593"><ele>491.0</ele><time>2026-04-11T07:20:57.886Z</time></trkpt><trkpt lat="43.3185918" lon="13.1306897"><ele>491.0</ele><time>2026-04-11T07:20:58.883Z</time></trkpt><trkpt lat="43.318456" lon="13.1306195"><ele>491.0</ele><time>2026-04-11T07:20:59.905Z</time></trkpt><trkpt lat="43.3183155" lon="13.1305573"><ele>493.75</ele><time>2026-04-11T07:21:00.887Z</time></trkpt><trkpt lat="43.3181699" lon="13.1305191"><ele>496.5</ele><time>2026-04-11T07:21:01.868Z</time></trkpt><trkpt lat="43.318032" lon="13.1305"><ele>499.25</ele><time>2026-04-11T07:21:02.906Z</time></trkpt><trkpt lat="43.3179076" lon="13.1305106"><ele>502.0</ele><time>2026-04-11T07:21:03.881Z</time></trkpt><trkpt lat="43.3177754" lon="13.1305687"><ele>501.25</ele><time>2026-04-11T07:21:04.912Z</time></trkpt><trkpt lat="43.3176608" lon="13.1306811"><ele>500.5</ele><time>2026-04-11T07:21:05.905Z</time></trkpt><trkpt lat="43.317575" lon="13.130828"><ele>499.75</ele><time>2026-04-11T07:21:06.924Z</time></trkpt><trkpt lat="43.3175237" lon="13.1310199"><ele>499.0</ele><time>2026-04-11T07:21:07.914Z</time></trkpt><trkpt lat="43.3175038" lon="13.1312183"><ele>499.0</ele><time>2026-04-11T07:21:08.96Z</time></trkpt><trkpt lat="43.3175101" lon="13.1314154"><ele>499.0</ele><time>2026-04-11T07:21:09.886Z</time></trkpt><trkpt lat="43.3175131" lon="13.1316001"><ele>499.0</ele><time>2026-04-11T07:21:10.888Z</time></trkpt><trkpt lat="43.3174743" lon="13.1317533"><ele>499.0</ele><time>2026-04-11T07:21:11.896Z</time></trkpt><trkpt lat="43.3173861" lon="13.1318913"><ele>498.25</ele><time>2026-04-11T07:21:12.868Z</time></trkpt><trkpt lat="43.3172689" lon="13.1319992"><ele>497.5</ele><time>2026-04-11T07:21:13.883Z</time></trkpt><trkpt lat="43.3171383" lon="13.1320933"><ele>496.75</ele><time>2026-04-11T07:21:14.902Z</time></trkpt><trkpt lat="43.3170353" lon="13.1321833"><ele>496.0</ele><time>2026-04-11T07:21:15.871Z</time></trkpt><trkpt lat="43.3169666" lon="13.1322681"><ele>497.00000000000006</ele><time>2026-04-11T07:21:16.906Z</time></trkpt><trkpt lat="43.316919" lon="13.1323272"><ele>498.0</ele><time>2026-04-11T07:21:17.894Z</time></trkpt><trkpt lat="43.3168399" lon="13.132376"><ele>499.0</ele><time>2026-04-11T07:21:19.846Z</time></trkpt><trkpt lat="43.3167298" lon="13.1324143"><ele>500.0</ele><time>2026-04-11T07:21:21.884Z</time></trkpt><trkpt lat="43.3166615" lon="13.1324503"><ele>501.00000000000006</ele><time>2026-04-11T07:21:22.881Z</time></trkpt><trkpt lat="43.3166015" lon="13.1324963"><ele>502.0</ele><time>2026-04-11T07:21:23.921Z</time></trkpt><trkpt lat="43.3165464" lon="13.1325407"><ele>502.00000000000006</ele><time>2026-04-11T07:21:24.899Z</time></trkpt><trkpt lat="43.3164508" lon="13.1325818"><ele>502.0</ele><time>2026-04-11T07:21:26.893Z</time></trkpt><trkpt lat="43.316381" lon="13.132544"><ele>502.0</ele><time>2026-04-11T07:21:28.874Z</time></trkpt><trkpt lat="43.3163199" lon="13.1325104"><ele>502.0</ele><time>2026-04-11T07:21:29.871Z</time></trkpt><trkpt lat="43.3162008" lon="13.132477"><ele>502.00000000000006</ele><time>2026-04-11T07:21:31.889Z</time></trkpt><trkpt lat="43.316132" lon="13.132475"><ele>502.0</ele><time>2026-04-11T07:21:32.841Z</time></trkpt><trkpt lat="43.3160427" lon="13.1325005"><ele>505.8</ele><time>2026-04-11T07:21:33.914Z</time></trkpt><trkpt lat="43.3159393" lon="13.1325409"><ele>509.6</ele><time>2026-04-11T07:21:34.881Z</time></trkpt><trkpt lat="43.3158214" lon="13.1325792"><ele>513.4000000000001</ele><time>2026-04-11T07:21:35.908Z</time></trkpt><trkpt lat="43.315704" lon="13.1326299"><ele>517.2</ele><time>2026-04-11T07:21:36.885Z</time></trkpt><trkpt lat="43.3156156" lon="13.1326606"><ele>521.0</ele><time>2026-04-11T07:21:37.878Z</time></trkpt><trkpt lat="43.3155371" lon="13.1326542"><ele>523.3333333333333</ele><time>2026-04-11T07:21:39.854Z</time></trkpt><trkpt lat="43.3154545" lon="13.1326724"><ele>525.6666666666666</ele><time>2026-04-11T07:21:51.881Z</time></trkpt><trkpt lat="43.3153641" lon="13.1327037"><ele>528.0</ele><time>2026-04-11T07:21:54.867Z</time></trkpt><trkpt lat="43.3153004" lon="13.1326988"><ele>530.3333333333334</ele><time>2026-04-11T07:21:55.889Z</time></trkpt><trkpt lat="43.3152255" lon="13.1327024"><ele>532.6666666666667</ele><time>2026-04-11T07:21:56.905Z</time></trkpt><trkpt lat="43.3151509" lon="13.1327117"><ele>535.0</ele><time>2026-04-11T07:21:57.899Z</time></trkpt><trkpt lat="43.315079" lon="13.1327216"><ele>535.0</ele><time>2026-04-11T07:21:58.92Z</time></trkpt><trkpt lat="43.3150005" lon="13.1327348"><ele>535.0</ele><time>2026-04-11T07:21:59.877Z</time></trkpt><trkpt lat="43.3149179" lon="13.1327578"><ele>535.0</ele><time>2026-04-11T07:22:00.886Z</time></trkpt><trkpt lat="43.3148343" lon="13.1327826"><ele>535.0</ele><time>2026-04-11T07:22:01.902Z</time></trkpt><trkpt lat="43.3147637" lon="13.1328141"><ele>535.0</ele><time>2026-04-11T07:22:02.895Z</time></trkpt><trkpt lat="43.3146892" lon="13.1328466"><ele>535.0</ele><time>2026-04-11T07:22:03.907Z</time></trkpt><trkpt lat="43.3146203" lon="13.1328667"><ele>536.6</ele><time>2026-04-11T07:22:04.9Z</time></trkpt><trkpt lat="43.3145554" lon="13.1328839"><ele>538.2</ele><time>2026-04-11T07:22:05.897Z</time></trkpt><trkpt lat="43.3144689" lon="13.1328446"><ele>539.8</ele><time>2026-04-11T07:22:07.89Z</time></trkpt><trkpt lat="43.3144206" lon="13.1327444"><ele>541.4</ele><time>2026-04-11T07:22:09.877Z</time></trkpt><trkpt lat="43.314348" lon="13.1326262"><ele>543.0</ele><time>2026-04-11T07:22:11.878Z</time></trkpt><trkpt lat="43.3142629" lon="13.1325137"><ele>543.0</ele><time>2026-04-11T07:22:13.875Z</time></trkpt><trkpt lat="43.3142105" lon="13.1324468"><ele>543.0</ele><time>2026-04-11T07:22:14.878Z</time></trkpt><trkpt lat="43.3141503" lon="13.1323794"><ele>543.0</ele><time>2026-04-11T07:22:15.864Z</time></trkpt><trkpt lat="43.3140937" lon="13.1323251"><ele>543.0</ele><time>2026-04-11T07:22:16.906Z</time></trkpt><trkpt lat="43.3140365" lon="13.1322764"><ele>543.0</ele><time>2026-04-11T07:22:17.902Z</time></trkpt><trkpt lat="43.3139737" lon="13.1322438"><ele>543.0</ele><time>2026-04-11T07:22:18.894Z</time></trkpt><trkpt lat="43.3139063" lon="13.1322626"><ele>543.0</ele><time>2026-04-11T07:22:19.911Z</time></trkpt><trkpt lat="43.3138343" lon="13.1323023"><ele>542.8333333333334</ele><time>2026-04-11T07:22:20.894Z</time></trkpt><trkpt lat="43.3137567" lon="13.1323386"><ele>542.6666666666666</ele><time>2026-04-11T07:22:21.914Z</time></trkpt><trkpt lat="43.3136682" lon="13.1323687"><ele>542.5</ele><time>2026-04-11T07:22:22.883Z</time></trkpt><trkpt lat="43.3135812" lon="13.1323843"><ele>542.3333333333333</ele><time>2026-04-11T07:22:23.864Z</time></trkpt><trkpt lat="43.3134935" lon="13.1323965"><ele>542.1666666666666</ele><time>2026-04-11T07:22:24.899Z</time></trkpt><trkpt lat="43.3134152" lon="13.1324128"><ele>542.0</ele><time>2026-04-11T07:22:25.913Z</time></trkpt><trkpt lat="43.3133284" lon="13.1324353"><ele>542.0</ele><time>2026-04-11T07:22:26.909Z</time></trkpt><trkpt lat="43.3132307" lon="13.1324562"><ele>542.0</ele><time>2026-04-11T07:22:27.92Z</time></trkpt><trkpt lat="43.3131375" lon="13.1324707"><ele>542.0</ele><time>2026-04-11T07:22:28.903Z</time></trkpt><trkpt lat="43.3130495" lon="13.132477"><ele>542.0</ele><time>2026-04-11T07:22:29.85Z</time></trkpt><trkpt lat="43.3129538" lon="13.1324798"><ele>542.0</ele><time>2026-04-11T07:22:30.865Z</time></trkpt><trkpt lat="43.3128565" lon="13.1324729"><ele>541.4</ele><time>2026-04-11T07:22:31.887Z</time></trkpt><trkpt lat="43.3127551" lon="13.1324687"><ele>540.8000000000001</ele><time>2026-04-11T07:22:32.917Z</time></trkpt><trkpt lat="43.3126479" lon="13.1324738"><ele>540.2</ele><time>2026-04-11T07:22:33.901Z</time></trkpt><trkpt lat="43.3125499" lon="13.132462"><ele>539.6</ele><time>2026-04-11T07:22:34.879Z</time></trkpt><trkpt lat="43.3124635" lon="13.1324553"><ele>539.0</ele><time>2026-04-11T07:22:35.907Z</time></trkpt><trkpt lat="43.3123861" lon="13.1324492"><ele>539.0</ele><time>2026-04-11T07:22:36.869Z</time></trkpt><trkpt lat="43.3123231" lon="13.132464"><ele>539.0</ele><time>2026-04-11T07:22:37.899Z</time></trkpt><trkpt lat="43.3122145" lon="13.132494"><ele>539.0</ele><time>2026-04-11T07:22:39.917Z</time></trkpt><trkpt lat="43.3121352" lon="13.1324226"><ele>539.0</ele><time>2026-04-11T07:22:41.922Z</time></trkpt><trkpt lat="43.3120921" lon="13.1322634"><ele>539.0</ele><time>2026-04-11T07:22:43.894Z</time></trkpt><trkpt lat="43.3120852" lon="13.1321562"><ele>539.4</ele><time>2026-04-11T07:22:44.906Z</time></trkpt><trkpt lat="43.3120753" lon="13.1320317"><ele>539.8</ele><time>2026-04-11T07:22:45.892Z</time></trkpt><trkpt lat="43.3120601" lon="13.1319029"><ele>540.2</ele><time>2026-04-11T07:22:46.911Z</time></trkpt><trkpt lat="43.3120548" lon="13.13177"><ele>540.6</ele><time>2026-04-11T07:22:47.91Z</time></trkpt><trkpt lat="43.3120541" lon="13.1316538"><ele>541.0</ele><time>2026-04-11T07:22:48.856Z</time></trkpt><trkpt lat="43.3120377" lon="13.1315419"><ele>541.0</ele><time>2026-04-11T07:22:49.907Z</time></trkpt><trkpt lat="43.312004" lon="13.1314509"><ele>541.0</ele><time>2026-04-11T07:22:50.892Z</time></trkpt><trkpt lat="43.3119445" lon="13.1313643"><ele>541.0</ele><time>2026-04-11T07:22:51.945Z</time></trkpt><trkpt lat="43.3118767" lon="13.1313214"><ele>541.0</ele><time>2026-04-11T07:22:52.903Z</time></trkpt><trkpt lat="43.3117961" lon="13.1313131"><ele>541.0</ele><time>2026-04-11T07:22:53.893Z</time></trkpt><trkpt lat="43.3117138" lon="13.1313082"><ele>541.0</ele><time>2026-04-11T07:22:54.899Z</time></trkpt><trkpt lat="43.311627" lon="13.1312882"><ele>541.0</ele><time>2026-04-11T07:22:55.846Z</time></trkpt><trkpt lat="43.3115173" lon="13.1312903"><ele>541.0</ele><time>2026-04-11T07:22:56.877Z</time></trkpt><trkpt lat="43.3114069" lon="13.1313187"><ele>541.0</ele><time>2026-04-11T07:22:57.892Z</time></trkpt><trkpt lat="43.3113078" lon="13.131351"><ele>541.0</ele><time>2026-04-11T07:22:58.86Z</time></trkpt><trkpt lat="43.3112035" lon="13.1313648"><ele>541.0</ele><time>2026-04-11T07:22:59.887Z</time></trkpt><trkpt lat="43.3111" lon="13.1313727"><ele>543.4</ele><time>2026-04-11T07:23:00.901Z</time></trkpt><trkpt lat="43.3110018" lon="13.131375"><ele>545.8</ele><time>2026-04-11T07:23:01.892Z</time></trkpt><trkpt lat="43.3109099" lon="13.1313923"><ele>548.1999999999999</ele><time>2026-04-11T07:23:02.888Z</time></trkpt><trkpt lat="43.3108197" lon="13.1314222"><ele>550.6</ele><time>2026-04-11T07:23:03.892Z</time></trkpt><trkpt lat="43.3107323" lon="13.1314585"><ele>553.0</ele><time>2026-04-11T07:23:04.895Z</time></trkpt><trkpt lat="43.3106475" lon="13.1314948"><ele>553.0</ele><time>2026-04-11T07:23:05.886Z</time></trkpt><trkpt lat="43.3105811" lon="13.1315328"><ele>553.0</ele><time>2026-04-11T07:23:06.897Z</time></trkpt><trkpt lat="43.310513" lon="13.1315778"><ele>553.0</ele><time>2026-04-11T07:23:07.906Z</time></trkpt><trkpt lat="43.3104636" lon="13.1316409"><ele>553.0</ele><time>2026-04-11T07:23:08.904Z</time></trkpt><trkpt lat="43.3104383" lon="13.1317228"><ele>553.0</ele><time>2026-04-11T07:23:09.902Z</time></trkpt><trkpt lat="43.3104407" lon="13.1318368"><ele>553.0</ele><time>2026-04-11T07:23:10.886Z</time></trkpt><trkpt lat="43.3104452" lon="13.131961"><ele>556.5</ele><time>2026-04-11T07:23:11.902Z</time></trkpt><trkpt lat="43.3104467" lon="13.1320698"><ele>560.0</ele><time>2026-04-11T07:23:12.889Z</time></trkpt><trkpt lat="43.3104347" lon="13.1321658"><ele>563.5</ele><time>2026-04-11T07:23:13.895Z</time></trkpt><trkpt lat="43.3104107" lon="13.1322719"><ele>567.0</ele><time>2026-04-11T07:23:14.894Z</time></trkpt><trkpt lat="43.3103827" lon="13.1323718"><ele>570.5</ele><time>2026-04-11T07:23:15.903Z</time></trkpt><trkpt lat="43.3103548" lon="13.1324779"><ele>574.0</ele><time>2026-04-11T07:23:16.882Z</time></trkpt><trkpt lat="43.3103317" lon="13.1325817"><ele>574.0</ele><time>2026-04-11T07:23:17.884Z</time></trkpt><trkpt lat="43.3103124" lon="13.1326795"><ele>574.0</ele><time>2026-04-11T07:23:18.902Z</time></trkpt><trkpt lat="43.3102943" lon="13.1327661"><ele>574.0</ele><time>2026-04-11T07:23:19.895Z</time></trkpt><trkpt lat="43.3102705" lon="13.1328543"><ele>574.0</ele><time>2026-04-11T07:23:20.9Z</time></trkpt><trkpt lat="43.310241" lon="13.1329379"><ele>574.0</ele><time>2026-04-11T07:23:21.842Z</time></trkpt><trkpt lat="43.3102079" lon="13.1330139"><ele>574.0</ele><time>2026-04-11T07:23:22.895Z</time></trkpt><trkpt lat="43.3101697" lon="13.1330902"><ele>574.0</ele><time>2026-04-11T07:23:23.907Z</time></trkpt><trkpt lat="43.3101232" lon="13.1331687"><ele>571.5</ele><time>2026-04-11T07:23:24.893Z</time></trkpt><trkpt lat="43.3100384" lon="13.1332767"><ele>569.0</ele><time>2026-04-11T07:23:26.9Z</time></trkpt><trkpt lat="43.3099733" lon="13.1333094"><ele>566.5</ele><time>2026-04-11T07:23:27.907Z</time></trkpt><trkpt lat="43.3098933" lon="13.133322"><ele>564.0</ele><time>2026-04-11T07:23:28.903Z</time></trkpt><trkpt lat="43.3097969" lon="13.133318"><ele>561.5</ele><time>2026-04-11T07:23:29.881Z</time></trkpt><trkpt lat="43.3097137" lon="13.133306"><ele>559.0</ele><time>2026-04-11T07:23:30.891Z</time></trkpt><trkpt lat="43.3096277" lon="13.1332833"><ele>558.6666666666667</ele><time>2026-04-11T07:23:31.889Z</time></trkpt><trkpt lat="43.3095415" lon="13.1332688"><ele>558.3333333333334</ele><time>2026-04-11T07:23:32.877Z</time></trkpt><trkpt lat="43.3094472" lon="13.1332577"><ele>558.0</ele><time>2026-04-11T07:23:33.857Z</time></trkpt><trkpt lat="43.3093564" lon="13.1332476"><ele>557.6666666666666</ele><time>2026-04-11T07:23:34.855Z</time></trkpt><trkpt lat="43.3092747" lon="13.1332198"><ele>557.3333333333333</ele><time>2026-04-11T07:23:35.885Z</time></trkpt><trkpt lat="43.3091983" lon="13.1331657"><ele>557.0</ele><time>2026-04-11T07:23:36.881Z</time></trkpt><trkpt lat="43.3091205" lon="13.133089"><ele>560.0</ele><time>2026-04-11T07:23:37.881Z</time></trkpt><trkpt lat="43.3090406" lon="13.1330174"><ele>563.0</ele><time>2026-04-11T07:23:38.84Z</time></trkpt><trkpt lat="43.3089479" lon="13.1329441"><ele>566.0</ele><time>2026-04-11T07:23:39.869Z</time></trkpt><trkpt lat="43.308852" lon="13.1328829"><ele>569.0</ele><time>2026-04-11T07:23:40.877Z</time></trkpt><trkpt lat="43.3087635" lon="13.1328133"><ele>572.0</ele><time>2026-04-11T07:23:41.898Z</time></trkpt><trkpt lat="43.3086819" lon="13.1327329"><ele>572.0</ele><time>2026-04-11T07:23:42.878Z</time></trkpt><trkpt lat="43.3085864" lon="13.1326538"><ele>572.0</ele><time>2026-04-11T07:23:43.909Z</time></trkpt><trkpt lat="43.3085085" lon="13.1325778"><ele>572.0</ele><time>2026-04-11T07:23:44.885Z</time></trkpt><trkpt lat="43.3084399" lon="13.132505"><ele>572.0</ele><time>2026-04-11T07:23:45.922Z</time></trkpt><trkpt lat="43.3083839" lon="13.1324417"><ele>572.0</ele><time>2026-04-11T07:23:46.892Z</time></trkpt><trkpt lat="43.3083178" lon="13.1324001"><ele>572.0</ele><time>2026-04-11T07:23:47.902Z</time></trkpt><trkpt lat="43.3082395" lon="13.1323699"><ele>577.4</ele><time>2026-04-11T07:23:48.89Z</time></trkpt><trkpt lat="43.3081419" lon="13.1323584"><ele>582.8000000000001</ele><time>2026-04-11T07:23:49.891Z</time></trkpt><trkpt lat="43.3080369" lon="13.1323493"><ele>588.2</ele><time>2026-04-11T07:23:50.884Z</time></trkpt><trkpt lat="43.3079483" lon="13.1323414"><ele>593.6</ele><time>2026-04-11T07:23:51.909Z</time></trkpt><trkpt lat="43.3078699" lon="13.132333"><ele>599.0</ele><time>2026-04-11T07:23:52.882Z</time></trkpt><trkpt lat="43.3077776" lon="13.1323496"><ele>594.3333333333333</ele><time>2026-04-11T07:23:53.897Z</time></trkpt><trkpt lat="43.3076953" lon="13.1324029"><ele>589.6666666666666</ele><time>2026-04-11T07:23:54.892Z</time></trkpt><trkpt lat="43.307634" lon="13.1324641"><ele>585.0</ele><time>2026-04-11T07:23:55.909Z</time></trkpt><trkpt lat="43.3075718" lon="13.1325106"><ele>580.3333333333334</ele><time>2026-04-11T07:23:56.882Z</time></trkpt><trkpt lat="43.3075034" lon="13.1325309"><ele>575.6666666666667</ele><time>2026-04-11T07:23:57.885Z</time></trkpt><trkpt lat="43.30743" lon="13.1325533"><ele>571.0</ele><time>2026-04-11T07:23:58.874Z</time></trkpt><trkpt lat="43.3073452" lon="13.1325576"><ele>571.0</ele><time>2026-04-11T07:23:59.841Z</time></trkpt><trkpt lat="43.3072459" lon="13.1325692"><ele>571.0</ele><time>2026-04-11T07:24:00.876Z</time></trkpt><trkpt lat="43.3071489" lon="13.1325782"><ele>571.0</ele><time>2026-04-11T07:24:01.888Z</time></trkpt><trkpt lat="43.3070682" lon="13.1326009"><ele>571.0</ele><time>2026-04-11T07:24:02.878Z</time></trkpt><trkpt lat="43.3069954" lon="13.1326501"><ele>571.0</ele><time>2026-04-11T07:24:03.899Z</time></trkpt><trkpt lat="43.3069336" lon="13.1327304"><ele>571.0</ele><time>2026-04-11T07:24:04.893Z</time></trkpt><trkpt lat="43.3068732" lon="13.1328262"><ele>573.1666666666667</ele><time>2026-04-11T07:24:05.879Z</time></trkpt><trkpt lat="43.3068072" lon="13.1329227"><ele>575.3333333333334</ele><time>2026-04-11T07:24:06.864Z</time></trkpt><trkpt lat="43.3067538" lon="13.1330231"><ele>577.5</ele><time>2026-04-11T07:24:07.908Z</time></trkpt><trkpt lat="43.3067193" lon="13.1331397"><ele>579.6666666666666</ele><time>2026-04-11T07:24:08.874Z</time></trkpt><trkpt lat="43.3067044" lon="13.1332467"><ele>581.8333333333333</ele><time>2026-04-11T07:24:09.912Z</time></trkpt><trkpt lat="43.3067029" lon="13.1333457"><ele>584.0</ele><time>2026-04-11T07:24:10.881Z</time></trkpt><trkpt lat="43.3067073" lon="13.1334447"><ele>584.0</ele><time>2026-04-11T07:24:11.891Z</time></trkpt><trkpt lat="43.3067128" lon="13.1335431"><ele>584.0</ele><time>2026-04-11T07:24:12.885Z</time></trkpt><trkpt lat="43.3067201" lon="13.1336474"><ele>584.0</ele><time>2026-04-11T07:24:13.907Z</time></trkpt><trkpt lat="43.3067226" lon="13.1337659"><ele>584.0</ele><time>2026-04-11T07:24:14.886Z</time></trkpt><trkpt lat="43.3067102" lon="13.1338891"><ele>584.0</ele><time>2026-04-11T07:24:15.888Z</time></trkpt><trkpt lat="43.306693" lon="13.1340101"><ele>584.0</ele><time>2026-04-11T07:24:16.866Z</time></trkpt><trkpt lat="43.3066682" lon="13.1341295"><ele>582.1666666666666</ele><time>2026-04-11T07:24:17.883Z</time></trkpt><trkpt lat="43.30663" lon="13.134231"><ele>580.3333333333333</ele><time>2026-04-11T07:24:18.881Z</time></trkpt><trkpt lat="43.3065923" lon="13.1343214"><ele>578.5</ele><time>2026-04-11T07:24:19.849Z</time></trkpt><trkpt lat="43.3065669" lon="13.1344103"><ele>576.6666666666666</ele><time>2026-04-11T07:24:20.884Z</time></trkpt><trkpt lat="43.3065097" lon="13.1345505"><ele>574.8333333333334</ele><time>2026-04-11T07:24:22.865Z</time></trkpt><trkpt lat="43.3064663" lon="13.1346397"><ele>573.0</ele><time>2026-04-11T07:24:23.857Z</time></trkpt><trkpt lat="43.3064134" lon="13.1347448"><ele>574.8</ele><time>2026-04-11T07:24:24.912Z</time></trkpt><trkpt lat="43.3063605" lon="13.1348475"><ele>576.5999999999999</ele><time>2026-04-11T07:24:25.88Z</time></trkpt><trkpt lat="43.3062862" lon="13.134941"><ele>578.4000000000001</ele><time>2026-04-11T07:24:26.893Z</time></trkpt><trkpt lat="43.3061994" lon="13.1350334"><ele>580.2</ele><time>2026-04-11T07:24:27.92Z</time></trkpt><trkpt lat="43.3061045" lon="13.1351139"><ele>582.0</ele><time>2026-04-11T07:24:28.896Z</time></trkpt><trkpt lat="43.3060176" lon="13.1351873"><ele>582.0</ele><time>2026-04-11T07:24:29.889Z</time></trkpt><trkpt lat="43.3059403" lon="13.1352603"><ele>582.0</ele><time>2026-04-11T07:24:30.885Z</time></trkpt><trkpt lat="43.3058771" lon="13.1353282"><ele>582.0</ele><time>2026-04-11T07:24:31.929Z</time></trkpt><trkpt lat="43.3058202" lon="13.1353755"><ele>582.0</ele><time>2026-04-11T07:24:32.951Z</time></trkpt><trkpt lat="43.3057613" lon="13.1354157"><ele>582.0</ele><time>2026-04-11T07:24:33.897Z</time></trkpt><trkpt lat="43.3056552" lon="13.1354463"><ele>582.0</ele><time>2026-04-11T07:24:35.897Z</time></trkpt><trkpt lat="43.3055955" lon="13.1354072"><ele>583.6</ele><time>2026-04-11T07:24:36.881Z</time></trkpt><trkpt lat="43.3055421" lon="13.1353452"><ele>585.2</ele><time>2026-04-11T07:24:37.876Z</time></trkpt><trkpt lat="43.3054875" lon="13.1351917"><ele>586.8</ele><time>2026-04-11T07:24:39.889Z</time></trkpt><trkpt lat="43.3054631" lon="13.1350847"><ele>588.4</ele><time>2026-04-11T07:24:40.892Z</time></trkpt><trkpt lat="43.3054337" lon="13.1349692"><ele>590.0</ele><time>2026-04-11T07:24:41.846Z</time></trkpt><trkpt lat="43.3053955" lon="13.1348418"><ele>590.0</ele><time>2026-04-11T07:24:42.885Z</time></trkpt><trkpt lat="43.3053505" lon="13.134719"><ele>590.0</ele><time>2026-04-11T07:24:43.881Z</time></trkpt><trkpt lat="43.3053119" lon="13.1346071"><ele>590.0</ele><time>2026-04-11T07:24:44.915Z</time></trkpt><trkpt lat="43.3052736" lon="13.1345071"><ele>590.0</ele><time>2026-04-11T07:24:45.88Z</time></trkpt><trkpt lat="43.3052195" lon="13.1344159"><ele>590.0</ele><time>2026-04-11T07:24:46.893Z</time></trkpt><trkpt lat="43.3051488" lon="13.1343453"><ele>590.0</ele><time>2026-04-11T07:24:47.904Z</time></trkpt><trkpt lat="43.305054" lon="13.1342961"><ele>590.0</ele><time>2026-04-11T07:24:48.897Z</time></trkpt><trkpt lat="43.3049356" lon="13.1342739"><ele>590.0</ele><time>2026-04-11T07:24:49.905Z</time></trkpt><trkpt lat="43.3048268" lon="13.1342693"><ele>590.0</ele><time>2026-04-11T07:24:50.889Z</time></trkpt><trkpt lat="43.3047227" lon="13.1342806"><ele>590.0</ele><time>2026-04-11T07:24:51.853Z</time></trkpt><trkpt lat="43.3046249" lon="13.1343274"><ele>590.0</ele><time>2026-04-11T07:24:52.875Z</time></trkpt><trkpt lat="43.3045182" lon="13.1343932"><ele>591.1666666666666</ele><time>2026-04-11T07:24:53.902Z</time></trkpt><trkpt lat="43.3044251" lon="13.1344632"><ele>592.3333333333333</ele><time>2026-04-11T07:24:54.881Z</time></trkpt><trkpt lat="43.3043619" lon="13.1345312"><ele>593.5</ele><time>2026-04-11T07:24:55.902Z</time></trkpt><trkpt lat="43.3043172" lon="13.1346035"><ele>594.6666666666666</ele><time>2026-04-11T07:24:56.878Z</time></trkpt><trkpt lat="43.3042804" lon="13.1346848"><ele>595.8333333333334</ele><time>2026-04-11T07:24:57.87Z</time></trkpt><trkpt lat="43.3042497" lon="13.1347746"><ele>597.0</ele><time>2026-04-11T07:24:58.891Z</time></trkpt><trkpt lat="43.3042158" lon="13.134869"><ele>598.5</ele><time>2026-04-11T07:24:59.889Z</time></trkpt><trkpt lat="43.3041823" lon="13.1349506"><ele>600.0</ele><time>2026-04-11T07:25:00.881Z</time></trkpt><trkpt lat="43.3041355" lon="13.135037"><ele>601.5</ele><time>2026-04-11T07:25:01.899Z</time></trkpt><trkpt lat="43.3040744" lon="13.1351355"><ele>603.0</ele><time>2026-04-11T07:25:02.839Z</time></trkpt><trkpt lat="43.3040129" lon="13.1352427"><ele>604.5</ele><time>2026-04-11T07:25:03.87Z</time></trkpt><trkpt lat="43.3039553" lon="13.1353337"><ele>606.0</ele><time>2026-04-11T07:25:04.902Z</time></trkpt><trkpt lat="43.3039031" lon="13.1354079"><ele>606.0</ele><time>2026-04-11T07:25:05.9Z</time></trkpt><trkpt lat="43.3038517" lon="13.1354901"><ele>606.0</ele><time>2026-04-11T07:25:06.887Z</time></trkpt><trkpt lat="43.3038103" lon="13.1355722"><ele>606.0</ele><time>2026-04-11T07:25:07.902Z</time></trkpt><trkpt lat="43.3037768" lon="13.1356643"><ele>606.0</ele><time>2026-04-11T07:25:08.891Z</time></trkpt><trkpt lat="43.3037504" lon="13.1357595"><ele>606.0</ele><time>2026-04-11T07:25:09.88Z</time></trkpt><trkpt lat="43.3037175" lon="13.1358483"><ele>606.0</ele><time>2026-04-11T07:25:10.888Z</time></trkpt><trkpt lat="43.303665" lon="13.1359274"><ele>602.2</ele><time>2026-04-11T07:25:11.874Z</time></trkpt><trkpt lat="43.3035991" lon="13.136002"><ele>598.4000000000001</ele><time>2026-04-11T07:25:12.884Z</time></trkpt><trkpt lat="43.3035241" lon="13.1360781"><ele>594.6</ele><time>2026-04-11T07:25:13.884Z</time></trkpt><trkpt lat="43.3034421" lon="13.1361465"><ele>590.8000000000001</ele><time>2026-04-11T07:25:14.879Z</time></trkpt><trkpt lat="43.3033592" lon="13.1362168"><ele>587.0</ele><time>2026-04-11T07:25:15.886Z</time></trkpt><trkpt lat="43.3032692" lon="13.1362704"><ele>587.0</ele><time>2026-04-11T07:25:16.892Z</time></trkpt><trkpt lat="43.3031764" lon="13.1362939"><ele>587.0</ele><time>2026-04-11T07:25:17.894Z</time></trkpt><trkpt lat="43.3030762" lon="13.1362957"><ele>587.0</ele><time>2026-04-11T07:25:18.897Z</time></trkpt><trkpt lat="43.302969" lon="13.1362754"><ele>587.0</ele><time>2026-04-11T07:25:19.89Z</time></trkpt><trkpt lat="43.3028632" lon="13.1362358"><ele>587.0</ele><time>2026-04-11T07:25:20.909Z</time></trkpt><trkpt lat="43.302754" lon="13.1361818"><ele>587.25</ele><time>2026-04-11T07:25:21.89Z</time></trkpt><trkpt lat="43.3026313" lon="13.1361326"><ele>587.5</ele><time>2026-04-11T07:25:22.908Z</time></trkpt><trkpt lat="43.3024878" lon="13.1360891"><ele>587.75</ele><time>2026-04-11T07:25:23.899Z</time></trkpt><trkpt lat="43.3023362" lon="13.1360591"><ele>588.0</ele><time>2026-04-11T07:25:24.886Z</time></trkpt><trkpt lat="43.3021849" lon="13.1360389"><ele>588.0</ele><time>2026-04-11T07:25:25.875Z</time></trkpt><trkpt lat="43.3020426" lon="13.1360297"><ele>588.0</ele><time>2026-04-11T07:25:26.87Z</time></trkpt><trkpt lat="43.3019158" lon="13.1360308"><ele>588.0</ele><time>2026-04-11T07:25:27.882Z</time></trkpt><trkpt lat="43.3017984" lon="13.136018"><ele>588.0</ele><time>2026-04-11T07:25:28.884Z</time></trkpt><trkpt lat="43.3016983" lon="13.1359987"><ele>588.0</ele><time>2026-04-11T07:25:29.896Z</time></trkpt><trkpt lat="43.3016152" lon="13.1359614"><ele>588.0</ele><time>2026-04-11T07:25:30.893Z</time></trkpt><trkpt lat="43.3015375" lon="13.1359026"><ele>588.0</ele><time>2026-04-11T07:25:31.884Z</time></trkpt><trkpt lat="43.3014598" lon="13.135842"><ele>588.0</ele><time>2026-04-11T07:25:32.859Z</time></trkpt><trkpt lat="43.3014054" lon="13.1357788"><ele>588.0</ele><time>2026-04-11T07:25:33.876Z</time></trkpt><trkpt lat="43.3011939" lon="13.1356636"><ele>596.3333333333334</ele><time>2026-04-11T07:25:35.894Z</time></trkpt><trkpt lat="43.3009939" lon="13.1355951"><ele>604.6666666666667</ele><time>2026-04-11T07:25:36.885Z</time></trkpt><trkpt lat="43.3008095" lon="13.1355532"><ele>613.0</ele><time>2026-04-11T07:25:37.898Z</time></trkpt><trkpt lat="43.3006424" lon="13.1355379"><ele>608.0</ele><time>2026-04-11T07:25:38.833Z</time></trkpt><trkpt lat="43.3005034" lon="13.1355192"><ele>603.0</ele><time>2026-04-11T07:25:39.907Z</time></trkpt><trkpt lat="43.3003731" lon="13.1354945"><ele>598.0</ele><time>2026-04-11T07:25:40.86Z</time></trkpt><trkpt lat="43.3002624" lon="13.1354643"><ele>593.0</ele><time>2026-04-11T07:25:41.888Z</time></trkpt><trkpt lat="43.3001576" lon="13.1354355"><ele>593.0</ele><time>2026-04-11T07:25:42.906Z</time></trkpt><trkpt lat="43.3000597" lon="13.1353965"><ele>593.0</ele><time>2026-04-11T07:25:43.898Z</time></trkpt><trkpt lat="43.2999734" lon="13.1353586"><ele>593.0</ele><time>2026-04-11T07:25:44.88Z</time></trkpt><trkpt lat="43.2998903" lon="13.1353128"><ele>593.0</ele><time>2026-04-11T07:25:45.904Z</time></trkpt><trkpt lat="43.2998133" lon="13.1352568"><ele>593.0</ele><time>2026-04-11T07:25:46.898Z</time></trkpt><trkpt lat="43.2997439" lon="13.1351963"><ele>583.25</ele><time>2026-04-11T07:25:47.901Z</time></trkpt><trkpt lat="43.2996806" lon="13.1350978"><ele>573.5</ele><time>2026-04-11T07:25:48.863Z</time></trkpt><trkpt lat="43.2996265" lon="13.1349681"><ele>563.75</ele><time>2026-04-11T07:25:49.888Z</time></trkpt><trkpt lat="43.2995851" lon="13.1348092"><ele>554.0</ele><time>2026-04-11T07:25:50.878Z</time></trkpt><trkpt lat="43.2995514" lon="13.1346332"><ele>554.0</ele><time>2026-04-11T07:25:51.869Z</time></trkpt><trkpt lat="43.2995174" lon="13.1344595"><ele>554.0</ele><time>2026-04-11T07:25:52.857Z</time></trkpt><trkpt lat="43.2994875" lon="13.1342822"><ele>554.0</ele><time>2026-04-11T07:25:53.907Z</time></trkpt><trkpt lat="43.2994579" lon="13.1341146"><ele>554.0</ele><time>2026-04-11T07:25:54.843Z</time></trkpt><trkpt lat="43.2994333" lon="13.1339469"><ele>556.0</ele><time>2026-04-11T07:25:55.904Z</time></trkpt><trkpt lat="43.2994073" lon="13.1337785"><ele>558.0</ele><time>2026-04-11T07:25:56.902Z</time></trkpt><trkpt lat="43.299381" lon="13.1336108"><ele>560.0</ele><time>2026-04-11T07:25:57.876Z</time></trkpt><trkpt lat="43.2993517" lon="13.1334485"><ele>562.0</ele><time>2026-04-11T07:25:58.888Z</time></trkpt><trkpt lat="43.2993207" lon="13.1332887"><ele>564.25</ele><time>2026-04-11T07:25:59.897Z</time></trkpt><trkpt lat="43.2992854" lon="13.133127"><ele>566.5</ele><time>2026-04-11T07:26:00.887Z</time></trkpt><trkpt lat="43.2992527" lon="13.1329663"><ele>568.75</ele><time>2026-04-11T07:26:01.891Z</time></trkpt><trkpt lat="43.2992204" lon="13.1328006"><ele>571.0</ele><time>2026-04-11T07:26:02.906Z</time></trkpt><trkpt lat="43.2991738" lon="13.1326195"><ele>571.0</ele><time>2026-04-11T07:26:03.935Z</time></trkpt><trkpt lat="43.2991261" lon="13.1324336"><ele>571.0</ele><time>2026-04-11T07:26:04.885Z</time></trkpt><trkpt lat="43.2990735" lon="13.1322365"><ele>571.0</ele><time>2026-04-11T07:26:05.891Z</time></trkpt><trkpt lat="43.2990127" lon="13.1320336"><ele>576.0</ele><time>2026-04-11T07:26:06.871Z</time></trkpt><trkpt lat="43.2989548" lon="13.1318351"><ele>581.0</ele><time>2026-04-11T07:26:07.857Z</time></trkpt><trkpt lat="43.2988906" lon="13.1316424"><ele>586.0</ele><time>2026-04-11T07:26:08.884Z</time></trkpt><trkpt lat="43.2988278" lon="13.1314435"><ele>573.6666666666667</ele><time>2026-04-11T07:26:09.897Z</time></trkpt><trkpt lat="43.2987697" lon="13.1312323"><ele>561.3333333333334</ele><time>2026-04-11T07:26:10.901Z</time></trkpt><trkpt lat="43.2987101" lon="13.1310207"><ele>549.0</ele><time>2026-04-11T07:26:11.913Z</time></trkpt><trkpt lat="43.2986577" lon="13.1308176"><ele>552.0</ele><time>2026-04-11T07:26:12.884Z</time></trkpt><trkpt lat="43.2986084" lon="13.1306221"><ele>555.0</ele><time>2026-04-11T07:26:13.888Z</time></trkpt><trkpt lat="43.2985546" lon="13.1304346"><ele>558.0</ele><time>2026-04-11T07:26:14.898Z</time></trkpt><trkpt lat="43.2984955" lon="13.1302558"><ele>561.0</ele><time>2026-04-11T07:26:15.885Z</time></trkpt><trkpt lat="43.2984341" lon="13.1300808"><ele>561.0</ele><time>2026-04-11T07:26:16.878Z</time></trkpt><trkpt lat="43.2983657" lon="13.1299066"><ele>561.0</ele><time>2026-04-11T07:26:17.923Z</time></trkpt><trkpt lat="43.2982959" lon="13.1297283"><ele>561.0</ele><time>2026-04-11T07:26:18.903Z</time></trkpt><trkpt lat="43.2982349" lon="13.1295536"><ele>561.0</ele><time>2026-04-11T07:26:19.912Z</time></trkpt><trkpt lat="43.2981867" lon="13.1293739"><ele>564.25</ele><time>2026-04-11T07:26:20.881Z</time></trkpt><trkpt lat="43.2981432" lon="13.1291957"><ele>567.5</ele><time>2026-04-11T07:26:21.898Z</time></trkpt><trkpt lat="43.2980913" lon="13.129023"><ele>570.75</ele><time>2026-04-11T07:26:22.901Z</time></trkpt><trkpt lat="43.298029" lon="13.1288617"><ele>574.0</ele><time>2026-04-11T07:26:23.92Z</time></trkpt><trkpt lat="43.2979612" lon="13.1286922"><ele>570.75</ele><time>2026-04-11T07:26:24.902Z</time></trkpt><trkpt lat="43.2979012" lon="13.1285311"><ele>567.5</ele><time>2026-04-11T07:26:25.902Z</time></trkpt><trkpt lat="43.2978413" lon="13.1283788"><ele>564.25</ele><time>2026-04-11T07:26:26.903Z</time></trkpt><trkpt lat="43.2977771" lon="13.1282296"><ele>561.0</ele><time>2026-04-11T07:26:27.908Z</time></trkpt><trkpt lat="43.2977096" lon="13.12809"><ele>561.0</ele><time>2026-04-11T07:26:28.908Z</time></trkpt><trkpt lat="43.2976382" lon="13.1279418"><ele>561.0</ele><time>2026-04-11T07:26:29.901Z</time></trkpt><trkpt lat="43.2975703" lon="13.1277889"><ele>561.0</ele><time>2026-04-11T07:26:30.907Z</time></trkpt><trkpt lat="43.2975071" lon="13.1276211"><ele>561.0</ele><time>2026-04-11T07:26:31.868Z</time></trkpt><trkpt lat="43.297448" lon="13.1274514"><ele>566.25</ele><time>2026-04-11T07:26:32.883Z</time></trkpt><trkpt lat="43.2973819" lon="13.1272962"><ele>571.5</ele><time>2026-04-11T07:26:33.879Z</time></trkpt><trkpt lat="43.2973009" lon="13.1271612"><ele>576.75</ele><time>2026-04-11T07:26:34.884Z</time></trkpt><trkpt lat="43.2972204" lon="13.1270479"><ele>582.0</ele><time>2026-04-11T07:26:35.893Z</time></trkpt><trkpt lat="43.297153" lon="13.1269269"><ele>574.0</ele><time>2026-04-11T07:26:36.89Z</time></trkpt><trkpt lat="43.2971039" lon="13.1267874"><ele>566.0</ele><time>2026-04-11T07:26:37.876Z</time></trkpt><trkpt lat="43.2970547" lon="13.1266303"><ele>558.0</ele><time>2026-04-11T07:26:38.844Z</time></trkpt><trkpt lat="43.2969938" lon="13.1264521"><ele>550.0</ele><time>2026-04-11T07:26:39.868Z</time></trkpt><trkpt lat="43.2969238" lon="13.126281"><ele>550.0</ele><time>2026-04-11T07:26:40.883Z</time></trkpt><trkpt lat="43.2968477" lon="13.1261144"><ele>550.0</ele><time>2026-04-11T07:26:41.899Z</time></trkpt><trkpt lat="43.2967615" lon="13.1259512"><ele>550.0</ele><time>2026-04-11T07:26:42.889Z</time></trkpt><trkpt lat="43.2966735" lon="13.1258016"><ele>550.0</ele><time>2026-04-11T07:26:43.922Z</time></trkpt><trkpt lat="43.296593" lon="13.125658"><ele>545.0</ele><time>2026-04-11T07:26:44.894Z</time></trkpt><trkpt lat="43.2965145" lon="13.1255183"><ele>540.0</ele><time>2026-04-11T07:26:45.89Z</time></trkpt><trkpt lat="43.2964358" lon="13.1253823"><ele>535.0</ele><time>2026-04-11T07:26:46.881Z</time></trkpt><trkpt lat="43.2963545" lon="13.1252567"><ele>530.0</ele><time>2026-04-11T07:26:47.9Z</time></trkpt><trkpt lat="43.2962738" lon="13.12513"><ele>530.0</ele><time>2026-04-11T07:26:48.862Z</time></trkpt><trkpt lat="43.2961997" lon="13.1249992"><ele>530.0</ele><time>2026-04-11T07:26:49.916Z</time></trkpt><trkpt lat="43.2961543" lon="13.124868"><ele>530.0</ele><time>2026-04-11T07:26:50.907Z</time></trkpt><trkpt lat="43.2961268" lon="13.1247388"><ele>530.0</ele><time>2026-04-11T07:26:51.882Z</time></trkpt><trkpt lat="43.2960971" lon="13.1246078"><ele>530.0</ele><time>2026-04-11T07:26:52.895Z</time></trkpt><trkpt lat="43.2960425" lon="13.1244942"><ele>532.2</ele><time>2026-04-11T07:26:53.906Z</time></trkpt><trkpt lat="43.2959705" lon="13.124387"><ele>534.4</ele><time>2026-04-11T07:26:54.896Z</time></trkpt><trkpt lat="43.2959056" lon="13.1242768"><ele>536.6</ele><time>2026-04-11T07:26:55.884Z</time></trkpt><trkpt lat="43.2958449" lon="13.1241504"><ele>538.8</ele><time>2026-04-11T07:26:56.888Z</time></trkpt><trkpt lat="43.2957904" lon="13.1240174"><ele>541.0</ele><time>2026-04-11T07:26:57.876Z</time></trkpt><trkpt lat="43.295732" lon="13.1238882"><ele>542.0</ele><time>2026-04-11T07:26:58.88Z</time></trkpt><trkpt lat="43.2956914" lon="13.1237535"><ele>543.0</ele><time>2026-04-11T07:26:59.877Z</time></trkpt><trkpt lat="43.2956705" lon="13.1236015"><ele>544.0</ele><time>2026-04-11T07:27:00.891Z</time></trkpt><trkpt lat="43.2956644" lon="13.1234548"><ele>545.0</ele><time>2026-04-11T07:27:01.883Z</time></trkpt><trkpt lat="43.2956689" lon="13.1232966"><ele>546.0</ele><time>2026-04-11T07:27:02.881Z</time></trkpt><trkpt lat="43.2956784" lon="13.1231357"><ele>546.4</ele><time>2026-04-11T07:27:03.899Z</time></trkpt><trkpt lat="43.2956848" lon="13.1229898"><ele>546.8</ele><time>2026-04-11T07:27:04.885Z</time></trkpt><trkpt lat="43.2956916" lon="13.1228479"><ele>547.1999999999999</ele><time>2026-04-11T07:27:05.86Z</time></trkpt><trkpt lat="43.2956959" lon="13.1227182"><ele>547.6</ele><time>2026-04-11T07:27:06.85Z</time></trkpt><trkpt lat="43.2957029" lon="13.1225876"><ele>548.0</ele><time>2026-04-11T07:27:07.872Z</time></trkpt><trkpt lat="43.2957118" lon="13.1224711"><ele>548.0</ele><time>2026-04-11T07:27:08.882Z</time></trkpt><trkpt lat="43.2957255" lon="13.1223314"><ele>548.0</ele><time>2026-04-11T07:27:09.836Z</time></trkpt><trkpt lat="43.2957347" lon="13.122193"><ele>548.0</ele><time>2026-04-11T07:27:10.839Z</time></trkpt><trkpt lat="43.2957493" lon="13.1220215"><ele>548.0</ele><time>2026-04-11T07:27:11.838Z</time></trkpt><trkpt lat="43.2957692" lon="13.1218596"><ele>548.0</ele><time>2026-04-11T07:27:12.859Z</time></trkpt><trkpt lat="43.2957936" lon="13.1217089"><ele>548.0</ele><time>2026-04-11T07:27:13.856Z</time></trkpt><trkpt lat="43.2957995" lon="13.1215589"><ele>548.0</ele><time>2026-04-11T07:27:14.855Z</time></trkpt><trkpt lat="43.2958083" lon="13.1214049"><ele>548.0</ele><time>2026-04-11T07:27:15.86Z</time></trkpt><trkpt lat="43.2958098" lon="13.1212237"><ele>548.0</ele><time>2026-04-11T07:27:16.858Z</time></trkpt><trkpt lat="43.2958126" lon="13.1210478"><ele>548.0</ele><time>2026-04-11T07:27:17.853Z</time></trkpt><trkpt lat="43.295821" lon="13.1208728"><ele>548.0</ele><time>2026-04-11T07:27:18.849Z</time></trkpt><trkpt lat="43.2958097" lon="13.1206914"><ele>548.0</ele><time>2026-04-11T07:27:19.87Z</time></trkpt><trkpt lat="43.2957926" lon="13.1205084"><ele>548.0</ele><time>2026-04-11T07:27:20.861Z</time></trkpt><trkpt lat="43.2957772" lon="13.1203307"><ele>548.1999999999999</ele><time>2026-04-11T07:27:21.862Z</time></trkpt><trkpt lat="43.2957641" lon="13.1201779"><ele>548.4</ele><time>2026-04-11T07:27:22.85Z</time></trkpt><trkpt lat="43.2957496" lon="13.1200379"><ele>548.5999999999999</ele><time>2026-04-11T07:27:23.868Z</time></trkpt><trkpt lat="43.2957552" lon="13.1199059"><ele>548.8</ele><time>2026-04-11T07:27:24.854Z</time></trkpt><trkpt lat="43.2957765" lon="13.1197662"><ele>549.0</ele><time>2026-04-11T07:27:25.87Z</time></trkpt><trkpt lat="43.2958072" lon="13.1196105"><ele>549.0</ele><time>2026-04-11T07:27:26.86Z</time></trkpt><trkpt lat="43.2958292" lon="13.1194361"><ele>549.0</ele><time>2026-04-11T07:27:27.879Z</time></trkpt><trkpt lat="43.295845" lon="13.1192564"><ele>549.0</ele><time>2026-04-11T07:27:28.888Z</time></trkpt><trkpt lat="43.2958453" lon="13.1190632"><ele>549.0</ele><time>2026-04-11T07:27:29.874Z</time></trkpt><trkpt lat="43.295835" lon="13.1188668"><ele>548.75</ele><time>2026-04-11T07:27:30.86Z</time></trkpt><trkpt lat="43.2958217" lon="13.1186697"><ele>548.5</ele><time>2026-04-11T07:27:31.882Z</time></trkpt><trkpt lat="43.295812" lon="13.1184858"><ele>548.25</ele><time>2026-04-11T07:27:32.874Z</time></trkpt><trkpt lat="43.2958037" lon="13.1183193"><ele>548.0</ele><time>2026-04-11T07:27:33.868Z</time></trkpt><trkpt lat="43.2958049" lon="13.118168"><ele>547.8</ele><time>2026-04-11T07:27:34.891Z</time></trkpt><trkpt lat="43.295827" lon="13.1180332"><ele>547.5999999999999</ele><time>2026-04-11T07:27:35.887Z</time></trkpt><trkpt lat="43.2958582" lon="13.1178997"><ele>547.4000000000001</ele><time>2026-04-11T07:27:36.884Z</time></trkpt><trkpt lat="43.2958925" lon="13.1177518"><ele>547.2</ele><time>2026-04-11T07:27:37.891Z</time></trkpt><trkpt lat="43.2959253" lon="13.1176008"><ele>547.0</ele><time>2026-04-11T07:27:38.844Z</time></trkpt><trkpt lat="43.2959442" lon="13.1174312"><ele>546.75</ele><time>2026-04-11T07:27:39.84Z</time></trkpt><trkpt lat="43.2959442" lon="13.1172395"><ele>546.5</ele><time>2026-04-11T07:27:40.877Z</time></trkpt><trkpt lat="43.2959286" lon="13.1170439"><ele>546.25</ele><time>2026-04-11T07:27:41.898Z</time></trkpt><trkpt lat="43.2959101" lon="13.1168617"><ele>546.0</ele><time>2026-04-11T07:27:42.886Z</time></trkpt><trkpt lat="43.2958811" lon="13.1167116"><ele>546.0</ele><time>2026-04-11T07:27:43.876Z</time></trkpt><trkpt lat="43.2958357" lon="13.1165711"><ele>546.0</ele><time>2026-04-11T07:27:44.891Z</time></trkpt><trkpt lat="43.2957683" lon="13.1164427"><ele>546.0</ele><time>2026-04-11T07:27:45.903Z</time></trkpt><trkpt lat="43.2956845" lon="13.1163197"><ele>546.0</ele><time>2026-04-11T07:27:46.894Z</time></trkpt><trkpt lat="43.2955814" lon="13.116197"><ele>546.25</ele><time>2026-04-11T07:27:47.891Z</time></trkpt><trkpt lat="43.2954775" lon="13.1160628"><ele>546.5</ele><time>2026-04-11T07:27:48.895Z</time></trkpt><trkpt lat="43.2953798" lon="13.1159361"><ele>546.75</ele><time>2026-04-11T07:27:49.902Z</time></trkpt><trkpt lat="43.2952791" lon="13.1158127"><ele>547.0</ele><time>2026-04-11T07:27:50.884Z</time></trkpt><trkpt lat="43.2951885" lon="13.1157013"><ele>548.0</ele><time>2026-04-11T07:27:51.891Z</time></trkpt><trkpt lat="43.2951067" lon="13.115593"><ele>549.0</ele><time>2026-04-11T07:27:52.892Z</time></trkpt><trkpt lat="43.2950325" lon="13.1154709"><ele>550.0</ele><time>2026-04-11T07:27:53.92Z</time></trkpt><trkpt lat="43.294965" lon="13.1153426"><ele>551.0</ele><time>2026-04-11T07:27:54.929Z</time></trkpt><trkpt lat="43.2949029" lon="13.1151942"><ele>551.0</ele><time>2026-04-11T07:27:55.874Z</time></trkpt><trkpt lat="43.2948468" lon="13.1150406"><ele>551.0</ele><time>2026-04-11T07:27:56.879Z</time></trkpt><trkpt lat="43.2947933" lon="13.1148827"><ele>551.0</ele><time>2026-04-11T07:27:57.885Z</time></trkpt><trkpt lat="43.2947399" lon="13.1147247"><ele>551.0</ele><time>2026-04-11T07:27:58.888Z</time></trkpt><trkpt lat="43.2946942" lon="13.1145694"><ele>552.5</ele><time>2026-04-11T07:27:59.888Z</time></trkpt><trkpt lat="43.2946557" lon="13.1144041"><ele>554.0</ele><time>2026-04-11T07:28:00.884Z</time></trkpt><trkpt lat="43.2946225" lon="13.1142514"><ele>555.5</ele><time>2026-04-11T07:28:01.898Z</time></trkpt><trkpt lat="43.2945833" lon="13.114105"><ele>557.0</ele><time>2026-04-11T07:28:02.895Z</time></trkpt><trkpt lat="43.2945324" lon="13.1139571"><ele>557.0</ele><time>2026-04-11T07:28:03.904Z</time></trkpt><trkpt lat="43.2944785" lon="13.1138074"><ele>557.0</ele><time>2026-04-11T07:28:04.902Z</time></trkpt><trkpt lat="43.2944179" lon="13.1136471"><ele>557.0</ele><time>2026-04-11T07:28:05.841Z</time></trkpt><trkpt lat="43.2943586" lon="13.1134808"><ele>557.0</ele><time>2026-04-11T07:28:06.862Z</time></trkpt><trkpt lat="43.2943089" lon="13.1133224"><ele>556.8000000000001</ele><time>2026-04-11T07:28:07.874Z</time></trkpt><trkpt lat="43.2942674" lon="13.1131688"><ele>556.6</ele><time>2026-04-11T07:28:08.872Z</time></trkpt><trkpt lat="43.2942369" lon="13.1130277"><ele>556.4000000000001</ele><time>2026-04-11T07:28:09.889Z</time></trkpt><trkpt lat="43.2942059" lon="13.1128813"><ele>556.2</ele><time>2026-04-11T07:28:10.882Z</time></trkpt><trkpt lat="43.2941864" lon="13.1127352"><ele>556.0</ele><time>2026-04-11T07:28:11.883Z</time></trkpt><trkpt lat="43.2941789" lon="13.1125963"><ele>556.0</ele><time>2026-04-11T07:28:12.875Z</time></trkpt><trkpt lat="43.2941933" lon="13.1124697"><ele>556.0</ele><time>2026-04-11T07:28:13.896Z</time></trkpt><trkpt lat="43.2942343" lon="13.1123469"><ele>556.0</ele><time>2026-04-11T07:28:14.886Z</time></trkpt><trkpt lat="43.2943007" lon="13.1122649"><ele>556.0</ele><time>2026-04-11T07:28:15.896Z</time></trkpt><trkpt lat="43.2943842" lon="13.1121871"><ele>556.0</ele><time>2026-04-11T07:28:16.884Z</time></trkpt><trkpt lat="43.2944591" lon="13.1121338"><ele>558.0</ele><time>2026-04-11T07:28:17.881Z</time></trkpt><trkpt lat="43.2944999" lon="13.111999"><ele>560.0</ele><time>2026-04-11T07:28:18.903Z</time></trkpt><trkpt lat="43.2945018" lon="13.1118448"><ele>562.0</ele><time>2026-04-11T07:28:19.907Z</time></trkpt><trkpt lat="43.2944721" lon="13.1116898"><ele>564.0</ele><time>2026-04-11T07:28:20.897Z</time></trkpt><trkpt lat="43.2944226" lon="13.1115438"><ele>565.25</ele><time>2026-04-11T07:28:21.896Z</time></trkpt><trkpt lat="43.2943697" lon="13.1113869"><ele>566.5</ele><time>2026-04-11T07:28:22.889Z</time></trkpt><trkpt lat="43.2943189" lon="13.1112198"><ele>567.75</ele><time>2026-04-11T07:28:23.898Z</time></trkpt><trkpt lat="43.2942668" lon="13.1110392"><ele>569.0</ele><time>2026-04-11T07:28:24.884Z</time></trkpt><trkpt lat="43.2942165" lon="13.110846"><ele>572.6666666666666</ele><time>2026-04-11T07:28:25.89Z</time></trkpt><trkpt lat="43.2941646" lon="13.110644"><ele>576.3333333333334</ele><time>2026-04-11T07:28:26.879Z</time></trkpt><trkpt lat="43.2941105" lon="13.110442"><ele>580.0</ele><time>2026-04-11T07:28:27.896Z</time></trkpt><trkpt lat="43.2940494" lon="13.1102282"><ele>580.0</ele><time>2026-04-11T07:28:28.9Z</time></trkpt><trkpt lat="43.2939872" lon="13.1100113"><ele>580.0</ele><time>2026-04-11T07:28:29.879Z</time></trkpt><trkpt lat="43.2939313" lon="13.1097884"><ele>580.0</ele><time>2026-04-11T07:28:30.879Z</time></trkpt><trkpt lat="43.293885" lon="13.109583"><ele>579.5</ele><time>2026-04-11T07:28:31.883Z</time></trkpt><trkpt lat="43.2938511" lon="13.1093867"><ele>579.0</ele><time>2026-04-11T07:28:32.874Z</time></trkpt><trkpt lat="43.2938204" lon="13.1091952"><ele>578.5</ele><time>2026-04-11T07:28:33.878Z</time></trkpt><trkpt lat="43.2937834" lon="13.1089985"><ele>578.0</ele><time>2026-04-11T07:28:34.855Z</time></trkpt><trkpt lat="43.2937427" lon="13.1087957"><ele>578.0</ele><time>2026-04-11T07:28:35.92Z</time></trkpt><trkpt lat="43.2936953" lon="13.1085842"><ele>578.0</ele><time>2026-04-11T07:28:36.907Z</time></trkpt><trkpt lat="43.2936444" lon="13.1083777"><ele>578.0</ele><time>2026-04-11T07:28:37.888Z</time></trkpt><trkpt lat="43.2936065" lon="13.1081885"><ele>580.25</ele><time>2026-04-11T07:28:38.868Z</time></trkpt><trkpt lat="43.2935812" lon="13.1080046"><ele>582.5</ele><time>2026-04-11T07:28:39.852Z</time></trkpt><trkpt lat="43.2935611" lon="13.1078266"><ele>584.75</ele><time>2026-04-11T07:28:40.88Z</time></trkpt><trkpt lat="43.2935333" lon="13.1076506"><ele>587.0</ele><time>2026-04-11T07:28:41.894Z</time></trkpt><trkpt lat="43.2934943" lon="13.107479"><ele>589.75</ele><time>2026-04-11T07:28:42.875Z</time></trkpt><trkpt lat="43.2934365" lon="13.1073041"><ele>592.5</ele><time>2026-04-11T07:28:43.898Z</time></trkpt><trkpt lat="43.2933768" lon="13.1071414"><ele>595.25</ele><time>2026-04-11T07:28:44.89Z</time></trkpt><trkpt lat="43.2933159" lon="13.1069837"><ele>598.0</ele><time>2026-04-11T07:28:45.871Z</time></trkpt><trkpt lat="43.2932597" lon="13.1068316"><ele>598.0</ele><time>2026-04-11T07:28:46.892Z</time></trkpt><trkpt lat="43.2932177" lon="13.1066665"><ele>598.0</ele><time>2026-04-11T07:28:47.912Z</time></trkpt><trkpt lat="43.2931885" lon="13.1064945"><ele>598.0</ele><time>2026-04-11T07:28:48.861Z</time></trkpt><trkpt lat="43.2931644" lon="13.1063214"><ele>598.0</ele><time>2026-04-11T07:28:49.901Z</time></trkpt><trkpt lat="43.2931457" lon="13.106149"><ele>599.5</ele><time>2026-04-11T07:28:50.885Z</time></trkpt><trkpt lat="43.2931309" lon="13.1059825"><ele>601.0</ele><time>2026-04-11T07:28:51.862Z</time></trkpt><trkpt lat="43.293112" lon="13.1058258"><ele>602.5</ele><time>2026-04-11T07:28:52.892Z</time></trkpt><trkpt lat="43.2930846" lon="13.1056685"><ele>604.0</ele><time>2026-04-11T07:28:53.892Z</time></trkpt><trkpt lat="43.2930378" lon="13.1055191"><ele>604.25</ele><time>2026-04-11T07:28:54.896Z</time></trkpt><trkpt lat="43.2929736" lon="13.1053912"><ele>604.5</ele><time>2026-04-11T07:28:55.903Z</time></trkpt><trkpt lat="43.2928818" lon="13.1052964"><ele>604.75</ele><time>2026-04-11T07:28:56.874Z</time></trkpt><trkpt lat="43.2927751" lon="13.1052345"><ele>605.0</ele><time>2026-04-11T07:28:57.88Z</time></trkpt><trkpt lat="43.2926618" lon="13.1051971"><ele>605.0</ele><time>2026-04-11T07:28:58.884Z</time></trkpt><trkpt lat="43.2925339" lon="13.1051893"><ele>605.0</ele><time>2026-04-11T07:28:59.875Z</time></trkpt><trkpt lat="43.2924023" lon="13.1051947"><ele>605.0</ele><time>2026-04-11T07:29:00.879Z</time></trkpt><trkpt lat="43.2922768" lon="13.1051981"><ele>605.0</ele><time>2026-04-11T07:29:01.862Z</time></trkpt><trkpt lat="43.292172" lon="13.1051852"><ele>604.2</ele><time>2026-04-11T07:29:02.887Z</time></trkpt><trkpt lat="43.2920818" lon="13.1051443"><ele>603.4</ele><time>2026-04-11T07:29:03.904Z</time></trkpt><trkpt lat="43.2919909" lon="13.105084"><ele>602.6</ele><time>2026-04-11T07:29:04.872Z</time></trkpt><trkpt lat="43.2919061" lon="13.1049961"><ele>601.8</ele><time>2026-04-11T07:29:05.899Z</time></trkpt><trkpt lat="43.2918224" lon="13.1049056"><ele>601.0</ele><time>2026-04-11T07:29:06.888Z</time></trkpt><trkpt lat="43.2917461" lon="13.1048137"><ele>605.5</ele><time>2026-04-11T07:29:07.901Z</time></trkpt><trkpt lat="43.2916769" lon="13.1046973"><ele>610.0</ele><time>2026-04-11T07:29:08.894Z</time></trkpt><trkpt lat="43.2916063" lon="13.1045678"><ele>614.5</ele><time>2026-04-11T07:29:09.893Z</time></trkpt><trkpt lat="43.2915348" lon="13.1044306"><ele>619.0</ele><time>2026-04-11T07:29:10.9Z</time></trkpt><trkpt lat="43.2914617" lon="13.1042807"><ele>616.25</ele><time>2026-04-11T07:29:11.891Z</time></trkpt><trkpt lat="43.2913862" lon="13.104125"><ele>613.5</ele><time>2026-04-11T07:29:12.908Z</time></trkpt><trkpt lat="43.2913138" lon="13.103972"><ele>610.75</ele><time>2026-04-11T07:29:13.888Z</time></trkpt><trkpt lat="43.2912563" lon="13.1038312"><ele>608.0</ele><time>2026-04-11T07:29:14.858Z</time></trkpt><trkpt lat="43.2912024" lon="13.1036945"><ele>608.0</ele><time>2026-04-11T07:29:15.894Z</time></trkpt><trkpt lat="43.2911722" lon="13.1035398"><ele>608.0</ele><time>2026-04-11T07:29:16.9Z</time></trkpt><trkpt lat="43.2911555" lon="13.1033789"><ele>608.0</ele><time>2026-04-11T07:29:17.897Z</time></trkpt><trkpt lat="43.2911422" lon="13.1032248"><ele>608.0</ele><time>2026-04-11T07:29:18.897Z</time></trkpt><trkpt lat="43.2911326" lon="13.1030681"><ele>610.6</ele><time>2026-04-11T07:29:19.893Z</time></trkpt><trkpt lat="43.2911272" lon="13.1029148"><ele>613.1999999999999</ele><time>2026-04-11T07:29:20.884Z</time></trkpt><trkpt lat="43.2911335" lon="13.1027707"><ele>615.8</ele><time>2026-04-11T07:29:21.889Z</time></trkpt><trkpt lat="43.2911379" lon="13.1026236"><ele>618.4</ele><time>2026-04-11T07:29:22.895Z</time></trkpt><trkpt lat="43.2911181" lon="13.1024904"><ele>621.0</ele><time>2026-04-11T07:29:23.895Z</time></trkpt><trkpt lat="43.2910757" lon="13.1023796"><ele>624.75</ele><time>2026-04-11T07:29:24.871Z</time></trkpt><trkpt lat="43.2910136" lon="13.1022729"><ele>628.5</ele><time>2026-04-11T07:29:25.892Z</time></trkpt><trkpt lat="43.2909328" lon="13.1021678"><ele>632.25</ele><time>2026-04-11T07:29:26.88Z</time></trkpt><trkpt lat="43.2908377" lon="13.1020624"><ele>636.0</ele><time>2026-04-11T07:29:27.897Z</time></trkpt><trkpt lat="43.2907422" lon="13.101953"><ele>636.0</ele><time>2026-04-11T07:29:28.875Z</time></trkpt><trkpt lat="43.2906334" lon="13.1018421"><ele>636.0</ele><time>2026-04-11T07:29:29.889Z</time></trkpt><trkpt lat="43.290521" lon="13.1017284"><ele>636.0</ele><time>2026-04-11T07:29:30.882Z</time></trkpt><trkpt lat="43.2903992" lon="13.1016187"><ele>636.0</ele><time>2026-04-11T07:29:31.847Z</time></trkpt><trkpt lat="43.290267" lon="13.1014981"><ele>636.5</ele><time>2026-04-11T07:29:32.849Z</time></trkpt><trkpt lat="43.2901726" lon="13.1013611"><ele>637.0</ele><time>2026-04-11T07:29:33.888Z</time></trkpt><trkpt lat="43.2900851" lon="13.1012559"><ele>637.5</ele><time>2026-04-11T07:29:34.859Z</time></trkpt><trkpt lat="43.2900058" lon="13.1011672"><ele>638.0</ele><time>2026-04-11T07:29:35.905Z</time></trkpt><trkpt lat="43.2899283" lon="13.1010945"><ele>638.0</ele><time>2026-04-11T07:29:36.878Z</time></trkpt><trkpt lat="43.2898397" lon="13.1010397"><ele>638.0</ele><time>2026-04-11T07:29:37.86Z</time></trkpt><trkpt lat="43.2897321" lon="13.1010132"><ele>638.0</ele><time>2026-04-11T07:29:38.855Z</time></trkpt><trkpt lat="43.2896144" lon="13.1010153"><ele>638.0</ele><time>2026-04-11T07:29:39.844Z</time></trkpt><trkpt lat="43.2895045" lon="13.101027"><ele>638.0</ele><time>2026-04-11T07:29:40.891Z</time></trkpt><trkpt lat="43.2894033" lon="13.1010435"><ele>637.1666666666666</ele><time>2026-04-11T07:29:41.888Z</time></trkpt><trkpt lat="43.289316" lon="13.1010658"><ele>636.3333333333333</ele><time>2026-04-11T07:29:42.889Z</time></trkpt><trkpt lat="43.2892366" lon="13.1010981"><ele>635.5</ele><time>2026-04-11T07:29:43.9Z</time></trkpt><trkpt lat="43.2891553" lon="13.1011231"><ele>634.6666666666666</ele><time>2026-04-11T07:29:44.88Z</time></trkpt><trkpt lat="43.2890848" lon="13.101127"><ele>633.8333333333334</ele><time>2026-04-11T07:29:45.898Z</time></trkpt><trkpt lat="43.2889846" lon="13.1010426"><ele>633.0</ele><time>2026-04-11T07:29:47.9Z</time></trkpt><trkpt lat="43.2889421" lon="13.1009654"><ele>632.1666666666666</ele><time>2026-04-11T07:29:48.889Z</time></trkpt><trkpt lat="43.2888877" lon="13.1008988"><ele>631.3333333333334</ele><time>2026-04-11T07:29:49.884Z</time></trkpt><trkpt lat="43.2888261" lon="13.1008185"><ele>630.5</ele><time>2026-04-11T07:29:50.914Z</time></trkpt><trkpt lat="43.288762" lon="13.1007192"><ele>629.6666666666667</ele><time>2026-04-11T07:29:51.91Z</time></trkpt><trkpt lat="43.2887059" lon="13.1006195"><ele>628.8333333333334</ele><time>2026-04-11T07:29:52.916Z</time></trkpt><trkpt lat="43.2886595" lon="13.1005114"><ele>628.0</ele><time>2026-04-11T07:29:53.913Z</time></trkpt><trkpt lat="43.2886121" lon="13.1003967"><ele>630.8</ele><time>2026-04-11T07:29:54.905Z</time></trkpt><trkpt lat="43.2885638" lon="13.1002676"><ele>633.5999999999999</ele><time>2026-04-11T07:29:55.903Z</time></trkpt><trkpt lat="43.2885271" lon="13.1001372"><ele>636.4000000000001</ele><time>2026-04-11T07:29:56.897Z</time></trkpt><trkpt lat="43.2884938" lon="13.100009"><ele>639.2</ele><time>2026-04-11T07:29:57.894Z</time></trkpt><trkpt lat="43.2884548" lon="13.0998727"><ele>642.0</ele><time>2026-04-11T07:29:58.9Z</time></trkpt><trkpt lat="43.2884123" lon="13.0997334"><ele>644.2</ele><time>2026-04-11T07:29:59.899Z</time></trkpt><trkpt lat="43.2883665" lon="13.0995943"><ele>646.4000000000001</ele><time>2026-04-11T07:30:00.896Z</time></trkpt><trkpt lat="43.2883206" lon="13.0994571"><ele>648.5999999999999</ele><time>2026-04-11T07:30:01.912Z</time></trkpt><trkpt lat="43.2882782" lon="13.0993217"><ele>650.8</ele><time>2026-04-11T07:30:02.911Z</time></trkpt><trkpt lat="43.2882441" lon="13.0991795"><ele>653.0</ele><time>2026-04-11T07:30:03.904Z</time></trkpt><trkpt lat="43.2882161" lon="13.0990313"><ele>654.5</ele><time>2026-04-11T07:30:04.891Z</time></trkpt><trkpt lat="43.2881785" lon="13.0988922"><ele>656.0</ele><time>2026-04-11T07:30:05.899Z</time></trkpt><trkpt lat="43.2881403" lon="13.0987394"><ele>657.5</ele><time>2026-04-11T07:30:06.896Z</time></trkpt><trkpt lat="43.2881053" lon="13.0985734"><ele>659.0</ele><time>2026-04-11T07:30:07.897Z</time></trkpt><trkpt lat="43.288067" lon="13.0983944"><ele>667.5</ele><time>2026-04-11T07:30:08.893Z</time></trkpt><trkpt lat="43.2880326" lon="13.0982151"><ele>676.0</ele><time>2026-04-11T07:30:09.911Z</time></trkpt><trkpt lat="43.2880125" lon="13.0980219"><ele>684.5</ele><time>2026-04-11T07:30:10.904Z</time></trkpt><trkpt lat="43.2880016" lon="13.0978089"><ele>693.0</ele><time>2026-04-11T07:30:11.923Z</time></trkpt><trkpt lat="43.2879932" lon="13.0975955"><ele>697.6666666666666</ele><time>2026-04-11T07:30:12.905Z</time></trkpt><trkpt lat="43.2879813" lon="13.0973694"><ele>702.3333333333333</ele><time>2026-04-11T07:30:13.899Z</time></trkpt><trkpt lat="43.2879745" lon="13.0971488"><ele>707.0</ele><time>2026-04-11T07:30:14.89Z</time></trkpt><trkpt lat="43.2879789" lon="13.0969444"><ele>707.0</ele><time>2026-04-11T07:30:15.907Z</time></trkpt><trkpt lat="43.2879752" lon="13.0967709"><ele>707.0</ele><time>2026-04-11T07:30:16.905Z</time></trkpt><trkpt lat="43.2879514" lon="13.0966042"><ele>707.0</ele><time>2026-04-11T07:30:17.894Z</time></trkpt><trkpt lat="43.2879146" lon="13.0964434"><ele>707.0</ele><time>2026-04-11T07:30:18.901Z</time></trkpt><trkpt lat="43.2878754" lon="13.0962779"><ele>708.25</ele><time>2026-04-11T07:30:19.904Z</time></trkpt><trkpt lat="43.2878314" lon="13.0960978"><ele>709.5</ele><time>2026-04-11T07:30:20.902Z</time></trkpt><trkpt lat="43.2878" lon="13.0959135"><ele>710.75</ele><time>2026-04-11T07:30:21.903Z</time></trkpt><trkpt lat="43.2877875" lon="13.0957288"><ele>712.0</ele><time>2026-04-11T07:30:22.894Z</time></trkpt><trkpt lat="43.2877713" lon="13.0955277"><ele>712.75</ele><time>2026-04-11T07:30:23.91Z</time></trkpt><trkpt lat="43.2877574" lon="13.0953272"><ele>713.5</ele><time>2026-04-11T07:30:24.901Z</time></trkpt><trkpt lat="43.2877529" lon="13.0951393"><ele>714.25</ele><time>2026-04-11T07:30:25.903Z</time></trkpt><trkpt lat="43.2877629" lon="13.094958"><ele>715.0</ele><time>2026-04-11T07:30:26.905Z</time></trkpt><trkpt lat="43.2877942" lon="13.0947938"><ele>719.0</ele><time>2026-04-11T07:30:27.92Z</time></trkpt><trkpt lat="43.2878393" lon="13.0946286"><ele>723.0</ele><time>2026-04-11T07:30:28.914Z</time></trkpt><trkpt lat="43.287898" lon="13.0944903"><ele>727.0</ele><time>2026-04-11T07:30:29.893Z</time></trkpt><trkpt lat="43.2879767" lon="13.0943812"><ele>731.0</ele><time>2026-04-11T07:30:30.914Z</time></trkpt><trkpt lat="43.288063" lon="13.0942936"><ele>731.5999999999999</ele><time>2026-04-11T07:30:31.912Z</time></trkpt><trkpt lat="43.2881296" lon="13.0942084"><ele>732.2</ele><time>2026-04-11T07:30:32.872Z</time></trkpt><trkpt lat="43.2881596" lon="13.0940607"><ele>732.8</ele><time>2026-04-11T07:30:34.885Z</time></trkpt><trkpt lat="43.288084" lon="13.0939594"><ele>733.4000000000001</ele><time>2026-04-11T07:30:36.892Z</time></trkpt><trkpt lat="43.2880143" lon="13.0939537"><ele>734.0</ele><time>2026-04-11T07:30:37.897Z</time></trkpt><trkpt lat="43.2879321" lon="13.0939886"><ele>733.4000000000001</ele><time>2026-04-11T07:30:38.887Z</time></trkpt><trkpt lat="43.2878432" lon="13.094058"><ele>732.8</ele><time>2026-04-11T07:30:39.84Z</time></trkpt><trkpt lat="43.2877621" lon="13.0941495"><ele>732.2</ele><time>2026-04-11T07:30:40.885Z</time></trkpt><trkpt lat="43.2876803" lon="13.0942557"><ele>731.5999999999999</ele><time>2026-04-11T07:30:41.894Z</time></trkpt><trkpt lat="43.2875925" lon="13.094338"><ele>731.0</ele><time>2026-04-11T07:30:42.836Z</time></trkpt><trkpt lat="43.2874961" lon="13.0943945"><ele>731.0</ele><time>2026-04-11T07:30:43.86Z</time></trkpt><trkpt lat="43.2874125" lon="13.0944645"><ele>731.0</ele><time>2026-04-11T07:30:44.868Z</time></trkpt><trkpt lat="43.2873627" lon="13.0945623"><ele>731.0</ele><time>2026-04-11T07:30:45.897Z</time></trkpt><trkpt lat="43.2873118" lon="13.0946914"><ele>731.0</ele><time>2026-04-11T07:30:46.882Z</time></trkpt><trkpt lat="43.2872672" lon="13.0948322"><ele>731.0</ele><time>2026-04-11T07:30:47.877Z</time></trkpt><trkpt lat="43.2872231" lon="13.0949732"><ele>737.5</ele><time>2026-04-11T07:30:48.873Z</time></trkpt><trkpt lat="43.2871842" lon="13.095124"><ele>744.0</ele><time>2026-04-11T07:30:49.862Z</time></trkpt><trkpt lat="43.2871414" lon="13.095271"><ele>750.5</ele><time>2026-04-11T07:30:50.887Z</time></trkpt><trkpt lat="43.2871064" lon="13.0954221"><ele>757.0</ele><time>2026-04-11T07:30:51.904Z</time></trkpt><trkpt lat="43.2870663" lon="13.0955725"><ele>757.0</ele><time>2026-04-11T07:30:52.901Z</time></trkpt><trkpt lat="43.2870259" lon="13.0957185"><ele>757.0</ele><time>2026-04-11T07:30:53.886Z</time></trkpt><trkpt lat="43.2869749" lon="13.095855"><ele>757.0</ele><time>2026-04-11T07:30:54.899Z</time></trkpt><trkpt lat="43.2869252" lon="13.0959678"><ele>757.0</ele><time>2026-04-11T07:30:55.864Z</time></trkpt><trkpt lat="43.2868677" lon="13.0960661"><ele>757.0</ele><time>2026-04-11T07:30:56.879Z</time></trkpt><trkpt lat="43.2868008" lon="13.09616"><ele>757.0</ele><time>2026-04-11T07:30:57.893Z</time></trkpt><trkpt lat="43.2867201" lon="13.0962412"><ele>757.0</ele><time>2026-04-11T07:30:58.888Z</time></trkpt><trkpt lat="43.286627" lon="13.0963096"><ele>757.0</ele><time>2026-04-11T07:30:59.872Z</time></trkpt><trkpt lat="43.2865218" lon="13.096347"><ele>757.0</ele><time>2026-04-11T07:31:00.853Z</time></trkpt><trkpt lat="43.2864153" lon="13.0963655"><ele>757.0</ele><time>2026-04-11T07:31:01.896Z</time></trkpt><trkpt lat="43.286307" lon="13.096371"><ele>757.0</ele><time>2026-04-11T07:31:02.895Z</time></trkpt><trkpt lat="43.286201" lon="13.0963414"><ele>757.0</ele><time>2026-04-11T07:31:03.856Z</time></trkpt><trkpt lat="43.2860977" lon="13.0962764"><ele>757.0</ele><time>2026-04-11T07:31:04.904Z</time></trkpt><trkpt lat="43.285998" lon="13.0962072"><ele>757.0</ele><time>2026-04-11T07:31:05.847Z</time></trkpt><trkpt lat="43.2859009" lon="13.0961312"><ele>757.0</ele><time>2026-04-11T07:31:06.886Z</time></trkpt><trkpt lat="43.2857998" lon="13.0960576"><ele>757.0</ele><time>2026-04-11T07:31:07.888Z</time></trkpt><trkpt lat="43.2857076" lon="13.0959792"><ele>757.0</ele><time>2026-04-11T07:31:08.891Z</time></trkpt><trkpt lat="43.2856221" lon="13.0959095"><ele>757.0</ele><time>2026-04-11T07:31:09.906Z</time></trkpt><trkpt lat="43.2855406" lon="13.095839"><ele>757.0</ele><time>2026-04-11T07:31:10.889Z</time></trkpt><trkpt lat="43.2854537" lon="13.0957541"><ele>757.0</ele><time>2026-04-11T07:31:11.889Z</time></trkpt><trkpt lat="43.2853623" lon="13.0956664"><ele>762.25</ele><time>2026-04-11T07:31:12.886Z</time></trkpt><trkpt lat="43.2852727" lon="13.0955786"><ele>767.5</ele><time>2026-04-11T07:31:13.881Z</time></trkpt><trkpt lat="43.2851878" lon="13.0954844"><ele>772.75</ele><time>2026-04-11T07:31:14.898Z</time></trkpt><trkpt lat="43.2850969" lon="13.0953965"><ele>778.0</ele><time>2026-04-11T07:31:15.884Z</time></trkpt><trkpt lat="43.2849966" lon="13.0953054"><ele>778.0</ele><time>2026-04-11T07:31:16.887Z</time></trkpt><trkpt lat="43.2848984" lon="13.0952083"><ele>778.0</ele><time>2026-04-11T07:31:17.889Z</time></trkpt><trkpt lat="43.2848004" lon="13.0951326"><ele>778.0</ele><time>2026-04-11T07:31:18.902Z</time></trkpt><trkpt lat="43.2847016" lon="13.0950779"><ele>778.0</ele><time>2026-04-11T07:31:19.957Z</time></trkpt><trkpt lat="43.2845957" lon="13.0950555"><ele>778.0</ele><time>2026-04-11T07:31:20.899Z</time></trkpt><trkpt lat="43.2844908" lon="13.0950714"><ele>777.4</ele><time>2026-04-11T07:31:21.884Z</time></trkpt><trkpt lat="43.2843817" lon="13.0951119"><ele>776.8</ele><time>2026-04-11T07:31:22.888Z</time></trkpt><trkpt lat="43.2842758" lon="13.0951477"><ele>776.2</ele><time>2026-04-11T07:31:23.894Z</time></trkpt><trkpt lat="43.2841802" lon="13.0951625"><ele>775.6</ele><time>2026-04-11T07:31:24.894Z</time></trkpt><trkpt lat="43.284088" lon="13.0951643"><ele>775.0</ele><time>2026-04-11T07:31:25.886Z</time></trkpt><trkpt lat="43.2840027" lon="13.095151"><ele>774.8</ele><time>2026-04-11T07:31:26.878Z</time></trkpt><trkpt lat="43.2839186" lon="13.095128"><ele>774.6</ele><time>2026-04-11T07:31:27.908Z</time></trkpt><trkpt lat="43.2838278" lon="13.095098"><ele>774.4000000000001</ele><time>2026-04-11T07:31:28.895Z</time></trkpt><trkpt lat="43.2837255" lon="13.0950492"><ele>774.2</ele><time>2026-04-11T07:31:29.895Z</time></trkpt><trkpt lat="43.2836123" lon="13.0949836"><ele>774.0</ele><time>2026-04-11T07:31:30.873Z</time></trkpt><trkpt lat="43.2835062" lon="13.094915"><ele>775.4000000000001</ele><time>2026-04-11T07:31:31.895Z</time></trkpt><trkpt lat="43.2834164" lon="13.0948401"><ele>776.8</ele><time>2026-04-11T07:31:32.882Z</time></trkpt><trkpt lat="43.2833286" lon="13.0947633"><ele>778.2</ele><time>2026-04-11T07:31:33.901Z</time></trkpt><trkpt lat="43.2832398" lon="13.0946726"><ele>779.5999999999999</ele><time>2026-04-11T07:31:34.884Z</time></trkpt><trkpt lat="43.2831535" lon="13.0945737"><ele>781.0</ele><time>2026-04-11T07:31:35.88Z</time></trkpt><trkpt lat="43.2830669" lon="13.0944866"><ele>781.0</ele><time>2026-04-11T07:31:36.878Z</time></trkpt><trkpt lat="43.2829779" lon="13.0943904"><ele>781.0</ele><time>2026-04-11T07:31:37.888Z</time></trkpt><trkpt lat="43.2828842" lon="13.0942842"><ele>781.0</ele><time>2026-04-11T07:31:38.877Z</time></trkpt><trkpt lat="43.282796" lon="13.0941847"><ele>781.0</ele><time>2026-04-11T07:31:39.845Z</time></trkpt><trkpt lat="43.2827158" lon="13.0940799"><ele>785.1666666666666</ele><time>2026-04-11T07:31:40.886Z</time></trkpt><trkpt lat="43.2826361" lon="13.0939682"><ele>789.3333333333333</ele><time>2026-04-11T07:31:41.886Z</time></trkpt><trkpt lat="43.2825677" lon="13.0938642"><ele>793.5</ele><time>2026-04-11T07:31:42.879Z</time></trkpt><trkpt lat="43.2825185" lon="13.0937821"><ele>797.6666666666667</ele><time>2026-04-11T07:31:43.893Z</time></trkpt><trkpt lat="43.2824879" lon="13.0936978"><ele>801.8333333333334</ele><time>2026-04-11T07:31:44.852Z</time></trkpt><trkpt lat="43.2824639" lon="13.0936103"><ele>806.0</ele><time>2026-04-11T07:31:45.898Z</time></trkpt><trkpt lat="43.2824323" lon="13.0935157"><ele>806.0000000000001</ele><time>2026-04-11T07:31:46.885Z</time></trkpt><trkpt lat="43.28238" lon="13.0934481"><ele>806.0</ele><time>2026-04-11T07:31:47.892Z</time></trkpt><trkpt lat="43.2823212" lon="13.0934115"><ele>806.0</ele><time>2026-04-11T07:31:48.881Z</time></trkpt><trkpt lat="43.2822518" lon="13.093379"><ele>806.0</ele><time>2026-04-11T07:31:49.887Z</time></trkpt><trkpt lat="43.282178" lon="13.0933396"><ele>806.0000000000001</ele><time>2026-04-11T07:31:50.898Z</time></trkpt><trkpt lat="43.2821014" lon="13.0932839"><ele>806.0</ele><time>2026-04-11T07:31:51.899Z</time></trkpt><trkpt lat="43.2820455" lon="13.0932133"><ele>804.8333333333334</ele><time>2026-04-11T07:31:52.883Z</time></trkpt><trkpt lat="43.2819992" lon="13.093117"><ele>803.6666666666667</ele><time>2026-04-11T07:31:53.884Z</time></trkpt><trkpt lat="43.2819722" lon="13.0930062"><ele>802.5</ele><time>2026-04-11T07:31:54.889Z</time></trkpt><trkpt lat="43.2819565" lon="13.0928858"><ele>801.3333333333333</ele><time>2026-04-11T07:31:55.884Z</time></trkpt><trkpt lat="43.2819344" lon="13.0927644"><ele>800.1666666666666</ele><time>2026-04-11T07:31:56.89Z</time></trkpt><trkpt lat="43.2819154" lon="13.092644"><ele>799.0</ele><time>2026-04-11T07:31:57.908Z</time></trkpt><trkpt lat="43.281887" lon="13.0925426"><ele>798.9999999999999</ele><time>2026-04-11T07:31:58.892Z</time></trkpt><trkpt lat="43.2818451" lon="13.0924551"><ele>799.0</ele><time>2026-04-11T07:31:59.88Z</time></trkpt><trkpt lat="43.2817841" lon="13.0923653"><ele>799.0</ele><time>2026-04-11T07:32:00.889Z</time></trkpt><trkpt lat="43.2817273" lon="13.0922784"><ele>799.0</ele><time>2026-04-11T07:32:01.902Z</time></trkpt><trkpt lat="43.2816928" lon="13.0921862"><ele>798.9999999999999</ele><time>2026-04-11T07:32:02.902Z</time></trkpt><trkpt lat="43.2816546" lon="13.0920788"><ele>799.0</ele><time>2026-04-11T07:32:03.889Z</time></trkpt><trkpt lat="43.2816253" lon="13.0919604"><ele>804.0</ele><time>2026-04-11T07:32:04.887Z</time></trkpt><trkpt lat="43.2816004" lon="13.0918416"><ele>809.0</ele><time>2026-04-11T07:32:05.892Z</time></trkpt><trkpt lat="43.28158" lon="13.0917177"><ele>814.0</ele><time>2026-04-11T07:32:06.882Z</time></trkpt><trkpt lat="43.2815572" lon="13.0915836"><ele>819.0</ele><time>2026-04-11T07:32:07.891Z</time></trkpt><trkpt lat="43.2815325" lon="13.0914462"><ele>824.0</ele><time>2026-04-11T07:32:08.893Z</time></trkpt><trkpt lat="43.2815087" lon="13.0912927"><ele>821.75</ele><time>2026-04-11T07:32:09.893Z</time></trkpt><trkpt lat="43.2814851" lon="13.0911279"><ele>819.5</ele><time>2026-04-11T07:32:10.868Z</time></trkpt><trkpt lat="43.2814662" lon="13.0909575"><ele>817.25</ele><time>2026-04-11T07:32:11.864Z</time></trkpt><trkpt lat="43.2814352" lon="13.0907886"><ele>815.0</ele><time>2026-04-11T07:32:12.885Z</time></trkpt><trkpt lat="43.2813968" lon="13.090639"><ele>815.0</ele><time>2026-04-11T07:32:13.893Z</time></trkpt><trkpt lat="43.281344" lon="13.0905058"><ele>815.0</ele><time>2026-04-11T07:32:14.907Z</time></trkpt><trkpt lat="43.2812916" lon="13.0903585"><ele>815.0</ele><time>2026-04-11T07:32:15.881Z</time></trkpt><trkpt lat="43.2812522" lon="13.0901836"><ele>815.0</ele><time>2026-04-11T07:32:16.889Z</time></trkpt><trkpt lat="43.2812206" lon="13.0900108"><ele>819.75</ele><time>2026-04-11T07:32:17.904Z</time></trkpt><trkpt lat="43.2811809" lon="13.0898337"><ele>824.5</ele><time>2026-04-11T07:32:18.896Z</time></trkpt><trkpt lat="43.2811333" lon="13.0896764"><ele>829.25</ele><time>2026-04-11T07:32:19.905Z</time></trkpt><trkpt lat="43.2810762" lon="13.0895116"><ele>834.0</ele><time>2026-04-11T07:32:20.889Z</time></trkpt><trkpt lat="43.2810082" lon="13.0893584"><ele>834.0</ele><time>2026-04-11T07:32:21.893Z</time></trkpt><trkpt lat="43.2809447" lon="13.0892049"><ele>834.0</ele><time>2026-04-11T07:32:22.888Z</time></trkpt><trkpt lat="43.2808752" lon="13.0890537"><ele>834.0</ele><time>2026-04-11T07:32:23.899Z</time></trkpt><trkpt lat="43.2807943" lon="13.0889098"><ele>834.0</ele><time>2026-04-11T07:32:24.889Z</time></trkpt><trkpt lat="43.2807145" lon="13.0887851"><ele>832.75</ele><time>2026-04-11T07:32:25.895Z</time></trkpt><trkpt lat="43.2806175" lon="13.0886601"><ele>831.5</ele><time>2026-04-11T07:32:26.891Z</time></trkpt><trkpt lat="43.2805171" lon="13.0885564"><ele>830.25</ele><time>2026-04-11T07:32:27.884Z</time></trkpt><trkpt lat="43.2804154" lon="13.0884517"><ele>829.0</ele><time>2026-04-11T07:32:28.887Z</time></trkpt><trkpt lat="43.2803159" lon="13.0883576"><ele>829.0</ele><time>2026-04-11T07:32:29.898Z</time></trkpt><trkpt lat="43.2802206" lon="13.0882794"><ele>829.0</ele><time>2026-04-11T07:32:30.885Z</time></trkpt><trkpt lat="43.2801296" lon="13.0882158"><ele>829.0</ele><time>2026-04-11T07:32:31.882Z</time></trkpt><trkpt lat="43.2800335" lon="13.0881628"><ele>829.0</ele><time>2026-04-11T07:32:32.891Z</time></trkpt><trkpt lat="43.2799389" lon="13.0881015"><ele>829.0</ele><time>2026-04-11T07:32:33.847Z</time></trkpt><trkpt lat="43.2798519" lon="13.088031"><ele>830.1666666666666</ele><time>2026-04-11T07:32:34.884Z</time></trkpt><trkpt lat="43.2797719" lon="13.0879564"><ele>831.3333333333333</ele><time>2026-04-11T07:32:35.912Z</time></trkpt><trkpt lat="43.2797025" lon="13.0878787"><ele>832.5</ele><time>2026-04-11T07:32:36.894Z</time></trkpt><trkpt lat="43.2796391" lon="13.0878074"><ele>833.6666666666667</ele><time>2026-04-11T07:32:37.897Z</time></trkpt><trkpt lat="43.2795764" lon="13.0877344"><ele>834.8333333333334</ele><time>2026-04-11T07:32:38.889Z</time></trkpt><trkpt lat="43.2795147" lon="13.087664"><ele>836.0</ele><time>2026-04-11T07:32:39.848Z</time></trkpt><trkpt lat="43.2794511" lon="13.0876008"><ele>836.0000000000001</ele><time>2026-04-11T07:32:40.901Z</time></trkpt><trkpt lat="43.2793816" lon="13.0875518"><ele>836.0</ele><time>2026-04-11T07:32:41.918Z</time></trkpt><trkpt lat="43.2793094" lon="13.0875215"><ele>836.0</ele><time>2026-04-11T07:32:42.885Z</time></trkpt><trkpt lat="43.2792276" lon="13.0875041"><ele>836.0</ele><time>2026-04-11T07:32:43.888Z</time></trkpt><trkpt lat="43.2791325" lon="13.0874992"><ele>836.0000000000001</ele><time>2026-04-11T07:32:44.9Z</time></trkpt><trkpt lat="43.2790411" lon="13.0875009"><ele>836.0</ele><time>2026-04-11T07:32:45.899Z</time></trkpt><trkpt lat="43.2789517" lon="13.0875089"><ele>837.3333333333334</ele><time>2026-04-11T07:32:46.894Z</time></trkpt><trkpt lat="43.2788634" lon="13.0875304"><ele>838.6666666666667</ele><time>2026-04-11T07:32:47.887Z</time></trkpt><trkpt lat="43.2787781" lon="13.0875629"><ele>840.0</ele><time>2026-04-11T07:32:48.871Z</time></trkpt><trkpt lat="43.2786943" lon="13.0875944"><ele>841.3333333333333</ele><time>2026-04-11T07:32:49.903Z</time></trkpt><trkpt lat="43.2786233" lon="13.0876124"><ele>842.6666666666666</ele><time>2026-04-11T07:32:50.898Z</time></trkpt><trkpt lat="43.2785461" lon="13.0876108"><ele>844.0</ele><time>2026-04-11T07:32:51.885Z</time></trkpt><trkpt lat="43.2784639" lon="13.0875829"><ele>844.0</ele><time>2026-04-11T07:32:52.886Z</time></trkpt><trkpt lat="43.2783747" lon="13.0875411"><ele>844.0</ele><time>2026-04-11T07:32:53.905Z</time></trkpt><trkpt lat="43.2782759" lon="13.0874955"><ele>844.0</ele><time>2026-04-11T07:32:54.903Z</time></trkpt><trkpt lat="43.2781695" lon="13.0874577"><ele>844.0</ele><time>2026-04-11T07:32:55.896Z</time></trkpt><trkpt lat="43.2780624" lon="13.0874397"><ele>844.0</ele><time>2026-04-11T07:32:56.892Z</time></trkpt><trkpt lat="43.277962" lon="13.087434"><ele>848.0</ele><time>2026-04-11T07:32:57.895Z</time></trkpt><trkpt lat="43.2778717" lon="13.0874461"><ele>852.0</ele><time>2026-04-11T07:32:58.882Z</time></trkpt><trkpt lat="43.2777887" lon="13.0874775"><ele>856.0000000000001</ele><time>2026-04-11T07:32:59.845Z</time></trkpt><trkpt lat="43.2777137" lon="13.0875521"><ele>860.0</ele><time>2026-04-11T07:33:00.886Z</time></trkpt><trkpt lat="43.2776518" lon="13.087636"><ele>864.0</ele><time>2026-04-11T07:33:01.894Z</time></trkpt><trkpt lat="43.2775958" lon="13.0877391"><ele>864.0</ele><time>2026-04-11T07:33:02.879Z</time></trkpt><trkpt lat="43.2775583" lon="13.0878635"><ele>864.0000000000001</ele><time>2026-04-11T07:33:03.883Z</time></trkpt><trkpt lat="43.277523" lon="13.0879886"><ele>864.0000000000001</ele><time>2026-04-11T07:33:04.89Z</time></trkpt><trkpt lat="43.2774812" lon="13.0881074"><ele>864.0</ele><time>2026-04-11T07:33:05.903Z</time></trkpt><trkpt lat="43.2774368" lon="13.0882397"><ele>864.0</ele><time>2026-04-11T07:33:06.892Z</time></trkpt><trkpt lat="43.2774" lon="13.088371"><ele>864.2</ele><time>2026-04-11T07:33:07.889Z</time></trkpt><trkpt lat="43.2773674" lon="13.088476"><ele>864.4000000000001</ele><time>2026-04-11T07:33:08.874Z</time></trkpt><trkpt lat="43.277298" lon="13.088612"><ele>864.6</ele><time>2026-04-11T07:33:10.887Z</time></trkpt><trkpt lat="43.2771991" lon="13.0886448"><ele>864.8</ele><time>2026-04-11T07:33:12.874Z</time></trkpt><trkpt lat="43.2770981" lon="13.0886188"><ele>865.0</ele><time>2026-04-11T07:33:14.9Z</time></trkpt><trkpt lat="43.2770011" lon="13.0887148"><ele>870.6666666666666</ele><time>2026-04-11T07:33:16.885Z</time></trkpt><trkpt lat="43.2769627" lon="13.0887944"><ele>876.3333333333333</ele><time>2026-04-11T07:33:17.91Z</time></trkpt><trkpt lat="43.2769253" lon="13.0888702"><ele>882.0</ele><time>2026-04-11T07:33:18.865Z</time></trkpt><trkpt lat="43.2768669" lon="13.0889843"><ele>887.6666666666667</ele><time>2026-04-11T07:33:20.869Z</time></trkpt><trkpt lat="43.2768137" lon="13.0889055"><ele>893.3333333333334</ele><time>2026-04-11T07:33:34.873Z</time></trkpt><trkpt lat="43.2768045" lon="13.0887422"><ele>899.0</ele><time>2026-04-11T07:33:36.888Z</time></trkpt><trkpt lat="43.2767828" lon="13.0886436"><ele>899.0000000000001</ele><time>2026-04-11T07:33:37.893Z</time></trkpt><trkpt lat="43.2767633" lon="13.0885506"><ele>899.0</ele><time>2026-04-11T07:33:38.905Z</time></trkpt><trkpt lat="43.2767588" lon="13.0884552"><ele>899.0</ele><time>2026-04-11T07:33:39.85Z</time></trkpt><trkpt lat="43.2767878" lon="13.0882758"><ele>899.0</ele><time>2026-04-11T07:33:41.877Z</time></trkpt><trkpt lat="43.276819" lon="13.0881699"><ele>899.0000000000001</ele><time>2026-04-11T07:33:42.876Z</time></trkpt><trkpt lat="43.2768455" lon="13.0880591"><ele>899.0</ele><time>2026-04-11T07:33:43.888Z</time></trkpt><trkpt lat="43.2768635" lon="13.0879467"><ele>899.5000000000001</ele><time>2026-04-11T07:33:44.869Z</time></trkpt><trkpt lat="43.2768688" lon="13.0878452"><ele>900.0</ele><time>2026-04-11T07:33:45.912Z</time></trkpt><trkpt lat="43.2768688" lon="13.0877478"><ele>900.5</ele><time>2026-04-11T07:33:46.9Z</time></trkpt><trkpt lat="43.2768572" lon="13.0876562"><ele>901.0</ele><time>2026-04-11T07:33:47.873Z</time></trkpt><trkpt lat="43.2768313" lon="13.0875694"><ele>901.5000000000001</ele><time>2026-04-11T07:33:48.909Z</time></trkpt><trkpt lat="43.2767314" lon="13.087489"><ele>902.0</ele><time>2026-04-11T07:33:50.906Z</time></trkpt><trkpt lat="43.2766676" lon="13.0874848"><ele>902.0</ele><time>2026-04-11T07:33:51.895Z</time></trkpt><trkpt lat="43.2766029" lon="13.0875055"><ele>902.0</ele><time>2026-04-11T07:33:52.885Z</time></trkpt><trkpt lat="43.276528" lon="13.087554"><ele>902.0</ele><time>2026-04-11T07:33:53.896Z</time></trkpt><trkpt lat="43.2764407" lon="13.0876066"><ele>902.0</ele><time>2026-04-11T07:33:54.858Z</time></trkpt><trkpt lat="43.2763433" lon="13.0876469"><ele>902.0</ele><time>2026-04-11T07:33:55.867Z</time></trkpt><trkpt lat="43.2762403" lon="13.0876808"><ele>904.6666666666667</ele><time>2026-04-11T07:33:56.896Z</time></trkpt><trkpt lat="43.2761457" lon="13.0877078"><ele>907.3333333333334</ele><time>2026-04-11T07:33:57.916Z</time></trkpt><trkpt lat="43.2760537" lon="13.0877308"><ele>910.0</ele><time>2026-04-11T07:33:58.893Z</time></trkpt><trkpt lat="43.2759707" lon="13.0877437"><ele>912.6666666666667</ele><time>2026-04-11T07:33:59.932Z</time></trkpt><trkpt lat="43.275895" lon="13.0877559"><ele>915.3333333333334</ele><time>2026-04-11T07:34:00.902Z</time></trkpt><trkpt lat="43.2758146" lon="13.087765"><ele>918.0</ele><time>2026-04-11T07:34:01.924Z</time></trkpt><trkpt lat="43.2757368" lon="13.0877717"><ele>918.0</ele><time>2026-04-11T07:34:02.906Z</time></trkpt><trkpt lat="43.2756608" lon="13.0877798"><ele>918.0</ele><time>2026-04-11T07:34:03.917Z</time></trkpt><trkpt lat="43.2755856" lon="13.0877866"><ele>918.0</ele><time>2026-04-11T07:34:04.907Z</time></trkpt><trkpt lat="43.2755091" lon="13.0877919"><ele>918.0</ele><time>2026-04-11T07:34:05.91Z</time></trkpt><trkpt lat="43.2754303" lon="13.0878035"><ele>918.0</ele><time>2026-04-11T07:34:06.916Z</time></trkpt><trkpt lat="43.2753602" lon="13.0877915"><ele>918.0</ele><time>2026-04-11T07:34:07.885Z</time></trkpt><trkpt lat="43.275297" lon="13.0877553"><ele>918.0</ele><time>2026-04-11T07:34:08.844Z</time></trkpt><trkpt lat="43.2752453" lon="13.0876951"><ele>918.1666666666666</ele><time>2026-04-11T07:34:09.91Z</time></trkpt><trkpt lat="43.2751935" lon="13.0876216"><ele>918.3333333333333</ele><time>2026-04-11T07:34:10.905Z</time></trkpt><trkpt lat="43.2751344" lon="13.0875472"><ele>918.5</ele><time>2026-04-11T07:34:11.902Z</time></trkpt><trkpt lat="43.2750646" lon="13.0874824"><ele>918.6666666666666</ele><time>2026-04-11T07:34:12.922Z</time></trkpt><trkpt lat="43.274988" lon="13.0874185"><ele>918.8333333333333</ele><time>2026-04-11T07:34:13.893Z</time></trkpt><trkpt lat="43.2749" lon="13.0873513"><ele>919.0</ele><time>2026-04-11T07:34:14.868Z</time></trkpt><trkpt lat="43.2748077" lon="13.0872774"><ele>919.8000000000001</ele><time>2026-04-11T07:34:15.907Z</time></trkpt><trkpt lat="43.2747192" lon="13.0872041"><ele>920.6000000000001</ele><time>2026-04-11T07:34:16.86Z</time></trkpt><trkpt lat="43.2746287" lon="13.0871132"><ele>921.4</ele><time>2026-04-11T07:34:17.892Z</time></trkpt><trkpt lat="43.2745449" lon="13.0870216"><ele>922.2</ele><time>2026-04-11T07:34:18.848Z</time></trkpt><trkpt lat="43.2744664" lon="13.0869221"><ele>923.0</ele><time>2026-04-11T07:34:19.891Z</time></trkpt><trkpt lat="43.2743787" lon="13.0868268"><ele>923.0</ele><time>2026-04-11T07:34:20.886Z</time></trkpt><trkpt lat="43.2742891" lon="13.086735"><ele>923.0</ele><time>2026-04-11T07:34:21.877Z</time></trkpt><trkpt lat="43.2742034" lon="13.0866354"><ele>923.0</ele><time>2026-04-11T07:34:22.869Z</time></trkpt><trkpt lat="43.2741281" lon="13.0865302"><ele>923.0</ele><time>2026-04-11T07:34:23.911Z</time></trkpt><trkpt lat="43.2740671" lon="13.0864239"><ele>923.0</ele><time>2026-04-11T07:34:24.903Z</time></trkpt><trkpt lat="43.2740133" lon="13.0863165"><ele>925.2</ele><time>2026-04-11T07:34:25.892Z</time></trkpt><trkpt lat="43.2739667" lon="13.0862098"><ele>927.4</ele><time>2026-04-11T07:34:26.898Z</time></trkpt><trkpt lat="43.2739246" lon="13.0860991"><ele>929.6000000000001</ele><time>2026-04-11T07:34:27.86Z</time></trkpt><trkpt lat="43.2738884" lon="13.0859898"><ele>931.8000000000001</ele><time>2026-04-11T07:34:28.852Z</time></trkpt><trkpt lat="43.2738471" lon="13.0858819"><ele>934.0</ele><time>2026-04-11T07:34:29.888Z</time></trkpt><trkpt lat="43.2738029" lon="13.0857634"><ele>937.0</ele><time>2026-04-11T07:34:30.879Z</time></trkpt><trkpt lat="43.2737515" lon="13.0856414"><ele>940.0000000000001</ele><time>2026-04-11T07:34:31.895Z</time></trkpt><trkpt lat="43.2736952" lon="13.0855202"><ele>943.0000000000001</ele><time>2026-04-11T07:34:32.874Z</time></trkpt><trkpt lat="43.2736429" lon="13.0854005"><ele>946.0</ele><time>2026-04-11T07:34:33.901Z</time></trkpt><trkpt lat="43.2735854" lon="13.0852858"><ele>949.0</ele><time>2026-04-11T07:34:34.919Z</time></trkpt><trkpt lat="43.2735357" lon="13.0851884"><ele>948.9999999999999</ele><time>2026-04-11T07:34:35.897Z</time></trkpt><trkpt lat="43.2734813" lon="13.0851239"><ele>949.0</ele><time>2026-04-11T07:34:36.894Z</time></trkpt><trkpt lat="43.273412" lon="13.0850859"><ele>949.0</ele><time>2026-04-11T07:34:37.882Z</time></trkpt><trkpt lat="43.2733274" lon="13.0850781"><ele>949.0</ele><time>2026-04-11T07:34:38.902Z</time></trkpt><trkpt lat="43.2732434" lon="13.0851207"><ele>948.9999999999999</ele><time>2026-04-11T07:34:39.848Z</time></trkpt><trkpt lat="43.2731761" lon="13.0851988"><ele>949.0</ele><time>2026-04-11T07:34:40.922Z</time></trkpt><trkpt lat="43.2731126" lon="13.085291"><ele>950.0</ele><time>2026-04-11T07:34:41.906Z</time></trkpt><trkpt lat="43.2730376" lon="13.085392"><ele>951.0</ele><time>2026-04-11T07:34:42.903Z</time></trkpt><trkpt lat="43.2729489" lon="13.0854812"><ele>952.0</ele><time>2026-04-11T07:34:43.922Z</time></trkpt><trkpt lat="43.2728534" lon="13.0855873"><ele>953.0</ele><time>2026-04-11T07:34:44.895Z</time></trkpt><trkpt lat="43.2727595" lon="13.0857002"><ele>952.5999999999999</ele><time>2026-04-11T07:34:45.917Z</time></trkpt><trkpt lat="43.2726749" lon="13.0858109"><ele>952.1999999999999</ele><time>2026-04-11T07:34:46.876Z</time></trkpt><trkpt lat="43.272603" lon="13.085915"><ele>951.8</ele><time>2026-04-11T07:34:47.891Z</time></trkpt><trkpt lat="43.2725284" lon="13.0860217"><ele>951.4</ele><time>2026-04-11T07:34:48.909Z</time></trkpt><trkpt lat="43.2724534" lon="13.0861217"><ele>951.0</ele><time>2026-04-11T07:34:49.916Z</time></trkpt><trkpt lat="43.2723748" lon="13.0862077"><ele>951.0</ele><time>2026-04-11T07:34:50.895Z</time></trkpt><trkpt lat="43.2722916" lon="13.0862817"><ele>950.9999999999999</ele><time>2026-04-11T07:34:51.879Z</time></trkpt><trkpt lat="43.2722062" lon="13.0863545"><ele>950.9999999999999</ele><time>2026-04-11T07:34:52.898Z</time></trkpt><trkpt lat="43.2721163" lon="13.0864257"><ele>951.0</ele><time>2026-04-11T07:34:53.88Z</time></trkpt><trkpt lat="43.2720216" lon="13.086497"><ele>951.0</ele><time>2026-04-11T07:34:54.881Z</time></trkpt><trkpt lat="43.2719234" lon="13.0865613"><ele>952.0</ele><time>2026-04-11T07:34:55.896Z</time></trkpt><trkpt lat="43.2718195" lon="13.0866283"><ele>953.0</ele><time>2026-04-11T07:34:56.903Z</time></trkpt><trkpt lat="43.2717127" lon="13.0866963"><ele>954.0</ele><time>2026-04-11T07:34:57.902Z</time></trkpt><trkpt lat="43.2715992" lon="13.0867698"><ele>955.0</ele><time>2026-04-11T07:34:58.89Z</time></trkpt><trkpt lat="43.2714807" lon="13.0868459"><ele>956.0</ele><time>2026-04-11T07:34:59.92Z</time></trkpt><trkpt lat="43.2713615" lon="13.0869215"><ele>957.0</ele><time>2026-04-11T07:35:00.89Z</time></trkpt><trkpt lat="43.2712371" lon="13.0869958"><ele>958.0</ele><time>2026-04-11T07:35:01.921Z</time></trkpt><trkpt lat="43.2711216" lon="13.08706"><ele>959.0</ele><time>2026-04-11T07:35:02.856Z</time></trkpt><trkpt lat="43.2710183" lon="13.087109"><ele>959.0</ele><time>2026-04-11T07:35:03.909Z</time></trkpt><trkpt lat="43.2709202" lon="13.0871508"><ele>959.0</ele><time>2026-04-11T07:35:04.903Z</time></trkpt><trkpt lat="43.2708153" lon="13.0871862"><ele>959.0</ele><time>2026-04-11T07:35:05.883Z</time></trkpt><trkpt lat="43.2707026" lon="13.0872052"><ele>959.0</ele><time>2026-04-11T07:35:06.898Z</time></trkpt><trkpt lat="43.2705761" lon="13.0871946"><ele>959.0</ele><time>2026-04-11T07:35:07.889Z</time></trkpt><trkpt lat="43.2704477" lon="13.08717"><ele>959.0</ele><time>2026-04-11T07:35:08.894Z</time></trkpt><trkpt lat="43.2703177" lon="13.0871413"><ele>959.0</ele><time>2026-04-11T07:35:09.911Z</time></trkpt><trkpt lat="43.2701859" lon="13.0871209"><ele>959.0</ele><time>2026-04-11T07:35:10.904Z</time></trkpt><trkpt lat="43.2700519" lon="13.0870969"><ele>959.0</ele><time>2026-04-11T07:35:11.91Z</time></trkpt><trkpt lat="43.2699207" lon="13.0870621"><ele>959.0</ele><time>2026-04-11T07:35:12.9Z</time></trkpt><trkpt lat="43.2697906" lon="13.0870234"><ele>959.0</ele><time>2026-04-11T07:35:13.872Z</time></trkpt><trkpt lat="43.2696713" lon="13.0869766"><ele>959.0</ele><time>2026-04-11T07:35:14.865Z</time></trkpt><trkpt lat="43.269559" lon="13.0869404"><ele>959.0</ele><time>2026-04-11T07:35:15.895Z</time></trkpt><trkpt lat="43.2694448" lon="13.0869132"><ele>959.0</ele><time>2026-04-11T07:35:16.892Z</time></trkpt><trkpt lat="43.2693196" lon="13.0868948"><ele>959.0</ele><time>2026-04-11T07:35:17.902Z</time></trkpt><trkpt lat="43.2691924" lon="13.08689"><ele>959.0</ele><time>2026-04-11T07:35:18.891Z</time></trkpt><trkpt lat="43.2690706" lon="13.0869038"><ele>959.0</ele><time>2026-04-11T07:35:19.898Z</time></trkpt><trkpt lat="43.2689528" lon="13.0869255"><ele>959.0</ele><time>2026-04-11T07:35:20.919Z</time></trkpt><trkpt lat="43.2688329" lon="13.0869516"><ele>959.0</ele><time>2026-04-11T07:35:21.918Z</time></trkpt><trkpt lat="43.2687151" lon="13.0869848"><ele>959.0</ele><time>2026-04-11T07:35:22.935Z</time></trkpt><trkpt lat="43.2685969" lon="13.0870151"><ele>956.5</ele><time>2026-04-11T07:35:23.936Z</time></trkpt><trkpt lat="43.2684789" lon="13.0870475"><ele>954.0</ele><time>2026-04-11T07:35:24.897Z</time></trkpt><trkpt lat="43.2683593" lon="13.0870839"><ele>951.5</ele><time>2026-04-11T07:35:25.866Z</time></trkpt><trkpt lat="43.2682444" lon="13.087127"><ele>949.0</ele><time>2026-04-11T07:35:26.892Z</time></trkpt><trkpt lat="43.2681287" lon="13.0871675"><ele>948.0</ele><time>2026-04-11T07:35:27.939Z</time></trkpt><trkpt lat="43.2680155" lon="13.0871892"><ele>947.0</ele><time>2026-04-11T07:35:28.902Z</time></trkpt><trkpt lat="43.267903" lon="13.0871875"><ele>946.0</ele><time>2026-04-11T07:35:29.895Z</time></trkpt><trkpt lat="43.2677949" lon="13.0871629"><ele>945.0</ele><time>2026-04-11T07:35:30.925Z</time></trkpt><trkpt lat="43.2676837" lon="13.0871305"><ele>945.0</ele><time>2026-04-11T07:35:31.914Z</time></trkpt><trkpt lat="43.2675751" lon="13.08709"><ele>945.0</ele><time>2026-04-11T07:35:32.89Z</time></trkpt><trkpt lat="43.2674734" lon="13.0870449"><ele>945.0</ele><time>2026-04-11T07:35:33.901Z</time></trkpt><trkpt lat="43.2673717" lon="13.086988"><ele>945.0</ele><time>2026-04-11T07:35:34.87Z</time></trkpt><trkpt lat="43.267264" lon="13.0869223"><ele>945.0</ele><time>2026-04-11T07:35:35.862Z</time></trkpt><trkpt lat="43.2671525" lon="13.0868671"><ele>942.25</ele><time>2026-04-11T07:35:36.875Z</time></trkpt><trkpt lat="43.2670356" lon="13.0868199"><ele>939.5</ele><time>2026-04-11T07:35:37.898Z</time></trkpt><trkpt lat="43.2669118" lon="13.0867775"><ele>936.75</ele><time>2026-04-11T07:35:38.874Z</time></trkpt><trkpt lat="43.2667841" lon="13.086741"><ele>934.0</ele><time>2026-04-11T07:35:39.855Z</time></trkpt><trkpt lat="43.2666497" lon="13.0866999"><ele>934.0</ele><time>2026-04-11T07:35:40.853Z</time></trkpt><trkpt lat="43.2665107" lon="13.0866617"><ele>934.0</ele><time>2026-04-11T07:35:41.851Z</time></trkpt><trkpt lat="43.2663744" lon="13.0866269"><ele>934.0</ele><time>2026-04-11T07:35:42.907Z</time></trkpt><trkpt lat="43.2662398" lon="13.0865919"><ele>934.0</ele><time>2026-04-11T07:35:43.893Z</time></trkpt><trkpt lat="43.2661076" lon="13.0865456"><ele>932.0</ele><time>2026-04-11T07:35:44.899Z</time></trkpt><trkpt lat="43.2659834" lon="13.0864732"><ele>930.0</ele><time>2026-04-11T07:35:45.905Z</time></trkpt><trkpt lat="43.2658725" lon="13.0863633"><ele>928.0</ele><time>2026-04-11T07:35:46.891Z</time></trkpt><trkpt lat="43.265774" lon="13.0862365"><ele>926.0</ele><time>2026-04-11T07:35:47.911Z</time></trkpt><trkpt lat="43.2656782" lon="13.0861022"><ele>923.5</ele><time>2026-04-11T07:35:48.871Z</time></trkpt><trkpt lat="43.2655767" lon="13.0859722"><ele>921.0</ele><time>2026-04-11T07:35:49.875Z</time></trkpt><trkpt lat="43.2654689" lon="13.0858515"><ele>918.5</ele><time>2026-04-11T07:35:50.861Z</time></trkpt><trkpt lat="43.2653597" lon="13.0857343"><ele>916.0</ele><time>2026-04-11T07:35:51.916Z</time></trkpt><trkpt lat="43.2652493" lon="13.0856282"><ele>916.0</ele><time>2026-04-11T07:35:52.875Z</time></trkpt><trkpt lat="43.2651353" lon="13.0855273"><ele>916.0</ele><time>2026-04-11T07:35:53.934Z</time></trkpt><trkpt lat="43.2650194" lon="13.0854226"><ele>916.0</ele><time>2026-04-11T07:35:54.911Z</time></trkpt><trkpt lat="43.2649079" lon="13.0853075"><ele>916.0</ele><time>2026-04-11T07:35:55.877Z</time></trkpt><trkpt lat="43.2647968" lon="13.0851888"><ele>913.5</ele><time>2026-04-11T07:35:56.899Z</time></trkpt><trkpt lat="43.264688" lon="13.0850728"><ele>911.0</ele><time>2026-04-11T07:35:57.886Z</time></trkpt><trkpt lat="43.2645758" lon="13.0849631"><ele>908.5</ele><time>2026-04-11T07:35:58.896Z</time></trkpt><trkpt lat="43.2644595" lon="13.0848624"><ele>906.0</ele><time>2026-04-11T07:35:59.853Z</time></trkpt><trkpt lat="43.2643345" lon="13.0847826"><ele>905.0</ele><time>2026-04-11T07:36:00.904Z</time></trkpt><trkpt lat="43.2641983" lon="13.0847329"><ele>904.0</ele><time>2026-04-11T07:36:01.87Z</time></trkpt><trkpt lat="43.2640542" lon="13.0846936"><ele>903.0</ele><time>2026-04-11T07:36:02.903Z</time></trkpt><trkpt lat="43.2639169" lon="13.0846594"><ele>902.0</ele><time>2026-04-11T07:36:03.91Z</time></trkpt><trkpt lat="43.263787" lon="13.084626"><ele>901.25</ele><time>2026-04-11T07:36:04.896Z</time></trkpt><trkpt lat="43.2636616" lon="13.0845924"><ele>900.5</ele><time>2026-04-11T07:36:05.916Z</time></trkpt><trkpt lat="43.2635441" lon="13.0845626"><ele>899.75</ele><time>2026-04-11T07:36:06.873Z</time></trkpt><trkpt lat="43.2634269" lon="13.0845388"><ele>899.0</ele><time>2026-04-11T07:36:07.926Z</time></trkpt><trkpt lat="43.2633164" lon="13.0845109"><ele>899.0</ele><time>2026-04-11T07:36:08.911Z</time></trkpt><trkpt lat="43.2632195" lon="13.0844575"><ele>899.0000000000001</ele><time>2026-04-11T07:36:09.923Z</time></trkpt><trkpt lat="43.2631358" lon="13.0843852"><ele>899.0000000000001</ele><time>2026-04-11T07:36:10.912Z</time></trkpt><trkpt lat="43.2630601" lon="13.0842678"><ele>899.0</ele><time>2026-04-11T07:36:11.929Z</time></trkpt><trkpt lat="43.2629959" lon="13.0841364"><ele>899.0</ele><time>2026-04-11T07:36:12.897Z</time></trkpt><trkpt lat="43.2629263" lon="13.0839986"><ele>898.0</ele><time>2026-04-11T07:36:13.887Z</time></trkpt><trkpt lat="43.2628365" lon="13.0838613"><ele>897.0</ele><time>2026-04-11T07:36:14.88Z</time></trkpt><trkpt lat="43.2627373" lon="13.0837246"><ele>896.0</ele><time>2026-04-11T07:36:15.919Z</time></trkpt><trkpt lat="43.2626363" lon="13.0836103"><ele>895.0</ele><time>2026-04-11T07:36:16.913Z</time></trkpt><trkpt lat="43.2625281" lon="13.0835065"><ele>895.0</ele><time>2026-04-11T07:36:17.916Z</time></trkpt><trkpt lat="43.2624119" lon="13.0834039"><ele>895.0</ele><time>2026-04-11T07:36:18.86Z</time></trkpt><trkpt lat="43.2622861" lon="13.0832976"><ele>895.0</ele><time>2026-04-11T07:36:19.927Z</time></trkpt><trkpt lat="43.2621599" lon="13.083195"><ele>895.0</ele><time>2026-04-11T07:36:20.907Z</time></trkpt><trkpt lat="43.2620302" lon="13.08309"><ele>891.0</ele><time>2026-04-11T07:36:21.917Z</time></trkpt><trkpt lat="43.2618983" lon="13.0829825"><ele>887.0</ele><time>2026-04-11T07:36:22.9Z</time></trkpt><trkpt lat="43.2617657" lon="13.0828746"><ele>883.0</ele><time>2026-04-11T07:36:23.924Z</time></trkpt><trkpt lat="43.2616336" lon="13.0827662"><ele>883.0</ele><time>2026-04-11T07:36:24.914Z</time></trkpt><trkpt lat="43.2614986" lon="13.0826575"><ele>883.0</ele><time>2026-04-11T07:36:25.876Z</time></trkpt><trkpt lat="43.261361" lon="13.08255"><ele>883.0</ele><time>2026-04-11T07:36:26.89Z</time></trkpt><trkpt lat="43.2612195" lon="13.0824471"><ele>878.6666666666666</ele><time>2026-04-11T07:36:27.901Z</time></trkpt><trkpt lat="43.2610793" lon="13.0823456"><ele>874.3333333333333</ele><time>2026-04-11T07:36:28.904Z</time></trkpt><trkpt lat="43.2609347" lon="13.0822443"><ele>870.0</ele><time>2026-04-11T07:36:29.916Z</time></trkpt><trkpt lat="43.2607846" lon="13.08215"><ele>870.0</ele><time>2026-04-11T07:36:30.908Z</time></trkpt><trkpt lat="43.2606315" lon="13.0820648"><ele>870.0</ele><time>2026-04-11T07:36:31.913Z</time></trkpt><trkpt lat="43.2604757" lon="13.0819858"><ele>870.0</ele><time>2026-04-11T07:36:32.847Z</time></trkpt><trkpt lat="43.2603171" lon="13.0819121"><ele>871.6666666666667</ele><time>2026-04-11T07:36:33.903Z</time></trkpt><trkpt lat="43.2601603" lon="13.0818374"><ele>873.3333333333334</ele><time>2026-04-11T07:36:34.914Z</time></trkpt><trkpt lat="43.2600175" lon="13.081762"><ele>875.0</ele><time>2026-04-11T07:36:35.882Z</time></trkpt><trkpt lat="43.2598775" lon="13.0816927"><ele>875.6666666666667</ele><time>2026-04-11T07:36:36.879Z</time></trkpt><trkpt lat="43.2597389" lon="13.0816202"><ele>876.3333333333333</ele><time>2026-04-11T07:36:37.917Z</time></trkpt><trkpt lat="43.2595984" lon="13.081543"><ele>877.0</ele><time>2026-04-11T07:36:38.895Z</time></trkpt><trkpt lat="43.2594547" lon="13.0814609"><ele>872.3333333333333</ele><time>2026-04-11T07:36:39.851Z</time></trkpt><trkpt lat="43.2593096" lon="13.0813833"><ele>867.6666666666667</ele><time>2026-04-11T07:36:40.87Z</time></trkpt><trkpt lat="43.2591642" lon="13.0813044"><ele>863.0</ele><time>2026-04-11T07:36:41.914Z</time></trkpt><trkpt lat="43.2590208" lon="13.0812257"><ele>863.5</ele><time>2026-04-11T07:36:42.888Z</time></trkpt><trkpt lat="43.2588774" lon="13.0811608"><ele>864.0</ele><time>2026-04-11T07:36:43.913Z</time></trkpt><trkpt lat="43.2587428" lon="13.0811168"><ele>864.5</ele><time>2026-04-11T07:36:44.912Z</time></trkpt><trkpt lat="43.2586006" lon="13.0810923"><ele>865.0</ele><time>2026-04-11T07:36:45.907Z</time></trkpt><trkpt lat="43.2584489" lon="13.0810917"><ele>865.0</ele><time>2026-04-11T07:36:46.889Z</time></trkpt><trkpt lat="43.2582955" lon="13.0810993"><ele>865.0</ele><time>2026-04-11T07:36:47.914Z</time></trkpt><trkpt lat="43.2581325" lon="13.081112"><ele>865.0</ele><time>2026-04-11T07:36:48.897Z</time></trkpt><trkpt lat="43.2579754" lon="13.0811281"><ele>863.25</ele><time>2026-04-11T07:36:49.912Z</time></trkpt><trkpt lat="43.257819" lon="13.0811425"><ele>861.5</ele><time>2026-04-11T07:36:50.88Z</time></trkpt><trkpt lat="43.2576742" lon="13.08115"><ele>859.75</ele><time>2026-04-11T07:36:51.904Z</time></trkpt><trkpt lat="43.2575341" lon="13.0811588"><ele>858.0</ele><time>2026-04-11T07:36:52.855Z</time></trkpt><trkpt lat="43.2574003" lon="13.0811681"><ele>855.75</ele><time>2026-04-11T07:36:53.874Z</time></trkpt><trkpt lat="43.2572708" lon="13.0811739"><ele>853.5</ele><time>2026-04-11T07:36:54.864Z</time></trkpt><trkpt lat="43.2571502" lon="13.0811838"><ele>851.25</ele><time>2026-04-11T07:36:55.901Z</time></trkpt><trkpt lat="43.2570391" lon="13.081199"><ele>849.0</ele><time>2026-04-11T07:36:56.903Z</time></trkpt><trkpt lat="43.2569526" lon="13.0812219"><ele>849.0</ele><time>2026-04-11T07:36:57.919Z</time></trkpt><trkpt lat="43.2568792" lon="13.0812367"><ele>849.0</ele><time>2026-04-11T07:36:58.904Z</time></trkpt><trkpt lat="43.2567665" lon="13.0812186"><ele>849.0</ele><time>2026-04-11T07:37:00.882Z</time></trkpt><trkpt lat="43.2567329" lon="13.0810671"><ele>849.0</ele><time>2026-04-11T07:37:02.886Z</time></trkpt><trkpt lat="43.2568061" lon="13.0808954"><ele>849.0</ele><time>2026-04-11T07:37:04.895Z</time></trkpt><trkpt lat="43.2568726" lon="13.0808014"><ele>845.75</ele><time>2026-04-11T07:37:05.926Z</time></trkpt><trkpt lat="43.2569463" lon="13.0807011"><ele>842.5</ele><time>2026-04-11T07:37:06.877Z</time></trkpt><trkpt lat="43.2570324" lon="13.080586"><ele>839.25</ele><time>2026-04-11T07:37:07.917Z</time></trkpt><trkpt lat="43.2571236" lon="13.080476"><ele>836.0</ele><time>2026-04-11T07:37:08.893Z</time></trkpt><trkpt lat="43.2572238" lon="13.0803658"><ele>838.0</ele><time>2026-04-11T07:37:09.906Z</time></trkpt><trkpt lat="43.2573276" lon="13.0802694"><ele>840.0</ele><time>2026-04-11T07:37:10.898Z</time></trkpt><trkpt lat="43.2574359" lon="13.0801876"><ele>842.0</ele><time>2026-04-11T07:37:11.906Z</time></trkpt><trkpt lat="43.2575454" lon="13.0801217"><ele>844.0</ele><time>2026-04-11T07:37:12.891Z</time></trkpt><trkpt lat="43.2576513" lon="13.0800461"><ele>844.0</ele><time>2026-04-11T07:37:13.913Z</time></trkpt><trkpt lat="43.2577545" lon="13.0799563"><ele>844.0</ele><time>2026-04-11T07:37:14.898Z</time></trkpt><trkpt lat="43.2578391" lon="13.0798508"><ele>844.0</ele><time>2026-04-11T07:37:15.898Z</time></trkpt><trkpt lat="43.2579197" lon="13.0797344"><ele>844.0</ele><time>2026-04-11T07:37:16.891Z</time></trkpt><trkpt lat="43.2580003" lon="13.0796395"><ele>840.8000000000001</ele><time>2026-04-11T07:37:17.888Z</time></trkpt><trkpt lat="43.2580883" lon="13.0795817"><ele>837.6</ele><time>2026-04-11T07:37:18.903Z</time></trkpt><trkpt lat="43.2581786" lon="13.0795386"><ele>834.4</ele><time>2026-04-11T07:37:19.902Z</time></trkpt><trkpt lat="43.2582704" lon="13.0794911"><ele>831.2</ele><time>2026-04-11T07:37:20.89Z</time></trkpt><trkpt lat="43.2583666" lon="13.0794421"><ele>828.0</ele><time>2026-04-11T07:37:21.903Z</time></trkpt><trkpt lat="43.2584657" lon="13.0793898"><ele>828.0</ele><time>2026-04-11T07:37:22.907Z</time></trkpt><trkpt lat="43.2585648" lon="13.0793325"><ele>828.0</ele><time>2026-04-11T07:37:23.896Z</time></trkpt><trkpt lat="43.2586594" lon="13.0792728"><ele>828.0</ele><time>2026-04-11T07:37:24.926Z</time></trkpt><trkpt lat="43.258758" lon="13.0792179"><ele>828.0</ele><time>2026-04-11T07:37:25.896Z</time></trkpt><trkpt lat="43.2588566" lon="13.0791629"><ele>828.0</ele><time>2026-04-11T07:37:26.912Z</time></trkpt><trkpt lat="43.2589622" lon="13.0791006"><ele>824.25</ele><time>2026-04-11T07:37:27.917Z</time></trkpt><trkpt lat="43.2590682" lon="13.0790328"><ele>820.5</ele><time>2026-04-11T07:37:28.907Z</time></trkpt><trkpt lat="43.2591728" lon="13.0789728"><ele>816.75</ele><time>2026-04-11T07:37:29.895Z</time></trkpt><trkpt lat="43.2592761" lon="13.0789277"><ele>813.0</ele><time>2026-04-11T07:37:30.889Z</time></trkpt><trkpt lat="43.2593894" lon="13.0788945"><ele>813.0</ele><time>2026-04-11T07:37:31.934Z</time></trkpt><trkpt lat="43.2595078" lon="13.0788586"><ele>813.0</ele><time>2026-04-11T07:37:32.903Z</time></trkpt><trkpt lat="43.2596223" lon="13.0788063"><ele>813.0</ele><time>2026-04-11T07:37:33.897Z</time></trkpt><trkpt lat="43.2597319" lon="13.0787519"><ele>813.0</ele><time>2026-04-11T07:37:34.911Z</time></trkpt><trkpt lat="43.2598357" lon="13.0786956"><ele>813.0</ele><time>2026-04-11T07:37:35.9Z</time></trkpt><trkpt lat="43.2599383" lon="13.0786496"><ele>813.0</ele><time>2026-04-11T07:37:36.892Z</time></trkpt><trkpt lat="43.260043" lon="13.0786149"><ele>813.0</ele><time>2026-04-11T07:37:37.9Z</time></trkpt><trkpt lat="43.2601452" lon="13.0785786"><ele>813.0</ele><time>2026-04-11T07:37:38.899Z</time></trkpt><trkpt lat="43.2602407" lon="13.0785271"><ele>813.0</ele><time>2026-04-11T07:37:39.85Z</time></trkpt><trkpt lat="43.2603254" lon="13.0784696"><ele>813.0</ele><time>2026-04-11T07:37:40.85Z</time></trkpt><trkpt lat="43.2604099" lon="13.0784049"><ele>813.0</ele><time>2026-04-11T07:37:41.892Z</time></trkpt><trkpt lat="43.2604942" lon="13.078345"><ele>813.0</ele><time>2026-04-11T07:37:42.878Z</time></trkpt><trkpt lat="43.2605756" lon="13.0782811"><ele>813.0</ele><time>2026-04-11T07:37:43.868Z</time></trkpt><trkpt lat="43.2606499" lon="13.0782238"><ele>813.0</ele><time>2026-04-11T07:37:44.874Z</time></trkpt><trkpt lat="43.2607165" lon="13.0781748"><ele>813.0</ele><time>2026-04-11T07:37:45.867Z</time></trkpt><trkpt lat="43.2607685" lon="13.07811"><ele>810.5999999999999</ele><time>2026-04-11T07:37:46.89Z</time></trkpt><trkpt lat="43.2607784" lon="13.0779443"><ele>808.1999999999999</ele><time>2026-04-11T07:37:48.876Z</time></trkpt><trkpt lat="43.2607379" lon="13.0778762"><ele>805.8</ele><time>2026-04-11T07:37:49.866Z</time></trkpt><trkpt lat="43.2606735" lon="13.0778235"><ele>803.4</ele><time>2026-04-11T07:37:50.888Z</time></trkpt><trkpt lat="43.2605757" lon="13.0777913"><ele>801.0</ele><time>2026-04-11T07:37:51.884Z</time></trkpt><trkpt lat="43.2604691" lon="13.0777607"><ele>800.0</ele><time>2026-04-11T07:37:52.894Z</time></trkpt><trkpt lat="43.2603557" lon="13.0777339"><ele>799.0</ele><time>2026-04-11T07:37:53.901Z</time></trkpt><trkpt lat="43.2602413" lon="13.0777165"><ele>798.0</ele><time>2026-04-11T07:37:54.898Z</time></trkpt><trkpt lat="43.2601254" lon="13.0777206"><ele>797.0</ele><time>2026-04-11T07:37:55.862Z</time></trkpt><trkpt lat="43.2600145" lon="13.0777428"><ele>797.0</ele><time>2026-04-11T07:37:56.914Z</time></trkpt><trkpt lat="43.2599076" lon="13.0777641"><ele>797.0</ele><time>2026-04-11T07:37:57.898Z</time></trkpt><trkpt lat="43.2598017" lon="13.0777866"><ele>797.0</ele><time>2026-04-11T07:37:58.883Z</time></trkpt><trkpt lat="43.2597024" lon="13.0778179"><ele>797.0</ele><time>2026-04-11T07:37:59.912Z</time></trkpt><trkpt lat="43.2596051" lon="13.0778683"><ele>797.0</ele><time>2026-04-11T07:38:00.912Z</time></trkpt><trkpt lat="43.2595135" lon="13.0779264"><ele>796.4000000000001</ele><time>2026-04-11T07:38:01.897Z</time></trkpt><trkpt lat="43.2594243" lon="13.0779732"><ele>795.8000000000001</ele><time>2026-04-11T07:38:02.896Z</time></trkpt><trkpt lat="43.2593358" lon="13.077994"><ele>795.2</ele><time>2026-04-11T07:38:03.892Z</time></trkpt><trkpt lat="43.2592436" lon="13.0779557"><ele>794.6</ele><time>2026-04-11T07:38:04.9Z</time></trkpt><trkpt lat="43.2591718" lon="13.0778855"><ele>794.0</ele><time>2026-04-11T07:38:05.898Z</time></trkpt><trkpt lat="43.2591017" lon="13.0778025"><ele>794.0000000000001</ele><time>2026-04-11T07:38:06.888Z</time></trkpt><trkpt lat="43.2590236" lon="13.0777265"><ele>794.0</ele><time>2026-04-11T07:38:07.89Z</time></trkpt><trkpt lat="43.2589417" lon="13.0776546"><ele>794.0</ele><time>2026-04-11T07:38:08.932Z</time></trkpt><trkpt lat="43.2588634" lon="13.0775984"><ele>794.0</ele><time>2026-04-11T07:38:09.897Z</time></trkpt><trkpt lat="43.2587848" lon="13.0775491"><ele>794.0000000000001</ele><time>2026-04-11T07:38:10.908Z</time></trkpt><trkpt lat="43.2587147" lon="13.0775007"><ele>794.0</ele><time>2026-04-11T07:38:11.908Z</time></trkpt><trkpt lat="43.2586439" lon="13.0774542"><ele>791.2</ele><time>2026-04-11T07:38:12.912Z</time></trkpt><trkpt lat="43.2585716" lon="13.0774034"><ele>788.4000000000001</ele><time>2026-04-11T07:38:13.906Z</time></trkpt><trkpt lat="43.2584921" lon="13.0773438"><ele>785.6</ele><time>2026-04-11T07:38:14.851Z</time></trkpt><trkpt lat="43.2584063" lon="13.0772933"><ele>782.8</ele><time>2026-04-11T07:38:15.915Z</time></trkpt><trkpt lat="43.2583103" lon="13.0772576"><ele>780.0</ele><time>2026-04-11T07:38:16.899Z</time></trkpt><trkpt lat="43.2582084" lon="13.0772327"><ele>779.6</ele><time>2026-04-11T07:38:17.91Z</time></trkpt><trkpt lat="43.2581144" lon="13.0772135"><ele>779.2</ele><time>2026-04-11T07:38:18.874Z</time></trkpt><trkpt lat="43.2580172" lon="13.0771895"><ele>778.8</ele><time>2026-04-11T07:38:19.901Z</time></trkpt><trkpt lat="43.2579182" lon="13.0771517"><ele>778.4</ele><time>2026-04-11T07:38:20.891Z</time></trkpt><trkpt lat="43.2578139" lon="13.0771012"><ele>778.0</ele><time>2026-04-11T07:38:21.888Z</time></trkpt><trkpt lat="43.2577035" lon="13.0770443"><ele>778.0</ele><time>2026-04-11T07:38:22.916Z</time></trkpt><trkpt lat="43.2575861" lon="13.0769891"><ele>778.0</ele><time>2026-04-11T07:38:23.897Z</time></trkpt><trkpt lat="43.2574613" lon="13.0769396"><ele>778.0</ele><time>2026-04-11T07:38:24.904Z</time></trkpt><trkpt lat="43.2573341" lon="13.0769008"><ele>778.0</ele><time>2026-04-11T07:38:25.853Z</time></trkpt><trkpt lat="43.2572101" lon="13.0768724"><ele>777.0</ele><time>2026-04-11T07:38:26.918Z</time></trkpt><trkpt lat="43.2570896" lon="13.0768518"><ele>776.0</ele><time>2026-04-11T07:38:27.912Z</time></trkpt><trkpt lat="43.2569773" lon="13.0768416"><ele>775.0</ele><time>2026-04-11T07:38:28.871Z</time></trkpt><trkpt lat="43.2568602" lon="13.0768354"><ele>774.0</ele><time>2026-04-11T07:38:29.85Z</time></trkpt><trkpt lat="43.256749" lon="13.0768294"><ele>774.0</ele><time>2026-04-11T07:38:30.899Z</time></trkpt><trkpt lat="43.2566327" lon="13.0768135"><ele>774.0</ele><time>2026-04-11T07:38:31.905Z</time></trkpt><trkpt lat="43.2565214" lon="13.0767939"><ele>774.0</ele><time>2026-04-11T07:38:32.926Z</time></trkpt><trkpt lat="43.2564096" lon="13.0767782"><ele>774.0</ele><time>2026-04-11T07:38:33.899Z</time></trkpt><trkpt lat="43.2562957" lon="13.0767563"><ele>772.4000000000001</ele><time>2026-04-11T07:38:34.901Z</time></trkpt><trkpt lat="43.2561818" lon="13.0767366"><ele>770.8</ele><time>2026-04-11T07:38:35.918Z</time></trkpt><trkpt lat="43.2560725" lon="13.0767177"><ele>769.2</ele><time>2026-04-11T07:38:36.901Z</time></trkpt><trkpt lat="43.255967" lon="13.0766951"><ele>767.5999999999999</ele><time>2026-04-11T07:38:37.9Z</time></trkpt><trkpt lat="43.2558651" lon="13.0766698"><ele>766.0</ele><time>2026-04-11T07:38:38.916Z</time></trkpt><trkpt lat="43.2557662" lon="13.0766378"><ele>763.0</ele><time>2026-04-11T07:38:39.873Z</time></trkpt><trkpt lat="43.2556702" lon="13.0766008"><ele>760.0</ele><time>2026-04-11T07:38:40.847Z</time></trkpt><trkpt lat="43.2555746" lon="13.0765567"><ele>757.0</ele><time>2026-04-11T07:38:41.924Z</time></trkpt><trkpt lat="43.2554799" lon="13.0765133"><ele>754.0</ele><time>2026-04-11T07:38:42.886Z</time></trkpt><trkpt lat="43.2553802" lon="13.0764784"><ele>751.0</ele><time>2026-04-11T07:38:43.945Z</time></trkpt><trkpt lat="43.2551737" lon="13.0764621"><ele>751.0</ele><time>2026-04-11T07:38:45.899Z</time></trkpt><trkpt lat="43.2550698" lon="13.0764996"><ele>751.0</ele><time>2026-04-11T07:38:46.902Z</time></trkpt><trkpt lat="43.2549668" lon="13.0765522"><ele>751.0</ele><time>2026-04-11T07:38:47.866Z</time></trkpt><trkpt lat="43.254871" lon="13.0766231"><ele>751.0</ele><time>2026-04-11T07:38:48.91Z</time></trkpt><trkpt lat="43.2547825" lon="13.0767117"><ele>751.0</ele><time>2026-04-11T07:38:49.893Z</time></trkpt><trkpt lat="43.254698" lon="13.0768019"><ele>751.0</ele><time>2026-04-11T07:38:50.913Z</time></trkpt><trkpt lat="43.2546164" lon="13.0768863"><ele>751.0</ele><time>2026-04-11T07:38:51.886Z</time></trkpt><trkpt lat="43.2545267" lon="13.0769718"><ele>751.0</ele><time>2026-04-11T07:38:52.903Z</time></trkpt><trkpt lat="43.254434" lon="13.0770567"><ele>751.0</ele><time>2026-04-11T07:38:53.917Z</time></trkpt><trkpt lat="43.2543384" lon="13.0771383"><ele>751.0</ele><time>2026-04-11T07:38:54.88Z</time></trkpt><trkpt lat="43.2542489" lon="13.0772164"><ele>751.0</ele><time>2026-04-11T07:38:55.9Z</time></trkpt><trkpt lat="43.2541657" lon="13.077294"><ele>751.0</ele><time>2026-04-11T07:38:56.907Z</time></trkpt><trkpt lat="43.2540844" lon="13.0773737"><ele>751.0</ele><time>2026-04-11T07:38:57.903Z</time></trkpt><trkpt lat="43.2540046" lon="13.0774543"><ele>751.0</ele><time>2026-04-11T07:38:58.896Z</time></trkpt><trkpt lat="43.2539204" lon="13.0775391"><ele>751.0</ele><time>2026-04-11T07:38:59.895Z</time></trkpt><trkpt lat="43.2538295" lon="13.0776137"><ele>750.1999999999999</ele><time>2026-04-11T07:39:00.906Z</time></trkpt><trkpt lat="43.2537358" lon="13.0776742"><ele>749.4</ele><time>2026-04-11T07:39:01.929Z</time></trkpt><trkpt lat="43.2536342" lon="13.0777227"><ele>748.6</ele><time>2026-04-11T07:39:02.923Z</time></trkpt><trkpt lat="43.2535263" lon="13.0777592"><ele>747.8</ele><time>2026-04-11T07:39:03.913Z</time></trkpt><trkpt lat="43.2534123" lon="13.0777768"><ele>747.0</ele><time>2026-04-11T07:39:04.913Z</time></trkpt><trkpt lat="43.2532952" lon="13.0777782"><ele>747.0</ele><time>2026-04-11T07:39:05.904Z</time></trkpt><trkpt lat="43.2531797" lon="13.0777715"><ele>747.0</ele><time>2026-04-11T07:39:06.911Z</time></trkpt><trkpt lat="43.2530667" lon="13.0777659"><ele>747.0</ele><time>2026-04-11T07:39:07.9Z</time></trkpt><trkpt lat="43.2529546" lon="13.0777639"><ele>747.0</ele><time>2026-04-11T07:39:08.852Z</time></trkpt><trkpt lat="43.2528424" lon="13.0777592"><ele>746.4000000000001</ele><time>2026-04-11T07:39:09.886Z</time></trkpt><trkpt lat="43.25273" lon="13.0777545"><ele>745.8000000000001</ele><time>2026-04-11T07:39:10.893Z</time></trkpt><trkpt lat="43.2526269" lon="13.0777451"><ele>745.2</ele><time>2026-04-11T07:39:11.904Z</time></trkpt><trkpt lat="43.2525248" lon="13.0777268"><ele>744.6</ele><time>2026-04-11T07:39:12.892Z</time></trkpt><trkpt lat="43.2524245" lon="13.0776946"><ele>744.0</ele><time>2026-04-11T07:39:13.915Z</time></trkpt><trkpt lat="43.2523255" lon="13.0776519"><ele>742.6</ele><time>2026-04-11T07:39:14.911Z</time></trkpt><trkpt lat="43.2522291" lon="13.07761"><ele>741.2</ele><time>2026-04-11T07:39:15.957Z</time></trkpt><trkpt lat="43.2521358" lon="13.0775736"><ele>739.8000000000001</ele><time>2026-04-11T07:39:16.907Z</time></trkpt><trkpt lat="43.2520483" lon="13.077529"><ele>738.4000000000001</ele><time>2026-04-11T07:39:17.888Z</time></trkpt><trkpt lat="43.2519665" lon="13.0774817"><ele>737.0</ele><time>2026-04-11T07:39:18.895Z</time></trkpt><trkpt lat="43.251887" lon="13.0774303"><ele>735.0</ele><time>2026-04-11T07:39:19.908Z</time></trkpt><trkpt lat="43.2518153" lon="13.0773701"><ele>733.0</ele><time>2026-04-11T07:39:20.905Z</time></trkpt><trkpt lat="43.2517533" lon="13.077289"><ele>731.0</ele><time>2026-04-11T07:39:21.888Z</time></trkpt><trkpt lat="43.2517044" lon="13.0771832"><ele>729.0</ele><time>2026-04-11T07:39:22.895Z</time></trkpt><trkpt lat="43.2516886" lon="13.0770577"><ele>727.0</ele><time>2026-04-11T07:39:23.92Z</time></trkpt><trkpt lat="43.2516969" lon="13.0769347"><ele>725.0</ele><time>2026-04-11T07:39:24.909Z</time></trkpt><trkpt lat="43.2517247" lon="13.0768162"><ele>725.0</ele><time>2026-04-11T07:39:25.908Z</time></trkpt><trkpt lat="43.2517656" lon="13.0766923"><ele>725.0</ele><time>2026-04-11T07:39:26.877Z</time></trkpt><trkpt lat="43.2518046" lon="13.0765465"><ele>725.0</ele><time>2026-04-11T07:39:27.921Z</time></trkpt><trkpt lat="43.2518487" lon="13.0763936"><ele>725.0</ele><time>2026-04-11T07:39:28.916Z</time></trkpt><trkpt lat="43.2518909" lon="13.0762292"><ele>722.75</ele><time>2026-04-11T07:39:29.904Z</time></trkpt><trkpt lat="43.2519285" lon="13.0760583"><ele>720.5</ele><time>2026-04-11T07:39:30.9Z</time></trkpt><trkpt lat="43.2519633" lon="13.0758858"><ele>718.25</ele><time>2026-04-11T07:39:31.901Z</time></trkpt><trkpt lat="43.252" lon="13.075718"><ele>716.0</ele><time>2026-04-11T07:39:32.864Z</time></trkpt><trkpt lat="43.2520336" lon="13.0755544"><ele>713.8</ele><time>2026-04-11T07:39:33.861Z</time></trkpt><trkpt lat="43.2520603" lon="13.075395"><ele>711.5999999999999</ele><time>2026-04-11T07:39:34.875Z</time></trkpt><trkpt lat="43.252089" lon="13.0752411"><ele>709.4</ele><time>2026-04-11T07:39:35.863Z</time></trkpt><trkpt lat="43.252124" lon="13.0750973"><ele>707.2</ele><time>2026-04-11T07:39:36.89Z</time></trkpt><trkpt lat="43.2521765" lon="13.074974"><ele>705.0</ele><time>2026-04-11T07:39:37.918Z</time></trkpt><trkpt lat="43.2522395" lon="13.0748578"><ele>705.0</ele><time>2026-04-11T07:39:38.889Z</time></trkpt><trkpt lat="43.2523079" lon="13.0747531"><ele>705.0</ele><time>2026-04-11T07:39:39.892Z</time></trkpt><trkpt lat="43.2523817" lon="13.0746459"><ele>705.0</ele><time>2026-04-11T07:39:40.85Z</time></trkpt><trkpt lat="43.2524619" lon="13.0745428"><ele>705.0</ele><time>2026-04-11T07:39:41.913Z</time></trkpt><trkpt lat="43.2525478" lon="13.0744426"><ele>705.0</ele><time>2026-04-11T07:39:42.893Z</time></trkpt><trkpt lat="43.2526341" lon="13.0743404"><ele>705.0</ele><time>2026-04-11T07:39:43.916Z</time></trkpt><trkpt lat="43.2527155" lon="13.0742415"><ele>705.0</ele><time>2026-04-11T07:39:44.851Z</time></trkpt><trkpt lat="43.2527956" lon="13.0741419"><ele>705.0</ele><time>2026-04-11T07:39:45.904Z</time></trkpt><trkpt lat="43.2528756" lon="13.074042"><ele>705.0</ele><time>2026-04-11T07:39:46.91Z</time></trkpt><trkpt lat="43.2529578" lon="13.0739413"><ele>705.0</ele><time>2026-04-11T07:39:47.913Z</time></trkpt><trkpt lat="43.25304" lon="13.0738387"><ele>704.0</ele><time>2026-04-11T07:39:48.887Z</time></trkpt><trkpt lat="43.2531199" lon="13.0737334"><ele>703.0</ele><time>2026-04-11T07:39:49.882Z</time></trkpt><trkpt lat="43.2532035" lon="13.0736162"><ele>702.0</ele><time>2026-04-11T07:39:50.894Z</time></trkpt><trkpt lat="43.2532922" lon="13.0734964"><ele>701.0</ele><time>2026-04-11T07:39:51.914Z</time></trkpt><trkpt lat="43.2533832" lon="13.0733814"><ele>701.0</ele><time>2026-04-11T07:39:52.88Z</time></trkpt><trkpt lat="43.2534791" lon="13.0732733"><ele>701.0</ele><time>2026-04-11T07:39:53.925Z</time></trkpt><trkpt lat="43.253576" lon="13.0731693"><ele>701.0</ele><time>2026-04-11T07:39:54.889Z</time></trkpt><trkpt lat="43.2536661" lon="13.0730838"><ele>701.0</ele><time>2026-04-11T07:39:55.915Z</time></trkpt><trkpt lat="43.2537582" lon="13.0730044"><ele>699.1999999999999</ele><time>2026-04-11T07:39:56.9Z</time></trkpt><trkpt lat="43.2538521" lon="13.0729285"><ele>697.4</ele><time>2026-04-11T07:39:57.898Z</time></trkpt><trkpt lat="43.2539463" lon="13.0728634"><ele>695.6</ele><time>2026-04-11T07:39:58.901Z</time></trkpt><trkpt lat="43.2540406" lon="13.0727978"><ele>693.8</ele><time>2026-04-11T07:39:59.91Z</time></trkpt><trkpt lat="43.2541353" lon="13.0727325"><ele>692.0</ele><time>2026-04-11T07:40:00.866Z</time></trkpt><trkpt lat="43.2542295" lon="13.072673"><ele>692.0</ele><time>2026-04-11T07:40:01.91Z</time></trkpt><trkpt lat="43.2543222" lon="13.0726257"><ele>692.0</ele><time>2026-04-11T07:40:02.91Z</time></trkpt><trkpt lat="43.254409" lon="13.0725864"><ele>692.0</ele><time>2026-04-11T07:40:03.917Z</time></trkpt><trkpt lat="43.2544905" lon="13.0725473"><ele>692.0</ele><time>2026-04-11T07:40:04.904Z</time></trkpt><trkpt lat="43.2545713" lon="13.0725215"><ele>692.0</ele><time>2026-04-11T07:40:05.909Z</time></trkpt><trkpt lat="43.2546428" lon="13.0724879"><ele>692.0</ele><time>2026-04-11T07:40:06.894Z</time></trkpt><trkpt lat="43.2547024" lon="13.0724368"><ele>689.6666666666666</ele><time>2026-04-11T07:40:07.928Z</time></trkpt><trkpt lat="43.2547355" lon="13.0722895"><ele>687.3333333333333</ele><time>2026-04-11T07:40:09.92Z</time></trkpt><trkpt lat="43.2546961" lon="13.0722206"><ele>685.0</ele><time>2026-04-11T07:40:10.911Z</time></trkpt><trkpt lat="43.2546335" lon="13.0721703"><ele>682.6666666666666</ele><time>2026-04-11T07:40:11.9Z</time></trkpt><trkpt lat="43.2545612" lon="13.0721491"><ele>680.3333333333334</ele><time>2026-04-11T07:40:12.893Z</time></trkpt><trkpt lat="43.2544773" lon="13.0721587"><ele>678.0</ele><time>2026-04-11T07:40:13.896Z</time></trkpt><trkpt lat="43.2543896" lon="13.0721816"><ele>678.0</ele><time>2026-04-11T07:40:14.888Z</time></trkpt><trkpt lat="43.2542875" lon="13.0721895"><ele>678.0</ele><time>2026-04-11T07:40:15.854Z</time></trkpt><trkpt lat="43.254189" lon="13.0721948"><ele>678.0</ele><time>2026-04-11T07:40:16.892Z</time></trkpt><trkpt lat="43.2540904" lon="13.0721958"><ele>678.0</ele><time>2026-04-11T07:40:17.866Z</time></trkpt><trkpt lat="43.2539946" lon="13.0721799"><ele>678.0</ele><time>2026-04-11T07:40:18.869Z</time></trkpt><trkpt lat="43.2539013" lon="13.0721608"><ele>677.6666666666666</ele><time>2026-04-11T07:40:19.891Z</time></trkpt><trkpt lat="43.2538101" lon="13.072133"><ele>677.3333333333334</ele><time>2026-04-11T07:40:20.852Z</time></trkpt><trkpt lat="43.2537249" lon="13.0721009"><ele>677.0</ele><time>2026-04-11T07:40:21.899Z</time></trkpt><trkpt lat="43.253643" lon="13.0720686"><ele>676.6666666666667</ele><time>2026-04-11T07:40:22.896Z</time></trkpt><trkpt lat="43.2535621" lon="13.0720372"><ele>676.3333333333334</ele><time>2026-04-11T07:40:23.984Z</time></trkpt><trkpt lat="43.2534837" lon="13.0720038"><ele>676.0</ele><time>2026-04-11T07:40:24.917Z</time></trkpt><trkpt lat="43.2534069" lon="13.071971"><ele>676.0</ele><time>2026-04-11T07:40:25.895Z</time></trkpt><trkpt lat="43.2533282" lon="13.0719518"><ele>676.0</ele><time>2026-04-11T07:40:26.908Z</time></trkpt><trkpt lat="43.2532544" lon="13.0719443"><ele>676.0</ele><time>2026-04-11T07:40:27.907Z</time></trkpt><trkpt lat="43.2531842" lon="13.0719548"><ele>676.0</ele><time>2026-04-11T07:40:28.893Z</time></trkpt><trkpt lat="43.2531119" lon="13.0719798"><ele>676.0</ele><time>2026-04-11T07:40:29.865Z</time></trkpt><trkpt lat="43.2530398" lon="13.0720237"><ele>676.0</ele><time>2026-04-11T07:40:30.863Z</time></trkpt><trkpt lat="43.2529681" lon="13.0720738"><ele>675.0</ele><time>2026-04-11T07:40:31.859Z</time></trkpt><trkpt lat="43.2528974" lon="13.0721321"><ele>674.0</ele><time>2026-04-11T07:40:32.879Z</time></trkpt><trkpt lat="43.2528325" lon="13.0722064"><ele>673.0</ele><time>2026-04-11T07:40:33.889Z</time></trkpt><trkpt lat="43.2527768" lon="13.0722982"><ele>672.0</ele><time>2026-04-11T07:40:34.885Z</time></trkpt><trkpt lat="43.2527303" lon="13.072397"><ele>671.0</ele><time>2026-04-11T07:40:35.909Z</time></trkpt><trkpt lat="43.2526868" lon="13.0724974"><ele>670.0</ele><time>2026-04-11T07:40:36.872Z</time></trkpt><trkpt lat="43.2526468" lon="13.0725993"><ele>670.0</ele><time>2026-04-11T07:40:37.904Z</time></trkpt><trkpt lat="43.2526051" lon="13.0726878"><ele>670.0</ele><time>2026-04-11T07:40:38.905Z</time></trkpt><trkpt lat="43.2525513" lon="13.0727609"><ele>670.0</ele><time>2026-04-11T07:40:39.88Z</time></trkpt><trkpt lat="43.2524828" lon="13.0728058"><ele>670.0</ele><time>2026-04-11T07:40:40.91Z</time></trkpt><trkpt lat="43.2524002" lon="13.0728344"><ele>670.0</ele><time>2026-04-11T07:40:41.909Z</time></trkpt><trkpt lat="43.2522985" lon="13.072863"><ele>670.0</ele><time>2026-04-11T07:40:42.858Z</time></trkpt><trkpt lat="43.252204" lon="13.0729069"><ele>663.6</ele><time>2026-04-11T07:40:43.901Z</time></trkpt><trkpt lat="43.2521127" lon="13.0729736"><ele>657.2</ele><time>2026-04-11T07:40:44.897Z</time></trkpt><trkpt lat="43.2520211" lon="13.073053"><ele>650.8</ele><time>2026-04-11T07:40:45.903Z</time></trkpt><trkpt lat="43.2519212" lon="13.0731219"><ele>644.4</ele><time>2026-04-11T07:40:46.895Z</time></trkpt><trkpt lat="43.2518098" lon="13.0731738"><ele>638.0</ele><time>2026-04-11T07:40:47.91Z</time></trkpt><trkpt lat="43.2516857" lon="13.0732115"><ele>638.0</ele><time>2026-04-11T07:40:48.895Z</time></trkpt><trkpt lat="43.2515572" lon="13.0732398"><ele>638.0</ele><time>2026-04-11T07:40:49.898Z</time></trkpt><trkpt lat="43.2514179" lon="13.0732795"><ele>638.0</ele><time>2026-04-11T07:40:50.888Z</time></trkpt><trkpt lat="43.2512799" lon="13.0733336"><ele>638.0</ele><time>2026-04-11T07:40:51.91Z</time></trkpt><trkpt lat="43.2511458" lon="13.0734008"><ele>640.0</ele><time>2026-04-11T07:40:52.874Z</time></trkpt><trkpt lat="43.2510173" lon="13.07347"><ele>642.0</ele><time>2026-04-11T07:40:53.894Z</time></trkpt><trkpt lat="43.2508981" lon="13.0735565"><ele>644.0</ele><time>2026-04-11T07:40:54.899Z</time></trkpt><trkpt lat="43.2507887" lon="13.0736457"><ele>646.0</ele><time>2026-04-11T07:40:55.876Z</time></trkpt><trkpt lat="43.2506848" lon="13.0737199"><ele>642.0</ele><time>2026-04-11T07:40:56.905Z</time></trkpt><trkpt lat="43.2505857" lon="13.0737855"><ele>638.0</ele><time>2026-04-11T07:40:57.914Z</time></trkpt><trkpt lat="43.2504922" lon="13.0738514"><ele>634.0</ele><time>2026-04-11T07:40:58.895Z</time></trkpt><trkpt lat="43.2503999" lon="13.0739313"><ele>630.0</ele><time>2026-04-11T07:40:59.909Z</time></trkpt><trkpt lat="43.250309" lon="13.0740142"><ele>626.0</ele><time>2026-04-11T07:41:00.896Z</time></trkpt><trkpt lat="43.250217" lon="13.0740915"><ele>625.4</ele><time>2026-04-11T07:41:01.901Z</time></trkpt><trkpt lat="43.2501239" lon="13.0741521"><ele>624.8</ele><time>2026-04-11T07:41:02.894Z</time></trkpt><trkpt lat="43.2500255" lon="13.0742085"><ele>624.1999999999999</ele><time>2026-04-11T07:41:03.871Z</time></trkpt><trkpt lat="43.2499248" lon="13.0742569"><ele>623.6</ele><time>2026-04-11T07:41:04.912Z</time></trkpt><trkpt lat="43.2498227" lon="13.0743082"><ele>623.0</ele><time>2026-04-11T07:41:05.916Z</time></trkpt><trkpt lat="43.2497162" lon="13.0743734"><ele>623.0</ele><time>2026-04-11T07:41:06.906Z</time></trkpt><trkpt lat="43.2496121" lon="13.0744496"><ele>623.0</ele><time>2026-04-11T07:41:07.878Z</time></trkpt><trkpt lat="43.2495073" lon="13.0745343"><ele>623.0</ele><time>2026-04-11T07:41:08.901Z</time></trkpt><trkpt lat="43.2494059" lon="13.0746215"><ele>623.0</ele><time>2026-04-11T07:41:09.908Z</time></trkpt><trkpt lat="43.2493217" lon="13.0747102"><ele>623.0</ele><time>2026-04-11T07:41:10.883Z</time></trkpt><trkpt lat="43.2492545" lon="13.0747764"><ele>623.0</ele><time>2026-04-11T07:41:11.908Z</time></trkpt><trkpt lat="43.2491415" lon="13.0748215"><ele>623.0</ele><time>2026-04-11T07:41:13.921Z</time></trkpt><trkpt lat="43.2490865" lon="13.0746996"><ele>623.0</ele><time>2026-04-11T07:41:15.906Z</time></trkpt><trkpt lat="43.2491054" lon="13.0746067"><ele>623.0</ele><time>2026-04-11T07:41:16.888Z</time></trkpt><trkpt lat="43.2491573" lon="13.0745392"><ele>623.0</ele><time>2026-04-11T07:41:17.902Z</time></trkpt><trkpt lat="43.2492275" lon="13.0744805"><ele>623.0</ele><time>2026-04-11T07:41:18.879Z</time></trkpt><trkpt lat="43.2493121" lon="13.0744089"><ele>623.0</ele><time>2026-04-11T07:41:19.907Z</time></trkpt><trkpt lat="43.2493986" lon="13.0743187"><ele>623.0</ele><time>2026-04-11T07:41:20.91Z</time></trkpt><trkpt lat="43.2494742" lon="13.0742155"><ele>623.0</ele><time>2026-04-11T07:41:21.902Z</time></trkpt><trkpt lat="43.2495445" lon="13.0740983"><ele>623.0</ele><time>2026-04-11T07:41:22.896Z</time></trkpt><trkpt lat="43.2496162" lon="13.0739725"><ele>623.75</ele><time>2026-04-11T07:41:23.91Z</time></trkpt><trkpt lat="43.2496867" lon="13.0738286"><ele>624.5</ele><time>2026-04-11T07:41:24.888Z</time></trkpt><trkpt lat="43.2497654" lon="13.073685"><ele>625.25</ele><time>2026-04-11T07:41:25.891Z</time></trkpt><trkpt lat="43.2498436" lon="13.0735416"><ele>626.0</ele><time>2026-04-11T07:41:26.911Z</time></trkpt><trkpt lat="43.2499067" lon="13.073398"><ele>622.4</ele><time>2026-04-11T07:41:27.889Z</time></trkpt><trkpt lat="43.2499573" lon="13.0732527"><ele>618.8</ele><time>2026-04-11T07:41:28.882Z</time></trkpt><trkpt lat="43.2500012" lon="13.0731178"><ele>615.1999999999999</ele><time>2026-04-11T07:41:29.901Z</time></trkpt><trkpt lat="43.2500363" lon="13.0729919"><ele>611.6</ele><time>2026-04-11T07:41:30.899Z</time></trkpt><trkpt lat="43.2500666" lon="13.0728821"><ele>608.0</ele><time>2026-04-11T07:41:31.849Z</time></trkpt><trkpt lat="43.2500861" lon="13.0727755"><ele>608.0</ele><time>2026-04-11T07:41:32.92Z</time></trkpt><trkpt lat="43.2500828" lon="13.0726785"><ele>608.0</ele><time>2026-04-11T07:41:33.98Z</time></trkpt><trkpt lat="43.2500552" lon="13.0725907"><ele>608.0</ele><time>2026-04-11T07:41:34.906Z</time></trkpt><trkpt lat="43.2499507" lon="13.0725223"><ele>608.0</ele><time>2026-04-11T07:41:36.91Z</time></trkpt><trkpt lat="43.2498528" lon="13.0726009"><ele>608.0</ele><time>2026-04-11T07:41:38.852Z</time></trkpt><trkpt lat="43.2498325" lon="13.072685"><ele>608.0</ele><time>2026-04-11T07:41:39.896Z</time></trkpt><trkpt lat="43.2498297" lon="13.0727831"><ele>608.0</ele><time>2026-04-11T07:41:40.85Z</time></trkpt><trkpt lat="43.24981" lon="13.0729088"><ele>608.0</ele><time>2026-04-11T07:41:41.883Z</time></trkpt><trkpt lat="43.2497732" lon="13.07302"><ele>608.0</ele><time>2026-04-11T07:41:42.884Z</time></trkpt><trkpt lat="43.2497129" lon="13.0731057"><ele>608.0</ele><time>2026-04-11T07:41:43.908Z</time></trkpt><trkpt lat="43.249639" lon="13.0731554"><ele>608.0</ele><time>2026-04-11T07:41:44.887Z</time></trkpt><trkpt lat="43.2495578" lon="13.0732021"><ele>608.0</ele><time>2026-04-11T07:41:45.908Z</time></trkpt><trkpt lat="43.2494824" lon="13.0732629"><ele>604.4</ele><time>2026-04-11T07:41:46.897Z</time></trkpt><trkpt lat="43.2494269" lon="13.0733592"><ele>600.8</ele><time>2026-04-11T07:41:47.899Z</time></trkpt><trkpt lat="43.2493869" lon="13.0734766"><ele>597.2</ele><time>2026-04-11T07:41:48.897Z</time></trkpt><trkpt lat="43.2493557" lon="13.0736016"><ele>593.6</ele><time>2026-04-11T07:41:49.904Z</time></trkpt><trkpt lat="43.2493066" lon="13.0737184"><ele>590.0</ele><time>2026-04-11T07:41:50.892Z</time></trkpt><trkpt lat="43.2492464" lon="13.0738177"><ele>590.0</ele><time>2026-04-11T07:41:51.904Z</time></trkpt><trkpt lat="43.2491736" lon="13.0739001"><ele>590.0</ele><time>2026-04-11T07:41:52.894Z</time></trkpt><trkpt lat="43.2490946" lon="13.0739745"><ele>590.0</ele><time>2026-04-11T07:41:53.891Z</time></trkpt><trkpt lat="43.2490147" lon="13.0740398"><ele>590.0</ele><time>2026-04-11T07:41:54.894Z</time></trkpt><trkpt lat="43.2489201" lon="13.0740818"><ele>590.0</ele><time>2026-04-11T07:41:55.905Z</time></trkpt><trkpt lat="43.2488038" lon="13.0740853"><ele>583.5</ele><time>2026-04-11T07:41:56.888Z</time></trkpt><trkpt lat="43.2486849" lon="13.0740577"><ele>577.0</ele><time>2026-04-11T07:41:57.894Z</time></trkpt><trkpt lat="43.2485502" lon="13.0740224"><ele>570.5</ele><time>2026-04-11T07:41:58.878Z</time></trkpt><trkpt lat="43.2484177" lon="13.0739985"><ele>564.0</ele><time>2026-04-11T07:41:59.902Z</time></trkpt><trkpt lat="43.2482842" lon="13.0739831"><ele>564.0</ele><time>2026-04-11T07:42:00.89Z</time></trkpt><trkpt lat="43.2481542" lon="13.0739774"><ele>564.0</ele><time>2026-04-11T07:42:01.886Z</time></trkpt><trkpt lat="43.2480201" lon="13.0739764"><ele>564.0</ele><time>2026-04-11T07:42:02.91Z</time></trkpt><trkpt lat="43.2478893" lon="13.0739668"><ele>564.0</ele><time>2026-04-11T07:42:03.899Z</time></trkpt><trkpt lat="43.2477664" lon="13.0739547"><ele>562.0</ele><time>2026-04-11T07:42:04.892Z</time></trkpt><trkpt lat="43.2476458" lon="13.0739565"><ele>560.0</ele><time>2026-04-11T07:42:05.877Z</time></trkpt><trkpt lat="43.2475318" lon="13.0739792"><ele>558.0</ele><time>2026-04-11T07:42:06.884Z</time></trkpt><trkpt lat="43.2474231" lon="13.0740248"><ele>556.0</ele><time>2026-04-11T07:42:07.904Z</time></trkpt><trkpt lat="43.2473191" lon="13.0740948"><ele>558.0</ele><time>2026-04-11T07:42:08.898Z</time></trkpt><trkpt lat="43.2472198" lon="13.0741794"><ele>560.0</ele><time>2026-04-11T07:42:09.897Z</time></trkpt><trkpt lat="43.2471195" lon="13.0742719"><ele>562.0</ele><time>2026-04-11T07:42:10.899Z</time></trkpt><trkpt lat="43.2470142" lon="13.0743601"><ele>564.0</ele><time>2026-04-11T07:42:11.893Z</time></trkpt><trkpt lat="43.2469059" lon="13.0744336"><ele>564.0</ele><time>2026-04-11T07:42:12.897Z</time></trkpt><trkpt lat="43.2467932" lon="13.0744915"><ele>564.0</ele><time>2026-04-11T07:42:13.909Z</time></trkpt><trkpt lat="43.2466752" lon="13.0745284"><ele>564.0</ele><time>2026-04-11T07:42:14.876Z</time></trkpt><trkpt lat="43.2465526" lon="13.0745489"><ele>564.0</ele><time>2026-04-11T07:42:15.878Z</time></trkpt><trkpt lat="43.2464397" lon="13.0745527"><ele>556.5</ele><time>2026-04-11T07:42:16.897Z</time></trkpt><trkpt lat="43.2463345" lon="13.0745653"><ele>549.0</ele><time>2026-04-11T07:42:17.873Z</time></trkpt><trkpt lat="43.2462333" lon="13.0746071"><ele>541.5</ele><time>2026-04-11T07:42:18.882Z</time></trkpt><trkpt lat="43.2461338" lon="13.0746836"><ele>534.0</ele><time>2026-04-11T07:42:19.905Z</time></trkpt><trkpt lat="43.2460342" lon="13.0747872"><ele>534.0</ele><time>2026-04-11T07:42:20.902Z</time></trkpt><trkpt lat="43.2459403" lon="13.0748957"><ele>534.0</ele><time>2026-04-11T07:42:21.9Z</time></trkpt><trkpt lat="43.2458478" lon="13.0750063"><ele>534.0</ele><time>2026-04-11T07:42:22.898Z</time></trkpt><trkpt lat="43.2457608" lon="13.0751095"><ele>534.0</ele><time>2026-04-11T07:42:23.904Z</time></trkpt><trkpt lat="43.2456719" lon="13.0751974"><ele>536.5</ele><time>2026-04-11T07:42:24.908Z</time></trkpt><trkpt lat="43.2455774" lon="13.0752561"><ele>539.0</ele><time>2026-04-11T07:42:25.892Z</time></trkpt><trkpt lat="43.2454697" lon="13.0752957"><ele>541.5</ele><time>2026-04-11T07:42:26.913Z</time></trkpt><trkpt lat="43.245345" lon="13.0753193"><ele>544.0</ele><time>2026-04-11T07:42:27.901Z</time></trkpt><trkpt lat="43.2452152" lon="13.0753327"><ele>544.0</ele><time>2026-04-11T07:42:28.891Z</time></trkpt><trkpt lat="43.2450819" lon="13.0753376"><ele>544.0</ele><time>2026-04-11T07:42:29.909Z</time></trkpt><trkpt lat="43.2449579" lon="13.075345"><ele>544.0</ele><time>2026-04-11T07:42:30.892Z</time></trkpt><trkpt lat="43.2448426" lon="13.0753667"><ele>544.0</ele><time>2026-04-11T07:42:31.885Z</time></trkpt><trkpt lat="43.2447343" lon="13.0754036"><ele>544.0</ele><time>2026-04-11T07:42:32.891Z</time></trkpt><trkpt lat="43.2446392" lon="13.0754402"><ele>544.0</ele><time>2026-04-11T07:42:33.919Z</time></trkpt><trkpt lat="43.2445495" lon="13.0754997"><ele>544.0</ele><time>2026-04-11T07:42:34.872Z</time></trkpt><trkpt lat="43.2444788" lon="13.0755898"><ele>544.0</ele><time>2026-04-11T07:42:35.912Z</time></trkpt><trkpt lat="43.2444316" lon="13.0757042"><ele>544.0</ele><time>2026-04-11T07:42:36.905Z</time></trkpt><trkpt lat="43.2443872" lon="13.0758421"><ele>544.0</ele><time>2026-04-11T07:42:37.909Z</time></trkpt><trkpt lat="43.2443302" lon="13.0759583"><ele>544.0</ele><time>2026-04-11T07:42:38.914Z</time></trkpt><trkpt lat="43.2442493" lon="13.0760484"><ele>544.0</ele><time>2026-04-11T07:42:39.923Z</time></trkpt><trkpt lat="43.2441506" lon="13.076092"><ele>544.0</ele><time>2026-04-11T07:42:40.843Z</time></trkpt><trkpt lat="43.2440453" lon="13.076102"><ele>544.0</ele><time>2026-04-11T07:42:41.877Z</time></trkpt><trkpt lat="43.243947" lon="13.0761099"><ele>542.2</ele><time>2026-04-11T07:42:42.88Z</time></trkpt><trkpt lat="43.2438529" lon="13.0761488"><ele>540.4</ele><time>2026-04-11T07:42:43.912Z</time></trkpt><trkpt lat="43.2437742" lon="13.0762331"><ele>538.6</ele><time>2026-04-11T07:42:44.901Z</time></trkpt><trkpt lat="43.2437111" lon="13.0763604"><ele>536.8</ele><time>2026-04-11T07:42:45.854Z</time></trkpt><trkpt lat="43.2436593" lon="13.0764955"><ele>535.0</ele><time>2026-04-11T07:42:46.852Z</time></trkpt><trkpt lat="43.2435947" lon="13.0766268"><ele>535.0</ele><time>2026-04-11T07:42:47.854Z</time></trkpt><trkpt lat="43.2435268" lon="13.0766998"><ele>535.0</ele><time>2026-04-11T07:42:48.842Z</time></trkpt><trkpt lat="43.2434334" lon="13.0767647"><ele>535.0</ele><time>2026-04-11T07:42:49.858Z</time></trkpt><trkpt lat="43.2433152" lon="13.0767882"><ele>535.0</ele><time>2026-04-11T07:42:50.849Z</time></trkpt><trkpt lat="43.2431931" lon="13.076763"><ele>535.0</ele><time>2026-04-11T07:42:51.847Z</time></trkpt><trkpt lat="43.2430845" lon="13.0767076"><ele>535.2</ele><time>2026-04-11T07:42:52.846Z</time></trkpt><trkpt lat="43.2429912" lon="13.0766247"><ele>535.4</ele><time>2026-04-11T07:42:53.875Z</time></trkpt><trkpt lat="43.2429134" lon="13.0765527"><ele>535.6</ele><time>2026-04-11T07:42:54.857Z</time></trkpt><trkpt lat="43.242809" lon="13.0765128"><ele>535.8</ele><time>2026-04-11T07:42:55.877Z</time></trkpt><trkpt lat="43.2426977" lon="13.0765097"><ele>536.0</ele><time>2026-04-11T07:42:56.87Z</time></trkpt><trkpt lat="43.2425978" lon="13.0765185"><ele>535.2</ele><time>2026-04-11T07:42:57.871Z</time></trkpt><trkpt lat="43.2424837" lon="13.0765382"><ele>534.4000000000001</ele><time>2026-04-11T07:42:58.881Z</time></trkpt><trkpt lat="43.242381" lon="13.0765797"><ele>533.6</ele><time>2026-04-11T07:42:59.873Z</time></trkpt><trkpt lat="43.2422852" lon="13.0766279"><ele>532.8000000000001</ele><time>2026-04-11T07:43:00.859Z</time></trkpt><trkpt lat="43.2421839" lon="13.0766615"><ele>532.0</ele><time>2026-04-11T07:43:01.888Z</time></trkpt><trkpt lat="43.2420758" lon="13.0766682"><ele>532.0</ele><time>2026-04-11T07:43:02.868Z</time></trkpt><trkpt lat="43.2419712" lon="13.0766516"><ele>532.0</ele><time>2026-04-11T07:43:03.861Z</time></trkpt><trkpt lat="43.2418803" lon="13.0765972"><ele>532.0</ele><time>2026-04-11T07:43:04.868Z</time></trkpt><trkpt lat="43.2418015" lon="13.0765122"><ele>532.0</ele><time>2026-04-11T07:43:05.886Z</time></trkpt><trkpt lat="43.2417511" lon="13.0764011"><ele>532.0</ele><time>2026-04-11T07:43:06.874Z</time></trkpt><trkpt lat="43.2417218" lon="13.0762704"><ele>530.0</ele><time>2026-04-11T07:43:07.868Z</time></trkpt><trkpt lat="43.2416983" lon="13.0761235"><ele>528.0</ele><time>2026-04-11T07:43:08.872Z</time></trkpt><trkpt lat="43.2416838" lon="13.0759737"><ele>526.0</ele><time>2026-04-11T07:43:09.882Z</time></trkpt><trkpt lat="43.2416694" lon="13.0758195"><ele>524.0</ele><time>2026-04-11T07:43:10.868Z</time></trkpt><trkpt lat="43.2416415" lon="13.0756772"><ele>522.0</ele><time>2026-04-11T07:43:11.873Z</time></trkpt><trkpt lat="43.2416058" lon="13.0755403"><ele>521.0</ele><time>2026-04-11T07:43:12.884Z</time></trkpt><trkpt lat="43.241556" lon="13.0754164"><ele>520.0</ele><time>2026-04-11T07:43:13.887Z</time></trkpt><trkpt lat="43.2414908" lon="13.0752903"><ele>519.0</ele><time>2026-04-11T07:43:14.862Z</time></trkpt><trkpt lat="43.2414268" lon="13.075161"><ele>518.0</ele><time>2026-04-11T07:43:15.893Z</time></trkpt><trkpt lat="43.2413593" lon="13.0750307"><ele>517.0</ele><time>2026-04-11T07:43:16.887Z</time></trkpt><trkpt lat="43.2412893" lon="13.0749047"><ele>517.0</ele><time>2026-04-11T07:43:17.86Z</time></trkpt><trkpt lat="43.241213" lon="13.0747867"><ele>517.0</ele><time>2026-04-11T07:43:18.87Z</time></trkpt><trkpt lat="43.2411217" lon="13.0746862"><ele>517.0</ele><time>2026-04-11T07:43:19.869Z</time></trkpt><trkpt lat="43.2410164" lon="13.0746092"><ele>517.0</ele><time>2026-04-11T07:43:20.867Z</time></trkpt><trkpt lat="43.2409053" lon="13.0745527"><ele>517.0</ele><time>2026-04-11T07:43:21.889Z</time></trkpt><trkpt lat="43.2407839" lon="13.074492"><ele>517.0</ele><time>2026-04-11T07:43:22.885Z</time></trkpt><trkpt lat="43.2406715" lon="13.0744231"><ele>517.0</ele><time>2026-04-11T07:43:23.851Z</time></trkpt><trkpt lat="43.2405679" lon="13.0743445"><ele>517.0</ele><time>2026-04-11T07:43:24.894Z</time></trkpt><trkpt lat="43.2404873" lon="13.0742476"><ele>512.8000000000001</ele><time>2026-04-11T07:43:25.913Z</time></trkpt><trkpt lat="43.2404277" lon="13.0741279"><ele>508.6</ele><time>2026-04-11T07:43:26.898Z</time></trkpt><trkpt lat="43.2403849" lon="13.073998"><ele>504.40000000000003</ele><time>2026-04-11T07:43:27.9Z</time></trkpt><trkpt lat="43.2403641" lon="13.0738465"><ele>500.20000000000005</ele><time>2026-04-11T07:43:28.906Z</time></trkpt><trkpt lat="43.2403685" lon="13.073684"><ele>496.0</ele><time>2026-04-11T07:43:29.943Z</time></trkpt><trkpt lat="43.2403666" lon="13.0735208"><ele>496.0</ele><time>2026-04-11T07:43:30.9Z</time></trkpt><trkpt lat="43.240336" lon="13.073361"><ele>496.0</ele><time>2026-04-11T07:43:31.923Z</time></trkpt><trkpt lat="43.2402773" lon="13.0732036"><ele>496.0</ele><time>2026-04-11T07:43:32.873Z</time></trkpt><trkpt lat="43.2402045" lon="13.0730354"><ele>496.0</ele><time>2026-04-11T07:43:33.915Z</time></trkpt><trkpt lat="43.2401315" lon="13.0728716"><ele>496.0</ele><time>2026-04-11T07:43:34.911Z</time></trkpt><trkpt lat="43.2400544" lon="13.0727249"><ele>496.0</ele><time>2026-04-11T07:43:35.921Z</time></trkpt><trkpt lat="43.239988" lon="13.0725861"><ele>496.0</ele><time>2026-04-11T07:43:36.902Z</time></trkpt><trkpt lat="43.2399424" lon="13.0724565"><ele>496.0</ele><time>2026-04-11T07:43:37.893Z</time></trkpt><trkpt lat="43.2399086" lon="13.0723177"><ele>496.0</ele><time>2026-04-11T07:43:38.856Z</time></trkpt><trkpt lat="43.2399006" lon="13.0721713"><ele>496.0</ele><time>2026-04-11T07:43:39.867Z</time></trkpt><trkpt lat="43.2399212" lon="13.0720089"><ele>496.0</ele><time>2026-04-11T07:43:40.868Z</time></trkpt><trkpt lat="43.2399613" lon="13.0718523"><ele>496.0</ele><time>2026-04-11T07:43:41.882Z</time></trkpt><trkpt lat="43.2400289" lon="13.0717167"><ele>496.00000000000006</ele><time>2026-04-11T07:43:42.879Z</time></trkpt><trkpt lat="43.2400831" lon="13.0716078"><ele>496.0</ele><time>2026-04-11T07:43:43.897Z</time></trkpt><trkpt lat="43.2401343" lon="13.0715211"><ele>496.0</ele><time>2026-04-11T07:43:44.909Z</time></trkpt><trkpt lat="43.2401862" lon="13.0714293"><ele>496.0</ele><time>2026-04-11T07:43:45.886Z</time></trkpt><trkpt lat="43.2402417" lon="13.0713472"><ele>496.00000000000006</ele><time>2026-04-11T07:43:46.909Z</time></trkpt><trkpt lat="43.2402967" lon="13.071277"><ele>496.0</ele><time>2026-04-11T07:43:47.911Z</time></trkpt><trkpt lat="43.2403542" lon="13.0712169"><ele>494.33333333333337</ele><time>2026-04-11T07:43:48.897Z</time></trkpt><trkpt lat="43.2404035" lon="13.0711495"><ele>492.6666666666667</ele><time>2026-04-11T07:43:49.847Z</time></trkpt><trkpt lat="43.2404471" lon="13.0710783"><ele>491.0</ele><time>2026-04-11T07:43:50.846Z</time></trkpt><trkpt lat="43.2404791" lon="13.0710014"><ele>489.33333333333337</ele><time>2026-04-11T07:43:51.886Z</time></trkpt><trkpt lat="43.2405125" lon="13.0709157"><ele>487.6666666666667</ele><time>2026-04-11T07:43:52.874Z</time></trkpt><trkpt lat="43.2405367" lon="13.0708339"><ele>486.0</ele><time>2026-04-11T07:43:53.863Z</time></trkpt><trkpt lat="43.2405805" lon="13.0706636"><ele>485.8</ele><time>2026-04-11T07:43:55.878Z</time></trkpt><trkpt lat="43.2406039" lon="13.0705799"><ele>485.6</ele><time>2026-04-11T07:43:56.886Z</time></trkpt><trkpt lat="43.2406218" lon="13.0704879"><ele>485.4</ele><time>2026-04-11T07:43:57.86Z</time></trkpt><trkpt lat="43.2406424" lon="13.0703249"><ele>485.2</ele><time>2026-04-11T07:43:59.876Z</time></trkpt><trkpt lat="43.2406378" lon="13.0701767"><ele>485.0</ele><time>2026-04-11T07:44:01.868Z</time></trkpt><trkpt lat="43.2405623" lon="13.0700449"><ele>483.4</ele><time>2026-04-11T07:44:03.879Z</time></trkpt><trkpt lat="43.2405218" lon="13.0699738"><ele>481.8</ele><time>2026-04-11T07:44:04.868Z</time></trkpt><trkpt lat="43.2404548" lon="13.0698298"><ele>480.20000000000005</ele><time>2026-04-11T07:44:06.872Z</time></trkpt><trkpt lat="43.240393" lon="13.0696798"><ele>478.6</ele><time>2026-04-11T07:44:08.867Z</time></trkpt><trkpt lat="43.2403003" lon="13.0695505"><ele>477.0</ele><time>2026-04-11T07:44:10.879Z</time></trkpt><trkpt lat="43.2402416" lon="13.0694901"><ele>477.0</ele><time>2026-04-11T07:44:11.861Z</time></trkpt><trkpt lat="43.2401788" lon="13.0694272"><ele>477.0</ele><time>2026-04-11T07:44:12.853Z</time></trkpt><trkpt lat="43.2401184" lon="13.0693645"><ele>477.0</ele><time>2026-04-11T07:44:13.88Z</time></trkpt><trkpt lat="43.2400553" lon="13.0693001"><ele>477.0</ele><time>2026-04-11T07:44:14.914Z</time></trkpt><trkpt lat="43.2399934" lon="13.0692311"><ele>477.0</ele><time>2026-04-11T07:44:15.885Z</time></trkpt><trkpt lat="43.2399426" lon="13.0691587"><ele>477.0</ele><time>2026-04-11T07:44:16.896Z</time></trkpt><trkpt lat="43.2398813" lon="13.0690837"><ele>477.0</ele><time>2026-04-11T07:44:18.909Z</time></trkpt><trkpt lat="43.2398166" lon="13.0690179"><ele>477.0</ele><time>2026-04-11T07:44:23.881Z</time></trkpt><trkpt lat="43.2398388" lon="13.0691045"><ele>477.0</ele><time>2026-04-11T07:44:29.889Z</time></trkpt><trkpt lat="43.2398862" lon="13.0691775"><ele>477.0</ele><time>2026-04-11T07:44:31.894Z</time></trkpt><trkpt lat="43.2399487" lon="13.0693164"><ele>477.0</ele><time>2026-04-11T07:44:33.921Z</time></trkpt><trkpt lat="43.2399676" lon="13.0694192"><ele>477.0</ele><time>2026-04-11T07:44:34.894Z</time></trkpt><trkpt lat="43.239981" lon="13.0695414"><ele>477.0</ele><time>2026-04-11T07:44:35.882Z</time></trkpt><trkpt lat="43.2399819" lon="13.0696606"><ele>477.00000000000006</ele><time>2026-04-11T07:44:36.886Z</time></trkpt><trkpt lat="43.2399727" lon="13.0697977"><ele>477.00000000000006</ele><time>2026-04-11T07:44:37.882Z</time></trkpt><trkpt lat="43.2399453" lon="13.0699444"><ele>477.0</ele><time>2026-04-11T07:44:38.886Z</time></trkpt><trkpt lat="43.2398984" lon="13.0701028"><ele>477.0</ele><time>2026-04-11T07:44:39.904Z</time></trkpt><trkpt lat="43.2398303" lon="13.0702571"><ele>472.5</ele><time>2026-04-11T07:44:40.85Z</time></trkpt><trkpt lat="43.2397318" lon="13.0703922"><ele>468.0</ele><time>2026-04-11T07:44:41.894Z</time></trkpt><trkpt lat="43.2396067" lon="13.0704953"><ele>463.5</ele><time>2026-04-11T07:44:42.896Z</time></trkpt><trkpt lat="43.2394753" lon="13.0705978"><ele>459.0</ele><time>2026-04-11T07:44:43.912Z</time></trkpt><trkpt lat="43.2393318" lon="13.0707011"><ele>456.66666666666663</ele><time>2026-04-11T07:44:44.907Z</time></trkpt><trkpt lat="43.2391877" lon="13.0707944"><ele>454.3333333333333</ele><time>2026-04-11T07:44:45.909Z</time></trkpt><trkpt lat="43.2390486" lon="13.0708757"><ele>452.0</ele><time>2026-04-11T07:44:46.906Z</time></trkpt><trkpt lat="43.2389149" lon="13.0709473"><ele>452.0</ele><time>2026-04-11T07:44:47.883Z</time></trkpt><trkpt lat="43.2388002" lon="13.0710321"><ele>452.0</ele><time>2026-04-11T07:44:48.903Z</time></trkpt><trkpt lat="43.2387096" lon="13.0711429"><ele>452.0</ele><time>2026-04-11T07:44:49.907Z</time></trkpt><trkpt lat="43.2386533" lon="13.0712825"><ele>452.0</ele><time>2026-04-11T07:44:50.905Z</time></trkpt><trkpt lat="43.2386231" lon="13.0714418"><ele>452.5</ele><time>2026-04-11T07:44:51.899Z</time></trkpt><trkpt lat="43.2386154" lon="13.0716112"><ele>453.0</ele><time>2026-04-11T07:44:52.885Z</time></trkpt><trkpt lat="43.2386772" lon="13.0717947"><ele>453.5</ele><time>2026-04-11T07:44:53.892Z</time></trkpt><trkpt lat="43.2387704" lon="13.0719961"><ele>454.0</ele><time>2026-04-11T07:44:54.905Z</time></trkpt><trkpt lat="43.2388564" lon="13.072203"><ele>454.0</ele><time>2026-04-11T07:44:55.906Z</time></trkpt><trkpt lat="43.2389372" lon="13.0724035"><ele>454.0</ele><time>2026-04-11T07:44:56.909Z</time></trkpt><trkpt lat="43.2390114" lon="13.0725941"><ele>454.0</ele><time>2026-04-11T07:44:57.914Z</time></trkpt><trkpt lat="43.2390824" lon="13.072773"><ele>459.0</ele><time>2026-04-11T07:44:58.906Z</time></trkpt><trkpt lat="43.2391463" lon="13.0729547"><ele>464.0</ele><time>2026-04-11T07:44:59.936Z</time></trkpt><trkpt lat="43.2392019" lon="13.0731337"><ele>469.0</ele><time>2026-04-11T07:45:00.888Z</time></trkpt><trkpt lat="43.2392434" lon="13.0733099"><ele>474.0</ele><time>2026-04-11T07:45:01.907Z</time></trkpt><trkpt lat="43.2392732" lon="13.0734859"><ele>474.0</ele><time>2026-04-11T07:45:02.881Z</time></trkpt><trkpt lat="43.2392973" lon="13.0736529"><ele>474.0</ele><time>2026-04-11T07:45:03.898Z</time></trkpt><trkpt lat="43.2392995" lon="13.0738098"><ele>474.0</ele><time>2026-04-11T07:45:04.92Z</time></trkpt><trkpt lat="43.2392595" lon="13.0739584"><ele>474.0</ele><time>2026-04-11T07:45:05.905Z</time></trkpt><trkpt lat="43.2391765" lon="13.0741032"><ele>474.5</ele><time>2026-04-11T07:45:06.902Z</time></trkpt><trkpt lat="43.2390764" lon="13.0742294"><ele>475.0</ele><time>2026-04-11T07:45:07.859Z</time></trkpt><trkpt lat="43.2389705" lon="13.0743401"><ele>475.5</ele><time>2026-04-11T07:45:08.892Z</time></trkpt><trkpt lat="43.2388487" lon="13.0744145"><ele>476.0</ele><time>2026-04-11T07:45:09.904Z</time></trkpt><trkpt lat="43.2387075" lon="13.0744562"><ele>472.0</ele><time>2026-04-11T07:45:10.893Z</time></trkpt><trkpt lat="43.2385613" lon="13.0744737"><ele>468.0</ele><time>2026-04-11T07:45:11.887Z</time></trkpt><trkpt lat="43.2384311" lon="13.0744891"><ele>464.0</ele><time>2026-04-11T07:45:12.892Z</time></trkpt><trkpt lat="43.2383051" lon="13.0745086"><ele>460.0</ele><time>2026-04-11T07:45:13.914Z</time></trkpt><trkpt lat="43.2381911" lon="13.0745567"><ele>459.6</ele><time>2026-04-11T07:45:14.908Z</time></trkpt><trkpt lat="43.2381128" lon="13.0746389"><ele>459.2</ele><time>2026-04-11T07:45:15.913Z</time></trkpt><trkpt lat="43.2380774" lon="13.0747741"><ele>458.79999999999995</ele><time>2026-04-11T07:45:16.898Z</time></trkpt><trkpt lat="43.2380647" lon="13.0749238"><ele>458.4</ele><time>2026-04-11T07:45:17.897Z</time></trkpt><trkpt lat="43.2380599" lon="13.0750971"><ele>458.0</ele><time>2026-04-11T07:45:18.884Z</time></trkpt><trkpt lat="43.2380445" lon="13.0752654"><ele>458.0</ele><time>2026-04-11T07:45:19.88Z</time></trkpt><trkpt lat="43.2380051" lon="13.0754274"><ele>458.0</ele><time>2026-04-11T07:45:20.882Z</time></trkpt><trkpt lat="43.2379404" lon="13.075574"><ele>458.0</ele><time>2026-04-11T07:45:21.902Z</time></trkpt><trkpt lat="43.2378434" lon="13.0757078"><ele>458.0</ele><time>2026-04-11T07:45:22.928Z</time></trkpt><trkpt lat="43.237733" lon="13.0758173"><ele>459.75</ele><time>2026-04-11T07:45:23.893Z</time></trkpt><trkpt lat="43.2376148" lon="13.0758953"><ele>461.5</ele><time>2026-04-11T07:45:24.875Z</time></trkpt><trkpt lat="43.2374873" lon="13.0759686"><ele>463.25</ele><time>2026-04-11T07:45:25.893Z</time></trkpt><trkpt lat="43.2373662" lon="13.0760324"><ele>465.0</ele><time>2026-04-11T07:45:26.861Z</time></trkpt><trkpt lat="43.2372439" lon="13.0761047"><ele>465.0</ele><time>2026-04-11T07:45:27.889Z</time></trkpt><trkpt lat="43.2371266" lon="13.0761708"><ele>465.0</ele><time>2026-04-11T07:45:28.885Z</time></trkpt><trkpt lat="43.2370053" lon="13.0762276"><ele>465.0</ele><time>2026-04-11T07:45:29.903Z</time></trkpt><trkpt lat="43.236882" lon="13.0762547"><ele>465.0</ele><time>2026-04-11T07:45:30.893Z</time></trkpt><trkpt lat="43.2367548" lon="13.0762269"><ele>465.0</ele><time>2026-04-11T07:45:31.905Z</time></trkpt><trkpt lat="43.2366284" lon="13.0761357"><ele>465.0</ele><time>2026-04-11T07:45:32.899Z</time></trkpt><trkpt lat="43.236496" lon="13.0760238"><ele>465.0</ele><time>2026-04-11T07:45:33.885Z</time></trkpt><trkpt lat="43.236379" lon="13.0758897"><ele>471.33333333333337</ele><time>2026-04-11T07:45:34.891Z</time></trkpt><trkpt lat="43.2362799" lon="13.0757362"><ele>477.6666666666667</ele><time>2026-04-11T07:45:35.891Z</time></trkpt><trkpt lat="43.236194" lon="13.075555"><ele>484.0</ele><time>2026-04-11T07:45:36.902Z</time></trkpt><trkpt lat="43.2361289" lon="13.0753519"><ele>484.0</ele><time>2026-04-11T07:45:37.89Z</time></trkpt><trkpt lat="43.2360759" lon="13.0751332"><ele>484.0</ele><time>2026-04-11T07:45:38.881Z</time></trkpt><trkpt lat="43.2360466" lon="13.0749053"><ele>484.0</ele><time>2026-04-11T07:45:39.91Z</time></trkpt><trkpt lat="43.2360411" lon="13.0746915"><ele>482.5</ele><time>2026-04-11T07:45:40.844Z</time></trkpt><trkpt lat="43.2360404" lon="13.0744858"><ele>481.0</ele><time>2026-04-11T07:45:41.906Z</time></trkpt><trkpt lat="43.2360343" lon="13.0742948"><ele>479.5</ele><time>2026-04-11T07:45:42.893Z</time></trkpt><trkpt lat="43.2360214" lon="13.0741142"><ele>478.0</ele><time>2026-04-11T07:45:43.903Z</time></trkpt><trkpt lat="43.2359838" lon="13.0739361"><ele>476.5</ele><time>2026-04-11T07:45:44.902Z</time></trkpt><trkpt lat="43.235924" lon="13.0737631"><ele>475.0</ele><time>2026-04-11T07:45:45.88Z</time></trkpt><trkpt lat="43.235839" lon="13.0736052"><ele>473.5</ele><time>2026-04-11T07:45:46.906Z</time></trkpt><trkpt lat="43.2357336" lon="13.0734745"><ele>472.0</ele><time>2026-04-11T07:45:47.908Z</time></trkpt><trkpt lat="43.2356095" lon="13.0733736"><ele>472.0</ele><time>2026-04-11T07:45:48.891Z</time></trkpt><trkpt lat="43.2354687" lon="13.0732948"><ele>472.0</ele><time>2026-04-11T07:45:49.892Z</time></trkpt><trkpt lat="43.235337" lon="13.0732229"><ele>472.0</ele><time>2026-04-11T07:45:50.895Z</time></trkpt><trkpt lat="43.2352104" lon="13.0731726"><ele>472.0</ele><time>2026-04-11T07:45:51.887Z</time></trkpt><trkpt lat="43.2350772" lon="13.0731539"><ele>472.0</ele><time>2026-04-11T07:45:52.906Z</time></trkpt><trkpt lat="43.234949" lon="13.0731963"><ele>472.0</ele><time>2026-04-11T07:45:53.909Z</time></trkpt><trkpt lat="43.2348191" lon="13.0732976"><ele>472.0</ele><time>2026-04-11T07:45:54.909Z</time></trkpt><trkpt lat="43.2346893" lon="13.0734084"><ele>472.0</ele><time>2026-04-11T07:45:55.909Z</time></trkpt><trkpt lat="43.234551" lon="13.0734809"><ele>471.0</ele><time>2026-04-11T07:45:56.863Z</time></trkpt><trkpt lat="43.234392" lon="13.0734839"><ele>470.0</ele><time>2026-04-11T07:45:57.892Z</time></trkpt><trkpt lat="43.2342335" lon="13.0734144"><ele>469.0</ele><time>2026-04-11T07:45:58.91Z</time></trkpt><trkpt lat="43.234093" lon="13.0733085"><ele>469.0</ele><time>2026-04-11T07:45:59.918Z</time></trkpt><trkpt lat="43.2339716" lon="13.073169"><ele>469.0</ele><time>2026-04-11T07:46:00.902Z</time></trkpt><trkpt lat="43.2338674" lon="13.0730242"><ele>469.0</ele><time>2026-04-11T07:46:01.904Z</time></trkpt><trkpt lat="43.2337748" lon="13.0729008"><ele>469.0</ele><time>2026-04-11T07:46:02.91Z</time></trkpt><trkpt lat="43.2336798" lon="13.0728037"><ele>469.0</ele><time>2026-04-11T07:46:03.903Z</time></trkpt><trkpt lat="43.2335725" lon="13.0727406"><ele>469.0</ele><time>2026-04-11T07:46:04.911Z</time></trkpt><trkpt lat="43.2334583" lon="13.0726997"><ele>469.0</ele><time>2026-04-11T07:46:05.881Z</time></trkpt><trkpt lat="43.2333419" lon="13.0726731"><ele>469.0</ele><time>2026-04-11T07:46:06.896Z</time></trkpt><trkpt lat="43.2332237" lon="13.0726576"><ele>472.0</ele><time>2026-04-11T07:46:07.899Z</time></trkpt><trkpt lat="43.2331028" lon="13.072637"><ele>475.0</ele><time>2026-04-11T07:46:08.914Z</time></trkpt><trkpt lat="43.2329801" lon="13.0726003"><ele>478.0</ele><time>2026-04-11T07:46:09.902Z</time></trkpt><trkpt lat="43.2328677" lon="13.0725444"><ele>481.0</ele><time>2026-04-11T07:46:10.906Z</time></trkpt><trkpt lat="43.2327611" lon="13.0724543"><ele>478.5</ele><time>2026-04-11T07:46:11.899Z</time></trkpt><trkpt lat="43.2326859" lon="13.0723198"><ele>476.0</ele><time>2026-04-11T07:46:12.89Z</time></trkpt><trkpt lat="43.2326481" lon="13.0721475"><ele>473.5</ele><time>2026-04-11T07:46:13.899Z</time></trkpt><trkpt lat="43.2326172" lon="13.0719833"><ele>471.0</ele><time>2026-04-11T07:46:14.872Z</time></trkpt><trkpt lat="43.2325928" lon="13.0718279"><ele>471.0</ele><time>2026-04-11T07:46:15.911Z</time></trkpt><trkpt lat="43.2325692" lon="13.0716809"><ele>471.0</ele><time>2026-04-11T07:46:16.891Z</time></trkpt><trkpt lat="43.2325104" lon="13.071546"><ele>471.0</ele><time>2026-04-11T07:46:17.917Z</time></trkpt><trkpt lat="43.2324227" lon="13.0714433"><ele>471.0</ele><time>2026-04-11T07:46:18.911Z</time></trkpt><trkpt lat="43.2323139" lon="13.0714081"><ele>468.75</ele><time>2026-04-11T07:46:19.88Z</time></trkpt><trkpt lat="43.2321805" lon="13.0714052"><ele>466.5</ele><time>2026-04-11T07:46:20.895Z</time></trkpt><trkpt lat="43.2320405" lon="13.0714591"><ele>464.25</ele><time>2026-04-11T07:46:21.904Z</time></trkpt><trkpt lat="43.2319084" lon="13.0715448"><ele>462.0</ele><time>2026-04-11T07:46:22.92Z</time></trkpt><trkpt lat="43.231783" lon="13.0716427"><ele>462.0</ele><time>2026-04-11T07:46:23.909Z</time></trkpt><trkpt lat="43.2316599" lon="13.0717399"><ele>462.0</ele><time>2026-04-11T07:46:24.895Z</time></trkpt><trkpt lat="43.2315261" lon="13.0718155"><ele>462.0</ele><time>2026-04-11T07:46:25.918Z</time></trkpt><trkpt lat="43.2313781" lon="13.0718502"><ele>462.0</ele><time>2026-04-11T07:46:26.914Z</time></trkpt><trkpt lat="43.2312157" lon="13.0718409"><ele>458.33333333333337</ele><time>2026-04-11T07:46:27.902Z</time></trkpt><trkpt lat="43.2310498" lon="13.0718051"><ele>454.6666666666667</ele><time>2026-04-11T07:46:28.911Z</time></trkpt><trkpt lat="43.2308946" lon="13.0717648"><ele>451.0</ele><time>2026-04-11T07:46:29.921Z</time></trkpt><trkpt lat="43.2307519" lon="13.0717284"><ele>450.0</ele><time>2026-04-11T07:46:30.886Z</time></trkpt><trkpt lat="43.2306141" lon="13.0716914"><ele>449.0</ele><time>2026-04-11T07:46:31.936Z</time></trkpt><trkpt lat="43.2304779" lon="13.0716489"><ele>448.0</ele><time>2026-04-11T07:46:32.909Z</time></trkpt><trkpt lat="43.2303383" lon="13.0716136"><ele>447.0</ele><time>2026-04-11T07:46:33.921Z</time></trkpt><trkpt lat="43.2301925" lon="13.0715756"><ele>448.33333333333337</ele><time>2026-04-11T07:46:34.907Z</time></trkpt><trkpt lat="43.2300395" lon="13.0715404"><ele>449.6666666666667</ele><time>2026-04-11T07:46:35.906Z</time></trkpt><trkpt lat="43.2298848" lon="13.0715166"><ele>451.0</ele><time>2026-04-11T07:46:36.92Z</time></trkpt><trkpt lat="43.2297187" lon="13.0715093"><ele>451.0</ele><time>2026-04-11T07:46:37.916Z</time></trkpt><trkpt lat="43.229559" lon="13.0715234"><ele>451.0</ele><time>2026-04-11T07:46:38.902Z</time></trkpt><trkpt lat="43.2293937" lon="13.0715385"><ele>451.0</ele><time>2026-04-11T07:46:39.917Z</time></trkpt><trkpt lat="43.2292277" lon="13.0715569"><ele>451.0</ele><time>2026-04-11T07:46:40.851Z</time></trkpt><trkpt lat="43.2290615" lon="13.0715723"><ele>451.0</ele><time>2026-04-11T07:46:41.904Z</time></trkpt><trkpt lat="43.2289037" lon="13.0715722"><ele>451.0</ele><time>2026-04-11T07:46:42.894Z</time></trkpt><trkpt lat="43.2287571" lon="13.071555"><ele>451.0</ele><time>2026-04-11T07:46:43.912Z</time></trkpt><trkpt lat="43.2286182" lon="13.071502"><ele>451.0</ele><time>2026-04-11T07:46:44.899Z</time></trkpt><trkpt lat="43.2284948" lon="13.0713976"><ele>451.0</ele><time>2026-04-11T07:46:45.901Z</time></trkpt><trkpt lat="43.2283765" lon="13.071254"><ele>451.0</ele><time>2026-04-11T07:46:46.912Z</time></trkpt><trkpt lat="43.2282629" lon="13.0711186"><ele>451.0</ele><time>2026-04-11T07:46:47.918Z</time></trkpt><trkpt lat="43.2281441" lon="13.0710152"><ele>451.0</ele><time>2026-04-11T07:46:48.895Z</time></trkpt><trkpt lat="43.2280129" lon="13.0709583"><ele>451.0</ele><time>2026-04-11T07:46:49.897Z</time></trkpt><trkpt lat="43.227881" lon="13.0709635"><ele>451.0</ele><time>2026-04-11T07:46:50.897Z</time></trkpt><trkpt lat="43.2277385" lon="13.0710308"><ele>451.0</ele><time>2026-04-11T07:46:51.904Z</time></trkpt><trkpt lat="43.2275939" lon="13.0711367"><ele>451.0</ele><time>2026-04-11T07:46:52.894Z</time></trkpt><trkpt lat="43.2274524" lon="13.0712394"><ele>451.0</ele><time>2026-04-11T07:46:53.904Z</time></trkpt><trkpt lat="43.2273232" lon="13.0713531"><ele>453.0</ele><time>2026-04-11T07:46:54.903Z</time></trkpt><trkpt lat="43.2272012" lon="13.0714721"><ele>455.0</ele><time>2026-04-11T07:46:55.925Z</time></trkpt><trkpt lat="43.2270832" lon="13.0715853"><ele>457.0</ele><time>2026-04-11T07:46:56.904Z</time></trkpt><trkpt lat="43.2269771" lon="13.0716839"><ele>459.0</ele><time>2026-04-11T07:46:57.89Z</time></trkpt><trkpt lat="43.2268679" lon="13.0717501"><ele>454.75</ele><time>2026-04-11T07:46:58.915Z</time></trkpt><trkpt lat="43.2267358" lon="13.0717483"><ele>450.5</ele><time>2026-04-11T07:46:59.911Z</time></trkpt><trkpt lat="43.2265987" lon="13.0716733"><ele>446.25</ele><time>2026-04-11T07:47:00.905Z</time></trkpt><trkpt lat="43.226468" lon="13.0715744"><ele>442.0</ele><time>2026-04-11T07:47:01.902Z</time></trkpt><trkpt lat="43.2263123" lon="13.0714944"><ele>441.33333333333337</ele><time>2026-04-11T07:47:02.915Z</time></trkpt><trkpt lat="43.2261358" lon="13.0714411"><ele>440.66666666666663</ele><time>2026-04-11T07:47:03.901Z</time></trkpt><trkpt lat="43.2259749" lon="13.0713881"><ele>440.0</ele><time>2026-04-11T07:47:04.9Z</time></trkpt><trkpt lat="43.2258179" lon="13.0713286"><ele>440.0</ele><time>2026-04-11T07:47:05.897Z</time></trkpt><trkpt lat="43.2256696" lon="13.0712567"><ele>440.0</ele><time>2026-04-11T07:47:06.911Z</time></trkpt><trkpt lat="43.2255254" lon="13.0711787"><ele>440.0</ele><time>2026-04-11T07:47:07.86Z</time></trkpt><trkpt lat="43.2253836" lon="13.0711065"><ele>435.75</ele><time>2026-04-11T07:47:08.848Z</time></trkpt><trkpt lat="43.2252329" lon="13.0710647"><ele>431.5</ele><time>2026-04-11T07:47:09.91Z</time></trkpt><trkpt lat="43.2250921" lon="13.0710534"><ele>427.25</ele><time>2026-04-11T07:47:10.92Z</time></trkpt><trkpt lat="43.224939" lon="13.0710427"><ele>423.0</ele><time>2026-04-11T07:47:11.902Z</time></trkpt><trkpt lat="43.2247875" lon="13.0710107"><ele>419.33333333333337</ele><time>2026-04-11T07:47:12.895Z</time></trkpt><trkpt lat="43.2246338" lon="13.0709556"><ele>415.6666666666667</ele><time>2026-04-11T07:47:13.887Z</time></trkpt><trkpt lat="43.2244889" lon="13.070893"><ele>412.0</ele><time>2026-04-11T07:47:14.9Z</time></trkpt><trkpt lat="43.224345" lon="13.0708467"><ele>412.0</ele><time>2026-04-11T07:47:15.905Z</time></trkpt><trkpt lat="43.2242061" lon="13.070831"><ele>412.0</ele><time>2026-04-11T07:47:16.874Z</time></trkpt><trkpt lat="43.2240624" lon="13.0708442"><ele>412.0</ele><time>2026-04-11T07:47:17.916Z</time></trkpt><trkpt lat="43.2239112" lon="13.0708504"><ele>412.0</ele><time>2026-04-11T07:47:18.889Z</time></trkpt><trkpt lat="43.2237503" lon="13.0708503"><ele>408.75</ele><time>2026-04-11T07:47:19.897Z</time></trkpt><trkpt lat="43.2235993" lon="13.0708447"><ele>405.5</ele><time>2026-04-11T07:47:20.891Z</time></trkpt><trkpt lat="43.2234661" lon="13.0708481"><ele>402.25</ele><time>2026-04-11T07:47:21.91Z</time></trkpt><trkpt lat="43.2233564" lon="13.0708623"><ele>399.0</ele><time>2026-04-11T07:47:22.913Z</time></trkpt><trkpt lat="43.2232692" lon="13.0709084"><ele>399.0</ele><time>2026-04-11T07:47:23.913Z</time></trkpt><trkpt lat="43.2232222" lon="13.0710162"><ele>399.0</ele><time>2026-04-11T07:47:24.904Z</time></trkpt><trkpt lat="43.2232063" lon="13.0711514"><ele>399.0</ele><time>2026-04-11T07:47:25.893Z</time></trkpt><trkpt lat="43.2232546" lon="13.0712814"><ele>399.0</ele><time>2026-04-11T07:47:26.911Z</time></trkpt><trkpt lat="43.2233529" lon="13.0714213"><ele>399.0</ele><time>2026-04-11T07:47:27.908Z</time></trkpt><trkpt lat="43.2234621" lon="13.071561"><ele>397.25</ele><time>2026-04-11T07:47:28.898Z</time></trkpt><trkpt lat="43.223573" lon="13.0717043"><ele>395.5</ele><time>2026-04-11T07:47:29.911Z</time></trkpt><trkpt lat="43.2236746" lon="13.0718362"><ele>393.75</ele><time>2026-04-11T07:47:30.907Z</time></trkpt><trkpt lat="43.2237711" lon="13.0719597"><ele>392.0</ele><time>2026-04-11T07:47:31.925Z</time></trkpt><trkpt lat="43.2238798" lon="13.0720276"><ele>393.75</ele><time>2026-04-11T07:47:32.897Z</time></trkpt><trkpt lat="43.2240074" lon="13.0720111"><ele>395.5</ele><time>2026-04-11T07:47:33.882Z</time></trkpt><trkpt lat="43.2241451" lon="13.071923"><ele>397.25</ele><time>2026-04-11T07:47:34.902Z</time></trkpt><trkpt lat="43.224279" lon="13.0718421"><ele>399.0</ele><time>2026-04-11T07:47:35.916Z</time></trkpt><trkpt lat="43.2244208" lon="13.0718068"><ele>399.0</ele><time>2026-04-11T07:47:36.851Z</time></trkpt><trkpt lat="43.2245658" lon="13.071825"><ele>399.0</ele><time>2026-04-11T07:47:37.878Z</time></trkpt><trkpt lat="43.2247032" lon="13.0718747"><ele>399.0</ele><time>2026-04-11T07:47:38.921Z</time></trkpt><trkpt lat="43.2248294" lon="13.0719859"><ele>399.0</ele><time>2026-04-11T07:47:39.913Z</time></trkpt><trkpt lat="43.2249193" lon="13.0721255"><ele>400.25</ele><time>2026-04-11T07:47:40.85Z</time></trkpt><trkpt lat="43.2249918" lon="13.0722774"><ele>401.5</ele><time>2026-04-11T07:47:41.885Z</time></trkpt><trkpt lat="43.2250595" lon="13.0724198"><ele>402.75</ele><time>2026-04-11T07:47:42.898Z</time></trkpt><trkpt lat="43.2251334" lon="13.0725486"><ele>404.0</ele><time>2026-04-11T07:47:43.901Z</time></trkpt><trkpt lat="43.2252295" lon="13.0726712"><ele>396.0</ele><time>2026-04-11T07:47:45.065Z</time></trkpt><trkpt lat="43.2254407" lon="13.0728515"><ele>388.0</ele><time>2026-04-11T07:47:46.897Z</time></trkpt><trkpt lat="43.2255261" lon="13.0729672"><ele>380.0</ele><time>2026-04-11T07:47:47.916Z</time></trkpt><trkpt lat="43.2255775" lon="13.0730973"><ele>380.0</ele><time>2026-04-11T07:47:48.906Z</time></trkpt><trkpt lat="43.2255823" lon="13.0732561"><ele>380.0</ele><time>2026-04-11T07:47:49.953Z</time></trkpt><trkpt lat="43.2255475" lon="13.0734221"><ele>380.0</ele><time>2026-04-11T07:47:50.902Z</time></trkpt><trkpt lat="43.225478" lon="13.0736041"><ele>380.0</ele><time>2026-04-11T07:47:51.99Z</time></trkpt><trkpt lat="43.2254219" lon="13.0737781"><ele>376.5</ele><time>2026-04-11T07:47:52.915Z</time></trkpt><trkpt lat="43.2253675" lon="13.0739661"><ele>373.0</ele><time>2026-04-11T07:47:53.916Z</time></trkpt><trkpt lat="43.2253126" lon="13.0741382"><ele>369.5</ele><time>2026-04-11T07:47:54.903Z</time></trkpt><trkpt lat="43.225237" lon="13.0743101"><ele>366.0</ele><time>2026-04-11T07:47:55.996Z</time></trkpt><trkpt lat="43.2249929" lon="13.0745874"><ele>365.0</ele><time>2026-04-11T07:47:57.905Z</time></trkpt><trkpt lat="43.2248476" lon="13.0747215"><ele>364.0</ele><time>2026-04-11T07:47:58.91Z</time></trkpt><trkpt lat="43.2247165" lon="13.0748657"><ele>363.0</ele><time>2026-04-11T07:47:59.918Z</time></trkpt><trkpt lat="43.2245956" lon="13.0750375"><ele>361.25</ele><time>2026-04-11T07:48:00.917Z</time></trkpt><trkpt lat="43.2245091" lon="13.0752152"><ele>359.5</ele><time>2026-04-11T07:48:01.915Z</time></trkpt><trkpt lat="43.2244265" lon="13.0753949"><ele>357.75</ele><time>2026-04-11T07:48:02.886Z</time></trkpt><trkpt lat="43.2243503" lon="13.0755523"><ele>356.0</ele><time>2026-04-11T07:48:03.903Z</time></trkpt><trkpt lat="43.224264" lon="13.0756921"><ele>354.0</ele><time>2026-04-11T07:48:04.892Z</time></trkpt><trkpt lat="43.2241614" lon="13.0757906"><ele>352.0</ele><time>2026-04-11T07:48:05.899Z</time></trkpt><trkpt lat="43.224035" lon="13.0758547"><ele>350.0</ele><time>2026-04-11T07:48:06.915Z</time></trkpt><trkpt lat="43.223889" lon="13.0758867"><ele>348.0</ele><time>2026-04-11T07:48:07.871Z</time></trkpt><trkpt lat="43.223733" lon="13.0759197"><ele>345.6666666666667</ele><time>2026-04-11T07:48:08.899Z</time></trkpt><trkpt lat="43.2235789" lon="13.0759519"><ele>343.33333333333337</ele><time>2026-04-11T07:48:09.908Z</time></trkpt><trkpt lat="43.223425" lon="13.0759813"><ele>341.0</ele><time>2026-04-11T07:48:10.895Z</time></trkpt><trkpt lat="43.2232773" lon="13.0760091"><ele>338.0</ele><time>2026-04-11T07:48:11.896Z</time></trkpt><trkpt lat="43.2231304" lon="13.0760222"><ele>335.0</ele><time>2026-04-11T07:48:12.908Z</time></trkpt><trkpt lat="43.2229848" lon="13.076012"><ele>332.0</ele><time>2026-04-11T07:48:13.904Z</time></trkpt><trkpt lat="43.2228612" lon="13.0759357"><ele>329.0</ele><time>2026-04-11T07:48:14.919Z</time></trkpt><trkpt lat="43.2227772" lon="13.0757974"><ele>328.25</ele><time>2026-04-11T07:48:15.912Z</time></trkpt><trkpt lat="43.2227641" lon="13.0756289"><ele>327.5</ele><time>2026-04-11T07:48:16.906Z</time></trkpt><trkpt lat="43.2228097" lon="13.075492"><ele>326.75</ele><time>2026-04-11T07:48:17.901Z</time></trkpt><trkpt lat="43.222895" lon="13.0753831"><ele>326.0</ele><time>2026-04-11T07:48:18.913Z</time></trkpt><trkpt lat="43.2230027" lon="13.0752918"><ele>326.0</ele><time>2026-04-11T07:48:19.896Z</time></trkpt><trkpt lat="43.2231045" lon="13.0752147"><ele>326.0</ele><time>2026-04-11T07:48:20.892Z</time></trkpt><trkpt lat="43.2231846" lon="13.0751336"><ele>326.0</ele><time>2026-04-11T07:48:21.925Z</time></trkpt><trkpt lat="43.2232268" lon="13.0750282"><ele>326.0</ele><time>2026-04-11T07:48:22.904Z</time></trkpt><trkpt lat="43.2232232" lon="13.0749284"><ele>326.0</ele><time>2026-04-11T07:48:23.908Z</time></trkpt><trkpt lat="43.2231844" lon="13.0748404"><ele>326.0</ele><time>2026-04-11T07:48:24.887Z</time></trkpt><trkpt lat="43.2230914" lon="13.0748227"><ele>326.0</ele><time>2026-04-11T07:48:25.905Z</time></trkpt><trkpt lat="43.2229923" lon="13.0748823"><ele>326.0</ele><time>2026-04-11T07:48:26.895Z</time></trkpt><trkpt lat="43.2228723" lon="13.0749782"><ele>326.0</ele><time>2026-04-11T07:48:27.902Z</time></trkpt><trkpt lat="43.2227533" lon="13.0750675"><ele>326.0</ele><time>2026-04-11T07:48:28.878Z</time></trkpt><trkpt lat="43.2226193" lon="13.075162"><ele>326.0</ele><time>2026-04-11T07:48:29.904Z</time></trkpt><trkpt lat="43.2224808" lon="13.0752591"><ele>326.0</ele><time>2026-04-11T07:48:30.886Z</time></trkpt><trkpt lat="43.2223441" lon="13.0753532"><ele>324.0</ele><time>2026-04-11T07:48:31.917Z</time></trkpt><trkpt lat="43.2222236" lon="13.0754882"><ele>322.0</ele><time>2026-04-11T07:48:32.906Z</time></trkpt><trkpt lat="43.2221265" lon="13.0756875"><ele>320.0</ele><time>2026-04-11T07:48:33.895Z</time></trkpt><trkpt lat="43.2220675" lon="13.0759041"><ele>318.2</ele><time>2026-04-11T07:48:34.9Z</time></trkpt><trkpt lat="43.2220484" lon="13.0761034"><ele>316.4</ele><time>2026-04-11T07:48:35.911Z</time></trkpt><trkpt lat="43.2220561" lon="13.0762696"><ele>314.6</ele><time>2026-04-11T07:48:36.886Z</time></trkpt><trkpt lat="43.2220698" lon="13.0764002"><ele>312.8</ele><time>2026-04-11T07:48:37.9Z</time></trkpt><trkpt lat="43.2220651" lon="13.0764958"><ele>311.0</ele><time>2026-04-11T07:48:38.904Z</time></trkpt><trkpt lat="43.2220125" lon="13.0765535"><ele>311.0</ele><time>2026-04-11T07:48:39.897Z</time></trkpt><trkpt lat="43.2219327" lon="13.0765316"><ele>311.0</ele><time>2026-04-11T07:48:40.848Z</time></trkpt><trkpt lat="43.2218851" lon="13.0764497"><ele>311.0</ele><time>2026-04-11T07:48:41.894Z</time></trkpt><trkpt lat="43.221844" lon="13.0763145"><ele>311.0</ele><time>2026-04-11T07:48:42.89Z</time></trkpt><trkpt lat="43.2217922" lon="13.0761455"><ele>311.0</ele><time>2026-04-11T07:48:43.912Z</time></trkpt><trkpt lat="43.2217315" lon="13.0759615"><ele>311.0</ele><time>2026-04-11T07:48:44.893Z</time></trkpt><trkpt lat="43.2216232" lon="13.075811"><ele>311.0</ele><time>2026-04-11T07:48:46.058Z</time></trkpt><trkpt lat="43.2213036" lon="13.0755202"><ele>307.0</ele><time>2026-04-11T07:48:48.027Z</time></trkpt><trkpt lat="43.2209606" lon="13.0751442"><ele>303.0</ele><time>2026-04-11T07:48:49.88Z</time></trkpt><trkpt lat="43.2208187" lon="13.0749584"><ele>304.3333333333333</ele><time>2026-04-11T07:48:50.906Z</time></trkpt><trkpt lat="43.2206815" lon="13.0747905"><ele>305.66666666666663</ele><time>2026-04-11T07:48:51.899Z</time></trkpt><trkpt lat="43.2205497" lon="13.0746308"><ele>307.0</ele><time>2026-04-11T07:48:52.899Z</time></trkpt><trkpt lat="43.2204249" lon="13.0744873"><ele>304.25</ele><time>2026-04-11T07:48:53.913Z</time></trkpt><trkpt lat="43.2203105" lon="13.0743599"><ele>301.5</ele><time>2026-04-11T07:48:54.914Z</time></trkpt><trkpt lat="43.2202109" lon="13.0742426"><ele>298.75</ele><time>2026-04-11T07:48:55.904Z</time></trkpt><trkpt lat="43.2201161" lon="13.074133"><ele>296.0</ele><time>2026-04-11T07:48:56.915Z</time></trkpt><trkpt lat="43.2200276" lon="13.0740139"><ele>295.5</ele><time>2026-04-11T07:48:57.912Z</time></trkpt><trkpt lat="43.2199537" lon="13.0738746"><ele>295.0</ele><time>2026-04-11T07:48:58.91Z</time></trkpt><trkpt lat="43.2198979" lon="13.0737219"><ele>294.5</ele><time>2026-04-11T07:48:59.904Z</time></trkpt><trkpt lat="43.2198469" lon="13.0735489"><ele>294.0</ele><time>2026-04-11T07:49:00.912Z</time></trkpt><trkpt lat="43.2197901" lon="13.0733634"><ele>292.75</ele><time>2026-04-11T07:49:01.908Z</time></trkpt><trkpt lat="43.2197317" lon="13.0731783"><ele>291.5</ele><time>2026-04-11T07:49:02.879Z</time></trkpt><trkpt lat="43.2196725" lon="13.0729887"><ele>290.25</ele><time>2026-04-11T07:49:03.908Z</time></trkpt><trkpt lat="43.2196183" lon="13.0728011"><ele>289.0</ele><time>2026-04-11T07:49:04.909Z</time></trkpt><trkpt lat="43.2195733" lon="13.0726257"><ele>289.0</ele><time>2026-04-11T07:49:05.927Z</time></trkpt><trkpt lat="43.2195221" lon="13.0724656"><ele>289.0</ele><time>2026-04-11T07:49:06.925Z</time></trkpt><trkpt lat="43.2194667" lon="13.0723368"><ele>289.0</ele><time>2026-04-11T07:49:07.915Z</time></trkpt><trkpt lat="43.2194138" lon="13.0722278"><ele>289.0</ele><time>2026-04-11T07:49:08.897Z</time></trkpt><trkpt lat="43.2193618" lon="13.0721387"><ele>289.0</ele><time>2026-04-11T07:49:09.866Z</time></trkpt><trkpt lat="43.219269" lon="13.07205"><ele>289.0</ele><time>2026-04-11T07:49:11.912Z</time></trkpt><trkpt lat="43.2192046" lon="13.072047"><ele>289.0</ele><time>2026-04-11T07:49:14.911Z</time></trkpt><trkpt lat="43.2191546" lon="13.0721114"><ele>289.0</ele><time>2026-04-11T07:49:20.894Z</time></trkpt><trkpt lat="43.2191294" lon="13.0722783"><ele>289.0</ele><time>2026-04-11T07:49:22.908Z</time></trkpt><trkpt lat="43.2191283" lon="13.072392"><ele>289.0</ele><time>2026-04-11T07:49:23.926Z</time></trkpt><trkpt lat="43.2191288" lon="13.0725274"><ele>289.0</ele><time>2026-04-11T07:49:24.905Z</time></trkpt><trkpt lat="43.2191336" lon="13.0726857"><ele>289.0</ele><time>2026-04-11T07:49:25.901Z</time></trkpt><trkpt lat="43.2191382" lon="13.0728616"><ele>289.0</ele><time>2026-04-11T07:49:26.873Z</time></trkpt><trkpt lat="43.2191517" lon="13.0730476"><ele>289.0</ele><time>2026-04-11T07:49:27.942Z</time></trkpt><trkpt lat="43.2191742" lon="13.0732364"><ele>289.0</ele><time>2026-04-11T07:49:28.912Z</time></trkpt><trkpt lat="43.2192066" lon="13.0734249"><ele>289.0</ele><time>2026-04-11T07:49:29.902Z</time></trkpt><trkpt lat="43.2192412" lon="13.0736197"><ele>289.0</ele><time>2026-04-11T07:49:30.907Z</time></trkpt><trkpt lat="43.2192814" lon="13.0738179"><ele>289.0</ele><time>2026-04-11T07:49:31.897Z</time></trkpt><trkpt lat="43.2193193" lon="13.0740211"><ele>289.0</ele><time>2026-04-11T07:49:32.91Z</time></trkpt><trkpt lat="43.219362" lon="13.0742336"><ele>288.3333333333333</ele><time>2026-04-11T07:49:33.893Z</time></trkpt><trkpt lat="43.2194096" lon="13.074453"><ele>287.6666666666667</ele><time>2026-04-11T07:49:34.918Z</time></trkpt><trkpt lat="43.2194564" lon="13.0746799"><ele>287.0</ele><time>2026-04-11T07:49:35.887Z</time></trkpt><trkpt lat="43.2195052" lon="13.074912"><ele>287.0</ele><time>2026-04-11T07:49:36.914Z</time></trkpt><trkpt lat="43.2195565" lon="13.0751489"><ele>287.0</ele><time>2026-04-11T07:49:37.916Z</time></trkpt><trkpt lat="43.2196032" lon="13.0753918"><ele>287.0</ele><time>2026-04-11T07:49:38.883Z</time></trkpt><trkpt lat="43.2196514" lon="13.0756394"><ele>286.33333333333337</ele><time>2026-04-11T07:49:39.919Z</time></trkpt><trkpt lat="43.2197009" lon="13.0758804"><ele>285.6666666666667</ele><time>2026-04-11T07:49:40.862Z</time></trkpt><trkpt lat="43.2197483" lon="13.0761176"><ele>285.0</ele><time>2026-04-11T07:49:41.849Z</time></trkpt><trkpt lat="43.219794" lon="13.0763481"><ele>287.0</ele><time>2026-04-11T07:49:42.859Z</time></trkpt><trkpt lat="43.21984" lon="13.0765788"><ele>289.0</ele><time>2026-04-11T07:49:43.866Z</time></trkpt><trkpt lat="43.2198868" lon="13.0768107"><ele>291.0</ele><time>2026-04-11T07:49:44.901Z</time></trkpt><trkpt lat="43.2199325" lon="13.0770447"><ele>291.0</ele><time>2026-04-11T07:49:45.857Z</time></trkpt><trkpt lat="43.2199728" lon="13.0772741"><ele>291.0</ele><time>2026-04-11T07:49:46.841Z</time></trkpt><trkpt lat="43.2200107" lon="13.0775027"><ele>291.0</ele><time>2026-04-11T07:49:47.901Z</time></trkpt><trkpt lat="43.2200444" lon="13.0777323"><ele>290.6666666666667</ele><time>2026-04-11T07:49:48.914Z</time></trkpt><trkpt lat="43.2200826" lon="13.0779534"><ele>290.33333333333337</ele><time>2026-04-11T07:49:49.901Z</time></trkpt><trkpt lat="43.2201192" lon="13.0781732"><ele>290.0</ele><time>2026-04-11T07:49:50.874Z</time></trkpt><trkpt lat="43.2201616" lon="13.0783945"><ele>289.0</ele><time>2026-04-11T07:49:51.913Z</time></trkpt><trkpt lat="43.2202037" lon="13.0786144"><ele>288.0</ele><time>2026-04-11T07:49:52.919Z</time></trkpt><trkpt lat="43.2202507" lon="13.0788341"><ele>287.0</ele><time>2026-04-11T07:49:53.916Z</time></trkpt><trkpt lat="43.2202977" lon="13.0790501"><ele>286.0</ele><time>2026-04-11T07:49:54.893Z</time></trkpt><trkpt lat="43.2203439" lon="13.0792589"><ele>285.0</ele><time>2026-04-11T07:49:55.901Z</time></trkpt><trkpt lat="43.2203847" lon="13.0794732"><ele>284.0</ele><time>2026-04-11T07:49:56.888Z</time></trkpt><trkpt lat="43.2204177" lon="13.0796959"><ele>282.5</ele><time>2026-04-11T07:49:58.063Z</time></trkpt><trkpt lat="43.22046" lon="13.0801155"><ele>281.0</ele><time>2026-04-11T07:49:59.898Z</time></trkpt><trkpt lat="43.2204743" lon="13.0803084"><ele>281.0</ele><time>2026-04-11T07:50:00.969Z</time></trkpt><trkpt lat="43.22049" lon="13.0805001"><ele>281.0</ele><time>2026-04-11T07:50:01.917Z</time></trkpt><trkpt lat="43.2205071" lon="13.0806875"><ele>281.0</ele><time>2026-04-11T07:50:02.965Z</time></trkpt><trkpt lat="43.2205268" lon="13.0808752"><ele>281.0</ele><time>2026-04-11T07:50:03.912Z</time></trkpt><trkpt lat="43.2205509" lon="13.0810553"><ele>280.33333333333337</ele><time>2026-04-11T07:50:04.884Z</time></trkpt><trkpt lat="43.2205763" lon="13.081226"><ele>279.6666666666667</ele><time>2026-04-11T07:50:06.071Z</time></trkpt><trkpt lat="43.2206272" lon="13.0815477"><ele>279.0</ele><time>2026-04-11T07:50:07.94Z</time></trkpt><trkpt lat="43.2206522" lon="13.0816899"><ele>279.0</ele><time>2026-04-11T07:50:09.067Z</time></trkpt><trkpt lat="43.2207213" lon="13.081924"><ele>279.0</ele><time>2026-04-11T07:50:10.979Z</time></trkpt><trkpt lat="43.2207654" lon="13.0820103"><ele>279.0</ele><time>2026-04-11T07:50:11.973Z</time></trkpt><trkpt lat="43.2208198" lon="13.0820659"><ele>279.0</ele><time>2026-04-11T07:50:12.882Z</time></trkpt><trkpt lat="43.2208766" lon="13.0821063"><ele>279.0</ele><time>2026-04-11T07:50:13.898Z</time></trkpt><trkpt lat="43.2209487" lon="13.0821707"><ele>279.0</ele><time>2026-04-11T07:50:15.894Z</time></trkpt><trkpt lat="43.2209661" lon="13.0822594"><ele>279.0</ele><time>2026-04-11T07:50:20.889Z</time></trkpt><trkpt lat="43.2209839" lon="13.0823894"><ele>279.0</ele><time>2026-04-11T07:51:52.891Z</time></trkpt><trkpt lat="43.2209925" lon="13.0822542"><ele>279.0</ele><time>2026-04-11T07:51:57.886Z</time></trkpt><trkpt lat="43.2209628" lon="13.0821296"><ele>279.0</ele><time>2026-04-11T07:51:59.91Z</time></trkpt><trkpt lat="43.2209465" lon="13.0820241"><ele>279.0</ele><time>2026-04-11T07:52:02.884Z</time></trkpt><trkpt lat="43.2208895" lon="13.0820648"><ele>278.99999999999994</ele><time>2026-04-11T08:11:01.861Z</time></trkpt><trkpt lat="43.2208543" lon="13.0821482"><ele>279.0</ele><time>2026-04-11T08:11:03.876Z</time></trkpt><trkpt lat="43.2208657" lon="13.0822429"><ele>279.0</ele><time>2026-04-11T08:11:05.868Z</time></trkpt><trkpt lat="43.2208763" lon="13.0823386"><ele>279.0</ele><time>2026-04-11T08:11:07.868Z</time></trkpt><trkpt lat="43.2209116" lon="13.0824401"><ele>279.0</ele><time>2026-04-11T08:11:09.876Z</time></trkpt><trkpt lat="43.2209809" lon="13.0824792"><ele>278.99999999999994</ele><time>2026-04-11T08:11:13.874Z</time></trkpt><trkpt lat="43.2210579" lon="13.0824481"><ele>279.0</ele><time>2026-04-11T08:11:17.86Z</time></trkpt><trkpt lat="43.2211248" lon="13.0824658"><ele>279.0</ele><time>2026-04-11T08:11:19.866Z</time></trkpt><trkpt lat="43.2211894" lon="13.0824471"><ele>279.0</ele><time>2026-04-11T08:11:21.876Z</time></trkpt><trkpt lat="43.2212305" lon="13.0823551"><ele>279.0</ele><time>2026-04-11T08:11:24.864Z</time></trkpt><trkpt lat="43.221208" lon="13.0822588"><ele>279.0</ele><time>2026-04-11T08:11:26.872Z</time></trkpt><trkpt lat="43.2211676" lon="13.0821683"><ele>279.0</ele><time>2026-04-11T08:11:28.867Z</time></trkpt><trkpt lat="43.2211118" lon="13.082105"><ele>279.0</ele><time>2026-04-11T08:11:31.87Z</time></trkpt><trkpt lat="43.22103" lon="13.082112"><ele>279.0</ele><time>2026-04-11T08:12:07.866Z</time></trkpt><trkpt lat="43.220976" lon="13.0821802"><ele>279.0</ele><time>2026-04-11T08:12:11.871Z</time></trkpt><trkpt lat="43.2208779" lon="13.082177"><ele>279.0</ele><time>2026-04-11T08:13:35.865Z</time></trkpt><trkpt lat="43.2207895" lon="13.082125"><ele>279.0</ele><time>2026-04-11T08:13:37.884Z</time></trkpt><trkpt lat="43.2207437" lon="13.0820255"><ele>279.0</ele><time>2026-04-11T08:13:39.867Z</time></trkpt><trkpt lat="43.2207238" lon="13.0819387"><ele>279.0</ele><time>2026-04-11T08:13:41.865Z</time></trkpt><trkpt lat="43.2206957" lon="13.0818376"><ele>279.0</ele><time>2026-04-11T08:13:51.87Z</time></trkpt><trkpt lat="43.2206653" lon="13.0817033"><ele>279.0</ele><time>2026-04-11T08:13:53.861Z</time></trkpt><trkpt lat="43.2206489" lon="13.0816161"><ele>279.0</ele><time>2026-04-11T08:13:54.884Z</time></trkpt><trkpt lat="43.2206303" lon="13.0815173"><ele>279.0</ele><time>2026-04-11T08:13:55.863Z</time></trkpt><trkpt lat="43.2206111" lon="13.0814007"><ele>279.0</ele><time>2026-04-11T08:13:56.866Z</time></trkpt><trkpt lat="43.2205917" lon="13.0812707"><ele>279.0</ele><time>2026-04-11T08:13:57.862Z</time></trkpt><trkpt lat="43.2205748" lon="13.0811354"><ele>278.59999999999997</ele><time>2026-04-11T08:13:58.859Z</time></trkpt><trkpt lat="43.2205564" lon="13.0810046"><ele>278.2</ele><time>2026-04-11T08:13:59.878Z</time></trkpt><trkpt lat="43.2205435" lon="13.0808729"><ele>277.79999999999995</ele><time>2026-04-11T08:14:00.858Z</time></trkpt><trkpt lat="43.2205329" lon="13.0807503"><ele>277.4</ele><time>2026-04-11T08:14:01.868Z</time></trkpt><trkpt lat="43.2205234" lon="13.0806278"><ele>277.0</ele><time>2026-04-11T08:14:02.859Z</time></trkpt><trkpt lat="43.220515" lon="13.0804945"><ele>277.8</ele><time>2026-04-11T08:14:03.864Z</time></trkpt><trkpt lat="43.2205083" lon="13.080359"><ele>278.6</ele><time>2026-04-11T08:14:04.866Z</time></trkpt><trkpt lat="43.2205038" lon="13.0802147"><ele>279.40000000000003</ele><time>2026-04-11T08:14:05.865Z</time></trkpt><trkpt lat="43.2204969" lon="13.0800677"><ele>280.2</ele><time>2026-04-11T08:14:06.859Z</time></trkpt><trkpt lat="43.2204824" lon="13.0799159"><ele>281.0</ele><time>2026-04-11T08:14:07.858Z</time></trkpt><trkpt lat="43.2204618" lon="13.0797637"><ele>281.75</ele><time>2026-04-11T08:14:08.858Z</time></trkpt><trkpt lat="43.2204329" lon="13.0796067"><ele>282.5</ele><time>2026-04-11T08:14:09.858Z</time></trkpt><trkpt lat="43.2203971" lon="13.0794439"><ele>283.25</ele><time>2026-04-11T08:14:10.862Z</time></trkpt><trkpt lat="43.2203648" lon="13.0792809"><ele>284.0</ele><time>2026-04-11T08:14:11.871Z</time></trkpt><trkpt lat="43.2203285" lon="13.0791157"><ele>284.75</ele><time>2026-04-11T08:14:12.861Z</time></trkpt><trkpt lat="43.2202886" lon="13.0789469"><ele>285.5</ele><time>2026-04-11T08:14:13.866Z</time></trkpt><trkpt lat="43.2202513" lon="13.0787726"><ele>286.25</ele><time>2026-04-11T08:14:14.866Z</time></trkpt><trkpt lat="43.2202168" lon="13.0785959"><ele>287.0</ele><time>2026-04-11T08:14:15.861Z</time></trkpt><trkpt lat="43.2201824" lon="13.0784228"><ele>287.75</ele><time>2026-04-11T08:14:16.864Z</time></trkpt><trkpt lat="43.2201517" lon="13.0782502"><ele>288.5</ele><time>2026-04-11T08:14:17.867Z</time></trkpt><trkpt lat="43.2201229" lon="13.0780743"><ele>289.25</ele><time>2026-04-11T08:14:18.864Z</time></trkpt><trkpt lat="43.2200954" lon="13.0779013"><ele>290.0</ele><time>2026-04-11T08:14:19.867Z</time></trkpt><trkpt lat="43.2200691" lon="13.0777203"><ele>290.0</ele><time>2026-04-11T08:14:20.864Z</time></trkpt><trkpt lat="43.2200439" lon="13.0775355"><ele>290.0</ele><time>2026-04-11T08:14:21.862Z</time></trkpt><trkpt lat="43.2200181" lon="13.0773408"><ele>290.0</ele><time>2026-04-11T08:14:22.903Z</time></trkpt><trkpt lat="43.2199855" lon="13.0771344"><ele>290.0</ele><time>2026-04-11T08:14:23.864Z</time></trkpt><trkpt lat="43.2199478" lon="13.0769243"><ele>290.33333333333337</ele><time>2026-04-11T08:14:24.853Z</time></trkpt><trkpt lat="43.2199066" lon="13.0767115"><ele>290.6666666666667</ele><time>2026-04-11T08:14:25.867Z</time></trkpt><trkpt lat="43.2198658" lon="13.076499"><ele>291.0</ele><time>2026-04-11T08:14:26.858Z</time></trkpt><trkpt lat="43.2198219" lon="13.0762895"><ele>289.6666666666667</ele><time>2026-04-11T08:14:27.87Z</time></trkpt><trkpt lat="43.2197776" lon="13.0760728"><ele>288.33333333333337</ele><time>2026-04-11T08:14:28.866Z</time></trkpt><trkpt lat="43.2197271" lon="13.0758594"><ele>287.0</ele><time>2026-04-11T08:14:29.865Z</time></trkpt><trkpt lat="43.21968" lon="13.0756388"><ele>287.0</ele><time>2026-04-11T08:14:30.855Z</time></trkpt><trkpt lat="43.2196344" lon="13.0754224"><ele>287.0</ele><time>2026-04-11T08:14:31.863Z</time></trkpt><trkpt lat="43.2195821" lon="13.0751962"><ele>287.0</ele><time>2026-04-11T08:14:32.86Z</time></trkpt><trkpt lat="43.2195339" lon="13.0749713"><ele>287.0</ele><time>2026-04-11T08:14:33.865Z</time></trkpt><trkpt lat="43.2194955" lon="13.0747549"><ele>287.0</ele><time>2026-04-11T08:14:34.853Z</time></trkpt><trkpt lat="43.2194549" lon="13.0745424"><ele>287.0</ele><time>2026-04-11T08:14:35.877Z</time></trkpt><trkpt lat="43.2194127" lon="13.0743317"><ele>287.0</ele><time>2026-04-11T08:14:36.866Z</time></trkpt><trkpt lat="43.2193721" lon="13.0741129"><ele>287.0</ele><time>2026-04-11T08:14:37.861Z</time></trkpt><trkpt lat="43.2193301" lon="13.0738985"><ele>287.0</ele><time>2026-04-11T08:14:38.868Z</time></trkpt><trkpt lat="43.2192858" lon="13.0736853"><ele>287.6666666666667</ele><time>2026-04-11T08:14:39.868Z</time></trkpt><trkpt lat="43.2192432" lon="13.0734772"><ele>288.3333333333333</ele><time>2026-04-11T08:14:40.867Z</time></trkpt><trkpt lat="43.2192092" lon="13.073269"><ele>289.0</ele><time>2026-04-11T08:14:41.868Z</time></trkpt><trkpt lat="43.2191867" lon="13.0730591"><ele>289.0</ele><time>2026-04-11T08:14:42.859Z</time></trkpt><trkpt lat="43.2191696" lon="13.0728456"><ele>289.0</ele><time>2026-04-11T08:14:43.881Z</time></trkpt><trkpt lat="43.219163" lon="13.072631"><ele>289.0</ele><time>2026-04-11T08:14:44.864Z</time></trkpt><trkpt lat="43.2191589" lon="13.0724083"><ele>289.0</ele><time>2026-04-11T08:14:45.859Z</time></trkpt><trkpt lat="43.2191521" lon="13.0721822"><ele>289.0</ele><time>2026-04-11T08:14:46.859Z</time></trkpt><trkpt lat="43.2191472" lon="13.0719542"><ele>289.0</ele><time>2026-04-11T08:14:47.86Z</time></trkpt><trkpt lat="43.2191442" lon="13.0717248"><ele>289.0</ele><time>2026-04-11T08:14:48.854Z</time></trkpt><trkpt lat="43.219142" lon="13.0714888"><ele>289.0</ele><time>2026-04-11T08:14:49.866Z</time></trkpt><trkpt lat="43.2191365" lon="13.0712594"><ele>289.0</ele><time>2026-04-11T08:14:50.866Z</time></trkpt><trkpt lat="43.2191301" lon="13.0710412"><ele>289.0</ele><time>2026-04-11T08:14:51.865Z</time></trkpt><trkpt lat="43.2191296" lon="13.0708424"><ele>289.0</ele><time>2026-04-11T08:14:52.864Z</time></trkpt><trkpt lat="43.2191266" lon="13.0706542"><ele>289.0</ele><time>2026-04-11T08:14:53.87Z</time></trkpt><trkpt lat="43.2191239" lon="13.0704691"><ele>289.0</ele><time>2026-04-11T08:14:54.867Z</time></trkpt><trkpt lat="43.2191176" lon="13.0702851"><ele>289.2</ele><time>2026-04-11T08:14:55.875Z</time></trkpt><trkpt lat="43.2191115" lon="13.0701167"><ele>289.4</ele><time>2026-04-11T08:14:56.862Z</time></trkpt><trkpt lat="43.2191102" lon="13.0699563"><ele>289.6</ele><time>2026-04-11T08:14:57.864Z</time></trkpt><trkpt lat="43.2191145" lon="13.0698096"><ele>289.8</ele><time>2026-04-11T08:14:58.853Z</time></trkpt><trkpt lat="43.2191159" lon="13.0696823"><ele>290.0</ele><time>2026-04-11T08:14:59.856Z</time></trkpt><trkpt lat="43.2191169" lon="13.0695692"><ele>290.0</ele><time>2026-04-11T08:15:00.863Z</time></trkpt><trkpt lat="43.2191196" lon="13.0694596"><ele>290.0</ele><time>2026-04-11T08:15:01.857Z</time></trkpt><trkpt lat="43.2191249" lon="13.0693615"><ele>290.0</ele><time>2026-04-11T08:15:02.864Z</time></trkpt><trkpt lat="43.2191301" lon="13.0692668"><ele>290.0</ele><time>2026-04-11T08:15:03.874Z</time></trkpt><trkpt lat="43.219136" lon="13.0691798"><ele>290.0</ele><time>2026-04-11T08:15:04.858Z</time></trkpt><trkpt lat="43.2191508" lon="13.0690316"><ele>290.0</ele><time>2026-04-11T08:15:06.863Z</time></trkpt><trkpt lat="43.2191622" lon="13.0689422"><ele>289.83333333333337</ele><time>2026-04-11T08:15:07.871Z</time></trkpt><trkpt lat="43.219171" lon="13.0688443"><ele>289.6666666666667</ele><time>2026-04-11T08:15:08.863Z</time></trkpt><trkpt lat="43.2191808" lon="13.068738"><ele>289.5</ele><time>2026-04-11T08:15:09.867Z</time></trkpt><trkpt lat="43.2191885" lon="13.0686198"><ele>289.3333333333333</ele><time>2026-04-11T08:15:10.87Z</time></trkpt><trkpt lat="43.2191969" lon="13.0684982"><ele>289.16666666666663</ele><time>2026-04-11T08:15:11.86Z</time></trkpt><trkpt lat="43.2192032" lon="13.0683785"><ele>289.0</ele><time>2026-04-11T08:15:12.865Z</time></trkpt><trkpt lat="43.2192024" lon="13.06826"><ele>289.3333333333333</ele><time>2026-04-11T08:15:13.868Z</time></trkpt><trkpt lat="43.2191945" lon="13.0681484"><ele>289.66666666666663</ele><time>2026-04-11T08:15:14.853Z</time></trkpt><trkpt lat="43.2191791" lon="13.0680441"><ele>290.0</ele><time>2026-04-11T08:15:15.861Z</time></trkpt><trkpt lat="43.2191559" lon="13.0679448"><ele>290.3333333333333</ele><time>2026-04-11T08:15:16.867Z</time></trkpt><trkpt lat="43.2191342" lon="13.067849"><ele>290.6666666666667</ele><time>2026-04-11T08:15:17.872Z</time></trkpt><trkpt lat="43.2191146" lon="13.0677543"><ele>291.0</ele><time>2026-04-11T08:15:18.863Z</time></trkpt><trkpt lat="43.2191036" lon="13.0676602"><ele>291.0</ele><time>2026-04-11T08:15:19.874Z</time></trkpt><trkpt lat="43.2190812" lon="13.0675644"><ele>291.0</ele><time>2026-04-11T08:15:20.861Z</time></trkpt><trkpt lat="43.2190573" lon="13.0674615"><ele>291.0</ele><time>2026-04-11T08:15:21.866Z</time></trkpt><trkpt lat="43.2190356" lon="13.0673544"><ele>291.0</ele><time>2026-04-11T08:15:22.862Z</time></trkpt><trkpt lat="43.2190076" lon="13.067242"><ele>291.0</ele><time>2026-04-11T08:15:23.866Z</time></trkpt><trkpt lat="43.2189784" lon="13.0671156"><ele>291.0</ele><time>2026-04-11T08:15:24.863Z</time></trkpt><trkpt lat="43.2189451" lon="13.0669824"><ele>291.2</ele><time>2026-04-11T08:15:25.857Z</time></trkpt><trkpt lat="43.2189114" lon="13.0668452"><ele>291.40000000000003</ele><time>2026-04-11T08:15:26.858Z</time></trkpt><trkpt lat="43.2188773" lon="13.0667076"><ele>291.6</ele><time>2026-04-11T08:15:27.869Z</time></trkpt><trkpt lat="43.2188343" lon="13.0665699"><ele>291.8</ele><time>2026-04-11T08:15:28.869Z</time></trkpt><trkpt lat="43.218784" lon="13.0664421"><ele>292.0</ele><time>2026-04-11T08:15:29.864Z</time></trkpt><trkpt lat="43.2187195" lon="13.0663247"><ele>292.0</ele><time>2026-04-11T08:15:30.863Z</time></trkpt><trkpt lat="43.2186458" lon="13.0662176"><ele>292.0</ele><time>2026-04-11T08:15:31.86Z</time></trkpt><trkpt lat="43.2185625" lon="13.0661057"><ele>292.0</ele><time>2026-04-11T08:15:32.86Z</time></trkpt><trkpt lat="43.2184739" lon="13.0659859"><ele>292.0</ele><time>2026-04-11T08:15:33.857Z</time></trkpt><trkpt lat="43.2183813" lon="13.0658665"><ele>292.6</ele><time>2026-04-11T08:15:34.876Z</time></trkpt><trkpt lat="43.2182979" lon="13.0657548"><ele>293.2</ele><time>2026-04-11T08:15:35.862Z</time></trkpt><trkpt lat="43.2182176" lon="13.0656604"><ele>293.8</ele><time>2026-04-11T08:15:36.863Z</time></trkpt><trkpt lat="43.2181401" lon="13.0655569"><ele>294.4</ele><time>2026-04-11T08:15:37.863Z</time></trkpt><trkpt lat="43.2180614" lon="13.0654449"><ele>295.0</ele><time>2026-04-11T08:15:38.872Z</time></trkpt><trkpt lat="43.217984" lon="13.0653225"><ele>294.0</ele><time>2026-04-11T08:15:39.868Z</time></trkpt><trkpt lat="43.2179104" lon="13.065195"><ele>293.0</ele><time>2026-04-11T08:15:40.867Z</time></trkpt><trkpt lat="43.2178395" lon="13.0650621"><ele>292.0</ele><time>2026-04-11T08:15:41.87Z</time></trkpt><trkpt lat="43.2177762" lon="13.0649136"><ele>291.0</ele><time>2026-04-11T08:15:42.869Z</time></trkpt><trkpt lat="43.2177214" lon="13.0647562"><ele>291.0</ele><time>2026-04-11T08:15:43.86Z</time></trkpt><trkpt lat="43.2176758" lon="13.0645977"><ele>291.0</ele><time>2026-04-11T08:15:44.869Z</time></trkpt><trkpt lat="43.2176307" lon="13.0644397"><ele>291.0</ele><time>2026-04-11T08:15:45.868Z</time></trkpt><trkpt lat="43.2175885" lon="13.0642857"><ele>291.0</ele><time>2026-04-11T08:15:46.858Z</time></trkpt><trkpt lat="43.2175427" lon="13.0641248"><ele>292.25</ele><time>2026-04-11T08:15:47.873Z</time></trkpt><trkpt lat="43.2174945" lon="13.0639599"><ele>293.5</ele><time>2026-04-11T08:15:48.865Z</time></trkpt><trkpt lat="43.2174385" lon="13.0637885"><ele>294.75</ele><time>2026-04-11T08:15:49.888Z</time></trkpt><trkpt lat="43.2173714" lon="13.0636112"><ele>296.0</ele><time>2026-04-11T08:15:50.858Z</time></trkpt><trkpt lat="43.2172843" lon="13.0634399"><ele>295.0</ele><time>2026-04-11T08:15:51.869Z</time></trkpt><trkpt lat="43.2171863" lon="13.0632825"><ele>294.0</ele><time>2026-04-11T08:15:52.864Z</time></trkpt><trkpt lat="43.2170782" lon="13.0631311"><ele>293.0</ele><time>2026-04-11T08:15:53.858Z</time></trkpt><trkpt lat="43.2169725" lon="13.0629816"><ele>293.0</ele><time>2026-04-11T08:15:54.851Z</time></trkpt><trkpt lat="43.2168674" lon="13.0628337"><ele>293.0</ele><time>2026-04-11T08:15:55.857Z</time></trkpt><trkpt lat="43.2167631" lon="13.0626854"><ele>293.0</ele><time>2026-04-11T08:15:56.851Z</time></trkpt><trkpt lat="43.2166596" lon="13.0625437"><ele>293.0</ele><time>2026-04-11T08:15:57.86Z</time></trkpt><trkpt lat="43.2165533" lon="13.0624053"><ele>293.0</ele><time>2026-04-11T08:15:58.85Z</time></trkpt><trkpt lat="43.2164511" lon="13.0622843"><ele>293.0</ele><time>2026-04-11T08:15:59.858Z</time></trkpt><trkpt lat="43.216346" lon="13.0621772"><ele>293.0</ele><time>2026-04-11T08:16:00.846Z</time></trkpt><trkpt lat="43.2162418" lon="13.062089"><ele>293.0</ele><time>2026-04-11T08:16:01.855Z</time></trkpt><trkpt lat="43.2161343" lon="13.0620114"><ele>293.0</ele><time>2026-04-11T08:16:02.854Z</time></trkpt><trkpt lat="43.2160266" lon="13.0619453"><ele>293.0</ele><time>2026-04-11T08:16:03.852Z</time></trkpt><trkpt lat="43.215924" lon="13.0618915"><ele>293.0</ele><time>2026-04-11T08:16:04.852Z</time></trkpt><trkpt lat="43.21582" lon="13.0618381"><ele>293.0</ele><time>2026-04-11T08:16:05.85Z</time></trkpt><trkpt lat="43.2157141" lon="13.0617899"><ele>293.25</ele><time>2026-04-11T08:16:06.852Z</time></trkpt><trkpt lat="43.2156072" lon="13.0617437"><ele>293.5</ele><time>2026-04-11T08:16:07.851Z</time></trkpt><trkpt lat="43.2155026" lon="13.0616834"><ele>293.75</ele><time>2026-04-11T08:16:08.858Z</time></trkpt><trkpt lat="43.2153975" lon="13.0616025"><ele>294.0</ele><time>2026-04-11T08:16:09.854Z</time></trkpt><trkpt lat="43.2152973" lon="13.0614962"><ele>294.0</ele><time>2026-04-11T08:16:10.861Z</time></trkpt><trkpt lat="43.2151984" lon="13.061369"><ele>294.0</ele><time>2026-04-11T08:16:11.852Z</time></trkpt><trkpt lat="43.2150958" lon="13.0612366"><ele>294.0</ele><time>2026-04-11T08:16:12.847Z</time></trkpt><trkpt lat="43.214984" lon="13.0611004"><ele>294.0</ele><time>2026-04-11T08:16:13.854Z</time></trkpt><trkpt lat="43.2148707" lon="13.0609638"><ele>293.0</ele><time>2026-04-11T08:16:14.844Z</time></trkpt><trkpt lat="43.2147573" lon="13.0608279"><ele>292.0</ele><time>2026-04-11T08:16:15.859Z</time></trkpt><trkpt lat="43.2146478" lon="13.060694"><ele>291.0</ele><time>2026-04-11T08:16:16.851Z</time></trkpt><trkpt lat="43.214543" lon="13.0605645"><ele>290.0</ele><time>2026-04-11T08:16:17.857Z</time></trkpt><trkpt lat="43.2144363" lon="13.0604413"><ele>290.0</ele><time>2026-04-11T08:16:18.847Z</time></trkpt><trkpt lat="43.2143294" lon="13.0603282"><ele>290.0</ele><time>2026-04-11T08:16:19.867Z</time></trkpt><trkpt lat="43.2142191" lon="13.0602327"><ele>290.0</ele><time>2026-04-11T08:16:20.847Z</time></trkpt><trkpt lat="43.2140992" lon="13.060155"><ele>290.0</ele><time>2026-04-11T08:16:21.842Z</time></trkpt><trkpt lat="43.2139764" lon="13.0600969"><ele>290.0</ele><time>2026-04-11T08:16:22.848Z</time></trkpt><trkpt lat="43.2138523" lon="13.0600625"><ele>290.0</ele><time>2026-04-11T08:16:23.857Z</time></trkpt><trkpt lat="43.2137252" lon="13.0600427"><ele>290.0</ele><time>2026-04-11T08:16:24.857Z</time></trkpt><trkpt lat="43.2135897" lon="13.0600446"><ele>290.0</ele><time>2026-04-11T08:16:25.848Z</time></trkpt><trkpt lat="43.2134536" lon="13.0600552"><ele>290.0</ele><time>2026-04-11T08:16:26.849Z</time></trkpt><trkpt lat="43.2133131" lon="13.0600669"><ele>290.0</ele><time>2026-04-11T08:16:27.856Z</time></trkpt><trkpt lat="43.2131738" lon="13.0600784"><ele>290.0</ele><time>2026-04-11T08:16:28.847Z</time></trkpt><trkpt lat="43.2130367" lon="13.0600831"><ele>290.0</ele><time>2026-04-11T08:16:29.852Z</time></trkpt><trkpt lat="43.2128989" lon="13.060094"><ele>290.25</ele><time>2026-04-11T08:16:30.855Z</time></trkpt><trkpt lat="43.2127587" lon="13.0601059"><ele>290.5</ele><time>2026-04-11T08:16:31.86Z</time></trkpt><trkpt lat="43.2126179" lon="13.0601177"><ele>290.75</ele><time>2026-04-11T08:16:32.858Z</time></trkpt><trkpt lat="43.212476" lon="13.0601232"><ele>291.0</ele><time>2026-04-11T08:16:33.845Z</time></trkpt><trkpt lat="43.2123337" lon="13.0601242"><ele>290.25</ele><time>2026-04-11T08:16:34.855Z</time></trkpt><trkpt lat="43.2121961" lon="13.0601135"><ele>289.5</ele><time>2026-04-11T08:16:35.853Z</time></trkpt><trkpt lat="43.2120577" lon="13.0601003"><ele>288.75</ele><time>2026-04-11T08:16:36.848Z</time></trkpt><trkpt lat="43.2119255" lon="13.0600836"><ele>288.0</ele><time>2026-04-11T08:16:37.843Z</time></trkpt><trkpt lat="43.2117982" lon="13.0600527"><ele>288.0</ele><time>2026-04-11T08:16:38.836Z</time></trkpt><trkpt lat="43.211678" lon="13.0600092"><ele>288.0</ele><time>2026-04-11T08:16:39.847Z</time></trkpt><trkpt lat="43.2115643" lon="13.0599633"><ele>288.0</ele><time>2026-04-11T08:16:40.85Z</time></trkpt><trkpt lat="43.2114542" lon="13.0599135"><ele>288.0</ele><time>2026-04-11T08:16:41.844Z</time></trkpt><trkpt lat="43.2113403" lon="13.05986"><ele>290.5</ele><time>2026-04-11T08:16:42.854Z</time></trkpt><trkpt lat="43.2112233" lon="13.0598216"><ele>293.0</ele><time>2026-04-11T08:16:43.849Z</time></trkpt><trkpt lat="43.2111034" lon="13.0598043"><ele>295.5</ele><time>2026-04-11T08:16:44.848Z</time></trkpt><trkpt lat="43.2109828" lon="13.0598094"><ele>298.0</ele><time>2026-04-11T08:16:45.86Z</time></trkpt><trkpt lat="43.2108596" lon="13.0598225"><ele>298.0</ele><time>2026-04-11T08:16:46.858Z</time></trkpt><trkpt lat="43.2107397" lon="13.0598266"><ele>298.0</ele><time>2026-04-11T08:16:47.852Z</time></trkpt><trkpt lat="43.2106186" lon="13.0598345"><ele>298.0</ele><time>2026-04-11T08:16:48.849Z</time></trkpt><trkpt lat="43.2105021" lon="13.0598336"><ele>298.0</ele><time>2026-04-11T08:16:49.844Z</time></trkpt><trkpt lat="43.2103882" lon="13.0598149"><ele>297.6</ele><time>2026-04-11T08:16:50.845Z</time></trkpt><trkpt lat="43.2102856" lon="13.0597854"><ele>297.20000000000005</ele><time>2026-04-11T08:16:51.848Z</time></trkpt><trkpt lat="43.2101924" lon="13.0597556"><ele>296.8</ele><time>2026-04-11T08:16:52.854Z</time></trkpt><trkpt lat="43.2101243" lon="13.0597209"><ele>296.40000000000003</ele><time>2026-04-11T08:16:53.853Z</time></trkpt><trkpt lat="43.2100276" lon="13.0596721"><ele>296.0</ele><time>2026-04-11T08:16:55.873Z</time></trkpt><trkpt lat="43.2099368" lon="13.0596014"><ele>296.0</ele><time>2026-04-11T08:16:57.869Z</time></trkpt><trkpt lat="43.2098839" lon="13.0595536"><ele>296.0</ele><time>2026-04-11T08:16:58.865Z</time></trkpt><trkpt lat="43.2098338" lon="13.0594922"><ele>296.0</ele><time>2026-04-11T08:16:59.86Z</time></trkpt><trkpt lat="43.2097797" lon="13.0594317"><ele>296.0</ele><time>2026-04-11T08:17:00.854Z</time></trkpt><trkpt lat="43.2097255" lon="13.0593727"><ele>296.0</ele><time>2026-04-11T08:17:01.858Z</time></trkpt><trkpt lat="43.2096739" lon="13.0593169"><ele>296.0</ele><time>2026-04-11T08:17:02.85Z</time></trkpt><trkpt lat="43.2095935" lon="13.0592155"><ele>296.0</ele><time>2026-04-11T08:17:04.852Z</time></trkpt><trkpt lat="43.2095429" lon="13.0591522"><ele>296.5</ele><time>2026-04-11T08:17:06.851Z</time></trkpt><trkpt lat="43.2094951" lon="13.059086"><ele>297.0</ele><time>2026-04-11T08:17:09.852Z</time></trkpt><trkpt lat="43.2094312" lon="13.0590229"><ele>297.5</ele><time>2026-04-11T08:17:12.84Z</time></trkpt><trkpt lat="43.2093769" lon="13.058948"><ele>298.0</ele><time>2026-04-11T08:17:15.853Z</time></trkpt><trkpt lat="43.2092935" lon="13.0588519"><ele>298.5</ele><time>2026-04-11T08:17:17.85Z</time></trkpt><trkpt lat="43.2092409" lon="13.0587839"><ele>299.0</ele><time>2026-04-11T08:17:18.855Z</time></trkpt><trkpt lat="43.2091754" lon="13.0587052"><ele>299.0</ele><time>2026-04-11T08:17:19.846Z</time></trkpt><trkpt lat="43.2091007" lon="13.058609"><ele>299.0</ele><time>2026-04-11T08:17:20.845Z</time></trkpt><trkpt lat="43.2090141" lon="13.0585046"><ele>299.0</ele><time>2026-04-11T08:17:21.859Z</time></trkpt><trkpt lat="43.2089193" lon="13.0583865"><ele>299.0</ele><time>2026-04-11T08:17:22.841Z</time></trkpt><trkpt lat="43.2088157" lon="13.0582576"><ele>301.75</ele><time>2026-04-11T08:17:23.861Z</time></trkpt><trkpt lat="43.2087052" lon="13.0581201"><ele>304.5</ele><time>2026-04-11T08:17:24.85Z</time></trkpt><trkpt lat="43.2085911" lon="13.0579907"><ele>307.25</ele><time>2026-04-11T08:17:25.849Z</time></trkpt><trkpt lat="43.2084655" lon="13.0578923"><ele>310.0</ele><time>2026-04-11T08:17:26.842Z</time></trkpt><trkpt lat="43.2083333" lon="13.0578282"><ele>310.0</ele><time>2026-04-11T08:17:27.843Z</time></trkpt><trkpt lat="43.2082032" lon="13.0577753"><ele>310.0</ele><time>2026-04-11T08:17:28.849Z</time></trkpt><trkpt lat="43.2080839" lon="13.057723"><ele>310.0</ele><time>2026-04-11T08:17:29.85Z</time></trkpt><trkpt lat="43.2079795" lon="13.0576808"><ele>310.0</ele><time>2026-04-11T08:17:30.845Z</time></trkpt><trkpt lat="43.2078843" lon="13.0576435"><ele>310.0</ele><time>2026-04-11T08:17:31.868Z</time></trkpt><trkpt lat="43.207797" lon="13.0576058"><ele>310.0</ele><time>2026-04-11T08:17:32.841Z</time></trkpt><trkpt lat="43.2077181" lon="13.0575608"><ele>310.0</ele><time>2026-04-11T08:17:33.854Z</time></trkpt><trkpt lat="43.2076557" lon="13.0574996"><ele>310.0</ele><time>2026-04-11T08:17:34.844Z</time></trkpt><trkpt lat="43.2075968" lon="13.0574281"><ele>310.0</ele><time>2026-04-11T08:17:35.844Z</time></trkpt><trkpt lat="43.2075182" lon="13.057377"><ele>310.0</ele><time>2026-04-11T08:17:36.848Z</time></trkpt><trkpt lat="43.2074182" lon="13.057362"><ele>310.5</ele><time>2026-04-11T08:17:37.862Z</time></trkpt><trkpt lat="43.2073078" lon="13.0573366"><ele>311.0</ele><time>2026-04-11T08:17:38.845Z</time></trkpt><trkpt lat="43.2071867" lon="13.0573021"><ele>311.5</ele><time>2026-04-11T08:17:39.855Z</time></trkpt><trkpt lat="43.2070647" lon="13.0572465"><ele>312.0</ele><time>2026-04-11T08:17:40.851Z</time></trkpt><trkpt lat="43.2069407" lon="13.0571899"><ele>312.0</ele><time>2026-04-11T08:17:41.857Z</time></trkpt><trkpt lat="43.2068208" lon="13.0571345"><ele>312.0</ele><time>2026-04-11T08:17:42.847Z</time></trkpt><trkpt lat="43.2067018" lon="13.0570813"><ele>312.0</ele><time>2026-04-11T08:17:43.854Z</time></trkpt><trkpt lat="43.2065821" lon="13.0570302"><ele>312.0</ele><time>2026-04-11T08:17:44.856Z</time></trkpt><trkpt lat="43.2064632" lon="13.0569818"><ele>311.5</ele><time>2026-04-11T08:17:45.851Z</time></trkpt><trkpt lat="43.2063551" lon="13.0569299"><ele>311.0</ele><time>2026-04-11T08:17:46.845Z</time></trkpt><trkpt lat="43.2062396" lon="13.0568783"><ele>310.5</ele><time>2026-04-11T08:17:47.847Z</time></trkpt><trkpt lat="43.2061161" lon="13.0568277"><ele>310.0</ele><time>2026-04-11T08:17:48.849Z</time></trkpt><trkpt lat="43.2059807" lon="13.0567665"><ele>310.0</ele><time>2026-04-11T08:17:49.85Z</time></trkpt><trkpt lat="43.2058342" lon="13.0566978"><ele>310.0</ele><time>2026-04-11T08:17:50.851Z</time></trkpt><trkpt lat="43.2056952" lon="13.0566006"><ele>310.0</ele><time>2026-04-11T08:17:51.849Z</time></trkpt><trkpt lat="43.2055596" lon="13.0564503"><ele>309.66666666666663</ele><time>2026-04-11T08:17:52.853Z</time></trkpt><trkpt lat="43.2054349" lon="13.0562563"><ele>309.3333333333333</ele><time>2026-04-11T08:17:53.851Z</time></trkpt><trkpt lat="43.2053174" lon="13.0560402"><ele>309.0</ele><time>2026-04-11T08:17:54.844Z</time></trkpt><trkpt lat="43.2052003" lon="13.0558355"><ele>310.3333333333333</ele><time>2026-04-11T08:17:55.847Z</time></trkpt><trkpt lat="43.2050746" lon="13.055648"><ele>311.66666666666663</ele><time>2026-04-11T08:17:56.842Z</time></trkpt><trkpt lat="43.2049428" lon="13.0554725"><ele>313.0</ele><time>2026-04-11T08:17:57.853Z</time></trkpt><trkpt lat="43.2048117" lon="13.0553192"><ele>314.5</ele><time>2026-04-11T08:17:58.842Z</time></trkpt><trkpt lat="43.2046826" lon="13.0551928"><ele>316.0</ele><time>2026-04-11T08:17:59.858Z</time></trkpt><trkpt lat="43.2045612" lon="13.0550785"><ele>317.5</ele><time>2026-04-11T08:18:00.846Z</time></trkpt><trkpt lat="43.2044539" lon="13.0549658"><ele>319.0</ele><time>2026-04-11T08:18:01.842Z</time></trkpt><trkpt lat="43.2043784" lon="13.0548398"><ele>319.0</ele><time>2026-04-11T08:18:02.855Z</time></trkpt><trkpt lat="43.2043344" lon="13.0547202"><ele>319.0</ele><time>2026-04-11T08:18:03.851Z</time></trkpt><trkpt lat="43.2043048" lon="13.0546122"><ele>319.0</ele><time>2026-04-11T08:18:04.851Z</time></trkpt><trkpt lat="43.2042807" lon="13.0545123"><ele>319.0</ele><time>2026-04-11T08:18:05.842Z</time></trkpt><trkpt lat="43.2042352" lon="13.0544439"><ele>319.0</ele><time>2026-04-11T08:18:06.853Z</time></trkpt><trkpt lat="43.2041627" lon="13.0543955"><ele>319.0</ele><time>2026-04-11T08:18:07.844Z</time></trkpt><trkpt lat="43.2040669" lon="13.0543594"><ele>318.75</ele><time>2026-04-11T08:18:08.845Z</time></trkpt><trkpt lat="43.2039477" lon="13.0543435"><ele>318.5</ele><time>2026-04-11T08:18:09.848Z</time></trkpt><trkpt lat="43.2038171" lon="13.0543329"><ele>318.25</ele><time>2026-04-11T08:18:10.849Z</time></trkpt><trkpt lat="43.20368" lon="13.0543287"><ele>318.0</ele><time>2026-04-11T08:18:11.859Z</time></trkpt><trkpt lat="43.2035443" lon="13.0543213"><ele>318.0</ele><time>2026-04-11T08:18:12.847Z</time></trkpt><trkpt lat="43.2034141" lon="13.0543243"><ele>318.0</ele><time>2026-04-11T08:18:13.852Z</time></trkpt><trkpt lat="43.2032855" lon="13.0543417"><ele>318.0</ele><time>2026-04-11T08:18:14.844Z</time></trkpt><trkpt lat="43.2031603" lon="13.0543567"><ele>318.0</ele><time>2026-04-11T08:18:15.851Z</time></trkpt><trkpt lat="43.203036" lon="13.0543734"><ele>318.5</ele><time>2026-04-11T08:18:16.847Z</time></trkpt><trkpt lat="43.2029143" lon="13.0543892"><ele>319.0</ele><time>2026-04-11T08:18:17.853Z</time></trkpt><trkpt lat="43.2027825" lon="13.0544058"><ele>319.5</ele><time>2026-04-11T08:18:18.864Z</time></trkpt><trkpt lat="43.2026426" lon="13.054416"><ele>320.0</ele><time>2026-04-11T08:18:19.855Z</time></trkpt><trkpt lat="43.2025" lon="13.0544166"><ele>320.0</ele><time>2026-04-11T08:18:20.846Z</time></trkpt><trkpt lat="43.2023518" lon="13.0544057"><ele>320.0</ele><time>2026-04-11T08:18:21.851Z</time></trkpt><trkpt lat="43.2021934" lon="13.0543815"><ele>320.0</ele><time>2026-04-11T08:18:22.853Z</time></trkpt><trkpt lat="43.2020272" lon="13.0543328"><ele>320.6666666666667</ele><time>2026-04-11T08:18:23.856Z</time></trkpt><trkpt lat="43.2018707" lon="13.0542695"><ele>321.3333333333333</ele><time>2026-04-11T08:18:24.858Z</time></trkpt><trkpt lat="43.2017202" lon="13.054195"><ele>322.0</ele><time>2026-04-11T08:18:25.853Z</time></trkpt><trkpt lat="43.2015895" lon="13.0541205"><ele>320.0</ele><time>2026-04-11T08:18:26.845Z</time></trkpt><trkpt lat="43.2014667" lon="13.0540485"><ele>318.0</ele><time>2026-04-11T08:18:27.849Z</time></trkpt><trkpt lat="43.2013398" lon="13.053968"><ele>316.0</ele><time>2026-04-11T08:18:28.853Z</time></trkpt><trkpt lat="43.2012212" lon="13.0538828"><ele>314.0</ele><time>2026-04-11T08:18:29.852Z</time></trkpt><trkpt lat="43.2010945" lon="13.0537936"><ele>314.0</ele><time>2026-04-11T08:18:30.847Z</time></trkpt><trkpt lat="43.2009646" lon="13.0537047"><ele>314.0</ele><time>2026-04-11T08:18:31.852Z</time></trkpt><trkpt lat="43.2008401" lon="13.0536203"><ele>314.0</ele><time>2026-04-11T08:18:32.858Z</time></trkpt><trkpt lat="43.2007117" lon="13.0535312"><ele>314.0</ele><time>2026-04-11T08:18:33.845Z</time></trkpt><trkpt lat="43.2005817" lon="13.0534499"><ele>313.75</ele><time>2026-04-11T08:18:34.853Z</time></trkpt><trkpt lat="43.2004547" lon="13.053363"><ele>313.5</ele><time>2026-04-11T08:18:35.844Z</time></trkpt><trkpt lat="43.2003292" lon="13.0532634"><ele>313.25</ele><time>2026-04-11T08:18:36.856Z</time></trkpt><trkpt lat="43.2002039" lon="13.0531712"><ele>313.0</ele><time>2026-04-11T08:18:37.854Z</time></trkpt><trkpt lat="43.2000817" lon="13.0530702"><ele>313.0</ele><time>2026-04-11T08:18:38.851Z</time></trkpt><trkpt lat="43.1999617" lon="13.0529616"><ele>313.0</ele><time>2026-04-11T08:18:39.85Z</time></trkpt><trkpt lat="43.1998551" lon="13.0528467"><ele>313.0</ele><time>2026-04-11T08:18:40.866Z</time></trkpt><trkpt lat="43.1997482" lon="13.0527235"><ele>313.0</ele><time>2026-04-11T08:18:41.849Z</time></trkpt><trkpt lat="43.1996381" lon="13.0526051"><ele>312.25</ele><time>2026-04-11T08:18:42.852Z</time></trkpt><trkpt lat="43.1995248" lon="13.052486"><ele>311.5</ele><time>2026-04-11T08:18:43.851Z</time></trkpt><trkpt lat="43.1994095" lon="13.0523631"><ele>310.75</ele><time>2026-04-11T08:18:44.851Z</time></trkpt><trkpt lat="43.1992938" lon="13.0522413"><ele>310.0</ele><time>2026-04-11T08:18:45.848Z</time></trkpt><trkpt lat="43.199175" lon="13.0521085"><ele>310.0</ele><time>2026-04-11T08:18:46.851Z</time></trkpt><trkpt lat="43.1990565" lon="13.0519753"><ele>310.0</ele><time>2026-04-11T08:18:47.859Z</time></trkpt><trkpt lat="43.1989337" lon="13.0518376"><ele>310.0</ele><time>2026-04-11T08:18:48.851Z</time></trkpt><trkpt lat="43.1988056" lon="13.0517023"><ele>308.66666666666663</ele><time>2026-04-11T08:18:49.864Z</time></trkpt><trkpt lat="43.1986754" lon="13.0515592"><ele>307.3333333333333</ele><time>2026-04-11T08:18:50.863Z</time></trkpt><trkpt lat="43.1985446" lon="13.0514058"><ele>306.0</ele><time>2026-04-11T08:18:51.847Z</time></trkpt><trkpt lat="43.1984001" lon="13.0512427"><ele>306.0</ele><time>2026-04-11T08:18:52.858Z</time></trkpt><trkpt lat="43.1982526" lon="13.0510842"><ele>306.0</ele><time>2026-04-11T08:18:53.853Z</time></trkpt><trkpt lat="43.1980994" lon="13.050924"><ele>306.0</ele><time>2026-04-11T08:18:54.857Z</time></trkpt><trkpt lat="43.1979468" lon="13.050762"><ele>307.3333333333333</ele><time>2026-04-11T08:18:55.859Z</time></trkpt><trkpt lat="43.1978025" lon="13.0506071"><ele>308.66666666666663</ele><time>2026-04-11T08:18:56.851Z</time></trkpt><trkpt lat="43.1976714" lon="13.0504703"><ele>310.0</ele><time>2026-04-11T08:18:57.845Z</time></trkpt><trkpt lat="43.1975465" lon="13.0503519"><ele>310.0</ele><time>2026-04-11T08:18:58.852Z</time></trkpt><trkpt lat="43.1974216" lon="13.0502479"><ele>310.0</ele><time>2026-04-11T08:18:59.851Z</time></trkpt><trkpt lat="43.1973013" lon="13.0501519"><ele>310.0</ele><time>2026-04-11T08:19:00.843Z</time></trkpt><trkpt lat="43.1971805" lon="13.050057"><ele>310.0</ele><time>2026-04-11T08:19:01.851Z</time></trkpt><trkpt lat="43.1970625" lon="13.0499587"><ele>310.0</ele><time>2026-04-11T08:19:02.838Z</time></trkpt><trkpt lat="43.1969514" lon="13.0498494"><ele>310.0</ele><time>2026-04-11T08:19:03.86Z</time></trkpt><trkpt lat="43.196871" lon="13.0497116"><ele>310.0</ele><time>2026-04-11T08:19:04.846Z</time></trkpt><trkpt lat="43.1968214" lon="13.0495521"><ele>310.0</ele><time>2026-04-11T08:19:05.869Z</time></trkpt><trkpt lat="43.1967931" lon="13.0493836"><ele>310.0</ele><time>2026-04-11T08:19:06.845Z</time></trkpt><trkpt lat="43.1967784" lon="13.0492039"><ele>310.0</ele><time>2026-04-11T08:19:07.851Z</time></trkpt><trkpt lat="43.1967684" lon="13.0490195"><ele>310.0</ele><time>2026-04-11T08:19:08.846Z</time></trkpt><trkpt lat="43.1967578" lon="13.0488203"><ele>310.0</ele><time>2026-04-11T08:19:09.847Z</time></trkpt><trkpt lat="43.1967401" lon="13.0486197"><ele>311.25</ele><time>2026-04-11T08:19:10.852Z</time></trkpt><trkpt lat="43.1967062" lon="13.0484215"><ele>312.5</ele><time>2026-04-11T08:19:11.855Z</time></trkpt><trkpt lat="43.1966447" lon="13.0482414"><ele>313.75</ele><time>2026-04-11T08:19:12.849Z</time></trkpt><trkpt lat="43.1965539" lon="13.0480782"><ele>315.0</ele><time>2026-04-11T08:19:13.861Z</time></trkpt><trkpt lat="43.1964351" lon="13.047944"><ele>315.0</ele><time>2026-04-11T08:19:14.846Z</time></trkpt><trkpt lat="43.1962829" lon="13.0478445"><ele>315.0</ele><time>2026-04-11T08:19:15.846Z</time></trkpt><trkpt lat="43.1961269" lon="13.0477696"><ele>315.0</ele><time>2026-04-11T08:19:16.858Z</time></trkpt><trkpt lat="43.1959674" lon="13.0477099"><ele>315.0</ele><time>2026-04-11T08:19:17.867Z</time></trkpt><trkpt lat="43.1958078" lon="13.0476398"><ele>315.0</ele><time>2026-04-11T08:19:18.852Z</time></trkpt><trkpt lat="43.1956574" lon="13.0475503"><ele>315.0</ele><time>2026-04-11T08:19:19.847Z</time></trkpt><trkpt lat="43.1955188" lon="13.0474483"><ele>314.6666666666667</ele><time>2026-04-11T08:19:20.85Z</time></trkpt><trkpt lat="43.1953934" lon="13.0473205"><ele>314.33333333333337</ele><time>2026-04-11T08:19:21.86Z</time></trkpt><trkpt lat="43.1952698" lon="13.0471706"><ele>314.0</ele><time>2026-04-11T08:19:22.846Z</time></trkpt><trkpt lat="43.1951475" lon="13.0470044"><ele>314.0</ele><time>2026-04-11T08:19:23.862Z</time></trkpt><trkpt lat="43.1950239" lon="13.0468236"><ele>314.0</ele><time>2026-04-11T08:19:24.865Z</time></trkpt><trkpt lat="43.1948957" lon="13.0466332"><ele>314.0</ele><time>2026-04-11T08:19:25.857Z</time></trkpt><trkpt lat="43.1947651" lon="13.0464419"><ele>314.0</ele><time>2026-04-11T08:19:26.856Z</time></trkpt><trkpt lat="43.1946308" lon="13.0462511"><ele>314.0</ele><time>2026-04-11T08:19:27.847Z</time></trkpt><trkpt lat="43.1944991" lon="13.0460665"><ele>314.0</ele><time>2026-04-11T08:19:28.842Z</time></trkpt><trkpt lat="43.1943654" lon="13.0458996"><ele>313.6666666666667</ele><time>2026-04-11T08:19:29.847Z</time></trkpt><trkpt lat="43.1942382" lon="13.0457497"><ele>313.3333333333333</ele><time>2026-04-11T08:19:30.848Z</time></trkpt><trkpt lat="43.1941093" lon="13.0456185"><ele>313.0</ele><time>2026-04-11T08:19:31.859Z</time></trkpt><trkpt lat="43.1939776" lon="13.0454909"><ele>313.0</ele><time>2026-04-11T08:19:32.848Z</time></trkpt><trkpt lat="43.193844" lon="13.0453771"><ele>313.0</ele><time>2026-04-11T08:19:33.854Z</time></trkpt><trkpt lat="43.1937165" lon="13.0452645"><ele>313.0</ele><time>2026-04-11T08:19:34.849Z</time></trkpt><trkpt lat="43.1935867" lon="13.0451738"><ele>313.0</ele><time>2026-04-11T08:19:35.847Z</time></trkpt><trkpt lat="43.1934487" lon="13.0451116"><ele>313.0</ele><time>2026-04-11T08:19:36.853Z</time></trkpt><trkpt lat="43.1933049" lon="13.0450544"><ele>313.0</ele><time>2026-04-11T08:19:37.857Z</time></trkpt><trkpt lat="43.1931603" lon="13.0449857"><ele>313.0</ele><time>2026-04-11T08:19:38.841Z</time></trkpt><trkpt lat="43.193022" lon="13.0448892"><ele>313.3333333333333</ele><time>2026-04-11T08:19:39.845Z</time></trkpt><trkpt lat="43.1928883" lon="13.0447753"><ele>313.6666666666667</ele><time>2026-04-11T08:19:40.85Z</time></trkpt><trkpt lat="43.1927577" lon="13.044645"><ele>314.0</ele><time>2026-04-11T08:19:41.849Z</time></trkpt><trkpt lat="43.1926365" lon="13.0444932"><ele>314.0</ele><time>2026-04-11T08:19:42.848Z</time></trkpt><trkpt lat="43.1925275" lon="13.0443336"><ele>314.0</ele><time>2026-04-11T08:19:43.844Z</time></trkpt><trkpt lat="43.1924235" lon="13.0441529"><ele>314.0</ele><time>2026-04-11T08:19:44.849Z</time></trkpt><trkpt lat="43.1923196" lon="13.0439777"><ele>313.6666666666667</ele><time>2026-04-11T08:19:45.851Z</time></trkpt><trkpt lat="43.1922121" lon="13.0437958"><ele>313.3333333333333</ele><time>2026-04-11T08:19:46.852Z</time></trkpt><trkpt lat="43.1920971" lon="13.0436082"><ele>313.0</ele><time>2026-04-11T08:19:47.852Z</time></trkpt><trkpt lat="43.1919958" lon="13.0434161"><ele>313.66666666666663</ele><time>2026-04-11T08:19:48.85Z</time></trkpt><trkpt lat="43.1918929" lon="13.0432105"><ele>314.3333333333333</ele><time>2026-04-11T08:19:49.849Z</time></trkpt><trkpt lat="43.1917937" lon="13.0430077"><ele>315.0</ele><time>2026-04-11T08:19:50.852Z</time></trkpt><trkpt lat="43.1916911" lon="13.0428064"><ele>315.0</ele><time>2026-04-11T08:19:51.842Z</time></trkpt><trkpt lat="43.1915841" lon="13.0426241"><ele>315.0</ele><time>2026-04-11T08:19:52.847Z</time></trkpt><trkpt lat="43.1914685" lon="13.0424543"><ele>315.0</ele><time>2026-04-11T08:19:53.851Z</time></trkpt><trkpt lat="43.1913513" lon="13.0423012"><ele>315.0</ele><time>2026-04-11T08:19:54.849Z</time></trkpt><trkpt lat="43.1912375" lon="13.0421354"><ele>315.0</ele><time>2026-04-11T08:19:55.857Z</time></trkpt><trkpt lat="43.1911319" lon="13.0419631"><ele>315.0</ele><time>2026-04-11T08:19:56.853Z</time></trkpt><trkpt lat="43.19104" lon="13.0417664"><ele>315.3333333333333</ele><time>2026-04-11T08:19:57.848Z</time></trkpt><trkpt lat="43.190961" lon="13.0415647"><ele>315.66666666666663</ele><time>2026-04-11T08:19:58.854Z</time></trkpt><trkpt lat="43.1908978" lon="13.0413578"><ele>316.0</ele><time>2026-04-11T08:19:59.865Z</time></trkpt><trkpt lat="43.1908449" lon="13.0411539"><ele>316.0</ele><time>2026-04-11T08:20:00.848Z</time></trkpt><trkpt lat="43.1907898" lon="13.0409532"><ele>316.0</ele><time>2026-04-11T08:20:01.876Z</time></trkpt><trkpt lat="43.1907335" lon="13.04077"><ele>316.0</ele><time>2026-04-11T08:20:02.849Z</time></trkpt><trkpt lat="43.1906569" lon="13.0406054"><ele>316.0</ele><time>2026-04-11T08:20:03.847Z</time></trkpt><trkpt lat="43.1905478" lon="13.0404699"><ele>316.0</ele><time>2026-04-11T08:20:04.849Z</time></trkpt><trkpt lat="43.190409" lon="13.0403852"><ele>316.0</ele><time>2026-04-11T08:20:05.853Z</time></trkpt><trkpt lat="43.1902534" lon="13.0403144"><ele>316.0</ele><time>2026-04-11T08:20:06.846Z</time></trkpt><trkpt lat="43.1901109" lon="13.0402369"><ele>316.0</ele><time>2026-04-11T08:20:07.844Z</time></trkpt><trkpt lat="43.1899882" lon="13.0401153"><ele>316.0</ele><time>2026-04-11T08:20:08.863Z</time></trkpt><trkpt lat="43.189884" lon="13.0399676"><ele>316.0</ele><time>2026-04-11T08:20:09.852Z</time></trkpt><trkpt lat="43.1897881" lon="13.0397945"><ele>316.3333333333333</ele><time>2026-04-11T08:20:10.853Z</time></trkpt><trkpt lat="43.1896987" lon="13.0396129"><ele>316.6666666666667</ele><time>2026-04-11T08:20:11.853Z</time></trkpt><trkpt lat="43.1896142" lon="13.0394257"><ele>317.0</ele><time>2026-04-11T08:20:12.847Z</time></trkpt><trkpt lat="43.1895313" lon="13.0392307"><ele>318.6666666666667</ele><time>2026-04-11T08:20:13.852Z</time></trkpt><trkpt lat="43.1894453" lon="13.0390325"><ele>320.3333333333333</ele><time>2026-04-11T08:20:14.843Z</time></trkpt><trkpt lat="43.1893581" lon="13.0388348"><ele>322.0</ele><time>2026-04-11T08:20:15.851Z</time></trkpt><trkpt lat="43.1892679" lon="13.038628"><ele>322.0</ele><time>2026-04-11T08:20:16.84Z</time></trkpt><trkpt lat="43.1891795" lon="13.0384167"><ele>322.0</ele><time>2026-04-11T08:20:17.871Z</time></trkpt><trkpt lat="43.189102" lon="13.0382059"><ele>322.0</ele><time>2026-04-11T08:20:18.846Z</time></trkpt><trkpt lat="43.1890357" lon="13.0379965"><ele>322.66666666666663</ele><time>2026-04-11T08:20:19.844Z</time></trkpt><trkpt lat="43.1889778" lon="13.0377887"><ele>323.3333333333333</ele><time>2026-04-11T08:20:20.846Z</time></trkpt><trkpt lat="43.1889229" lon="13.0375786"><ele>324.0</ele><time>2026-04-11T08:20:21.834Z</time></trkpt><trkpt lat="43.188867" lon="13.0373754"><ele>324.0</ele><time>2026-04-11T08:20:22.852Z</time></trkpt><trkpt lat="43.1888013" lon="13.0371707"><ele>324.0</ele><time>2026-04-11T08:20:23.847Z</time></trkpt><trkpt lat="43.188717" lon="13.0369733"><ele>324.0</ele><time>2026-04-11T08:20:24.851Z</time></trkpt><trkpt lat="43.1886305" lon="13.0367788"><ele>325.0</ele><time>2026-04-11T08:20:25.858Z</time></trkpt><trkpt lat="43.1885341" lon="13.0366024"><ele>326.0</ele><time>2026-04-11T08:20:26.841Z</time></trkpt><trkpt lat="43.1884268" lon="13.0364453"><ele>327.0</ele><time>2026-04-11T08:20:27.852Z</time></trkpt><trkpt lat="43.1883071" lon="13.036289"><ele>327.0</ele><time>2026-04-11T08:20:28.845Z</time></trkpt><trkpt lat="43.1881914" lon="13.0361204"><ele>327.0</ele><time>2026-04-11T08:20:29.843Z</time></trkpt><trkpt lat="43.1880769" lon="13.0359544"><ele>327.0</ele><time>2026-04-11T08:20:30.857Z</time></trkpt><trkpt lat="43.1879623" lon="13.0357757"><ele>329.0</ele><time>2026-04-11T08:20:31.847Z</time></trkpt><trkpt lat="43.1878438" lon="13.0355964"><ele>331.0</ele><time>2026-04-11T08:20:32.85Z</time></trkpt><trkpt lat="43.1877244" lon="13.0354097"><ele>333.0</ele><time>2026-04-11T08:20:33.85Z</time></trkpt><trkpt lat="43.1875999" lon="13.0352258"><ele>333.0</ele><time>2026-04-11T08:20:34.846Z</time></trkpt><trkpt lat="43.187466" lon="13.035032"><ele>333.0</ele><time>2026-04-11T08:20:35.854Z</time></trkpt><trkpt lat="43.1873357" lon="13.0348393"><ele>333.0</ele><time>2026-04-11T08:20:36.857Z</time></trkpt><trkpt lat="43.1872118" lon="13.0346578"><ele>332.3333333333333</ele><time>2026-04-11T08:20:37.855Z</time></trkpt><trkpt lat="43.1870944" lon="13.0344633"><ele>331.66666666666663</ele><time>2026-04-11T08:20:38.848Z</time></trkpt><trkpt lat="43.1869951" lon="13.0342597"><ele>331.0</ele><time>2026-04-11T08:20:39.866Z</time></trkpt><trkpt lat="43.1869006" lon="13.0340485"><ele>331.0</ele><time>2026-04-11T08:20:40.852Z</time></trkpt><trkpt lat="43.1868248" lon="13.0338257"><ele>331.0</ele><time>2026-04-11T08:20:41.859Z</time></trkpt><trkpt lat="43.1867654" lon="13.0336017"><ele>331.0</ele><time>2026-04-11T08:20:42.844Z</time></trkpt><trkpt lat="43.1867257" lon="13.0333832"><ele>332.0</ele><time>2026-04-11T08:20:43.852Z</time></trkpt><trkpt lat="43.1867033" lon="13.0331576"><ele>333.0</ele><time>2026-04-11T08:20:44.847Z</time></trkpt><trkpt lat="43.1866798" lon="13.0329483"><ele>334.0</ele><time>2026-04-11T08:20:45.844Z</time></trkpt><trkpt lat="43.1866649" lon="13.0327258"><ele>334.0</ele><time>2026-04-11T08:20:46.839Z</time></trkpt><trkpt lat="43.1866381" lon="13.0325094"><ele>334.0</ele><time>2026-04-11T08:20:47.846Z</time></trkpt><trkpt lat="43.1866004" lon="13.0323053"><ele>334.0</ele><time>2026-04-11T08:20:48.845Z</time></trkpt><trkpt lat="43.1865582" lon="13.0321048"><ele>334.0</ele><time>2026-04-11T08:20:49.848Z</time></trkpt><trkpt lat="43.1865153" lon="13.031914"><ele>334.0</ele><time>2026-04-11T08:20:50.848Z</time></trkpt><trkpt lat="43.1864659" lon="13.0317262"><ele>334.0</ele><time>2026-04-11T08:20:51.843Z</time></trkpt><trkpt lat="43.1864098" lon="13.0315411"><ele>334.0</ele><time>2026-04-11T08:20:52.85Z</time></trkpt><trkpt lat="43.1863554" lon="13.0313547"><ele>333.66666666666663</ele><time>2026-04-11T08:20:53.847Z</time></trkpt><trkpt lat="43.1862949" lon="13.0311688"><ele>333.3333333333333</ele><time>2026-04-11T08:20:54.849Z</time></trkpt><trkpt lat="43.1862261" lon="13.0309839"><ele>333.0</ele><time>2026-04-11T08:20:55.858Z</time></trkpt><trkpt lat="43.1861391" lon="13.0308101"><ele>333.3333333333333</ele><time>2026-04-11T08:20:56.844Z</time></trkpt><trkpt lat="43.1860535" lon="13.0306316"><ele>333.66666666666663</ele><time>2026-04-11T08:20:57.873Z</time></trkpt><trkpt lat="43.1859689" lon="13.0304477"><ele>334.0</ele><time>2026-04-11T08:20:58.85Z</time></trkpt><trkpt lat="43.1858756" lon="13.0302623"><ele>334.0</ele><time>2026-04-11T08:20:59.853Z</time></trkpt><trkpt lat="43.1857843" lon="13.0300751"><ele>334.0</ele><time>2026-04-11T08:21:00.848Z</time></trkpt><trkpt lat="43.1856873" lon="13.0298843"><ele>334.0</ele><time>2026-04-11T08:21:01.848Z</time></trkpt><trkpt lat="43.1855943" lon="13.0296902"><ele>334.0</ele><time>2026-04-11T08:21:02.847Z</time></trkpt><trkpt lat="43.1855004" lon="13.0294948"><ele>334.0</ele><time>2026-04-11T08:21:03.852Z</time></trkpt><trkpt lat="43.1854049" lon="13.0292995"><ele>334.0</ele><time>2026-04-11T08:21:04.845Z</time></trkpt><trkpt lat="43.185312" lon="13.0291099"><ele>335.3333333333333</ele><time>2026-04-11T08:21:05.851Z</time></trkpt><trkpt lat="43.1852191" lon="13.0289199"><ele>336.6666666666667</ele><time>2026-04-11T08:21:06.838Z</time></trkpt><trkpt lat="43.1851297" lon="13.0287324"><ele>338.0</ele><time>2026-04-11T08:21:07.845Z</time></trkpt><trkpt lat="43.1850376" lon="13.028544"><ele>338.0</ele><time>2026-04-11T08:21:08.845Z</time></trkpt><trkpt lat="43.184947" lon="13.0283534"><ele>338.0</ele><time>2026-04-11T08:21:09.847Z</time></trkpt><trkpt lat="43.1848565" lon="13.028166"><ele>338.0</ele><time>2026-04-11T08:21:10.847Z</time></trkpt><trkpt lat="43.1847677" lon="13.0279777"><ele>337.6666666666667</ele><time>2026-04-11T08:21:11.844Z</time></trkpt><trkpt lat="43.1846747" lon="13.0277904"><ele>337.3333333333333</ele><time>2026-04-11T08:21:12.847Z</time></trkpt><trkpt lat="43.1845835" lon="13.0275992"><ele>337.0</ele><time>2026-04-11T08:21:13.849Z</time></trkpt><trkpt lat="43.1844918" lon="13.0274074"><ele>338.0</ele><time>2026-04-11T08:21:14.844Z</time></trkpt><trkpt lat="43.184399" lon="13.0272117"><ele>339.0</ele><time>2026-04-11T08:21:15.861Z</time></trkpt><trkpt lat="43.1843071" lon="13.027012"><ele>340.0</ele><time>2026-04-11T08:21:16.843Z</time></trkpt><trkpt lat="43.1842094" lon="13.0268082"><ele>340.0</ele><time>2026-04-11T08:21:17.85Z</time></trkpt><trkpt lat="43.184112" lon="13.0265965"><ele>340.0</ele><time>2026-04-11T08:21:18.849Z</time></trkpt><trkpt lat="43.1840158" lon="13.0263793"><ele>340.0</ele><time>2026-04-11T08:21:19.839Z</time></trkpt><trkpt lat="43.1839191" lon="13.0261493"><ele>339.66666666666663</ele><time>2026-04-11T08:21:20.842Z</time></trkpt><trkpt lat="43.1838189" lon="13.0259236"><ele>339.3333333333333</ele><time>2026-04-11T08:21:21.856Z</time></trkpt><trkpt lat="43.1837178" lon="13.0256974"><ele>339.0</ele><time>2026-04-11T08:21:22.84Z</time></trkpt><trkpt lat="43.1836221" lon="13.0254722"><ele>339.0</ele><time>2026-04-11T08:21:23.86Z</time></trkpt><trkpt lat="43.1835268" lon="13.025249"><ele>339.0</ele><time>2026-04-11T08:21:24.844Z</time></trkpt><trkpt lat="43.1834341" lon="13.0250273"><ele>339.0</ele><time>2026-04-11T08:21:25.853Z</time></trkpt><trkpt lat="43.1833366" lon="13.0248021"><ele>339.0</ele><time>2026-04-11T08:21:26.842Z</time></trkpt><trkpt lat="43.1832476" lon="13.0245799"><ele>339.0</ele><time>2026-04-11T08:21:27.847Z</time></trkpt><trkpt lat="43.1831722" lon="13.0243557"><ele>339.0</ele><time>2026-04-11T08:21:28.849Z</time></trkpt><trkpt lat="43.1831105" lon="13.0241278"><ele>340.3333333333333</ele><time>2026-04-11T08:21:29.849Z</time></trkpt><trkpt lat="43.1830656" lon="13.0239037"><ele>341.66666666666663</ele><time>2026-04-11T08:21:30.853Z</time></trkpt><trkpt lat="43.18303" lon="13.0236871"><ele>343.0</ele><time>2026-04-11T08:21:31.854Z</time></trkpt><trkpt lat="43.1829915" lon="13.0234848"><ele>343.25</ele><time>2026-04-11T08:21:32.846Z</time></trkpt><trkpt lat="43.1829606" lon="13.0233004"><ele>343.5</ele><time>2026-04-11T08:21:33.85Z</time></trkpt><trkpt lat="43.1829243" lon="13.0231247"><ele>343.75</ele><time>2026-04-11T08:21:34.853Z</time></trkpt><trkpt lat="43.1828896" lon="13.0229429"><ele>344.0</ele><time>2026-04-11T08:21:35.852Z</time></trkpt><trkpt lat="43.1828577" lon="13.0227567"><ele>344.0</ele><time>2026-04-11T08:21:36.845Z</time></trkpt><trkpt lat="43.1828241" lon="13.022573"><ele>344.0</ele><time>2026-04-11T08:21:37.845Z</time></trkpt><trkpt lat="43.1827883" lon="13.0223815"><ele>344.0</ele><time>2026-04-11T08:21:38.852Z</time></trkpt><trkpt lat="43.182753" lon="13.022187"><ele>344.0</ele><time>2026-04-11T08:21:39.853Z</time></trkpt><trkpt lat="43.1827128" lon="13.0219877"><ele>344.33333333333337</ele><time>2026-04-11T08:21:40.853Z</time></trkpt><trkpt lat="43.1826755" lon="13.021789"><ele>344.6666666666667</ele><time>2026-04-11T08:21:41.872Z</time></trkpt><trkpt lat="43.1826363" lon="13.0215838"><ele>345.0</ele><time>2026-04-11T08:21:42.849Z</time></trkpt><trkpt lat="43.1826042" lon="13.0213766"><ele>347.0</ele><time>2026-04-11T08:21:43.857Z</time></trkpt><trkpt lat="43.1825622" lon="13.0211624"><ele>349.0</ele><time>2026-04-11T08:21:44.851Z</time></trkpt><trkpt lat="43.1825214" lon="13.0209462"><ele>351.0</ele><time>2026-04-11T08:21:45.849Z</time></trkpt><trkpt lat="43.1824814" lon="13.020733"><ele>353.0</ele><time>2026-04-11T08:21:46.856Z</time></trkpt><trkpt lat="43.1824441" lon="13.0205106"><ele>355.0</ele><time>2026-04-11T08:21:47.849Z</time></trkpt><trkpt lat="43.1824133" lon="13.0202784"><ele>357.0</ele><time>2026-04-11T08:21:48.867Z</time></trkpt><trkpt lat="43.1823988" lon="13.0200511"><ele>357.6666666666667</ele><time>2026-04-11T08:21:49.857Z</time></trkpt><trkpt lat="43.1824057" lon="13.0198254"><ele>358.33333333333337</ele><time>2026-04-11T08:21:50.854Z</time></trkpt><trkpt lat="43.182427" lon="13.0195959"><ele>359.0</ele><time>2026-04-11T08:21:51.856Z</time></trkpt><trkpt lat="43.1824597" lon="13.0193721"><ele>358.33333333333337</ele><time>2026-04-11T08:21:52.839Z</time></trkpt><trkpt lat="43.1824946" lon="13.019145"><ele>357.6666666666667</ele><time>2026-04-11T08:21:53.851Z</time></trkpt><trkpt lat="43.1825274" lon="13.0189222"><ele>357.0</ele><time>2026-04-11T08:21:54.844Z</time></trkpt><trkpt lat="43.1825604" lon="13.0187103"><ele>357.0</ele><time>2026-04-11T08:21:55.85Z</time></trkpt><trkpt lat="43.18259" lon="13.0185035"><ele>357.0</ele><time>2026-04-11T08:21:56.849Z</time></trkpt><trkpt lat="43.1826173" lon="13.0183004"><ele>357.0</ele><time>2026-04-11T08:21:57.853Z</time></trkpt><trkpt lat="43.182647" lon="13.0181032"><ele>357.5</ele><time>2026-04-11T08:21:58.849Z</time></trkpt><trkpt lat="43.1826772" lon="13.0179106"><ele>358.0</ele><time>2026-04-11T08:21:59.842Z</time></trkpt><trkpt lat="43.182704" lon="13.0177141"><ele>358.5</ele><time>2026-04-11T08:22:00.844Z</time></trkpt><trkpt lat="43.1827232" lon="13.0175136"><ele>359.0</ele><time>2026-04-11T08:22:01.853Z</time></trkpt><trkpt lat="43.1827296" lon="13.017316"><ele>360.25</ele><time>2026-04-11T08:22:02.846Z</time></trkpt><trkpt lat="43.1827069" lon="13.017117"><ele>361.5</ele><time>2026-04-11T08:22:03.856Z</time></trkpt><trkpt lat="43.1826722" lon="13.0169209"><ele>362.75</ele><time>2026-04-11T08:22:04.843Z</time></trkpt><trkpt lat="43.182613" lon="13.0167265"><ele>364.0</ele><time>2026-04-11T08:22:05.856Z</time></trkpt><trkpt lat="43.1825415" lon="13.0165349"><ele>364.66666666666663</ele><time>2026-04-11T08:22:06.854Z</time></trkpt><trkpt lat="43.1824675" lon="13.0163417"><ele>365.3333333333333</ele><time>2026-04-11T08:22:07.852Z</time></trkpt><trkpt lat="43.1823967" lon="13.0161413"><ele>366.0</ele><time>2026-04-11T08:22:08.856Z</time></trkpt><trkpt lat="43.1823194" lon="13.0159425"><ele>363.3333333333333</ele><time>2026-04-11T08:22:09.85Z</time></trkpt><trkpt lat="43.1822409" lon="13.0157408"><ele>360.66666666666663</ele><time>2026-04-11T08:22:10.848Z</time></trkpt><trkpt lat="43.1821638" lon="13.0155237"><ele>358.0</ele><time>2026-04-11T08:22:11.849Z</time></trkpt><trkpt lat="43.1820809" lon="13.0153025"><ele>358.0</ele><time>2026-04-11T08:22:12.849Z</time></trkpt><trkpt lat="43.1820048" lon="13.0150771"><ele>358.0</ele><time>2026-04-11T08:22:13.835Z</time></trkpt><trkpt lat="43.1819343" lon="13.0148688"><ele>358.0</ele><time>2026-04-11T08:22:14.843Z</time></trkpt><trkpt lat="43.1818659" lon="13.01467"><ele>359.3333333333333</ele><time>2026-04-11T08:22:15.85Z</time></trkpt><trkpt lat="43.181798" lon="13.0144772"><ele>360.6666666666667</ele><time>2026-04-11T08:22:16.84Z</time></trkpt><trkpt lat="43.1817281" lon="13.0142835"><ele>362.0</ele><time>2026-04-11T08:22:17.855Z</time></trkpt><trkpt lat="43.1816455" lon="13.0140933"><ele>360.33333333333337</ele><time>2026-04-11T08:22:18.837Z</time></trkpt><trkpt lat="43.1815525" lon="13.0139072"><ele>358.6666666666667</ele><time>2026-04-11T08:22:19.854Z</time></trkpt><trkpt lat="43.1814411" lon="13.0137329"><ele>357.0</ele><time>2026-04-11T08:22:20.842Z</time></trkpt><trkpt lat="43.1813208" lon="13.0135616"><ele>357.0</ele><time>2026-04-11T08:22:21.856Z</time></trkpt><trkpt lat="43.1811996" lon="13.0133959"><ele>357.0</ele><time>2026-04-11T08:22:22.838Z</time></trkpt><trkpt lat="43.1810791" lon="13.0132415"><ele>357.0</ele><time>2026-04-11T08:22:23.842Z</time></trkpt><trkpt lat="43.18097" lon="13.0130974"><ele>358.25</ele><time>2026-04-11T08:22:24.851Z</time></trkpt><trkpt lat="43.1808594" lon="13.0129535"><ele>359.5</ele><time>2026-04-11T08:22:25.847Z</time></trkpt><trkpt lat="43.1807554" lon="13.0128122"><ele>360.75</ele><time>2026-04-11T08:22:26.847Z</time></trkpt><trkpt lat="43.1806622" lon="13.0126694"><ele>362.0</ele><time>2026-04-11T08:22:27.846Z</time></trkpt><trkpt lat="43.1805817" lon="13.0125286"><ele>359.75</ele><time>2026-04-11T08:22:28.844Z</time></trkpt><trkpt lat="43.1805124" lon="13.0123721"><ele>357.5</ele><time>2026-04-11T08:22:29.85Z</time></trkpt><trkpt lat="43.1804542" lon="13.0122102"><ele>355.25</ele><time>2026-04-11T08:22:30.839Z</time></trkpt><trkpt lat="43.1804126" lon="13.0120356"><ele>353.0</ele><time>2026-04-11T08:22:31.843Z</time></trkpt><trkpt lat="43.1803771" lon="13.011846"><ele>353.0</ele><time>2026-04-11T08:22:32.843Z</time></trkpt><trkpt lat="43.1803402" lon="13.01166"><ele>353.0</ele><time>2026-04-11T08:22:33.854Z</time></trkpt><trkpt lat="43.1802962" lon="13.0114709"><ele>353.0</ele><time>2026-04-11T08:22:34.84Z</time></trkpt><trkpt lat="43.1802344" lon="13.0112967"><ele>353.0</ele><time>2026-04-11T08:22:35.854Z</time></trkpt><trkpt lat="43.1801541" lon="13.0111284"><ele>355.0</ele><time>2026-04-11T08:22:36.845Z</time></trkpt><trkpt lat="43.1800551" lon="13.0109586"><ele>357.0</ele><time>2026-04-11T08:22:37.84Z</time></trkpt><trkpt lat="43.1799499" lon="13.0107927"><ele>359.0</ele><time>2026-04-11T08:22:38.843Z</time></trkpt><trkpt lat="43.1798525" lon="13.0106135"><ele>358.0</ele><time>2026-04-11T08:22:39.845Z</time></trkpt><trkpt lat="43.1797554" lon="13.0104251"><ele>357.0</ele><time>2026-04-11T08:22:40.851Z</time></trkpt><trkpt lat="43.1796586" lon="13.010234"><ele>356.0</ele><time>2026-04-11T08:22:41.841Z</time></trkpt><trkpt lat="43.1795646" lon="13.0100358"><ele>358.0</ele><time>2026-04-11T08:22:42.861Z</time></trkpt><trkpt lat="43.1794668" lon="13.0098328"><ele>360.0</ele><time>2026-04-11T08:22:43.843Z</time></trkpt><trkpt lat="43.1793724" lon="13.0096286"><ele>362.0</ele><time>2026-04-11T08:22:44.843Z</time></trkpt><trkpt lat="43.1792825" lon="13.0094322"><ele>362.0</ele><time>2026-04-11T08:22:45.845Z</time></trkpt><trkpt lat="43.1791941" lon="13.0092464"><ele>362.0</ele><time>2026-04-11T08:22:46.841Z</time></trkpt><trkpt lat="43.1791025" lon="13.0090629"><ele>362.0</ele><time>2026-04-11T08:22:47.844Z</time></trkpt><trkpt lat="43.1790122" lon="13.0088796"><ele>360.33333333333337</ele><time>2026-04-11T08:22:48.863Z</time></trkpt><trkpt lat="43.1789132" lon="13.0086989"><ele>358.6666666666667</ele><time>2026-04-11T08:22:49.849Z</time></trkpt><trkpt lat="43.1788067" lon="13.0085328"><ele>357.0</ele><time>2026-04-11T08:22:50.841Z</time></trkpt><trkpt lat="43.1787028" lon="13.0083798"><ele>361.0</ele><time>2026-04-11T08:22:51.846Z</time></trkpt><trkpt lat="43.1785935" lon="13.0082339"><ele>365.0</ele><time>2026-04-11T08:22:52.847Z</time></trkpt><trkpt lat="43.178485" lon="13.0080868"><ele>369.0</ele><time>2026-04-11T08:22:53.859Z</time></trkpt><trkpt lat="43.1783756" lon="13.0079437"><ele>369.0</ele><time>2026-04-11T08:22:54.847Z</time></trkpt><trkpt lat="43.1782636" lon="13.0078018"><ele>369.0</ele><time>2026-04-11T08:22:55.854Z</time></trkpt><trkpt lat="43.1781506" lon="13.0076514"><ele>369.0</ele><time>2026-04-11T08:22:56.853Z</time></trkpt><trkpt lat="43.1780393" lon="13.0075023"><ele>368.25</ele><time>2026-04-11T08:22:57.845Z</time></trkpt><trkpt lat="43.1779264" lon="13.0073557"><ele>367.5</ele><time>2026-04-11T08:22:58.849Z</time></trkpt><trkpt lat="43.1778212" lon="13.0072225"><ele>366.75</ele><time>2026-04-11T08:22:59.849Z</time></trkpt><trkpt lat="43.1777212" lon="13.0070966"><ele>366.0</ele><time>2026-04-11T08:23:00.846Z</time></trkpt><trkpt lat="43.177629" lon="13.0069747"><ele>366.0</ele><time>2026-04-11T08:23:01.844Z</time></trkpt><trkpt lat="43.1775424" lon="13.0068541"><ele>366.0</ele><time>2026-04-11T08:23:02.847Z</time></trkpt><trkpt lat="43.1774681" lon="13.0067182"><ele>366.0</ele><time>2026-04-11T08:23:03.845Z</time></trkpt><trkpt lat="43.1774089" lon="13.0065542"><ele>366.0</ele><time>2026-04-11T08:23:04.85Z</time></trkpt><trkpt lat="43.1773736" lon="13.0063738"><ele>366.0</ele><time>2026-04-11T08:23:05.845Z</time></trkpt><trkpt lat="43.1773718" lon="13.0061846"><ele>366.0</ele><time>2026-04-11T08:23:06.836Z</time></trkpt><trkpt lat="43.1773968" lon="13.0059948"><ele>366.0</ele><time>2026-04-11T08:23:07.848Z</time></trkpt><trkpt lat="43.1774454" lon="13.0058025"><ele>366.0</ele><time>2026-04-11T08:23:08.836Z</time></trkpt><trkpt lat="43.1775136" lon="13.00562"><ele>366.0</ele><time>2026-04-11T08:23:09.86Z</time></trkpt><trkpt lat="43.1775792" lon="13.0054265"><ele>366.0</ele><time>2026-04-11T08:23:10.842Z</time></trkpt><trkpt lat="43.1776388" lon="13.005222"><ele>366.0</ele><time>2026-04-11T08:23:11.838Z</time></trkpt><trkpt lat="43.1777045" lon="13.0049957"><ele>366.0</ele><time>2026-04-11T08:23:12.842Z</time></trkpt><trkpt lat="43.1777639" lon="13.0047691"><ele>366.0</ele><time>2026-04-11T08:23:13.841Z</time></trkpt><trkpt lat="43.1778054" lon="13.0045361"><ele>366.0</ele><time>2026-04-11T08:23:14.84Z</time></trkpt><trkpt lat="43.1778229" lon="13.0042992"><ele>365.0</ele><time>2026-04-11T08:23:15.842Z</time></trkpt><trkpt lat="43.1778115" lon="13.0040563"><ele>364.0</ele><time>2026-04-11T08:23:16.836Z</time></trkpt><trkpt lat="43.1777818" lon="13.0038153"><ele>363.0</ele><time>2026-04-11T08:23:17.84Z</time></trkpt><trkpt lat="43.1777423" lon="13.0035687"><ele>363.0</ele><time>2026-04-11T08:23:18.856Z</time></trkpt><trkpt lat="43.1777038" lon="13.0033347"><ele>363.0</ele><time>2026-04-11T08:23:19.844Z</time></trkpt><trkpt lat="43.1776652" lon="13.0031125"><ele>363.0</ele><time>2026-04-11T08:23:20.841Z</time></trkpt><trkpt lat="43.1776331" lon="13.0029012"><ele>363.75</ele><time>2026-04-11T08:23:21.844Z</time></trkpt><trkpt lat="43.1776017" lon="13.0027083"><ele>364.5</ele><time>2026-04-11T08:23:22.847Z</time></trkpt><trkpt lat="43.1775754" lon="13.002527"><ele>365.25</ele><time>2026-04-11T08:23:23.84Z</time></trkpt><trkpt lat="43.1775501" lon="13.0023448"><ele>366.0</ele><time>2026-04-11T08:23:24.851Z</time></trkpt><trkpt lat="43.1775326" lon="13.0021555"><ele>366.0</ele><time>2026-04-11T08:23:25.842Z</time></trkpt><trkpt lat="43.1775298" lon="13.0019607"><ele>366.0</ele><time>2026-04-11T08:23:26.841Z</time></trkpt><trkpt lat="43.1775397" lon="13.0017557"><ele>366.0</ele><time>2026-04-11T08:23:27.842Z</time></trkpt><trkpt lat="43.1775653" lon="13.0015374"><ele>366.6666666666667</ele><time>2026-04-11T08:23:28.834Z</time></trkpt><trkpt lat="43.177598" lon="13.0013226"><ele>367.33333333333337</ele><time>2026-04-11T08:23:29.839Z</time></trkpt><trkpt lat="43.1776326" lon="13.0011018"><ele>368.0</ele><time>2026-04-11T08:23:30.844Z</time></trkpt><trkpt lat="43.1776731" lon="13.0008775"><ele>369.33333333333337</ele><time>2026-04-11T08:23:31.849Z</time></trkpt><trkpt lat="43.1777133" lon="13.0006427"><ele>370.6666666666667</ele><time>2026-04-11T08:23:32.836Z</time></trkpt><trkpt lat="43.1777476" lon="13.0004033"><ele>372.0</ele><time>2026-04-11T08:23:33.844Z</time></trkpt><trkpt lat="43.1777671" lon="13.0001579"><ele>372.0</ele><time>2026-04-11T08:23:34.836Z</time></trkpt><trkpt lat="43.1777638" lon="12.9999127"><ele>372.0</ele><time>2026-04-11T08:23:35.846Z</time></trkpt><trkpt lat="43.1777432" lon="12.9996734"><ele>372.0</ele><time>2026-04-11T08:23:36.837Z</time></trkpt><trkpt lat="43.1777185" lon="12.9994459"><ele>372.0</ele><time>2026-04-11T08:23:37.842Z</time></trkpt><trkpt lat="43.1776876" lon="12.9992485"><ele>372.0</ele><time>2026-04-11T08:23:38.842Z</time></trkpt><trkpt lat="43.1776515" lon="12.9990586"><ele>372.0</ele><time>2026-04-11T08:23:39.832Z</time></trkpt><trkpt lat="43.1776069" lon="12.9988859"><ele>372.0</ele><time>2026-04-11T08:23:40.833Z</time></trkpt><trkpt lat="43.1775406" lon="12.9987325"><ele>373.25</ele><time>2026-04-11T08:23:41.833Z</time></trkpt><trkpt lat="43.1774501" lon="12.9985985"><ele>374.5</ele><time>2026-04-11T08:23:42.825Z</time></trkpt><trkpt lat="43.1773423" lon="12.9984847"><ele>375.75</ele><time>2026-04-11T08:23:43.836Z</time></trkpt><trkpt lat="43.1772191" lon="12.9983796"><ele>377.0</ele><time>2026-04-11T08:23:44.832Z</time></trkpt><trkpt lat="43.1770932" lon="12.9982764"><ele>378.25</ele><time>2026-04-11T08:23:45.845Z</time></trkpt><trkpt lat="43.176968" lon="12.9981781"><ele>379.5</ele><time>2026-04-11T08:23:46.832Z</time></trkpt><trkpt lat="43.1768522" lon="12.9980771"><ele>380.75</ele><time>2026-04-11T08:23:47.837Z</time></trkpt><trkpt lat="43.1767447" lon="12.9979685"><ele>382.0</ele><time>2026-04-11T08:23:48.841Z</time></trkpt><trkpt lat="43.1766541" lon="12.9978549"><ele>382.0</ele><time>2026-04-11T08:23:49.834Z</time></trkpt><trkpt lat="43.1765857" lon="12.9977338"><ele>382.0</ele><time>2026-04-11T08:23:50.847Z</time></trkpt><trkpt lat="43.1765411" lon="12.9975839"><ele>382.0</ele><time>2026-04-11T08:23:51.841Z</time></trkpt><trkpt lat="43.176529" lon="12.9974134"><ele>382.0</ele><time>2026-04-11T08:23:52.852Z</time></trkpt><trkpt lat="43.1765554" lon="12.9972465"><ele>381.25</ele><time>2026-04-11T08:23:53.837Z</time></trkpt><trkpt lat="43.1766111" lon="12.9970899"><ele>380.5</ele><time>2026-04-11T08:23:54.831Z</time></trkpt><trkpt lat="43.1766885" lon="12.9969402"><ele>379.75</ele><time>2026-04-11T08:23:55.839Z</time></trkpt><trkpt lat="43.1767839" lon="12.9968082"><ele>379.0</ele><time>2026-04-11T08:23:56.833Z</time></trkpt><trkpt lat="43.1768882" lon="12.9966718"><ele>386.0</ele><time>2026-04-11T08:23:57.844Z</time></trkpt><trkpt lat="43.1769994" lon="12.9965341"><ele>393.0</ele><time>2026-04-11T08:23:58.832Z</time></trkpt><trkpt lat="43.1771151" lon="12.9963898"><ele>400.0</ele><time>2026-04-11T08:23:59.839Z</time></trkpt><trkpt lat="43.1772255" lon="12.9962458"><ele>400.0</ele><time>2026-04-11T08:24:00.837Z</time></trkpt><trkpt lat="43.1773354" lon="12.9960949"><ele>400.0</ele><time>2026-04-11T08:24:01.839Z</time></trkpt><trkpt lat="43.1774266" lon="12.9959513"><ele>400.0</ele><time>2026-04-11T08:24:02.842Z</time></trkpt><trkpt lat="43.1775029" lon="12.9958133"><ele>400.0</ele><time>2026-04-11T08:24:03.849Z</time></trkpt><trkpt lat="43.1775748" lon="12.9956753"><ele>397.6</ele><time>2026-04-11T08:24:04.839Z</time></trkpt><trkpt lat="43.1776397" lon="12.995544"><ele>395.2</ele><time>2026-04-11T08:24:05.842Z</time></trkpt><trkpt lat="43.177701" lon="12.9954082"><ele>392.79999999999995</ele><time>2026-04-11T08:24:06.838Z</time></trkpt><trkpt lat="43.1777617" lon="12.9952782"><ele>390.4</ele><time>2026-04-11T08:24:07.844Z</time></trkpt><trkpt lat="43.1778185" lon="12.9951603"><ele>388.0</ele><time>2026-04-11T08:24:08.838Z</time></trkpt><trkpt lat="43.1778641" lon="12.9950593"><ele>392.33333333333337</ele><time>2026-04-11T08:24:09.839Z</time></trkpt><trkpt lat="43.1779076" lon="12.9949752"><ele>396.6666666666667</ele><time>2026-04-11T08:24:10.845Z</time></trkpt><trkpt lat="43.1779438" lon="12.9948897"><ele>401.0</ele><time>2026-04-11T08:24:11.843Z</time></trkpt><trkpt lat="43.1779816" lon="12.9947922"><ele>405.33333333333337</ele><time>2026-04-11T08:24:12.834Z</time></trkpt><trkpt lat="43.17802" lon="12.9946909"><ele>409.6666666666667</ele><time>2026-04-11T08:24:13.837Z</time></trkpt><trkpt lat="43.1780623" lon="12.9946023"><ele>414.0</ele><time>2026-04-11T08:24:14.828Z</time></trkpt><trkpt lat="43.1781273" lon="12.9944918"><ele>414.0</ele><time>2026-04-11T08:24:16.836Z</time></trkpt><trkpt lat="43.1781629" lon="12.9944128"><ele>414.0</ele><time>2026-04-11T08:24:19.843Z</time></trkpt><trkpt lat="43.17821" lon="12.994295"><ele>414.0</ele><time>2026-04-11T08:26:38.834Z</time></trkpt><trkpt lat="43.178234" lon="12.9942033"><ele>414.0</ele><time>2026-04-11T08:26:39.842Z</time></trkpt><trkpt lat="43.178238" lon="12.9940982"><ele>414.0</ele><time>2026-04-11T08:26:40.835Z</time></trkpt><trkpt lat="43.1782397" lon="12.993955"><ele>414.0</ele><time>2026-04-11T08:26:41.836Z</time></trkpt><trkpt lat="43.1782361" lon="12.9937922"><ele>405.0</ele><time>2026-04-11T08:26:42.83Z</time></trkpt><trkpt lat="43.1782288" lon="12.9936034"><ele>396.0</ele><time>2026-04-11T08:26:43.848Z</time></trkpt><trkpt lat="43.17816" lon="12.9914483"><ele>402.20000000000005</ele><time>2026-04-11T08:26:53.829Z</time></trkpt><trkpt lat="43.1781438" lon="12.9913371"><ele>408.40000000000003</ele><time>2026-04-11T08:26:54.826Z</time></trkpt><trkpt lat="43.1782926" lon="12.9912193"><ele>414.6</ele><time>2026-04-11T08:26:55.823Z</time></trkpt><trkpt lat="43.1783241" lon="12.9910905"><ele>420.8</ele><time>2026-04-11T08:26:56.829Z</time></trkpt><trkpt lat="43.178349" lon="12.9910016"><ele>427.0</ele><time>2026-04-11T08:26:57.823Z</time></trkpt><trkpt lat="43.1783726" lon="12.9908805"><ele>429.0</ele><time>2026-04-11T08:26:58.827Z</time></trkpt><trkpt lat="43.1783201" lon="12.9907591"><ele>431.0</ele><time>2026-04-11T08:26:59.835Z</time></trkpt><trkpt lat="43.1783135" lon="12.9906003"><ele>433.0</ele><time>2026-04-11T08:27:00.826Z</time></trkpt><trkpt lat="43.1783532" lon="12.9904396"><ele>435.0</ele><time>2026-04-11T08:27:01.839Z</time></trkpt><trkpt lat="43.1783618" lon="12.9902655"><ele>435.0</ele><time>2026-04-11T08:27:02.826Z</time></trkpt><trkpt lat="43.1783511" lon="12.9900934"><ele>435.0</ele><time>2026-04-11T08:27:03.832Z</time></trkpt><trkpt lat="43.1783427" lon="12.9899176"><ele>435.0</ele><time>2026-04-11T08:27:04.831Z</time></trkpt><trkpt lat="43.1783505" lon="12.989746"><ele>435.0</ele><time>2026-04-11T08:27:05.839Z</time></trkpt><trkpt lat="43.1783649" lon="12.9895579"><ele>435.5</ele><time>2026-04-11T08:27:06.83Z</time></trkpt><trkpt lat="43.1783805" lon="12.9893612"><ele>436.0</ele><time>2026-04-11T08:27:07.83Z</time></trkpt><trkpt lat="43.1784042" lon="12.9891654"><ele>436.5</ele><time>2026-04-11T08:27:08.832Z</time></trkpt><trkpt lat="43.1784147" lon="12.9889825"><ele>437.0</ele><time>2026-04-11T08:27:09.831Z</time></trkpt><trkpt lat="43.1784223" lon="12.9888064"><ele>437.40000000000003</ele><time>2026-04-11T08:27:10.835Z</time></trkpt><trkpt lat="43.1784362" lon="12.9886503"><ele>437.80000000000007</ele><time>2026-04-11T08:27:11.835Z</time></trkpt><trkpt lat="43.1784432" lon="12.9885061"><ele>438.2</ele><time>2026-04-11T08:27:12.853Z</time></trkpt><trkpt lat="43.1784402" lon="12.9883762"><ele>438.6</ele><time>2026-04-11T08:27:13.837Z</time></trkpt><trkpt lat="43.1784048" lon="12.9882434"><ele>439.0</ele><time>2026-04-11T08:27:14.827Z</time></trkpt><trkpt lat="43.1783675" lon="12.9880788"><ele>481.0</ele><time>2026-04-11T08:27:15.83Z</time></trkpt><trkpt lat="43.1778333" lon="12.9860141"><ele>475.8</ele><time>2026-04-11T08:27:27.827Z</time></trkpt><trkpt lat="43.1778419" lon="12.9858018"><ele>470.6</ele><time>2026-04-11T08:27:28.821Z</time></trkpt><trkpt lat="43.1778876" lon="12.9856615"><ele>465.4</ele><time>2026-04-11T08:27:29.831Z</time></trkpt><trkpt lat="43.1779082" lon="12.9855692"><ele>460.2</ele><time>2026-04-11T08:27:30.822Z</time></trkpt><trkpt lat="43.1779155" lon="12.9854573"><ele>455.0</ele><time>2026-04-11T08:27:31.835Z</time></trkpt><trkpt lat="43.1779253" lon="12.985276"><ele>455.0</ele><time>2026-04-11T08:27:33.842Z</time></trkpt><trkpt lat="43.1779364" lon="12.9851721"><ele>455.0</ele><time>2026-04-11T08:27:34.82Z</time></trkpt><trkpt lat="43.1779805" lon="12.9850694"><ele>455.0</ele><time>2026-04-11T08:27:35.831Z</time></trkpt><trkpt lat="43.1780569" lon="12.9849914"><ele>455.0</ele><time>2026-04-11T08:27:36.835Z</time></trkpt><trkpt lat="43.1781483" lon="12.9849222"><ele>455.0</ele><time>2026-04-11T08:27:37.833Z</time></trkpt><trkpt lat="43.1782456" lon="12.9848678"><ele>453.66666666666663</ele><time>2026-04-11T08:27:38.839Z</time></trkpt><trkpt lat="43.1783256" lon="12.9848134"><ele>452.3333333333333</ele><time>2026-04-11T08:27:39.839Z</time></trkpt><trkpt lat="43.1783972" lon="12.9847466"><ele>451.0</ele><time>2026-04-11T08:27:40.837Z</time></trkpt><trkpt lat="43.1784549" lon="12.9846867"><ele>449.66666666666663</ele><time>2026-04-11T08:27:41.838Z</time></trkpt><trkpt lat="43.1785174" lon="12.9846364"><ele>448.3333333333333</ele><time>2026-04-11T08:27:42.835Z</time></trkpt><trkpt lat="43.178589" lon="12.9846018"><ele>447.0</ele><time>2026-04-11T08:27:43.844Z</time></trkpt><trkpt lat="43.1786735" lon="12.9845924"><ele>447.0</ele><time>2026-04-11T08:27:44.837Z</time></trkpt><trkpt lat="43.1787648" lon="12.9846003"><ele>447.0</ele><time>2026-04-11T08:27:45.839Z</time></trkpt><trkpt lat="43.1788595" lon="12.9846296"><ele>447.0</ele><time>2026-04-11T08:27:46.831Z</time></trkpt><trkpt lat="43.1789481" lon="12.9846568"><ele>447.0</ele><time>2026-04-11T08:27:47.842Z</time></trkpt><trkpt lat="43.1790334" lon="12.9846708"><ele>447.0</ele><time>2026-04-11T08:27:48.829Z</time></trkpt><trkpt lat="43.1791097" lon="12.9846342"><ele>447.0</ele><time>2026-04-11T08:27:49.849Z</time></trkpt><trkpt lat="43.1791809" lon="12.9845693"><ele>447.0</ele><time>2026-04-11T08:27:50.835Z</time></trkpt><trkpt lat="43.1792525" lon="12.9844922"><ele>447.00000000000006</ele><time>2026-04-11T08:27:51.835Z</time></trkpt><trkpt lat="43.1793131" lon="12.9843953"><ele>447.00000000000006</ele><time>2026-04-11T08:27:52.831Z</time></trkpt><trkpt lat="43.1793603" lon="12.9842825"><ele>447.0</ele><time>2026-04-11T08:27:53.838Z</time></trkpt><trkpt lat="43.1793996" lon="12.9841409"><ele>447.0</ele><time>2026-04-11T08:27:54.834Z</time></trkpt><trkpt lat="43.1794254" lon="12.983982"><ele>447.0</ele><time>2026-04-11T08:27:55.836Z</time></trkpt><trkpt lat="43.179441" lon="12.9838006"><ele>447.0</ele><time>2026-04-11T08:27:56.838Z</time></trkpt><trkpt lat="43.1794556" lon="12.9835938"><ele>447.0</ele><time>2026-04-11T08:27:57.838Z</time></trkpt><trkpt lat="43.1794697" lon="12.9833693"><ele>447.0</ele><time>2026-04-11T08:27:58.849Z</time></trkpt><trkpt lat="43.1794832" lon="12.9831321"><ele>446.0</ele><time>2026-04-11T08:27:59.837Z</time></trkpt><trkpt lat="43.1794969" lon="12.9828876"><ele>445.0</ele><time>2026-04-11T08:28:00.846Z</time></trkpt><trkpt lat="43.1795068" lon="12.982653"><ele>444.0</ele><time>2026-04-11T08:28:01.837Z</time></trkpt><trkpt lat="43.1795153" lon="12.9824087"><ele>443.66666666666663</ele><time>2026-04-11T08:28:02.831Z</time></trkpt><trkpt lat="43.1795297" lon="12.9821415"><ele>443.3333333333333</ele><time>2026-04-11T08:28:03.835Z</time></trkpt><trkpt lat="43.17955" lon="12.9818862"><ele>443.0</ele><time>2026-04-11T08:28:04.84Z</time></trkpt><trkpt lat="43.1795695" lon="12.9816554"><ele>443.66666666666663</ele><time>2026-04-11T08:28:05.839Z</time></trkpt><trkpt lat="43.1795868" lon="12.9814368"><ele>444.33333333333337</ele><time>2026-04-11T08:28:06.847Z</time></trkpt><trkpt lat="43.1796031" lon="12.9812241"><ele>445.0</ele><time>2026-04-11T08:28:07.839Z</time></trkpt><trkpt lat="43.1796168" lon="12.9810054"><ele>445.33333333333337</ele><time>2026-04-11T08:28:08.834Z</time></trkpt><trkpt lat="43.1796296" lon="12.9807744"><ele>445.66666666666663</ele><time>2026-04-11T08:28:09.843Z</time></trkpt><trkpt lat="43.1796482" lon="12.9805276"><ele>446.0</ele><time>2026-04-11T08:28:10.835Z</time></trkpt><trkpt lat="43.1796676" lon="12.9802686"><ele>444.66666666666663</ele><time>2026-04-11T08:28:11.86Z</time></trkpt><trkpt lat="43.1796876" lon="12.9799868"><ele>443.33333333333337</ele><time>2026-04-11T08:28:12.838Z</time></trkpt><trkpt lat="43.1797087" lon="12.9796999"><ele>442.0</ele><time>2026-04-11T08:28:13.842Z</time></trkpt><trkpt lat="43.1797274" lon="12.9794129"><ele>441.6666666666667</ele><time>2026-04-11T08:28:14.836Z</time></trkpt><trkpt lat="43.1797444" lon="12.9791187"><ele>441.33333333333337</ele><time>2026-04-11T08:28:15.857Z</time></trkpt><trkpt lat="43.1797645" lon="12.9788301"><ele>441.0</ele><time>2026-04-11T08:28:16.838Z</time></trkpt><trkpt lat="43.1797814" lon="12.9785643"><ele>441.33333333333337</ele><time>2026-04-11T08:28:17.841Z</time></trkpt><trkpt lat="43.1797942" lon="12.9783131"><ele>441.6666666666667</ele><time>2026-04-11T08:28:18.849Z</time></trkpt><trkpt lat="43.1798113" lon="12.9780672"><ele>442.0</ele><time>2026-04-11T08:28:19.841Z</time></trkpt><trkpt lat="43.1798318" lon="12.9778192"><ele>441.6666666666667</ele><time>2026-04-11T08:28:20.838Z</time></trkpt><trkpt lat="43.1798597" lon="12.9775724"><ele>441.33333333333337</ele><time>2026-04-11T08:28:21.842Z</time></trkpt><trkpt lat="43.1798962" lon="12.9773264"><ele>441.0</ele><time>2026-04-11T08:28:22.836Z</time></trkpt><trkpt lat="43.1799376" lon="12.9770897"><ele>442.0</ele><time>2026-04-11T08:28:23.842Z</time></trkpt><trkpt lat="43.1799905" lon="12.9768668"><ele>443.0</ele><time>2026-04-11T08:28:24.837Z</time></trkpt><trkpt lat="43.1800539" lon="12.9766638"><ele>444.0</ele><time>2026-04-11T08:28:25.839Z</time></trkpt><trkpt lat="43.1801227" lon="12.9764787"><ele>444.0</ele><time>2026-04-11T08:28:26.838Z</time></trkpt><trkpt lat="43.1801967" lon="12.9763126"><ele>444.0</ele><time>2026-04-11T08:28:27.838Z</time></trkpt><trkpt lat="43.1802878" lon="12.9761687"><ele>444.0</ele><time>2026-04-11T08:28:28.84Z</time></trkpt><trkpt lat="43.1803946" lon="12.9760276"><ele>444.0</ele><time>2026-04-11T08:28:29.839Z</time></trkpt><trkpt lat="43.1805043" lon="12.9758783"><ele>443.33333333333337</ele><time>2026-04-11T08:28:30.843Z</time></trkpt><trkpt lat="43.1806098" lon="12.9757205"><ele>442.6666666666667</ele><time>2026-04-11T08:28:31.844Z</time></trkpt><trkpt lat="43.1807086" lon="12.975544"><ele>442.0</ele><time>2026-04-11T08:28:32.85Z</time></trkpt><trkpt lat="43.1807898" lon="12.9753475"><ele>442.6666666666667</ele><time>2026-04-11T08:28:33.839Z</time></trkpt><trkpt lat="43.1808462" lon="12.9751484"><ele>443.33333333333337</ele><time>2026-04-11T08:28:34.836Z</time></trkpt><trkpt lat="43.1808885" lon="12.9749543"><ele>444.0</ele><time>2026-04-11T08:28:35.85Z</time></trkpt><trkpt lat="43.1809238" lon="12.9747523"><ele>444.0</ele><time>2026-04-11T08:28:36.848Z</time></trkpt><trkpt lat="43.1809646" lon="12.9745746"><ele>444.0</ele><time>2026-04-11T08:28:37.846Z</time></trkpt><trkpt lat="43.1810284" lon="12.974408"><ele>444.0</ele><time>2026-04-11T08:28:38.832Z</time></trkpt><trkpt lat="43.1811128" lon="12.9742426"><ele>444.0</ele><time>2026-04-11T08:28:39.857Z</time></trkpt><trkpt lat="43.1812123" lon="12.9740855"><ele>443.33333333333337</ele><time>2026-04-11T08:28:40.841Z</time></trkpt><trkpt lat="43.1813156" lon="12.9739337"><ele>442.6666666666667</ele><time>2026-04-11T08:28:41.848Z</time></trkpt><trkpt lat="43.1814197" lon="12.9737741"><ele>442.0</ele><time>2026-04-11T08:28:42.848Z</time></trkpt><trkpt lat="43.1815059" lon="12.9736047"><ele>443.5</ele><time>2026-04-11T08:28:43.841Z</time></trkpt><trkpt lat="43.1815752" lon="12.9734284"><ele>445.0</ele><time>2026-04-11T08:28:44.851Z</time></trkpt><trkpt lat="43.181622" lon="12.9732487"><ele>446.5</ele><time>2026-04-11T08:28:45.843Z</time></trkpt><trkpt lat="43.1816487" lon="12.9730552"><ele>448.0</ele><time>2026-04-11T08:28:46.849Z</time></trkpt><trkpt lat="43.1816637" lon="12.9728438"><ele>448.0</ele><time>2026-04-11T08:28:47.847Z</time></trkpt><trkpt lat="43.1816559" lon="12.9726212"><ele>448.0</ele><time>2026-04-11T08:28:48.842Z</time></trkpt><trkpt lat="43.1816448" lon="12.9723896"><ele>448.0</ele><time>2026-04-11T08:28:49.843Z</time></trkpt><trkpt lat="43.1816425" lon="12.9721413"><ele>450.33333333333337</ele><time>2026-04-11T08:28:50.837Z</time></trkpt><trkpt lat="43.1816425" lon="12.971881"><ele>452.66666666666663</ele><time>2026-04-11T08:28:51.843Z</time></trkpt><trkpt lat="43.1816413" lon="12.9716122"><ele>455.0</ele><time>2026-04-11T08:28:52.844Z</time></trkpt><trkpt lat="43.1816417" lon="12.9713304"><ele>456.0</ele><time>2026-04-11T08:28:53.845Z</time></trkpt><trkpt lat="43.1816396" lon="12.9710428"><ele>457.0</ele><time>2026-04-11T08:28:54.837Z</time></trkpt><trkpt lat="43.1816319" lon="12.9707384"><ele>458.0</ele><time>2026-04-11T08:28:55.842Z</time></trkpt><trkpt lat="43.1816169" lon="12.9704355"><ele>457.3333333333333</ele><time>2026-04-11T08:28:56.869Z</time></trkpt><trkpt lat="43.181602" lon="12.9701436"><ele>456.66666666666663</ele><time>2026-04-11T08:28:57.841Z</time></trkpt><trkpt lat="43.1815889" lon="12.9698646"><ele>456.0</ele><time>2026-04-11T08:28:58.841Z</time></trkpt><trkpt lat="43.1815827" lon="12.9695982"><ele>456.0</ele><time>2026-04-11T08:28:59.842Z</time></trkpt><trkpt lat="43.1815802" lon="12.9693365"><ele>456.0</ele><time>2026-04-11T08:29:00.849Z</time></trkpt><trkpt lat="43.1815866" lon="12.9690679"><ele>456.0</ele><time>2026-04-11T08:29:01.84Z</time></trkpt><trkpt lat="43.1815963" lon="12.9688035"><ele>456.33333333333337</ele><time>2026-04-11T08:29:02.84Z</time></trkpt><trkpt lat="43.1816142" lon="12.9685327"><ele>456.6666666666667</ele><time>2026-04-11T08:29:03.844Z</time></trkpt><trkpt lat="43.1816446" lon="12.9682613"><ele>457.0</ele><time>2026-04-11T08:29:04.83Z</time></trkpt><trkpt lat="43.1816845" lon="12.9679918"><ele>455.6666666666667</ele><time>2026-04-11T08:29:05.843Z</time></trkpt><trkpt lat="43.1817245" lon="12.9677169"><ele>454.33333333333337</ele><time>2026-04-11T08:29:06.838Z</time></trkpt><trkpt lat="43.1817688" lon="12.9674377"><ele>453.0</ele><time>2026-04-11T08:29:07.855Z</time></trkpt><trkpt lat="43.1818169" lon="12.9671615"><ele>452.33333333333337</ele><time>2026-04-11T08:29:08.838Z</time></trkpt><trkpt lat="43.1818648" lon="12.9668788"><ele>451.6666666666667</ele><time>2026-04-11T08:29:09.846Z</time></trkpt><trkpt lat="43.1819192" lon="12.9665924"><ele>451.0</ele><time>2026-04-11T08:29:10.849Z</time></trkpt><trkpt lat="43.1819821" lon="12.9663093"><ele>450.33333333333337</ele><time>2026-04-11T08:29:11.847Z</time></trkpt><trkpt lat="43.1820482" lon="12.9660275"><ele>449.66666666666663</ele><time>2026-04-11T08:29:12.836Z</time></trkpt><trkpt lat="43.1821147" lon="12.9657436"><ele>449.0</ele><time>2026-04-11T08:29:13.848Z</time></trkpt><trkpt lat="43.1821685" lon="12.965444"><ele>447.66666666666663</ele><time>2026-04-11T08:29:14.843Z</time></trkpt><trkpt lat="43.1822016" lon="12.9651462"><ele>446.33333333333337</ele><time>2026-04-11T08:29:15.84Z</time></trkpt><trkpt lat="43.1822238" lon="12.9648438"><ele>445.0</ele><time>2026-04-11T08:29:16.852Z</time></trkpt><trkpt lat="43.182243" lon="12.9645671"><ele>445.0</ele><time>2026-04-11T08:29:17.84Z</time></trkpt><trkpt lat="43.1822641" lon="12.9642978"><ele>445.0</ele><time>2026-04-11T08:29:18.839Z</time></trkpt><trkpt lat="43.1822842" lon="12.9640267"><ele>445.0</ele><time>2026-04-11T08:29:19.839Z</time></trkpt><trkpt lat="43.1822955" lon="12.963757"><ele>444.6666666666667</ele><time>2026-04-11T08:29:20.837Z</time></trkpt><trkpt lat="43.1822954" lon="12.9634782"><ele>444.33333333333337</ele><time>2026-04-11T08:29:21.863Z</time></trkpt><trkpt lat="43.182291" lon="12.9632065"><ele>444.0</ele><time>2026-04-11T08:29:22.837Z</time></trkpt><trkpt lat="43.1822853" lon="12.962949"><ele>444.0</ele><time>2026-04-11T08:29:23.839Z</time></trkpt><trkpt lat="43.182292" lon="12.9626935"><ele>444.0</ele><time>2026-04-11T08:29:24.843Z</time></trkpt><trkpt lat="43.182312" lon="12.9624408"><ele>444.0</ele><time>2026-04-11T08:29:25.837Z</time></trkpt><trkpt lat="43.1823451" lon="12.962184"><ele>447.0</ele><time>2026-04-11T08:29:26.843Z</time></trkpt><trkpt lat="43.1823882" lon="12.9619477"><ele>450.0</ele><time>2026-04-11T08:29:27.834Z</time></trkpt><trkpt lat="43.1824414" lon="12.9617192"><ele>453.0</ele><time>2026-04-11T08:29:28.841Z</time></trkpt><trkpt lat="43.1825061" lon="12.9614885"><ele>453.0</ele><time>2026-04-11T08:29:29.834Z</time></trkpt><trkpt lat="43.1825838" lon="12.9612751"><ele>453.0</ele><time>2026-04-11T08:29:30.835Z</time></trkpt><trkpt lat="43.1826726" lon="12.9610543"><ele>453.0</ele><time>2026-04-11T08:29:31.837Z</time></trkpt><trkpt lat="43.1827647" lon="12.9608306"><ele>451.0</ele><time>2026-04-11T08:29:32.833Z</time></trkpt><trkpt lat="43.1828614" lon="12.9606044"><ele>449.0</ele><time>2026-04-11T08:29:33.842Z</time></trkpt><trkpt lat="43.182962" lon="12.9603727"><ele>447.0</ele><time>2026-04-11T08:29:34.841Z</time></trkpt><trkpt lat="43.1830707" lon="12.9601348"><ele>447.0</ele><time>2026-04-11T08:29:35.842Z</time></trkpt><trkpt lat="43.1831779" lon="12.95989"><ele>447.0</ele><time>2026-04-11T08:29:36.847Z</time></trkpt><trkpt lat="43.1832912" lon="12.9596443"><ele>447.0</ele><time>2026-04-11T08:29:37.844Z</time></trkpt><trkpt lat="43.1834016" lon="12.9594016"><ele>448.0</ele><time>2026-04-11T08:29:38.839Z</time></trkpt><trkpt lat="43.183512" lon="12.9591628"><ele>449.0</ele><time>2026-04-11T08:29:39.85Z</time></trkpt><trkpt lat="43.1836234" lon="12.9589292"><ele>450.0</ele><time>2026-04-11T08:29:40.848Z</time></trkpt><trkpt lat="43.1837304" lon="12.9586976"><ele>450.0</ele><time>2026-04-11T08:29:41.844Z</time></trkpt><trkpt lat="43.1838369" lon="12.958464"><ele>450.0</ele><time>2026-04-11T08:29:42.845Z</time></trkpt><trkpt lat="43.1839355" lon="12.9582335"><ele>450.0</ele><time>2026-04-11T08:29:43.846Z</time></trkpt><trkpt lat="43.1840228" lon="12.957984"><ele>449.66666666666663</ele><time>2026-04-11T08:29:44.838Z</time></trkpt><trkpt lat="43.1840891" lon="12.9577119"><ele>449.3333333333333</ele><time>2026-04-11T08:29:45.845Z</time></trkpt><trkpt lat="43.1841379" lon="12.9574316"><ele>449.0</ele><time>2026-04-11T08:29:46.836Z</time></trkpt><trkpt lat="43.1841692" lon="12.9571637"><ele>449.0</ele><time>2026-04-11T08:29:47.846Z</time></trkpt><trkpt lat="43.1841889" lon="12.9569008"><ele>449.0</ele><time>2026-04-11T08:29:48.842Z</time></trkpt><trkpt lat="43.1841887" lon="12.9566295"><ele>449.0</ele><time>2026-04-11T08:29:49.846Z</time></trkpt><trkpt lat="43.1841728" lon="12.9563496"><ele>449.0</ele><time>2026-04-11T08:29:50.829Z</time></trkpt><trkpt lat="43.1841419" lon="12.9560705"><ele>449.0</ele><time>2026-04-11T08:29:51.844Z</time></trkpt><trkpt lat="43.1840932" lon="12.9557871"><ele>449.0</ele><time>2026-04-11T08:29:52.839Z</time></trkpt><trkpt lat="43.1840205" lon="12.9554969"><ele>447.0</ele><time>2026-04-11T08:29:53.836Z</time></trkpt><trkpt lat="43.1839246" lon="12.9552142"><ele>445.0</ele><time>2026-04-11T08:29:54.846Z</time></trkpt><trkpt lat="43.1838087" lon="12.9549465"><ele>445.0</ele><time>2026-04-11T08:29:55.835Z</time></trkpt><trkpt lat="43.1836789" lon="12.9546971"><ele>445.0</ele><time>2026-04-11T08:29:56.841Z</time></trkpt><trkpt lat="43.1835236" lon="12.9544649"><ele>445.0</ele><time>2026-04-11T08:29:57.838Z</time></trkpt><trkpt lat="43.1833515" lon="12.9542523"><ele>445.0</ele><time>2026-04-11T08:29:58.835Z</time></trkpt><trkpt lat="43.1831733" lon="12.9540462"><ele>445.0</ele><time>2026-04-11T08:29:59.835Z</time></trkpt><trkpt lat="43.1829844" lon="12.9538444"><ele>445.0</ele><time>2026-04-11T08:30:00.832Z</time></trkpt><trkpt lat="43.1827865" lon="12.9536544"><ele>445.0</ele><time>2026-04-11T08:30:01.85Z</time></trkpt><trkpt lat="43.1826056" lon="12.9534676"><ele>445.0</ele><time>2026-04-11T08:30:02.828Z</time></trkpt><trkpt lat="43.1824314" lon="12.9532881"><ele>445.0</ele><time>2026-04-11T08:30:03.836Z</time></trkpt><trkpt lat="43.182272" lon="12.9531209"><ele>445.6666666666667</ele><time>2026-04-11T08:30:04.836Z</time></trkpt><trkpt lat="43.1821234" lon="12.9529626"><ele>446.33333333333337</ele><time>2026-04-11T08:30:05.84Z</time></trkpt><trkpt lat="43.1819929" lon="12.9528208"><ele>447.0</ele><time>2026-04-11T08:30:06.841Z</time></trkpt><trkpt lat="43.1818649" lon="12.9526783"><ele>447.66666666666663</ele><time>2026-04-11T08:30:07.841Z</time></trkpt><trkpt lat="43.1817508" lon="12.9525242"><ele>448.3333333333333</ele><time>2026-04-11T08:30:08.838Z</time></trkpt><trkpt lat="43.1816491" lon="12.9523494"><ele>449.0</ele><time>2026-04-11T08:30:09.861Z</time></trkpt><trkpt lat="43.1815704" lon="12.9521607"><ele>449.0</ele><time>2026-04-11T08:30:10.856Z</time></trkpt><trkpt lat="43.1815205" lon="12.9519501"><ele>449.0</ele><time>2026-04-11T08:30:11.85Z</time></trkpt><trkpt lat="43.1815024" lon="12.9517158"><ele>449.0</ele><time>2026-04-11T08:30:12.843Z</time></trkpt><trkpt lat="43.1814844" lon="12.9514765"><ele>448.3333333333333</ele><time>2026-04-11T08:30:13.844Z</time></trkpt><trkpt lat="43.1814771" lon="12.951221"><ele>447.66666666666663</ele><time>2026-04-11T08:30:14.836Z</time></trkpt><trkpt lat="43.1814774" lon="12.9509812"><ele>447.0</ele><time>2026-04-11T08:30:15.841Z</time></trkpt><trkpt lat="43.1814943" lon="12.9507557"><ele>450.66666666666663</ele><time>2026-04-11T08:30:16.834Z</time></trkpt><trkpt lat="43.1815484" lon="12.9505572"><ele>454.3333333333333</ele><time>2026-04-11T08:30:17.837Z</time></trkpt><trkpt lat="43.1816257" lon="12.9503697"><ele>458.0</ele><time>2026-04-11T08:30:18.841Z</time></trkpt><trkpt lat="43.1817362" lon="12.9501788"><ele>456.3333333333333</ele><time>2026-04-11T08:30:19.835Z</time></trkpt><trkpt lat="43.1818629" lon="12.9499908"><ele>454.66666666666663</ele><time>2026-04-11T08:30:20.84Z</time></trkpt><trkpt lat="43.1819991" lon="12.9497826"><ele>453.0</ele><time>2026-04-11T08:30:21.853Z</time></trkpt><trkpt lat="43.1821289" lon="12.9495772"><ele>453.0</ele><time>2026-04-11T08:30:22.836Z</time></trkpt><trkpt lat="43.1822524" lon="12.9493885"><ele>453.0</ele><time>2026-04-11T08:30:23.856Z</time></trkpt><trkpt lat="43.1823753" lon="12.9492206"><ele>453.0</ele><time>2026-04-11T08:30:24.852Z</time></trkpt><trkpt lat="43.1824959" lon="12.9490657"><ele>455.0</ele><time>2026-04-11T08:30:25.841Z</time></trkpt><trkpt lat="43.1826189" lon="12.9489179"><ele>457.0</ele><time>2026-04-11T08:30:26.838Z</time></trkpt><trkpt lat="43.1827499" lon="12.9487811"><ele>459.0</ele><time>2026-04-11T08:30:27.835Z</time></trkpt><trkpt lat="43.1828836" lon="12.9486491"><ele>459.0</ele><time>2026-04-11T08:30:28.833Z</time></trkpt><trkpt lat="43.183027" lon="12.948525"><ele>459.0</ele><time>2026-04-11T08:30:29.841Z</time></trkpt><trkpt lat="43.1831693" lon="12.9483975"><ele>459.0</ele><time>2026-04-11T08:30:30.835Z</time></trkpt><trkpt lat="43.1833004" lon="12.9482785"><ele>457.0</ele><time>2026-04-11T08:30:31.841Z</time></trkpt><trkpt lat="43.1834213" lon="12.9481562"><ele>455.0</ele><time>2026-04-11T08:30:32.836Z</time></trkpt><trkpt lat="43.1835283" lon="12.9480121"><ele>453.0</ele><time>2026-04-11T08:30:33.839Z</time></trkpt><trkpt lat="43.1836172" lon="12.9478321"><ele>453.0</ele><time>2026-04-11T08:30:34.839Z</time></trkpt><trkpt lat="43.1836792" lon="12.9476317"><ele>453.0</ele><time>2026-04-11T08:30:35.837Z</time></trkpt><trkpt lat="43.1837244" lon="12.9474071"><ele>453.0</ele><time>2026-04-11T08:30:36.837Z</time></trkpt><trkpt lat="43.1837666" lon="12.9471615"><ele>451.33333333333337</ele><time>2026-04-11T08:30:37.84Z</time></trkpt><trkpt lat="43.1838049" lon="12.9468951"><ele>449.6666666666667</ele><time>2026-04-11T08:30:38.839Z</time></trkpt><trkpt lat="43.1838424" lon="12.9466231"><ele>448.0</ele><time>2026-04-11T08:30:39.848Z</time></trkpt><trkpt lat="43.1838753" lon="12.9463574"><ele>447.6666666666667</ele><time>2026-04-11T08:30:40.837Z</time></trkpt><trkpt lat="43.1839137" lon="12.9460927"><ele>447.33333333333337</ele><time>2026-04-11T08:30:41.838Z</time></trkpt><trkpt lat="43.1839518" lon="12.9458286"><ele>447.0</ele><time>2026-04-11T08:30:42.837Z</time></trkpt><trkpt lat="43.1839917" lon="12.9455619"><ele>447.33333333333337</ele><time>2026-04-11T08:30:43.844Z</time></trkpt><trkpt lat="43.1840317" lon="12.9452921"><ele>447.6666666666667</ele><time>2026-04-11T08:30:44.835Z</time></trkpt><trkpt lat="43.1840689" lon="12.9450223"><ele>448.0</ele><time>2026-04-11T08:30:45.843Z</time></trkpt><trkpt lat="43.1841047" lon="12.9447513"><ele>448.0</ele><time>2026-04-11T08:30:46.838Z</time></trkpt><trkpt lat="43.1841392" lon="12.9444927"><ele>448.0</ele><time>2026-04-11T08:30:47.84Z</time></trkpt><trkpt lat="43.1841743" lon="12.9442454"><ele>448.0</ele><time>2026-04-11T08:30:48.844Z</time></trkpt><trkpt lat="43.1842074" lon="12.9440095"><ele>447.33333333333337</ele><time>2026-04-11T08:30:49.838Z</time></trkpt><trkpt lat="43.1842409" lon="12.9437771"><ele>446.66666666666663</ele><time>2026-04-11T08:30:50.858Z</time></trkpt><trkpt lat="43.1842713" lon="12.9435373"><ele>446.0</ele><time>2026-04-11T08:30:51.837Z</time></trkpt><trkpt lat="43.1843026" lon="12.9433001"><ele>446.0</ele><time>2026-04-11T08:30:52.844Z</time></trkpt><trkpt lat="43.1843353" lon="12.9430623"><ele>446.0</ele><time>2026-04-11T08:30:53.838Z</time></trkpt><trkpt lat="43.1843685" lon="12.9428267"><ele>446.0</ele><time>2026-04-11T08:30:54.836Z</time></trkpt><trkpt lat="43.1843982" lon="12.9425971"><ele>445.66666666666663</ele><time>2026-04-11T08:30:55.836Z</time></trkpt><trkpt lat="43.1844182" lon="12.9423826"><ele>445.33333333333337</ele><time>2026-04-11T08:30:56.843Z</time></trkpt><trkpt lat="43.1844429" lon="12.9421679"><ele>445.0</ele><time>2026-04-11T08:30:57.846Z</time></trkpt><trkpt lat="43.1844676" lon="12.9419406"><ele>446.0</ele><time>2026-04-11T08:30:58.833Z</time></trkpt><trkpt lat="43.1844922" lon="12.9417085"><ele>447.0</ele><time>2026-04-11T08:30:59.855Z</time></trkpt><trkpt lat="43.1845198" lon="12.9414654"><ele>448.0</ele><time>2026-04-11T08:31:00.845Z</time></trkpt><trkpt lat="43.1845433" lon="12.9412155"><ele>448.0</ele><time>2026-04-11T08:31:01.842Z</time></trkpt><trkpt lat="43.1845667" lon="12.940963"><ele>448.0</ele><time>2026-04-11T08:31:02.857Z</time></trkpt><trkpt lat="43.1845863" lon="12.9407097"><ele>448.0</ele><time>2026-04-11T08:31:03.84Z</time></trkpt><trkpt lat="43.1846075" lon="12.9404552"><ele>448.33333333333337</ele><time>2026-04-11T08:31:04.841Z</time></trkpt><trkpt lat="43.1846231" lon="12.9402047"><ele>448.66666666666663</ele><time>2026-04-11T08:31:05.843Z</time></trkpt><trkpt lat="43.1846386" lon="12.9399483"><ele>449.0</ele><time>2026-04-11T08:31:06.844Z</time></trkpt><trkpt lat="43.1846579" lon="12.9396908"><ele>449.0</ele><time>2026-04-11T08:31:07.836Z</time></trkpt><trkpt lat="43.184673" lon="12.9394349"><ele>449.0</ele><time>2026-04-11T08:31:08.84Z</time></trkpt><trkpt lat="43.1846777" lon="12.9391731"><ele>449.0</ele><time>2026-04-11T08:31:09.845Z</time></trkpt><trkpt lat="43.184675" lon="12.9389095"><ele>448.66666666666663</ele><time>2026-04-11T08:31:10.84Z</time></trkpt><trkpt lat="43.1846688" lon="12.9386405"><ele>448.33333333333337</ele><time>2026-04-11T08:31:11.84Z</time></trkpt><trkpt lat="43.1846635" lon="12.938368"><ele>448.0</ele><time>2026-04-11T08:31:12.85Z</time></trkpt><trkpt lat="43.1846583" lon="12.9380925"><ele>448.0</ele><time>2026-04-11T08:31:13.846Z</time></trkpt><trkpt lat="43.1846545" lon="12.9378231"><ele>448.0</ele><time>2026-04-11T08:31:14.851Z</time></trkpt><trkpt lat="43.1846512" lon="12.9375561"><ele>448.0</ele><time>2026-04-11T08:31:15.843Z</time></trkpt><trkpt lat="43.1846496" lon="12.9373049"><ele>448.33333333333337</ele><time>2026-04-11T08:31:16.846Z</time></trkpt><trkpt lat="43.1846558" lon="12.9370642"><ele>448.66666666666663</ele><time>2026-04-11T08:31:17.848Z</time></trkpt><trkpt lat="43.1846638" lon="12.9368163"><ele>449.0</ele><time>2026-04-11T08:31:18.853Z</time></trkpt><trkpt lat="43.184675" lon="12.9365627"><ele>449.66666666666663</ele><time>2026-04-11T08:31:19.844Z</time></trkpt><trkpt lat="43.1846879" lon="12.9363071"><ele>450.33333333333337</ele><time>2026-04-11T08:31:20.839Z</time></trkpt><trkpt lat="43.1846995" lon="12.9360482"><ele>451.0</ele><time>2026-04-11T08:31:21.845Z</time></trkpt><trkpt lat="43.1847126" lon="12.9357879"><ele>451.33333333333337</ele><time>2026-04-11T08:31:22.847Z</time></trkpt><trkpt lat="43.1847207" lon="12.935549"><ele>451.66666666666663</ele><time>2026-04-11T08:31:23.85Z</time></trkpt><trkpt lat="43.1847318" lon="12.9353204"><ele>452.0</ele><time>2026-04-11T08:31:24.845Z</time></trkpt><trkpt lat="43.1847427" lon="12.9351188"><ele>452.0</ele><time>2026-04-11T08:31:25.851Z</time></trkpt><trkpt lat="43.1847515" lon="12.9349303"><ele>452.0</ele><time>2026-04-11T08:31:26.839Z</time></trkpt><trkpt lat="43.1847636" lon="12.9347626"><ele>452.0</ele><time>2026-04-11T08:31:27.855Z</time></trkpt><trkpt lat="43.1847786" lon="12.934606"><ele>452.0</ele><time>2026-04-11T08:31:28.839Z</time></trkpt><trkpt lat="43.1847889" lon="12.9344595"><ele>451.99999999999994</ele><time>2026-04-11T08:31:29.843Z</time></trkpt><trkpt lat="43.1847963" lon="12.9343282"><ele>452.0</ele><time>2026-04-11T08:31:30.844Z</time></trkpt><trkpt lat="43.1848104" lon="12.9342102"><ele>452.0</ele><time>2026-04-11T08:31:31.845Z</time></trkpt><trkpt lat="43.1848237" lon="12.9341028"><ele>452.0</ele><time>2026-04-11T08:31:32.846Z</time></trkpt><trkpt lat="43.1848304" lon="12.9340036"><ele>451.99999999999994</ele><time>2026-04-11T08:31:33.857Z</time></trkpt><trkpt lat="43.1848323" lon="12.9339155"><ele>452.0</ele><time>2026-04-11T08:31:34.837Z</time></trkpt><trkpt lat="43.1847853" lon="12.9337788"><ele>451.8333333333333</ele><time>2026-04-11T08:31:36.839Z</time></trkpt><trkpt lat="43.1846615" lon="12.9337743"><ele>451.66666666666663</ele><time>2026-04-11T08:31:38.841Z</time></trkpt><trkpt lat="43.1845874" lon="12.9338013"><ele>451.5</ele><time>2026-04-11T08:31:39.843Z</time></trkpt><trkpt lat="43.184516" lon="12.9338069"><ele>451.33333333333337</ele><time>2026-04-11T08:31:40.838Z</time></trkpt><trkpt lat="43.1844287" lon="12.9338072"><ele>451.1666666666667</ele><time>2026-04-11T08:31:41.853Z</time></trkpt><trkpt lat="43.1843455" lon="12.9337988"><ele>451.0</ele><time>2026-04-11T08:31:42.843Z</time></trkpt><trkpt lat="43.1842491" lon="12.9337858"><ele>451.0</ele><time>2026-04-11T08:31:43.849Z</time></trkpt><trkpt lat="43.1841289" lon="12.9337815"><ele>451.0</ele><time>2026-04-11T08:31:44.841Z</time></trkpt><trkpt lat="43.1840012" lon="12.933797"><ele>451.0</ele><time>2026-04-11T08:31:45.871Z</time></trkpt><trkpt lat="43.1838584" lon="12.9338269"><ele>451.0</ele><time>2026-04-11T08:31:46.845Z</time></trkpt><trkpt lat="43.1837192" lon="12.9338699"><ele>451.5</ele><time>2026-04-11T08:31:47.848Z</time></trkpt><trkpt lat="43.183598" lon="12.9339086"><ele>452.0</ele><time>2026-04-11T08:31:48.839Z</time></trkpt><trkpt lat="43.1834792" lon="12.9339452"><ele>452.5</ele><time>2026-04-11T08:31:49.847Z</time></trkpt><trkpt lat="43.1833705" lon="12.9339695"><ele>453.0</ele><time>2026-04-11T08:31:50.84Z</time></trkpt><trkpt lat="43.1832694" lon="12.9339834"><ele>454.5</ele><time>2026-04-11T08:31:51.843Z</time></trkpt><trkpt lat="43.1831805" lon="12.9340003"><ele>456.0</ele><time>2026-04-11T08:31:52.846Z</time></trkpt><trkpt lat="43.1830989" lon="12.9340133"><ele>457.5</ele><time>2026-04-11T08:31:53.842Z</time></trkpt><trkpt lat="43.183023" lon="12.9340263"><ele>459.0</ele><time>2026-04-11T08:31:54.86Z</time></trkpt><trkpt lat="43.182956" lon="12.9340296"><ele>460.5</ele><time>2026-04-11T08:31:55.845Z</time></trkpt><trkpt lat="43.1828632" lon="12.9339224"><ele>462.0</ele><time>2026-04-11T08:31:57.843Z</time></trkpt><trkpt lat="43.1828282" lon="12.9338056"><ele>462.0</ele><time>2026-04-11T08:31:58.834Z</time></trkpt><trkpt lat="43.1827983" lon="12.9336517"><ele>462.0</ele><time>2026-04-11T08:31:59.854Z</time></trkpt><trkpt lat="43.1827749" lon="12.9334829"><ele>462.0</ele><time>2026-04-11T08:32:00.834Z</time></trkpt><trkpt lat="43.182764" lon="12.9333172"><ele>462.0</ele><time>2026-04-11T08:32:01.85Z</time></trkpt><trkpt lat="43.1827503" lon="12.9331499"><ele>461.6</ele><time>2026-04-11T08:32:02.847Z</time></trkpt><trkpt lat="43.1827342" lon="12.9329841"><ele>461.20000000000005</ele><time>2026-04-11T08:32:03.84Z</time></trkpt><trkpt lat="43.1827176" lon="12.9328353"><ele>460.8</ele><time>2026-04-11T08:32:04.842Z</time></trkpt><trkpt lat="43.1827033" lon="12.9326895"><ele>460.4</ele><time>2026-04-11T08:32:05.84Z</time></trkpt><trkpt lat="43.1826912" lon="12.9325423"><ele>460.0</ele><time>2026-04-11T08:32:06.844Z</time></trkpt><trkpt lat="43.1826929" lon="12.9324004"><ele>460.0</ele><time>2026-04-11T08:32:07.842Z</time></trkpt><trkpt lat="43.1827177" lon="12.9322639"><ele>460.0</ele><time>2026-04-11T08:32:08.837Z</time></trkpt><trkpt lat="43.1827663" lon="12.9321335"><ele>460.0</ele><time>2026-04-11T08:32:09.839Z</time></trkpt><trkpt lat="43.1828272" lon="12.9319876"><ele>460.0</ele><time>2026-04-11T08:32:10.84Z</time></trkpt><trkpt lat="43.1828908" lon="12.9318477"><ele>462.5</ele><time>2026-04-11T08:32:11.849Z</time></trkpt><trkpt lat="43.1829411" lon="12.9317041"><ele>465.0</ele><time>2026-04-11T08:32:12.841Z</time></trkpt><trkpt lat="43.1829799" lon="12.9315492"><ele>467.5</ele><time>2026-04-11T08:32:13.853Z</time></trkpt><trkpt lat="43.1830124" lon="12.9313825"><ele>470.0</ele><time>2026-04-11T08:32:14.848Z</time></trkpt><trkpt lat="43.1830442" lon="12.9312203"><ele>470.0</ele><time>2026-04-11T08:32:15.849Z</time></trkpt><trkpt lat="43.1830706" lon="12.9310788"><ele>470.0</ele><time>2026-04-11T08:32:16.848Z</time></trkpt><trkpt lat="43.1830924" lon="12.9309394"><ele>470.0</ele><time>2026-04-11T08:32:17.845Z</time></trkpt><trkpt lat="43.1831039" lon="12.9308069"><ele>470.0</ele><time>2026-04-11T08:32:18.846Z</time></trkpt><trkpt lat="43.1831085" lon="12.9306779"><ele>470.0</ele><time>2026-04-11T08:32:19.848Z</time></trkpt><trkpt lat="43.1830929" lon="12.9305569"><ele>470.2</ele><time>2026-04-11T08:32:20.852Z</time></trkpt><trkpt lat="43.1830546" lon="12.9304552"><ele>470.4</ele><time>2026-04-11T08:32:21.846Z</time></trkpt><trkpt lat="43.1829954" lon="12.9303533"><ele>470.6</ele><time>2026-04-11T08:32:22.858Z</time></trkpt><trkpt lat="43.1829233" lon="12.9302631"><ele>470.8</ele><time>2026-04-11T08:32:23.845Z</time></trkpt><trkpt lat="43.182838" lon="12.9302002"><ele>471.0</ele><time>2026-04-11T08:32:24.834Z</time></trkpt><trkpt lat="43.1827588" lon="12.9301491"><ele>471.0</ele><time>2026-04-11T08:32:25.84Z</time></trkpt><trkpt lat="43.1826855" lon="12.9300999"><ele>471.0</ele><time>2026-04-11T08:32:26.844Z</time></trkpt><trkpt lat="43.1826163" lon="12.9300381"><ele>471.0</ele><time>2026-04-11T08:32:27.85Z</time></trkpt><trkpt lat="43.1825498" lon="12.929953"><ele>471.0</ele><time>2026-04-11T08:32:28.841Z</time></trkpt><trkpt lat="43.1824843" lon="12.9298512"><ele>471.0</ele><time>2026-04-11T08:32:29.839Z</time></trkpt><trkpt lat="43.1824399" lon="12.9297303"><ele>469.1666666666667</ele><time>2026-04-11T08:32:30.836Z</time></trkpt><trkpt lat="43.1824036" lon="12.9296164"><ele>467.33333333333337</ele><time>2026-04-11T08:32:31.837Z</time></trkpt><trkpt lat="43.1823755" lon="12.9294996"><ele>465.5</ele><time>2026-04-11T08:32:32.838Z</time></trkpt><trkpt lat="43.1823637" lon="12.9293813"><ele>463.6666666666667</ele><time>2026-04-11T08:32:33.849Z</time></trkpt><trkpt lat="43.1823773" lon="12.9292654"><ele>461.83333333333337</ele><time>2026-04-11T08:32:34.838Z</time></trkpt><trkpt lat="43.1824034" lon="12.9291523"><ele>460.0</ele><time>2026-04-11T08:32:35.833Z</time></trkpt><trkpt lat="43.1824415" lon="12.9290297"><ele>459.6</ele><time>2026-04-11T08:32:36.833Z</time></trkpt><trkpt lat="43.182472" lon="12.9288991"><ele>459.2</ele><time>2026-04-11T08:32:37.847Z</time></trkpt><trkpt lat="43.1824865" lon="12.9287677"><ele>458.79999999999995</ele><time>2026-04-11T08:32:38.834Z</time></trkpt><trkpt lat="43.1824767" lon="12.9286443"><ele>458.4</ele><time>2026-04-11T08:32:39.855Z</time></trkpt><trkpt lat="43.1824554" lon="12.9285151"><ele>458.0</ele><time>2026-04-11T08:32:40.842Z</time></trkpt><trkpt lat="43.1824226" lon="12.9283777"><ele>458.0</ele><time>2026-04-11T08:32:41.852Z</time></trkpt><trkpt lat="43.1823781" lon="12.9282379"><ele>458.0</ele><time>2026-04-11T08:32:42.844Z</time></trkpt><trkpt lat="43.1823321" lon="12.9280805"><ele>458.0</ele><time>2026-04-11T08:32:43.844Z</time></trkpt><trkpt lat="43.182302" lon="12.9279032"><ele>458.0</ele><time>2026-04-11T08:32:44.85Z</time></trkpt><trkpt lat="43.1822828" lon="12.9277065"><ele>470.0</ele><time>2026-04-11T08:32:45.845Z</time></trkpt><trkpt lat="43.1822646" lon="12.9274917"><ele>482.0</ele><time>2026-04-11T08:32:46.834Z</time></trkpt><trkpt lat="43.1822274" lon="12.9272923"><ele>494.0</ele><time>2026-04-11T08:32:47.86Z</time></trkpt><trkpt lat="43.1821926" lon="12.9271108"><ele>506.0</ele><time>2026-04-11T08:32:48.842Z</time></trkpt><trkpt lat="43.1821576" lon="12.9269341"><ele>506.0</ele><time>2026-04-11T08:32:49.847Z</time></trkpt><trkpt lat="43.1821261" lon="12.926766"><ele>506.0</ele><time>2026-04-11T08:32:50.838Z</time></trkpt><trkpt lat="43.1820974" lon="12.9265964"><ele>506.0</ele><time>2026-04-11T08:32:51.846Z</time></trkpt><trkpt lat="43.1820703" lon="12.9264233"><ele>506.0</ele><time>2026-04-11T08:32:52.848Z</time></trkpt><trkpt lat="43.1820415" lon="12.9262536"><ele>504.4</ele><time>2026-04-11T08:32:53.848Z</time></trkpt><trkpt lat="43.1820218" lon="12.9260912"><ele>502.8</ele><time>2026-04-11T08:32:54.829Z</time></trkpt><trkpt lat="43.1819969" lon="12.9259362"><ele>501.19999999999993</ele><time>2026-04-11T08:32:55.838Z</time></trkpt><trkpt lat="43.1819844" lon="12.9257957"><ele>499.59999999999997</ele><time>2026-04-11T08:32:56.856Z</time></trkpt><trkpt lat="43.181977" lon="12.9256511"><ele>498.0</ele><time>2026-04-11T08:32:57.85Z</time></trkpt><trkpt lat="43.1819633" lon="12.9255113"><ele>495.4</ele><time>2026-04-11T08:32:58.841Z</time></trkpt><trkpt lat="43.1819661" lon="12.9253587"><ele>492.79999999999995</ele><time>2026-04-11T08:32:59.847Z</time></trkpt><trkpt lat="43.1819768" lon="12.9252178"><ele>490.2</ele><time>2026-04-11T08:33:00.841Z</time></trkpt><trkpt lat="43.1819934" lon="12.9250763"><ele>487.6</ele><time>2026-04-11T08:33:01.845Z</time></trkpt><trkpt lat="43.1819964" lon="12.9249446"><ele>485.0</ele><time>2026-04-11T08:33:02.84Z</time></trkpt><trkpt lat="43.1819857" lon="12.9247842"><ele>483.2</ele><time>2026-04-11T08:33:03.849Z</time></trkpt><trkpt lat="43.1819725" lon="12.9246253"><ele>481.4</ele><time>2026-04-11T08:33:04.837Z</time></trkpt><trkpt lat="43.1819657" lon="12.9244771"><ele>479.6</ele><time>2026-04-11T08:33:05.844Z</time></trkpt><trkpt lat="43.1819607" lon="12.9243331"><ele>477.8</ele><time>2026-04-11T08:33:06.837Z</time></trkpt><trkpt lat="43.1819608" lon="12.9242099"><ele>476.0</ele><time>2026-04-11T08:33:07.843Z</time></trkpt><trkpt lat="43.1819613" lon="12.9241036"><ele>473.0</ele><time>2026-04-11T08:33:08.839Z</time></trkpt><trkpt lat="43.1819711" lon="12.9239759"><ele>470.0</ele><time>2026-04-11T08:33:10.835Z</time></trkpt><trkpt lat="43.1818634" lon="12.9238898"><ele>467.0</ele><time>2026-04-11T08:33:13.842Z</time></trkpt><trkpt lat="43.1817715" lon="12.9238747"><ele>464.0</ele><time>2026-04-11T08:33:14.84Z</time></trkpt><trkpt lat="43.1816681" lon="12.923848"><ele>461.0</ele><time>2026-04-11T08:33:15.837Z</time></trkpt><trkpt lat="43.1815519" lon="12.9238216"><ele>463.25</ele><time>2026-04-11T08:33:16.835Z</time></trkpt><trkpt lat="43.1814366" lon="12.9237884"><ele>465.5</ele><time>2026-04-11T08:33:17.838Z</time></trkpt><trkpt lat="43.1813193" lon="12.9237586"><ele>467.75</ele><time>2026-04-11T08:33:18.833Z</time></trkpt><trkpt lat="43.1811986" lon="12.9237292"><ele>470.0</ele><time>2026-04-11T08:33:19.848Z</time></trkpt><trkpt lat="43.1810759" lon="12.9237022"><ele>470.0</ele><time>2026-04-11T08:33:20.84Z</time></trkpt><trkpt lat="43.1809569" lon="12.9236709"><ele>470.0</ele><time>2026-04-11T08:33:21.835Z</time></trkpt><trkpt lat="43.1808321" lon="12.9236419"><ele>470.0</ele><time>2026-04-11T08:33:22.838Z</time></trkpt><trkpt lat="43.1807057" lon="12.9236165"><ele>470.0</ele><time>2026-04-11T08:33:23.848Z</time></trkpt><trkpt lat="43.1805875" lon="12.9236006"><ele>470.8</ele><time>2026-04-11T08:33:24.838Z</time></trkpt><trkpt lat="43.1804796" lon="12.9235823"><ele>471.6</ele><time>2026-04-11T08:33:25.845Z</time></trkpt><trkpt lat="43.1803783" lon="12.9235688"><ele>472.4</ele><time>2026-04-11T08:33:26.835Z</time></trkpt><trkpt lat="43.1802859" lon="12.9235646"><ele>473.2</ele><time>2026-04-11T08:33:27.84Z</time></trkpt><trkpt lat="43.1802039" lon="12.9235709"><ele>474.0</ele><time>2026-04-11T08:33:28.836Z</time></trkpt><trkpt lat="43.1801238" lon="12.9235836"><ele>474.0</ele><time>2026-04-11T08:33:29.839Z</time></trkpt><trkpt lat="43.1800362" lon="12.9235955"><ele>474.0</ele><time>2026-04-11T08:33:30.839Z</time></trkpt><trkpt lat="43.1799595" lon="12.9236008"><ele>474.0</ele><time>2026-04-11T08:33:31.837Z</time></trkpt><trkpt lat="43.1798492" lon="12.9236125"><ele>474.0</ele><time>2026-04-11T08:33:33.845Z</time></trkpt><trkpt lat="43.1797483" lon="12.9235815"><ele>474.0</ele><time>2026-04-11T08:33:35.845Z</time></trkpt><trkpt lat="43.1796945" lon="12.9235336"><ele>474.0</ele><time>2026-04-11T08:33:36.83Z</time></trkpt><trkpt lat="43.179636" lon="12.9234599"><ele>473.0</ele><time>2026-04-11T08:33:37.835Z</time></trkpt><trkpt lat="43.179572" lon="12.9233776"><ele>472.0</ele><time>2026-04-11T08:33:38.828Z</time></trkpt><trkpt lat="43.1795021" lon="12.923285"><ele>471.0</ele><time>2026-04-11T08:33:39.835Z</time></trkpt><trkpt lat="43.1794188" lon="12.9232027"><ele>470.0</ele><time>2026-04-11T08:33:40.836Z</time></trkpt><trkpt lat="43.1793397" lon="12.9231228"><ele>469.0</ele><time>2026-04-11T08:33:41.841Z</time></trkpt><trkpt lat="43.1792706" lon="12.9230434"><ele>469.0</ele><time>2026-04-11T08:33:42.832Z</time></trkpt><trkpt lat="43.1792088" lon="12.9229485"><ele>469.0</ele><time>2026-04-11T08:33:43.853Z</time></trkpt><trkpt lat="43.1791472" lon="12.9228205"><ele>469.0</ele><time>2026-04-11T08:33:44.835Z</time></trkpt><trkpt lat="43.1790971" lon="12.9226763"><ele>469.0</ele><time>2026-04-11T08:33:45.844Z</time></trkpt><trkpt lat="43.179076" lon="12.9225312"><ele>469.0</ele><time>2026-04-11T08:33:46.828Z</time></trkpt><trkpt lat="43.1790699" lon="12.9223936"><ele>468.79999999999995</ele><time>2026-04-11T08:33:47.835Z</time></trkpt><trkpt lat="43.1790632" lon="12.9222836"><ele>468.59999999999997</ele><time>2026-04-11T08:33:48.833Z</time></trkpt><trkpt lat="43.1790542" lon="12.9221837"><ele>468.4</ele><time>2026-04-11T08:33:49.834Z</time></trkpt><trkpt lat="43.1789907" lon="12.9220518"><ele>468.2</ele><time>2026-04-11T08:33:51.834Z</time></trkpt><trkpt lat="43.1788658" lon="12.9220085"><ele>468.0</ele><time>2026-04-11T08:33:53.833Z</time></trkpt><trkpt lat="43.1787787" lon="12.9219948"><ele>468.0</ele><time>2026-04-11T08:33:54.839Z</time></trkpt><trkpt lat="43.1786841" lon="12.921987"><ele>467.99999999999994</ele><time>2026-04-11T08:33:55.857Z</time></trkpt><trkpt lat="43.1785847" lon="12.9219923"><ele>467.99999999999994</ele><time>2026-04-11T08:33:56.842Z</time></trkpt><trkpt lat="43.1784775" lon="12.922011"><ele>468.0</ele><time>2026-04-11T08:33:57.836Z</time></trkpt><trkpt lat="43.178372" lon="12.9220215"><ele>468.0</ele><time>2026-04-11T08:33:58.834Z</time></trkpt><trkpt lat="43.1782657" lon="12.9220391"><ele>471.4</ele><time>2026-04-11T08:33:59.84Z</time></trkpt><trkpt lat="43.1781608" lon="12.9220567"><ele>474.79999999999995</ele><time>2026-04-11T08:34:00.852Z</time></trkpt><trkpt lat="43.1780595" lon="12.9220553"><ele>478.2</ele><time>2026-04-11T08:34:01.831Z</time></trkpt><trkpt lat="43.1779591" lon="12.9220389"><ele>481.6</ele><time>2026-04-11T08:34:02.832Z</time></trkpt><trkpt lat="43.1778558" lon="12.9220083"><ele>485.0</ele><time>2026-04-11T08:34:03.835Z</time></trkpt><trkpt lat="43.1777528" lon="12.9219723"><ele>485.0</ele><time>2026-04-11T08:34:04.842Z</time></trkpt><trkpt lat="43.1776446" lon="12.9219259"><ele>485.0</ele><time>2026-04-11T08:34:05.833Z</time></trkpt><trkpt lat="43.1775351" lon="12.9218798"><ele>485.0</ele><time>2026-04-11T08:34:06.844Z</time></trkpt><trkpt lat="43.1774229" lon="12.9218241"><ele>485.0</ele><time>2026-04-11T08:34:07.832Z</time></trkpt><trkpt lat="43.1773094" lon="12.9217625"><ele>483.75</ele><time>2026-04-11T08:34:08.83Z</time></trkpt><trkpt lat="43.1771956" lon="12.9216995"><ele>482.5</ele><time>2026-04-11T08:34:09.833Z</time></trkpt><trkpt lat="43.1770789" lon="12.9216351"><ele>481.25</ele><time>2026-04-11T08:34:10.828Z</time></trkpt><trkpt lat="43.176962" lon="12.9215786"><ele>480.0</ele><time>2026-04-11T08:34:11.855Z</time></trkpt><trkpt lat="43.1768419" lon="12.9215294"><ele>480.0</ele><time>2026-04-11T08:34:12.831Z</time></trkpt><trkpt lat="43.1767161" lon="12.9214946"><ele>480.0</ele><time>2026-04-11T08:34:13.837Z</time></trkpt><trkpt lat="43.1765782" lon="12.9214754"><ele>480.0</ele><time>2026-04-11T08:34:14.826Z</time></trkpt><trkpt lat="43.1764386" lon="12.9214685"><ele>480.0</ele><time>2026-04-11T08:34:15.838Z</time></trkpt><trkpt lat="43.176292" lon="12.9214561"><ele>482.0</ele><time>2026-04-11T08:34:16.834Z</time></trkpt><trkpt lat="43.1761518" lon="12.9214304"><ele>484.0</ele><time>2026-04-11T08:34:17.834Z</time></trkpt><trkpt lat="43.1760218" lon="12.9214146"><ele>486.0</ele><time>2026-04-11T08:34:18.842Z</time></trkpt><trkpt lat="43.1758974" lon="12.9214155"><ele>488.0</ele><time>2026-04-11T08:34:19.837Z</time></trkpt><trkpt lat="43.1757703" lon="12.9214035"><ele>489.75</ele><time>2026-04-11T08:34:20.833Z</time></trkpt><trkpt lat="43.1756487" lon="12.9213663"><ele>491.5</ele><time>2026-04-11T08:34:21.838Z</time></trkpt><trkpt lat="43.1755484" lon="12.9212945"><ele>493.25</ele><time>2026-04-11T08:34:22.834Z</time></trkpt><trkpt lat="43.175451" lon="12.9212284"><ele>495.0</ele><time>2026-04-11T08:34:23.849Z</time></trkpt><trkpt lat="43.1753442" lon="12.9211763"><ele>495.0</ele><time>2026-04-11T08:34:24.83Z</time></trkpt><trkpt lat="43.1752372" lon="12.9211362"><ele>495.0</ele><time>2026-04-11T08:34:25.846Z</time></trkpt><trkpt lat="43.1751295" lon="12.9210932"><ele>495.0</ele><time>2026-04-11T08:34:26.831Z</time></trkpt><trkpt lat="43.1750189" lon="12.9210497"><ele>495.0</ele><time>2026-04-11T08:34:27.838Z</time></trkpt><trkpt lat="43.1749039" lon="12.921015"><ele>498.25</ele><time>2026-04-11T08:34:28.825Z</time></trkpt><trkpt lat="43.1747923" lon="12.9209951"><ele>501.5</ele><time>2026-04-11T08:34:29.833Z</time></trkpt><trkpt lat="43.1746791" lon="12.9209781"><ele>504.75</ele><time>2026-04-11T08:34:30.84Z</time></trkpt><trkpt lat="43.1745652" lon="12.9209619"><ele>508.0</ele><time>2026-04-11T08:34:31.839Z</time></trkpt><trkpt lat="43.174454" lon="12.9209447"><ele>508.0</ele><time>2026-04-11T08:34:32.827Z</time></trkpt><trkpt lat="43.1743467" lon="12.9209121"><ele>507.99999999999994</ele><time>2026-04-11T08:34:33.838Z</time></trkpt><trkpt lat="43.1742453" lon="12.9208819"><ele>507.99999999999994</ele><time>2026-04-11T08:34:34.828Z</time></trkpt><trkpt lat="43.1741435" lon="12.9208583"><ele>508.0</ele><time>2026-04-11T08:34:35.83Z</time></trkpt><trkpt lat="43.1740411" lon="12.9208487"><ele>508.0</ele><time>2026-04-11T08:34:36.829Z</time></trkpt><trkpt lat="43.1739345" lon="12.920841"><ele>509.75</ele><time>2026-04-11T08:34:37.841Z</time></trkpt><trkpt lat="43.1738214" lon="12.920827"><ele>511.5</ele><time>2026-04-11T08:34:38.826Z</time></trkpt><trkpt lat="43.1737096" lon="12.9208119"><ele>513.25</ele><time>2026-04-11T08:34:39.832Z</time></trkpt><trkpt lat="43.1735937" lon="12.9207934"><ele>515.0</ele><time>2026-04-11T08:34:40.828Z</time></trkpt><trkpt lat="43.1734704" lon="12.9207648"><ele>515.0</ele><time>2026-04-11T08:34:41.833Z</time></trkpt><trkpt lat="43.173352" lon="12.9207423"><ele>515.0</ele><time>2026-04-11T08:34:42.833Z</time></trkpt><trkpt lat="43.1732293" lon="12.9207291"><ele>515.0</ele><time>2026-04-11T08:34:43.835Z</time></trkpt><trkpt lat="43.1731053" lon="12.9207142"><ele>515.0</ele><time>2026-04-11T08:34:44.833Z</time></trkpt><trkpt lat="43.1729821" lon="12.9207108"><ele>517.0</ele><time>2026-04-11T08:34:45.829Z</time></trkpt><trkpt lat="43.1728627" lon="12.920711"><ele>519.0</ele><time>2026-04-11T08:34:46.833Z</time></trkpt><trkpt lat="43.1727408" lon="12.9207078"><ele>521.0</ele><time>2026-04-11T08:34:47.856Z</time></trkpt><trkpt lat="43.1726221" lon="12.9206985"><ele>523.0</ele><time>2026-04-11T08:34:48.833Z</time></trkpt><trkpt lat="43.1725035" lon="12.9206975"><ele>523.0</ele><time>2026-04-11T08:34:49.833Z</time></trkpt><trkpt lat="43.1723857" lon="12.9206849"><ele>523.0</ele><time>2026-04-11T08:34:50.833Z</time></trkpt><trkpt lat="43.172264" lon="12.9206602"><ele>523.0</ele><time>2026-04-11T08:34:51.833Z</time></trkpt><trkpt lat="43.172147" lon="12.9206366"><ele>523.0</ele><time>2026-04-11T08:34:52.827Z</time></trkpt><trkpt lat="43.1720233" lon="12.9206303"><ele>523.5</ele><time>2026-04-11T08:34:53.836Z</time></trkpt><trkpt lat="43.1718995" lon="12.9206234"><ele>524.0</ele><time>2026-04-11T08:34:54.832Z</time></trkpt><trkpt lat="43.1717683" lon="12.9206192"><ele>524.5</ele><time>2026-04-11T08:34:55.834Z</time></trkpt><trkpt lat="43.171628" lon="12.9206115"><ele>525.0</ele><time>2026-04-11T08:34:56.835Z</time></trkpt><trkpt lat="43.1714799" lon="12.9205987"><ele>527.0</ele><time>2026-04-11T08:34:57.845Z</time></trkpt><trkpt lat="43.1713312" lon="12.9205838"><ele>529.0</ele><time>2026-04-11T08:34:58.824Z</time></trkpt><trkpt lat="43.1711852" lon="12.9205805"><ele>531.0</ele><time>2026-04-11T08:34:59.845Z</time></trkpt><trkpt lat="43.1710426" lon="12.9205757"><ele>533.0</ele><time>2026-04-11T08:35:00.83Z</time></trkpt><trkpt lat="43.1709039" lon="12.9205577"><ele>533.0</ele><time>2026-04-11T08:35:01.837Z</time></trkpt><trkpt lat="43.1707793" lon="12.920527"><ele>533.0</ele><time>2026-04-11T08:35:02.836Z</time></trkpt><trkpt lat="43.1706602" lon="12.9204887"><ele>533.0</ele><time>2026-04-11T08:35:03.835Z</time></trkpt><trkpt lat="43.1705517" lon="12.9204309"><ele>533.0</ele><time>2026-04-11T08:35:04.831Z</time></trkpt><trkpt lat="43.170452" lon="12.9203562"><ele>536.25</ele><time>2026-04-11T08:35:05.831Z</time></trkpt><trkpt lat="43.1703579" lon="12.9202737"><ele>539.5</ele><time>2026-04-11T08:35:06.834Z</time></trkpt><trkpt lat="43.1702602" lon="12.9202043"><ele>542.75</ele><time>2026-04-11T08:35:07.845Z</time></trkpt><trkpt lat="43.1701408" lon="12.9201461"><ele>546.0</ele><time>2026-04-11T08:35:08.841Z</time></trkpt><trkpt lat="43.1700095" lon="12.9200776"><ele>548.25</ele><time>2026-04-11T08:35:09.833Z</time></trkpt><trkpt lat="43.1698744" lon="12.9200229"><ele>550.5</ele><time>2026-04-11T08:35:10.832Z</time></trkpt><trkpt lat="43.169741" lon="12.9199811"><ele>552.75</ele><time>2026-04-11T08:35:11.832Z</time></trkpt><trkpt lat="43.1696306" lon="12.919932"><ele>555.0</ele><time>2026-04-11T08:35:12.831Z</time></trkpt><trkpt lat="43.1695234" lon="12.9198826"><ele>556.5</ele><time>2026-04-11T08:35:13.829Z</time></trkpt><trkpt lat="43.1694104" lon="12.9198686"><ele>558.0</ele><time>2026-04-11T08:35:14.836Z</time></trkpt><trkpt lat="43.1692857" lon="12.9198833"><ele>559.5</ele><time>2026-04-11T08:35:15.832Z</time></trkpt><trkpt lat="43.1691508" lon="12.9199026"><ele>561.0</ele><time>2026-04-11T08:35:16.835Z</time></trkpt><trkpt lat="43.169009" lon="12.9199269"><ele>565.0</ele><time>2026-04-11T08:35:17.833Z</time></trkpt><trkpt lat="43.1688712" lon="12.9199358"><ele>569.0</ele><time>2026-04-11T08:35:18.84Z</time></trkpt><trkpt lat="43.1687341" lon="12.9199433"><ele>573.0</ele><time>2026-04-11T08:35:19.846Z</time></trkpt><trkpt lat="43.1685904" lon="12.9199426"><ele>577.0</ele><time>2026-04-11T08:35:20.845Z</time></trkpt><trkpt lat="43.168442" lon="12.9199544"><ele>577.0</ele><time>2026-04-11T08:35:21.842Z</time></trkpt><trkpt lat="43.1682965" lon="12.919951"><ele>577.0</ele><time>2026-04-11T08:35:22.834Z</time></trkpt><trkpt lat="43.1681564" lon="12.9199476"><ele>577.0</ele><time>2026-04-11T08:35:23.844Z</time></trkpt><trkpt lat="43.1680265" lon="12.9199541"><ele>577.0</ele><time>2026-04-11T08:35:24.836Z</time></trkpt><trkpt lat="43.16791" lon="12.9199503"><ele>579.5</ele><time>2026-04-11T08:35:25.837Z</time></trkpt><trkpt lat="43.167798" lon="12.9199293"><ele>582.0</ele><time>2026-04-11T08:35:26.832Z</time></trkpt><trkpt lat="43.1676851" lon="12.9199004"><ele>584.5</ele><time>2026-04-11T08:35:27.84Z</time></trkpt><trkpt lat="43.167565" lon="12.9198679"><ele>587.0</ele><time>2026-04-11T08:35:28.84Z</time></trkpt><trkpt lat="43.1674453" lon="12.9198253"><ele>593.0</ele><time>2026-04-11T08:35:29.838Z</time></trkpt><trkpt lat="43.1673256" lon="12.919778"><ele>599.0</ele><time>2026-04-11T08:35:30.832Z</time></trkpt><trkpt lat="43.1672071" lon="12.9197272"><ele>605.0</ele><time>2026-04-11T08:35:31.851Z</time></trkpt><trkpt lat="43.1670933" lon="12.9196747"><ele>611.0</ele><time>2026-04-11T08:35:32.837Z</time></trkpt><trkpt lat="43.1669713" lon="12.9196359"><ele>611.0</ele><time>2026-04-11T08:35:33.83Z</time></trkpt><trkpt lat="43.1668534" lon="12.9196096"><ele>611.0</ele><time>2026-04-11T08:35:34.824Z</time></trkpt><trkpt lat="43.166736" lon="12.9195904"><ele>611.0</ele><time>2026-04-11T08:35:35.837Z</time></trkpt><trkpt lat="43.1666279" lon="12.9195635"><ele>611.0</ele><time>2026-04-11T08:35:36.845Z</time></trkpt><trkpt lat="43.1665293" lon="12.9195267"><ele>615.1666666666666</ele><time>2026-04-11T08:35:37.836Z</time></trkpt><trkpt lat="43.1664449" lon="12.9194889"><ele>619.3333333333333</ele><time>2026-04-11T08:35:38.84Z</time></trkpt><trkpt lat="43.1663692" lon="12.9194473"><ele>623.5</ele><time>2026-04-11T08:35:39.832Z</time></trkpt><trkpt lat="43.1662929" lon="12.9194169"><ele>627.6666666666666</ele><time>2026-04-11T08:35:40.838Z</time></trkpt><trkpt lat="43.166221" lon="12.9193869"><ele>631.8333333333334</ele><time>2026-04-11T08:35:41.835Z</time></trkpt><trkpt lat="43.1661533" lon="12.9193603"><ele>636.0</ele><time>2026-04-11T08:35:42.838Z</time></trkpt><trkpt lat="43.166084" lon="12.9193418"><ele>636.0</ele><time>2026-04-11T08:35:43.838Z</time></trkpt><trkpt lat="43.166018" lon="12.9193311"><ele>636.0</ele><time>2026-04-11T08:35:44.837Z</time></trkpt><trkpt lat="43.165946" lon="12.9193245"><ele>636.0</ele><time>2026-04-11T08:35:45.839Z</time></trkpt><trkpt lat="43.1658717" lon="12.9193193"><ele>636.0</ele><time>2026-04-11T08:35:46.833Z</time></trkpt><trkpt lat="43.1657902" lon="12.9193174"><ele>636.0</ele><time>2026-04-11T08:35:47.832Z</time></trkpt><trkpt lat="43.1657101" lon="12.9193243"><ele>636.0</ele><time>2026-04-11T08:35:48.842Z</time></trkpt><trkpt lat="43.1656339" lon="12.9193394"><ele>639.1428571428571</ele><time>2026-04-11T08:35:49.838Z</time></trkpt><trkpt lat="43.1655586" lon="12.9193869"><ele>642.2857142857143</ele><time>2026-04-11T08:35:50.83Z</time></trkpt><trkpt lat="43.1654831" lon="12.9194149"><ele>645.4285714285714</ele><time>2026-04-11T08:35:51.835Z</time></trkpt><trkpt lat="43.1654087" lon="12.9194408"><ele>648.5714285714286</ele><time>2026-04-11T08:35:52.831Z</time></trkpt><trkpt lat="43.165338" lon="12.9194638"><ele>651.7142857142858</ele><time>2026-04-11T08:35:53.841Z</time></trkpt><trkpt lat="43.1652724" lon="12.9194872"><ele>654.8571428571429</ele><time>2026-04-11T08:35:54.834Z</time></trkpt><trkpt lat="43.1652082" lon="12.9195044"><ele>658.0</ele><time>2026-04-11T08:35:55.842Z</time></trkpt><trkpt lat="43.1651394" lon="12.9195172"><ele>658.0</ele><time>2026-04-11T08:35:56.859Z</time></trkpt><trkpt lat="43.1650761" lon="12.9195274"><ele>658.0</ele><time>2026-04-11T08:35:57.854Z</time></trkpt><trkpt lat="43.165008" lon="12.9195511"><ele>658.0</ele><time>2026-04-11T08:35:58.852Z</time></trkpt><trkpt lat="43.1649296" lon="12.9195808"><ele>658.0</ele><time>2026-04-11T08:35:59.831Z</time></trkpt><trkpt lat="43.1648538" lon="12.9196072"><ele>658.0</ele><time>2026-04-11T08:36:00.836Z</time></trkpt><trkpt lat="43.1647723" lon="12.9196216"><ele>658.0</ele><time>2026-04-11T08:36:01.837Z</time></trkpt><trkpt lat="43.1646867" lon="12.9196241"><ele>658.6666666666667</ele><time>2026-04-11T08:36:02.832Z</time></trkpt><trkpt lat="43.164608" lon="12.91962"><ele>659.3333333333334</ele><time>2026-04-11T08:36:03.838Z</time></trkpt><trkpt lat="43.1645451" lon="12.9195975"><ele>660.0</ele><time>2026-04-11T08:36:04.833Z</time></trkpt><trkpt lat="43.1644635" lon="12.9195131"><ele>660.6666666666666</ele><time>2026-04-11T08:36:06.827Z</time></trkpt><trkpt lat="43.1644589" lon="12.9194151"><ele>661.3333333333333</ele><time>2026-04-11T08:36:07.84Z</time></trkpt><trkpt lat="43.1644619" lon="12.9193113"><ele>662.0</ele><time>2026-04-11T08:36:08.826Z</time></trkpt><trkpt lat="43.1644855" lon="12.9192212"><ele>662.0</ele><time>2026-04-11T08:36:09.833Z</time></trkpt><trkpt lat="43.1645268" lon="12.9191383"><ele>662.0</ele><time>2026-04-11T08:36:10.833Z</time></trkpt><trkpt lat="43.1645944" lon="12.9190687"><ele>662.0</ele><time>2026-04-11T08:36:11.834Z</time></trkpt><trkpt lat="43.1646893" lon="12.9190041"><ele>662.0</ele><time>2026-04-11T08:36:12.839Z</time></trkpt><trkpt lat="43.1647964" lon="12.9189426"><ele>662.0</ele><time>2026-04-11T08:36:13.83Z</time></trkpt><trkpt lat="43.164909" lon="12.9188945"><ele>659.0</ele><time>2026-04-11T08:36:14.835Z</time></trkpt><trkpt lat="43.1650004" lon="12.9188584"><ele>656.0</ele><time>2026-04-11T08:36:15.833Z</time></trkpt><trkpt lat="43.1650763" lon="12.9188184"><ele>653.0</ele><time>2026-04-11T08:36:16.825Z</time></trkpt><trkpt lat="43.1651429" lon="12.9187641"><ele>650.0</ele><time>2026-04-11T08:36:17.849Z</time></trkpt><trkpt lat="43.16521" lon="12.9187116"><ele>647.0</ele><time>2026-04-11T08:36:18.834Z</time></trkpt><trkpt lat="43.1652911" lon="12.9186779"><ele>644.0</ele><time>2026-04-11T08:36:19.84Z</time></trkpt><trkpt lat="43.1653806" lon="12.9186653"><ele>644.0</ele><time>2026-04-11T08:36:20.826Z</time></trkpt><trkpt lat="43.1654678" lon="12.9186497"><ele>644.0</ele><time>2026-04-11T08:36:21.837Z</time></trkpt><trkpt lat="43.1655501" lon="12.9186323"><ele>644.0</ele><time>2026-04-11T08:36:22.825Z</time></trkpt><trkpt lat="43.165627" lon="12.9186147"><ele>644.0</ele><time>2026-04-11T08:36:23.84Z</time></trkpt><trkpt lat="43.165695" lon="12.9185917"><ele>644.0</ele><time>2026-04-11T08:36:24.834Z</time></trkpt><trkpt lat="43.165777" lon="12.9184996"><ele>644.0</ele><time>2026-04-11T08:36:26.833Z</time></trkpt><trkpt lat="43.1657937" lon="12.9183397"><ele>646.8333333333333</ele><time>2026-04-11T08:36:28.835Z</time></trkpt><trkpt lat="43.1658082" lon="12.9182245"><ele>649.6666666666666</ele><time>2026-04-11T08:36:29.833Z</time></trkpt><trkpt lat="43.165834" lon="12.918092"><ele>652.5</ele><time>2026-04-11T08:36:30.834Z</time></trkpt><trkpt lat="43.165864" lon="12.91798"><ele>655.3333333333334</ele><time>2026-04-11T08:36:31.831Z</time></trkpt><trkpt lat="43.1659089" lon="12.9178835"><ele>658.1666666666667</ele><time>2026-04-11T08:36:32.842Z</time></trkpt><trkpt lat="43.1659805" lon="12.9178272"><ele>661.0</ele><time>2026-04-11T08:36:33.836Z</time></trkpt><trkpt lat="43.1660769" lon="12.9178137"><ele>661.0</ele><time>2026-04-11T08:36:34.832Z</time></trkpt><trkpt lat="43.1661893" lon="12.9178353"><ele>661.0</ele><time>2026-04-11T08:36:35.842Z</time></trkpt><trkpt lat="43.1662966" lon="12.9178698"><ele>661.0</ele><time>2026-04-11T08:36:36.833Z</time></trkpt><trkpt lat="43.1663902" lon="12.9179226"><ele>661.0</ele><time>2026-04-11T08:36:37.845Z</time></trkpt><trkpt lat="43.1664779" lon="12.9179665"><ele>661.0</ele><time>2026-04-11T08:36:38.837Z</time></trkpt><trkpt lat="43.1665691" lon="12.9179864"><ele>658.75</ele><time>2026-04-11T08:36:39.836Z</time></trkpt><trkpt lat="43.166673" lon="12.9179913"><ele>656.5</ele><time>2026-04-11T08:36:40.84Z</time></trkpt><trkpt lat="43.1667813" lon="12.9179872"><ele>654.25</ele><time>2026-04-11T08:36:41.83Z</time></trkpt><trkpt lat="43.1669031" lon="12.91798"><ele>652.0</ele><time>2026-04-11T08:36:42.839Z</time></trkpt><trkpt lat="43.1670355" lon="12.9179891"><ele>652.0</ele><time>2026-04-11T08:36:43.829Z</time></trkpt><trkpt lat="43.1671644" lon="12.9180124"><ele>652.0</ele><time>2026-04-11T08:36:44.832Z</time></trkpt><trkpt lat="43.1672735" lon="12.9180323"><ele>652.0</ele><time>2026-04-11T08:36:45.837Z</time></trkpt><trkpt lat="43.167381" lon="12.9180464"><ele>652.0</ele><time>2026-04-11T08:36:46.833Z</time></trkpt><trkpt lat="43.1674801" lon="12.9180474"><ele>652.0</ele><time>2026-04-11T08:36:47.839Z</time></trkpt><trkpt lat="43.1675699" lon="12.9180214"><ele>653.2</ele><time>2026-04-11T08:36:48.827Z</time></trkpt><trkpt lat="43.1676586" lon="12.9179823"><ele>654.4000000000001</ele><time>2026-04-11T08:36:49.848Z</time></trkpt><trkpt lat="43.1677579" lon="12.9179525"><ele>655.5999999999999</ele><time>2026-04-11T08:36:50.829Z</time></trkpt><trkpt lat="43.1678699" lon="12.917962"><ele>656.8</ele><time>2026-04-11T08:36:51.837Z</time></trkpt><trkpt lat="43.1679877" lon="12.9179754"><ele>658.0</ele><time>2026-04-11T08:36:52.836Z</time></trkpt><trkpt lat="43.1681108" lon="12.9179921"><ele>658.2</ele><time>2026-04-11T08:36:53.831Z</time></trkpt><trkpt lat="43.1682259" lon="12.9179933"><ele>658.4</ele><time>2026-04-11T08:36:54.856Z</time></trkpt><trkpt lat="43.1683263" lon="12.9179811"><ele>658.6</ele><time>2026-04-11T08:36:55.83Z</time></trkpt><trkpt lat="43.1684164" lon="12.9179453"><ele>658.8000000000001</ele><time>2026-04-11T08:36:56.841Z</time></trkpt><trkpt lat="43.1684916" lon="12.9178729"><ele>659.0</ele><time>2026-04-11T08:36:57.84Z</time></trkpt><trkpt lat="43.1685646" lon="12.917765"><ele>659.0</ele><time>2026-04-11T08:36:58.838Z</time></trkpt><trkpt lat="43.1686415" lon="12.9176354"><ele>659.0</ele><time>2026-04-11T08:36:59.845Z</time></trkpt><trkpt lat="43.1687403" lon="12.9175039"><ele>659.0</ele><time>2026-04-11T08:37:00.844Z</time></trkpt><trkpt lat="43.1688465" lon="12.9173782"><ele>659.0</ele><time>2026-04-11T08:37:01.842Z</time></trkpt><trkpt lat="43.1689341" lon="12.9172856"><ele>663.4000000000001</ele><time>2026-04-11T08:37:02.843Z</time></trkpt><trkpt lat="43.1690208" lon="12.9171832"><ele>667.8</ele><time>2026-04-11T08:37:03.84Z</time></trkpt><trkpt lat="43.1690924" lon="12.9170721"><ele>672.2</ele><time>2026-04-11T08:37:04.844Z</time></trkpt><trkpt lat="43.1691364" lon="12.9169413"><ele>676.5999999999999</ele><time>2026-04-11T08:37:05.85Z</time></trkpt><trkpt lat="43.1691764" lon="12.9168194"><ele>681.0</ele><time>2026-04-11T08:37:06.843Z</time></trkpt><trkpt lat="43.1692245" lon="12.9167537"><ele>681.0</ele><time>2026-04-11T08:37:07.828Z</time></trkpt><trkpt lat="43.1693186" lon="12.9167554"><ele>681.0</ele><time>2026-04-11T08:37:08.831Z</time></trkpt><trkpt lat="43.1694335" lon="12.9168279"><ele>681.0</ele><time>2026-04-11T08:37:09.827Z</time></trkpt><trkpt lat="43.1695796" lon="12.9168885"><ele>681.0</ele><time>2026-04-11T08:37:10.837Z</time></trkpt><trkpt lat="43.1697586" lon="12.9169667"><ele>684.6666666666666</ele><time>2026-04-11T08:37:11.832Z</time></trkpt><trkpt lat="43.1699462" lon="12.9170434"><ele>688.3333333333333</ele><time>2026-04-11T08:37:12.83Z</time></trkpt><trkpt lat="43.1701085" lon="12.9171143"><ele>692.0</ele><time>2026-04-11T08:37:13.845Z</time></trkpt><trkpt lat="43.1702695" lon="12.9171684"><ele>692.0</ele><time>2026-04-11T08:37:14.83Z</time></trkpt><trkpt lat="43.1704094" lon="12.917222"><ele>692.0</ele><time>2026-04-11T08:37:15.839Z</time></trkpt><trkpt lat="43.1705205" lon="12.9172656"><ele>692.0</ele><time>2026-04-11T08:37:16.829Z</time></trkpt><trkpt lat="43.1706135" lon="12.9172896"><ele>692.0</ele><time>2026-04-11T08:37:17.844Z</time></trkpt><trkpt lat="43.1706877" lon="12.9172908"><ele>692.0</ele><time>2026-04-11T08:37:18.83Z</time></trkpt><trkpt lat="43.1707532" lon="12.9172693"><ele>695.0</ele><time>2026-04-11T08:37:19.836Z</time></trkpt><trkpt lat="43.1708226" lon="12.9172283"><ele>698.0</ele><time>2026-04-11T08:37:20.828Z</time></trkpt><trkpt lat="43.1709206" lon="12.9171501"><ele>701.0</ele><time>2026-04-11T08:37:21.848Z</time></trkpt><trkpt lat="43.1710623" lon="12.9170442"><ele>704.0</ele><time>2026-04-11T08:37:22.83Z</time></trkpt><trkpt lat="43.1712142" lon="12.9169533"><ele>704.0</ele><time>2026-04-11T08:37:23.836Z</time></trkpt><trkpt lat="43.1713685" lon="12.9169177"><ele>704.0</ele><time>2026-04-11T08:37:24.836Z</time></trkpt><trkpt lat="43.1715181" lon="12.9169186"><ele>704.0</ele><time>2026-04-11T08:37:25.828Z</time></trkpt><trkpt lat="43.1716704" lon="12.9169445"><ele>704.25</ele><time>2026-04-11T08:37:26.841Z</time></trkpt><trkpt lat="43.1718206" lon="12.9170048"><ele>704.5</ele><time>2026-04-11T08:37:27.837Z</time></trkpt><trkpt lat="43.1719607" lon="12.9170379"><ele>704.75</ele><time>2026-04-11T08:37:28.839Z</time></trkpt><trkpt lat="43.1720997" lon="12.9170636"><ele>705.0</ele><time>2026-04-11T08:37:29.839Z</time></trkpt><trkpt lat="43.1722452" lon="12.9170826"><ele>706.6666666666666</ele><time>2026-04-11T08:37:30.832Z</time></trkpt><trkpt lat="43.1724033" lon="12.9170838"><ele>708.3333333333333</ele><time>2026-04-11T08:37:31.84Z</time></trkpt><trkpt lat="43.1725625" lon="12.9170688"><ele>710.0</ele><time>2026-04-11T08:37:32.837Z</time></trkpt><trkpt lat="43.1727174" lon="12.9170406"><ele>710.0</ele><time>2026-04-11T08:37:33.83Z</time></trkpt><trkpt lat="43.1728627" lon="12.917011"><ele>710.0</ele><time>2026-04-11T08:37:34.836Z</time></trkpt><trkpt lat="43.1729968" lon="12.9169935"><ele>710.0</ele><time>2026-04-11T08:37:35.833Z</time></trkpt><trkpt lat="43.1731353" lon="12.9169819"><ele>710.0</ele><time>2026-04-11T08:37:36.829Z</time></trkpt><trkpt lat="43.173267" lon="12.916974"><ele>709.25</ele><time>2026-04-11T08:37:37.85Z</time></trkpt><trkpt lat="43.1734042" lon="12.9169562"><ele>708.5</ele><time>2026-04-11T08:37:38.834Z</time></trkpt><trkpt lat="43.1735395" lon="12.9169516"><ele>707.75</ele><time>2026-04-11T08:37:39.837Z</time></trkpt><trkpt lat="43.1736801" lon="12.9169399"><ele>707.0</ele><time>2026-04-11T08:37:40.844Z</time></trkpt><trkpt lat="43.1738269" lon="12.9169124"><ele>707.0</ele><time>2026-04-11T08:37:41.841Z</time></trkpt><trkpt lat="43.1739669" lon="12.9168793"><ele>707.0</ele><time>2026-04-11T08:37:42.835Z</time></trkpt><trkpt lat="43.1741009" lon="12.9168393"><ele>707.0</ele><time>2026-04-11T08:37:43.846Z</time></trkpt><trkpt lat="43.1742327" lon="12.9167822"><ele>707.0</ele><time>2026-04-11T08:37:44.834Z</time></trkpt><trkpt lat="43.1743487" lon="12.9167259"><ele>715.4000000000001</ele><time>2026-04-11T08:37:45.836Z</time></trkpt><trkpt lat="43.1744435" lon="12.9166673"><ele>723.8000000000001</ele><time>2026-04-11T08:37:46.837Z</time></trkpt><trkpt lat="43.1745092" lon="12.9166047"><ele>732.2</ele><time>2026-04-11T08:37:47.835Z</time></trkpt><trkpt lat="43.174561" lon="12.9164924"><ele>740.6</ele><time>2026-04-11T08:37:49.839Z</time></trkpt><trkpt lat="43.1745522" lon="12.9163222"><ele>749.0</ele><time>2026-04-11T08:37:51.845Z</time></trkpt><trkpt lat="43.1745088" lon="12.9162301"><ele>749.0</ele><time>2026-04-11T08:37:52.839Z</time></trkpt><trkpt lat="43.174463" lon="12.9161328"><ele>749.0</ele><time>2026-04-11T08:37:53.832Z</time></trkpt><trkpt lat="43.1744153" lon="12.9160364"><ele>749.0</ele><time>2026-04-11T08:37:54.834Z</time></trkpt><trkpt lat="43.1743603" lon="12.9159134"><ele>749.0</ele><time>2026-04-11T08:37:55.846Z</time></trkpt><trkpt lat="43.1742928" lon="12.9157938"><ele>749.0</ele><time>2026-04-11T08:37:56.851Z</time></trkpt><trkpt lat="43.174222" lon="12.9156882"><ele>753.0</ele><time>2026-04-11T08:37:57.845Z</time></trkpt><trkpt lat="43.1741532" lon="12.9155863"><ele>757.0</ele><time>2026-04-11T08:37:58.838Z</time></trkpt><trkpt lat="43.1740823" lon="12.9154991"><ele>761.0</ele><time>2026-04-11T08:37:59.84Z</time></trkpt><trkpt lat="43.1740096" lon="12.9154121"><ele>765.0</ele><time>2026-04-11T08:38:00.833Z</time></trkpt><trkpt lat="43.1739215" lon="12.9153159"><ele>769.0</ele><time>2026-04-11T08:38:01.841Z</time></trkpt><trkpt lat="43.1738447" lon="12.91522"><ele>775.6</ele><time>2026-04-11T08:38:02.845Z</time></trkpt><trkpt lat="43.1737803" lon="12.9151278"><ele>782.2</ele><time>2026-04-11T08:38:03.83Z</time></trkpt><trkpt lat="43.1737228" lon="12.9150369"><ele>788.8000000000001</ele><time>2026-04-11T08:38:04.841Z</time></trkpt><trkpt lat="43.1737272" lon="12.9148603"><ele>795.4000000000001</ele><time>2026-04-11T08:38:06.841Z</time></trkpt><trkpt lat="43.1738014" lon="12.914792"><ele>802.0</ele><time>2026-04-11T08:38:07.837Z</time></trkpt><trkpt lat="43.1738808" lon="12.9147111"><ele>804.0</ele><time>2026-04-11T08:38:08.846Z</time></trkpt><trkpt lat="43.1739606" lon="12.914626"><ele>806.0</ele><time>2026-04-11T08:38:09.836Z</time></trkpt><trkpt lat="43.1740434" lon="12.9145174"><ele>808.0</ele><time>2026-04-11T08:38:10.85Z</time></trkpt><trkpt lat="43.1741293" lon="12.9143834"><ele>810.0</ele><time>2026-04-11T08:38:11.839Z</time></trkpt><trkpt lat="43.1742118" lon="12.9142503"><ele>807.4</ele><time>2026-04-11T08:38:12.845Z</time></trkpt><trkpt lat="43.1742816" lon="12.9141298"><ele>804.8</ele><time>2026-04-11T08:38:13.841Z</time></trkpt><trkpt lat="43.1743423" lon="12.9140275"><ele>802.2</ele><time>2026-04-11T08:38:14.845Z</time></trkpt><trkpt lat="43.1743803" lon="12.9139244"><ele>799.6</ele><time>2026-04-11T08:38:15.85Z</time></trkpt><trkpt lat="43.1744183" lon="12.9138264"><ele>797.0</ele><time>2026-04-11T08:38:16.84Z</time></trkpt><trkpt lat="43.1744396" lon="12.9137086"><ele>797.0</ele><time>2026-04-11T08:38:17.837Z</time></trkpt><trkpt lat="43.174448" lon="12.9135899"><ele>797.0</ele><time>2026-04-11T08:38:18.854Z</time></trkpt><trkpt lat="43.1744493" lon="12.91345"><ele>797.0</ele><time>2026-04-11T08:38:19.845Z</time></trkpt><trkpt lat="43.1744481" lon="12.9132892"><ele>797.0</ele><time>2026-04-11T08:38:20.848Z</time></trkpt><trkpt lat="43.1744457" lon="12.9131262"><ele>797.0</ele><time>2026-04-11T08:38:21.841Z</time></trkpt><trkpt lat="43.1744729" lon="12.9129672"><ele>800.75</ele><time>2026-04-11T08:38:22.844Z</time></trkpt><trkpt lat="43.1745341" lon="12.912818"><ele>804.5</ele><time>2026-04-11T08:38:23.849Z</time></trkpt><trkpt lat="43.1746054" lon="12.9126807"><ele>808.25</ele><time>2026-04-11T08:38:24.847Z</time></trkpt><trkpt lat="43.1746789" lon="12.9125592"><ele>812.0</ele><time>2026-04-11T08:38:25.842Z</time></trkpt><trkpt lat="43.1747197" lon="12.9124148"><ele>816.0</ele><time>2026-04-11T08:38:26.837Z</time></trkpt><trkpt lat="43.1747438" lon="12.9122546"><ele>820.0</ele><time>2026-04-11T08:38:27.848Z</time></trkpt><trkpt lat="43.1747672" lon="12.9121213"><ele>824.0</ele><time>2026-04-11T08:38:28.835Z</time></trkpt><trkpt lat="43.1748151" lon="12.9120078"><ele>828.0</ele><time>2026-04-11T08:38:29.833Z</time></trkpt><trkpt lat="43.1748843" lon="12.9119023"><ele>832.0</ele><time>2026-04-11T08:38:30.846Z</time></trkpt><trkpt lat="43.17497" lon="12.9117887"><ele>828.75</ele><time>2026-04-11T08:38:31.841Z</time></trkpt><trkpt lat="43.1750685" lon="12.9116608"><ele>825.5</ele><time>2026-04-11T08:38:32.84Z</time></trkpt><trkpt lat="43.1751738" lon="12.9115414"><ele>822.25</ele><time>2026-04-11T08:38:33.835Z</time></trkpt><trkpt lat="43.175279" lon="12.9114422"><ele>819.0</ele><time>2026-04-11T08:38:34.838Z</time></trkpt><trkpt lat="43.1753771" lon="12.9113681"><ele>819.0</ele><time>2026-04-11T08:38:35.839Z</time></trkpt><trkpt lat="43.1754632" lon="12.9112947"><ele>819.0</ele><time>2026-04-11T08:38:36.847Z</time></trkpt><trkpt lat="43.1755347" lon="12.9112075"><ele>819.0</ele><time>2026-04-11T08:38:37.844Z</time></trkpt><trkpt lat="43.1755932" lon="12.9111001"><ele>819.0</ele><time>2026-04-11T08:38:38.859Z</time></trkpt><trkpt lat="43.175621" lon="12.9109762"><ele>819.0</ele><time>2026-04-11T08:38:39.842Z</time></trkpt><trkpt lat="43.175638" lon="12.9108516"><ele>822.6</ele><time>2026-04-11T08:38:40.839Z</time></trkpt><trkpt lat="43.1756354" lon="12.9107003"><ele>826.2</ele><time>2026-04-11T08:38:41.841Z</time></trkpt><trkpt lat="43.1756213" lon="12.9105465"><ele>829.8000000000001</ele><time>2026-04-11T08:38:42.842Z</time></trkpt><trkpt lat="43.1756064" lon="12.9103991"><ele>833.4000000000001</ele><time>2026-04-11T08:38:43.842Z</time></trkpt><trkpt lat="43.1755871" lon="12.9102446"><ele>837.0</ele><time>2026-04-11T08:38:44.849Z</time></trkpt><trkpt lat="43.1755624" lon="12.9100934"><ele>839.2</ele><time>2026-04-11T08:38:45.839Z</time></trkpt><trkpt lat="43.1755381" lon="12.9099424"><ele>841.4000000000001</ele><time>2026-04-11T08:38:46.842Z</time></trkpt><trkpt lat="43.1755127" lon="12.9097825"><ele>843.5999999999999</ele><time>2026-04-11T08:38:47.84Z</time></trkpt><trkpt lat="43.1754898" lon="12.9096384"><ele>845.8</ele><time>2026-04-11T08:38:48.843Z</time></trkpt><trkpt lat="43.1754758" lon="12.9095155"><ele>848.0</ele><time>2026-04-11T08:38:49.84Z</time></trkpt><trkpt lat="43.1754629" lon="12.9094154"><ele>848.0000000000001</ele><time>2026-04-11T08:38:50.856Z</time></trkpt><trkpt lat="43.1754526" lon="12.9093081"><ele>848.0</ele><time>2026-04-11T08:38:51.847Z</time></trkpt><trkpt lat="43.1754419" lon="12.9092147"><ele>848.0</ele><time>2026-04-11T08:38:52.855Z</time></trkpt><trkpt lat="43.1754318" lon="12.9091275"><ele>848.0</ele><time>2026-04-11T08:38:53.855Z</time></trkpt><trkpt lat="43.1753998" lon="12.9090041"><ele>848.0000000000001</ele><time>2026-04-11T08:38:55.843Z</time></trkpt><trkpt lat="43.1753275" lon="12.9089224"><ele>848.0</ele><time>2026-04-11T08:38:57.838Z</time></trkpt><trkpt lat="43.1752619" lon="12.9089309"><ele>848.0000000000001</ele><time>2026-04-11T08:38:59.851Z</time></trkpt><trkpt lat="43.1752298" lon="12.9090467"><ele>848.0</ele><time>2026-04-11T08:39:01.846Z</time></trkpt><trkpt lat="43.1752337" lon="12.9091462"><ele>848.0</ele><time>2026-04-11T08:39:02.841Z</time></trkpt><trkpt lat="43.17524" lon="12.9092484"><ele>848.0</ele><time>2026-04-11T08:39:03.845Z</time></trkpt><trkpt lat="43.1752414" lon="12.9093514"><ele>848.0000000000001</ele><time>2026-04-11T08:39:04.832Z</time></trkpt><trkpt lat="43.1752334" lon="12.9094501"><ele>848.0</ele><time>2026-04-11T08:39:05.839Z</time></trkpt><trkpt lat="43.175213" lon="12.9095452"><ele>848.0000000000001</ele><time>2026-04-11T08:39:06.838Z</time></trkpt><trkpt lat="43.1751809" lon="12.9096317"><ele>848.0</ele><time>2026-04-11T08:39:07.835Z</time></trkpt><trkpt lat="43.1751324" lon="12.909724"><ele>848.0</ele><time>2026-04-11T08:39:08.833Z</time></trkpt><trkpt lat="43.1750808" lon="12.9098185"><ele>848.0</ele><time>2026-04-11T08:39:09.847Z</time></trkpt><trkpt lat="43.1750346" lon="12.9099207"><ele>848.0000000000001</ele><time>2026-04-11T08:39:10.847Z</time></trkpt><trkpt lat="43.1749964" lon="12.9100051"><ele>848.0</ele><time>2026-04-11T08:39:11.837Z</time></trkpt><trkpt lat="43.1749252" lon="12.910109"><ele>845.8</ele><time>2026-04-11T08:39:13.845Z</time></trkpt><trkpt lat="43.1748546" lon="12.9102027"><ele>843.5999999999999</ele><time>2026-04-11T08:39:15.837Z</time></trkpt><trkpt lat="43.1748035" lon="12.9102627"><ele>841.4000000000001</ele><time>2026-04-11T08:39:16.839Z</time></trkpt><trkpt lat="43.1747368" lon="12.9103473"><ele>839.2</ele><time>2026-04-11T08:39:17.843Z</time></trkpt><trkpt lat="43.1746585" lon="12.9104538"><ele>837.0</ele><time>2026-04-11T08:39:18.843Z</time></trkpt><trkpt lat="43.174579" lon="12.9105859"><ele>842.8</ele><time>2026-04-11T08:39:19.85Z</time></trkpt><trkpt lat="43.1745059" lon="12.9106931"><ele>848.6</ele><time>2026-04-11T08:39:20.851Z</time></trkpt><trkpt lat="43.1744418" lon="12.9107579"><ele>854.3999999999999</ele><time>2026-04-11T08:39:21.852Z</time></trkpt><trkpt lat="43.1743707" lon="12.9107963"><ele>860.1999999999999</ele><time>2026-04-11T08:39:22.841Z</time></trkpt><trkpt lat="43.1742848" lon="12.9108352"><ele>866.0</ele><time>2026-04-11T08:39:23.854Z</time></trkpt><trkpt lat="43.1741789" lon="12.910886"><ele>863.0</ele><time>2026-04-11T08:39:24.84Z</time></trkpt><trkpt lat="43.1740572" lon="12.9109723"><ele>860.0</ele><time>2026-04-11T08:39:25.843Z</time></trkpt><trkpt lat="43.1739309" lon="12.9110567"><ele>857.0</ele><time>2026-04-11T08:39:26.841Z</time></trkpt><trkpt lat="43.1738242" lon="12.9111408"><ele>854.0</ele><time>2026-04-11T08:39:27.84Z</time></trkpt><trkpt lat="43.1737336" lon="12.9112495"><ele>859.2</ele><time>2026-04-11T08:39:28.841Z</time></trkpt><trkpt lat="43.1736498" lon="12.9113681"><ele>864.4000000000001</ele><time>2026-04-11T08:39:29.838Z</time></trkpt><trkpt lat="43.1735684" lon="12.9114889"><ele>869.6</ele><time>2026-04-11T08:39:30.841Z</time></trkpt><trkpt lat="43.1734922" lon="12.9116058"><ele>874.8</ele><time>2026-04-11T08:39:31.858Z</time></trkpt><trkpt lat="43.1734231" lon="12.9116927"><ele>880.0</ele><time>2026-04-11T08:39:32.86Z</time></trkpt><trkpt lat="43.1733223" lon="12.9117318"><ele>882.2</ele><time>2026-04-11T08:39:33.86Z</time></trkpt><trkpt lat="43.1732328" lon="12.9117501"><ele>884.4</ele><time>2026-04-11T08:39:34.843Z</time></trkpt><trkpt lat="43.1731351" lon="12.9117727"><ele>886.5999999999999</ele><time>2026-04-11T08:39:35.854Z</time></trkpt><trkpt lat="43.1730385" lon="12.911825"><ele>888.8</ele><time>2026-04-11T08:39:36.847Z</time></trkpt><trkpt lat="43.1729335" lon="12.9119174"><ele>891.0</ele><time>2026-04-11T08:39:37.853Z</time></trkpt><trkpt lat="43.1728333" lon="12.9120258"><ele>891.0</ele><time>2026-04-11T08:39:38.846Z</time></trkpt><trkpt lat="43.1727559" lon="12.9121514"><ele>891.0</ele><time>2026-04-11T08:39:39.828Z</time></trkpt><trkpt lat="43.1726926" lon="12.9123002"><ele>891.0</ele><time>2026-04-11T08:39:40.842Z</time></trkpt><trkpt lat="43.1726242" lon="12.9124252"><ele>891.0</ele><time>2026-04-11T08:39:41.85Z</time></trkpt><trkpt lat="43.1725351" lon="12.9125351"><ele>887.75</ele><time>2026-04-11T08:39:42.852Z</time></trkpt><trkpt lat="43.1724323" lon="12.9126551"><ele>884.5</ele><time>2026-04-11T08:39:43.842Z</time></trkpt><trkpt lat="43.1723414" lon="12.9127751"><ele>881.25</ele><time>2026-04-11T08:39:44.858Z</time></trkpt><trkpt lat="43.172264" lon="12.9128763"><ele>878.0</ele><time>2026-04-11T08:39:45.842Z</time></trkpt><trkpt lat="43.1721845" lon="12.912983"><ele>885.0</ele><time>2026-04-11T08:39:46.845Z</time></trkpt><trkpt lat="43.1721032" lon="12.9130993"><ele>892.0</ele><time>2026-04-11T08:39:47.844Z</time></trkpt><trkpt lat="43.1720205" lon="12.9132105"><ele>899.0</ele><time>2026-04-11T08:39:48.837Z</time></trkpt><trkpt lat="43.1719396" lon="12.9133119"><ele>906.0</ele><time>2026-04-11T08:39:49.856Z</time></trkpt><trkpt lat="43.1718451" lon="12.9133998"><ele>903.0</ele><time>2026-04-11T08:39:50.84Z</time></trkpt><trkpt lat="43.1717444" lon="12.9135012"><ele>899.9999999999999</ele><time>2026-04-11T08:39:51.853Z</time></trkpt><trkpt lat="43.1716599" lon="12.9136041"><ele>896.9999999999999</ele><time>2026-04-11T08:39:52.84Z</time></trkpt><trkpt lat="43.1715814" lon="12.9136945"><ele>894.0</ele><time>2026-04-11T08:39:53.848Z</time></trkpt><trkpt lat="43.1714995" lon="12.9137658"><ele>891.0</ele><time>2026-04-11T08:39:54.866Z</time></trkpt><trkpt lat="43.1714065" lon="12.9138262"><ele>891.0</ele><time>2026-04-11T08:39:55.842Z</time></trkpt><trkpt lat="43.1713184" lon="12.913859"><ele>890.9999999999999</ele><time>2026-04-11T08:39:56.837Z</time></trkpt><trkpt lat="43.1712279" lon="12.9138696"><ele>890.9999999999999</ele><time>2026-04-11T08:39:57.851Z</time></trkpt><trkpt lat="43.1711325" lon="12.9138643"><ele>891.0</ele><time>2026-04-11T08:39:58.841Z</time></trkpt><trkpt lat="43.1710334" lon="12.9138569"><ele>891.0</ele><time>2026-04-11T08:39:59.846Z</time></trkpt><trkpt lat="43.1709388" lon="12.9138215"><ele>891.0</ele><time>2026-04-11T08:40:00.84Z</time></trkpt><trkpt lat="43.1708348" lon="12.9137639"><ele>891.0</ele><time>2026-04-11T08:40:01.852Z</time></trkpt><trkpt lat="43.1707304" lon="12.913698"><ele>891.0</ele><time>2026-04-11T08:40:02.843Z</time></trkpt><trkpt lat="43.1706167" lon="12.9136152"><ele>891.0</ele><time>2026-04-11T08:40:03.832Z</time></trkpt><trkpt lat="43.1704988" lon="12.9135239"><ele>886.25</ele><time>2026-04-11T08:40:04.832Z</time></trkpt><trkpt lat="43.1703813" lon="12.9134297"><ele>881.5</ele><time>2026-04-11T08:40:05.845Z</time></trkpt><trkpt lat="43.170262" lon="12.9133309"><ele>876.75</ele><time>2026-04-11T08:40:06.84Z</time></trkpt><trkpt lat="43.1701353" lon="12.9132378"><ele>872.0</ele><time>2026-04-11T08:40:07.834Z</time></trkpt><trkpt lat="43.1700066" lon="12.9131548"><ele>876.8</ele><time>2026-04-11T08:40:08.84Z</time></trkpt><trkpt lat="43.1698974" lon="12.9130893"><ele>881.6</ele><time>2026-04-11T08:40:09.84Z</time></trkpt><trkpt lat="43.1697879" lon="12.9130257"><ele>886.3999999999999</ele><time>2026-04-11T08:40:10.854Z</time></trkpt><trkpt lat="43.1697031" lon="12.9129523"><ele>891.1999999999999</ele><time>2026-04-11T08:40:11.841Z</time></trkpt><trkpt lat="43.1696276" lon="12.9128683"><ele>896.0</ele><time>2026-04-11T08:40:12.845Z</time></trkpt><trkpt lat="43.1695568" lon="12.9127755"><ele>896.0</ele><time>2026-04-11T08:40:13.835Z</time></trkpt><trkpt lat="43.169462" lon="12.9126856"><ele>896.0</ele><time>2026-04-11T08:40:14.832Z</time></trkpt><trkpt lat="43.1693399" lon="12.9126202"><ele>896.0</ele><time>2026-04-11T08:40:15.837Z</time></trkpt><trkpt lat="43.1692217" lon="12.9125875"><ele>896.0</ele><time>2026-04-11T08:40:16.831Z</time></trkpt><trkpt lat="43.1691141" lon="12.9125891"><ele>898.4</ele><time>2026-04-11T08:40:17.844Z</time></trkpt><trkpt lat="43.1690109" lon="12.9126313"><ele>900.8</ele><time>2026-04-11T08:40:18.836Z</time></trkpt><trkpt lat="43.1689208" lon="12.9126904"><ele>903.1999999999999</ele><time>2026-04-11T08:40:19.845Z</time></trkpt><trkpt lat="43.1688171" lon="12.9127621"><ele>905.5999999999999</ele><time>2026-04-11T08:40:20.835Z</time></trkpt><trkpt lat="43.1687171" lon="12.9128022"><ele>908.0</ele><time>2026-04-11T08:40:21.842Z</time></trkpt><trkpt lat="43.1686154" lon="12.9128159"><ele>908.0000000000001</ele><time>2026-04-11T08:40:22.835Z</time></trkpt><trkpt lat="43.1685247" lon="12.9128264"><ele>908.0</ele><time>2026-04-11T08:40:23.841Z</time></trkpt><trkpt lat="43.1684421" lon="12.9128273"><ele>908.0</ele><time>2026-04-11T08:40:24.834Z</time></trkpt><trkpt lat="43.1683646" lon="12.912817"><ele>908.0</ele><time>2026-04-11T08:40:25.838Z</time></trkpt><trkpt lat="43.1682878" lon="12.9128"><ele>908.0000000000001</ele><time>2026-04-11T08:40:26.843Z</time></trkpt><trkpt lat="43.1682009" lon="12.912804"><ele>908.0</ele><time>2026-04-11T08:40:27.84Z</time></trkpt><trkpt lat="43.1681018" lon="12.912823"><ele>911.4</ele><time>2026-04-11T08:40:28.85Z</time></trkpt><trkpt lat="43.1680028" lon="12.9128439"><ele>914.8</ele><time>2026-04-11T08:40:29.839Z</time></trkpt><trkpt lat="43.1679093" lon="12.9128551"><ele>918.2</ele><time>2026-04-11T08:40:30.845Z</time></trkpt><trkpt lat="43.1678272" lon="12.9128697"><ele>921.6</ele><time>2026-04-11T08:40:31.84Z</time></trkpt><trkpt lat="43.1677548" lon="12.9129041"><ele>925.0</ele><time>2026-04-11T08:40:32.832Z</time></trkpt><trkpt lat="43.1676635" lon="12.9129686"><ele>925.0</ele><time>2026-04-11T08:40:33.844Z</time></trkpt><trkpt lat="43.1675758" lon="12.9130499"><ele>925.0</ele><time>2026-04-11T08:40:34.835Z</time></trkpt><trkpt lat="43.1674705" lon="12.9131308"><ele>925.0</ele><time>2026-04-11T08:40:35.856Z</time></trkpt><trkpt lat="43.1673649" lon="12.913203"><ele>925.0</ele><time>2026-04-11T08:40:36.845Z</time></trkpt><trkpt lat="43.1672662" lon="12.9132409"><ele>925.0</ele><time>2026-04-11T08:40:37.851Z</time></trkpt><trkpt lat="43.1671644" lon="12.9132438"><ele>925.0</ele><time>2026-04-11T08:40:38.827Z</time></trkpt><trkpt lat="43.1670721" lon="12.9132171"><ele>925.0</ele><time>2026-04-11T08:40:39.832Z</time></trkpt><trkpt lat="43.1669737" lon="12.9131563"><ele>925.0</ele><time>2026-04-11T08:40:40.845Z</time></trkpt><trkpt lat="43.1668643" lon="12.9130726"><ele>925.0</ele><time>2026-04-11T08:40:41.86Z</time></trkpt><trkpt lat="43.1667571" lon="12.9129879"><ele>925.0</ele><time>2026-04-11T08:40:42.837Z</time></trkpt><trkpt lat="43.1666373" lon="12.9129195"><ele>925.0</ele><time>2026-04-11T08:40:43.856Z</time></trkpt><trkpt lat="43.1665184" lon="12.9128551"><ele>925.0</ele><time>2026-04-11T08:40:44.833Z</time></trkpt><trkpt lat="43.1664148" lon="12.9127981"><ele>925.0</ele><time>2026-04-11T08:40:45.84Z</time></trkpt><trkpt lat="43.1663227" lon="12.9127566"><ele>924.75</ele><time>2026-04-11T08:40:46.836Z</time></trkpt><trkpt lat="43.1662221" lon="12.912732"><ele>924.5</ele><time>2026-04-11T08:40:47.836Z</time></trkpt><trkpt lat="43.1661119" lon="12.9127458"><ele>924.25</ele><time>2026-04-11T08:40:48.838Z</time></trkpt><trkpt lat="43.1659974" lon="12.9127786"><ele>924.0</ele><time>2026-04-11T08:40:49.835Z</time></trkpt><trkpt lat="43.1658791" lon="12.9128086"><ele>924.0</ele><time>2026-04-11T08:40:50.835Z</time></trkpt><trkpt lat="43.1657697" lon="12.9128282"><ele>924.0000000000001</ele><time>2026-04-11T08:40:51.843Z</time></trkpt><trkpt lat="43.1656569" lon="12.9128361"><ele>924.0000000000001</ele><time>2026-04-11T08:40:52.844Z</time></trkpt><trkpt lat="43.1655446" lon="12.9128393"><ele>924.0</ele><time>2026-04-11T08:40:53.837Z</time></trkpt><trkpt lat="43.1654352" lon="12.9128497"><ele>924.0</ele><time>2026-04-11T08:40:54.837Z</time></trkpt><trkpt lat="43.1653329" lon="12.9128828"><ele>928.3333333333334</ele><time>2026-04-11T08:40:55.835Z</time></trkpt><trkpt lat="43.1652475" lon="12.9129276"><ele>932.6666666666667</ele><time>2026-04-11T08:40:56.858Z</time></trkpt><trkpt lat="43.1651854" lon="12.912973"><ele>937.0</ele><time>2026-04-11T08:40:57.856Z</time></trkpt><trkpt lat="43.1651257" lon="12.9130152"><ele>941.3333333333334</ele><time>2026-04-11T08:40:58.848Z</time></trkpt><trkpt lat="43.165062" lon="12.913059"><ele>945.6666666666667</ele><time>2026-04-11T08:40:59.856Z</time></trkpt><trkpt lat="43.164989" lon="12.913127"><ele>950.0</ele><time>2026-04-11T08:41:00.841Z</time></trkpt><trkpt lat="43.1649163" lon="12.9132258"><ele>953.0000000000001</ele><time>2026-04-11T08:41:01.846Z</time></trkpt><trkpt lat="43.1648511" lon="12.9133244"><ele>956.0</ele><time>2026-04-11T08:41:02.837Z</time></trkpt><trkpt lat="43.164797" lon="12.9133833"><ele>959.0</ele><time>2026-04-11T08:41:03.841Z</time></trkpt><trkpt lat="43.164734" lon="12.9134312"><ele>962.0</ele><time>2026-04-11T08:41:04.848Z</time></trkpt><trkpt lat="43.164671" lon="12.9134611"><ele>965.0000000000001</ele><time>2026-04-11T08:41:05.837Z</time></trkpt><trkpt lat="43.1645936" lon="12.9134713"><ele>968.0</ele><time>2026-04-11T08:41:06.838Z</time></trkpt><trkpt lat="43.1645058" lon="12.9134638"><ele>960.0</ele><time>2026-04-11T08:41:07.838Z</time></trkpt><trkpt lat="43.1644052" lon="12.913456"><ele>952.0</ele><time>2026-04-11T08:41:08.857Z</time></trkpt><trkpt lat="43.164304" lon="12.9134554"><ele>944.0</ele><time>2026-04-11T08:41:09.842Z</time></trkpt><trkpt lat="43.1641973" lon="12.913481"><ele>936.0</ele><time>2026-04-11T08:41:10.837Z</time></trkpt><trkpt lat="43.1640931" lon="12.91351"><ele>928.0</ele><time>2026-04-11T08:41:11.843Z</time></trkpt><trkpt lat="43.1640063" lon="12.9135423"><ele>926.2</ele><time>2026-04-11T08:41:12.834Z</time></trkpt><trkpt lat="43.1639419" lon="12.9135628"><ele>924.4</ele><time>2026-04-11T08:41:13.855Z</time></trkpt><trkpt lat="43.1638387" lon="12.913537"><ele>922.6000000000001</ele><time>2026-04-11T08:41:15.857Z</time></trkpt><trkpt lat="43.1638067" lon="12.9133779"><ele>920.8000000000001</ele><time>2026-04-11T08:41:17.829Z</time></trkpt><trkpt lat="43.1637799" lon="12.9132868"><ele>919.0</ele><time>2026-04-11T08:41:18.832Z</time></trkpt><trkpt lat="43.1637147" lon="12.9131764"><ele>928.25</ele><time>2026-04-11T08:41:19.849Z</time></trkpt><trkpt lat="43.1636256" lon="12.9130874"><ele>937.5</ele><time>2026-04-11T08:41:20.834Z</time></trkpt><trkpt lat="43.1635131" lon="12.9130233"><ele>946.75</ele><time>2026-04-11T08:41:21.849Z</time></trkpt><trkpt lat="43.1633789" lon="12.9129751"><ele>956.0</ele><time>2026-04-11T08:41:22.834Z</time></trkpt><trkpt lat="43.1632467" lon="12.9129378"><ele>956.0</ele><time>2026-04-11T08:41:23.839Z</time></trkpt><trkpt lat="43.163125" lon="12.9129018"><ele>955.9999999999999</ele><time>2026-04-11T08:41:24.832Z</time></trkpt><trkpt lat="43.1630183" lon="12.9128673"><ele>955.9999999999999</ele><time>2026-04-11T08:41:25.84Z</time></trkpt><trkpt lat="43.1629201" lon="12.9128422"><ele>956.0</ele><time>2026-04-11T08:41:26.833Z</time></trkpt><trkpt lat="43.16283" lon="12.912815"><ele>956.0</ele><time>2026-04-11T08:41:27.834Z</time></trkpt><trkpt lat="43.1627553" lon="12.9127999"><ele>956.0000000000001</ele><time>2026-04-11T08:41:28.84Z</time></trkpt><trkpt lat="43.1626875" lon="12.9127963"><ele>956.0</ele><time>2026-04-11T08:41:29.842Z</time></trkpt><trkpt lat="43.1626096" lon="12.9128288"><ele>956.0</ele><time>2026-04-11T08:41:30.834Z</time></trkpt><trkpt lat="43.1625227" lon="12.9128781"><ele>956.0</ele><time>2026-04-11T08:41:31.843Z</time></trkpt><trkpt lat="43.162429" lon="12.9129104"><ele>956.0000000000001</ele><time>2026-04-11T08:41:32.841Z</time></trkpt><trkpt lat="43.1623249" lon="12.9129247"><ele>956.0</ele><time>2026-04-11T08:41:33.836Z</time></trkpt><trkpt lat="43.1622207" lon="12.9129233"><ele>957.0</ele><time>2026-04-11T08:41:34.851Z</time></trkpt><trkpt lat="43.1621085" lon="12.9129181"><ele>958.0</ele><time>2026-04-11T08:41:35.84Z</time></trkpt><trkpt lat="43.1619858" lon="12.9129133"><ele>959.0</ele><time>2026-04-11T08:41:36.842Z</time></trkpt><trkpt lat="43.161865" lon="12.9129254"><ele>960.0</ele><time>2026-04-11T08:41:37.833Z</time></trkpt><trkpt lat="43.1617375" lon="12.9129323"><ele>960.0</ele><time>2026-04-11T08:41:38.831Z</time></trkpt><trkpt lat="43.1616088" lon="12.9129499"><ele>960.0</ele><time>2026-04-11T08:41:39.842Z</time></trkpt><trkpt lat="43.16148" lon="12.9129741"><ele>960.0</ele><time>2026-04-11T08:41:40.832Z</time></trkpt><trkpt lat="43.161357" lon="12.9130035"><ele>960.0</ele><time>2026-04-11T08:41:41.845Z</time></trkpt><trkpt lat="43.1612463" lon="12.9130333"><ele>962.8</ele><time>2026-04-11T08:41:42.836Z</time></trkpt><trkpt lat="43.1611425" lon="12.9130662"><ele>965.6</ele><time>2026-04-11T08:41:43.832Z</time></trkpt><trkpt lat="43.1610414" lon="12.9131031"><ele>968.4000000000001</ele><time>2026-04-11T08:41:44.834Z</time></trkpt><trkpt lat="43.1609457" lon="12.9131473"><ele>971.2</ele><time>2026-04-11T08:41:45.835Z</time></trkpt><trkpt lat="43.1608643" lon="12.91319"><ele>974.0</ele><time>2026-04-11T08:41:46.846Z</time></trkpt><trkpt lat="43.1607881" lon="12.9132147"><ele>974.0000000000001</ele><time>2026-04-11T08:41:47.841Z</time></trkpt><trkpt lat="43.160717" lon="12.9132257"><ele>974.0</ele><time>2026-04-11T08:41:48.836Z</time></trkpt><trkpt lat="43.1606362" lon="12.9132102"><ele>974.0</ele><time>2026-04-11T08:41:49.853Z</time></trkpt><trkpt lat="43.1605426" lon="12.9131849"><ele>974.0</ele><time>2026-04-11T08:41:50.857Z</time></trkpt><trkpt lat="43.1604426" lon="12.9131656"><ele>974.0000000000001</ele><time>2026-04-11T08:41:51.837Z</time></trkpt><trkpt lat="43.1603562" lon="12.9131421"><ele>974.0</ele><time>2026-04-11T08:41:52.831Z</time></trkpt><trkpt lat="43.1602851" lon="12.9131258"><ele>972.0</ele><time>2026-04-11T08:41:53.837Z</time></trkpt><trkpt lat="43.1601865" lon="12.9131521"><ele>970.0000000000001</ele><time>2026-04-11T08:41:55.837Z</time></trkpt><trkpt lat="43.1601269" lon="12.9132595"><ele>968.0000000000001</ele><time>2026-04-11T08:41:57.842Z</time></trkpt><trkpt lat="43.1600763" lon="12.9134185"><ele>966.0</ele><time>2026-04-11T08:41:59.839Z</time></trkpt><trkpt lat="43.1600284" lon="12.9135196"><ele>964.0</ele><time>2026-04-11T08:42:00.839Z</time></trkpt><trkpt lat="43.1599643" lon="12.9136252"><ele>964.0</ele><time>2026-04-11T08:42:01.843Z</time></trkpt><trkpt lat="43.1598785" lon="12.9137239"><ele>964.0000000000001</ele><time>2026-04-11T08:42:02.831Z</time></trkpt><trkpt lat="43.159785" lon="12.9138046"><ele>964.0000000000001</ele><time>2026-04-11T08:42:03.86Z</time></trkpt><trkpt lat="43.1597009" lon="12.9138914"><ele>964.0</ele><time>2026-04-11T08:42:04.832Z</time></trkpt><trkpt lat="43.1596148" lon="12.9139886"><ele>964.0</ele><time>2026-04-11T08:42:05.84Z</time></trkpt><trkpt lat="43.1595261" lon="12.9140789"><ele>970.0</ele><time>2026-04-11T08:42:06.84Z</time></trkpt><trkpt lat="43.159439" lon="12.9141472"><ele>976.0000000000001</ele><time>2026-04-11T08:42:07.843Z</time></trkpt><trkpt lat="43.1593598" lon="12.9142186"><ele>982.0000000000001</ele><time>2026-04-11T08:42:08.837Z</time></trkpt><trkpt lat="43.1593021" lon="12.9142877"><ele>988.0</ele><time>2026-04-11T08:42:09.839Z</time></trkpt><trkpt lat="43.1592574" lon="12.9143869"><ele>994.0</ele><time>2026-04-11T08:42:10.832Z</time></trkpt><trkpt lat="43.1592244" lon="12.9145308"><ele>994.0</ele><time>2026-04-11T08:42:11.827Z</time></trkpt><trkpt lat="43.1591839" lon="12.9147233"><ele>994.0</ele><time>2026-04-11T08:42:12.826Z</time></trkpt><trkpt lat="43.159153" lon="12.9149087"><ele>994.0</ele><time>2026-04-11T08:42:13.844Z</time></trkpt><trkpt lat="43.1591363" lon="12.9150967"><ele>994.0</ele><time>2026-04-11T08:42:14.836Z</time></trkpt><trkpt lat="43.1591395" lon="12.9152869"><ele>993.0</ele><time>2026-04-11T08:42:15.846Z</time></trkpt><trkpt lat="43.1591617" lon="12.915482"><ele>992.0</ele><time>2026-04-11T08:42:16.85Z</time></trkpt><trkpt lat="43.1592003" lon="12.9156871"><ele>991.0</ele><time>2026-04-11T08:42:17.837Z</time></trkpt><trkpt lat="43.1592481" lon="12.9158841"><ele>991.4</ele><time>2026-04-11T08:42:18.843Z</time></trkpt><trkpt lat="43.1592831" lon="12.9160546"><ele>991.8</ele><time>2026-04-11T08:42:19.841Z</time></trkpt><trkpt lat="43.1592988" lon="12.9161884"><ele>992.1999999999999</ele><time>2026-04-11T08:42:20.853Z</time></trkpt><trkpt lat="43.1593126" lon="12.9163007"><ele>992.5999999999999</ele><time>2026-04-11T08:42:21.838Z</time></trkpt><trkpt lat="43.1593133" lon="12.9164"><ele>993.0</ele><time>2026-04-11T08:42:22.839Z</time></trkpt><trkpt lat="43.1592707" lon="12.9165694"><ele>993.0</ele><time>2026-04-11T08:42:24.846Z</time></trkpt><trkpt lat="43.1592129" lon="12.9166373"><ele>993.0</ele><time>2026-04-11T08:42:25.844Z</time></trkpt><trkpt lat="43.159152" lon="12.9166989"><ele>993.0</ele><time>2026-04-11T08:42:26.838Z</time></trkpt><trkpt lat="43.1590948" lon="12.9167547"><ele>993.0</ele><time>2026-04-11T08:42:27.834Z</time></trkpt><trkpt lat="43.1590344" lon="12.9168066"><ele>993.0</ele><time>2026-04-11T08:42:28.847Z</time></trkpt><trkpt lat="43.1589172" lon="12.9168416"><ele>993.0</ele><time>2026-04-11T08:42:30.84Z</time></trkpt><trkpt lat="43.1588499" lon="12.9168272"><ele>995.4</ele><time>2026-04-11T08:42:31.839Z</time></trkpt><trkpt lat="43.1587796" lon="12.9168059"><ele>997.8</ele><time>2026-04-11T08:42:32.836Z</time></trkpt><trkpt lat="43.1586951" lon="12.9167762"><ele>1000.2</ele><time>2026-04-11T08:42:33.838Z</time></trkpt><trkpt lat="43.158609" lon="12.9167349"><ele>1002.6</ele><time>2026-04-11T08:42:34.833Z</time></trkpt><trkpt lat="43.1585142" lon="12.9166877"><ele>1005.0</ele><time>2026-04-11T08:42:35.849Z</time></trkpt><trkpt lat="43.1584031" lon="12.9166392"><ele>1005.0</ele><time>2026-04-11T08:42:36.844Z</time></trkpt><trkpt lat="43.1582943" lon="12.9165931"><ele>1005.0</ele><time>2026-04-11T08:42:37.844Z</time></trkpt><trkpt lat="43.1582017" lon="12.9165393"><ele>1005.0</ele><time>2026-04-11T08:42:38.849Z</time></trkpt><trkpt lat="43.1581008" lon="12.9164707"><ele>1005.0</ele><time>2026-04-11T08:42:39.847Z</time></trkpt><trkpt lat="43.1579858" lon="12.9164166"><ele>1005.0</ele><time>2026-04-11T08:42:40.842Z</time></trkpt><trkpt lat="43.1578601" lon="12.9163794"><ele>1004.75</ele><time>2026-04-11T08:42:41.837Z</time></trkpt><trkpt lat="43.1577366" lon="12.9163596"><ele>1004.5</ele><time>2026-04-11T08:42:42.837Z</time></trkpt><trkpt lat="43.1576157" lon="12.9163405"><ele>1004.25</ele><time>2026-04-11T08:42:43.835Z</time></trkpt><trkpt lat="43.1575021" lon="12.9163105"><ele>1004.0</ele><time>2026-04-11T08:42:44.831Z</time></trkpt><trkpt lat="43.1573914" lon="12.9162747"><ele>1010.8000000000001</ele><time>2026-04-11T08:42:45.839Z</time></trkpt><trkpt lat="43.1573" lon="12.9162372"><ele>1017.6000000000001</ele><time>2026-04-11T08:42:46.833Z</time></trkpt><trkpt lat="43.1572142" lon="12.9162119"><ele>1024.4</ele><time>2026-04-11T08:42:47.84Z</time></trkpt><trkpt lat="43.1571306" lon="12.91621"><ele>1031.2</ele><time>2026-04-11T08:42:48.84Z</time></trkpt><trkpt lat="43.1570672" lon="12.916224"><ele>1038.0</ele><time>2026-04-11T08:42:49.846Z</time></trkpt><trkpt lat="43.1569817" lon="12.9163393"><ele>1038.0</ele><time>2026-04-11T08:42:51.835Z</time></trkpt><trkpt lat="43.1569551" lon="12.9164279"><ele>1038.0</ele><time>2026-04-11T08:42:52.837Z</time></trkpt><trkpt lat="43.1569272" lon="12.9165393"><ele>1038.0</ele><time>2026-04-11T08:42:53.837Z</time></trkpt><trkpt lat="43.1568989" lon="12.9166684"><ele>1038.0</ele><time>2026-04-11T08:42:54.845Z</time></trkpt><trkpt lat="43.1568652" lon="12.9168252"><ele>1038.0</ele><time>2026-04-11T08:42:55.841Z</time></trkpt><trkpt lat="43.1568367" lon="12.9169882"><ele>1033.4</ele><time>2026-04-11T08:42:56.842Z</time></trkpt><trkpt lat="43.1568126" lon="12.9171404"><ele>1028.8</ele><time>2026-04-11T08:42:57.858Z</time></trkpt><trkpt lat="43.1568011" lon="12.9172783"><ele>1024.2</ele><time>2026-04-11T08:42:58.844Z</time></trkpt><trkpt lat="43.1567961" lon="12.9174042"><ele>1019.6</ele><time>2026-04-11T08:42:59.843Z</time></trkpt><trkpt lat="43.156792" lon="12.9175054"><ele>1015.0</ele><time>2026-04-11T08:43:00.841Z</time></trkpt><trkpt lat="43.156768" lon="12.9175961"><ele>1013.9999999999999</ele><time>2026-04-11T08:43:01.835Z</time></trkpt><trkpt lat="43.1567225" lon="12.9176685"><ele>1013.0</ele><time>2026-04-11T08:43:02.836Z</time></trkpt><trkpt lat="43.156668" lon="12.9177281"><ele>1012.0</ele><time>2026-04-11T08:43:03.834Z</time></trkpt><trkpt lat="43.1565876" lon="12.9177948"><ele>1011.0</ele><time>2026-04-11T08:43:04.843Z</time></trkpt><trkpt lat="43.156509" lon="12.917868"><ele>1009.9999999999999</ele><time>2026-04-11T08:43:05.843Z</time></trkpt><trkpt lat="43.1564305" lon="12.9179344"><ele>1009.0</ele><time>2026-04-11T08:43:06.837Z</time></trkpt><trkpt lat="43.156325" lon="12.9179909"><ele>1009.0</ele><time>2026-04-11T08:43:07.839Z</time></trkpt><trkpt lat="43.1562044" lon="12.9180508"><ele>1009.0</ele><time>2026-04-11T08:43:08.832Z</time></trkpt><trkpt lat="43.1560879" lon="12.9181299"><ele>1009.0</ele><time>2026-04-11T08:43:09.84Z</time></trkpt><trkpt lat="43.1559874" lon="12.9181912"><ele>1009.0</ele><time>2026-04-11T08:43:10.847Z</time></trkpt><trkpt lat="43.1558792" lon="12.9182461"><ele>1009.0</ele><time>2026-04-11T08:43:11.838Z</time></trkpt><trkpt lat="43.1557592" lon="12.9182758"><ele>1009.0</ele><time>2026-04-11T08:43:12.833Z</time></trkpt><trkpt lat="43.1556301" lon="12.9182882"><ele>1009.0</ele><time>2026-04-11T08:43:13.837Z</time></trkpt><trkpt lat="43.1554843" lon="12.9183001"><ele>1009.0</ele><time>2026-04-11T08:43:14.837Z</time></trkpt><trkpt lat="43.1553288" lon="12.9183217"><ele>1011.5</ele><time>2026-04-11T08:43:15.841Z</time></trkpt><trkpt lat="43.1551851" lon="12.9183695"><ele>1014.0</ele><time>2026-04-11T08:43:16.83Z</time></trkpt><trkpt lat="43.155051" lon="12.9184369"><ele>1016.5</ele><time>2026-04-11T08:43:17.842Z</time></trkpt><trkpt lat="43.1549197" lon="12.9185142"><ele>1019.0</ele><time>2026-04-11T08:43:18.829Z</time></trkpt><trkpt lat="43.1548049" lon="12.9185903"><ele>1019.8000000000001</ele><time>2026-04-11T08:43:19.845Z</time></trkpt><trkpt lat="43.1547038" lon="12.918648"><ele>1020.6000000000001</ele><time>2026-04-11T08:43:20.833Z</time></trkpt><trkpt lat="43.1545989" lon="12.918683"><ele>1021.4</ele><time>2026-04-11T08:43:21.832Z</time></trkpt><trkpt lat="43.1544832" lon="12.9187109"><ele>1022.2</ele><time>2026-04-11T08:43:22.832Z</time></trkpt><trkpt lat="43.1543761" lon="12.9187484"><ele>1023.0</ele><time>2026-04-11T08:43:23.839Z</time></trkpt><trkpt lat="43.1543044" lon="12.9187961"><ele>1023.0</ele><time>2026-04-11T08:43:24.833Z</time></trkpt><trkpt lat="43.1542574" lon="12.9188552"><ele>1023.0</ele><time>2026-04-11T08:43:25.851Z</time></trkpt><trkpt lat="43.1542479" lon="12.9189979"><ele>1023.0</ele><time>2026-04-11T08:43:27.832Z</time></trkpt><trkpt lat="43.1542903" lon="12.9191781"><ele>1023.0</ele><time>2026-04-11T08:43:29.834Z</time></trkpt><trkpt lat="43.1543235" lon="12.9193171"><ele>1023.0</ele><time>2026-04-11T08:43:30.832Z</time></trkpt><trkpt lat="43.1543493" lon="12.9194907"><ele>1026.0</ele><time>2026-04-11T08:43:31.837Z</time></trkpt><trkpt lat="43.1543921" lon="12.9197075"><ele>1029.0</ele><time>2026-04-11T08:43:32.838Z</time></trkpt><trkpt lat="43.1544443" lon="12.919928"><ele>1032.0</ele><time>2026-04-11T08:43:33.83Z</time></trkpt><trkpt lat="43.1545046" lon="12.9201198"><ele>1037.5</ele><time>2026-04-11T08:43:34.839Z</time></trkpt><trkpt lat="43.15457" lon="12.9202658"><ele>1043.0</ele><time>2026-04-11T08:43:35.844Z</time></trkpt><trkpt lat="43.1546449" lon="12.9204095"><ele>1048.5</ele><time>2026-04-11T08:43:36.839Z</time></trkpt><trkpt lat="43.1547285" lon="12.9205452"><ele>1054.0</ele><time>2026-04-11T08:43:37.844Z</time></trkpt><trkpt lat="43.154812" lon="12.9206696"><ele>1053.0</ele><time>2026-04-11T08:43:38.836Z</time></trkpt><trkpt lat="43.154907" lon="12.9207818"><ele>1052.0</ele><time>2026-04-11T08:43:39.847Z</time></trkpt><trkpt lat="43.1550145" lon="12.9209101"><ele>1051.0</ele><time>2026-04-11T08:43:40.843Z</time></trkpt><trkpt lat="43.1551338" lon="12.9210405"><ele>1050.0</ele><time>2026-04-11T08:43:41.839Z</time></trkpt><trkpt lat="43.1552663" lon="12.9211716"><ele>1050.0</ele><time>2026-04-11T08:43:42.839Z</time></trkpt><trkpt lat="43.1553965" lon="12.921289"><ele>1050.0</ele><time>2026-04-11T08:43:43.836Z</time></trkpt><trkpt lat="43.1555222" lon="12.9214059"><ele>1050.0</ele><time>2026-04-11T08:43:44.835Z</time></trkpt><trkpt lat="43.1556447" lon="12.9215382"><ele>1049.25</ele><time>2026-04-11T08:43:45.836Z</time></trkpt><trkpt lat="43.1557693" lon="12.9216501"><ele>1048.5</ele><time>2026-04-11T08:43:46.847Z</time></trkpt><trkpt lat="43.1558902" lon="12.921749"><ele>1047.75</ele><time>2026-04-11T08:43:47.837Z</time></trkpt><trkpt lat="43.1560297" lon="12.9218484"><ele>1047.0</ele><time>2026-04-11T08:43:48.837Z</time></trkpt><trkpt lat="43.1561823" lon="12.9219599"><ele>1047.0</ele><time>2026-04-11T08:43:49.844Z</time></trkpt><trkpt lat="43.1563389" lon="12.9220681"><ele>1047.0</ele><time>2026-04-11T08:43:50.838Z</time></trkpt><trkpt lat="43.1564947" lon="12.9221711"><ele>1047.0</ele><time>2026-04-11T08:43:51.843Z</time></trkpt><trkpt lat="43.1566472" lon="12.9222852"><ele>1048.3333333333333</ele><time>2026-04-11T08:43:52.84Z</time></trkpt><trkpt lat="43.1567864" lon="12.9224013"><ele>1049.6666666666665</ele><time>2026-04-11T08:43:53.837Z</time></trkpt><trkpt lat="43.1569137" lon="12.9225095"><ele>1051.0</ele><time>2026-04-11T08:43:54.846Z</time></trkpt><trkpt lat="43.157038" lon="12.9226025"><ele>1051.0</ele><time>2026-04-11T08:43:55.84Z</time></trkpt><trkpt lat="43.1571534" lon="12.9227128"><ele>1051.0</ele><time>2026-04-11T08:43:56.835Z</time></trkpt><trkpt lat="43.1572748" lon="12.9228472"><ele>1051.0</ele><time>2026-04-11T08:43:57.84Z</time></trkpt><trkpt lat="43.1573917" lon="12.9229565"><ele>1051.0</ele><time>2026-04-11T08:43:58.849Z</time></trkpt><trkpt lat="43.1574939" lon="12.9230601"><ele>1050.5</ele><time>2026-04-11T08:43:59.859Z</time></trkpt><trkpt lat="43.1575923" lon="12.9231813"><ele>1050.0</ele><time>2026-04-11T08:44:00.84Z</time></trkpt><trkpt lat="43.1577027" lon="12.9233064"><ele>1049.5</ele><time>2026-04-11T08:44:01.843Z</time></trkpt><trkpt lat="43.1578176" lon="12.9234361"><ele>1049.0</ele><time>2026-04-11T08:44:02.832Z</time></trkpt><trkpt lat="43.1579147" lon="12.9235837"><ele>1049.0</ele><time>2026-04-11T08:44:03.846Z</time></trkpt><trkpt lat="43.1580079" lon="12.9237226"><ele>1049.0</ele><time>2026-04-11T08:44:04.844Z</time></trkpt><trkpt lat="43.1581005" lon="12.9238386"><ele>1049.0</ele><time>2026-04-11T08:44:05.838Z</time></trkpt><trkpt lat="43.1581821" lon="12.9239387"><ele>1049.0</ele><time>2026-04-11T08:44:06.838Z</time></trkpt><trkpt lat="43.1582284" lon="12.9240437"><ele>1051.8</ele><time>2026-04-11T08:44:07.838Z</time></trkpt><trkpt lat="43.1582636" lon="12.9241482"><ele>1054.6000000000001</ele><time>2026-04-11T08:44:08.832Z</time></trkpt><trkpt lat="43.1582824" lon="12.9242699"><ele>1057.4</ele><time>2026-04-11T08:44:09.836Z</time></trkpt><trkpt lat="43.1582634" lon="12.9243813"><ele>1060.2</ele><time>2026-04-11T08:44:10.841Z</time></trkpt><trkpt lat="43.1582268" lon="12.9245111"><ele>1063.0</ele><time>2026-04-11T08:44:11.839Z</time></trkpt><trkpt lat="43.1581946" lon="12.9246384"><ele>1063.0</ele><time>2026-04-11T08:44:12.84Z</time></trkpt><trkpt lat="43.1581526" lon="12.9247818"><ele>1063.0</ele><time>2026-04-11T08:44:13.845Z</time></trkpt><trkpt lat="43.1581085" lon="12.9249329"><ele>1063.0</ele><time>2026-04-11T08:44:14.84Z</time></trkpt><trkpt lat="43.1580645" lon="12.9251042"><ele>1063.0</ele><time>2026-04-11T08:44:15.848Z</time></trkpt><trkpt lat="43.1580273" lon="12.9252799"><ele>1064.8</ele><time>2026-04-11T08:44:16.834Z</time></trkpt><trkpt lat="43.1579965" lon="12.925437"><ele>1066.6</ele><time>2026-04-11T08:44:17.835Z</time></trkpt><trkpt lat="43.1579888" lon="12.9255846"><ele>1068.4</ele><time>2026-04-11T08:44:18.845Z</time></trkpt><trkpt lat="43.1579973" lon="12.9257261"><ele>1070.2</ele><time>2026-04-11T08:44:19.854Z</time></trkpt><trkpt lat="43.1580189" lon="12.9258568"><ele>1072.0</ele><time>2026-04-11T08:44:20.838Z</time></trkpt><trkpt lat="43.1580733" lon="12.9259791"><ele>1075.8</ele><time>2026-04-11T08:44:21.837Z</time></trkpt><trkpt lat="43.1581461" lon="12.9260936"><ele>1079.6</ele><time>2026-04-11T08:44:22.836Z</time></trkpt><trkpt lat="43.1582217" lon="12.9262"><ele>1083.3999999999999</ele><time>2026-04-11T08:44:23.835Z</time></trkpt><trkpt lat="43.1582831" lon="12.9263065"><ele>1087.2</ele><time>2026-04-11T08:44:24.845Z</time></trkpt><trkpt lat="43.1583478" lon="12.9264083"><ele>1091.0</ele><time>2026-04-11T08:44:25.835Z</time></trkpt><trkpt lat="43.1584237" lon="12.9264991"><ele>1091.0</ele><time>2026-04-11T08:44:26.837Z</time></trkpt><trkpt lat="43.1585181" lon="12.9265611"><ele>1091.0</ele><time>2026-04-11T08:44:27.845Z</time></trkpt><trkpt lat="43.1586354" lon="12.9266142"><ele>1091.0</ele><time>2026-04-11T08:44:28.844Z</time></trkpt><trkpt lat="43.1587744" lon="12.9266814"><ele>1091.0</ele><time>2026-04-11T08:44:29.845Z</time></trkpt><trkpt lat="43.1589338" lon="12.9267558"><ele>1084.75</ele><time>2026-04-11T08:44:30.834Z</time></trkpt><trkpt lat="43.159087" lon="12.9268316"><ele>1078.5</ele><time>2026-04-11T08:44:31.837Z</time></trkpt><trkpt lat="43.1592245" lon="12.9269095"><ele>1072.25</ele><time>2026-04-11T08:44:32.844Z</time></trkpt><trkpt lat="43.159335" lon="12.926981"><ele>1066.0</ele><time>2026-04-11T08:44:33.843Z</time></trkpt><trkpt lat="43.1594513" lon="12.9270485"><ele>1066.0</ele><time>2026-04-11T08:44:34.837Z</time></trkpt><trkpt lat="43.159571" lon="12.9270949"><ele>1066.0</ele><time>2026-04-11T08:44:35.844Z</time></trkpt><trkpt lat="43.1596926" lon="12.9271244"><ele>1066.0</ele><time>2026-04-11T08:44:36.837Z</time></trkpt><trkpt lat="43.1598289" lon="12.9271024"><ele>1066.0</ele><time>2026-04-11T08:44:37.837Z</time></trkpt><trkpt lat="43.1599591" lon="12.9270431"><ele>1064.2</ele><time>2026-04-11T08:44:38.832Z</time></trkpt><trkpt lat="43.160075" lon="12.9270098"><ele>1062.3999999999999</ele><time>2026-04-11T08:44:39.837Z</time></trkpt><trkpt lat="43.1601808" lon="12.9269734"><ele>1060.6</ele><time>2026-04-11T08:44:40.834Z</time></trkpt><trkpt lat="43.1602854" lon="12.9269589"><ele>1058.8</ele><time>2026-04-11T08:44:41.843Z</time></trkpt><trkpt lat="43.1603771" lon="12.9269445"><ele>1057.0</ele><time>2026-04-11T08:44:42.843Z</time></trkpt><trkpt lat="43.1604644" lon="12.9269475"><ele>1057.0</ele><time>2026-04-11T08:44:43.85Z</time></trkpt><trkpt lat="43.1605564" lon="12.9269384"><ele>1057.0</ele><time>2026-04-11T08:44:44.838Z</time></trkpt><trkpt lat="43.1606538" lon="12.9268998"><ele>1057.0</ele><time>2026-04-11T08:44:45.839Z</time></trkpt><trkpt lat="43.1607573" lon="12.9268488"><ele>1057.0</ele><time>2026-04-11T08:44:46.835Z</time></trkpt><trkpt lat="43.1608563" lon="12.9267945"><ele>1057.0</ele><time>2026-04-11T08:44:47.85Z</time></trkpt><trkpt lat="43.1609594" lon="12.9267784"><ele>1056.3333333333333</ele><time>2026-04-11T08:44:48.83Z</time></trkpt><trkpt lat="43.161058" lon="12.9267759"><ele>1055.6666666666665</ele><time>2026-04-11T08:44:49.837Z</time></trkpt><trkpt lat="43.1611411" lon="12.9268066"><ele>1055.0</ele><time>2026-04-11T08:44:50.839Z</time></trkpt><trkpt lat="43.1612114" lon="12.9268556"><ele>1054.3333333333333</ele><time>2026-04-11T08:44:51.846Z</time></trkpt><trkpt lat="43.1612701" lon="12.9268925"><ele>1053.6666666666667</ele><time>2026-04-11T08:44:52.848Z</time></trkpt><trkpt lat="43.16134" lon="12.9269222"><ele>1053.0</ele><time>2026-04-11T08:44:54.846Z</time></trkpt><trkpt lat="43.1614053" lon="12.9268866"><ele>1053.0</ele><time>2026-04-11T08:44:57.846Z</time></trkpt><trkpt lat="43.16146" lon="12.9269381"><ele>1053.0</ele><time>2026-04-11T08:45:00.837Z</time></trkpt><trkpt lat="43.1615172" lon="12.9270464"><ele>1053.0</ele><time>2026-04-11T08:48:34.839Z</time></trkpt><trkpt lat="43.1615766" lon="12.9272011"><ele>1053.0</ele><time>2026-04-11T08:48:36.841Z</time></trkpt><trkpt lat="43.1616121" lon="12.9273001"><ele>1053.0</ele><time>2026-04-11T08:48:37.842Z</time></trkpt><trkpt lat="43.161657" lon="12.9274434"><ele>1053.0</ele><time>2026-04-11T08:48:38.837Z</time></trkpt><trkpt lat="43.1617065" lon="12.9276099"><ele>1053.0</ele><time>2026-04-11T08:48:39.846Z</time></trkpt><trkpt lat="43.1617638" lon="12.9277895"><ele>1053.0</ele><time>2026-04-11T08:48:40.836Z</time></trkpt><trkpt lat="43.1618235" lon="12.9279718"><ele>1053.0</ele><time>2026-04-11T08:48:41.841Z</time></trkpt><trkpt lat="43.1618853" lon="12.9281313"><ele>1053.0</ele><time>2026-04-11T08:48:42.832Z</time></trkpt><trkpt lat="43.1619478" lon="12.9282561"><ele>1053.0</ele><time>2026-04-11T08:48:43.831Z</time></trkpt><trkpt lat="43.1620183" lon="12.9283546"><ele>1053.0</ele><time>2026-04-11T08:48:44.836Z</time></trkpt><trkpt lat="43.1621163" lon="12.9284237"><ele>1053.0</ele><time>2026-04-11T08:48:45.837Z</time></trkpt><trkpt lat="43.1622394" lon="12.9284857"><ele>1058.3333333333333</ele><time>2026-04-11T08:48:46.845Z</time></trkpt><trkpt lat="43.1623785" lon="12.92855"><ele>1063.6666666666665</ele><time>2026-04-11T08:48:47.842Z</time></trkpt><trkpt lat="43.1625214" lon="12.9286248"><ele>1069.0</ele><time>2026-04-11T08:48:48.845Z</time></trkpt><trkpt lat="43.1626747" lon="12.9287003"><ele>1069.0</ele><time>2026-04-11T08:48:49.838Z</time></trkpt><trkpt lat="43.162826" lon="12.9287772"><ele>1069.0</ele><time>2026-04-11T08:48:50.836Z</time></trkpt><trkpt lat="43.1629744" lon="12.9288605"><ele>1069.0</ele><time>2026-04-11T08:48:51.854Z</time></trkpt><trkpt lat="43.1631285" lon="12.9289514"><ele>1066.0</ele><time>2026-04-11T08:48:52.832Z</time></trkpt><trkpt lat="43.1632952" lon="12.9290566"><ele>1063.0</ele><time>2026-04-11T08:48:53.83Z</time></trkpt><trkpt lat="43.163457" lon="12.929159"><ele>1060.0</ele><time>2026-04-11T08:48:54.831Z</time></trkpt><trkpt lat="43.1636027" lon="12.9292612"><ele>1066.0</ele><time>2026-04-11T08:48:55.838Z</time></trkpt><trkpt lat="43.1637374" lon="12.929367"><ele>1072.0</ele><time>2026-04-11T08:48:56.826Z</time></trkpt><trkpt lat="43.1638583" lon="12.929468"><ele>1078.0</ele><time>2026-04-11T08:48:57.851Z</time></trkpt><trkpt lat="43.1639517" lon="12.9295479"><ele>1084.0</ele><time>2026-04-11T08:48:58.832Z</time></trkpt><trkpt lat="43.1640145" lon="12.9296118"><ele>1084.0</ele><time>2026-04-11T08:48:59.833Z</time></trkpt><trkpt lat="43.1640783" lon="12.9297049"><ele>1084.0</ele><time>2026-04-11T08:49:01.834Z</time></trkpt><trkpt lat="43.1640183" lon="12.9297905"><ele>1084.0</ele><time>2026-04-11T08:49:04.841Z</time></trkpt><trkpt lat="43.1639144" lon="12.9297402"><ele>1084.0</ele><time>2026-04-11T08:49:06.836Z</time></trkpt><trkpt lat="43.1638404" lon="12.9296952"><ele>1084.0</ele><time>2026-04-11T08:49:07.835Z</time></trkpt><trkpt lat="43.1637577" lon="12.9296603"><ele>1084.0</ele><time>2026-04-11T08:49:08.836Z</time></trkpt><trkpt lat="43.1636449" lon="12.9296233"><ele>1084.0</ele><time>2026-04-11T08:49:09.845Z</time></trkpt><trkpt lat="43.1635114" lon="12.9295957"><ele>1084.0</ele><time>2026-04-11T08:49:10.835Z</time></trkpt><trkpt lat="43.1633673" lon="12.9295708"><ele>1084.0</ele><time>2026-04-11T08:49:11.84Z</time></trkpt><trkpt lat="43.163194" lon="12.9295452"><ele>1089.0</ele><time>2026-04-11T08:49:12.833Z</time></trkpt><trkpt lat="43.1629958" lon="12.9295311"><ele>1094.0</ele><time>2026-04-11T08:49:13.841Z</time></trkpt><trkpt lat="43.1628017" lon="12.9295096"><ele>1099.0</ele><time>2026-04-11T08:49:14.836Z</time></trkpt><trkpt lat="43.1625985" lon="12.9294803"><ele>1099.0</ele><time>2026-04-11T08:49:15.839Z</time></trkpt><trkpt lat="43.1623865" lon="12.9294585"><ele>1099.0</ele><time>2026-04-11T08:49:16.84Z</time></trkpt><trkpt lat="43.1621769" lon="12.9294316"><ele>1099.0</ele><time>2026-04-11T08:49:17.847Z</time></trkpt><trkpt lat="43.1619802" lon="12.9293884"><ele>1105.0</ele><time>2026-04-11T08:49:18.84Z</time></trkpt><trkpt lat="43.1617789" lon="12.9293457"><ele>1111.0</ele><time>2026-04-11T08:49:19.842Z</time></trkpt><trkpt lat="43.1615784" lon="12.9293026"><ele>1117.0</ele><time>2026-04-11T08:49:20.837Z</time></trkpt><trkpt lat="43.1613818" lon="12.9292718"><ele>1114.0</ele><time>2026-04-11T08:49:21.831Z</time></trkpt><trkpt lat="43.1611917" lon="12.9292369"><ele>1111.0</ele><time>2026-04-11T08:49:22.828Z</time></trkpt><trkpt lat="43.1610183" lon="12.9291987"><ele>1108.0</ele><time>2026-04-11T08:49:23.838Z</time></trkpt><trkpt lat="43.1608628" lon="12.9291292"><ele>1108.0</ele><time>2026-04-11T08:49:24.841Z</time></trkpt><trkpt lat="43.1607051" lon="12.9290385"><ele>1108.0</ele><time>2026-04-11T08:49:25.848Z</time></trkpt><trkpt lat="43.1605519" lon="12.9289492"><ele>1108.0</ele><time>2026-04-11T08:49:26.832Z</time></trkpt><trkpt lat="43.1603982" lon="12.9288744"><ele>1115.3333333333333</ele><time>2026-04-11T08:49:27.839Z</time></trkpt><trkpt lat="43.1602347" lon="12.9288149"><ele>1122.6666666666667</ele><time>2026-04-11T08:49:28.835Z</time></trkpt><trkpt lat="43.1600749" lon="12.9287826"><ele>1130.0</ele><time>2026-04-11T08:49:29.836Z</time></trkpt><trkpt lat="43.1599122" lon="12.9287811"><ele>1136.0</ele><time>2026-04-11T08:49:30.826Z</time></trkpt><trkpt lat="43.1597411" lon="12.9287909"><ele>1142.0</ele><time>2026-04-11T08:49:31.831Z</time></trkpt><trkpt lat="43.1595589" lon="12.9287966"><ele>1148.0</ele><time>2026-04-11T08:49:32.827Z</time></trkpt><trkpt lat="43.1593806" lon="12.9287829"><ele>1148.0</ele><time>2026-04-11T08:49:33.838Z</time></trkpt><trkpt lat="43.1592057" lon="12.9287655"><ele>1148.0</ele><time>2026-04-11T08:49:34.839Z</time></trkpt><trkpt lat="43.1590269" lon="12.9287249"><ele>1148.0</ele><time>2026-04-11T08:49:35.836Z</time></trkpt><trkpt lat="43.1588549" lon="12.9286492"><ele>1143.6666666666667</ele><time>2026-04-11T08:49:36.842Z</time></trkpt><trkpt lat="43.1586918" lon="12.9285543"><ele>1139.3333333333333</ele><time>2026-04-11T08:49:37.834Z</time></trkpt><trkpt lat="43.1585222" lon="12.928453"><ele>1135.0</ele><time>2026-04-11T08:49:38.836Z</time></trkpt><trkpt lat="43.1583482" lon="12.9283443"><ele>1143.6666666666665</ele><time>2026-04-11T08:49:39.834Z</time></trkpt><trkpt lat="43.1581668" lon="12.9282374"><ele>1152.3333333333333</ele><time>2026-04-11T08:49:40.832Z</time></trkpt><trkpt lat="43.1579771" lon="12.9281344"><ele>1161.0</ele><time>2026-04-11T08:49:41.836Z</time></trkpt><trkpt lat="43.1577888" lon="12.9280309"><ele>1161.0</ele><time>2026-04-11T08:49:42.833Z</time></trkpt><trkpt lat="43.1575942" lon="12.9279196"><ele>1161.0</ele><time>2026-04-11T08:49:43.837Z</time></trkpt><trkpt lat="43.1574181" lon="12.9278035"><ele>1161.0</ele><time>2026-04-11T08:49:44.829Z</time></trkpt><trkpt lat="43.1572582" lon="12.927701"><ele>1163.0</ele><time>2026-04-11T08:49:45.837Z</time></trkpt><trkpt lat="43.1571109" lon="12.9275884"><ele>1165.0</ele><time>2026-04-11T08:49:46.832Z</time></trkpt><trkpt lat="43.1569876" lon="12.927469"><ele>1167.0</ele><time>2026-04-11T08:49:47.834Z</time></trkpt><trkpt lat="43.1568802" lon="12.9273362"><ele>1167.0</ele><time>2026-04-11T08:49:48.834Z</time></trkpt><trkpt lat="43.1567781" lon="12.9271776"><ele>1167.0</ele><time>2026-04-11T08:49:49.836Z</time></trkpt><trkpt lat="43.1566812" lon="12.9270296"><ele>1167.0</ele><time>2026-04-11T08:49:50.827Z</time></trkpt><trkpt lat="43.1565899" lon="12.926892"><ele>1167.0</ele><time>2026-04-11T08:49:51.833Z</time></trkpt><trkpt lat="43.1565158" lon="12.926751"><ele>1168.25</ele><time>2026-04-11T08:49:52.819Z</time></trkpt><trkpt lat="43.1564411" lon="12.9266142"><ele>1169.5</ele><time>2026-04-11T08:49:53.83Z</time></trkpt><trkpt lat="43.1563434" lon="12.9264777"><ele>1170.75</ele><time>2026-04-11T08:49:54.832Z</time></trkpt><trkpt lat="43.1562368" lon="12.9263502"><ele>1172.0</ele><time>2026-04-11T08:49:55.84Z</time></trkpt><trkpt lat="43.1561038" lon="12.9262254"><ele>1172.0</ele><time>2026-04-11T08:49:56.831Z</time></trkpt><trkpt lat="43.1559208" lon="12.9260579"><ele>1172.0</ele><time>2026-04-11T08:49:57.842Z</time></trkpt><trkpt lat="43.155715" lon="12.9258625"><ele>1177.0</ele><time>2026-04-11T08:49:58.836Z</time></trkpt><trkpt lat="43.155519" lon="12.9256559"><ele>1182.0</ele><time>2026-04-11T08:49:59.831Z</time></trkpt><trkpt lat="43.1553482" lon="12.925448"><ele>1182.0</ele><time>2026-04-11T08:50:00.838Z</time></trkpt><trkpt lat="43.155178" lon="12.9252719"><ele>1182.0</ele><time>2026-04-11T08:50:01.849Z</time></trkpt><trkpt lat="43.155009" lon="12.9251328"><ele>1182.0</ele><time>2026-04-11T08:50:02.833Z</time></trkpt><trkpt lat="43.154849" lon="12.9249962"><ele>1185.6666666666667</ele><time>2026-04-11T08:50:03.845Z</time></trkpt><trkpt lat="43.1547025" lon="12.924839"><ele>1189.3333333333335</ele><time>2026-04-11T08:50:04.834Z</time></trkpt><trkpt lat="43.1545417" lon="12.924657"><ele>1193.0</ele><time>2026-04-11T08:50:05.847Z</time></trkpt><trkpt lat="43.1543839" lon="12.9244635"><ele>1193.0</ele><time>2026-04-11T08:50:06.833Z</time></trkpt><trkpt lat="43.1542224" lon="12.924265"><ele>1193.0</ele><time>2026-04-11T08:50:07.837Z</time></trkpt><trkpt lat="43.1540664" lon="12.9240715"><ele>1193.0</ele><time>2026-04-11T08:50:08.836Z</time></trkpt><trkpt lat="43.1539337" lon="12.9238842"><ele>1192.3333333333335</ele><time>2026-04-11T08:50:09.834Z</time></trkpt><trkpt lat="43.153816" lon="12.9237065"><ele>1191.6666666666667</ele><time>2026-04-11T08:50:10.837Z</time></trkpt><trkpt lat="43.1536976" lon="12.923535"><ele>1191.0</ele><time>2026-04-11T08:50:11.845Z</time></trkpt><trkpt lat="43.1535767" lon="12.9233759"><ele>1191.0</ele><time>2026-04-11T08:50:12.833Z</time></trkpt><trkpt lat="43.1534738" lon="12.9232173"><ele>1191.0</ele><time>2026-04-11T08:50:13.843Z</time></trkpt><trkpt lat="43.1533697" lon="12.9230458"><ele>1191.0</ele><time>2026-04-11T08:50:14.838Z</time></trkpt><trkpt lat="43.1532682" lon="12.922858"><ele>1197.3333333333333</ele><time>2026-04-11T08:50:15.839Z</time></trkpt><trkpt lat="43.1531663" lon="12.9226508"><ele>1203.6666666666665</ele><time>2026-04-11T08:50:16.831Z</time></trkpt><trkpt lat="43.153046" lon="12.9224398"><ele>1210.0</ele><time>2026-04-11T08:50:17.834Z</time></trkpt><trkpt lat="43.1529343" lon="12.9222462"><ele>1210.0</ele><time>2026-04-11T08:50:18.83Z</time></trkpt><trkpt lat="43.1528202" lon="12.9220546"><ele>1210.0</ele><time>2026-04-11T08:50:19.84Z</time></trkpt><trkpt lat="43.152715" lon="12.9218778"><ele>1210.0</ele><time>2026-04-11T08:50:20.831Z</time></trkpt><trkpt lat="43.1526042" lon="12.9217067"><ele>1213.6666666666665</ele><time>2026-04-11T08:50:21.838Z</time></trkpt><trkpt lat="43.1524815" lon="12.9215403"><ele>1217.3333333333333</ele><time>2026-04-11T08:50:22.836Z</time></trkpt><trkpt lat="43.1523397" lon="12.9213683"><ele>1221.0</ele><time>2026-04-11T08:50:23.833Z</time></trkpt><trkpt lat="43.15218" lon="12.9212025"><ele>1221.0</ele><time>2026-04-11T08:50:24.836Z</time></trkpt><trkpt lat="43.1520137" lon="12.9210404"><ele>1221.0</ele><time>2026-04-11T08:50:25.831Z</time></trkpt><trkpt lat="43.1518425" lon="12.9208767"><ele>1221.0</ele><time>2026-04-11T08:50:26.828Z</time></trkpt><trkpt lat="43.1516661" lon="12.9207201"><ele>1222.0</ele><time>2026-04-11T08:50:27.835Z</time></trkpt><trkpt lat="43.1514828" lon="12.9205624"><ele>1223.0</ele><time>2026-04-11T08:50:28.848Z</time></trkpt><trkpt lat="43.1512978" lon="12.9204188"><ele>1224.0</ele><time>2026-04-11T08:50:29.832Z</time></trkpt><trkpt lat="43.1511175" lon="12.9202786"><ele>1224.0</ele><time>2026-04-11T08:50:30.83Z</time></trkpt><trkpt lat="43.1509486" lon="12.9201385"><ele>1224.0</ele><time>2026-04-11T08:50:31.834Z</time></trkpt><trkpt lat="43.1507871" lon="12.9199926"><ele>1224.0</ele><time>2026-04-11T08:50:32.828Z</time></trkpt><trkpt lat="43.1506424" lon="12.9198396"><ele>1227.0</ele><time>2026-04-11T08:50:33.83Z</time></trkpt><trkpt lat="43.1505029" lon="12.919679"><ele>1230.0</ele><time>2026-04-11T08:50:34.843Z</time></trkpt><trkpt lat="43.1503702" lon="12.9195152"><ele>1233.0</ele><time>2026-04-11T08:50:35.855Z</time></trkpt><trkpt lat="43.1502458" lon="12.9193564"><ele>1227.75</ele><time>2026-04-11T08:50:36.848Z</time></trkpt><trkpt lat="43.150131" lon="12.9192178"><ele>1222.5</ele><time>2026-04-11T08:50:37.833Z</time></trkpt><trkpt lat="43.1500528" lon="12.9190808"><ele>1217.25</ele><time>2026-04-11T08:50:38.836Z</time></trkpt><trkpt lat="43.1499944" lon="12.9189451"><ele>1212.0</ele><time>2026-04-11T08:50:39.831Z</time></trkpt><trkpt lat="43.1499718" lon="12.9188213"><ele>1212.0</ele><time>2026-04-11T08:50:40.832Z</time></trkpt><trkpt lat="43.1499825" lon="12.9186853"><ele>1212.0</ele><time>2026-04-11T08:50:41.831Z</time></trkpt><trkpt lat="43.1500189" lon="12.9185437"><ele>1212.0</ele><time>2026-04-11T08:50:42.833Z</time></trkpt><trkpt lat="43.1500847" lon="12.9184026"><ele>1212.0</ele><time>2026-04-11T08:50:43.847Z</time></trkpt><trkpt lat="43.1501611" lon="12.9182522"><ele>1210.75</ele><time>2026-04-11T08:50:44.837Z</time></trkpt><trkpt lat="43.1502187" lon="12.9180938"><ele>1209.5</ele><time>2026-04-11T08:50:45.844Z</time></trkpt><trkpt lat="43.1502564" lon="12.9179323"><ele>1208.25</ele><time>2026-04-11T08:50:46.824Z</time></trkpt><trkpt lat="43.1502787" lon="12.9177584"><ele>1207.0</ele><time>2026-04-11T08:50:47.829Z</time></trkpt><trkpt lat="43.1502969" lon="12.9175889"><ele>1208.25</ele><time>2026-04-11T08:50:48.833Z</time></trkpt><trkpt lat="43.1503319" lon="12.917412"><ele>1209.5</ele><time>2026-04-11T08:50:49.843Z</time></trkpt><trkpt lat="43.1504056" lon="12.9172374"><ele>1210.75</ele><time>2026-04-11T08:50:50.829Z</time></trkpt><trkpt lat="43.1504948" lon="12.9170766"><ele>1212.0</ele><time>2026-04-11T08:50:51.832Z</time></trkpt><trkpt lat="43.1505773" lon="12.9169528"><ele>1212.0</ele><time>2026-04-11T08:50:52.831Z</time></trkpt><trkpt lat="43.1506007" lon="12.9168582"><ele>1212.0</ele><time>2026-04-11T08:50:53.844Z</time></trkpt><trkpt lat="43.1505665" lon="12.9167182"><ele>1212.0</ele><time>2026-04-11T08:50:55.832Z</time></trkpt><trkpt lat="43.1504929" lon="12.9166717"><ele>1212.0</ele><time>2026-04-11T08:50:57.838Z</time></trkpt><trkpt lat="43.1504064" lon="12.9167658"><ele>1212.0</ele><time>2026-04-11T08:50:59.841Z</time></trkpt><trkpt lat="43.1503481" lon="12.9168542"><ele>1212.0</ele><time>2026-04-11T08:51:00.84Z</time></trkpt><trkpt lat="43.1502826" lon="12.9169611"><ele>1212.0</ele><time>2026-04-11T08:51:01.839Z</time></trkpt><trkpt lat="43.1502174" lon="12.9170802"><ele>1212.0</ele><time>2026-04-11T08:51:02.836Z</time></trkpt><trkpt lat="43.1501581" lon="12.9171857"><ele>1212.0</ele><time>2026-04-11T08:51:03.842Z</time></trkpt><trkpt lat="43.1500997" lon="12.9172636"><ele>1212.0</ele><time>2026-04-11T08:51:04.836Z</time></trkpt><trkpt lat="43.1500241" lon="12.9173071"><ele>1212.0</ele><time>2026-04-11T08:51:05.867Z</time></trkpt><trkpt lat="43.149934" lon="12.9173129"><ele>1212.0</ele><time>2026-04-11T08:51:06.853Z</time></trkpt><trkpt lat="43.1498166" lon="12.9172943"><ele>1212.0</ele><time>2026-04-11T08:51:07.852Z</time></trkpt><trkpt lat="43.1497015" lon="12.9172511"><ele>1212.0</ele><time>2026-04-11T08:51:08.848Z</time></trkpt><trkpt lat="43.1496041" lon="12.917181"><ele>1212.0</ele><time>2026-04-11T08:51:09.845Z</time></trkpt><trkpt lat="43.1495247" lon="12.9170519"><ele>1213.25</ele><time>2026-04-11T08:51:10.838Z</time></trkpt><trkpt lat="43.1494505" lon="12.9168844"><ele>1214.5</ele><time>2026-04-11T08:51:11.838Z</time></trkpt><trkpt lat="43.1493685" lon="12.9167195"><ele>1215.75</ele><time>2026-04-11T08:51:12.868Z</time></trkpt><trkpt lat="43.1492756" lon="12.9165687"><ele>1217.0</ele><time>2026-04-11T08:51:13.847Z</time></trkpt><trkpt lat="43.1491655" lon="12.9164373"><ele>1217.0</ele><time>2026-04-11T08:51:14.844Z</time></trkpt><trkpt lat="43.1490532" lon="12.9163223"><ele>1217.0</ele><time>2026-04-11T08:51:15.845Z</time></trkpt><trkpt lat="43.1489397" lon="12.9162229"><ele>1217.0</ele><time>2026-04-11T08:51:16.842Z</time></trkpt><trkpt lat="43.1488335" lon="12.9161408"><ele>1217.0</ele><time>2026-04-11T08:51:17.853Z</time></trkpt><trkpt lat="43.1487203" lon="12.9160727"><ele>1217.0</ele><time>2026-04-11T08:51:18.837Z</time></trkpt><trkpt lat="43.1486098" lon="12.9160078"><ele>1217.0</ele><time>2026-04-11T08:51:19.845Z</time></trkpt><trkpt lat="43.1484888" lon="12.9159575"><ele>1217.0</ele><time>2026-04-11T08:51:20.851Z</time></trkpt><trkpt lat="43.1483578" lon="12.9159208"><ele>1217.0</ele><time>2026-04-11T08:51:21.836Z</time></trkpt><trkpt lat="43.1482223" lon="12.915893"><ele>1217.75</ele><time>2026-04-11T08:51:22.832Z</time></trkpt><trkpt lat="43.1480798" lon="12.9158681"><ele>1218.5</ele><time>2026-04-11T08:51:23.844Z</time></trkpt><trkpt lat="43.1479343" lon="12.9158454"><ele>1219.25</ele><time>2026-04-11T08:51:24.839Z</time></trkpt><trkpt lat="43.1477885" lon="12.9158314"><ele>1220.0</ele><time>2026-04-11T08:51:25.846Z</time></trkpt><trkpt lat="43.1476401" lon="12.9158257"><ele>1220.0</ele><time>2026-04-11T08:51:26.83Z</time></trkpt><trkpt lat="43.1474922" lon="12.915824"><ele>1220.0</ele><time>2026-04-11T08:51:27.841Z</time></trkpt><trkpt lat="43.1473368" lon="12.9158239"><ele>1220.0</ele><time>2026-04-11T08:51:28.832Z</time></trkpt><trkpt lat="43.1471747" lon="12.9158266"><ele>1221.3333333333335</ele><time>2026-04-11T08:51:29.854Z</time></trkpt><trkpt lat="43.1470102" lon="12.9158302"><ele>1222.6666666666667</ele><time>2026-04-11T08:51:30.836Z</time></trkpt><trkpt lat="43.1468545" lon="12.9158311"><ele>1224.0</ele><time>2026-04-11T08:51:31.848Z</time></trkpt><trkpt lat="43.1467093" lon="12.9158287"><ele>1224.0</ele><time>2026-04-11T08:51:32.849Z</time></trkpt><trkpt lat="43.1465779" lon="12.915826"><ele>1224.0</ele><time>2026-04-11T08:51:33.841Z</time></trkpt><trkpt lat="43.1464487" lon="12.9158204"><ele>1224.0</ele><time>2026-04-11T08:51:34.849Z</time></trkpt><trkpt lat="43.1463163" lon="12.9158328"><ele>1224.0</ele><time>2026-04-11T08:51:35.845Z</time></trkpt><trkpt lat="43.1461878" lon="12.915869"><ele>1225.0</ele><time>2026-04-11T08:51:36.834Z</time></trkpt><trkpt lat="43.1460609" lon="12.9159159"><ele>1226.0</ele><time>2026-04-11T08:51:37.841Z</time></trkpt><trkpt lat="43.1459349" lon="12.9159821"><ele>1227.0</ele><time>2026-04-11T08:51:38.855Z</time></trkpt><trkpt lat="43.1458078" lon="12.9160535"><ele>1228.0</ele><time>2026-04-11T08:51:39.841Z</time></trkpt><trkpt lat="43.1456756" lon="12.9161442"><ele>1228.0</ele><time>2026-04-11T08:51:40.856Z</time></trkpt><trkpt lat="43.1455423" lon="12.9162481"><ele>1228.0</ele><time>2026-04-11T08:51:41.843Z</time></trkpt><trkpt lat="43.1454085" lon="12.9163727"><ele>1228.0</ele><time>2026-04-11T08:51:42.833Z</time></trkpt><trkpt lat="43.1452742" lon="12.9165139"><ele>1228.0</ele><time>2026-04-11T08:51:43.837Z</time></trkpt><trkpt lat="43.1451417" lon="12.9166574"><ele>1228.0</ele><time>2026-04-11T08:51:44.845Z</time></trkpt><trkpt lat="43.145017" lon="12.9167953"><ele>1228.0</ele><time>2026-04-11T08:51:45.849Z</time></trkpt><trkpt lat="43.1449078" lon="12.9169178"><ele>1227.5</ele><time>2026-04-11T08:51:46.843Z</time></trkpt><trkpt lat="43.1447933" lon="12.9170299"><ele>1227.0</ele><time>2026-04-11T08:51:47.855Z</time></trkpt><trkpt lat="43.1446808" lon="12.9171206"><ele>1226.5</ele><time>2026-04-11T08:51:48.842Z</time></trkpt><trkpt lat="43.1445691" lon="12.9171851"><ele>1226.0</ele><time>2026-04-11T08:51:49.844Z</time></trkpt><trkpt lat="43.144459" lon="12.9172299"><ele>1226.0</ele><time>2026-04-11T08:51:50.835Z</time></trkpt><trkpt lat="43.1443493" lon="12.9172306"><ele>1226.0</ele><time>2026-04-11T08:51:51.837Z</time></trkpt><trkpt lat="43.144263" lon="12.917196"><ele>1226.0</ele><time>2026-04-11T08:51:52.855Z</time></trkpt><trkpt lat="43.1441955" lon="12.9171188"><ele>1226.0</ele><time>2026-04-11T08:51:53.843Z</time></trkpt><trkpt lat="43.1441407" lon="12.9170148"><ele>1226.0</ele><time>2026-04-11T08:51:54.833Z</time></trkpt><trkpt lat="43.1440863" lon="12.9168751"><ele>1222.0</ele><time>2026-04-11T08:51:55.84Z</time></trkpt><trkpt lat="43.1440311" lon="12.9167115"><ele>1218.0</ele><time>2026-04-11T08:51:56.837Z</time></trkpt><trkpt lat="43.1439676" lon="12.9165345"><ele>1214.0</ele><time>2026-04-11T08:51:57.85Z</time></trkpt><trkpt lat="43.1438871" lon="12.9163344"><ele>1210.0</ele><time>2026-04-11T08:51:58.842Z</time></trkpt><trkpt lat="43.1438056" lon="12.9161257"><ele>1210.6666666666665</ele><time>2026-04-11T08:51:59.842Z</time></trkpt><trkpt lat="43.1437131" lon="12.9158989"><ele>1211.3333333333333</ele><time>2026-04-11T08:52:00.839Z</time></trkpt><trkpt lat="43.1436264" lon="12.9156815"><ele>1212.0</ele><time>2026-04-11T08:52:01.852Z</time></trkpt><trkpt lat="43.1435394" lon="12.9154733"><ele>1212.0</ele><time>2026-04-11T08:52:02.85Z</time></trkpt><trkpt lat="43.1434598" lon="12.9152801"><ele>1212.0</ele><time>2026-04-11T08:52:03.831Z</time></trkpt><trkpt lat="43.1433855" lon="12.9151022"><ele>1212.0</ele><time>2026-04-11T08:52:04.832Z</time></trkpt><trkpt lat="43.1433074" lon="12.9149411"><ele>1211.25</ele><time>2026-04-11T08:52:05.841Z</time></trkpt><trkpt lat="43.1432248" lon="12.9147964"><ele>1210.5</ele><time>2026-04-11T08:52:06.84Z</time></trkpt><trkpt lat="43.1431332" lon="12.9146663"><ele>1209.75</ele><time>2026-04-11T08:52:07.841Z</time></trkpt><trkpt lat="43.1430348" lon="12.9145342"><ele>1209.0</ele><time>2026-04-11T08:52:08.841Z</time></trkpt><trkpt lat="43.1429407" lon="12.9144063"><ele>1206.75</ele><time>2026-04-11T08:52:09.84Z</time></trkpt><trkpt lat="43.1428495" lon="12.914284"><ele>1204.5</ele><time>2026-04-11T08:52:10.84Z</time></trkpt><trkpt lat="43.142768" lon="12.9141648"><ele>1202.25</ele><time>2026-04-11T08:52:11.854Z</time></trkpt><trkpt lat="43.1426879" lon="12.914047"><ele>1200.0</ele><time>2026-04-11T08:52:12.837Z</time></trkpt><trkpt lat="43.1426179" lon="12.9139389"><ele>1200.0</ele><time>2026-04-11T08:52:13.85Z</time></trkpt><trkpt lat="43.1425526" lon="12.9138165"><ele>1200.0</ele><time>2026-04-11T08:52:14.833Z</time></trkpt><trkpt lat="43.142501" lon="12.9136674"><ele>1200.0</ele><time>2026-04-11T08:52:15.841Z</time></trkpt><trkpt lat="43.1424713" lon="12.9135176"><ele>1200.0</ele><time>2026-04-11T08:52:16.841Z</time></trkpt><trkpt lat="43.1424522" lon="12.9133768"><ele>1200.0</ele><time>2026-04-11T08:52:17.846Z</time></trkpt><trkpt lat="43.1424374" lon="12.9132482"><ele>1199.8333333333333</ele><time>2026-04-11T08:52:18.865Z</time></trkpt><trkpt lat="43.1424238" lon="12.9131298"><ele>1199.6666666666667</ele><time>2026-04-11T08:52:19.836Z</time></trkpt><trkpt lat="43.1424125" lon="12.9130207"><ele>1199.5</ele><time>2026-04-11T08:52:20.841Z</time></trkpt><trkpt lat="43.1424058" lon="12.9129251"><ele>1199.3333333333335</ele><time>2026-04-11T08:52:21.844Z</time></trkpt><trkpt lat="43.1423906" lon="12.9127947"><ele>1199.1666666666667</ele><time>2026-04-11T08:52:23.852Z</time></trkpt><trkpt lat="43.1423724" lon="12.9127118"><ele>1199.0</ele><time>2026-04-11T08:52:25.851Z</time></trkpt><trkpt lat="43.142384" lon="12.9126154"><ele>1198.8</ele><time>2026-04-11T08:52:28.841Z</time></trkpt><trkpt lat="43.1423824" lon="12.9125224"><ele>1198.6000000000001</ele><time>2026-04-11T08:52:50.84Z</time></trkpt><trkpt lat="43.1423793" lon="12.9124021"><ele>1198.4</ele><time>2026-04-11T08:52:52.84Z</time></trkpt><trkpt lat="43.1423628" lon="12.9122492"><ele>1198.2</ele><time>2026-04-11T08:52:54.851Z</time></trkpt><trkpt lat="43.1423314" lon="12.9120965"><ele>1198.0</ele><time>2026-04-11T08:52:56.841Z</time></trkpt><trkpt lat="43.1423096" lon="12.9120095"><ele>1198.2857142857142</ele><time>2026-04-11T08:52:57.837Z</time></trkpt><trkpt lat="43.1422673" lon="12.9119242"><ele>1198.5714285714284</ele><time>2026-04-11T08:52:58.85Z</time></trkpt><trkpt lat="43.1422249" lon="12.9118375"><ele>1198.8571428571427</ele><time>2026-04-11T08:52:59.84Z</time></trkpt><trkpt lat="43.1421824" lon="12.9117584"><ele>1199.142857142857</ele><time>2026-04-11T08:53:00.848Z</time></trkpt><trkpt lat="43.1421383" lon="12.911688"><ele>1199.4285714285713</ele><time>2026-04-11T08:53:01.837Z</time></trkpt><trkpt lat="43.142084" lon="12.9116168"><ele>1199.7142857142856</ele><time>2026-04-11T08:53:02.833Z</time></trkpt><trkpt lat="43.1420293" lon="12.9115552"><ele>1200.0</ele><time>2026-04-11T08:53:03.841Z</time></trkpt><trkpt lat="43.1419541" lon="12.9114338"><ele>1198.6666666666667</ele><time>2026-04-11T08:53:05.851Z</time></trkpt><trkpt lat="43.1419205" lon="12.911349"><ele>1197.3333333333333</ele><time>2026-04-11T08:53:06.837Z</time></trkpt><trkpt lat="43.1418856" lon="12.9112554"><ele>1196.0</ele><time>2026-04-11T08:53:07.852Z</time></trkpt><trkpt lat="43.1418561" lon="12.9111522"><ele>1194.6666666666665</ele><time>2026-04-11T08:53:08.839Z</time></trkpt><trkpt lat="43.1418356" lon="12.9110319"><ele>1193.3333333333333</ele><time>2026-04-11T08:53:09.847Z</time></trkpt><trkpt lat="43.141817" lon="12.910919"><ele>1192.0</ele><time>2026-04-11T08:53:10.835Z</time></trkpt><trkpt lat="43.1418073" lon="12.9108024"><ele>1190.5</ele><time>2026-04-11T08:53:11.836Z</time></trkpt><trkpt lat="43.1418081" lon="12.910688"><ele>1189.0</ele><time>2026-04-11T08:53:12.837Z</time></trkpt><trkpt lat="43.1418106" lon="12.9105708"><ele>1187.5</ele><time>2026-04-11T08:53:13.837Z</time></trkpt><trkpt lat="43.1418195" lon="12.9104627"><ele>1186.0</ele><time>2026-04-11T08:53:14.839Z</time></trkpt><trkpt lat="43.1418265" lon="12.9103644"><ele>1184.5</ele><time>2026-04-11T08:53:15.834Z</time></trkpt><trkpt lat="43.1418296" lon="12.9102629"><ele>1183.0</ele><time>2026-04-11T08:53:16.862Z</time></trkpt><trkpt lat="43.1418356" lon="12.9101528"><ele>1182.0</ele><time>2026-04-11T08:53:17.834Z</time></trkpt><trkpt lat="43.1418422" lon="12.9100488"><ele>1181.0</ele><time>2026-04-11T08:53:18.837Z</time></trkpt><trkpt lat="43.1418505" lon="12.9099488"><ele>1180.0</ele><time>2026-04-11T08:53:19.848Z</time></trkpt><trkpt lat="43.1418718" lon="12.9098307"><ele>1179.0</ele><time>2026-04-11T08:53:20.842Z</time></trkpt><trkpt lat="43.14189" lon="12.9096967"><ele>1178.0</ele><time>2026-04-11T08:53:21.853Z</time></trkpt><trkpt lat="43.1418795" lon="12.9095577"><ele>1177.0</ele><time>2026-04-11T08:53:22.839Z</time></trkpt><trkpt lat="43.1418554" lon="12.909428"><ele>1177.0</ele><time>2026-04-11T08:53:23.837Z</time></trkpt><trkpt lat="43.1418183" lon="12.9093145"><ele>1177.0</ele><time>2026-04-11T08:53:24.843Z</time></trkpt><trkpt lat="43.1417811" lon="12.909208"><ele>1177.0</ele><time>2026-04-11T08:53:25.84Z</time></trkpt><trkpt lat="43.1417505" lon="12.9091122"><ele>1177.0</ele><time>2026-04-11T08:53:26.852Z</time></trkpt><trkpt lat="43.1417217" lon="12.9090183"><ele>1177.0</ele><time>2026-04-11T08:53:27.839Z</time></trkpt><trkpt lat="43.1416899" lon="12.908924"><ele>1177.0</ele><time>2026-04-11T08:53:28.843Z</time></trkpt><trkpt lat="43.1416568" lon="12.9088372"><ele>1176.3333333333333</ele><time>2026-04-11T08:53:29.842Z</time></trkpt><trkpt lat="43.1416296" lon="12.9087408"><ele>1175.6666666666665</ele><time>2026-04-11T08:53:30.839Z</time></trkpt><trkpt lat="43.1416021" lon="12.9086391"><ele>1175.0</ele><time>2026-04-11T08:53:31.85Z</time></trkpt><trkpt lat="43.1415748" lon="12.9085362"><ele>1174.3333333333333</ele><time>2026-04-11T08:53:32.848Z</time></trkpt><trkpt lat="43.1415486" lon="12.9084333"><ele>1173.6666666666667</ele><time>2026-04-11T08:53:33.847Z</time></trkpt><trkpt lat="43.1415234" lon="12.9083207"><ele>1173.0</ele><time>2026-04-11T08:53:34.841Z</time></trkpt><trkpt lat="43.1414949" lon="12.9082055"><ele>1169.0</ele><time>2026-04-11T08:53:35.833Z</time></trkpt><trkpt lat="43.1414747" lon="12.9080926"><ele>1165.0</ele><time>2026-04-11T08:53:36.843Z</time></trkpt><trkpt lat="43.1414587" lon="12.9079662"><ele>1161.0</ele><time>2026-04-11T08:53:37.848Z</time></trkpt><trkpt lat="43.1414443" lon="12.9078405"><ele>1157.0</ele><time>2026-04-11T08:53:38.843Z</time></trkpt><trkpt lat="43.1414397" lon="12.9077097"><ele>1153.0</ele><time>2026-04-11T08:53:39.834Z</time></trkpt><trkpt lat="43.1414363" lon="12.9075866"><ele>1152.0</ele><time>2026-04-11T08:53:40.843Z</time></trkpt><trkpt lat="43.1414367" lon="12.9074594"><ele>1151.0</ele><time>2026-04-11T08:53:41.842Z</time></trkpt><trkpt lat="43.1414408" lon="12.907332"><ele>1150.0</ele><time>2026-04-11T08:53:42.853Z</time></trkpt><trkpt lat="43.1414401" lon="12.9072131"><ele>1149.0</ele><time>2026-04-11T08:53:43.852Z</time></trkpt><trkpt lat="43.141435" lon="12.9070961"><ele>1148.0</ele><time>2026-04-11T08:53:44.838Z</time></trkpt><trkpt lat="43.1414302" lon="12.9069892"><ele>1147.0</ele><time>2026-04-11T08:53:45.858Z</time></trkpt><trkpt lat="43.1414252" lon="12.9068811"><ele>1147.0</ele><time>2026-04-11T08:53:46.838Z</time></trkpt><trkpt lat="43.1414191" lon="12.9067702"><ele>1147.0</ele><time>2026-04-11T08:53:47.846Z</time></trkpt><trkpt lat="43.1414183" lon="12.9066656"><ele>1147.0</ele><time>2026-04-11T08:53:48.838Z</time></trkpt><trkpt lat="43.1414211" lon="12.9065429"><ele>1147.0</ele><time>2026-04-11T08:53:49.853Z</time></trkpt><trkpt lat="43.1414316" lon="12.9064232"><ele>1147.0</ele><time>2026-04-11T08:53:50.848Z</time></trkpt><trkpt lat="43.1414366" lon="12.9063113"><ele>1147.0</ele><time>2026-04-11T08:53:51.844Z</time></trkpt><trkpt lat="43.1414485" lon="12.9061974"><ele>1146.2857142857142</ele><time>2026-04-11T08:53:52.845Z</time></trkpt><trkpt lat="43.141464" lon="12.9060968"><ele>1145.5714285714287</ele><time>2026-04-11T08:53:53.848Z</time></trkpt><trkpt lat="43.1414812" lon="12.9059976"><ele>1144.857142857143</ele><time>2026-04-11T08:53:54.84Z</time></trkpt><trkpt lat="43.1414949" lon="12.9059032"><ele>1144.142857142857</ele><time>2026-04-11T08:53:55.852Z</time></trkpt><trkpt lat="43.1415133" lon="12.9058137"><ele>1143.4285714285713</ele><time>2026-04-11T08:53:56.847Z</time></trkpt><trkpt lat="43.1415367" lon="12.9057334"><ele>1142.7142857142858</ele><time>2026-04-11T08:53:57.845Z</time></trkpt><trkpt lat="43.1415734" lon="12.9056498"><ele>1142.0</ele><time>2026-04-11T08:53:58.845Z</time></trkpt><trkpt lat="43.1416203" lon="12.9055785"><ele>1142.0</ele><time>2026-04-11T08:53:59.847Z</time></trkpt><trkpt lat="43.1416645" lon="12.9055104"><ele>1142.0</ele><time>2026-04-11T08:54:00.84Z</time></trkpt><trkpt lat="43.1416836" lon="12.905375"><ele>1142.0</ele><time>2026-04-11T08:54:02.836Z</time></trkpt><trkpt lat="43.1416189" lon="12.9052425"><ele>1142.0</ele><time>2026-04-11T08:54:04.838Z</time></trkpt><trkpt lat="43.1415909" lon="12.9051549"><ele>1142.0</ele><time>2026-04-11T08:54:05.844Z</time></trkpt><trkpt lat="43.1415554" lon="12.9050571"><ele>1142.0</ele><time>2026-04-11T08:54:06.837Z</time></trkpt><trkpt lat="43.1415175" lon="12.9049558"><ele>1137.0</ele><time>2026-04-11T08:54:07.845Z</time></trkpt><trkpt lat="43.1414754" lon="12.9048408"><ele>1132.0</ele><time>2026-04-11T08:54:08.839Z</time></trkpt><trkpt lat="43.1414378" lon="12.9047275"><ele>1127.0</ele><time>2026-04-11T08:54:09.843Z</time></trkpt><trkpt lat="43.1413962" lon="12.9046168"><ele>1122.0</ele><time>2026-04-11T08:54:10.841Z</time></trkpt><trkpt lat="43.1413708" lon="12.9045041"><ele>1117.0</ele><time>2026-04-11T08:54:11.846Z</time></trkpt><trkpt lat="43.1413678" lon="12.9043957"><ele>1112.0</ele><time>2026-04-11T08:54:12.843Z</time></trkpt><trkpt lat="43.1413969" lon="12.9043031"><ele>1112.3333333333335</ele><time>2026-04-11T08:54:13.849Z</time></trkpt><trkpt lat="43.1414424" lon="12.904232"><ele>1112.6666666666667</ele><time>2026-04-11T08:54:14.836Z</time></trkpt><trkpt lat="43.1415194" lon="12.904153"><ele>1113.0</ele><time>2026-04-11T08:54:16.836Z</time></trkpt><trkpt lat="43.1416137" lon="12.9041372"><ele>1113.3333333333333</ele><time>2026-04-11T08:54:18.847Z</time></trkpt><trkpt lat="43.1416791" lon="12.9041283"><ele>1113.6666666666665</ele><time>2026-04-11T08:54:19.836Z</time></trkpt><trkpt lat="43.1417453" lon="12.9041206"><ele>1114.0</ele><time>2026-04-11T08:54:20.848Z</time></trkpt><trkpt lat="43.1418642" lon="12.9040971"><ele>1114.6000000000001</ele><time>2026-04-11T08:54:22.831Z</time></trkpt><trkpt lat="43.1419834" lon="12.9040903"><ele>1115.2</ele><time>2026-04-11T08:54:24.838Z</time></trkpt><trkpt lat="43.1421194" lon="12.9040984"><ele>1115.8000000000002</ele><time>2026-04-11T08:54:26.84Z</time></trkpt><trkpt lat="43.1422075" lon="12.9041115"><ele>1116.4</ele><time>2026-04-11T08:54:27.841Z</time></trkpt><trkpt lat="43.1423037" lon="12.9041376"><ele>1117.0</ele><time>2026-04-11T08:54:28.84Z</time></trkpt><trkpt lat="43.1424128" lon="12.9041659"><ele>1117.0</ele><time>2026-04-11T08:54:29.842Z</time></trkpt><trkpt lat="43.142532" lon="12.9041937"><ele>1117.0</ele><time>2026-04-11T08:54:30.843Z</time></trkpt><trkpt lat="43.1426595" lon="12.9042242"><ele>1117.0</ele><time>2026-04-11T08:54:31.858Z</time></trkpt><trkpt lat="43.1427853" lon="12.9042512"><ele>1117.0</ele><time>2026-04-11T08:54:32.844Z</time></trkpt><trkpt lat="43.1429013" lon="12.9042726"><ele>1117.6</ele><time>2026-04-11T08:54:33.841Z</time></trkpt><trkpt lat="43.1430112" lon="12.9042972"><ele>1118.2</ele><time>2026-04-11T08:54:34.835Z</time></trkpt><trkpt lat="43.1431171" lon="12.9043326"><ele>1118.8</ele><time>2026-04-11T08:54:35.842Z</time></trkpt><trkpt lat="43.1432168" lon="12.9043718"><ele>1119.4</ele><time>2026-04-11T08:54:36.861Z</time></trkpt><trkpt lat="43.1433116" lon="12.9044149"><ele>1120.0</ele><time>2026-04-11T08:54:37.845Z</time></trkpt><trkpt lat="43.1434021" lon="12.904448"><ele>1120.0</ele><time>2026-04-11T08:54:38.846Z</time></trkpt><trkpt lat="43.1434858" lon="12.9044695"><ele>1120.0</ele><time>2026-04-11T08:54:39.844Z</time></trkpt><trkpt lat="43.1435699" lon="12.9044698"><ele>1120.0</ele><time>2026-04-11T08:54:40.842Z</time></trkpt><trkpt lat="43.143643" lon="12.9044553"><ele>1120.0</ele><time>2026-04-11T08:54:41.861Z</time></trkpt><trkpt lat="43.1437178" lon="12.9043968"><ele>1120.0</ele><time>2026-04-11T08:54:42.842Z</time></trkpt><trkpt lat="43.1437832" lon="12.9043087"><ele>1120.0</ele><time>2026-04-11T08:54:43.838Z</time></trkpt><trkpt lat="43.1438441" lon="12.9041945"><ele>1117.6</ele><time>2026-04-11T08:54:44.841Z</time></trkpt><trkpt lat="43.1438914" lon="12.9040663"><ele>1115.2</ele><time>2026-04-11T08:54:45.836Z</time></trkpt><trkpt lat="43.1439284" lon="12.9039222"><ele>1112.8</ele><time>2026-04-11T08:54:46.838Z</time></trkpt><trkpt lat="43.1439537" lon="12.9037712"><ele>1110.4</ele><time>2026-04-11T08:54:47.843Z</time></trkpt><trkpt lat="43.1439705" lon="12.903624"><ele>1108.0</ele><time>2026-04-11T08:54:48.84Z</time></trkpt><trkpt lat="43.1439742" lon="12.903475"><ele>1106.0</ele><time>2026-04-11T08:54:49.843Z</time></trkpt><trkpt lat="43.1439635" lon="12.9033393"><ele>1104.0</ele><time>2026-04-11T08:54:50.848Z</time></trkpt><trkpt lat="43.1439335" lon="12.9032122"><ele>1102.0</ele><time>2026-04-11T08:54:51.843Z</time></trkpt><trkpt lat="43.1438897" lon="12.9030793"><ele>1100.0</ele><time>2026-04-11T08:54:52.843Z</time></trkpt><trkpt lat="43.1438286" lon="12.9029429"><ele>1098.0</ele><time>2026-04-11T08:54:53.854Z</time></trkpt><trkpt lat="43.1437621" lon="12.9028049"><ele>1098.0</ele><time>2026-04-11T08:54:54.841Z</time></trkpt><trkpt lat="43.143685" lon="12.9026737"><ele>1098.0</ele><time>2026-04-11T08:54:55.836Z</time></trkpt><trkpt lat="43.1436064" lon="12.9025397"><ele>1098.0</ele><time>2026-04-11T08:54:56.838Z</time></trkpt><trkpt lat="43.1435301" lon="12.9024101"><ele>1098.0</ele><time>2026-04-11T08:54:57.837Z</time></trkpt><trkpt lat="43.1434646" lon="12.9022858"><ele>1096.6</ele><time>2026-04-11T08:54:58.842Z</time></trkpt><trkpt lat="43.1434035" lon="12.9021651"><ele>1095.1999999999998</ele><time>2026-04-11T08:54:59.846Z</time></trkpt><trkpt lat="43.1433466" lon="12.9020408"><ele>1093.8</ele><time>2026-04-11T08:55:00.838Z</time></trkpt><trkpt lat="43.1432871" lon="12.9019103"><ele>1092.3999999999999</ele><time>2026-04-11T08:55:01.848Z</time></trkpt><trkpt lat="43.1432351" lon="12.9017854"><ele>1091.0</ele><time>2026-04-11T08:55:02.829Z</time></trkpt><trkpt lat="43.1431878" lon="12.9016627"><ele>1088.6</ele><time>2026-04-11T08:55:03.839Z</time></trkpt><trkpt lat="43.143143" lon="12.9015414"><ele>1086.1999999999998</ele><time>2026-04-11T08:55:04.839Z</time></trkpt><trkpt lat="43.1430907" lon="12.9014285"><ele>1083.8000000000002</ele><time>2026-04-11T08:55:05.835Z</time></trkpt><trkpt lat="43.1430381" lon="12.9013225"><ele>1081.4</ele><time>2026-04-11T08:55:06.838Z</time></trkpt><trkpt lat="43.1429758" lon="12.9012235"><ele>1079.0</ele><time>2026-04-11T08:55:07.842Z</time></trkpt><trkpt lat="43.1429056" lon="12.9011424"><ele>1079.0</ele><time>2026-04-11T08:55:08.837Z</time></trkpt><trkpt lat="43.1428288" lon="12.9010682"><ele>1079.0</ele><time>2026-04-11T08:55:09.849Z</time></trkpt><trkpt lat="43.1427515" lon="12.9009945"><ele>1079.0</ele><time>2026-04-11T08:55:10.837Z</time></trkpt><trkpt lat="43.1426851" lon="12.9009084"><ele>1079.0</ele><time>2026-04-11T08:55:11.84Z</time></trkpt><trkpt lat="43.1426428" lon="12.9008101"><ele>1079.0</ele><time>2026-04-11T08:55:12.848Z</time></trkpt><trkpt lat="43.1426163" lon="12.9006948"><ele>1078.6000000000001</ele><time>2026-04-11T08:55:13.846Z</time></trkpt><trkpt lat="43.1425679" lon="12.900571"><ele>1078.2</ele><time>2026-04-11T08:55:14.836Z</time></trkpt><trkpt lat="43.1425136" lon="12.9004549"><ele>1077.8000000000002</ele><time>2026-04-11T08:55:15.852Z</time></trkpt><trkpt lat="43.142464" lon="12.9003376"><ele>1077.4</ele><time>2026-04-11T08:55:16.844Z</time></trkpt><trkpt lat="43.1424221" lon="12.9002173"><ele>1077.0</ele><time>2026-04-11T08:55:17.836Z</time></trkpt><trkpt lat="43.1423788" lon="12.9000827"><ele>1068.5</ele><time>2026-04-11T08:55:18.832Z</time></trkpt><trkpt lat="43.1423336" lon="12.8999367"><ele>1060.0</ele><time>2026-04-11T08:55:19.834Z</time></trkpt><trkpt lat="43.1422967" lon="12.8997932"><ele>1051.5</ele><time>2026-04-11T08:55:20.846Z</time></trkpt><trkpt lat="43.1422592" lon="12.8996373"><ele>1043.0</ele><time>2026-04-11T08:55:21.83Z</time></trkpt><trkpt lat="43.1422217" lon="12.8994816"><ele>1043.0</ele><time>2026-04-11T08:55:22.837Z</time></trkpt><trkpt lat="43.1421903" lon="12.899329"><ele>1043.0</ele><time>2026-04-11T08:55:23.84Z</time></trkpt><trkpt lat="43.1421616" lon="12.8991767"><ele>1043.0</ele><time>2026-04-11T08:55:24.835Z</time></trkpt><trkpt lat="43.1421281" lon="12.8990144"><ele>1043.0</ele><time>2026-04-11T08:55:25.849Z</time></trkpt><trkpt lat="43.1420955" lon="12.8988417"><ele>1042.0</ele><time>2026-04-11T08:55:26.835Z</time></trkpt><trkpt lat="43.1420647" lon="12.8986778"><ele>1041.0</ele><time>2026-04-11T08:55:27.838Z</time></trkpt><trkpt lat="43.1420378" lon="12.8985201"><ele>1040.0</ele><time>2026-04-11T08:55:28.838Z</time></trkpt><trkpt lat="43.1420161" lon="12.8983635"><ele>1039.0</ele><time>2026-04-11T08:55:29.839Z</time></trkpt><trkpt lat="43.1420009" lon="12.8982027"><ele>1039.0</ele><time>2026-04-11T08:55:30.833Z</time></trkpt><trkpt lat="43.1419938" lon="12.8980262"><ele>1039.0</ele><time>2026-04-11T08:55:31.841Z</time></trkpt><trkpt lat="43.1419875" lon="12.8978505"><ele>1039.0</ele><time>2026-04-11T08:55:32.833Z</time></trkpt><trkpt lat="43.1419857" lon="12.8976862"><ele>1039.0</ele><time>2026-04-11T08:55:33.842Z</time></trkpt><trkpt lat="43.141984" lon="12.8975414"><ele>1039.2</ele><time>2026-04-11T08:55:34.84Z</time></trkpt><trkpt lat="43.1419961" lon="12.897414"><ele>1039.4</ele><time>2026-04-11T08:55:35.844Z</time></trkpt><trkpt lat="43.1420332" lon="12.8973153"><ele>1039.6</ele><time>2026-04-11T08:55:36.836Z</time></trkpt><trkpt lat="43.1420843" lon="12.897244"><ele>1039.8</ele><time>2026-04-11T08:55:37.835Z</time></trkpt><trkpt lat="43.1421529" lon="12.8971907"><ele>1040.0</ele><time>2026-04-11T08:55:38.829Z</time></trkpt><trkpt lat="43.14228" lon="12.8971715"><ele>1040.0</ele><time>2026-04-11T08:55:40.832Z</time></trkpt><trkpt lat="43.1423499" lon="12.8971902"><ele>1040.0</ele><time>2026-04-11T08:55:41.834Z</time></trkpt><trkpt lat="43.1424391" lon="12.8972363"><ele>1040.0</ele><time>2026-04-11T08:55:42.827Z</time></trkpt><trkpt lat="43.1425671" lon="12.8973294"><ele>1040.0</ele><time>2026-04-11T08:55:43.845Z</time></trkpt><trkpt lat="43.142722" lon="12.8974325"><ele>1043.0</ele><time>2026-04-11T08:55:44.835Z</time></trkpt><trkpt lat="43.1428549" lon="12.8975243"><ele>1046.0</ele><time>2026-04-11T08:55:45.842Z</time></trkpt><trkpt lat="43.1429861" lon="12.8976087"><ele>1049.0</ele><time>2026-04-11T08:55:46.836Z</time></trkpt><trkpt lat="43.1431183" lon="12.8976907"><ele>1052.0</ele><time>2026-04-11T08:55:47.846Z</time></trkpt><trkpt lat="43.1432467" lon="12.8977771"><ele>1053.5</ele><time>2026-04-11T08:55:48.836Z</time></trkpt><trkpt lat="43.1433723" lon="12.8978618"><ele>1055.0</ele><time>2026-04-11T08:55:49.83Z</time></trkpt><trkpt lat="43.143496" lon="12.8979471"><ele>1056.5</ele><time>2026-04-11T08:55:50.845Z</time></trkpt><trkpt lat="43.1436168" lon="12.8980231"><ele>1058.0</ele><time>2026-04-11T08:55:51.845Z</time></trkpt><trkpt lat="43.1437401" lon="12.8980936"><ele>1058.0</ele><time>2026-04-11T08:55:52.835Z</time></trkpt><trkpt lat="43.1438596" lon="12.8981652"><ele>1058.0</ele><time>2026-04-11T08:55:53.846Z</time></trkpt><trkpt lat="43.1439805" lon="12.8982334"><ele>1058.0</ele><time>2026-04-11T08:55:54.845Z</time></trkpt><trkpt lat="43.1441025" lon="12.8983018"><ele>1058.0</ele><time>2026-04-11T08:55:55.835Z</time></trkpt><trkpt lat="43.1442309" lon="12.8983546"><ele>1058.0</ele><time>2026-04-11T08:55:56.841Z</time></trkpt><trkpt lat="43.14436" lon="12.8983959"><ele>1058.0</ele><time>2026-04-11T08:55:57.837Z</time></trkpt><trkpt lat="43.1444853" lon="12.8984214"><ele>1058.0</ele><time>2026-04-11T08:55:58.836Z</time></trkpt><trkpt lat="43.1446146" lon="12.8984365"><ele>1058.0</ele><time>2026-04-11T08:55:59.856Z</time></trkpt><trkpt lat="43.1447389" lon="12.898443"><ele>1058.0</ele><time>2026-04-11T08:56:00.842Z</time></trkpt><trkpt lat="43.1448552" lon="12.898443"><ele>1058.0</ele><time>2026-04-11T08:56:01.835Z</time></trkpt><trkpt lat="43.1449651" lon="12.8984276"><ele>1058.0</ele><time>2026-04-11T08:56:02.836Z</time></trkpt><trkpt lat="43.1450741" lon="12.8983953"><ele>1058.0</ele><time>2026-04-11T08:56:03.837Z</time></trkpt><trkpt lat="43.1451782" lon="12.8983472"><ele>1058.0</ele><time>2026-04-11T08:56:04.827Z</time></trkpt><trkpt lat="43.1452789" lon="12.8983065"><ele>1051.1666666666667</ele><time>2026-04-11T08:56:05.84Z</time></trkpt><trkpt lat="43.1453775" lon="12.8982768"><ele>1044.3333333333335</ele><time>2026-04-11T08:56:06.846Z</time></trkpt><trkpt lat="43.1454655" lon="12.8982559"><ele>1037.5</ele><time>2026-04-11T08:56:07.846Z</time></trkpt><trkpt lat="43.1455389" lon="12.8982306"><ele>1030.6666666666667</ele><time>2026-04-11T08:56:08.835Z</time></trkpt><trkpt lat="43.1456109" lon="12.8981737"><ele>1023.8333333333334</ele><time>2026-04-11T08:56:09.85Z</time></trkpt><trkpt lat="43.145675" lon="12.8980884"><ele>1017.0</ele><time>2026-04-11T08:56:10.839Z</time></trkpt><trkpt lat="43.1457276" lon="12.8979803"><ele>1016.0</ele><time>2026-04-11T08:56:11.847Z</time></trkpt><trkpt lat="43.1457737" lon="12.8978503"><ele>1015.0</ele><time>2026-04-11T08:56:12.844Z</time></trkpt><trkpt lat="43.1458123" lon="12.8977225"><ele>1014.0</ele><time>2026-04-11T08:56:13.842Z</time></trkpt><trkpt lat="43.1458466" lon="12.8975895"><ele>1013.0</ele><time>2026-04-11T08:56:14.838Z</time></trkpt><trkpt lat="43.1458771" lon="12.8974342"><ele>1012.0</ele><time>2026-04-11T08:56:15.843Z</time></trkpt><trkpt lat="43.1459081" lon="12.8972668"><ele>1010.0</ele><time>2026-04-11T08:56:16.84Z</time></trkpt><trkpt lat="43.145942" lon="12.8970854"><ele>1008.0</ele><time>2026-04-11T08:56:17.838Z</time></trkpt><trkpt lat="43.1459662" lon="12.8969081"><ele>1006.0</ele><time>2026-04-11T08:56:18.835Z</time></trkpt><trkpt lat="43.1459935" lon="12.8967416"><ele>1004.0</ele><time>2026-04-11T08:56:19.84Z</time></trkpt><trkpt lat="43.1460158" lon="12.8965758"><ele>1002.75</ele><time>2026-04-11T08:56:20.836Z</time></trkpt><trkpt lat="43.1460361" lon="12.8964027"><ele>1001.5</ele><time>2026-04-11T08:56:21.851Z</time></trkpt><trkpt lat="43.1460495" lon="12.8962428"><ele>1000.25</ele><time>2026-04-11T08:56:22.832Z</time></trkpt><trkpt lat="43.146062" lon="12.896078"><ele>999.0</ele><time>2026-04-11T08:56:23.845Z</time></trkpt><trkpt lat="43.1460774" lon="12.8959057"><ele>998.0</ele><time>2026-04-11T08:56:24.832Z</time></trkpt><trkpt lat="43.1460853" lon="12.8957246"><ele>997.0</ele><time>2026-04-11T08:56:25.846Z</time></trkpt><trkpt lat="43.1460879" lon="12.8955466"><ele>996.0</ele><time>2026-04-11T08:56:26.84Z</time></trkpt><trkpt lat="43.1460919" lon="12.8953837"><ele>995.0</ele><time>2026-04-11T08:56:27.833Z</time></trkpt><trkpt lat="43.1460897" lon="12.8952332"><ele>994.2</ele><time>2026-04-11T08:56:28.835Z</time></trkpt><trkpt lat="43.1460937" lon="12.8950855"><ele>993.4</ele><time>2026-04-11T08:56:29.834Z</time></trkpt><trkpt lat="43.146099" lon="12.894956"><ele>992.5999999999999</ele><time>2026-04-11T08:56:30.837Z</time></trkpt><trkpt lat="43.146099" lon="12.8948319"><ele>991.8</ele><time>2026-04-11T08:56:31.828Z</time></trkpt><trkpt lat="43.1460996" lon="12.8947055"><ele>991.0</ele><time>2026-04-11T08:56:32.836Z</time></trkpt><trkpt lat="43.1460974" lon="12.8945701"><ele>991.0</ele><time>2026-04-11T08:56:33.834Z</time></trkpt><trkpt lat="43.1460954" lon="12.894441"><ele>990.9999999999999</ele><time>2026-04-11T08:56:34.83Z</time></trkpt><trkpt lat="43.146092" lon="12.8943122"><ele>990.9999999999999</ele><time>2026-04-11T08:56:35.838Z</time></trkpt><trkpt lat="43.1460883" lon="12.8941731"><ele>991.0</ele><time>2026-04-11T08:56:36.833Z</time></trkpt><trkpt lat="43.1460723" lon="12.8940314"><ele>991.0</ele><time>2026-04-11T08:56:37.84Z</time></trkpt><trkpt lat="43.1460477" lon="12.8938842"><ele>988.25</ele><time>2026-04-11T08:56:38.832Z</time></trkpt><trkpt lat="43.1460189" lon="12.893728"><ele>985.5</ele><time>2026-04-11T08:56:39.84Z</time></trkpt><trkpt lat="43.1459912" lon="12.8935619"><ele>982.75</ele><time>2026-04-11T08:56:40.836Z</time></trkpt><trkpt lat="43.1459581" lon="12.8934011"><ele>980.0</ele><time>2026-04-11T08:56:41.839Z</time></trkpt><trkpt lat="43.1459162" lon="12.8932395"><ele>977.75</ele><time>2026-04-11T08:56:42.84Z</time></trkpt><trkpt lat="43.1458684" lon="12.8930825"><ele>975.5</ele><time>2026-04-11T08:56:43.84Z</time></trkpt><trkpt lat="43.1458016" lon="12.8929358"><ele>973.25</ele><time>2026-04-11T08:56:44.849Z</time></trkpt><trkpt lat="43.1457391" lon="12.8928109"><ele>971.0</ele><time>2026-04-11T08:56:45.841Z</time></trkpt><trkpt lat="43.1456772" lon="12.8926793"><ele>963.8</ele><time>2026-04-11T08:56:46.842Z</time></trkpt><trkpt lat="43.1456272" lon="12.8925471"><ele>956.5999999999999</ele><time>2026-04-11T08:56:47.841Z</time></trkpt><trkpt lat="43.1455913" lon="12.8924227"><ele>949.4</ele><time>2026-04-11T08:56:48.829Z</time></trkpt><trkpt lat="43.1455628" lon="12.8922959"><ele>942.2</ele><time>2026-04-11T08:56:49.839Z</time></trkpt><trkpt lat="43.1455579" lon="12.8921727"><ele>935.0</ele><time>2026-04-11T08:56:50.832Z</time></trkpt><trkpt lat="43.1455895" lon="12.8920573"><ele>935.0</ele><time>2026-04-11T08:56:51.839Z</time></trkpt><trkpt lat="43.145638" lon="12.8919356"><ele>935.0</ele><time>2026-04-11T08:56:52.844Z</time></trkpt><trkpt lat="43.145687" lon="12.8918119"><ele>935.0</ele><time>2026-04-11T08:56:53.843Z</time></trkpt><trkpt lat="43.1457431" lon="12.891688"><ele>935.0</ele><time>2026-04-11T08:56:54.834Z</time></trkpt><trkpt lat="43.1457935" lon="12.8915755"><ele>935.0</ele><time>2026-04-11T08:56:55.846Z</time></trkpt><trkpt lat="43.1458594" lon="12.8914923"><ele>939.6</ele><time>2026-04-11T08:56:56.84Z</time></trkpt><trkpt lat="43.1459576" lon="12.8914427"><ele>944.2</ele><time>2026-04-11T08:56:57.862Z</time></trkpt><trkpt lat="43.1460498" lon="12.8914109"><ele>948.8</ele><time>2026-04-11T08:56:58.836Z</time></trkpt><trkpt lat="43.146145" lon="12.8913986"><ele>953.4</ele><time>2026-04-11T08:56:59.84Z</time></trkpt><trkpt lat="43.1462376" lon="12.8913955"><ele>958.0</ele><time>2026-04-11T08:57:00.848Z</time></trkpt><trkpt lat="43.146328" lon="12.8914098"><ele>958.0</ele><time>2026-04-11T08:57:01.85Z</time></trkpt><trkpt lat="43.1464209" lon="12.8914412"><ele>958.0</ele><time>2026-04-11T08:57:02.833Z</time></trkpt><trkpt lat="43.1465134" lon="12.8914801"><ele>958.0</ele><time>2026-04-11T08:57:03.836Z</time></trkpt><trkpt lat="43.1466177" lon="12.8915287"><ele>958.0</ele><time>2026-04-11T08:57:04.833Z</time></trkpt><trkpt lat="43.1467277" lon="12.8915823"><ele>958.0</ele><time>2026-04-11T08:57:05.837Z</time></trkpt><trkpt lat="43.1468287" lon="12.8916299"><ele>957.4</ele><time>2026-04-11T08:57:06.838Z</time></trkpt><trkpt lat="43.1469226" lon="12.8916797"><ele>956.8</ele><time>2026-04-11T08:57:07.836Z</time></trkpt><trkpt lat="43.1470096" lon="12.8917304"><ele>956.2</ele><time>2026-04-11T08:57:08.835Z</time></trkpt><trkpt lat="43.1470955" lon="12.8917782"><ele>955.6</ele><time>2026-04-11T08:57:09.838Z</time></trkpt><trkpt lat="43.1471781" lon="12.8918388"><ele>955.0</ele><time>2026-04-11T08:57:10.834Z</time></trkpt><trkpt lat="43.1472604" lon="12.8919153"><ele>953.0</ele><time>2026-04-11T08:57:11.848Z</time></trkpt><trkpt lat="43.1473371" lon="12.8920085"><ele>951.0</ele><time>2026-04-11T08:57:12.828Z</time></trkpt><trkpt lat="43.1474173" lon="12.8921012"><ele>949.0</ele><time>2026-04-11T08:57:13.836Z</time></trkpt><trkpt lat="43.1474918" lon="12.8921943"><ele>947.0</ele><time>2026-04-11T08:57:14.831Z</time></trkpt><trkpt lat="43.1475835" lon="12.8923302"><ele>945.0</ele><time>2026-04-11T08:57:15.836Z</time></trkpt><trkpt lat="43.1476753" lon="12.8924866"><ele>948.0</ele><time>2026-04-11T08:57:16.836Z</time></trkpt><trkpt lat="43.1477573" lon="12.892638"><ele>951.0</ele><time>2026-04-11T08:57:17.841Z</time></trkpt><trkpt lat="43.1478318" lon="12.8927793"><ele>954.0</ele><time>2026-04-11T08:57:18.828Z</time></trkpt><trkpt lat="43.1479032" lon="12.8929154"><ele>957.0</ele><time>2026-04-11T08:57:19.849Z</time></trkpt><trkpt lat="43.1479784" lon="12.8930462"><ele>957.0</ele><time>2026-04-11T08:57:20.823Z</time></trkpt><trkpt lat="43.1480516" lon="12.8931816"><ele>957.0</ele><time>2026-04-11T08:57:21.832Z</time></trkpt><trkpt lat="43.1481161" lon="12.8933107"><ele>957.0</ele><time>2026-04-11T08:57:22.85Z</time></trkpt><trkpt lat="43.148179" lon="12.8934373"><ele>957.0</ele><time>2026-04-11T08:57:23.835Z</time></trkpt><trkpt lat="43.1482402" lon="12.8935616"><ele>952.2</ele><time>2026-04-11T08:57:24.848Z</time></trkpt><trkpt lat="43.1482954" lon="12.8936838"><ele>947.4000000000001</ele><time>2026-04-11T08:57:25.834Z</time></trkpt><trkpt lat="43.1483319" lon="12.8938161"><ele>942.5999999999999</ele><time>2026-04-11T08:57:26.823Z</time></trkpt><trkpt lat="43.1483483" lon="12.8939331"><ele>937.8</ele><time>2026-04-11T08:57:27.84Z</time></trkpt><trkpt lat="43.148368" lon="12.8940328"><ele>933.0</ele><time>2026-04-11T08:57:28.846Z</time></trkpt><trkpt lat="43.1484401" lon="12.8941135"><ele>933.0</ele><time>2026-04-11T08:57:30.843Z</time></trkpt><trkpt lat="43.1485064" lon="12.8940238"><ele>933.0</ele><time>2026-04-11T08:57:32.83Z</time></trkpt><trkpt lat="43.1485171" lon="12.8939115"><ele>933.0</ele><time>2026-04-11T08:57:33.836Z</time></trkpt><trkpt lat="43.1485085" lon="12.8937718"><ele>933.0</ele><time>2026-04-11T08:57:34.837Z</time></trkpt><trkpt lat="43.1485036" lon="12.8936205"><ele>933.0</ele><time>2026-04-11T08:57:35.838Z</time></trkpt><trkpt lat="43.1485158" lon="12.8934673"><ele>932.4</ele><time>2026-04-11T08:57:36.834Z</time></trkpt><trkpt lat="43.1485348" lon="12.8933248"><ele>931.8</ele><time>2026-04-11T08:57:37.834Z</time></trkpt><trkpt lat="43.1485453" lon="12.8931834"><ele>931.2</ele><time>2026-04-11T08:57:38.839Z</time></trkpt><trkpt lat="43.1485336" lon="12.8930495"><ele>930.6</ele><time>2026-04-11T08:57:39.833Z</time></trkpt><trkpt lat="43.1485112" lon="12.8929153"><ele>930.0</ele><time>2026-04-11T08:57:40.844Z</time></trkpt><trkpt lat="43.1484946" lon="12.8927807"><ele>930.0</ele><time>2026-04-11T08:57:41.834Z</time></trkpt><trkpt lat="43.1484969" lon="12.8926417"><ele>930.0</ele><time>2026-04-11T08:57:42.839Z</time></trkpt><trkpt lat="43.1485" lon="12.892494"><ele>930.0</ele><time>2026-04-11T08:57:43.836Z</time></trkpt><trkpt lat="43.1485074" lon="12.8923394"><ele>930.0</ele><time>2026-04-11T08:57:44.834Z</time></trkpt><trkpt lat="43.1485191" lon="12.8921914"><ele>930.0</ele><time>2026-04-11T08:57:45.827Z</time></trkpt><trkpt lat="43.1485291" lon="12.8920412"><ele>927.8</ele><time>2026-04-11T08:57:46.826Z</time></trkpt><trkpt lat="43.1485382" lon="12.8918925"><ele>925.6</ele><time>2026-04-11T08:57:47.833Z</time></trkpt><trkpt lat="43.1485531" lon="12.8917394"><ele>923.4000000000001</ele><time>2026-04-11T08:57:48.824Z</time></trkpt><trkpt lat="43.1485708" lon="12.8915906"><ele>921.2</ele><time>2026-04-11T08:57:49.837Z</time></trkpt><trkpt lat="43.1485943" lon="12.8914513"><ele>919.0</ele><time>2026-04-11T08:57:50.833Z</time></trkpt><trkpt lat="43.1486223" lon="12.891315"><ele>917.0</ele><time>2026-04-11T08:57:51.831Z</time></trkpt><trkpt lat="43.1486434" lon="12.8911787"><ele>915.0000000000001</ele><time>2026-04-11T08:57:52.838Z</time></trkpt><trkpt lat="43.1486574" lon="12.8910424"><ele>913.0000000000001</ele><time>2026-04-11T08:57:53.842Z</time></trkpt><trkpt lat="43.1486675" lon="12.8909046"><ele>911.0</ele><time>2026-04-11T08:57:54.834Z</time></trkpt><trkpt lat="43.1486761" lon="12.8907661"><ele>909.0</ele><time>2026-04-11T08:57:55.846Z</time></trkpt><trkpt lat="43.1486698" lon="12.8906301"><ele>907.6</ele><time>2026-04-11T08:57:56.837Z</time></trkpt><trkpt lat="43.1486585" lon="12.8904957"><ele>906.2</ele><time>2026-04-11T08:57:57.833Z</time></trkpt><trkpt lat="43.1486393" lon="12.8903483"><ele>904.8000000000001</ele><time>2026-04-11T08:57:58.841Z</time></trkpt><trkpt lat="43.1486176" lon="12.8901935"><ele>903.4000000000001</ele><time>2026-04-11T08:57:59.839Z</time></trkpt><trkpt lat="43.1485933" lon="12.8900489"><ele>902.0</ele><time>2026-04-11T08:58:00.842Z</time></trkpt><trkpt lat="43.1485747" lon="12.8899087"><ele>900.0</ele><time>2026-04-11T08:58:01.833Z</time></trkpt><trkpt lat="43.1485541" lon="12.8897723"><ele>898.0</ele><time>2026-04-11T08:58:02.835Z</time></trkpt><trkpt lat="43.1485394" lon="12.8896242"><ele>896.0</ele><time>2026-04-11T08:58:03.833Z</time></trkpt><trkpt lat="43.1485212" lon="12.8894824"><ele>894.0</ele><time>2026-04-11T08:58:04.838Z</time></trkpt><trkpt lat="43.1484937" lon="12.8893397"><ele>892.0</ele><time>2026-04-11T08:58:05.834Z</time></trkpt><trkpt lat="43.1484606" lon="12.8891947"><ele>894.0</ele><time>2026-04-11T08:58:06.836Z</time></trkpt><trkpt lat="43.1484235" lon="12.8890488"><ele>896.0</ele><time>2026-04-11T08:58:07.826Z</time></trkpt><trkpt lat="43.1483835" lon="12.8889089"><ele>898.0</ele><time>2026-04-11T08:58:08.829Z</time></trkpt><trkpt lat="43.1483321" lon="12.888781"><ele>900.0</ele><time>2026-04-11T08:58:09.832Z</time></trkpt><trkpt lat="43.1482752" lon="12.8886562"><ele>902.0</ele><time>2026-04-11T08:58:10.831Z</time></trkpt><trkpt lat="43.1482067" lon="12.888542"><ele>902.0</ele><time>2026-04-11T08:58:11.834Z</time></trkpt><trkpt lat="43.1481215" lon="12.8884302"><ele>902.0</ele><time>2026-04-11T08:58:12.826Z</time></trkpt><trkpt lat="43.1480197" lon="12.8883108"><ele>902.0</ele><time>2026-04-11T08:58:13.835Z</time></trkpt><trkpt lat="43.1479138" lon="12.888195"><ele>902.0</ele><time>2026-04-11T08:58:14.83Z</time></trkpt><trkpt lat="43.147805" lon="12.8880851"><ele>901.0</ele><time>2026-04-11T08:58:15.829Z</time></trkpt><trkpt lat="43.1476975" lon="12.8879815"><ele>900.0</ele><time>2026-04-11T08:58:16.83Z</time></trkpt><trkpt lat="43.1475808" lon="12.8878756"><ele>899.0</ele><time>2026-04-11T08:58:17.842Z</time></trkpt><trkpt lat="43.147469" lon="12.8877783"><ele>898.0</ele><time>2026-04-11T08:58:18.82Z</time></trkpt><trkpt lat="43.1473594" lon="12.8876794"><ele>891.25</ele><time>2026-04-11T08:58:19.832Z</time></trkpt><trkpt lat="43.1472536" lon="12.8875795"><ele>884.5</ele><time>2026-04-11T08:58:20.829Z</time></trkpt><trkpt lat="43.1471526" lon="12.8874874"><ele>877.75</ele><time>2026-04-11T08:58:21.827Z</time></trkpt><trkpt lat="43.1470498" lon="12.8873946"><ele>871.0</ele><time>2026-04-11T08:58:22.84Z</time></trkpt><trkpt lat="43.1469488" lon="12.8873106"><ele>871.0</ele><time>2026-04-11T08:58:23.831Z</time></trkpt><trkpt lat="43.146851" lon="12.8872262"><ele>871.0</ele><time>2026-04-11T08:58:24.833Z</time></trkpt><trkpt lat="43.1467486" lon="12.8871441"><ele>871.0</ele><time>2026-04-11T08:58:25.829Z</time></trkpt><trkpt lat="43.1466498" lon="12.8870553"><ele>871.0</ele><time>2026-04-11T08:58:26.839Z</time></trkpt><trkpt lat="43.1465447" lon="12.8869657"><ele>873.25</ele><time>2026-04-11T08:58:27.835Z</time></trkpt><trkpt lat="43.146437" lon="12.8868836"><ele>875.5</ele><time>2026-04-11T08:58:28.83Z</time></trkpt><trkpt lat="43.1463329" lon="12.886795"><ele>877.75</ele><time>2026-04-11T08:58:29.834Z</time></trkpt><trkpt lat="43.1462235" lon="12.8867077"><ele>880.0</ele><time>2026-04-11T08:58:30.825Z</time></trkpt><trkpt lat="43.1461001" lon="12.8866171"><ele>872.75</ele><time>2026-04-11T08:58:31.834Z</time></trkpt><trkpt lat="43.1459727" lon="12.8865263"><ele>865.5</ele><time>2026-04-11T08:58:32.827Z</time></trkpt><trkpt lat="43.1458462" lon="12.8864346"><ele>858.25</ele><time>2026-04-11T08:58:33.831Z</time></trkpt><trkpt lat="43.1457244" lon="12.8863487"><ele>851.0</ele><time>2026-04-11T08:58:34.839Z</time></trkpt><trkpt lat="43.1456035" lon="12.8862539"><ele>851.0</ele><time>2026-04-11T08:58:35.834Z</time></trkpt><trkpt lat="43.1454825" lon="12.88617"><ele>851.0</ele><time>2026-04-11T08:58:36.835Z</time></trkpt><trkpt lat="43.1453605" lon="12.8860934"><ele>851.0</ele><time>2026-04-11T08:58:37.828Z</time></trkpt><trkpt lat="43.145235" lon="12.8860366"><ele>851.0</ele><time>2026-04-11T08:58:38.832Z</time></trkpt><trkpt lat="43.1451114" lon="12.8859903"><ele>851.0</ele><time>2026-04-11T08:58:39.835Z</time></trkpt><trkpt lat="43.1449917" lon="12.8859476"><ele>851.0</ele><time>2026-04-11T08:58:40.826Z</time></trkpt><trkpt lat="43.1448825" lon="12.8859066"><ele>851.0</ele><time>2026-04-11T08:58:41.834Z</time></trkpt><trkpt lat="43.14477" lon="12.8858746"><ele>851.0</ele><time>2026-04-11T08:58:42.826Z</time></trkpt><trkpt lat="43.1446569" lon="12.8858649"><ele>841.75</ele><time>2026-04-11T08:58:43.828Z</time></trkpt><trkpt lat="43.1445417" lon="12.8858686"><ele>832.5</ele><time>2026-04-11T08:58:44.82Z</time></trkpt><trkpt lat="43.1444261" lon="12.8858779"><ele>823.25</ele><time>2026-04-11T08:58:45.83Z</time></trkpt><trkpt lat="43.144311" lon="12.8859008"><ele>814.0</ele><time>2026-04-11T08:58:46.822Z</time></trkpt><trkpt lat="43.1441988" lon="12.8859222"><ele>818.2</ele><time>2026-04-11T08:58:47.829Z</time></trkpt><trkpt lat="43.1440907" lon="12.8859451"><ele>822.4000000000001</ele><time>2026-04-11T08:58:48.829Z</time></trkpt><trkpt lat="43.1439845" lon="12.8859631"><ele>826.6</ele><time>2026-04-11T08:58:49.827Z</time></trkpt><trkpt lat="43.143884" lon="12.8859949"><ele>830.8</ele><time>2026-04-11T08:58:50.823Z</time></trkpt><trkpt lat="43.1437906" lon="12.8860482"><ele>835.0</ele><time>2026-04-11T08:58:51.839Z</time></trkpt><trkpt lat="43.1437117" lon="12.8861131"><ele>826.3333333333333</ele><time>2026-04-11T08:58:52.829Z</time></trkpt><trkpt lat="43.1436493" lon="12.8861762"><ele>817.6666666666666</ele><time>2026-04-11T08:58:53.83Z</time></trkpt><trkpt lat="43.1436027" lon="12.8862483"><ele>809.0</ele><time>2026-04-11T08:58:54.83Z</time></trkpt><trkpt lat="43.143576" lon="12.8863477"><ele>800.3333333333333</ele><time>2026-04-11T08:58:55.833Z</time></trkpt><trkpt lat="43.1435532" lon="12.8864652"><ele>791.6666666666666</ele><time>2026-04-11T08:58:56.825Z</time></trkpt><trkpt lat="43.1435353" lon="12.8865968"><ele>783.0</ele><time>2026-04-11T08:58:57.826Z</time></trkpt><trkpt lat="43.1435143" lon="12.8867312"><ele>785.0</ele><time>2026-04-11T08:58:58.832Z</time></trkpt><trkpt lat="43.1434978" lon="12.8868648"><ele>787.0</ele><time>2026-04-11T08:58:59.837Z</time></trkpt><trkpt lat="43.1434857" lon="12.8870006"><ele>789.0</ele><time>2026-04-11T08:59:00.831Z</time></trkpt><trkpt lat="43.1434754" lon="12.8871365"><ele>791.0</ele><time>2026-04-11T08:59:01.831Z</time></trkpt><trkpt lat="43.1434688" lon="12.8872706"><ele>793.0</ele><time>2026-04-11T08:59:02.837Z</time></trkpt><trkpt lat="43.1434606" lon="12.8874208"><ele>793.0</ele><time>2026-04-11T08:59:03.837Z</time></trkpt><trkpt lat="43.1434585" lon="12.8875834"><ele>793.0</ele><time>2026-04-11T08:59:04.846Z</time></trkpt><trkpt lat="43.1434417" lon="12.8877488"><ele>793.0</ele><time>2026-04-11T08:59:05.829Z</time></trkpt><trkpt lat="43.1434161" lon="12.8879329"><ele>793.0</ele><time>2026-04-11T08:59:06.83Z</time></trkpt><trkpt lat="43.1433779" lon="12.8881211"><ele>793.25</ele><time>2026-04-11T08:59:07.832Z</time></trkpt><trkpt lat="43.143334" lon="12.8883132"><ele>793.5</ele><time>2026-04-11T08:59:08.828Z</time></trkpt><trkpt lat="43.1432931" lon="12.8884916"><ele>793.75</ele><time>2026-04-11T08:59:09.832Z</time></trkpt><trkpt lat="43.1432587" lon="12.8886622"><ele>794.0</ele><time>2026-04-11T08:59:10.826Z</time></trkpt><trkpt lat="43.1432269" lon="12.8888302"><ele>788.25</ele><time>2026-04-11T08:59:11.833Z</time></trkpt><trkpt lat="43.1431989" lon="12.8889993"><ele>782.5</ele><time>2026-04-11T08:59:12.831Z</time></trkpt><trkpt lat="43.1431758" lon="12.8891533"><ele>776.75</ele><time>2026-04-11T08:59:13.832Z</time></trkpt><trkpt lat="43.1431525" lon="12.8892992"><ele>771.0</ele><time>2026-04-11T08:59:14.823Z</time></trkpt><trkpt lat="43.1431328" lon="12.8894472"><ele>771.0</ele><time>2026-04-11T08:59:15.84Z</time></trkpt><trkpt lat="43.1431189" lon="12.8895889"><ele>771.0</ele><time>2026-04-11T08:59:16.828Z</time></trkpt><trkpt lat="43.1431076" lon="12.8897343"><ele>771.0</ele><time>2026-04-11T08:59:17.825Z</time></trkpt><trkpt lat="43.1430881" lon="12.8898878"><ele>771.0</ele><time>2026-04-11T08:59:18.831Z</time></trkpt><trkpt lat="43.1430556" lon="12.8900315"><ele>771.0</ele><time>2026-04-11T08:59:19.827Z</time></trkpt><trkpt lat="43.1430258" lon="12.8901742"><ele>774.1666666666666</ele><time>2026-04-11T08:59:20.828Z</time></trkpt><trkpt lat="43.143007" lon="12.8903079"><ele>777.3333333333333</ele><time>2026-04-11T08:59:21.829Z</time></trkpt><trkpt lat="43.1429987" lon="12.8904118"><ele>780.5</ele><time>2026-04-11T08:59:22.834Z</time></trkpt><trkpt lat="43.1429937" lon="12.8905027"><ele>783.6666666666666</ele><time>2026-04-11T08:59:23.833Z</time></trkpt><trkpt lat="43.1429518" lon="12.8905867"><ele>786.8333333333333</ele><time>2026-04-11T08:59:25.831Z</time></trkpt><trkpt lat="43.1428844" lon="12.8904776"><ele>790.0</ele><time>2026-04-11T08:59:28.828Z</time></trkpt><trkpt lat="43.1428685" lon="12.8903504"><ele>790.0</ele><time>2026-04-11T08:59:29.828Z</time></trkpt><trkpt lat="43.1428666" lon="12.8901897"><ele>790.0</ele><time>2026-04-11T08:59:30.844Z</time></trkpt><trkpt lat="43.1428692" lon="12.8899865"><ele>790.0</ele><time>2026-04-11T08:59:31.835Z</time></trkpt><trkpt lat="43.1428667" lon="12.8898042"><ele>790.0</ele><time>2026-04-11T08:59:32.836Z</time></trkpt><trkpt lat="43.1428658" lon="12.889622"><ele>785.25</ele><time>2026-04-11T08:59:33.827Z</time></trkpt><trkpt lat="43.1428585" lon="12.8894397"><ele>780.5</ele><time>2026-04-11T08:59:34.836Z</time></trkpt><trkpt lat="43.1428529" lon="12.8892703"><ele>775.75</ele><time>2026-04-11T08:59:35.829Z</time></trkpt><trkpt lat="43.1428431" lon="12.8891016"><ele>771.0</ele><time>2026-04-11T08:59:36.827Z</time></trkpt><trkpt lat="43.1428341" lon="12.8889365"><ele>767.75</ele><time>2026-04-11T08:59:37.829Z</time></trkpt><trkpt lat="43.1428255" lon="12.8887767"><ele>764.5</ele><time>2026-04-11T08:59:38.828Z</time></trkpt><trkpt lat="43.1428218" lon="12.88861"><ele>761.25</ele><time>2026-04-11T08:59:39.841Z</time></trkpt><trkpt lat="43.1428171" lon="12.888442"><ele>758.0</ele><time>2026-04-11T08:59:40.823Z</time></trkpt><trkpt lat="43.1428249" lon="12.8882747"><ele>755.0</ele><time>2026-04-11T08:59:41.83Z</time></trkpt><trkpt lat="43.1428241" lon="12.8880954"><ele>752.0</ele><time>2026-04-11T08:59:42.823Z</time></trkpt><trkpt lat="43.1428217" lon="12.887917"><ele>749.0</ele><time>2026-04-11T08:59:43.84Z</time></trkpt><trkpt lat="43.1428121" lon="12.8877347"><ele>746.0</ele><time>2026-04-11T08:59:44.839Z</time></trkpt><trkpt lat="43.1427982" lon="12.8875578"><ele>743.0</ele><time>2026-04-11T08:59:45.839Z</time></trkpt><trkpt lat="43.1427791" lon="12.8873775"><ele>740.0</ele><time>2026-04-11T08:59:46.826Z</time></trkpt><trkpt lat="43.1427523" lon="12.8871933"><ele>737.0</ele><time>2026-04-11T08:59:47.826Z</time></trkpt><trkpt lat="43.142726" lon="12.8870182"><ele>734.0</ele><time>2026-04-11T08:59:48.831Z</time></trkpt><trkpt lat="43.1427042" lon="12.8868487"><ele>733.25</ele><time>2026-04-11T08:59:49.826Z</time></trkpt><trkpt lat="43.1426832" lon="12.8866831"><ele>732.5</ele><time>2026-04-11T08:59:50.828Z</time></trkpt><trkpt lat="43.1426621" lon="12.8865208"><ele>731.75</ele><time>2026-04-11T08:59:51.832Z</time></trkpt><trkpt lat="43.1426358" lon="12.8863611"><ele>731.0</ele><time>2026-04-11T08:59:52.825Z</time></trkpt><trkpt lat="43.1425977" lon="12.88622"><ele>731.0</ele><time>2026-04-11T08:59:53.838Z</time></trkpt><trkpt lat="43.1425484" lon="12.8860644"><ele>731.0</ele><time>2026-04-11T08:59:54.83Z</time></trkpt><trkpt lat="43.1424836" lon="12.8859044"><ele>731.0</ele><time>2026-04-11T08:59:55.839Z</time></trkpt><trkpt lat="43.1424386" lon="12.8857717"><ele>731.0</ele><time>2026-04-11T08:59:56.824Z</time></trkpt><trkpt lat="43.1424154" lon="12.8856606"><ele>731.0</ele><time>2026-04-11T08:59:57.83Z</time></trkpt><trkpt lat="43.1424103" lon="12.8855567"><ele>731.0</ele><time>2026-04-11T08:59:58.835Z</time></trkpt><trkpt lat="43.1424636" lon="12.8853902"><ele>731.0</ele><time>2026-04-11T09:00:00.83Z</time></trkpt><trkpt lat="43.1425144" lon="12.885301"><ele>731.0</ele><time>2026-04-11T09:00:01.848Z</time></trkpt><trkpt lat="43.1425496" lon="12.8851953"><ele>731.0</ele><time>2026-04-11T09:00:02.837Z</time></trkpt><trkpt lat="43.1425796" lon="12.8850689"><ele>731.0</ele><time>2026-04-11T09:00:03.839Z</time></trkpt><trkpt lat="43.1426244" lon="12.8849447"><ele>727.8</ele><time>2026-04-11T09:00:04.823Z</time></trkpt><trkpt lat="43.1426811" lon="12.8848301"><ele>724.5999999999999</ele><time>2026-04-11T09:00:05.839Z</time></trkpt><trkpt lat="43.1427493" lon="12.8847226"><ele>721.4</ele><time>2026-04-11T09:00:06.835Z</time></trkpt><trkpt lat="43.1428189" lon="12.8846056"><ele>718.2</ele><time>2026-04-11T09:00:07.839Z</time></trkpt><trkpt lat="43.1428852" lon="12.8845067"><ele>715.0</ele><time>2026-04-11T09:00:08.826Z</time></trkpt><trkpt lat="43.1429536" lon="12.8844187"><ele>715.0</ele><time>2026-04-11T09:00:09.834Z</time></trkpt><trkpt lat="43.14302" lon="12.8843375"><ele>715.0</ele><time>2026-04-11T09:00:10.828Z</time></trkpt><trkpt lat="43.1430927" lon="12.8842328"><ele>715.0</ele><time>2026-04-11T09:00:11.833Z</time></trkpt><trkpt lat="43.1431751" lon="12.8841275"><ele>715.0</ele><time>2026-04-11T09:00:12.836Z</time></trkpt><trkpt lat="43.1432631" lon="12.8840318"><ele>715.0</ele><time>2026-04-11T09:00:13.822Z</time></trkpt><trkpt lat="43.1433491" lon="12.8839526"><ele>715.0</ele><time>2026-04-11T09:00:14.83Z</time></trkpt><trkpt lat="43.1434325" lon="12.8838748"><ele>715.0</ele><time>2026-04-11T09:00:15.834Z</time></trkpt><trkpt lat="43.1435054" lon="12.8838009"><ele>715.0</ele><time>2026-04-11T09:00:16.834Z</time></trkpt><trkpt lat="43.143575" lon="12.8837281"><ele>715.0</ele><time>2026-04-11T09:00:17.831Z</time></trkpt><trkpt lat="43.1436413" lon="12.8836635"><ele>715.0</ele><time>2026-04-11T09:00:18.824Z</time></trkpt><trkpt lat="43.143735" lon="12.8836025"><ele>715.0</ele><time>2026-04-11T09:00:20.83Z</time></trkpt><trkpt lat="43.1437798" lon="12.8835241"><ele>715.0</ele><time>2026-04-11T09:00:23.839Z</time></trkpt><trkpt lat="43.1437099" lon="12.8835178"><ele>715.0</ele><time>2026-04-11T09:00:26.825Z</time></trkpt><trkpt lat="43.1436368" lon="12.8835611"><ele>715.0</ele><time>2026-04-11T09:00:29.83Z</time></trkpt><trkpt lat="43.1435361" lon="12.8835974"><ele>715.0</ele><time>2026-04-11T09:00:55.829Z</time></trkpt><trkpt lat="43.1434114" lon="12.8836452"><ele>715.0</ele><time>2026-04-11T09:00:57.834Z</time></trkpt><trkpt lat="43.1433351" lon="12.8836727"><ele>715.0</ele><time>2026-04-11T09:00:58.846Z</time></trkpt><trkpt lat="43.1432361" lon="12.8837202"><ele>715.0</ele><time>2026-04-11T09:00:59.837Z</time></trkpt><trkpt lat="43.1431251" lon="12.8837659"><ele>715.0</ele><time>2026-04-11T09:01:00.83Z</time></trkpt><trkpt lat="43.1430112" lon="12.8838038"><ele>715.0</ele><time>2026-04-11T09:01:01.846Z</time></trkpt><trkpt lat="43.1428964" lon="12.8838453"><ele>709.25</ele><time>2026-04-11T09:01:02.827Z</time></trkpt><trkpt lat="43.1427831" lon="12.8838905"><ele>703.5</ele><time>2026-04-11T09:01:03.827Z</time></trkpt><trkpt lat="43.142669" lon="12.8839406"><ele>697.75</ele><time>2026-04-11T09:01:04.823Z</time></trkpt><trkpt lat="43.1425525" lon="12.8839907"><ele>692.0</ele><time>2026-04-11T09:01:05.828Z</time></trkpt><trkpt lat="43.1424362" lon="12.8840499"><ele>691.0</ele><time>2026-04-11T09:01:06.827Z</time></trkpt><trkpt lat="43.1423214" lon="12.8841053"><ele>690.0</ele><time>2026-04-11T09:01:07.828Z</time></trkpt><trkpt lat="43.1422176" lon="12.8841548"><ele>689.0</ele><time>2026-04-11T09:01:08.824Z</time></trkpt><trkpt lat="43.1421301" lon="12.8841967"><ele>688.0</ele><time>2026-04-11T09:01:09.832Z</time></trkpt><trkpt lat="43.1420475" lon="12.8842287"><ele>687.0</ele><time>2026-04-11T09:01:10.828Z</time></trkpt><trkpt lat="43.1419771" lon="12.8842705"><ele>687.0</ele><time>2026-04-11T09:01:11.834Z</time></trkpt><trkpt lat="43.1419299" lon="12.8843419"><ele>687.0</ele><time>2026-04-11T09:01:12.828Z</time></trkpt><trkpt lat="43.1419074" lon="12.884434"><ele>687.0</ele><time>2026-04-11T09:01:13.829Z</time></trkpt><trkpt lat="43.1418945" lon="12.8845469"><ele>687.0</ele><time>2026-04-11T09:01:14.84Z</time></trkpt><trkpt lat="43.1418743" lon="12.8846731"><ele>687.0</ele><time>2026-04-11T09:01:15.831Z</time></trkpt><trkpt lat="43.1418124" lon="12.8847703"><ele>687.0</ele><time>2026-04-11T09:01:16.822Z</time></trkpt><trkpt lat="43.1417186" lon="12.884823"><ele>687.0</ele><time>2026-04-11T09:01:17.829Z</time></trkpt><trkpt lat="43.1416257" lon="12.8848351"><ele>687.0</ele><time>2026-04-11T09:01:18.829Z</time></trkpt><trkpt lat="43.1415386" lon="12.8848204"><ele>687.0</ele><time>2026-04-11T09:01:19.841Z</time></trkpt><trkpt lat="43.1414467" lon="12.8847644"><ele>687.0</ele><time>2026-04-11T09:01:20.823Z</time></trkpt><trkpt lat="43.1413637" lon="12.8846745"><ele>687.0</ele><time>2026-04-11T09:01:21.831Z</time></trkpt><trkpt lat="43.141295" lon="12.8845453"><ele>686.25</ele><time>2026-04-11T09:01:22.834Z</time></trkpt><trkpt lat="43.1412491" lon="12.884394"><ele>685.5</ele><time>2026-04-11T09:01:23.839Z</time></trkpt><trkpt lat="43.1412181" lon="12.8842381"><ele>684.75</ele><time>2026-04-11T09:01:24.825Z</time></trkpt><trkpt lat="43.1412003" lon="12.8840767"><ele>684.0</ele><time>2026-04-11T09:01:25.838Z</time></trkpt><trkpt lat="43.1411969" lon="12.8839137"><ele>684.0</ele><time>2026-04-11T09:01:26.838Z</time></trkpt><trkpt lat="43.1412122" lon="12.8837534"><ele>684.0</ele><time>2026-04-11T09:01:27.832Z</time></trkpt><trkpt lat="43.1412453" lon="12.8835928"><ele>684.0</ele><time>2026-04-11T09:01:28.825Z</time></trkpt><trkpt lat="43.141266" lon="12.8834424"><ele>684.0</ele><time>2026-04-11T09:01:29.829Z</time></trkpt><trkpt lat="43.1412482" lon="12.8833047"><ele>678.0</ele><time>2026-04-11T09:01:30.818Z</time></trkpt><trkpt lat="43.1412009" lon="12.8831925"><ele>672.0</ele><time>2026-04-11T09:01:31.832Z</time></trkpt><trkpt lat="43.1411295" lon="12.8830795"><ele>666.0</ele><time>2026-04-11T09:01:32.824Z</time></trkpt><trkpt lat="43.1410528" lon="12.8829496"><ele>660.0</ele><time>2026-04-11T09:01:33.823Z</time></trkpt><trkpt lat="43.1409795" lon="12.8828062"><ele>660.0</ele><time>2026-04-11T09:01:34.824Z</time></trkpt><trkpt lat="43.1409186" lon="12.8826547"><ele>660.0</ele><time>2026-04-11T09:01:35.825Z</time></trkpt><trkpt lat="43.1408577" lon="12.8825077"><ele>660.0</ele><time>2026-04-11T09:01:36.821Z</time></trkpt><trkpt lat="43.1407872" lon="12.8823677"><ele>660.0</ele><time>2026-04-11T09:01:37.827Z</time></trkpt><trkpt lat="43.1406997" lon="12.8822352"><ele>660.5</ele><time>2026-04-11T09:01:38.821Z</time></trkpt><trkpt lat="43.1405999" lon="12.8821104"><ele>661.0</ele><time>2026-04-11T09:01:39.827Z</time></trkpt><trkpt lat="43.1404855" lon="12.8819941"><ele>661.5</ele><time>2026-04-11T09:01:40.834Z</time></trkpt><trkpt lat="43.1403624" lon="12.8818841"><ele>662.0</ele><time>2026-04-11T09:01:41.826Z</time></trkpt><trkpt lat="43.1402331" lon="12.8817742"><ele>659.3333333333333</ele><time>2026-04-11T09:01:42.832Z</time></trkpt><trkpt lat="43.1401015" lon="12.8816624"><ele>656.6666666666666</ele><time>2026-04-11T09:01:43.831Z</time></trkpt><trkpt lat="43.1399684" lon="12.8815636"><ele>654.0</ele><time>2026-04-11T09:01:44.822Z</time></trkpt><trkpt lat="43.1398414" lon="12.8814712"><ele>652.5</ele><time>2026-04-11T09:01:45.832Z</time></trkpt><trkpt lat="43.1397286" lon="12.8813847"><ele>651.0</ele><time>2026-04-11T09:01:46.829Z</time></trkpt><trkpt lat="43.1396255" lon="12.8812992"><ele>649.5</ele><time>2026-04-11T09:01:47.835Z</time></trkpt><trkpt lat="43.1395291" lon="12.8812163"><ele>648.0</ele><time>2026-04-11T09:01:48.827Z</time></trkpt><trkpt lat="43.1394435" lon="12.8811297"><ele>648.0</ele><time>2026-04-11T09:01:49.841Z</time></trkpt><trkpt lat="43.1393719" lon="12.8810316"><ele>648.0</ele><time>2026-04-11T09:01:50.829Z</time></trkpt><trkpt lat="43.1393154" lon="12.8809251"><ele>648.0</ele><time>2026-04-11T09:01:51.831Z</time></trkpt><trkpt lat="43.1392658" lon="12.880826"><ele>648.0</ele><time>2026-04-11T09:01:52.827Z</time></trkpt><trkpt lat="43.1392078" lon="12.8807466"><ele>648.0</ele><time>2026-04-11T09:01:53.832Z</time></trkpt><trkpt lat="43.1391076" lon="12.8807242"><ele>648.0</ele><time>2026-04-11T09:01:55.832Z</time></trkpt><trkpt lat="43.1390507" lon="12.8808118"><ele>648.0</ele><time>2026-04-11T09:01:57.824Z</time></trkpt><trkpt lat="43.138995" lon="12.8809749"><ele>648.0</ele><time>2026-04-11T09:01:59.834Z</time></trkpt><trkpt lat="43.1389512" lon="12.8810762"><ele>648.0</ele><time>2026-04-11T09:02:00.825Z</time></trkpt><trkpt lat="43.138894" lon="12.8811915"><ele>648.0</ele><time>2026-04-11T09:02:01.831Z</time></trkpt><trkpt lat="43.1388149" lon="12.8813141"><ele>648.0</ele><time>2026-04-11T09:02:02.835Z</time></trkpt><trkpt lat="43.138717" lon="12.8814568"><ele>648.0</ele><time>2026-04-11T09:02:03.83Z</time></trkpt><trkpt lat="43.1386143" lon="12.8815975"><ele>648.0</ele><time>2026-04-11T09:02:04.836Z</time></trkpt><trkpt lat="43.1385023" lon="12.881747"><ele>648.0</ele><time>2026-04-11T09:02:05.828Z</time></trkpt><trkpt lat="43.1383831" lon="12.881912"><ele>648.0</ele><time>2026-04-11T09:02:06.842Z</time></trkpt><trkpt lat="43.1382579" lon="12.8820762"><ele>648.0</ele><time>2026-04-11T09:02:07.835Z</time></trkpt><trkpt lat="43.1381262" lon="12.8822326"><ele>648.0</ele><time>2026-04-11T09:02:08.829Z</time></trkpt><trkpt lat="43.1379935" lon="12.8823746"><ele>646.6666666666666</ele><time>2026-04-11T09:02:09.824Z</time></trkpt><trkpt lat="43.1378557" lon="12.882504"><ele>645.3333333333333</ele><time>2026-04-11T09:02:10.823Z</time></trkpt><trkpt lat="43.13771" lon="12.8826171"><ele>644.0</ele><time>2026-04-11T09:02:11.826Z</time></trkpt><trkpt lat="43.1375606" lon="12.8827035"><ele>646.0</ele><time>2026-04-11T09:02:12.825Z</time></trkpt><trkpt lat="43.1374099" lon="12.8827855"><ele>648.0</ele><time>2026-04-11T09:02:13.832Z</time></trkpt><trkpt lat="43.1372606" lon="12.8828718"><ele>650.0</ele><time>2026-04-11T09:02:14.818Z</time></trkpt><trkpt lat="43.1371064" lon="12.88296"><ele>650.0</ele><time>2026-04-11T09:02:15.825Z</time></trkpt><trkpt lat="43.1369505" lon="12.8830418"><ele>650.0</ele><time>2026-04-11T09:02:16.839Z</time></trkpt><trkpt lat="43.1367948" lon="12.8831184"><ele>650.0</ele><time>2026-04-11T09:02:17.826Z</time></trkpt><trkpt lat="43.1366358" lon="12.8831879"><ele>649.3333333333333</ele><time>2026-04-11T09:02:18.838Z</time></trkpt><trkpt lat="43.1364708" lon="12.8832368"><ele>648.6666666666666</ele><time>2026-04-11T09:02:19.826Z</time></trkpt><trkpt lat="43.1363097" lon="12.8832597"><ele>648.0</ele><time>2026-04-11T09:02:20.824Z</time></trkpt><trkpt lat="43.136147" lon="12.8832754"><ele>648.0</ele><time>2026-04-11T09:02:21.826Z</time></trkpt><trkpt lat="43.1360034" lon="12.8832817"><ele>648.0</ele><time>2026-04-11T09:02:22.829Z</time></trkpt><trkpt lat="43.1358638" lon="12.8832815"><ele>648.0</ele><time>2026-04-11T09:02:23.826Z</time></trkpt><trkpt lat="43.1357238" lon="12.8832894"><ele>648.0</ele><time>2026-04-11T09:02:24.829Z</time></trkpt><trkpt lat="43.1355817" lon="12.8833003"><ele>647.25</ele><time>2026-04-11T09:02:25.826Z</time></trkpt><trkpt lat="43.1354381" lon="12.8833032"><ele>646.5</ele><time>2026-04-11T09:02:26.822Z</time></trkpt><trkpt lat="43.1352933" lon="12.8833148"><ele>645.75</ele><time>2026-04-11T09:02:27.825Z</time></trkpt><trkpt lat="43.1351474" lon="12.8833392"><ele>645.0</ele><time>2026-04-11T09:02:28.823Z</time></trkpt><trkpt lat="43.1350001" lon="12.8833838"><ele>647.25</ele><time>2026-04-11T09:02:29.829Z</time></trkpt><trkpt lat="43.1348561" lon="12.883438"><ele>649.5</ele><time>2026-04-11T09:02:30.821Z</time></trkpt><trkpt lat="43.1347222" lon="12.8834964"><ele>651.75</ele><time>2026-04-11T09:02:31.829Z</time></trkpt><trkpt lat="43.134594" lon="12.8835814"><ele>654.0</ele><time>2026-04-11T09:02:32.823Z</time></trkpt><trkpt lat="43.1344738" lon="12.8836823"><ele>654.0</ele><time>2026-04-11T09:02:33.825Z</time></trkpt><trkpt lat="43.1343585" lon="12.8837896"><ele>654.0</ele><time>2026-04-11T09:02:34.822Z</time></trkpt><trkpt lat="43.1342455" lon="12.8838864"><ele>654.0</ele><time>2026-04-11T09:02:35.831Z</time></trkpt><trkpt lat="43.1341401" lon="12.8839871"><ele>654.0</ele><time>2026-04-11T09:02:36.826Z</time></trkpt><trkpt lat="43.1340521" lon="12.8840824"><ele>654.2</ele><time>2026-04-11T09:02:37.818Z</time></trkpt><trkpt lat="43.1339698" lon="12.884187"><ele>654.4000000000001</ele><time>2026-04-11T09:02:38.82Z</time></trkpt><trkpt lat="43.1338945" lon="12.8842804"><ele>654.6</ele><time>2026-04-11T09:02:39.823Z</time></trkpt><trkpt lat="43.1338297" lon="12.8843691"><ele>654.8</ele><time>2026-04-11T09:02:40.82Z</time></trkpt><trkpt lat="43.1337725" lon="12.88444"><ele>655.0</ele><time>2026-04-11T09:02:41.84Z</time></trkpt><trkpt lat="43.1337169" lon="12.8845037"><ele>655.0</ele><time>2026-04-11T09:02:42.817Z</time></trkpt><trkpt lat="43.1336677" lon="12.8845581"><ele>655.0</ele><time>2026-04-11T09:02:43.835Z</time></trkpt><trkpt lat="43.1335787" lon="12.8846532"><ele>655.0</ele><time>2026-04-11T09:02:45.824Z</time></trkpt><trkpt lat="43.133526" lon="12.8847078"><ele>655.0</ele><time>2026-04-11T09:02:46.822Z</time></trkpt><trkpt lat="43.1334199" lon="12.8848027"><ele>655.0</ele><time>2026-04-11T09:02:48.824Z</time></trkpt><trkpt lat="43.1333558" lon="12.8848428"><ele>655.0</ele><time>2026-04-11T09:02:49.835Z</time></trkpt><trkpt lat="43.1332883" lon="12.8848704"><ele>655.0</ele><time>2026-04-11T09:02:50.83Z</time></trkpt><trkpt lat="43.1332098" lon="12.8848888"><ele>655.0</ele><time>2026-04-11T09:02:51.828Z</time></trkpt><trkpt lat="43.1331267" lon="12.8849237"><ele>655.0</ele><time>2026-04-11T09:02:52.829Z</time></trkpt><trkpt lat="43.1330554" lon="12.8849666"><ele>655.0</ele><time>2026-04-11T09:02:53.826Z</time></trkpt><trkpt lat="43.1329835" lon="12.8850205"><ele>655.0</ele><time>2026-04-11T09:02:54.825Z</time></trkpt><trkpt lat="43.1329102" lon="12.8850876"><ele>655.0</ele><time>2026-04-11T09:02:55.829Z</time></trkpt><trkpt lat="43.1328425" lon="12.8851586"><ele>656.0</ele><time>2026-04-11T09:02:56.821Z</time></trkpt><trkpt lat="43.1327714" lon="12.8852394"><ele>657.0</ele><time>2026-04-11T09:02:57.828Z</time></trkpt><trkpt lat="43.1327032" lon="12.8853094"><ele>658.0</ele><time>2026-04-11T09:02:58.826Z</time></trkpt><trkpt lat="43.1326398" lon="12.8853578"><ele>659.0</ele><time>2026-04-11T09:02:59.831Z</time></trkpt><trkpt lat="43.1325792" lon="12.8853961"><ele>660.0</ele><time>2026-04-11T09:03:00.831Z</time></trkpt><trkpt lat="43.1324623" lon="12.885457"><ele>661.0</ele><time>2026-04-11T09:03:02.825Z</time></trkpt><trkpt lat="43.132351" lon="12.8854895"><ele>661.0</ele><time>2026-04-11T09:03:04.826Z</time></trkpt><trkpt lat="43.1322522" lon="12.8855386"><ele>661.0</ele><time>2026-04-11T09:03:06.827Z</time></trkpt><trkpt lat="43.1321689" lon="12.8855583"><ele>661.0</ele><time>2026-04-11T09:03:08.823Z</time></trkpt><trkpt lat="43.13209" lon="12.8855871"><ele>661.0</ele><time>2026-04-11T09:03:10.829Z</time></trkpt><trkpt lat="43.1320104" lon="12.8856151"><ele>661.0</ele><time>2026-04-11T09:03:12.824Z</time></trkpt><trkpt lat="43.131943" lon="12.885641"><ele>661.0</ele><time>2026-04-11T09:03:14.83Z</time></trkpt><trkpt lat="43.1318698" lon="12.8856786"><ele>661.0</ele><time>2026-04-11T09:03:17.829Z</time></trkpt><trkpt lat="43.1318054" lon="12.8857308"><ele>661.0</ele><time>2026-04-11T09:03:20.829Z</time></trkpt><trkpt lat="43.1317505" lon="12.8857906"><ele>661.0</ele><time>2026-04-11T09:03:23.831Z</time></trkpt><trkpt lat="43.1317028" lon="12.8858488"><ele>661.0</ele><time>2026-04-11T09:03:25.83Z</time></trkpt><trkpt lat="43.1316476" lon="12.8859285"><ele>661.0</ele><time>2026-04-11T09:03:27.824Z</time></trkpt><trkpt lat="43.1315672" lon="12.8860379"><ele>661.0</ele><time>2026-04-11T09:03:29.823Z</time></trkpt><trkpt lat="43.1314806" lon="12.8861628"><ele>662.5999999999999</ele><time>2026-04-11T09:03:31.828Z</time></trkpt><trkpt lat="43.1314343" lon="12.8862352"><ele>664.2</ele><time>2026-04-11T09:03:32.83Z</time></trkpt><trkpt lat="43.1313742" lon="12.8863218"><ele>665.8</ele><time>2026-04-11T09:03:33.839Z</time></trkpt><trkpt lat="43.1313096" lon="12.8864159"><ele>667.4000000000001</ele><time>2026-04-11T09:03:34.829Z</time></trkpt><trkpt lat="43.1312322" lon="12.8865098"><ele>669.0</ele><time>2026-04-11T09:03:35.829Z</time></trkpt><trkpt lat="43.1311456" lon="12.8865814"><ele>669.0</ele><time>2026-04-11T09:03:36.832Z</time></trkpt><trkpt lat="43.1310486" lon="12.8866361"><ele>669.0</ele><time>2026-04-11T09:03:37.828Z</time></trkpt><trkpt lat="43.130944" lon="12.8866708"><ele>669.0</ele><time>2026-04-11T09:03:38.824Z</time></trkpt><trkpt lat="43.1308397" lon="12.8866958"><ele>669.0</ele><time>2026-04-11T09:03:39.829Z</time></trkpt><trkpt lat="43.1307457" lon="12.8867254"><ele>669.0</ele><time>2026-04-11T09:03:40.825Z</time></trkpt><trkpt lat="43.1306607" lon="12.8867855"><ele>668.8000000000001</ele><time>2026-04-11T09:03:41.825Z</time></trkpt><trkpt lat="43.1305742" lon="12.8868681"><ele>668.6</ele><time>2026-04-11T09:03:42.826Z</time></trkpt><trkpt lat="43.1304799" lon="12.8869626"><ele>668.4</ele><time>2026-04-11T09:03:43.832Z</time></trkpt><trkpt lat="43.1303911" lon="12.8870538"><ele>668.2</ele><time>2026-04-11T09:03:44.829Z</time></trkpt><trkpt lat="43.1303144" lon="12.8871427"><ele>668.0</ele><time>2026-04-11T09:03:45.826Z</time></trkpt><trkpt lat="43.1302444" lon="12.8872106"><ele>668.0</ele><time>2026-04-11T09:03:46.823Z</time></trkpt><trkpt lat="43.1301815" lon="12.8872528"><ele>668.0</ele><time>2026-04-11T09:03:47.829Z</time></trkpt><trkpt lat="43.1300663" lon="12.8872578"><ele>668.0</ele><time>2026-04-11T09:03:49.831Z</time></trkpt><trkpt lat="43.129965" lon="12.8871788"><ele>668.0</ele><time>2026-04-11T09:03:51.831Z</time></trkpt><trkpt lat="43.1299109" lon="12.8870418"><ele>668.0</ele><time>2026-04-11T09:03:53.829Z</time></trkpt><trkpt lat="43.1298981" lon="12.8869143"><ele>669.6666666666666</ele><time>2026-04-11T09:03:55.837Z</time></trkpt><trkpt lat="43.1298767" lon="12.8868076"><ele>671.3333333333333</ele><time>2026-04-11T09:03:58.829Z</time></trkpt><trkpt lat="43.1298581" lon="12.8867119"><ele>673.0</ele><time>2026-04-11T09:04:00.832Z</time></trkpt><trkpt lat="43.1298453" lon="12.886574"><ele>674.6666666666666</ele><time>2026-04-11T09:04:02.824Z</time></trkpt><trkpt lat="43.1298317" lon="12.8864788"><ele>676.3333333333334</ele><time>2026-04-11T09:04:03.828Z</time></trkpt><trkpt lat="43.1298121" lon="12.8863765"><ele>678.0</ele><time>2026-04-11T09:04:04.829Z</time></trkpt><trkpt lat="43.1297871" lon="12.8862746"><ele>679.5714285714286</ele><time>2026-04-11T09:04:05.826Z</time></trkpt><trkpt lat="43.1297583" lon="12.8861768"><ele>681.1428571428572</ele><time>2026-04-11T09:04:06.829Z</time></trkpt><trkpt lat="43.1297201" lon="12.8860841"><ele>682.7142857142858</ele><time>2026-04-11T09:04:07.834Z</time></trkpt><trkpt lat="43.1296676" lon="12.8860053"><ele>684.2857142857142</ele><time>2026-04-11T09:04:08.822Z</time></trkpt><trkpt lat="43.1296207" lon="12.8859337"><ele>685.8571428571429</ele><time>2026-04-11T09:04:09.833Z</time></trkpt><trkpt lat="43.1295688" lon="12.8858634"><ele>687.4285714285714</ele><time>2026-04-11T09:04:10.824Z</time></trkpt><trkpt lat="43.1295169" lon="12.8857955"><ele>689.0</ele><time>2026-04-11T09:04:11.83Z</time></trkpt><trkpt lat="43.1294587" lon="12.8857338"><ele>689.0</ele><time>2026-04-11T09:04:12.828Z</time></trkpt><trkpt lat="43.1293984" lon="12.8856717"><ele>689.0</ele><time>2026-04-11T09:04:13.836Z</time></trkpt><trkpt lat="43.1293413" lon="12.8856057"><ele>689.0</ele><time>2026-04-11T09:04:14.826Z</time></trkpt><trkpt lat="43.1292836" lon="12.8855368"><ele>689.0</ele><time>2026-04-11T09:04:15.827Z</time></trkpt><trkpt lat="43.1292226" lon="12.8854707"><ele>689.0</ele><time>2026-04-11T09:04:16.823Z</time></trkpt><trkpt lat="43.1291417" lon="12.8854319"><ele>689.0</ele><time>2026-04-11T09:04:17.822Z</time></trkpt><trkpt lat="43.1290515" lon="12.8854164"><ele>693.4000000000001</ele><time>2026-04-11T09:04:18.821Z</time></trkpt><trkpt lat="43.1289599" lon="12.8854071"><ele>697.8</ele><time>2026-04-11T09:04:19.827Z</time></trkpt><trkpt lat="43.1288588" lon="12.8854153"><ele>702.2</ele><time>2026-04-11T09:04:20.827Z</time></trkpt><trkpt lat="43.1287611" lon="12.8854272"><ele>706.5999999999999</ele><time>2026-04-11T09:04:21.832Z</time></trkpt><trkpt lat="43.1286703" lon="12.8854334"><ele>711.0</ele><time>2026-04-11T09:04:22.829Z</time></trkpt><trkpt lat="43.1285785" lon="12.885438"><ele>711.0</ele><time>2026-04-11T09:04:23.827Z</time></trkpt><trkpt lat="43.1284936" lon="12.8854347"><ele>711.0</ele><time>2026-04-11T09:04:24.841Z</time></trkpt><trkpt lat="43.128424" lon="12.8854132"><ele>711.0</ele><time>2026-04-11T09:04:25.834Z</time></trkpt><trkpt lat="43.1283497" lon="12.8852967"><ele>711.0</ele><time>2026-04-11T09:04:27.828Z</time></trkpt><trkpt lat="43.1283809" lon="12.8851124"><ele>711.0</ele><time>2026-04-11T09:04:29.831Z</time></trkpt><trkpt lat="43.1283956" lon="12.8850024"><ele>712.6666666666666</ele><time>2026-04-11T09:04:30.828Z</time></trkpt><trkpt lat="43.1284185" lon="12.8849063"><ele>714.3333333333334</ele><time>2026-04-11T09:04:31.834Z</time></trkpt><trkpt lat="43.1284233" lon="12.8848087"><ele>716.0</ele><time>2026-04-11T09:04:33.826Z</time></trkpt><trkpt lat="43.1283541" lon="12.8847574"><ele>717.6666666666667</ele><time>2026-04-11T09:04:36.828Z</time></trkpt><trkpt lat="43.1282804" lon="12.8847263"><ele>719.3333333333334</ele><time>2026-04-11T09:04:38.843Z</time></trkpt><trkpt lat="43.1281819" lon="12.8847659"><ele>721.0</ele><time>2026-04-11T09:04:40.828Z</time></trkpt><trkpt lat="43.1281217" lon="12.884822"><ele>726.7142857142857</ele><time>2026-04-11T09:04:41.828Z</time></trkpt><trkpt lat="43.1280703" lon="12.8848874"><ele>732.4285714285714</ele><time>2026-04-11T09:04:42.825Z</time></trkpt><trkpt lat="43.1280239" lon="12.8849603"><ele>738.1428571428571</ele><time>2026-04-11T09:04:43.829Z</time></trkpt><trkpt lat="43.127987" lon="12.8850443"><ele>743.8571428571429</ele><time>2026-04-11T09:04:44.837Z</time></trkpt><trkpt lat="43.1279619" lon="12.8851387"><ele>749.5714285714286</ele><time>2026-04-11T09:04:45.834Z</time></trkpt><trkpt lat="43.1279507" lon="12.8852341"><ele>755.2857142857142</ele><time>2026-04-11T09:04:46.826Z</time></trkpt><trkpt lat="43.1279526" lon="12.8853261"><ele>761.0</ele><time>2026-04-11T09:04:47.827Z</time></trkpt><trkpt lat="43.1279549" lon="12.8854159"><ele>761.0</ele><time>2026-04-11T09:04:48.829Z</time></trkpt><trkpt lat="43.1279197" lon="12.8855733"><ele>761.0</ele><time>2026-04-11T09:04:50.83Z</time></trkpt><trkpt lat="43.1278821" lon="12.8856505"><ele>761.0</ele><time>2026-04-11T09:04:51.829Z</time></trkpt><trkpt lat="43.1278349" lon="12.8857467"><ele>761.0</ele><time>2026-04-11T09:04:52.831Z</time></trkpt><trkpt lat="43.1277861" lon="12.8858526"><ele>761.0</ele><time>2026-04-11T09:04:53.845Z</time></trkpt><trkpt lat="43.1277534" lon="12.8859543"><ele>761.0</ele><time>2026-04-11T09:04:54.827Z</time></trkpt><trkpt lat="43.1277271" lon="12.8860623"><ele>760.1999999999999</ele><time>2026-04-11T09:04:55.842Z</time></trkpt><trkpt lat="43.1277391" lon="12.8861856"><ele>759.4</ele><time>2026-04-11T09:04:56.835Z</time></trkpt><trkpt lat="43.127775" lon="12.8863104"><ele>758.6</ele><time>2026-04-11T09:04:57.85Z</time></trkpt><trkpt lat="43.1278105" lon="12.886445"><ele>757.8</ele><time>2026-04-11T09:04:58.829Z</time></trkpt><trkpt lat="43.1278657" lon="12.886536"><ele>757.0</ele><time>2026-04-11T09:04:59.818Z</time></trkpt><trkpt lat="43.1279571" lon="12.8865812"><ele>757.0</ele><time>2026-04-11T09:05:00.851Z</time></trkpt><trkpt lat="43.1280228" lon="12.8867522"><ele>757.0</ele><time>2026-04-11T09:05:02.828Z</time></trkpt><trkpt lat="43.1280217" lon="12.8868973"><ele>757.0</ele><time>2026-04-11T09:05:04.825Z</time></trkpt><trkpt lat="43.127925" lon="12.8869993"><ele>757.0</ele><time>2026-04-11T09:05:06.83Z</time></trkpt><trkpt lat="43.1278592" lon="12.887042"><ele>757.0</ele><time>2026-04-11T09:05:07.832Z</time></trkpt><trkpt lat="43.1277816" lon="12.8870831"><ele>757.6666666666667</ele><time>2026-04-11T09:05:08.826Z</time></trkpt><trkpt lat="43.1277088" lon="12.887101"><ele>758.3333333333334</ele><time>2026-04-11T09:05:09.831Z</time></trkpt><trkpt lat="43.1276394" lon="12.8871089"><ele>759.0</ele><time>2026-04-11T09:05:10.837Z</time></trkpt><trkpt lat="43.1275345" lon="12.8870735"><ele>759.6666666666666</ele><time>2026-04-11T09:05:12.827Z</time></trkpt><trkpt lat="43.1274489" lon="12.886962"><ele>760.3333333333333</ele><time>2026-04-11T09:05:14.831Z</time></trkpt><trkpt lat="43.1274089" lon="12.8868858"><ele>761.0</ele><time>2026-04-11T09:05:15.829Z</time></trkpt><trkpt lat="43.127372" lon="12.8868074"><ele>764.3333333333333</ele><time>2026-04-11T09:05:16.842Z</time></trkpt><trkpt lat="43.1273308" lon="12.8867179"><ele>767.6666666666666</ele><time>2026-04-11T09:05:17.828Z</time></trkpt><trkpt lat="43.1272903" lon="12.8866355"><ele>771.0</ele><time>2026-04-11T09:05:18.853Z</time></trkpt><trkpt lat="43.1271931" lon="12.8865814"><ele>774.3333333333333</ele><time>2026-04-11T09:05:20.84Z</time></trkpt><trkpt lat="43.1270758" lon="12.8866318"><ele>777.6666666666666</ele><time>2026-04-11T09:05:22.831Z</time></trkpt><trkpt lat="43.1270188" lon="12.8866715"><ele>781.0</ele><time>2026-04-11T09:05:23.833Z</time></trkpt><trkpt lat="43.1269486" lon="12.8866989"><ele>781.0</ele><time>2026-04-11T09:05:24.831Z</time></trkpt><trkpt lat="43.1268629" lon="12.8867117"><ele>781.0</ele><time>2026-04-11T09:05:25.836Z</time></trkpt><trkpt lat="43.126772" lon="12.8867139"><ele>781.0</ele><time>2026-04-11T09:05:26.826Z</time></trkpt><trkpt lat="43.1266804" lon="12.8867424"><ele>781.0</ele><time>2026-04-11T09:05:27.825Z</time></trkpt><trkpt lat="43.1265927" lon="12.8867837"><ele>781.0</ele><time>2026-04-11T09:05:28.838Z</time></trkpt><trkpt lat="43.1264883" lon="12.8868246"><ele>784.1999999999999</ele><time>2026-04-11T09:05:29.827Z</time></trkpt><trkpt lat="43.1263829" lon="12.8868575"><ele>787.4</ele><time>2026-04-11T09:05:30.841Z</time></trkpt><trkpt lat="43.1262804" lon="12.8868738"><ele>790.6</ele><time>2026-04-11T09:05:31.832Z</time></trkpt><trkpt lat="43.126176" lon="12.8868888"><ele>793.8</ele><time>2026-04-11T09:05:32.824Z</time></trkpt><trkpt lat="43.1260745" lon="12.8868989"><ele>797.0</ele><time>2026-04-11T09:05:33.837Z</time></trkpt><trkpt lat="43.1259853" lon="12.886909"><ele>797.0000000000001</ele><time>2026-04-11T09:05:34.835Z</time></trkpt><trkpt lat="43.1258975" lon="12.8869217"><ele>797.0</ele><time>2026-04-11T09:05:35.826Z</time></trkpt><trkpt lat="43.1258057" lon="12.8869316"><ele>797.0</ele><time>2026-04-11T09:05:36.829Z</time></trkpt><trkpt lat="43.1257252" lon="12.8869641"><ele>797.0</ele><time>2026-04-11T09:05:37.827Z</time></trkpt><trkpt lat="43.1256684" lon="12.8870336"><ele>797.0000000000001</ele><time>2026-04-11T09:05:38.828Z</time></trkpt><trkpt lat="43.1256206" lon="12.8871338"><ele>797.0</ele><time>2026-04-11T09:05:39.825Z</time></trkpt><trkpt lat="43.1255853" lon="12.8872439"><ele>798.8333333333334</ele><time>2026-04-11T09:05:40.829Z</time></trkpt><trkpt lat="43.1255881" lon="12.8873667"><ele>800.6666666666667</ele><time>2026-04-11T09:05:41.833Z</time></trkpt><trkpt lat="43.1255818" lon="12.8874897"><ele>802.5</ele><time>2026-04-11T09:05:42.834Z</time></trkpt><trkpt lat="43.1255704" lon="12.8876068"><ele>804.3333333333333</ele><time>2026-04-11T09:05:43.831Z</time></trkpt><trkpt lat="43.1255402" lon="12.8876973"><ele>806.1666666666666</ele><time>2026-04-11T09:05:44.824Z</time></trkpt><trkpt lat="43.1254974" lon="12.887765"><ele>808.0</ele><time>2026-04-11T09:05:45.836Z</time></trkpt><trkpt lat="43.1254493" lon="12.8878379"><ele>808.0</ele><time>2026-04-11T09:05:46.828Z</time></trkpt><trkpt lat="43.1253816" lon="12.8879076"><ele>808.0</ele><time>2026-04-11T09:05:47.827Z</time></trkpt><trkpt lat="43.1253075" lon="12.8879778"><ele>808.0</ele><time>2026-04-11T09:05:48.837Z</time></trkpt><trkpt lat="43.1252263" lon="12.888044"><ele>808.0</ele><time>2026-04-11T09:05:49.829Z</time></trkpt><trkpt lat="43.1251314" lon="12.8881043"><ele>808.0</ele><time>2026-04-11T09:05:50.832Z</time></trkpt><trkpt lat="43.1250124" lon="12.8881483"><ele>815.5</ele><time>2026-04-11T09:05:51.829Z</time></trkpt><trkpt lat="43.1248904" lon="12.8881896"><ele>823.0</ele><time>2026-04-11T09:05:52.824Z</time></trkpt><trkpt lat="43.1247678" lon="12.8882422"><ele>830.5</ele><time>2026-04-11T09:05:53.834Z</time></trkpt><trkpt lat="43.1246487" lon="12.888316"><ele>838.0</ele><time>2026-04-11T09:05:54.83Z</time></trkpt><trkpt lat="43.1245156" lon="12.8884242"><ele>830.5</ele><time>2026-04-11T09:05:55.839Z</time></trkpt><trkpt lat="43.1243759" lon="12.8885519"><ele>823.0</ele><time>2026-04-11T09:05:56.821Z</time></trkpt><trkpt lat="43.1242531" lon="12.8886642"><ele>815.5</ele><time>2026-04-11T09:05:57.838Z</time></trkpt><trkpt lat="43.1241578" lon="12.8887432"><ele>808.0</ele><time>2026-04-11T09:05:58.826Z</time></trkpt><trkpt lat="43.1240882" lon="12.8888015"><ele>807.9999999999999</ele><time>2026-04-11T09:05:59.832Z</time></trkpt><trkpt lat="43.1240266" lon="12.8887797"><ele>808.0</ele><time>2026-04-11T09:06:01.828Z</time></trkpt><trkpt lat="43.1240484" lon="12.8886663"><ele>808.0</ele><time>2026-04-11T09:06:03.832Z</time></trkpt><trkpt lat="43.1241264" lon="12.8886041"><ele>808.0</ele><time>2026-04-11T09:06:05.829Z</time></trkpt><trkpt lat="43.1242106" lon="12.8885417"><ele>807.9999999999999</ele><time>2026-04-11T09:06:07.824Z</time></trkpt><trkpt lat="43.1242624" lon="12.8884924"><ele>808.0</ele><time>2026-04-11T09:06:08.848Z</time></trkpt><trkpt lat="43.1243122" lon="12.8884255"><ele>815.5</ele><time>2026-04-11T09:06:09.828Z</time></trkpt><trkpt lat="43.1243721" lon="12.888347"><ele>823.0</ele><time>2026-04-11T09:06:10.823Z</time></trkpt><trkpt lat="43.1244463" lon="12.8882403"><ele>830.5</ele><time>2026-04-11T09:06:11.827Z</time></trkpt><trkpt lat="43.1245333" lon="12.888097"><ele>838.0</ele><time>2026-04-11T09:06:12.834Z</time></trkpt><trkpt lat="43.1246112" lon="12.8879385"><ele>838.0</ele><time>2026-04-11T09:06:13.832Z</time></trkpt><trkpt lat="43.1246899" lon="12.8877821"><ele>838.0</ele><time>2026-04-11T09:06:14.827Z</time></trkpt><trkpt lat="43.1247623" lon="12.8876565"><ele>838.0</ele><time>2026-04-11T09:06:15.82Z</time></trkpt><trkpt lat="43.1248336" lon="12.8875438"><ele>838.0</ele><time>2026-04-11T09:06:16.832Z</time></trkpt><trkpt lat="43.1248896" lon="12.8874684"><ele>838.0</ele><time>2026-04-11T09:06:17.836Z</time></trkpt><trkpt lat="43.1249604" lon="12.887369"><ele>837.0</ele><time>2026-04-11T09:06:19.828Z</time></trkpt><trkpt lat="43.1249173" lon="12.8872912"><ele>836.0</ele><time>2026-04-11T09:06:22.831Z</time></trkpt><trkpt lat="43.1248107" lon="12.8873743"><ele>835.0</ele><time>2026-04-11T09:06:24.829Z</time></trkpt><trkpt lat="43.1247416" lon="12.8874364"><ele>834.0</ele><time>2026-04-11T09:06:25.84Z</time></trkpt><trkpt lat="43.1246695" lon="12.8874857"><ele>833.0</ele><time>2026-04-11T09:06:26.826Z</time></trkpt><trkpt lat="43.1245843" lon="12.8875398"><ele>834.25</ele><time>2026-04-11T09:06:27.833Z</time></trkpt><trkpt lat="43.1244974" lon="12.887596"><ele>835.5</ele><time>2026-04-11T09:06:28.852Z</time></trkpt><trkpt lat="43.124394" lon="12.8876474"><ele>836.75</ele><time>2026-04-11T09:06:29.848Z</time></trkpt><trkpt lat="43.1242769" lon="12.8876823"><ele>838.0</ele><time>2026-04-11T09:06:30.829Z</time></trkpt><trkpt lat="43.1241535" lon="12.8877125"><ele>846.5</ele><time>2026-04-11T09:06:31.838Z</time></trkpt><trkpt lat="43.1240258" lon="12.8877646"><ele>855.0</ele><time>2026-04-11T09:06:32.823Z</time></trkpt><trkpt lat="43.1239034" lon="12.887815"><ele>863.5</ele><time>2026-04-11T09:06:33.834Z</time></trkpt><trkpt lat="43.1237666" lon="12.887866"><ele>872.0</ele><time>2026-04-11T09:06:34.824Z</time></trkpt><trkpt lat="43.1236326" lon="12.8879118"><ele>872.0</ele><time>2026-04-11T09:06:35.827Z</time></trkpt><trkpt lat="43.1235148" lon="12.8879646"><ele>872.0</ele><time>2026-04-11T09:06:36.829Z</time></trkpt><trkpt lat="43.1234061" lon="12.8880271"><ele>872.0</ele><time>2026-04-11T09:06:37.831Z</time></trkpt><trkpt lat="43.1233001" lon="12.8880973"><ele>872.0</ele><time>2026-04-11T09:06:38.832Z</time></trkpt><trkpt lat="43.1231824" lon="12.8881483"><ele>879.25</ele><time>2026-04-11T09:06:39.831Z</time></trkpt><trkpt lat="43.1230534" lon="12.888191"><ele>886.5</ele><time>2026-04-11T09:06:40.829Z</time></trkpt><trkpt lat="43.1229216" lon="12.888232"><ele>893.75</ele><time>2026-04-11T09:06:41.828Z</time></trkpt><trkpt lat="43.1227976" lon="12.8882866"><ele>901.0</ele><time>2026-04-11T09:06:42.829Z</time></trkpt><trkpt lat="43.1226842" lon="12.8883393"><ele>901.0</ele><time>2026-04-11T09:06:43.834Z</time></trkpt><trkpt lat="43.1225694" lon="12.8883789"><ele>901.0</ele><time>2026-04-11T09:06:44.839Z</time></trkpt><trkpt lat="43.1224481" lon="12.8884038"><ele>901.0</ele><time>2026-04-11T09:06:45.831Z</time></trkpt><trkpt lat="43.1223004" lon="12.8884158"><ele>901.0</ele><time>2026-04-11T09:06:46.83Z</time></trkpt><trkpt lat="43.1221444" lon="12.8884288"><ele>896.0</ele><time>2026-04-11T09:06:47.84Z</time></trkpt><trkpt lat="43.1219893" lon="12.8884511"><ele>891.0</ele><time>2026-04-11T09:06:48.846Z</time></trkpt><trkpt lat="43.1218375" lon="12.8884663"><ele>886.0</ele><time>2026-04-11T09:06:49.829Z</time></trkpt><trkpt lat="43.1216752" lon="12.8884717"><ele>890.6666666666666</ele><time>2026-04-11T09:06:50.825Z</time></trkpt><trkpt lat="43.1215102" lon="12.8884733"><ele>895.3333333333333</ele><time>2026-04-11T09:06:51.843Z</time></trkpt><trkpt lat="43.1213403" lon="12.8884644"><ele>900.0</ele><time>2026-04-11T09:06:52.834Z</time></trkpt><trkpt lat="43.1211692" lon="12.8884747"><ele>900.0</ele><time>2026-04-11T09:06:53.835Z</time></trkpt><trkpt lat="43.1210162" lon="12.8885021"><ele>900.0</ele><time>2026-04-11T09:06:54.825Z</time></trkpt><trkpt lat="43.1208863" lon="12.8885312"><ele>900.0</ele><time>2026-04-11T09:06:55.835Z</time></trkpt><trkpt lat="43.1207881" lon="12.8885511"><ele>900.0</ele><time>2026-04-11T09:06:56.824Z</time></trkpt><trkpt lat="43.1207082" lon="12.8885688"><ele>902.8333333333334</ele><time>2026-04-11T09:06:57.824Z</time></trkpt><trkpt lat="43.1206391" lon="12.8885661"><ele>905.6666666666667</ele><time>2026-04-11T09:06:58.828Z</time></trkpt><trkpt lat="43.1205642" lon="12.88854"><ele>908.5</ele><time>2026-04-11T09:06:59.835Z</time></trkpt><trkpt lat="43.1204806" lon="12.8884794"><ele>911.3333333333334</ele><time>2026-04-11T09:07:00.83Z</time></trkpt><trkpt lat="43.120392" lon="12.8884101"><ele>914.1666666666667</ele><time>2026-04-11T09:07:01.819Z</time></trkpt><trkpt lat="43.1203104" lon="12.888334"><ele>917.0</ele><time>2026-04-11T09:07:02.828Z</time></trkpt><trkpt lat="43.1202228" lon="12.8882633"><ele>925.0</ele><time>2026-04-11T09:07:03.826Z</time></trkpt><trkpt lat="43.1201424" lon="12.8882063"><ele>933.0</ele><time>2026-04-11T09:07:04.823Z</time></trkpt><trkpt lat="43.1200692" lon="12.8881828"><ele>941.0</ele><time>2026-04-11T09:07:05.833Z</time></trkpt><trkpt lat="43.1199953" lon="12.8882098"><ele>949.0</ele><time>2026-04-11T09:07:06.818Z</time></trkpt><trkpt lat="43.1199068" lon="12.8882888"><ele>957.0</ele><time>2026-04-11T09:07:07.839Z</time></trkpt><trkpt lat="43.1197998" lon="12.8883928"><ele>956.75</ele><time>2026-04-11T09:07:08.827Z</time></trkpt><trkpt lat="43.1196762" lon="12.8885171"><ele>956.5</ele><time>2026-04-11T09:07:09.835Z</time></trkpt><trkpt lat="43.1195547" lon="12.888642"><ele>956.25</ele><time>2026-04-11T09:07:10.824Z</time></trkpt><trkpt lat="43.1194612" lon="12.8887485"><ele>956.0</ele><time>2026-04-11T09:07:11.829Z</time></trkpt><trkpt lat="43.1193863" lon="12.8888487"><ele>956.0000000000001</ele><time>2026-04-11T09:07:12.833Z</time></trkpt><trkpt lat="43.1193097" lon="12.8889173"><ele>956.0</ele><time>2026-04-11T09:07:13.834Z</time></trkpt><trkpt lat="43.1192333" lon="12.8889751"><ele>956.0</ele><time>2026-04-11T09:07:14.826Z</time></trkpt><trkpt lat="43.1191541" lon="12.88902"><ele>956.0</ele><time>2026-04-11T09:07:15.829Z</time></trkpt><trkpt lat="43.1190723" lon="12.889052"><ele>956.0000000000001</ele><time>2026-04-11T09:07:16.832Z</time></trkpt><trkpt lat="43.1189782" lon="12.8890781"><ele>956.0</ele><time>2026-04-11T09:07:17.83Z</time></trkpt><trkpt lat="43.118875" lon="12.8891023"><ele>961.25</ele><time>2026-04-11T09:07:18.829Z</time></trkpt><trkpt lat="43.1187701" lon="12.8891003"><ele>966.5</ele><time>2026-04-11T09:07:19.837Z</time></trkpt><trkpt lat="43.1186502" lon="12.8890963"><ele>971.75</ele><time>2026-04-11T09:07:20.823Z</time></trkpt><trkpt lat="43.1185218" lon="12.8891171"><ele>977.0</ele><time>2026-04-11T09:07:21.837Z</time></trkpt><trkpt lat="43.1183924" lon="12.8891619"><ele>977.0</ele><time>2026-04-11T09:07:22.826Z</time></trkpt><trkpt lat="43.1182877" lon="12.8892128"><ele>977.0</ele><time>2026-04-11T09:07:23.826Z</time></trkpt><trkpt lat="43.1181963" lon="12.8892329"><ele>977.0</ele><time>2026-04-11T09:07:24.83Z</time></trkpt><trkpt lat="43.1181064" lon="12.889234"><ele>977.0</ele><time>2026-04-11T09:07:25.832Z</time></trkpt><trkpt lat="43.1180213" lon="12.8892196"><ele>977.0</ele><time>2026-04-11T09:07:26.833Z</time></trkpt><trkpt lat="43.1179436" lon="12.8891926"><ele>977.1666666666667</ele><time>2026-04-11T09:07:27.829Z</time></trkpt><trkpt lat="43.1178642" lon="12.8891538"><ele>977.3333333333334</ele><time>2026-04-11T09:07:28.827Z</time></trkpt><trkpt lat="43.1177927" lon="12.8890972"><ele>977.5</ele><time>2026-04-11T09:07:29.836Z</time></trkpt><trkpt lat="43.1177174" lon="12.8890375"><ele>977.6666666666667</ele><time>2026-04-11T09:07:30.827Z</time></trkpt><trkpt lat="43.1176383" lon="12.8889735"><ele>977.8333333333334</ele><time>2026-04-11T09:07:31.823Z</time></trkpt><trkpt lat="43.1175615" lon="12.8888953"><ele>978.0</ele><time>2026-04-11T09:07:32.822Z</time></trkpt><trkpt lat="43.1174852" lon="12.8888124"><ele>978.0</ele><time>2026-04-11T09:07:33.828Z</time></trkpt><trkpt lat="43.1174066" lon="12.8887368"><ele>978.0</ele><time>2026-04-11T09:07:34.82Z</time></trkpt><trkpt lat="43.1173228" lon="12.8886563"><ele>978.0</ele><time>2026-04-11T09:07:35.823Z</time></trkpt><trkpt lat="43.1172354" lon="12.8885696"><ele>978.0</ele><time>2026-04-11T09:07:36.818Z</time></trkpt><trkpt lat="43.1171409" lon="12.8884787"><ele>978.0</ele><time>2026-04-11T09:07:37.83Z</time></trkpt><trkpt lat="43.1170423" lon="12.8883934"><ele>983.5</ele><time>2026-04-11T09:07:38.832Z</time></trkpt><trkpt lat="43.1169415" lon="12.8883053"><ele>989.0</ele><time>2026-04-11T09:07:39.822Z</time></trkpt><trkpt lat="43.1168381" lon="12.8882172"><ele>994.5</ele><time>2026-04-11T09:07:40.834Z</time></trkpt><trkpt lat="43.116728" lon="12.8881204"><ele>1000.0</ele><time>2026-04-11T09:07:41.826Z</time></trkpt><trkpt lat="43.1166195" lon="12.8880261"><ele>999.4</ele><time>2026-04-11T09:07:42.826Z</time></trkpt><trkpt lat="43.116524" lon="12.8879376"><ele>998.8</ele><time>2026-04-11T09:07:43.829Z</time></trkpt><trkpt lat="43.1164343" lon="12.8878499"><ele>998.2</ele><time>2026-04-11T09:07:44.827Z</time></trkpt><trkpt lat="43.1163503" lon="12.8877753"><ele>997.6</ele><time>2026-04-11T09:07:45.822Z</time></trkpt><trkpt lat="43.1162913" lon="12.8876978"><ele>997.0</ele><time>2026-04-11T09:07:47.827Z</time></trkpt><trkpt lat="43.1163479" lon="12.8876534"><ele>997.0</ele><time>2026-04-11T09:07:49.84Z</time></trkpt><trkpt lat="43.1164545" lon="12.8876774"><ele>997.0</ele><time>2026-04-11T09:07:51.826Z</time></trkpt><trkpt lat="43.1165678" lon="12.8877547"><ele>997.0</ele><time>2026-04-11T09:07:53.831Z</time></trkpt><trkpt lat="43.1166418" lon="12.8877741"><ele>997.0</ele><time>2026-04-11T09:07:54.841Z</time></trkpt><trkpt lat="43.1167372" lon="12.8877961"><ele>997.0</ele><time>2026-04-11T09:07:55.834Z</time></trkpt><trkpt lat="43.1168295" lon="12.8878141"><ele>997.4999999999999</ele><time>2026-04-11T09:07:56.831Z</time></trkpt><trkpt lat="43.1169015" lon="12.8878421"><ele>998.0</ele><time>2026-04-11T09:07:57.827Z</time></trkpt><trkpt lat="43.1169746" lon="12.88783"><ele>998.5</ele><time>2026-04-11T09:07:59.831Z</time></trkpt><trkpt lat="43.116974" lon="12.8877039"><ele>999.0</ele><time>2026-04-11T09:08:02.818Z</time></trkpt><trkpt lat="43.1168612" lon="12.8876185"><ele>999.4999999999999</ele><time>2026-04-11T09:08:04.815Z</time></trkpt><trkpt lat="43.1167996" lon="12.8875627"><ele>1000.0</ele><time>2026-04-11T09:08:05.83Z</time></trkpt><trkpt lat="43.1167406" lon="12.8874872"><ele>1005.0</ele><time>2026-04-11T09:08:06.822Z</time></trkpt><trkpt lat="43.1166786" lon="12.8874079"><ele>1010.0</ele><time>2026-04-11T09:08:07.826Z</time></trkpt><trkpt lat="43.1166159" lon="12.8873243"><ele>1015.0</ele><time>2026-04-11T09:08:08.82Z</time></trkpt><trkpt lat="43.1165482" lon="12.8872294"><ele>1020.0</ele><time>2026-04-11T09:08:09.826Z</time></trkpt><trkpt lat="43.1164742" lon="12.8871289"><ele>1025.0</ele><time>2026-04-11T09:08:10.822Z</time></trkpt><trkpt lat="43.116397" lon="12.8870208"><ele>1025.0</ele><time>2026-04-11T09:08:11.826Z</time></trkpt><trkpt lat="43.1163179" lon="12.8869066"><ele>1025.0</ele><time>2026-04-11T09:08:12.824Z</time></trkpt><trkpt lat="43.116238" lon="12.8867946"><ele>1025.0</ele><time>2026-04-11T09:08:13.828Z</time></trkpt><trkpt lat="43.1161542" lon="12.8866935"><ele>1025.0</ele><time>2026-04-11T09:08:14.825Z</time></trkpt><trkpt lat="43.1160775" lon="12.8866076"><ele>1025.0</ele><time>2026-04-11T09:08:15.832Z</time></trkpt><trkpt lat="43.1160175" lon="12.8865316"><ele>1029.0</ele><time>2026-04-11T09:08:16.83Z</time></trkpt><trkpt lat="43.1159723" lon="12.8864435"><ele>1033.0</ele><time>2026-04-11T09:08:17.832Z</time></trkpt><trkpt lat="43.1159684" lon="12.8862975"><ele>1037.0</ele><time>2026-04-11T09:08:19.821Z</time></trkpt><trkpt lat="43.1160128" lon="12.8862203"><ele>1041.0</ele><time>2026-04-11T09:08:21.826Z</time></trkpt><trkpt lat="43.1161171" lon="12.8862517"><ele>1045.0</ele><time>2026-04-11T09:08:23.83Z</time></trkpt><trkpt lat="43.1161866" lon="12.8863118"><ele>1049.0</ele><time>2026-04-11T09:08:24.819Z</time></trkpt><trkpt lat="43.1162546" lon="12.8863745"><ele>1049.0</ele><time>2026-04-11T09:08:25.831Z</time></trkpt><trkpt lat="43.1163119" lon="12.886412"><ele>1049.0</ele><time>2026-04-11T09:08:26.83Z</time></trkpt><trkpt lat="43.1163879" lon="12.8864186"><ele>1049.0</ele><time>2026-04-11T09:08:28.834Z</time></trkpt><trkpt lat="43.116428" lon="12.8863498"><ele>1049.0</ele><time>2026-04-11T09:08:30.823Z</time></trkpt><trkpt lat="43.1163851" lon="12.8862489"><ele>1049.0</ele><time>2026-04-11T09:08:32.826Z</time></trkpt><trkpt lat="43.116309" lon="12.8861075"><ele>1049.0</ele><time>2026-04-11T09:08:34.827Z</time></trkpt><trkpt lat="43.1162821" lon="12.8860255"><ele>1049.0</ele><time>2026-04-11T09:08:35.831Z</time></trkpt><trkpt lat="43.1162487" lon="12.8859416"><ele>1049.0</ele><time>2026-04-11T09:08:36.831Z</time></trkpt><trkpt lat="43.1162165" lon="12.8858467"><ele>1049.0</ele><time>2026-04-11T09:08:37.825Z</time></trkpt><trkpt lat="43.1161819" lon="12.8857396"><ele>1049.0</ele><time>2026-04-11T09:08:38.818Z</time></trkpt><trkpt lat="43.1161501" lon="12.8856262"><ele>1049.0</ele><time>2026-04-11T09:08:39.828Z</time></trkpt><trkpt lat="43.1161226" lon="12.8855242"><ele>1049.0</ele><time>2026-04-11T09:08:40.832Z</time></trkpt><trkpt lat="43.1161019" lon="12.8854333"><ele>1052.8</ele><time>2026-04-11T09:08:41.824Z</time></trkpt><trkpt lat="43.1161105" lon="12.8853106"><ele>1056.6000000000001</ele><time>2026-04-11T09:08:43.829Z</time></trkpt><trkpt lat="43.1161863" lon="12.8852532"><ele>1060.4</ele><time>2026-04-11T09:08:45.837Z</time></trkpt><trkpt lat="43.1162887" lon="12.8853673"><ele>1064.2</ele><time>2026-04-11T09:08:47.828Z</time></trkpt><trkpt lat="43.1163479" lon="12.8854496"><ele>1068.0</ele><time>2026-04-11T09:08:48.835Z</time></trkpt><trkpt lat="43.1164193" lon="12.8855277"><ele>1068.0</ele><time>2026-04-11T09:08:49.831Z</time></trkpt><trkpt lat="43.1164948" lon="12.8856102"><ele>1068.0</ele><time>2026-04-11T09:08:50.827Z</time></trkpt><trkpt lat="43.1165892" lon="12.8857075"><ele>1068.0</ele><time>2026-04-11T09:08:51.829Z</time></trkpt><trkpt lat="43.1166776" lon="12.885823"><ele>1068.0</ele><time>2026-04-11T09:08:52.828Z</time></trkpt><trkpt lat="43.116778" lon="12.8859298"><ele>1065.25</ele><time>2026-04-11T09:08:53.823Z</time></trkpt><trkpt lat="43.1168829" lon="12.8860193"><ele>1062.5</ele><time>2026-04-11T09:08:54.846Z</time></trkpt><trkpt lat="43.1169923" lon="12.8860998"><ele>1059.75</ele><time>2026-04-11T09:08:55.83Z</time></trkpt><trkpt lat="43.1170966" lon="12.8861715"><ele>1057.0</ele><time>2026-04-11T09:08:56.835Z</time></trkpt><trkpt lat="43.1171992" lon="12.886227"><ele>1057.0</ele><time>2026-04-11T09:08:57.832Z</time></trkpt><trkpt lat="43.117301" lon="12.8862812"><ele>1057.0</ele><time>2026-04-11T09:08:58.827Z</time></trkpt><trkpt lat="43.1174068" lon="12.8863239"><ele>1057.0</ele><time>2026-04-11T09:08:59.833Z</time></trkpt><trkpt lat="43.1175113" lon="12.8863498"><ele>1057.0</ele><time>2026-04-11T09:09:00.827Z</time></trkpt><trkpt lat="43.1176173" lon="12.8863664"><ele>1057.0</ele><time>2026-04-11T09:09:01.836Z</time></trkpt><trkpt lat="43.117727" lon="12.8863744"><ele>1062.25</ele><time>2026-04-11T09:09:02.823Z</time></trkpt><trkpt lat="43.1178444" lon="12.8863661"><ele>1067.5</ele><time>2026-04-11T09:09:03.836Z</time></trkpt><trkpt lat="43.1179595" lon="12.8863653"><ele>1072.75</ele><time>2026-04-11T09:09:04.824Z</time></trkpt><trkpt lat="43.1180668" lon="12.8863231"><ele>1078.0</ele><time>2026-04-11T09:09:05.824Z</time></trkpt><trkpt lat="43.1181651" lon="12.8862714"><ele>1078.0</ele><time>2026-04-11T09:09:06.839Z</time></trkpt><trkpt lat="43.1182608" lon="12.8862067"><ele>1078.0</ele><time>2026-04-11T09:09:07.834Z</time></trkpt><trkpt lat="43.1183556" lon="12.8861348"><ele>1078.0</ele><time>2026-04-11T09:09:08.836Z</time></trkpt><trkpt lat="43.1184546" lon="12.8860519"><ele>1078.0</ele><time>2026-04-11T09:09:09.826Z</time></trkpt><trkpt lat="43.1185551" lon="12.885956"><ele>1083.75</ele><time>2026-04-11T09:09:10.828Z</time></trkpt><trkpt lat="43.1186481" lon="12.8858401"><ele>1089.5</ele><time>2026-04-11T09:09:11.833Z</time></trkpt><trkpt lat="43.1187383" lon="12.8857219"><ele>1095.25</ele><time>2026-04-11T09:09:12.83Z</time></trkpt><trkpt lat="43.1188131" lon="12.8856177"><ele>1101.0</ele><time>2026-04-11T09:09:13.836Z</time></trkpt><trkpt lat="43.1188819" lon="12.885523"><ele>1101.0</ele><time>2026-04-11T09:09:14.833Z</time></trkpt><trkpt lat="43.1189345" lon="12.8854471"><ele>1101.0</ele><time>2026-04-11T09:09:15.837Z</time></trkpt><trkpt lat="43.1189874" lon="12.8853807"><ele>1101.0</ele><time>2026-04-11T09:09:16.846Z</time></trkpt><trkpt lat="43.1190385" lon="12.8852976"><ele>1101.0</ele><time>2026-04-11T09:09:17.839Z</time></trkpt><trkpt lat="43.1190896" lon="12.8852019"><ele>1101.0</ele><time>2026-04-11T09:09:18.839Z</time></trkpt><trkpt lat="43.1191395" lon="12.8851113"><ele>1101.0</ele><time>2026-04-11T09:09:19.84Z</time></trkpt><trkpt lat="43.119192" lon="12.8850283"><ele>1101.1666666666667</ele><time>2026-04-11T09:09:20.833Z</time></trkpt><trkpt lat="43.119238" lon="12.8849477"><ele>1101.3333333333333</ele><time>2026-04-11T09:09:21.823Z</time></trkpt><trkpt lat="43.1192886" lon="12.8848191"><ele>1101.5</ele><time>2026-04-11T09:09:23.83Z</time></trkpt><trkpt lat="43.1192746" lon="12.8847243"><ele>1101.6666666666665</ele><time>2026-04-11T09:09:25.833Z</time></trkpt><trkpt lat="43.1192119" lon="12.8846073"><ele>1101.8333333333333</ele><time>2026-04-11T09:09:28.828Z</time></trkpt><trkpt lat="43.1191633" lon="12.8845497"><ele>1102.0</ele><time>2026-04-11T09:09:29.834Z</time></trkpt><trkpt lat="43.1190983" lon="12.8844809"><ele>1104.1666666666665</ele><time>2026-04-11T09:09:30.838Z</time></trkpt><trkpt lat="43.1190344" lon="12.8844119"><ele>1106.3333333333333</ele><time>2026-04-11T09:09:31.831Z</time></trkpt><trkpt lat="43.1189663" lon="12.8843381"><ele>1108.5</ele><time>2026-04-11T09:09:32.835Z</time></trkpt><trkpt lat="43.1188997" lon="12.884262"><ele>1110.6666666666667</ele><time>2026-04-11T09:09:33.828Z</time></trkpt><trkpt lat="43.1188343" lon="12.884186"><ele>1112.8333333333335</ele><time>2026-04-11T09:09:34.832Z</time></trkpt><trkpt lat="43.118763" lon="12.8841165"><ele>1115.0</ele><time>2026-04-11T09:09:35.825Z</time></trkpt><trkpt lat="43.1186912" lon="12.8840586"><ele>1117.3333333333335</ele><time>2026-04-11T09:09:36.831Z</time></trkpt><trkpt lat="43.118623" lon="12.8840084"><ele>1119.6666666666667</ele><time>2026-04-11T09:09:37.837Z</time></trkpt><trkpt lat="43.1185156" lon="12.883927"><ele>1122.0</ele><time>2026-04-11T09:09:39.849Z</time></trkpt><trkpt lat="43.1184574" lon="12.8838884"><ele>1124.3333333333333</ele><time>2026-04-11T09:09:40.829Z</time></trkpt><trkpt lat="43.1183934" lon="12.8838524"><ele>1126.6666666666665</ele><time>2026-04-11T09:09:41.832Z</time></trkpt><trkpt lat="43.1183227" lon="12.8838134"><ele>1129.0</ele><time>2026-04-11T09:09:42.828Z</time></trkpt><trkpt lat="43.1182579" lon="12.8837784"><ele>1129.3333333333333</ele><time>2026-04-11T09:09:43.828Z</time></trkpt><trkpt lat="43.1181865" lon="12.8837388"><ele>1129.6666666666665</ele><time>2026-04-11T09:09:44.83Z</time></trkpt><trkpt lat="43.1181135" lon="12.8836989"><ele>1130.0</ele><time>2026-04-11T09:09:45.833Z</time></trkpt><trkpt lat="43.1180464" lon="12.8836491"><ele>1130.3333333333333</ele><time>2026-04-11T09:09:46.832Z</time></trkpt><trkpt lat="43.1179801" lon="12.8835943"><ele>1130.6666666666667</ele><time>2026-04-11T09:09:47.837Z</time></trkpt><trkpt lat="43.117913" lon="12.883538"><ele>1131.0</ele><time>2026-04-11T09:09:48.843Z</time></trkpt><trkpt lat="43.1178333" lon="12.8834756"><ele>1131.6</ele><time>2026-04-11T09:09:49.835Z</time></trkpt><trkpt lat="43.1177459" lon="12.8833987"><ele>1132.1999999999998</ele><time>2026-04-11T09:09:50.834Z</time></trkpt><trkpt lat="43.1176572" lon="12.8833193"><ele>1132.8000000000002</ele><time>2026-04-11T09:09:51.835Z</time></trkpt><trkpt lat="43.1175646" lon="12.8832465"><ele>1133.4</ele><time>2026-04-11T09:09:52.829Z</time></trkpt><trkpt lat="43.1174895" lon="12.8831893"><ele>1134.0</ele><time>2026-04-11T09:09:53.829Z</time></trkpt><trkpt lat="43.1173979" lon="12.8831311"><ele>1134.0</ele><time>2026-04-11T09:09:55.83Z</time></trkpt><trkpt lat="43.1173236" lon="12.8831116"><ele>1134.0</ele><time>2026-04-11T09:09:58.829Z</time></trkpt><trkpt lat="43.117184" lon="12.8830774"><ele>1134.0</ele><time>2026-04-11T09:10:00.833Z</time></trkpt><trkpt lat="43.1170641" lon="12.8830329"><ele>1134.0</ele><time>2026-04-11T09:10:01.83Z</time></trkpt><trkpt lat="43.1169381" lon="12.8829661"><ele>1134.0</ele><time>2026-04-11T09:10:02.834Z</time></trkpt><trkpt lat="43.1168095" lon="12.8828907"><ele>1134.0</ele><time>2026-04-11T09:10:03.833Z</time></trkpt><trkpt lat="43.1167022" lon="12.8828064"><ele>1134.0</ele><time>2026-04-11T09:10:04.844Z</time></trkpt><trkpt lat="43.1166109" lon="12.8827292"><ele>1134.0</ele><time>2026-04-11T09:10:05.834Z</time></trkpt><trkpt lat="43.1165208" lon="12.8826608"><ele>1138.6000000000001</ele><time>2026-04-11T09:10:06.832Z</time></trkpt><trkpt lat="43.1164317" lon="12.8825782"><ele>1143.2</ele><time>2026-04-11T09:10:07.829Z</time></trkpt><trkpt lat="43.1163519" lon="12.8825015"><ele>1147.8000000000002</ele><time>2026-04-11T09:10:08.819Z</time></trkpt><trkpt lat="43.1162779" lon="12.8824291"><ele>1152.4</ele><time>2026-04-11T09:10:09.829Z</time></trkpt><trkpt lat="43.1161949" lon="12.8823368"><ele>1157.0</ele><time>2026-04-11T09:10:10.83Z</time></trkpt><trkpt lat="43.1160858" lon="12.8822242"><ele>1157.0</ele><time>2026-04-11T09:10:11.839Z</time></trkpt><trkpt lat="43.1159775" lon="12.8821242"><ele>1157.0</ele><time>2026-04-11T09:10:12.831Z</time></trkpt><trkpt lat="43.1158592" lon="12.8820469"><ele>1157.0</ele><time>2026-04-11T09:10:13.831Z</time></trkpt><trkpt lat="43.1157415" lon="12.8820007"><ele>1157.0</ele><time>2026-04-11T09:10:14.838Z</time></trkpt><trkpt lat="43.1156565" lon="12.8819827"><ele>1158.0</ele><time>2026-04-11T09:10:15.838Z</time></trkpt><trkpt lat="43.1155995" lon="12.8819241"><ele>1159.0</ele><time>2026-04-11T09:10:18.836Z</time></trkpt><trkpt lat="43.1155185" lon="12.8818896"><ele>1160.0</ele><time>2026-04-11T09:10:20.841Z</time></trkpt><trkpt lat="43.1154126" lon="12.8819234"><ele>1161.0</ele><time>2026-04-11T09:10:22.849Z</time></trkpt><trkpt lat="43.1153398" lon="12.8819462"><ele>1162.0</ele><time>2026-04-11T09:10:23.832Z</time></trkpt><trkpt lat="43.1152516" lon="12.8819726"><ele>1163.0</ele><time>2026-04-11T09:10:24.831Z</time></trkpt><trkpt lat="43.1151608" lon="12.8819969"><ele>1163.0</ele><time>2026-04-11T09:10:25.829Z</time></trkpt><trkpt lat="43.1150747" lon="12.8820154"><ele>1163.0</ele><time>2026-04-11T09:10:26.828Z</time></trkpt><trkpt lat="43.1150017" lon="12.8820286"><ele>1163.0</ele><time>2026-04-11T09:10:27.824Z</time></trkpt><trkpt lat="43.1149177" lon="12.8820436"><ele>1163.0</ele><time>2026-04-11T09:10:29.834Z</time></trkpt><trkpt lat="43.1148401" lon="12.8820407"><ele>1163.0</ele><time>2026-04-11T09:13:02.835Z</time></trkpt><trkpt lat="43.1148014" lon="12.8819579"><ele>1163.0</ele><time>2026-04-11T09:13:23.834Z</time></trkpt><trkpt lat="43.1147658" lon="12.8818532"><ele>1164.3333333333335</ele><time>2026-04-11T09:13:25.828Z</time></trkpt><trkpt lat="43.1147039" lon="12.8817175"><ele>1165.6666666666667</ele><time>2026-04-11T09:13:27.847Z</time></trkpt><trkpt lat="43.1146623" lon="12.8816286"><ele>1167.0</ele><time>2026-04-11T09:13:28.833Z</time></trkpt><trkpt lat="43.1146284" lon="12.8815236"><ele>1168.3333333333333</ele><time>2026-04-11T09:13:29.851Z</time></trkpt><trkpt lat="43.1146075" lon="12.8814098"><ele>1169.6666666666665</ele><time>2026-04-11T09:13:30.836Z</time></trkpt><trkpt lat="43.1145959" lon="12.8813054"><ele>1171.0</ele><time>2026-04-11T09:13:31.831Z</time></trkpt><trkpt lat="43.1145782" lon="12.8811952"><ele>1171.0</ele><time>2026-04-11T09:13:32.83Z</time></trkpt><trkpt lat="43.1145584" lon="12.8810997"><ele>1171.0</ele><time>2026-04-11T09:13:33.831Z</time></trkpt><trkpt lat="43.1145403" lon="12.8810015"><ele>1171.0</ele><time>2026-04-11T09:13:34.827Z</time></trkpt><trkpt lat="43.1145234" lon="12.8809076"><ele>1171.0</ele><time>2026-04-11T09:13:35.831Z</time></trkpt><trkpt lat="43.1145053" lon="12.8808224"><ele>1171.0</ele><time>2026-04-11T09:13:36.833Z</time></trkpt><trkpt lat="43.1144667" lon="12.8806631"><ele>1171.0</ele><time>2026-04-11T09:13:38.829Z</time></trkpt><trkpt lat="43.1144322" lon="12.8805044"><ele>1168.2</ele><time>2026-04-11T09:13:40.831Z</time></trkpt><trkpt lat="43.1144279" lon="12.8803219"><ele>1165.3999999999999</ele><time>2026-04-11T09:13:42.828Z</time></trkpt><trkpt lat="43.1144348" lon="12.8802176"><ele>1162.6</ele><time>2026-04-11T09:13:43.837Z</time></trkpt><trkpt lat="43.1144381" lon="12.8801057"><ele>1159.8</ele><time>2026-04-11T09:13:44.856Z</time></trkpt><trkpt lat="43.1144364" lon="12.8799964"><ele>1157.0</ele><time>2026-04-11T09:13:45.832Z</time></trkpt><trkpt lat="43.1144321" lon="12.8798864"><ele>1155.5714285714284</ele><time>2026-04-11T09:13:46.829Z</time></trkpt><trkpt lat="43.1144276" lon="12.8797824"><ele>1154.142857142857</ele><time>2026-04-11T09:13:47.832Z</time></trkpt><trkpt lat="43.1144288" lon="12.8796759"><ele>1152.7142857142858</ele><time>2026-04-11T09:13:48.832Z</time></trkpt><trkpt lat="43.1144305" lon="12.879577"><ele>1151.2857142857142</ele><time>2026-04-11T09:13:49.84Z</time></trkpt><trkpt lat="43.1144335" lon="12.8794773"><ele>1149.857142857143</ele><time>2026-04-11T09:13:50.831Z</time></trkpt><trkpt lat="43.1144218" lon="12.8793836"><ele>1148.4285714285713</ele><time>2026-04-11T09:13:51.831Z</time></trkpt><trkpt lat="43.1144139" lon="12.8792967"><ele>1147.0</ele><time>2026-04-11T09:13:52.827Z</time></trkpt><trkpt lat="43.1144107" lon="12.8792023"><ele>1143.0</ele><time>2026-04-11T09:13:53.825Z</time></trkpt><trkpt lat="43.1144163" lon="12.879049"><ele>1139.0</ele><time>2026-04-11T09:13:55.833Z</time></trkpt><trkpt lat="43.1144126" lon="12.8789122"><ele>1135.0</ele><time>2026-04-11T09:13:57.826Z</time></trkpt><trkpt lat="43.1144026" lon="12.8787878"><ele>1131.0</ele><time>2026-04-11T09:13:59.825Z</time></trkpt><trkpt lat="43.1143925" lon="12.8786612"><ele>1127.0</ele><time>2026-04-11T09:14:01.825Z</time></trkpt><trkpt lat="43.1144098" lon="12.8785374"><ele>1127.0</ele><time>2026-04-11T09:14:03.834Z</time></trkpt><trkpt lat="43.1143996" lon="12.8784514"><ele>1127.0</ele><time>2026-04-11T09:14:05.831Z</time></trkpt><trkpt lat="43.1143194" lon="12.8784394"><ele>1127.0</ele><time>2026-04-11T09:14:08.84Z</time></trkpt><trkpt lat="43.1142492" lon="12.8784962"><ele>1127.0</ele><time>2026-04-11T09:14:10.829Z</time></trkpt><trkpt lat="43.1142038" lon="12.8785801"><ele>1127.0</ele><time>2026-04-11T09:14:12.833Z</time></trkpt><trkpt lat="43.1141523" lon="12.8786328"><ele>1127.0</ele><time>2026-04-11T09:14:14.825Z</time></trkpt><trkpt lat="43.1140981" lon="12.8787026"><ele>1127.0</ele><time>2026-04-11T09:14:16.829Z</time></trkpt><trkpt lat="43.1140555" lon="12.8787795"><ele>1128.5714285714287</ele><time>2026-04-11T09:14:18.836Z</time></trkpt><trkpt lat="43.114014" lon="12.8788556"><ele>1130.142857142857</ele><time>2026-04-11T09:14:20.829Z</time></trkpt><trkpt lat="43.1139914" lon="12.8789382"><ele>1131.7142857142858</ele><time>2026-04-11T09:14:22.825Z</time></trkpt><trkpt lat="43.113964" lon="12.8790241"><ele>1133.2857142857142</ele><time>2026-04-11T09:14:25.828Z</time></trkpt><trkpt lat="43.1138879" lon="12.8790815"><ele>1134.857142857143</ele><time>2026-04-11T09:14:29.825Z</time></trkpt><trkpt lat="43.1138228" lon="12.8790546"><ele>1136.4285714285716</ele><time>2026-04-11T09:14:32.849Z</time></trkpt><trkpt lat="43.113781" lon="12.8789468"><ele>1138.0</ele><time>2026-04-11T09:14:35.833Z</time></trkpt><trkpt lat="43.1137527" lon="12.8788031"><ele>1138.0</ele><time>2026-04-11T09:14:37.83Z</time></trkpt><trkpt lat="43.1137379" lon="12.8786423"><ele>1138.0</ele><time>2026-04-11T09:14:39.832Z</time></trkpt><trkpt lat="43.1137254" lon="12.8785415"><ele>1138.0</ele><time>2026-04-11T09:14:40.826Z</time></trkpt><trkpt lat="43.1137091" lon="12.8784335"><ele>1138.0</ele><time>2026-04-11T09:14:41.828Z</time></trkpt><trkpt lat="43.1136898" lon="12.8783262"><ele>1138.0</ele><time>2026-04-11T09:14:42.832Z</time></trkpt><trkpt lat="43.1136618" lon="12.8782201"><ele>1138.0</ele><time>2026-04-11T09:14:43.829Z</time></trkpt><trkpt lat="43.1136214" lon="12.8781149"><ele>1134.0</ele><time>2026-04-11T09:14:44.832Z</time></trkpt><trkpt lat="43.113567" lon="12.8780164"><ele>1130.0</ele><time>2026-04-11T09:14:45.829Z</time></trkpt><trkpt lat="43.1135035" lon="12.8779261"><ele>1126.0</ele><time>2026-04-11T09:14:46.839Z</time></trkpt><trkpt lat="43.1134315" lon="12.8778429"><ele>1122.0</ele><time>2026-04-11T09:14:47.837Z</time></trkpt><trkpt lat="43.1133675" lon="12.8777564"><ele>1118.0</ele><time>2026-04-11T09:14:48.831Z</time></trkpt><trkpt lat="43.1133124" lon="12.8776713"><ele>1114.0</ele><time>2026-04-11T09:14:49.83Z</time></trkpt><trkpt lat="43.113253" lon="12.8775871"><ele>1114.1666666666665</ele><time>2026-04-11T09:14:50.824Z</time></trkpt><trkpt lat="43.1132048" lon="12.8774966"><ele>1114.3333333333333</ele><time>2026-04-11T09:14:51.83Z</time></trkpt><trkpt lat="43.113171" lon="12.8774018"><ele>1114.5</ele><time>2026-04-11T09:14:52.83Z</time></trkpt><trkpt lat="43.113144" lon="12.8773022"><ele>1114.6666666666667</ele><time>2026-04-11T09:14:53.832Z</time></trkpt><trkpt lat="43.1131095" lon="12.8771879"><ele>1114.8333333333335</ele><time>2026-04-11T09:14:54.831Z</time></trkpt><trkpt lat="43.1130801" lon="12.8770771"><ele>1115.0</ele><time>2026-04-11T09:14:55.835Z</time></trkpt><trkpt lat="43.1130448" lon="12.8769736"><ele>1115.0</ele><time>2026-04-11T09:14:56.83Z</time></trkpt><trkpt lat="43.1130008" lon="12.876881"><ele>1115.0</ele><time>2026-04-11T09:14:57.826Z</time></trkpt><trkpt lat="43.1129484" lon="12.8767891"><ele>1115.0</ele><time>2026-04-11T09:14:58.831Z</time></trkpt><trkpt lat="43.1129004" lon="12.8766983"><ele>1115.0</ele><time>2026-04-11T09:14:59.822Z</time></trkpt><trkpt lat="43.1128609" lon="12.8765925"><ele>1115.0</ele><time>2026-04-11T09:15:00.837Z</time></trkpt><trkpt lat="43.1128307" lon="12.8764773"><ele>1115.0</ele><time>2026-04-11T09:15:01.833Z</time></trkpt><trkpt lat="43.1128035" lon="12.8763603"><ele>1112.0</ele><time>2026-04-11T09:15:02.842Z</time></trkpt><trkpt lat="43.1127672" lon="12.8762587"><ele>1109.0</ele><time>2026-04-11T09:15:03.833Z</time></trkpt><trkpt lat="43.1127246" lon="12.8761499"><ele>1106.0</ele><time>2026-04-11T09:15:04.828Z</time></trkpt><trkpt lat="43.112686" lon="12.8760462"><ele>1103.0</ele><time>2026-04-11T09:15:05.836Z</time></trkpt><trkpt lat="43.1126475" lon="12.8759461"><ele>1100.0</ele><time>2026-04-11T09:15:06.826Z</time></trkpt><trkpt lat="43.1126052" lon="12.8758491"><ele>1097.0</ele><time>2026-04-11T09:15:07.843Z</time></trkpt><trkpt lat="43.1125638" lon="12.8757636"><ele>1099.0</ele><time>2026-04-11T09:15:08.831Z</time></trkpt><trkpt lat="43.112518" lon="12.8756715"><ele>1101.0</ele><time>2026-04-11T09:15:09.839Z</time></trkpt><trkpt lat="43.112473" lon="12.8755803"><ele>1103.0</ele><time>2026-04-11T09:15:10.83Z</time></trkpt><trkpt lat="43.1124294" lon="12.8754851"><ele>1105.0</ele><time>2026-04-11T09:15:11.838Z</time></trkpt><trkpt lat="43.1123897" lon="12.875366"><ele>1107.0</ele><time>2026-04-11T09:15:12.834Z</time></trkpt><trkpt lat="43.1123582" lon="12.8752613"><ele>1109.0</ele><time>2026-04-11T09:15:13.829Z</time></trkpt><trkpt lat="43.1123245" lon="12.8751528"><ele>1103.0</ele><time>2026-04-11T09:15:14.841Z</time></trkpt><trkpt lat="43.1122895" lon="12.8750484"><ele>1097.0</ele><time>2026-04-11T09:15:15.839Z</time></trkpt><trkpt lat="43.1122543" lon="12.8749381"><ele>1091.0</ele><time>2026-04-11T09:15:16.825Z</time></trkpt><trkpt lat="43.1122193" lon="12.8748237"><ele>1085.0</ele><time>2026-04-11T09:15:17.829Z</time></trkpt><trkpt lat="43.1121785" lon="12.8747007"><ele>1079.0</ele><time>2026-04-11T09:15:18.828Z</time></trkpt><trkpt lat="43.1121331" lon="12.8745786"><ele>1079.0</ele><time>2026-04-11T09:15:19.847Z</time></trkpt><trkpt lat="43.1120856" lon="12.8744659"><ele>1079.0</ele><time>2026-04-11T09:15:20.831Z</time></trkpt><trkpt lat="43.1120428" lon="12.8743466"><ele>1079.0</ele><time>2026-04-11T09:15:21.835Z</time></trkpt><trkpt lat="43.1119963" lon="12.8742106"><ele>1079.0</ele><time>2026-04-11T09:15:22.829Z</time></trkpt><trkpt lat="43.111959" lon="12.8740652"><ele>1079.0</ele><time>2026-04-11T09:15:23.833Z</time></trkpt><trkpt lat="43.1119201" lon="12.8739189"><ele>1073.2</ele><time>2026-04-11T09:15:24.826Z</time></trkpt><trkpt lat="43.1118878" lon="12.8737741"><ele>1067.4</ele><time>2026-04-11T09:15:25.829Z</time></trkpt><trkpt lat="43.1118503" lon="12.8736341"><ele>1061.6</ele><time>2026-04-11T09:15:26.828Z</time></trkpt><trkpt lat="43.111815" lon="12.8734938"><ele>1055.8</ele><time>2026-04-11T09:15:27.829Z</time></trkpt><trkpt lat="43.1117767" lon="12.8733485"><ele>1050.0</ele><time>2026-04-11T09:15:28.823Z</time></trkpt><trkpt lat="43.1117419" lon="12.8732088"><ele>1049.0</ele><time>2026-04-11T09:15:29.828Z</time></trkpt><trkpt lat="43.1117031" lon="12.873074"><ele>1048.0</ele><time>2026-04-11T09:15:30.836Z</time></trkpt><trkpt lat="43.1116548" lon="12.8729412"><ele>1047.0</ele><time>2026-04-11T09:15:31.837Z</time></trkpt><trkpt lat="43.1115979" lon="12.8728059"><ele>1046.0</ele><time>2026-04-11T09:15:32.818Z</time></trkpt><trkpt lat="43.1115335" lon="12.8726829"><ele>1045.0</ele><time>2026-04-11T09:15:33.832Z</time></trkpt><trkpt lat="43.1114725" lon="12.8725799"><ele>1044.3333333333333</ele><time>2026-04-11T09:15:34.828Z</time></trkpt><trkpt lat="43.1114061" lon="12.8724852"><ele>1043.6666666666665</ele><time>2026-04-11T09:15:35.827Z</time></trkpt><trkpt lat="43.1113386" lon="12.872406"><ele>1043.0</ele><time>2026-04-11T09:15:36.829Z</time></trkpt><trkpt lat="43.1112711" lon="12.8723452"><ele>1042.3333333333333</ele><time>2026-04-11T09:15:37.827Z</time></trkpt><trkpt lat="43.1112072" lon="12.8722844"><ele>1041.6666666666667</ele><time>2026-04-11T09:15:38.836Z</time></trkpt><trkpt lat="43.1111478" lon="12.8722227"><ele>1041.0</ele><time>2026-04-11T09:15:39.836Z</time></trkpt><trkpt lat="43.1111108" lon="12.8721472"><ele>1041.0</ele><time>2026-04-11T09:15:40.833Z</time></trkpt><trkpt lat="43.1111254" lon="12.8719688"><ele>1041.0</ele><time>2026-04-11T09:15:42.831Z</time></trkpt><trkpt lat="43.1111509" lon="12.8718637"><ele>1041.0</ele><time>2026-04-11T09:15:43.825Z</time></trkpt><trkpt lat="43.1111772" lon="12.8717606"><ele>1041.0</ele><time>2026-04-11T09:15:44.828Z</time></trkpt><trkpt lat="43.1112004" lon="12.8716603"><ele>1041.0</ele><time>2026-04-11T09:15:45.831Z</time></trkpt><trkpt lat="43.1112232" lon="12.8715523"><ele>1042.3999999999999</ele><time>2026-04-11T09:15:46.826Z</time></trkpt><trkpt lat="43.1112345" lon="12.8714365"><ele>1043.8</ele><time>2026-04-11T09:15:47.823Z</time></trkpt><trkpt lat="43.1112541" lon="12.8713089"><ele>1045.1999999999998</ele><time>2026-04-11T09:15:48.833Z</time></trkpt><trkpt lat="43.1112739" lon="12.8711748"><ele>1046.6</ele><time>2026-04-11T09:15:49.831Z</time></trkpt><trkpt lat="43.1112937" lon="12.871052"><ele>1048.0</ele><time>2026-04-11T09:15:50.844Z</time></trkpt><trkpt lat="43.1112993" lon="12.8709313"><ele>1048.0</ele><time>2026-04-11T09:15:51.839Z</time></trkpt><trkpt lat="43.1112879" lon="12.8708"><ele>1048.0</ele><time>2026-04-11T09:15:52.833Z</time></trkpt><trkpt lat="43.1112611" lon="12.8706688"><ele>1048.0</ele><time>2026-04-11T09:15:53.824Z</time></trkpt><trkpt lat="43.1112361" lon="12.8705417"><ele>1048.0</ele><time>2026-04-11T09:15:54.827Z</time></trkpt><trkpt lat="43.1112009" lon="12.8704138"><ele>1048.0</ele><time>2026-04-11T09:15:55.835Z</time></trkpt><trkpt lat="43.1111591" lon="12.8702775"><ele>1048.0</ele><time>2026-04-11T09:15:56.831Z</time></trkpt><trkpt lat="43.111119" lon="12.8701347"><ele>1048.0</ele><time>2026-04-11T09:15:57.832Z</time></trkpt><trkpt lat="43.1110765" lon="12.8699956"><ele>1048.0</ele><time>2026-04-11T09:15:58.824Z</time></trkpt><trkpt lat="43.1110339" lon="12.8698609"><ele>1048.0</ele><time>2026-04-11T09:15:59.825Z</time></trkpt><trkpt lat="43.1109944" lon="12.8697258"><ele>1048.0</ele><time>2026-04-11T09:16:00.83Z</time></trkpt><trkpt lat="43.110944" lon="12.8695849"><ele>1049.6</ele><time>2026-04-11T09:16:01.832Z</time></trkpt><trkpt lat="43.1108896" lon="12.8694523"><ele>1051.1999999999998</ele><time>2026-04-11T09:16:02.823Z</time></trkpt><trkpt lat="43.1108415" lon="12.8693257"><ele>1052.8</ele><time>2026-04-11T09:16:03.839Z</time></trkpt><trkpt lat="43.1107907" lon="12.8692099"><ele>1054.3999999999999</ele><time>2026-04-11T09:16:04.829Z</time></trkpt><trkpt lat="43.1107395" lon="12.8691005"><ele>1056.0</ele><time>2026-04-11T09:16:05.823Z</time></trkpt><trkpt lat="43.1106863" lon="12.8690011"><ele>1056.0</ele><time>2026-04-11T09:16:06.828Z</time></trkpt><trkpt lat="43.1106297" lon="12.8689026"><ele>1056.0</ele><time>2026-04-11T09:16:07.832Z</time></trkpt><trkpt lat="43.1105803" lon="12.868803"><ele>1056.0</ele><time>2026-04-11T09:16:08.827Z</time></trkpt><trkpt lat="43.1105349" lon="12.8687198"><ele>1056.0</ele><time>2026-04-11T09:16:09.831Z</time></trkpt><trkpt lat="43.1104918" lon="12.8686461"><ele>1056.0</ele><time>2026-04-11T09:16:10.827Z</time></trkpt><trkpt lat="43.1104102" lon="12.868548"><ele>1056.0</ele><time>2026-04-11T09:16:12.833Z</time></trkpt><trkpt lat="43.1103234" lon="12.8684771"><ele>1051.8333333333333</ele><time>2026-04-11T09:16:14.848Z</time></trkpt><trkpt lat="43.1102307" lon="12.8683758"><ele>1047.6666666666667</ele><time>2026-04-11T09:16:16.828Z</time></trkpt><trkpt lat="43.1101924" lon="12.8683054"><ele>1043.5</ele><time>2026-04-11T09:16:17.828Z</time></trkpt><trkpt lat="43.11014" lon="12.8681991"><ele>1039.3333333333335</ele><time>2026-04-11T09:16:19.832Z</time></trkpt><trkpt lat="43.1100882" lon="12.8681347"><ele>1035.1666666666667</ele><time>2026-04-11T09:16:40.825Z</time></trkpt><trkpt lat="43.110029" lon="12.8680853"><ele>1031.0</ele><time>2026-04-11T09:16:42.827Z</time></trkpt><trkpt lat="43.1099733" lon="12.8680385"><ele>1031.0</ele><time>2026-04-11T09:16:43.825Z</time></trkpt><trkpt lat="43.1099155" lon="12.867987"><ele>1031.0</ele><time>2026-04-11T09:16:44.823Z</time></trkpt><trkpt lat="43.1098359" lon="12.8679233"><ele>1031.0</ele><time>2026-04-11T09:16:45.825Z</time></trkpt><trkpt lat="43.109731" lon="12.8678482"><ele>1031.0</ele><time>2026-04-11T09:16:46.818Z</time></trkpt><trkpt lat="43.1096192" lon="12.8677705"><ele>1031.0</ele><time>2026-04-11T09:16:47.835Z</time></trkpt><trkpt lat="43.1094954" lon="12.867693"><ele>1030.6666666666667</ele><time>2026-04-11T09:16:48.824Z</time></trkpt><trkpt lat="43.1093575" lon="12.8676188"><ele>1030.3333333333333</ele><time>2026-04-11T09:16:49.827Z</time></trkpt><trkpt lat="43.1092122" lon="12.8675595"><ele>1030.0</ele><time>2026-04-11T09:16:50.833Z</time></trkpt><trkpt lat="43.1090586" lon="12.8675228"><ele>1033.3333333333333</ele><time>2026-04-11T09:16:51.829Z</time></trkpt><trkpt lat="43.1089025" lon="12.8675074"><ele>1036.6666666666667</ele><time>2026-04-11T09:16:52.83Z</time></trkpt><trkpt lat="43.1087418" lon="12.8674883"><ele>1040.0</ele><time>2026-04-11T09:16:53.832Z</time></trkpt><trkpt lat="43.1085834" lon="12.8674643"><ele>1040.0</ele><time>2026-04-11T09:16:54.827Z</time></trkpt><trkpt lat="43.1084169" lon="12.8674405"><ele>1040.0</ele><time>2026-04-11T09:16:55.835Z</time></trkpt><trkpt lat="43.108249" lon="12.8674284"><ele>1040.0</ele><time>2026-04-11T09:16:56.831Z</time></trkpt><trkpt lat="43.1080838" lon="12.8674303"><ele>1039.75</ele><time>2026-04-11T09:16:57.832Z</time></trkpt><trkpt lat="43.1079389" lon="12.8674443"><ele>1039.5</ele><time>2026-04-11T09:16:58.839Z</time></trkpt><trkpt lat="43.1078143" lon="12.8674688"><ele>1039.25</ele><time>2026-04-11T09:16:59.836Z</time></trkpt><trkpt lat="43.1076964" lon="12.8675029"><ele>1039.0</ele><time>2026-04-11T09:17:00.836Z</time></trkpt><trkpt lat="43.107599" lon="12.8675505"><ele>1039.0</ele><time>2026-04-11T09:17:01.836Z</time></trkpt><trkpt lat="43.1075316" lon="12.8676454"><ele>1039.0</ele><time>2026-04-11T09:17:02.826Z</time></trkpt><trkpt lat="43.107483" lon="12.8677617"><ele>1039.0</ele><time>2026-04-11T09:17:03.838Z</time></trkpt><trkpt lat="43.1074427" lon="12.8678789"><ele>1039.0</ele><time>2026-04-11T09:17:04.83Z</time></trkpt><trkpt lat="43.1074027" lon="12.8679797"><ele>1039.0</ele><time>2026-04-11T09:17:05.829Z</time></trkpt><trkpt lat="43.1073586" lon="12.868107"><ele>1039.0</ele><time>2026-04-11T09:17:07.822Z</time></trkpt><trkpt lat="43.1073879" lon="12.8681928"><ele>1039.0</ele><time>2026-04-11T09:17:09.827Z</time></trkpt><trkpt lat="43.1074616" lon="12.8682073"><ele>1039.0</ele><time>2026-04-11T09:17:11.831Z</time></trkpt><trkpt lat="43.1075448" lon="12.8681199"><ele>1039.0</ele><time>2026-04-11T09:17:13.829Z</time></trkpt><trkpt lat="43.1075963" lon="12.8680476"><ele>1039.0</ele><time>2026-04-11T09:17:14.828Z</time></trkpt><trkpt lat="43.1076601" lon="12.8679906"><ele>1039.0</ele><time>2026-04-11T09:17:15.83Z</time></trkpt><trkpt lat="43.1077321" lon="12.8679651"><ele>1043.6000000000001</ele><time>2026-04-11T09:17:16.83Z</time></trkpt><trkpt lat="43.1078147" lon="12.8679587"><ele>1048.2</ele><time>2026-04-11T09:17:17.836Z</time></trkpt><trkpt lat="43.1079004" lon="12.8679933"><ele>1052.8000000000002</ele><time>2026-04-11T09:17:18.826Z</time></trkpt><trkpt lat="43.1079922" lon="12.8680494"><ele>1057.4</ele><time>2026-04-11T09:17:19.824Z</time></trkpt><trkpt lat="43.108096" lon="12.8681261"><ele>1062.0</ele><time>2026-04-11T09:17:20.827Z</time></trkpt><trkpt lat="43.1081952" lon="12.8682023"><ele>1063.75</ele><time>2026-04-11T09:17:21.828Z</time></trkpt><trkpt lat="43.1083047" lon="12.8682797"><ele>1065.5</ele><time>2026-04-11T09:17:22.832Z</time></trkpt><trkpt lat="43.1084248" lon="12.8683509"><ele>1067.25</ele><time>2026-04-11T09:17:23.829Z</time></trkpt><trkpt lat="43.1085518" lon="12.8684215"><ele>1069.0</ele><time>2026-04-11T09:17:24.823Z</time></trkpt><trkpt lat="43.1086776" lon="12.8685034"><ele>1072.25</ele><time>2026-04-11T09:17:25.838Z</time></trkpt><trkpt lat="43.1087986" lon="12.8685971"><ele>1075.5</ele><time>2026-04-11T09:17:26.829Z</time></trkpt><trkpt lat="43.1089194" lon="12.868699"><ele>1078.75</ele><time>2026-04-11T09:17:27.829Z</time></trkpt><trkpt lat="43.1090379" lon="12.868811"><ele>1082.0</ele><time>2026-04-11T09:17:28.825Z</time></trkpt><trkpt lat="43.1091483" lon="12.8689343"><ele>1082.0</ele><time>2026-04-11T09:17:29.83Z</time></trkpt><trkpt lat="43.1092528" lon="12.8690649"><ele>1082.0</ele><time>2026-04-11T09:17:30.828Z</time></trkpt><trkpt lat="43.1093517" lon="12.8692092"><ele>1082.0</ele><time>2026-04-11T09:17:31.827Z</time></trkpt><trkpt lat="43.1094532" lon="12.8693674"><ele>1082.0</ele><time>2026-04-11T09:17:32.835Z</time></trkpt><trkpt lat="43.1095498" lon="12.8695253"><ele>1093.6666666666667</ele><time>2026-04-11T09:17:33.846Z</time></trkpt><trkpt lat="43.109637" lon="12.8696877"><ele>1105.3333333333333</ele><time>2026-04-11T09:17:34.826Z</time></trkpt><trkpt lat="43.1097219" lon="12.8698709"><ele>1117.0</ele><time>2026-04-11T09:17:35.835Z</time></trkpt><trkpt lat="43.1097958" lon="12.870065"><ele>1113.25</ele><time>2026-04-11T09:17:36.833Z</time></trkpt><trkpt lat="43.1098643" lon="12.8702412"><ele>1109.5</ele><time>2026-04-11T09:17:37.836Z</time></trkpt><trkpt lat="43.1099204" lon="12.8704089"><ele>1105.75</ele><time>2026-04-11T09:17:38.83Z</time></trkpt><trkpt lat="43.1099795" lon="12.8705761"><ele>1102.0</ele><time>2026-04-11T09:17:39.849Z</time></trkpt><trkpt lat="43.1100288" lon="12.8707379"><ele>1102.0</ele><time>2026-04-11T09:17:40.837Z</time></trkpt><trkpt lat="43.1100671" lon="12.8708877"><ele>1102.0</ele><time>2026-04-11T09:17:41.842Z</time></trkpt><trkpt lat="43.1101056" lon="12.8710132"><ele>1102.0</ele><time>2026-04-11T09:17:42.834Z</time></trkpt><trkpt lat="43.1101416" lon="12.8711375"><ele>1102.0</ele><time>2026-04-11T09:17:43.833Z</time></trkpt><trkpt lat="43.1101716" lon="12.8712601"><ele>1102.0</ele><time>2026-04-11T09:17:44.824Z</time></trkpt><trkpt lat="43.1101859" lon="12.87138"><ele>1102.0</ele><time>2026-04-11T09:17:45.826Z</time></trkpt><trkpt lat="43.1101818" lon="12.8714924"><ele>1102.0</ele><time>2026-04-11T09:17:46.825Z</time></trkpt><trkpt lat="43.1101413" lon="12.871612"><ele>1102.0</ele><time>2026-04-11T09:17:47.83Z</time></trkpt><trkpt lat="43.1100906" lon="12.8717306"><ele>1102.0</ele><time>2026-04-11T09:17:48.822Z</time></trkpt><trkpt lat="43.1100392" lon="12.8718614"><ele>1102.0</ele><time>2026-04-11T09:17:49.83Z</time></trkpt><trkpt lat="43.1099795" lon="12.8720105"><ele>1102.0</ele><time>2026-04-11T09:17:50.828Z</time></trkpt><trkpt lat="43.1099228" lon="12.8721708"><ele>1102.0</ele><time>2026-04-11T09:17:51.834Z</time></trkpt><trkpt lat="43.1098622" lon="12.8723546"><ele>1102.0</ele><time>2026-04-11T09:17:52.835Z</time></trkpt><trkpt lat="43.1098078" lon="12.8725438"><ele>1102.0</ele><time>2026-04-11T09:17:53.84Z</time></trkpt><trkpt lat="43.109757" lon="12.8727192"><ele>1112.8</ele><time>2026-04-11T09:17:54.832Z</time></trkpt><trkpt lat="43.1097174" lon="12.8728706"><ele>1123.6</ele><time>2026-04-11T09:17:55.838Z</time></trkpt><trkpt lat="43.1096793" lon="12.8730039"><ele>1134.3999999999999</ele><time>2026-04-11T09:17:56.827Z</time></trkpt><trkpt lat="43.1096537" lon="12.8731224"><ele>1145.2</ele><time>2026-04-11T09:17:57.828Z</time></trkpt><trkpt lat="43.1096365" lon="12.8732353"><ele>1156.0</ele><time>2026-04-11T09:17:58.827Z</time></trkpt><trkpt lat="43.10963" lon="12.8733392"><ele>1156.0</ele><time>2026-04-11T09:17:59.831Z</time></trkpt><trkpt lat="43.1096351" lon="12.8734373"><ele>1156.0</ele><time>2026-04-11T09:18:00.835Z</time></trkpt><trkpt lat="43.1096593" lon="12.8735491"><ele>1156.0</ele><time>2026-04-11T09:18:01.83Z</time></trkpt><trkpt lat="43.1097061" lon="12.8736798"><ele>1156.0</ele><time>2026-04-11T09:18:02.837Z</time></trkpt><trkpt lat="43.1097678" lon="12.8738189"><ele>1156.0</ele><time>2026-04-11T09:18:03.828Z</time></trkpt><trkpt lat="43.1098428" lon="12.8739564"><ele>1149.5</ele><time>2026-04-11T09:18:04.824Z</time></trkpt><trkpt lat="43.109933" lon="12.8740849"><ele>1143.0</ele><time>2026-04-11T09:18:05.827Z</time></trkpt><trkpt lat="43.1100224" lon="12.8742147"><ele>1136.5</ele><time>2026-04-11T09:18:06.82Z</time></trkpt><trkpt lat="43.1101152" lon="12.8743254"><ele>1130.0</ele><time>2026-04-11T09:18:07.826Z</time></trkpt><trkpt lat="43.1102116" lon="12.8744104"><ele>1140.4</ele><time>2026-04-11T09:18:08.818Z</time></trkpt><trkpt lat="43.1103164" lon="12.8744762"><ele>1150.8</ele><time>2026-04-11T09:18:09.829Z</time></trkpt><trkpt lat="43.110418" lon="12.8745218"><ele>1161.2</ele><time>2026-04-11T09:18:10.826Z</time></trkpt><trkpt lat="43.110514" lon="12.8745651"><ele>1171.6</ele><time>2026-04-11T09:18:11.825Z</time></trkpt><trkpt lat="43.1105931" lon="12.8746163"><ele>1182.0</ele><time>2026-04-11T09:18:12.825Z</time></trkpt><trkpt lat="43.1106622" lon="12.8746829"><ele>1182.0</ele><time>2026-04-11T09:18:13.833Z</time></trkpt><trkpt lat="43.1107094" lon="12.8747658"><ele>1182.0</ele><time>2026-04-11T09:18:14.831Z</time></trkpt><trkpt lat="43.1107435" lon="12.8748535"><ele>1182.0</ele><time>2026-04-11T09:18:15.833Z</time></trkpt><trkpt lat="43.1107906" lon="12.8750141"><ele>1182.0</ele><time>2026-04-11T09:18:17.83Z</time></trkpt><trkpt lat="43.1108213" lon="12.8751001"><ele>1182.0</ele><time>2026-04-11T09:18:18.826Z</time></trkpt><trkpt lat="43.1108545" lon="12.8751893"><ele>1182.0</ele><time>2026-04-11T09:18:19.835Z</time></trkpt><trkpt lat="43.1108802" lon="12.8752943"><ele>1181.8</ele><time>2026-04-11T09:18:20.823Z</time></trkpt><trkpt lat="43.1109022" lon="12.8754115"><ele>1181.6</ele><time>2026-04-11T09:18:21.829Z</time></trkpt><trkpt lat="43.1109185" lon="12.875538"><ele>1181.3999999999999</ele><time>2026-04-11T09:18:22.82Z</time></trkpt><trkpt lat="43.1109356" lon="12.8756732"><ele>1181.2</ele><time>2026-04-11T09:18:23.84Z</time></trkpt><trkpt lat="43.1109479" lon="12.875827"><ele>1181.0</ele><time>2026-04-11T09:18:24.827Z</time></trkpt><trkpt lat="43.1109622" lon="12.8759963"><ele>1181.0</ele><time>2026-04-11T09:18:25.823Z</time></trkpt><trkpt lat="43.1109844" lon="12.8761802"><ele>1181.0</ele><time>2026-04-11T09:18:26.818Z</time></trkpt><trkpt lat="43.1110096" lon="12.876376"><ele>1181.0</ele><time>2026-04-11T09:18:27.824Z</time></trkpt><trkpt lat="43.1110399" lon="12.8765593"><ele>1181.0</ele><time>2026-04-11T09:18:28.831Z</time></trkpt><trkpt lat="43.1110684" lon="12.8767154"><ele>1185.3999999999999</ele><time>2026-04-11T09:18:29.873Z</time></trkpt><trkpt lat="43.1110978" lon="12.8768471"><ele>1189.8</ele><time>2026-04-11T09:18:30.82Z</time></trkpt><trkpt lat="43.1111375" lon="12.876956"><ele>1194.1999999999998</ele><time>2026-04-11T09:18:31.826Z</time></trkpt><trkpt lat="43.1111835" lon="12.8770588"><ele>1198.6</ele><time>2026-04-11T09:18:32.827Z</time></trkpt><trkpt lat="43.1112266" lon="12.877169"><ele>1203.0</ele><time>2026-04-11T09:18:33.831Z</time></trkpt><trkpt lat="43.1112679" lon="12.8773115"><ele>1203.0</ele><time>2026-04-11T09:18:34.841Z</time></trkpt><trkpt lat="43.1113074" lon="12.8774779"><ele>1203.0</ele><time>2026-04-11T09:18:35.834Z</time></trkpt><trkpt lat="43.1113528" lon="12.8776716"><ele>1203.0</ele><time>2026-04-11T09:18:36.828Z</time></trkpt><trkpt lat="43.1113987" lon="12.8778845"><ele>1203.0</ele><time>2026-04-11T09:18:37.833Z</time></trkpt><trkpt lat="43.1114525" lon="12.8781071"><ele>1200.3333333333333</ele><time>2026-04-11T09:18:38.829Z</time></trkpt><trkpt lat="43.1115125" lon="12.8783386"><ele>1197.6666666666665</ele><time>2026-04-11T09:18:39.83Z</time></trkpt><trkpt lat="43.1115829" lon="12.8785777"><ele>1195.0</ele><time>2026-04-11T09:18:40.832Z</time></trkpt><trkpt lat="43.1116726" lon="12.8788081"><ele>1195.0</ele><time>2026-04-11T09:18:41.832Z</time></trkpt><trkpt lat="43.1117641" lon="12.8790432"><ele>1195.0</ele><time>2026-04-11T09:18:42.828Z</time></trkpt><trkpt lat="43.1118693" lon="12.8792864"><ele>1195.0</ele><time>2026-04-11T09:18:43.829Z</time></trkpt><trkpt lat="43.1119802" lon="12.8795291"><ele>1202.6666666666665</ele><time>2026-04-11T09:18:44.83Z</time></trkpt><trkpt lat="43.1120924" lon="12.87977"><ele>1210.3333333333333</ele><time>2026-04-11T09:18:45.836Z</time></trkpt><trkpt lat="43.1122022" lon="12.8799773"><ele>1218.0</ele><time>2026-04-11T09:18:46.824Z</time></trkpt><trkpt lat="43.1123011" lon="12.8801637"><ele>1216.5</ele><time>2026-04-11T09:18:47.831Z</time></trkpt><trkpt lat="43.1123916" lon="12.8803357"><ele>1215.0</ele><time>2026-04-11T09:18:48.827Z</time></trkpt><trkpt lat="43.1124892" lon="12.8804873"><ele>1213.5</ele><time>2026-04-11T09:18:49.829Z</time></trkpt><trkpt lat="43.1125772" lon="12.8806217"><ele>1212.0</ele><time>2026-04-11T09:18:50.824Z</time></trkpt><trkpt lat="43.1126653" lon="12.8807488"><ele>1212.0</ele><time>2026-04-11T09:18:51.825Z</time></trkpt><trkpt lat="43.112742" lon="12.8808832"><ele>1212.0</ele><time>2026-04-11T09:18:52.829Z</time></trkpt><trkpt lat="43.1128099" lon="12.8810035"><ele>1212.0</ele><time>2026-04-11T09:18:53.832Z</time></trkpt><trkpt lat="43.1128838" lon="12.8811062"><ele>1212.0</ele><time>2026-04-11T09:18:54.824Z</time></trkpt><trkpt lat="43.1129664" lon="12.8811869"><ele>1212.0</ele><time>2026-04-11T09:18:55.827Z</time></trkpt><trkpt lat="43.1130347" lon="12.8812677"><ele>1215.3333333333333</ele><time>2026-04-11T09:18:56.822Z</time></trkpt><trkpt lat="43.1130903" lon="12.8813286"><ele>1218.6666666666667</ele><time>2026-04-11T09:18:57.828Z</time></trkpt><trkpt lat="43.1131171" lon="12.8814466"><ele>1222.0</ele><time>2026-04-11T09:18:59.836Z</time></trkpt><trkpt lat="43.1130444" lon="12.8815169"><ele>1225.3333333333335</ele><time>2026-04-11T09:19:01.83Z</time></trkpt><trkpt lat="43.1129521" lon="12.881481"><ele>1228.6666666666667</ele><time>2026-04-11T09:19:03.835Z</time></trkpt><trkpt lat="43.1128946" lon="12.8814147"><ele>1232.0</ele><time>2026-04-11T09:19:04.833Z</time></trkpt><trkpt lat="43.1128289" lon="12.8813517"><ele>1232.0</ele><time>2026-04-11T09:19:05.828Z</time></trkpt><trkpt lat="43.1127449" lon="12.8812965"><ele>1232.0</ele><time>2026-04-11T09:19:06.847Z</time></trkpt><trkpt lat="43.1126474" lon="12.8812453"><ele>1232.0</ele><time>2026-04-11T09:19:07.833Z</time></trkpt><trkpt lat="43.1125371" lon="12.8811878"><ele>1232.0</ele><time>2026-04-11T09:19:08.827Z</time></trkpt><trkpt lat="43.1124286" lon="12.8811241"><ele>1232.0</ele><time>2026-04-11T09:19:09.828Z</time></trkpt><trkpt lat="43.1123075" lon="12.8810412"><ele>1234.3333333333335</ele><time>2026-04-11T09:19:10.827Z</time></trkpt><trkpt lat="43.1121628" lon="12.8809184"><ele>1236.6666666666667</ele><time>2026-04-11T09:19:11.841Z</time></trkpt><trkpt lat="43.1120184" lon="12.8807698"><ele>1239.0</ele><time>2026-04-11T09:19:12.823Z</time></trkpt><trkpt lat="43.1118776" lon="12.8805968"><ele>1239.0</ele><time>2026-04-11T09:19:13.832Z</time></trkpt><trkpt lat="43.1117347" lon="12.880401"><ele>1239.0</ele><time>2026-04-11T09:19:14.828Z</time></trkpt><trkpt lat="43.1115867" lon="12.8801884"><ele>1239.0</ele><time>2026-04-11T09:19:15.832Z</time></trkpt><trkpt lat="43.11144" lon="12.8799801"><ele>1246.3333333333333</ele><time>2026-04-11T09:19:16.831Z</time></trkpt><trkpt lat="43.1112907" lon="12.8797663"><ele>1253.6666666666665</ele><time>2026-04-11T09:19:17.831Z</time></trkpt><trkpt lat="43.1111548" lon="12.8795506"><ele>1261.0</ele><time>2026-04-11T09:19:18.829Z</time></trkpt><trkpt lat="43.111039" lon="12.8793549"><ele>1254.0</ele><time>2026-04-11T09:19:19.826Z</time></trkpt><trkpt lat="43.1109258" lon="12.8791629"><ele>1247.0</ele><time>2026-04-11T09:19:20.828Z</time></trkpt><trkpt lat="43.1108127" lon="12.8789574"><ele>1240.0</ele><time>2026-04-11T09:19:21.83Z</time></trkpt><trkpt lat="43.1107116" lon="12.8787573"><ele>1248.0</ele><time>2026-04-11T09:19:22.834Z</time></trkpt><trkpt lat="43.1106157" lon="12.87856"><ele>1256.0</ele><time>2026-04-11T09:19:23.835Z</time></trkpt><trkpt lat="43.110552" lon="12.8783953"><ele>1264.0</ele><time>2026-04-11T09:19:24.827Z</time></trkpt><trkpt lat="43.1104871" lon="12.8782359"><ele>1272.0</ele><time>2026-04-11T09:19:25.825Z</time></trkpt><trkpt lat="43.1104287" lon="12.87808"><ele>1272.0</ele><time>2026-04-11T09:19:26.826Z</time></trkpt><trkpt lat="43.1103695" lon="12.8779427"><ele>1272.0</ele><time>2026-04-11T09:19:27.827Z</time></trkpt><trkpt lat="43.110311" lon="12.8778263"><ele>1272.0</ele><time>2026-04-11T09:19:28.831Z</time></trkpt><trkpt lat="43.1102484" lon="12.8777403"><ele>1272.0</ele><time>2026-04-11T09:19:29.825Z</time></trkpt><trkpt lat="43.1101897" lon="12.8776861"><ele>1272.0</ele><time>2026-04-11T09:19:30.818Z</time></trkpt><trkpt lat="43.1100972" lon="12.8776807"><ele>1272.0</ele><time>2026-04-11T09:19:32.827Z</time></trkpt><trkpt lat="43.1101054" lon="12.8777989"><ele>1272.0</ele><time>2026-04-11T09:19:35.831Z</time></trkpt><trkpt lat="43.110219" lon="12.8778943"><ele>1272.0</ele><time>2026-04-11T09:19:37.829Z</time></trkpt><trkpt lat="43.110268" lon="12.8779647"><ele>1272.0</ele><time>2026-04-11T09:19:38.826Z</time></trkpt><trkpt lat="43.1102961" lon="12.8780627"><ele>1272.0</ele><time>2026-04-11T09:19:39.831Z</time></trkpt><trkpt lat="43.1103242" lon="12.8781719"><ele>1272.0</ele><time>2026-04-11T09:19:40.829Z</time></trkpt><trkpt lat="43.1103501" lon="12.8782888"><ele>1272.0</ele><time>2026-04-11T09:19:41.833Z</time></trkpt><trkpt lat="43.1103798" lon="12.8784083"><ele>1272.0</ele><time>2026-04-11T09:19:42.826Z</time></trkpt><trkpt lat="43.1104068" lon="12.878544"><ele>1272.0</ele><time>2026-04-11T09:19:43.829Z</time></trkpt><trkpt lat="43.1104298" lon="12.8786809"><ele>1272.0</ele><time>2026-04-11T09:19:44.822Z</time></trkpt><trkpt lat="43.1104553" lon="12.8788304"><ele>1276.0</ele><time>2026-04-11T09:19:45.84Z</time></trkpt><trkpt lat="43.1104987" lon="12.8789738"><ele>1280.0</ele><time>2026-04-11T09:19:46.824Z</time></trkpt><trkpt lat="43.1105368" lon="12.8791225"><ele>1284.0</ele><time>2026-04-11T09:19:47.83Z</time></trkpt><trkpt lat="43.1105805" lon="12.8792596"><ele>1288.0</ele><time>2026-04-11T09:19:48.832Z</time></trkpt><trkpt lat="43.1106212" lon="12.8793894"><ele>1292.0</ele><time>2026-04-11T09:19:49.827Z</time></trkpt><trkpt lat="43.1106513" lon="12.8794908"><ele>1290.8333333333335</ele><time>2026-04-11T09:19:50.843Z</time></trkpt><trkpt lat="43.1106896" lon="12.8795861"><ele>1289.6666666666667</ele><time>2026-04-11T09:19:51.829Z</time></trkpt><trkpt lat="43.1107197" lon="12.8796878"><ele>1288.5</ele><time>2026-04-11T09:19:52.841Z</time></trkpt><trkpt lat="43.1107509" lon="12.8797989"><ele>1287.3333333333333</ele><time>2026-04-11T09:19:53.826Z</time></trkpt><trkpt lat="43.1107966" lon="12.8799091"><ele>1286.1666666666665</ele><time>2026-04-11T09:19:54.826Z</time></trkpt><trkpt lat="43.1108332" lon="12.8800106"><ele>1285.0</ele><time>2026-04-11T09:19:55.826Z</time></trkpt><trkpt lat="43.1108725" lon="12.8801201"><ele>1285.0</ele><time>2026-04-11T09:19:56.832Z</time></trkpt><trkpt lat="43.1109139" lon="12.8802341"><ele>1285.0</ele><time>2026-04-11T09:19:57.825Z</time></trkpt><trkpt lat="43.11096" lon="12.8803502"><ele>1285.0</ele><time>2026-04-11T09:19:58.819Z</time></trkpt><trkpt lat="43.1110105" lon="12.8804635"><ele>1285.0</ele><time>2026-04-11T09:19:59.824Z</time></trkpt><trkpt lat="43.1110557" lon="12.8805848"><ele>1285.0</ele><time>2026-04-11T09:20:00.834Z</time></trkpt><trkpt lat="43.1111028" lon="12.8807185"><ele>1285.0</ele><time>2026-04-11T09:20:01.82Z</time></trkpt><trkpt lat="43.1111537" lon="12.8808453"><ele>1285.0</ele><time>2026-04-11T09:20:02.821Z</time></trkpt><trkpt lat="43.1112005" lon="12.8809759"><ele>1285.0</ele><time>2026-04-11T09:20:03.836Z</time></trkpt><trkpt lat="43.1112458" lon="12.8810954"><ele>1285.0</ele><time>2026-04-11T09:20:04.843Z</time></trkpt><trkpt lat="43.1112913" lon="12.8812252"><ele>1285.0</ele><time>2026-04-11T09:20:05.822Z</time></trkpt><trkpt lat="43.1113328" lon="12.881365"><ele>1284.4</ele><time>2026-04-11T09:20:06.818Z</time></trkpt><trkpt lat="43.1113804" lon="12.8814994"><ele>1283.8</ele><time>2026-04-11T09:20:07.823Z</time></trkpt><trkpt lat="43.1114284" lon="12.8816333"><ele>1283.1999999999998</ele><time>2026-04-11T09:20:08.827Z</time></trkpt><trkpt lat="43.1114722" lon="12.88177"><ele>1282.6</ele><time>2026-04-11T09:20:09.834Z</time></trkpt><trkpt lat="43.1115298" lon="12.8819009"><ele>1282.0</ele><time>2026-04-11T09:20:10.823Z</time></trkpt><trkpt lat="43.1115765" lon="12.8820322"><ele>1282.0</ele><time>2026-04-11T09:20:11.823Z</time></trkpt><trkpt lat="43.1116347" lon="12.8821752"><ele>1282.0</ele><time>2026-04-11T09:20:12.826Z</time></trkpt><trkpt lat="43.1116933" lon="12.8823146"><ele>1282.0</ele><time>2026-04-11T09:20:13.831Z</time></trkpt><trkpt lat="43.1117526" lon="12.8824466"><ele>1282.0</ele><time>2026-04-11T09:20:14.82Z</time></trkpt><trkpt lat="43.1118036" lon="12.8825808"><ele>1285.6666666666665</ele><time>2026-04-11T09:20:15.837Z</time></trkpt><trkpt lat="43.1118535" lon="12.8826933"><ele>1289.3333333333333</ele><time>2026-04-11T09:20:16.835Z</time></trkpt><trkpt lat="43.1119141" lon="12.882775"><ele>1293.0</ele><time>2026-04-11T09:20:17.829Z</time></trkpt><trkpt lat="43.1119944" lon="12.8828262"><ele>1296.6666666666667</ele><time>2026-04-11T09:20:18.831Z</time></trkpt><trkpt lat="43.1120727" lon="12.8828839"><ele>1300.3333333333335</ele><time>2026-04-11T09:20:19.831Z</time></trkpt><trkpt lat="43.1121304" lon="12.882942"><ele>1304.0</ele><time>2026-04-11T09:20:20.828Z</time></trkpt><trkpt lat="43.1121712" lon="12.8830723"><ele>1304.0</ele><time>2026-04-11T09:20:22.824Z</time></trkpt><trkpt lat="43.1120811" lon="12.8831248"><ele>1304.0</ele><time>2026-04-11T09:20:24.827Z</time></trkpt><trkpt lat="43.1119736" lon="12.8830466"><ele>1304.0</ele><time>2026-04-11T09:20:26.832Z</time></trkpt><trkpt lat="43.1118894" lon="12.8829876"><ele>1304.0</ele><time>2026-04-11T09:20:27.828Z</time></trkpt><trkpt lat="43.1118" lon="12.8829186"><ele>1304.0</ele><time>2026-04-11T09:20:28.824Z</time></trkpt><trkpt lat="43.1117192" lon="12.8828469"><ele>1304.0</ele><time>2026-04-11T09:20:29.837Z</time></trkpt><trkpt lat="43.1116511" lon="12.8827472"><ele>1304.0</ele><time>2026-04-11T09:20:30.833Z</time></trkpt><trkpt lat="43.1115854" lon="12.8826405"><ele>1304.0</ele><time>2026-04-11T09:20:31.829Z</time></trkpt><trkpt lat="43.1115275" lon="12.8825494"><ele>1304.0</ele><time>2026-04-11T09:20:32.836Z</time></trkpt><trkpt lat="43.1114844" lon="12.8824732"><ele>1304.0</ele><time>2026-04-11T09:20:33.832Z</time></trkpt><trkpt lat="43.1114123" lon="12.8823398"><ele>1307.0</ele><time>2026-04-11T09:20:35.827Z</time></trkpt><trkpt lat="43.1113661" lon="12.8822653"><ele>1310.0</ele><time>2026-04-11T09:20:36.832Z</time></trkpt><trkpt lat="43.1113172" lon="12.882193"><ele>1313.0</ele><time>2026-04-11T09:20:37.836Z</time></trkpt><trkpt lat="43.1112721" lon="12.8821186"><ele>1316.0</ele><time>2026-04-11T09:20:38.828Z</time></trkpt><trkpt lat="43.1112291" lon="12.8820467"><ele>1319.0</ele><time>2026-04-11T09:20:39.83Z</time></trkpt><trkpt lat="43.1111821" lon="12.8819706"><ele>1322.0</ele><time>2026-04-11T09:20:40.824Z</time></trkpt><trkpt lat="43.1111385" lon="12.8818947"><ele>1325.0</ele><time>2026-04-11T09:20:41.831Z</time></trkpt><trkpt lat="43.1110884" lon="12.8818156"><ele>1321.8333333333335</ele><time>2026-04-11T09:20:42.825Z</time></trkpt><trkpt lat="43.1110366" lon="12.8817304"><ele>1318.6666666666667</ele><time>2026-04-11T09:20:43.831Z</time></trkpt><trkpt lat="43.1109797" lon="12.8816396"><ele>1315.5</ele><time>2026-04-11T09:20:44.828Z</time></trkpt><trkpt lat="43.1109225" lon="12.8815462"><ele>1312.3333333333333</ele><time>2026-04-11T09:20:45.826Z</time></trkpt><trkpt lat="43.1108637" lon="12.8814585"><ele>1309.1666666666665</ele><time>2026-04-11T09:20:46.828Z</time></trkpt><trkpt lat="43.1108041" lon="12.8813699"><ele>1306.0</ele><time>2026-04-11T09:20:47.828Z</time></trkpt><trkpt lat="43.1107539" lon="12.8812837"><ele>1310.5</ele><time>2026-04-11T09:20:48.844Z</time></trkpt><trkpt lat="43.1107054" lon="12.8812039"><ele>1315.0</ele><time>2026-04-11T09:20:49.825Z</time></trkpt><trkpt lat="43.1106538" lon="12.8811188"><ele>1319.5</ele><time>2026-04-11T09:20:50.821Z</time></trkpt><trkpt lat="43.110602" lon="12.8810349"><ele>1324.0</ele><time>2026-04-11T09:20:51.832Z</time></trkpt><trkpt lat="43.1105569" lon="12.8809558"><ele>1328.5</ele><time>2026-04-11T09:20:52.822Z</time></trkpt><trkpt lat="43.1105085" lon="12.8808868"><ele>1333.0</ele><time>2026-04-11T09:20:53.833Z</time></trkpt><trkpt lat="43.1104523" lon="12.8808129"><ele>1333.0</ele><time>2026-04-11T09:20:54.822Z</time></trkpt><trkpt lat="43.1103949" lon="12.8807439"><ele>1333.0</ele><time>2026-04-11T09:20:55.829Z</time></trkpt><trkpt lat="43.1103371" lon="12.8806777"><ele>1333.0</ele><time>2026-04-11T09:20:56.822Z</time></trkpt><trkpt lat="43.1102737" lon="12.8806107"><ele>1333.0</ele><time>2026-04-11T09:20:57.822Z</time></trkpt><trkpt lat="43.1102137" lon="12.8805316"><ele>1333.0</ele><time>2026-04-11T09:20:58.83Z</time></trkpt><trkpt lat="43.1101585" lon="12.8804439"><ele>1333.0</ele><time>2026-04-11T09:20:59.837Z</time></trkpt><trkpt lat="43.1101074" lon="12.8803583"><ele>1333.0</ele><time>2026-04-11T09:21:00.848Z</time></trkpt><trkpt lat="43.1100533" lon="12.8802808"><ele>1333.0</ele><time>2026-04-11T09:21:01.847Z</time></trkpt><trkpt lat="43.1099976" lon="12.8802037"><ele>1333.0</ele><time>2026-04-11T09:21:02.833Z</time></trkpt><trkpt lat="43.1099396" lon="12.8801311"><ele>1333.0</ele><time>2026-04-11T09:21:03.839Z</time></trkpt><trkpt lat="43.1098915" lon="12.8800614"><ele>1333.0</ele><time>2026-04-11T09:21:04.828Z</time></trkpt><trkpt lat="43.1098277" lon="12.8799353"><ele>1333.0</ele><time>2026-04-11T09:21:06.828Z</time></trkpt><trkpt lat="43.1097599" lon="12.879785"><ele>1335.3333333333333</ele><time>2026-04-11T09:21:08.828Z</time></trkpt><trkpt lat="43.1097098" lon="12.8797053"><ele>1337.6666666666665</ele><time>2026-04-11T09:21:09.825Z</time></trkpt><trkpt lat="43.1096562" lon="12.8796132"><ele>1340.0</ele><time>2026-04-11T09:21:10.832Z</time></trkpt><trkpt lat="43.1095904" lon="12.8795152"><ele>1342.3333333333333</ele><time>2026-04-11T09:21:11.839Z</time></trkpt><trkpt lat="43.1095363" lon="12.8794356"><ele>1344.6666666666667</ele><time>2026-04-11T09:21:12.838Z</time></trkpt><trkpt lat="43.1094691" lon="12.8793768"><ele>1347.0</ele><time>2026-04-11T09:21:13.831Z</time></trkpt><trkpt lat="43.1094061" lon="12.8793362"><ele>1347.0</ele><time>2026-04-11T09:21:14.836Z</time></trkpt><trkpt lat="43.1093297" lon="12.8793085"><ele>1347.0</ele><time>2026-04-11T09:21:15.825Z</time></trkpt><trkpt lat="43.1092488" lon="12.8792686"><ele>1347.0</ele><time>2026-04-11T09:21:16.826Z</time></trkpt><trkpt lat="43.10917" lon="12.8792288"><ele>1347.0</ele><time>2026-04-11T09:21:17.83Z</time></trkpt><trkpt lat="43.1090913" lon="12.8791849"><ele>1347.0</ele><time>2026-04-11T09:21:18.821Z</time></trkpt><trkpt lat="43.1090166" lon="12.8791394"><ele>1347.0</ele><time>2026-04-11T09:21:19.825Z</time></trkpt><trkpt lat="43.1089426" lon="12.8790853"><ele>1347.8333333333333</ele><time>2026-04-11T09:21:20.826Z</time></trkpt><trkpt lat="43.1088734" lon="12.8790225"><ele>1348.6666666666667</ele><time>2026-04-11T09:21:21.831Z</time></trkpt><trkpt lat="43.1088098" lon="12.8789449"><ele>1349.5</ele><time>2026-04-11T09:21:22.825Z</time></trkpt><trkpt lat="43.1087518" lon="12.8788604"><ele>1350.3333333333335</ele><time>2026-04-11T09:21:23.836Z</time></trkpt><trkpt lat="43.1086993" lon="12.8787749"><ele>1351.1666666666667</ele><time>2026-04-11T09:21:24.825Z</time></trkpt><trkpt lat="43.1086374" lon="12.8786935"><ele>1352.0</ele><time>2026-04-11T09:21:25.83Z</time></trkpt><trkpt lat="43.1085705" lon="12.8786273"><ele>1352.0</ele><time>2026-04-11T09:21:26.83Z</time></trkpt><trkpt lat="43.1084979" lon="12.8785583"><ele>1352.0</ele><time>2026-04-11T09:21:27.833Z</time></trkpt><trkpt lat="43.1084231" lon="12.8785131"><ele>1352.0</ele><time>2026-04-11T09:21:28.822Z</time></trkpt><trkpt lat="43.1083523" lon="12.8784772"><ele>1352.0</ele><time>2026-04-11T09:21:29.823Z</time></trkpt><trkpt lat="43.1082536" lon="12.8784676"><ele>1352.0</ele><time>2026-04-11T09:21:31.826Z</time></trkpt><trkpt lat="43.1081653" lon="12.8785167"><ele>1352.0</ele><time>2026-04-11T09:21:34.825Z</time></trkpt><trkpt lat="43.1080972" lon="12.8785541"><ele>1355.0</ele><time>2026-04-11T09:21:36.822Z</time></trkpt><trkpt lat="43.1080253" lon="12.8785935"><ele>1358.0</ele><time>2026-04-11T09:21:38.81Z</time></trkpt><trkpt lat="43.10795" lon="12.8785854"><ele>1361.0</ele><time>2026-04-11T09:21:40.823Z</time></trkpt><trkpt lat="43.1078887" lon="12.8785576"><ele>1364.0</ele><time>2026-04-11T09:21:41.828Z</time></trkpt><trkpt lat="43.1078198" lon="12.8785174"><ele>1367.0</ele><time>2026-04-11T09:21:42.832Z</time></trkpt><trkpt lat="43.1077463" lon="12.8784817"><ele>1370.0</ele><time>2026-04-11T09:21:43.83Z</time></trkpt><trkpt lat="43.1076684" lon="12.8784464"><ele>1367.8</ele><time>2026-04-11T09:21:44.831Z</time></trkpt><trkpt lat="43.1075891" lon="12.878417"><ele>1365.6</ele><time>2026-04-11T09:21:45.822Z</time></trkpt><trkpt lat="43.107502" lon="12.8783859"><ele>1363.4</ele><time>2026-04-11T09:21:46.836Z</time></trkpt><trkpt lat="43.107403" lon="12.8783624"><ele>1361.2</ele><time>2026-04-11T09:21:47.827Z</time></trkpt><trkpt lat="43.1073065" lon="12.8783356"><ele>1359.0</ele><time>2026-04-11T09:21:48.826Z</time></trkpt><trkpt lat="43.1072143" lon="12.8783031"><ele>1359.0</ele><time>2026-04-11T09:21:49.824Z</time></trkpt><trkpt lat="43.107129" lon="12.8782838"><ele>1359.0</ele><time>2026-04-11T09:21:50.823Z</time></trkpt><trkpt lat="43.1070456" lon="12.8782727"><ele>1359.0</ele><time>2026-04-11T09:21:51.834Z</time></trkpt><trkpt lat="43.106966" lon="12.8782643"><ele>1359.0</ele><time>2026-04-11T09:21:52.825Z</time></trkpt><trkpt lat="43.1068833" lon="12.8782559"><ele>1359.0</ele><time>2026-04-11T09:21:53.834Z</time></trkpt><trkpt lat="43.1068028" lon="12.8782596"><ele>1359.0</ele><time>2026-04-11T09:21:54.831Z</time></trkpt><trkpt lat="43.1067292" lon="12.8782653"><ele>1359.0</ele><time>2026-04-11T09:21:55.825Z</time></trkpt><trkpt lat="43.1066179" lon="12.8782709"><ele>1359.0</ele><time>2026-04-11T09:21:57.824Z</time></trkpt><trkpt lat="43.1065427" lon="12.8783118"><ele>1359.0</ele><time>2026-04-11T09:21:59.831Z</time></trkpt><trkpt lat="43.1065469" lon="12.8784073"><ele>1359.0</ele><time>2026-04-11T09:22:01.841Z</time></trkpt><trkpt lat="43.1066218" lon="12.8784546"><ele>1359.0</ele><time>2026-04-11T09:22:03.847Z</time></trkpt><trkpt lat="43.1067159" lon="12.8784784"><ele>1359.0</ele><time>2026-04-11T09:22:05.829Z</time></trkpt><trkpt lat="43.1068181" lon="12.8785346"><ele>1363.0</ele><time>2026-04-11T09:22:07.83Z</time></trkpt><trkpt lat="43.1068748" lon="12.8785732"><ele>1367.0</ele><time>2026-04-11T09:22:08.827Z</time></trkpt><trkpt lat="43.1069325" lon="12.8786186"><ele>1371.0</ele><time>2026-04-11T09:22:09.839Z</time></trkpt><trkpt lat="43.106996" lon="12.8786604"><ele>1375.0</ele><time>2026-04-11T09:22:10.826Z</time></trkpt><trkpt lat="43.1070572" lon="12.8787153"><ele>1379.0</ele><time>2026-04-11T09:22:11.835Z</time></trkpt><trkpt lat="43.1071289" lon="12.8787797"><ele>1383.0</ele><time>2026-04-11T09:22:12.843Z</time></trkpt><trkpt lat="43.1072051" lon="12.8788505"><ele>1383.0</ele><time>2026-04-11T09:22:13.829Z</time></trkpt><trkpt lat="43.1072853" lon="12.8789229"><ele>1383.0</ele><time>2026-04-11T09:22:14.825Z</time></trkpt><trkpt lat="43.1073644" lon="12.8790082"><ele>1383.0</ele><time>2026-04-11T09:22:15.83Z</time></trkpt><trkpt lat="43.1074297" lon="12.8791064"><ele>1383.0</ele><time>2026-04-11T09:22:16.827Z</time></trkpt><trkpt lat="43.1074928" lon="12.8791971"><ele>1383.0</ele><time>2026-04-11T09:22:17.846Z</time></trkpt><trkpt lat="43.107548" lon="12.8792889"><ele>1383.5</ele><time>2026-04-11T09:22:18.826Z</time></trkpt><trkpt lat="43.1075951" lon="12.8793772"><ele>1384.0</ele><time>2026-04-11T09:22:19.833Z</time></trkpt><trkpt lat="43.1076375" lon="12.8794524"><ele>1384.5</ele><time>2026-04-11T09:22:20.826Z</time></trkpt><trkpt lat="43.1076795" lon="12.879523"><ele>1385.0</ele><time>2026-04-11T09:22:21.828Z</time></trkpt><trkpt lat="43.1077545" lon="12.879652"><ele>1385.5</ele><time>2026-04-11T09:22:23.826Z</time></trkpt><trkpt lat="43.1078186" lon="12.8797742"><ele>1386.0</ele><time>2026-04-11T09:22:25.823Z</time></trkpt><trkpt lat="43.1078732" lon="12.8798605"><ele>1386.0</ele><time>2026-04-11T09:22:27.825Z</time></trkpt><trkpt lat="43.1079381" lon="12.8799578"><ele>1386.0</ele><time>2026-04-11T09:22:29.828Z</time></trkpt><trkpt lat="43.1080024" lon="12.8800632"><ele>1386.0</ele><time>2026-04-11T09:22:31.826Z</time></trkpt><trkpt lat="43.1080517" lon="12.8801254"><ele>1386.0</ele><time>2026-04-11T09:22:32.822Z</time></trkpt><trkpt lat="43.1081037" lon="12.8802006"><ele>1386.0</ele><time>2026-04-11T09:22:33.84Z</time></trkpt><trkpt lat="43.1081532" lon="12.8802827"><ele>1386.0</ele><time>2026-04-11T09:22:34.829Z</time></trkpt><trkpt lat="43.1082032" lon="12.8803751"><ele>1387.1999999999998</ele><time>2026-04-11T09:22:35.826Z</time></trkpt><trkpt lat="43.108261" lon="12.8804755"><ele>1388.3999999999999</ele><time>2026-04-11T09:22:36.829Z</time></trkpt><trkpt lat="43.1083228" lon="12.8805849"><ele>1389.6</ele><time>2026-04-11T09:22:37.827Z</time></trkpt><trkpt lat="43.1083846" lon="12.8806939"><ele>1390.8</ele><time>2026-04-11T09:22:38.822Z</time></trkpt><trkpt lat="43.1084419" lon="12.8807871"><ele>1392.0</ele><time>2026-04-11T09:22:39.837Z</time></trkpt><trkpt lat="43.1084903" lon="12.8808739"><ele>1395.1666666666667</ele><time>2026-04-11T09:22:40.833Z</time></trkpt><trkpt lat="43.1085363" lon="12.8809417"><ele>1398.3333333333333</ele><time>2026-04-11T09:22:41.827Z</time></trkpt><trkpt lat="43.1086057" lon="12.881074"><ele>1401.5</ele><time>2026-04-11T09:22:43.828Z</time></trkpt><trkpt lat="43.108643" lon="12.8811774"><ele>1404.6666666666665</ele><time>2026-04-11T09:22:45.827Z</time></trkpt><trkpt lat="43.1086732" lon="12.8812672"><ele>1407.8333333333333</ele><time>2026-04-11T09:22:47.846Z</time></trkpt><trkpt lat="43.1087" lon="12.8813484"><ele>1411.0</ele><time>2026-04-11T09:23:24.827Z</time></trkpt><trkpt lat="43.1086614" lon="12.8812648"><ele>1411.0</ele><time>2026-04-11T09:23:39.838Z</time></trkpt><trkpt lat="43.1086248" lon="12.8811879"><ele>1411.0</ele><time>2026-04-11T09:23:42.832Z</time></trkpt><trkpt lat="43.1085843" lon="12.8811181"><ele>1411.0</ele><time>2026-04-11T09:23:45.836Z</time></trkpt><trkpt lat="43.1085399" lon="12.8810345"><ele>1411.0</ele><time>2026-04-11T09:24:12.832Z</time></trkpt><trkpt lat="43.1084836" lon="12.8809189"><ele>1411.0</ele><time>2026-04-11T09:24:14.84Z</time></trkpt><trkpt lat="43.1084101" lon="12.8807991"><ele>1411.0</ele><time>2026-04-11T09:24:16.83Z</time></trkpt><trkpt lat="43.1083215" lon="12.8806899"><ele>1410.8</ele><time>2026-04-11T09:24:18.828Z</time></trkpt><trkpt lat="43.1082315" lon="12.8806028"><ele>1410.6</ele><time>2026-04-11T09:24:20.824Z</time></trkpt><trkpt lat="43.1081445" lon="12.8805424"><ele>1410.4</ele><time>2026-04-11T09:24:22.834Z</time></trkpt><trkpt lat="43.1080813" lon="12.8804414"><ele>1410.2</ele><time>2026-04-11T09:24:24.828Z</time></trkpt><trkpt lat="43.1080128" lon="12.880373"><ele>1410.0</ele><time>2026-04-11T09:24:26.818Z</time></trkpt><trkpt lat="43.1079275" lon="12.8803111"><ele>1410.0</ele><time>2026-04-11T09:24:28.829Z</time></trkpt><trkpt lat="43.1078271" lon="12.8802587"><ele>1410.0</ele><time>2026-04-11T09:24:30.831Z</time></trkpt><trkpt lat="43.1077152" lon="12.8802232"><ele>1410.0</ele><time>2026-04-11T09:24:32.842Z</time></trkpt><trkpt lat="43.107599" lon="12.8802265"><ele>1410.0</ele><time>2026-04-11T09:24:34.83Z</time></trkpt><trkpt lat="43.1074747" lon="12.8802432"><ele>1410.0</ele><time>2026-04-11T09:24:36.832Z</time></trkpt><trkpt lat="43.1074106" lon="12.8802452"><ele>1410.0</ele><time>2026-04-11T09:24:37.834Z</time></trkpt><trkpt lat="43.1073434" lon="12.8802456"><ele>1410.0</ele><time>2026-04-11T09:24:38.837Z</time></trkpt><trkpt lat="43.1072186" lon="12.8802533"><ele>1410.0</ele><time>2026-04-11T09:24:40.83Z</time></trkpt><trkpt lat="43.1071176" lon="12.8802982"><ele>1410.0</ele><time>2026-04-11T09:24:42.83Z</time></trkpt><trkpt lat="43.1070197" lon="12.8803858"><ele>1412.0</ele><time>2026-04-11T09:24:44.826Z</time></trkpt><trkpt lat="43.1069715" lon="12.8804438"><ele>1414.0</ele><time>2026-04-11T09:24:45.839Z</time></trkpt><trkpt lat="43.1069236" lon="12.8805026"><ele>1416.0</ele><time>2026-04-11T09:24:46.833Z</time></trkpt><trkpt lat="43.1068803" lon="12.8805677"><ele>1418.0</ele><time>2026-04-11T09:24:47.827Z</time></trkpt><trkpt lat="43.1068152" lon="12.880713"><ele>1420.0</ele><time>2026-04-11T09:24:49.829Z</time></trkpt><trkpt lat="43.1067843" lon="12.8807955"><ele>1422.0</ele><time>2026-04-11T09:24:50.824Z</time></trkpt><trkpt lat="43.1067459" lon="12.8808759"><ele>1422.857142857143</ele><time>2026-04-11T09:24:51.829Z</time></trkpt><trkpt lat="43.1067051" lon="12.8809558"><ele>1423.7142857142858</ele><time>2026-04-11T09:24:52.834Z</time></trkpt><trkpt lat="43.1066655" lon="12.8810329"><ele>1424.5714285714284</ele><time>2026-04-11T09:24:53.83Z</time></trkpt><trkpt lat="43.106622" lon="12.8811144"><ele>1425.4285714285716</ele><time>2026-04-11T09:24:54.834Z</time></trkpt><trkpt lat="43.1065756" lon="12.8811925"><ele>1426.2857142857142</ele><time>2026-04-11T09:24:55.837Z</time></trkpt><trkpt lat="43.10653" lon="12.8812617"><ele>1427.142857142857</ele><time>2026-04-11T09:24:56.827Z</time></trkpt><trkpt lat="43.1064899" lon="12.8813328"><ele>1428.0</ele><time>2026-04-11T09:24:57.83Z</time></trkpt><trkpt lat="43.1064532" lon="12.8814091"><ele>1428.0</ele><time>2026-04-11T09:24:58.835Z</time></trkpt><trkpt lat="43.1064186" lon="12.8814899"><ele>1428.0</ele><time>2026-04-11T09:24:59.824Z</time></trkpt><trkpt lat="43.1064002" lon="12.8815728"><ele>1428.0</ele><time>2026-04-11T09:25:00.837Z</time></trkpt><trkpt lat="43.1063993" lon="12.8817257"><ele>1428.0</ele><time>2026-04-11T09:25:02.82Z</time></trkpt><trkpt lat="43.1063653" lon="12.8818474"><ele>1428.0</ele><time>2026-04-11T09:25:04.83Z</time></trkpt><trkpt lat="43.1062833" lon="12.8818954"><ele>1428.0</ele><time>2026-04-11T09:25:06.832Z</time></trkpt><trkpt lat="43.106184" lon="12.8819531"><ele>1430.4</ele><time>2026-04-11T09:25:08.822Z</time></trkpt><trkpt lat="43.1061312" lon="12.8820258"><ele>1432.8000000000002</ele><time>2026-04-11T09:25:10.824Z</time></trkpt><trkpt lat="43.1060707" lon="12.8821139"><ele>1435.2</ele><time>2026-04-11T09:28:16.867Z</time></trkpt><trkpt lat="43.1060465" lon="12.8822428"><ele>1437.6</ele><time>2026-04-11T09:28:18.851Z</time></trkpt><trkpt lat="43.1060178" lon="12.8824144"><ele>1440.0</ele><time>2026-04-11T09:28:20.834Z</time></trkpt><trkpt lat="43.1060097" lon="12.8825203"><ele>1441.6</ele><time>2026-04-11T09:28:21.849Z</time></trkpt><trkpt lat="43.1060075" lon="12.882646"><ele>1443.2</ele><time>2026-04-11T09:28:22.86Z</time></trkpt><trkpt lat="43.1060152" lon="12.8827797"><ele>1444.8000000000002</ele><time>2026-04-11T09:28:23.833Z</time></trkpt><trkpt lat="43.1060364" lon="12.8829054"><ele>1446.4</ele><time>2026-04-11T09:28:24.851Z</time></trkpt><trkpt lat="43.1060777" lon="12.8830361"><ele>1448.0</ele><time>2026-04-11T09:28:25.869Z</time></trkpt><trkpt lat="43.1061384" lon="12.8831521"><ele>1448.0</ele><time>2026-04-11T09:28:26.864Z</time></trkpt><trkpt lat="43.1061983" lon="12.883251"><ele>1448.0</ele><time>2026-04-11T09:28:27.854Z</time></trkpt><trkpt lat="43.1062399" lon="12.8833391"><ele>1448.0</ele><time>2026-04-11T09:28:28.843Z</time></trkpt><trkpt lat="43.1062608" lon="12.8834278"><ele>1448.0</ele><time>2026-04-11T09:28:29.838Z</time></trkpt><trkpt lat="43.106233" lon="12.8835917"><ele>1448.0</ele><time>2026-04-11T09:28:31.863Z</time></trkpt><trkpt lat="43.1061819" lon="12.8836689"><ele>1448.0</ele><time>2026-04-11T09:28:32.85Z</time></trkpt><trkpt lat="43.1061096" lon="12.8837341"><ele>1449.2</ele><time>2026-04-11T09:28:33.861Z</time></trkpt><trkpt lat="43.1060187" lon="12.883781"><ele>1450.4</ele><time>2026-04-11T09:28:34.833Z</time></trkpt><trkpt lat="43.1059141" lon="12.8838315"><ele>1451.6000000000001</ele><time>2026-04-11T09:28:35.829Z</time></trkpt><trkpt lat="43.1057981" lon="12.8838732"><ele>1452.8000000000002</ele><time>2026-04-11T09:28:36.831Z</time></trkpt><trkpt lat="43.1056809" lon="12.8839083"><ele>1454.0</ele><time>2026-04-11T09:28:37.84Z</time></trkpt><trkpt lat="43.1055822" lon="12.8839405"><ele>1454.0</ele><time>2026-04-11T09:28:38.828Z</time></trkpt><trkpt lat="43.1054925" lon="12.8839789"><ele>1454.0</ele><time>2026-04-11T09:28:39.836Z</time></trkpt><trkpt lat="43.105415" lon="12.8840256"><ele>1454.0</ele><time>2026-04-11T09:28:40.839Z</time></trkpt><trkpt lat="43.1053566" lon="12.8840678"><ele>1454.0</ele><time>2026-04-11T09:28:41.829Z</time></trkpt><trkpt lat="43.1053019" lon="12.8841147"><ele>1454.0</ele><time>2026-04-11T09:28:42.834Z</time></trkpt><trkpt lat="43.1052096" lon="12.8842077"><ele>1454.0</ele><time>2026-04-11T09:28:44.832Z</time></trkpt><trkpt lat="43.1051704" lon="12.8842757"><ele>1456.8000000000002</ele><time>2026-04-11T09:28:45.825Z</time></trkpt><trkpt lat="43.1051678" lon="12.8844419"><ele>1459.6000000000001</ele><time>2026-04-11T09:28:47.841Z</time></trkpt><trkpt lat="43.1051874" lon="12.8846124"><ele>1462.4</ele><time>2026-04-11T09:28:49.837Z</time></trkpt><trkpt lat="43.1051994" lon="12.8847145"><ele>1465.2</ele><time>2026-04-11T09:28:50.827Z</time></trkpt><trkpt lat="43.1052117" lon="12.8848243"><ele>1468.0</ele><time>2026-04-11T09:28:51.848Z</time></trkpt><trkpt lat="43.1052258" lon="12.8849264"><ele>1468.0</ele><time>2026-04-11T09:28:52.824Z</time></trkpt><trkpt lat="43.105247" lon="12.8850763"><ele>1468.0</ele><time>2026-04-11T09:28:54.828Z</time></trkpt><trkpt lat="43.1053111" lon="12.8851807"><ele>1468.0</ele><time>2026-04-11T09:28:56.831Z</time></trkpt><trkpt lat="43.1053495" lon="12.8853239"><ele>1468.0</ele><time>2026-04-11T09:28:58.832Z</time></trkpt><trkpt lat="43.1053314" lon="12.8854167"><ele>1468.0</ele><time>2026-04-11T09:28:59.833Z</time></trkpt><trkpt lat="43.105282" lon="12.885502"><ele>1470.2</ele><time>2026-04-11T09:29:00.832Z</time></trkpt><trkpt lat="43.1052141" lon="12.885576"><ele>1472.4</ele><time>2026-04-11T09:29:01.851Z</time></trkpt><trkpt lat="43.105131" lon="12.8856432"><ele>1474.6000000000001</ele><time>2026-04-11T09:29:02.85Z</time></trkpt><trkpt lat="43.1050478" lon="12.8857267"><ele>1476.8000000000002</ele><time>2026-04-11T09:29:03.841Z</time></trkpt><trkpt lat="43.1049703" lon="12.8858134"><ele>1479.0</ele><time>2026-04-11T09:29:04.833Z</time></trkpt><trkpt lat="43.1048969" lon="12.8859067"><ele>1482.4</ele><time>2026-04-11T09:29:05.83Z</time></trkpt><trkpt lat="43.104819" lon="12.8859978"><ele>1485.8000000000002</ele><time>2026-04-11T09:29:06.824Z</time></trkpt><trkpt lat="43.1047455" lon="12.8860865"><ele>1489.1999999999998</ele><time>2026-04-11T09:29:07.834Z</time></trkpt><trkpt lat="43.104669" lon="12.88617"><ele>1492.6</ele><time>2026-04-11T09:29:08.829Z</time></trkpt><trkpt lat="43.1046064" lon="12.8862508"><ele>1496.0</ele><time>2026-04-11T09:29:09.831Z</time></trkpt><trkpt lat="43.104545" lon="12.8863152"><ele>1496.0</ele><time>2026-04-11T09:29:10.838Z</time></trkpt><trkpt lat="43.1044909" lon="12.8863658"><ele>1496.0</ele><time>2026-04-11T09:29:11.832Z</time></trkpt><trkpt lat="43.1044304" lon="12.8864144"><ele>1496.0</ele><time>2026-04-11T09:29:14.83Z</time></trkpt><trkpt lat="43.1043632" lon="12.8864399"><ele>1496.0</ele><time>2026-04-11T09:29:22.835Z</time></trkpt><trkpt lat="43.1042573" lon="12.8864629"><ele>1496.0</ele><time>2026-04-11T09:29:24.843Z</time></trkpt><trkpt lat="43.1041393" lon="12.8864865"><ele>1496.0</ele><time>2026-04-11T09:29:26.839Z</time></trkpt><trkpt lat="43.1040742" lon="12.8865026"><ele>1496.5</ele><time>2026-04-11T09:29:27.841Z</time></trkpt><trkpt lat="43.1040057" lon="12.886519"><ele>1497.0</ele><time>2026-04-11T09:29:28.83Z</time></trkpt><trkpt lat="43.1039345" lon="12.8865462"><ele>1497.5</ele><time>2026-04-11T09:29:29.819Z</time></trkpt><trkpt lat="43.1038609" lon="12.8865758"><ele>1498.0</ele><time>2026-04-11T09:29:30.824Z</time></trkpt><trkpt lat="43.1037885" lon="12.8866016"><ele>1498.5</ele><time>2026-04-11T09:29:31.828Z</time></trkpt><trkpt lat="43.1036981" lon="12.8866459"><ele>1499.0</ele><time>2026-04-11T09:29:32.831Z</time></trkpt><trkpt lat="43.1036009" lon="12.8867"><ele>1499.0</ele><time>2026-04-11T09:29:33.843Z</time></trkpt><trkpt lat="43.1034992" lon="12.886741"><ele>1499.0</ele><time>2026-04-11T09:29:34.843Z</time></trkpt><trkpt lat="43.1033769" lon="12.8867792"><ele>1499.0</ele><time>2026-04-11T09:29:35.859Z</time></trkpt><trkpt lat="43.1032634" lon="12.8868154"><ele>1499.0</ele><time>2026-04-11T09:29:36.842Z</time></trkpt><trkpt lat="43.1031594" lon="12.8868384"><ele>1506.0</ele><time>2026-04-11T09:29:37.833Z</time></trkpt><trkpt lat="43.1030537" lon="12.8868638"><ele>1513.0</ele><time>2026-04-11T09:29:38.854Z</time></trkpt><trkpt lat="43.1029465" lon="12.8868855"><ele>1520.0</ele><time>2026-04-11T09:29:39.841Z</time></trkpt><trkpt lat="43.1028481" lon="12.8869134"><ele>1527.0</ele><time>2026-04-11T09:29:40.863Z</time></trkpt><trkpt lat="43.1027523" lon="12.8869412"><ele>1534.0</ele><time>2026-04-11T09:29:41.836Z</time></trkpt><trkpt lat="43.1026661" lon="12.8869812"><ele>1534.0</ele><time>2026-04-11T09:29:42.844Z</time></trkpt><trkpt lat="43.1025776" lon="12.887037"><ele>1534.0</ele><time>2026-04-11T09:29:43.822Z</time></trkpt><trkpt lat="43.1024867" lon="12.887112"><ele>1534.0</ele><time>2026-04-11T09:29:44.826Z</time></trkpt><trkpt lat="43.1023844" lon="12.8872107"><ele>1534.0</ele><time>2026-04-11T09:29:45.828Z</time></trkpt><trkpt lat="43.1022717" lon="12.8873416"><ele>1536.25</ele><time>2026-04-11T09:29:46.836Z</time></trkpt><trkpt lat="43.1021682" lon="12.8874906"><ele>1538.5</ele><time>2026-04-11T09:29:47.83Z</time></trkpt><trkpt lat="43.1020714" lon="12.8876295"><ele>1540.75</ele><time>2026-04-11T09:29:48.822Z</time></trkpt><trkpt lat="43.1019685" lon="12.8877816"><ele>1543.0</ele><time>2026-04-11T09:29:49.828Z</time></trkpt><trkpt lat="43.1018579" lon="12.8879549"><ele>1546.2</ele><time>2026-04-11T09:29:50.834Z</time></trkpt><trkpt lat="43.1017615" lon="12.8881168"><ele>1549.4</ele><time>2026-04-11T09:29:51.828Z</time></trkpt><trkpt lat="43.101706" lon="12.8882243"><ele>1552.6000000000001</ele><time>2026-04-11T09:29:52.832Z</time></trkpt><trkpt lat="43.1016659" lon="12.8883173"><ele>1555.8000000000002</ele><time>2026-04-11T09:29:53.851Z</time></trkpt><trkpt lat="43.1016393" lon="12.8884089"><ele>1559.0</ele><time>2026-04-11T09:29:54.837Z</time></trkpt><trkpt lat="43.1016021" lon="12.8885218"><ele>1565.0</ele><time>2026-04-11T09:29:56.836Z</time></trkpt><trkpt lat="43.1015486" lon="12.888607"><ele>1560.0</ele><time>2026-04-11T09:29:59.851Z</time></trkpt><trkpt lat="43.1014752" lon="12.8886048"><ele>1560.0</ele><time>2026-04-11T09:30:01.835Z</time></trkpt><trkpt lat="43.1014046" lon="12.8886698"><ele>1560.0</ele><time>2026-04-11T09:30:03.822Z</time></trkpt></trkseg><trkseg><trkpt lat="43.1013439" lon="12.8887997"><ele>1560.0</ele><time>2026-04-11T09:45:37.838Z</time></trkpt><trkpt lat="43.1012968" lon="12.888891"><ele>1560.0</ele><time>2026-04-11T09:45:39.831Z</time></trkpt><trkpt lat="43.1012372" lon="12.8890011"><ele>1560.0</ele><time>2026-04-11T09:45:41.828Z</time></trkpt><trkpt lat="43.1011399" lon="12.8890388"><ele>1560.0</ele><time>2026-04-11T09:45:43.828Z</time></trkpt><trkpt lat="43.1010344" lon="12.8889928"><ele>1560.0</ele><time>2026-04-11T09:45:45.843Z</time></trkpt><trkpt lat="43.1009521" lon="12.8889188"><ele>1560.0</ele><time>2026-04-11T09:45:47.85Z</time></trkpt><trkpt lat="43.1009036" lon="12.8888419"><ele>1560.0</ele><time>2026-04-11T09:45:49.828Z</time></trkpt><trkpt lat="43.1008692" lon="12.8887447"><ele>1560.0</ele><time>2026-04-11T09:45:51.831Z</time></trkpt><trkpt lat="43.1008391" lon="12.8886563"><ele>1560.0</ele><time>2026-04-11T09:45:53.839Z</time></trkpt><trkpt lat="43.1008033" lon="12.8885705"><ele>1560.0</ele><time>2026-04-11T09:45:55.84Z</time></trkpt><trkpt lat="43.1008123" lon="12.8884684"><ele>1560.0</ele><time>2026-04-11T09:45:57.84Z</time></trkpt><trkpt lat="43.1008417" lon="12.8883784"><ele>1560.0</ele><time>2026-04-11T09:45:59.839Z</time></trkpt><trkpt lat="43.1008948" lon="12.8882793"><ele>1559.6</ele><time>2026-04-11T09:46:01.828Z</time></trkpt><trkpt lat="43.1009457" lon="12.8881632"><ele>1559.2</ele><time>2026-04-11T09:46:03.855Z</time></trkpt><trkpt lat="43.1009948" lon="12.8880523"><ele>1558.8000000000002</ele><time>2026-04-11T09:46:05.835Z</time></trkpt><trkpt lat="43.101034" lon="12.8879394"><ele>1558.4</ele><time>2026-04-11T09:46:07.841Z</time></trkpt><trkpt lat="43.1010418" lon="12.8878232"><ele>1558.0</ele><time>2026-04-11T09:46:09.833Z</time></trkpt><trkpt lat="43.1010356" lon="12.887704"><ele>1554.2</ele><time>2026-04-11T09:46:11.833Z</time></trkpt><trkpt lat="43.1010111" lon="12.8875835"><ele>1550.4</ele><time>2026-04-11T09:46:13.833Z</time></trkpt><trkpt lat="43.1009544" lon="12.8874405"><ele>1546.6000000000001</ele><time>2026-04-11T09:46:15.838Z</time></trkpt><trkpt lat="43.1009034" lon="12.8873094"><ele>1542.8000000000002</ele><time>2026-04-11T09:46:17.833Z</time></trkpt><trkpt lat="43.1008658" lon="12.8871636"><ele>1539.0</ele><time>2026-04-11T09:46:19.838Z</time></trkpt><trkpt lat="43.1008498" lon="12.8870749"><ele>1539.0</ele><time>2026-04-11T09:46:20.836Z</time></trkpt><trkpt lat="43.100833" lon="12.8869831"><ele>1539.0</ele><time>2026-04-11T09:46:21.826Z</time></trkpt><trkpt lat="43.1008195" lon="12.8868929"><ele>1539.0</ele><time>2026-04-11T09:46:22.833Z</time></trkpt><trkpt lat="43.1008035" lon="12.8868023"><ele>1539.0</ele><time>2026-04-11T09:46:23.835Z</time></trkpt><trkpt lat="43.1007873" lon="12.8867151"><ele>1539.0</ele><time>2026-04-11T09:46:24.83Z</time></trkpt><trkpt lat="43.1007745" lon="12.8866296"><ele>1539.0</ele><time>2026-04-11T09:46:25.832Z</time></trkpt><trkpt lat="43.1007646" lon="12.886538"><ele>1539.0</ele><time>2026-04-11T09:46:26.834Z</time></trkpt><trkpt lat="43.1007528" lon="12.8864451"><ele>1531.75</ele><time>2026-04-11T09:46:27.837Z</time></trkpt><trkpt lat="43.1007322" lon="12.8862789"><ele>1524.5</ele><time>2026-04-11T09:46:29.832Z</time></trkpt><trkpt lat="43.1007125" lon="12.8861165"><ele>1517.25</ele><time>2026-04-11T09:46:31.832Z</time></trkpt><trkpt lat="43.1006922" lon="12.8859614"><ele>1510.0</ele><time>2026-04-11T09:46:33.837Z</time></trkpt><trkpt lat="43.1006838" lon="12.8857919"><ele>1506.6</ele><time>2026-04-11T09:46:35.85Z</time></trkpt><trkpt lat="43.1006797" lon="12.8857018"><ele>1503.2</ele><time>2026-04-11T09:46:36.849Z</time></trkpt><trkpt lat="43.1006791" lon="12.8856138"><ele>1499.8000000000002</ele><time>2026-04-11T09:46:37.833Z</time></trkpt><trkpt lat="43.1006687" lon="12.8854512"><ele>1496.4</ele><time>2026-04-11T09:46:39.825Z</time></trkpt><trkpt lat="43.1006444" lon="12.8852998"><ele>1493.0</ele><time>2026-04-11T09:46:41.83Z</time></trkpt><trkpt lat="43.1006226" lon="12.8851482"><ele>1491.4</ele><time>2026-04-11T09:46:43.859Z</time></trkpt><trkpt lat="43.1005836" lon="12.885003"><ele>1489.8000000000002</ele><time>2026-04-11T09:46:45.837Z</time></trkpt><trkpt lat="43.100538" lon="12.8848627"><ele>1488.2</ele><time>2026-04-11T09:46:47.828Z</time></trkpt><trkpt lat="43.1004807" lon="12.8847306"><ele>1486.6</ele><time>2026-04-11T09:46:49.837Z</time></trkpt><trkpt lat="43.1004161" lon="12.8846062"><ele>1485.0</ele><time>2026-04-11T09:46:51.842Z</time></trkpt><trkpt lat="43.1003463" lon="12.8844907"><ele>1485.0</ele><time>2026-04-11T09:46:53.834Z</time></trkpt><trkpt lat="43.1002763" lon="12.8843912"><ele>1485.0</ele><time>2026-04-11T09:46:55.836Z</time></trkpt><trkpt lat="43.1002168" lon="12.884294"><ele>1485.0</ele><time>2026-04-11T09:46:57.834Z</time></trkpt><trkpt lat="43.1001473" lon="12.8841976"><ele>1485.0</ele><time>2026-04-11T09:46:59.832Z</time></trkpt><trkpt lat="43.1000559" lon="12.8840847"><ele>1485.0</ele><time>2026-04-11T09:47:01.844Z</time></trkpt><trkpt lat="43.100008" lon="12.8840271"><ele>1485.4285714285716</ele><time>2026-04-11T09:47:02.827Z</time></trkpt><trkpt lat="43.0999534" lon="12.883975"><ele>1485.857142857143</ele><time>2026-04-11T09:47:03.828Z</time></trkpt><trkpt lat="43.0998996" lon="12.8839218"><ele>1486.2857142857142</ele><time>2026-04-11T09:47:04.84Z</time></trkpt><trkpt lat="43.0998428" lon="12.8838704"><ele>1486.7142857142858</ele><time>2026-04-11T09:47:05.835Z</time></trkpt><trkpt lat="43.0997788" lon="12.8838221"><ele>1487.142857142857</ele><time>2026-04-11T09:47:06.832Z</time></trkpt><trkpt lat="43.0997143" lon="12.8837727"><ele>1487.5714285714287</ele><time>2026-04-11T09:47:07.83Z</time></trkpt><trkpt lat="43.0996411" lon="12.8837267"><ele>1488.0</ele><time>2026-04-11T09:47:08.833Z</time></trkpt><trkpt lat="43.0995682" lon="12.8836794"><ele>1488.5</ele><time>2026-04-11T09:47:09.834Z</time></trkpt><trkpt lat="43.099489" lon="12.8836351"><ele>1489.0</ele><time>2026-04-11T09:47:10.836Z</time></trkpt><trkpt lat="43.0994151" lon="12.8835903"><ele>1489.5</ele><time>2026-04-11T09:47:11.832Z</time></trkpt><trkpt lat="43.0993461" lon="12.8835414"><ele>1490.0</ele><time>2026-04-11T09:47:12.843Z</time></trkpt><trkpt lat="43.0992792" lon="12.8834965"><ele>1490.5</ele><time>2026-04-11T09:47:13.829Z</time></trkpt><trkpt lat="43.0992059" lon="12.8834525"><ele>1491.0</ele><time>2026-04-11T09:47:14.845Z</time></trkpt><trkpt lat="43.0991387" lon="12.8834098"><ele>1494.1666666666667</ele><time>2026-04-11T09:47:15.835Z</time></trkpt><trkpt lat="43.0990639" lon="12.88338"><ele>1497.3333333333333</ele><time>2026-04-11T09:47:16.837Z</time></trkpt><trkpt lat="43.0989894" lon="12.8833811"><ele>1500.5</ele><time>2026-04-11T09:47:17.836Z</time></trkpt><trkpt lat="43.0989095" lon="12.8833871"><ele>1503.6666666666665</ele><time>2026-04-11T09:47:18.842Z</time></trkpt><trkpt lat="43.0988402" lon="12.8833847"><ele>1506.8333333333333</ele><time>2026-04-11T09:47:19.838Z</time></trkpt><trkpt lat="43.0987692" lon="12.8833325"><ele>1510.0</ele><time>2026-04-11T09:47:21.832Z</time></trkpt><trkpt lat="43.0987086" lon="12.8832503"><ele>1510.0</ele><time>2026-04-11T09:47:23.837Z</time></trkpt><trkpt lat="43.0986494" lon="12.8831202"><ele>1510.0</ele><time>2026-04-11T09:47:25.828Z</time></trkpt><trkpt lat="43.0986114" lon="12.8830318"><ele>1510.0</ele><time>2026-04-11T09:47:26.842Z</time></trkpt><trkpt lat="43.0985742" lon="12.8829239"><ele>1510.0</ele><time>2026-04-11T09:47:27.835Z</time></trkpt><trkpt lat="43.0985362" lon="12.8828149"><ele>1510.0</ele><time>2026-04-11T09:47:28.838Z</time></trkpt><trkpt lat="43.0984866" lon="12.8827096"><ele>1510.0</ele><time>2026-04-11T09:47:29.836Z</time></trkpt><trkpt lat="43.0984324" lon="12.8826248"><ele>1510.0</ele><time>2026-04-11T09:47:30.836Z</time></trkpt><trkpt lat="43.0983769" lon="12.8825523"><ele>1510.0</ele><time>2026-04-11T09:47:31.834Z</time></trkpt><trkpt lat="43.0983052" lon="12.8824554"><ele>1510.0</ele><time>2026-04-11T09:47:33.829Z</time></trkpt><trkpt lat="43.0982311" lon="12.8824028"><ele>1510.0</ele><time>2026-04-11T09:47:35.831Z</time></trkpt><trkpt lat="43.0981388" lon="12.8823829"><ele>1510.0</ele><time>2026-04-11T09:47:37.817Z</time></trkpt><trkpt lat="43.0980613" lon="12.8824108"><ele>1511.0</ele><time>2026-04-11T09:47:39.833Z</time></trkpt><trkpt lat="43.097955" lon="12.8824407"><ele>1512.0</ele><time>2026-04-11T09:47:41.83Z</time></trkpt><trkpt lat="43.0978529" lon="12.8824635"><ele>1513.0</ele><time>2026-04-11T09:47:43.844Z</time></trkpt><trkpt lat="43.0977773" lon="12.8825018"><ele>1514.0</ele><time>2026-04-11T09:47:45.827Z</time></trkpt><trkpt lat="43.0977195" lon="12.8825695"><ele>1515.0</ele><time>2026-04-11T09:47:47.837Z</time></trkpt><trkpt lat="43.097681" lon="12.8826837"><ele>1515.0</ele><time>2026-04-11T09:47:49.836Z</time></trkpt><trkpt lat="43.0976334" lon="12.882812"><ele>1515.0</ele><time>2026-04-11T09:47:51.829Z</time></trkpt><trkpt lat="43.0975684" lon="12.8829454"><ele>1515.0</ele><time>2026-04-11T09:47:53.827Z</time></trkpt><trkpt lat="43.0975295" lon="12.8830231"><ele>1515.0</ele><time>2026-04-11T09:47:54.843Z</time></trkpt><trkpt lat="43.0974843" lon="12.8830945"><ele>1515.0</ele><time>2026-04-11T09:47:55.828Z</time></trkpt><trkpt lat="43.0974348" lon="12.8831565"><ele>1515.0</ele><time>2026-04-11T09:47:56.835Z</time></trkpt><trkpt lat="43.0973863" lon="12.8832281"><ele>1513.5</ele><time>2026-04-11T09:47:57.831Z</time></trkpt><trkpt lat="43.0973382" lon="12.883298"><ele>1512.0</ele><time>2026-04-11T09:47:58.835Z</time></trkpt><trkpt lat="43.0972607" lon="12.8834168"><ele>1510.5</ele><time>2026-04-11T09:48:00.837Z</time></trkpt><trkpt lat="43.0971878" lon="12.8834818"><ele>1509.0</ele><time>2026-04-11T09:48:02.832Z</time></trkpt><trkpt lat="43.097108" lon="12.8834857"><ele>1507.5</ele><time>2026-04-11T09:48:04.847Z</time></trkpt><trkpt lat="43.0970376" lon="12.8834997"><ele>1506.0</ele><time>2026-04-11T09:48:06.837Z</time></trkpt><trkpt lat="43.0969727" lon="12.8835067"><ele>1506.0</ele><time>2026-04-11T09:48:08.841Z</time></trkpt><trkpt lat="43.09691" lon="12.8834919"><ele>1506.0</ele><time>2026-04-11T09:48:10.839Z</time></trkpt><trkpt lat="43.0968521" lon="12.8834559"><ele>1506.0</ele><time>2026-04-11T09:48:12.835Z</time></trkpt><trkpt lat="43.096802" lon="12.8834011"><ele>1506.0</ele><time>2026-04-11T09:48:14.837Z</time></trkpt><trkpt lat="43.0967485" lon="12.8833122"><ele>1506.0</ele><time>2026-04-11T09:48:17.833Z</time></trkpt><trkpt lat="43.0966941" lon="12.8832421"><ele>1506.0</ele><time>2026-04-11T09:55:06.841Z</time></trkpt><trkpt lat="43.0966512" lon="12.8831619"><ele>1506.0</ele><time>2026-04-11T09:55:08.836Z</time></trkpt><trkpt lat="43.096592" lon="12.8830781"><ele>1504.1999999999998</ele><time>2026-04-11T09:55:10.837Z</time></trkpt><trkpt lat="43.0965195" lon="12.882991"><ele>1502.3999999999999</ele><time>2026-04-11T09:55:12.832Z</time></trkpt><trkpt lat="43.0964343" lon="12.8828957"><ele>1500.6</ele><time>2026-04-11T09:55:14.839Z</time></trkpt><trkpt lat="43.0963874" lon="12.8828299"><ele>1498.8</ele><time>2026-04-11T09:55:15.829Z</time></trkpt><trkpt lat="43.096298" lon="12.8827143"><ele>1497.0</ele><time>2026-04-11T09:55:17.834Z</time></trkpt><trkpt lat="43.0962493" lon="12.882636"><ele>1496.8</ele><time>2026-04-11T09:55:18.836Z</time></trkpt><trkpt lat="43.0961892" lon="12.8825417"><ele>1496.6</ele><time>2026-04-11T09:55:19.836Z</time></trkpt><trkpt lat="43.0961323" lon="12.8824436"><ele>1496.3999999999999</ele><time>2026-04-11T09:55:20.837Z</time></trkpt><trkpt lat="43.0960718" lon="12.8823435"><ele>1496.1999999999998</ele><time>2026-04-11T09:55:21.827Z</time></trkpt><trkpt lat="43.0960137" lon="12.8822494"><ele>1496.0</ele><time>2026-04-11T09:55:22.84Z</time></trkpt><trkpt lat="43.0959609" lon="12.8821559"><ele>1496.0</ele><time>2026-04-11T09:55:23.83Z</time></trkpt><trkpt lat="43.0959146" lon="12.88207"><ele>1496.0</ele><time>2026-04-11T09:55:24.836Z</time></trkpt><trkpt lat="43.0958704" lon="12.8819855"><ele>1496.0</ele><time>2026-04-11T09:55:25.836Z</time></trkpt><trkpt lat="43.0958326" lon="12.8819042"><ele>1496.0</ele><time>2026-04-11T09:55:26.835Z</time></trkpt><trkpt lat="43.095792" lon="12.881823"><ele>1496.0</ele><time>2026-04-11T09:55:27.832Z</time></trkpt><trkpt lat="43.0957388" lon="12.8817731"><ele>1496.0</ele><time>2026-04-11T09:55:28.833Z</time></trkpt><trkpt lat="43.095636" lon="12.8817644"><ele>1493.75</ele><time>2026-04-11T09:55:30.84Z</time></trkpt><trkpt lat="43.0955544" lon="12.8818707"><ele>1491.5</ele><time>2026-04-11T09:55:32.834Z</time></trkpt><trkpt lat="43.0954993" lon="12.8820102"><ele>1489.25</ele><time>2026-04-11T09:55:34.852Z</time></trkpt><trkpt lat="43.0954393" lon="12.8821851"><ele>1487.0</ele><time>2026-04-11T09:55:36.845Z</time></trkpt><trkpt lat="43.0954022" lon="12.8822919"><ele>1487.0</ele><time>2026-04-11T09:55:37.826Z</time></trkpt><trkpt lat="43.0953603" lon="12.8824013"><ele>1487.0</ele><time>2026-04-11T09:55:38.823Z</time></trkpt><trkpt lat="43.0953098" lon="12.8825077"><ele>1487.0</ele><time>2026-04-11T09:55:39.84Z</time></trkpt><trkpt lat="43.0952515" lon="12.8826181"><ele>1487.0</ele><time>2026-04-11T09:55:40.839Z</time></trkpt><trkpt lat="43.0951871" lon="12.882729"><ele>1487.0</ele><time>2026-04-11T09:55:41.837Z</time></trkpt><trkpt lat="43.0951291" lon="12.8828325"><ele>1486.8333333333335</ele><time>2026-04-11T09:55:42.835Z</time></trkpt><trkpt lat="43.0950733" lon="12.882929"><ele>1486.6666666666667</ele><time>2026-04-11T09:55:43.847Z</time></trkpt><trkpt lat="43.0950148" lon="12.883023"><ele>1486.5</ele><time>2026-04-11T09:55:44.833Z</time></trkpt><trkpt lat="43.0949595" lon="12.8831163"><ele>1486.3333333333333</ele><time>2026-04-11T09:55:45.83Z</time></trkpt><trkpt lat="43.0949047" lon="12.8832119"><ele>1486.1666666666665</ele><time>2026-04-11T09:55:46.838Z</time></trkpt><trkpt lat="43.0948568" lon="12.8833091"><ele>1486.0</ele><time>2026-04-11T09:55:47.838Z</time></trkpt><trkpt lat="43.0948111" lon="12.8834121"><ele>1482.8</ele><time>2026-04-11T09:55:48.844Z</time></trkpt><trkpt lat="43.0947709" lon="12.8835178"><ele>1479.6</ele><time>2026-04-11T09:55:49.834Z</time></trkpt><trkpt lat="43.0947338" lon="12.88363"><ele>1476.4</ele><time>2026-04-11T09:55:50.84Z</time></trkpt><trkpt lat="43.0946931" lon="12.8837443"><ele>1473.2</ele><time>2026-04-11T09:55:51.831Z</time></trkpt><trkpt lat="43.0946475" lon="12.8838695"><ele>1470.0</ele><time>2026-04-11T09:55:52.841Z</time></trkpt><trkpt lat="43.0945935" lon="12.8840033"><ele>1470.0</ele><time>2026-04-11T09:55:53.833Z</time></trkpt><trkpt lat="43.0945365" lon="12.8841272"><ele>1470.0</ele><time>2026-04-11T09:55:54.842Z</time></trkpt><trkpt lat="43.0944808" lon="12.8842448"><ele>1470.0</ele><time>2026-04-11T09:55:55.84Z</time></trkpt><trkpt lat="43.0944202" lon="12.8843549"><ele>1470.0</ele><time>2026-04-11T09:55:56.836Z</time></trkpt><trkpt lat="43.0943645" lon="12.8844635"><ele>1470.0</ele><time>2026-04-11T09:55:57.836Z</time></trkpt><trkpt lat="43.0943128" lon="12.8845688"><ele>1470.142857142857</ele><time>2026-04-11T09:55:58.84Z</time></trkpt><trkpt lat="43.0942679" lon="12.8846688"><ele>1470.2857142857142</ele><time>2026-04-11T09:55:59.835Z</time></trkpt><trkpt lat="43.0942303" lon="12.8847685"><ele>1470.4285714285716</ele><time>2026-04-11T09:56:00.842Z</time></trkpt><trkpt lat="43.0941979" lon="12.8848685"><ele>1470.5714285714284</ele><time>2026-04-11T09:56:01.843Z</time></trkpt><trkpt lat="43.0941617" lon="12.884946"><ele>1470.7142857142858</ele><time>2026-04-11T09:56:02.843Z</time></trkpt><trkpt lat="43.0941093" lon="12.8849982"><ele>1470.857142857143</ele><time>2026-04-11T09:56:03.839Z</time></trkpt><trkpt lat="43.0940438" lon="12.8850149"><ele>1471.0</ele><time>2026-04-11T09:56:04.838Z</time></trkpt><trkpt lat="43.0939799" lon="12.8849848"><ele>1468.4</ele><time>2026-04-11T09:56:05.823Z</time></trkpt><trkpt lat="43.0939341" lon="12.8848219"><ele>1465.8</ele><time>2026-04-11T09:56:07.844Z</time></trkpt><trkpt lat="43.0939362" lon="12.8847113"><ele>1463.2</ele><time>2026-04-11T09:56:08.835Z</time></trkpt><trkpt lat="43.0939294" lon="12.8846002"><ele>1460.6000000000001</ele><time>2026-04-11T09:56:09.836Z</time></trkpt><trkpt lat="43.093901" lon="12.8844701"><ele>1458.0</ele><time>2026-04-11T09:56:10.836Z</time></trkpt><trkpt lat="43.0938537" lon="12.8843448"><ele>1459.0</ele><time>2026-04-11T09:56:11.833Z</time></trkpt><trkpt lat="43.0937837" lon="12.8842241"><ele>1460.0</ele><time>2026-04-11T09:56:12.839Z</time></trkpt><trkpt lat="43.0937102" lon="12.8841232"><ele>1461.0</ele><time>2026-04-11T09:56:13.831Z</time></trkpt><trkpt lat="43.0936321" lon="12.8840407"><ele>1462.0</ele><time>2026-04-11T09:56:14.85Z</time></trkpt><trkpt lat="43.0935544" lon="12.8839604"><ele>1463.0</ele><time>2026-04-11T09:56:15.834Z</time></trkpt><trkpt lat="43.0934833" lon="12.8838799"><ele>1463.0</ele><time>2026-04-11T09:56:16.842Z</time></trkpt><trkpt lat="43.0934168" lon="12.8837975"><ele>1463.0</ele><time>2026-04-11T09:56:17.835Z</time></trkpt><trkpt lat="43.0933552" lon="12.8837175"><ele>1463.0</ele><time>2026-04-11T09:56:18.838Z</time></trkpt><trkpt lat="43.0932881" lon="12.8836503"><ele>1463.0</ele><time>2026-04-11T09:56:19.837Z</time></trkpt><trkpt lat="43.093216" lon="12.8835849"><ele>1463.0</ele><time>2026-04-11T09:56:20.844Z</time></trkpt><trkpt lat="43.0931343" lon="12.8835204"><ele>1463.0</ele><time>2026-04-11T09:56:21.813Z</time></trkpt><trkpt lat="43.0930493" lon="12.883448"><ele>1462.8000000000002</ele><time>2026-04-11T09:56:22.839Z</time></trkpt><trkpt lat="43.092964" lon="12.8833694"><ele>1462.6</ele><time>2026-04-11T09:56:23.831Z</time></trkpt><trkpt lat="43.092873" lon="12.8832882"><ele>1462.4</ele><time>2026-04-11T09:56:24.843Z</time></trkpt><trkpt lat="43.0927792" lon="12.8832021"><ele>1462.1999999999998</ele><time>2026-04-11T09:56:25.84Z</time></trkpt><trkpt lat="43.0926831" lon="12.8831147"><ele>1462.0</ele><time>2026-04-11T09:56:26.84Z</time></trkpt><trkpt lat="43.0925897" lon="12.8830279"><ele>1462.0</ele><time>2026-04-11T09:56:27.835Z</time></trkpt><trkpt lat="43.092501" lon="12.8829499"><ele>1462.0</ele><time>2026-04-11T09:56:28.843Z</time></trkpt><trkpt lat="43.0924234" lon="12.8828823"><ele>1462.0</ele><time>2026-04-11T09:56:29.834Z</time></trkpt><trkpt lat="43.0923493" lon="12.8828169"><ele>1462.0</ele><time>2026-04-11T09:56:30.835Z</time></trkpt><trkpt lat="43.0922721" lon="12.882749"><ele>1462.0</ele><time>2026-04-11T09:56:31.834Z</time></trkpt><trkpt lat="43.0921923" lon="12.8826708"><ele>1460.75</ele><time>2026-04-11T09:56:32.828Z</time></trkpt><trkpt lat="43.0921019" lon="12.8825918"><ele>1459.5</ele><time>2026-04-11T09:56:33.828Z</time></trkpt><trkpt lat="43.0920057" lon="12.88251"><ele>1458.25</ele><time>2026-04-11T09:56:34.835Z</time></trkpt><trkpt lat="43.0919045" lon="12.8824257"><ele>1457.0</ele><time>2026-04-11T09:56:35.832Z</time></trkpt><trkpt lat="43.091808" lon="12.8823464"><ele>1457.0</ele><time>2026-04-11T09:56:36.846Z</time></trkpt><trkpt lat="43.0917184" lon="12.8822752"><ele>1457.0</ele><time>2026-04-11T09:56:37.829Z</time></trkpt><trkpt lat="43.0916317" lon="12.8822058"><ele>1457.0</ele><time>2026-04-11T09:56:38.835Z</time></trkpt><trkpt lat="43.0915525" lon="12.8821406"><ele>1457.0</ele><time>2026-04-11T09:56:39.835Z</time></trkpt><trkpt lat="43.0914761" lon="12.8820841"><ele>1457.0</ele><time>2026-04-11T09:56:40.835Z</time></trkpt><trkpt lat="43.0913977" lon="12.8820287"><ele>1456.5</ele><time>2026-04-11T09:56:41.834Z</time></trkpt><trkpt lat="43.0913252" lon="12.8819773"><ele>1456.0</ele><time>2026-04-11T09:56:42.842Z</time></trkpt><trkpt lat="43.0912509" lon="12.8819254"><ele>1455.5</ele><time>2026-04-11T09:56:43.835Z</time></trkpt><trkpt lat="43.0911762" lon="12.8818861"><ele>1455.0</ele><time>2026-04-11T09:56:44.839Z</time></trkpt><trkpt lat="43.091096" lon="12.8818572"><ele>1454.5</ele><time>2026-04-11T09:56:45.838Z</time></trkpt><trkpt lat="43.0910136" lon="12.8818485"><ele>1454.0</ele><time>2026-04-11T09:56:46.837Z</time></trkpt><trkpt lat="43.0909279" lon="12.8818631"><ele>1454.0</ele><time>2026-04-11T09:56:47.842Z</time></trkpt><trkpt lat="43.0908312" lon="12.8819028"><ele>1454.0</ele><time>2026-04-11T09:56:48.835Z</time></trkpt><trkpt lat="43.0907305" lon="12.8819543"><ele>1454.0</ele><time>2026-04-11T09:56:49.832Z</time></trkpt><trkpt lat="43.0906212" lon="12.8820079"><ele>1454.0</ele><time>2026-04-11T09:56:50.833Z</time></trkpt><trkpt lat="43.0905113" lon="12.88206"><ele>1454.0</ele><time>2026-04-11T09:56:51.842Z</time></trkpt><trkpt lat="43.0904095" lon="12.8821075"><ele>1452.0</ele><time>2026-04-11T09:56:52.835Z</time></trkpt><trkpt lat="43.0903086" lon="12.8821507"><ele>1450.0</ele><time>2026-04-11T09:56:53.842Z</time></trkpt><trkpt lat="43.0902127" lon="12.8821951"><ele>1448.0</ele><time>2026-04-11T09:56:54.834Z</time></trkpt><trkpt lat="43.0901124" lon="12.8822519"><ele>1446.0</ele><time>2026-04-11T09:56:55.839Z</time></trkpt><trkpt lat="43.0900174" lon="12.8823356"><ele>1444.0</ele><time>2026-04-11T09:56:56.837Z</time></trkpt><trkpt lat="43.0899306" lon="12.882427"><ele>1443.6</ele><time>2026-04-11T09:56:57.832Z</time></trkpt><trkpt lat="43.0898435" lon="12.8825139"><ele>1443.2</ele><time>2026-04-11T09:56:58.837Z</time></trkpt><trkpt lat="43.089759" lon="12.8825947"><ele>1442.8</ele><time>2026-04-11T09:56:59.832Z</time></trkpt><trkpt lat="43.0896848" lon="12.8826747"><ele>1442.3999999999999</ele><time>2026-04-11T09:57:00.837Z</time></trkpt><trkpt lat="43.0896088" lon="12.8827497"><ele>1442.0</ele><time>2026-04-11T09:57:01.832Z</time></trkpt><trkpt lat="43.0895336" lon="12.8828189"><ele>1442.0</ele><time>2026-04-11T09:57:02.833Z</time></trkpt><trkpt lat="43.0894512" lon="12.8828928"><ele>1442.0</ele><time>2026-04-11T09:57:03.839Z</time></trkpt><trkpt lat="43.0893766" lon="12.882966"><ele>1442.0</ele><time>2026-04-11T09:57:04.837Z</time></trkpt><trkpt lat="43.0892966" lon="12.8830427"><ele>1442.0</ele><time>2026-04-11T09:57:05.831Z</time></trkpt><trkpt lat="43.0892121" lon="12.8831335"><ele>1442.0</ele><time>2026-04-11T09:57:06.83Z</time></trkpt><trkpt lat="43.0891251" lon="12.8832242"><ele>1439.6</ele><time>2026-04-11T09:57:07.837Z</time></trkpt><trkpt lat="43.0890409" lon="12.8833222"><ele>1437.1999999999998</ele><time>2026-04-11T09:57:08.835Z</time></trkpt><trkpt lat="43.0889594" lon="12.8834299"><ele>1434.8</ele><time>2026-04-11T09:57:09.835Z</time></trkpt><trkpt lat="43.0888881" lon="12.8835458"><ele>1432.4</ele><time>2026-04-11T09:57:10.836Z</time></trkpt><trkpt lat="43.0888255" lon="12.883668"><ele>1430.0</ele><time>2026-04-11T09:57:11.837Z</time></trkpt><trkpt lat="43.0887699" lon="12.8837874"><ele>1429.2</ele><time>2026-04-11T09:57:12.837Z</time></trkpt><trkpt lat="43.0887203" lon="12.8839065"><ele>1428.4</ele><time>2026-04-11T09:57:13.831Z</time></trkpt><trkpt lat="43.0886806" lon="12.8840237"><ele>1427.6</ele><time>2026-04-11T09:57:14.844Z</time></trkpt><trkpt lat="43.088644" lon="12.8841394"><ele>1426.8</ele><time>2026-04-11T09:57:15.834Z</time></trkpt><trkpt lat="43.0886192" lon="12.8842529"><ele>1426.0</ele><time>2026-04-11T09:57:16.841Z</time></trkpt><trkpt lat="43.0886039" lon="12.8843726"><ele>1424.6666666666665</ele><time>2026-04-11T09:57:17.841Z</time></trkpt><trkpt lat="43.0886026" lon="12.8844803"><ele>1423.3333333333333</ele><time>2026-04-11T09:57:18.842Z</time></trkpt><trkpt lat="43.088604" lon="12.8845885"><ele>1422.0</ele><time>2026-04-11T09:57:19.841Z</time></trkpt><trkpt lat="43.088604" lon="12.8846756"><ele>1420.6666666666667</ele><time>2026-04-11T09:57:20.835Z</time></trkpt><trkpt lat="43.0886142" lon="12.8847964"><ele>1419.3333333333335</ele><time>2026-04-11T09:57:22.842Z</time></trkpt><trkpt lat="43.0886335" lon="12.8849026"><ele>1418.0</ele><time>2026-04-11T09:57:26.834Z</time></trkpt><trkpt lat="43.0886501" lon="12.884993"><ele>1416.5</ele><time>2026-04-11T09:57:31.846Z</time></trkpt><trkpt lat="43.088683" lon="12.8851117"><ele>1415.0</ele><time>2026-04-11T09:57:35.838Z</time></trkpt><trkpt lat="43.0887054" lon="12.8852036"><ele>1413.5</ele><time>2026-04-11T09:57:37.836Z</time></trkpt><trkpt lat="43.0887198" lon="12.885322"><ele>1412.0</ele><time>2026-04-11T09:57:40.832Z</time></trkpt><trkpt lat="43.0887403" lon="12.8854422"><ele>1410.5</ele><time>2026-04-11T09:57:43.829Z</time></trkpt><trkpt lat="43.0887549" lon="12.8855318"><ele>1409.0</ele><time>2026-04-11T09:57:49.831Z</time></trkpt><trkpt lat="43.0887633" lon="12.8856215"><ele>1409.0</ele><time>2026-04-11T09:58:02.83Z</time></trkpt><trkpt lat="43.0887358" lon="12.8857225"><ele>1409.0</ele><time>2026-04-11T09:58:09.827Z</time></trkpt><trkpt lat="43.0887234" lon="12.885817"><ele>1409.0</ele><time>2026-04-11T09:58:11.827Z</time></trkpt><trkpt lat="43.0886897" lon="12.8859128"><ele>1409.0</ele><time>2026-04-11T09:58:13.869Z</time></trkpt><trkpt lat="43.0886217" lon="12.8859576"><ele>1409.0</ele><time>2026-04-11T09:58:16.83Z</time></trkpt><trkpt lat="43.0885859" lon="12.8858854"><ele>1409.0</ele><time>2026-04-11T09:58:18.835Z</time></trkpt><trkpt lat="43.0885804" lon="12.8857938"><ele>1409.0</ele><time>2026-04-11T09:58:22.843Z</time></trkpt><trkpt lat="43.0885263" lon="12.8856831"><ele>1409.0</ele><time>2026-04-11T09:58:35.83Z</time></trkpt><trkpt lat="43.0884823" lon="12.885579"><ele>1409.0</ele><time>2026-04-11T09:58:37.828Z</time></trkpt><trkpt lat="43.0884428" lon="12.8854809"><ele>1409.0</ele><time>2026-04-11T09:58:39.83Z</time></trkpt><trkpt lat="43.0884051" lon="12.8854029"><ele>1409.0</ele><time>2026-04-11T09:58:41.844Z</time></trkpt><trkpt lat="43.0883688" lon="12.8853256"><ele>1409.0</ele><time>2026-04-11T09:58:43.834Z</time></trkpt><trkpt lat="43.0883188" lon="12.8852155"><ele>1409.0</ele><time>2026-04-11T09:58:46.832Z</time></trkpt><trkpt lat="43.0882538" lon="12.8851112"><ele>1405.3333333333335</ele><time>2026-04-11T09:58:48.831Z</time></trkpt><trkpt lat="43.0882119" lon="12.8850399"><ele>1401.6666666666667</ele><time>2026-04-11T09:58:49.82Z</time></trkpt><trkpt lat="43.0881697" lon="12.8849566"><ele>1398.0</ele><time>2026-04-11T09:58:50.842Z</time></trkpt><trkpt lat="43.0881259" lon="12.8848636"><ele>1394.3333333333333</ele><time>2026-04-11T09:58:51.827Z</time></trkpt><trkpt lat="43.0880746" lon="12.8847593"><ele>1390.6666666666665</ele><time>2026-04-11T09:58:52.833Z</time></trkpt><trkpt lat="43.0880238" lon="12.8846513"><ele>1387.0</ele><time>2026-04-11T09:58:53.832Z</time></trkpt><trkpt lat="43.087974" lon="12.8845502"><ele>1387.0</ele><time>2026-04-11T09:58:54.831Z</time></trkpt><trkpt lat="43.0879261" lon="12.8844504"><ele>1387.0</ele><time>2026-04-11T09:58:55.827Z</time></trkpt><trkpt lat="43.0878807" lon="12.8843542"><ele>1387.0</ele><time>2026-04-11T09:58:56.833Z</time></trkpt><trkpt lat="43.0878312" lon="12.8842626"><ele>1387.0</ele><time>2026-04-11T09:58:57.819Z</time></trkpt><trkpt lat="43.0877842" lon="12.8841716"><ele>1387.0</ele><time>2026-04-11T09:58:58.83Z</time></trkpt><trkpt lat="43.0877346" lon="12.8840801"><ele>1387.0</ele><time>2026-04-11T09:58:59.825Z</time></trkpt><trkpt lat="43.0876941" lon="12.8839914"><ele>1387.857142857143</ele><time>2026-04-11T09:59:00.826Z</time></trkpt><trkpt lat="43.087654" lon="12.8839004"><ele>1388.7142857142858</ele><time>2026-04-11T09:59:01.821Z</time></trkpt><trkpt lat="43.0876168" lon="12.8838026"><ele>1389.5714285714284</ele><time>2026-04-11T09:59:02.83Z</time></trkpt><trkpt lat="43.087582" lon="12.8837096"><ele>1390.4285714285716</ele><time>2026-04-11T09:59:03.828Z</time></trkpt><trkpt lat="43.0875493" lon="12.8836196"><ele>1391.2857142857142</ele><time>2026-04-11T09:59:04.836Z</time></trkpt><trkpt lat="43.0875209" lon="12.8835314"><ele>1392.142857142857</ele><time>2026-04-11T09:59:05.82Z</time></trkpt><trkpt lat="43.0874922" lon="12.8834484"><ele>1393.0</ele><time>2026-04-11T09:59:06.822Z</time></trkpt><trkpt lat="43.0874402" lon="12.8832926"><ele>1387.6666666666665</ele><time>2026-04-11T09:59:08.824Z</time></trkpt><trkpt lat="43.0874109" lon="12.8832148"><ele>1382.3333333333333</ele><time>2026-04-11T09:59:09.821Z</time></trkpt><trkpt lat="43.0873589" lon="12.8830765"><ele>1377.0</ele><time>2026-04-11T09:59:11.825Z</time></trkpt><trkpt lat="43.0873189" lon="12.8829636"><ele>1371.6666666666667</ele><time>2026-04-11T09:59:13.829Z</time></trkpt><trkpt lat="43.0872901" lon="12.8828611"><ele>1366.3333333333335</ele><time>2026-04-11T09:59:15.832Z</time></trkpt><trkpt lat="43.0872578" lon="12.8827686"><ele>1361.0</ele><time>2026-04-11T09:59:17.826Z</time></trkpt><trkpt lat="43.0872322" lon="12.8826855"><ele>1361.0</ele><time>2026-04-11T09:59:19.826Z</time></trkpt><trkpt lat="43.0872018" lon="12.8826084"><ele>1361.0</ele><time>2026-04-11T09:59:21.831Z</time></trkpt><trkpt lat="43.0871673" lon="12.8824885"><ele>1361.0</ele><time>2026-04-11T09:59:24.83Z</time></trkpt><trkpt lat="43.0871401" lon="12.8824077"><ele>1361.0</ele><time>2026-04-11T09:59:26.837Z</time></trkpt><trkpt lat="43.087112" lon="12.882292"><ele>1361.0</ele><time>2026-04-11T09:59:29.826Z</time></trkpt><trkpt lat="43.0870798" lon="12.8821827"><ele>1361.0</ele><time>2026-04-11T09:59:33.826Z</time></trkpt><trkpt lat="43.0870598" lon="12.8820907"><ele>1362.0</ele><time>2026-04-11T09:59:35.823Z</time></trkpt><trkpt lat="43.0870354" lon="12.8819969"><ele>1363.0</ele><time>2026-04-11T09:59:38.835Z</time></trkpt><trkpt lat="43.0870051" lon="12.8819122"><ele>1364.0</ele><time>2026-04-11T09:59:43.826Z</time></trkpt><trkpt lat="43.0869786" lon="12.8818016"><ele>1365.0</ele><time>2026-04-11T09:59:48.826Z</time></trkpt><trkpt lat="43.0869526" lon="12.8816949"><ele>1366.0</ele><time>2026-04-11T09:59:51.828Z</time></trkpt><trkpt lat="43.0869248" lon="12.8815927"><ele>1367.0</ele><time>2026-04-11T09:59:55.849Z</time></trkpt><trkpt lat="43.0869059" lon="12.8815043"><ele>1367.0</ele><time>2026-04-11T09:59:57.831Z</time></trkpt><trkpt lat="43.0868792" lon="12.881377"><ele>1367.0</ele><time>2026-04-11T09:59:59.829Z</time></trkpt><trkpt lat="43.0868494" lon="12.8812361"><ele>1367.0</ele><time>2026-04-11T10:00:01.832Z</time></trkpt><trkpt lat="43.0868272" lon="12.8810964"><ele>1367.0</ele><time>2026-04-11T10:00:03.825Z</time></trkpt><trkpt lat="43.0868032" lon="12.8809338"><ele>1367.0</ele><time>2026-04-11T10:00:05.84Z</time></trkpt><trkpt lat="43.0867928" lon="12.8808404"><ele>1367.8333333333335</ele><time>2026-04-11T10:00:06.834Z</time></trkpt><trkpt lat="43.0867853" lon="12.8807432"><ele>1368.6666666666667</ele><time>2026-04-11T10:00:07.825Z</time></trkpt><trkpt lat="43.0867853" lon="12.8806533"><ele>1369.5</ele><time>2026-04-11T10:00:08.827Z</time></trkpt><trkpt lat="43.0867843" lon="12.8804909"><ele>1370.3333333333333</ele><time>2026-04-11T10:00:10.824Z</time></trkpt><trkpt lat="43.0868023" lon="12.8803612"><ele>1371.1666666666665</ele><time>2026-04-11T10:00:12.824Z</time></trkpt><trkpt lat="43.0868047" lon="12.8802741"><ele>1372.0</ele><time>2026-04-11T10:00:19.843Z</time></trkpt><trkpt lat="43.0867877" lon="12.8801821"><ele>1371.6666666666665</ele><time>2026-04-11T10:00:23.828Z</time></trkpt><trkpt lat="43.0867419" lon="12.8800994"><ele>1371.3333333333333</ele><time>2026-04-11T10:00:25.829Z</time></trkpt><trkpt lat="43.0867202" lon="12.8799871"><ele>1371.0</ele><time>2026-04-11T10:00:27.815Z</time></trkpt><trkpt lat="43.0867092" lon="12.87989"><ele>1370.6666666666667</ele><time>2026-04-11T10:00:29.817Z</time></trkpt><trkpt lat="43.0866959" lon="12.8797851"><ele>1370.3333333333335</ele><time>2026-04-11T10:00:31.835Z</time></trkpt><trkpt lat="43.0866529" lon="12.8796634"><ele>1370.0</ele><time>2026-04-11T10:00:33.835Z</time></trkpt><trkpt lat="43.0865746" lon="12.879574"><ele>1365.8333333333335</ele><time>2026-04-11T10:00:35.829Z</time></trkpt><trkpt lat="43.0864945" lon="12.8795029"><ele>1361.6666666666667</ele><time>2026-04-11T10:00:37.834Z</time></trkpt><trkpt lat="43.0864218" lon="12.8794114"><ele>1357.5</ele><time>2026-04-11T10:00:39.822Z</time></trkpt><trkpt lat="43.0863685" lon="12.879316"><ele>1353.3333333333333</ele><time>2026-04-11T10:00:41.815Z</time></trkpt><trkpt lat="43.0863472" lon="12.8792148"><ele>1349.1666666666665</ele><time>2026-04-11T10:00:43.825Z</time></trkpt><trkpt lat="43.0863423" lon="12.8791257"><ele>1345.0</ele><time>2026-04-11T10:00:45.822Z</time></trkpt><trkpt lat="43.0863119" lon="12.879018"><ele>1344.4</ele><time>2026-04-11T10:00:48.829Z</time></trkpt><trkpt lat="43.0862477" lon="12.8789292"><ele>1343.8</ele><time>2026-04-11T10:00:50.857Z</time></trkpt><trkpt lat="43.0861733" lon="12.87887"><ele>1343.1999999999998</ele><time>2026-04-11T10:00:52.859Z</time></trkpt><trkpt lat="43.0860854" lon="12.8787873"><ele>1342.6</ele><time>2026-04-11T10:00:54.862Z</time></trkpt><trkpt lat="43.0860009" lon="12.8786851"><ele>1342.0</ele><time>2026-04-11T10:00:56.823Z</time></trkpt><trkpt lat="43.0859402" lon="12.8785966"><ele>1342.0</ele><time>2026-04-11T10:00:58.832Z</time></trkpt><trkpt lat="43.0858777" lon="12.8785406"><ele>1342.0</ele><time>2026-04-11T10:01:00.844Z</time></trkpt><trkpt lat="43.0858169" lon="12.8784957"><ele>1342.0</ele><time>2026-04-11T10:01:02.841Z</time></trkpt><trkpt lat="43.0857433" lon="12.8784517"><ele>1342.0</ele><time>2026-04-11T10:01:05.839Z</time></trkpt><trkpt lat="43.0856799" lon="12.8785302"><ele>1342.0</ele><time>2026-04-11T10:01:08.826Z</time></trkpt><trkpt lat="43.0856341" lon="12.8786046"><ele>1342.0</ele><time>2026-04-11T10:01:10.836Z</time></trkpt><trkpt lat="43.0855851" lon="12.8786696"><ele>1342.0</ele><time>2026-04-11T10:01:12.832Z</time></trkpt><trkpt lat="43.0855375" lon="12.87878"><ele>1337.6666666666665</ele><time>2026-04-11T10:01:15.827Z</time></trkpt><trkpt lat="43.0855104" lon="12.8788585"><ele>1333.3333333333333</ele><time>2026-04-11T10:01:17.827Z</time></trkpt><trkpt lat="43.0854725" lon="12.8789354"><ele>1329.0</ele><time>2026-04-11T10:01:24.825Z</time></trkpt><trkpt lat="43.0854591" lon="12.8790324"><ele>1324.6666666666667</ele><time>2026-04-11T10:01:28.837Z</time></trkpt><trkpt lat="43.085477" lon="12.8791435"><ele>1320.3333333333335</ele><time>2026-04-11T10:01:36.824Z</time></trkpt><trkpt lat="43.085543" lon="12.8792341"><ele>1316.0</ele><time>2026-04-11T10:01:39.822Z</time></trkpt><trkpt lat="43.0856316" lon="12.8792325"><ele>1316.0</ele><time>2026-04-11T10:01:41.821Z</time></trkpt><trkpt lat="43.0857222" lon="12.8791852"><ele>1316.0</ele><time>2026-04-11T10:01:43.817Z</time></trkpt><trkpt lat="43.085806" lon="12.8791142"><ele>1316.0</ele><time>2026-04-11T10:01:45.818Z</time></trkpt><trkpt lat="43.0858596" lon="12.8790021"><ele>1316.0</ele><time>2026-04-11T10:01:47.832Z</time></trkpt><trkpt lat="43.0859005" lon="12.8788702"><ele>1316.0</ele><time>2026-04-11T10:01:49.819Z</time></trkpt><trkpt lat="43.0859037" lon="12.8787656"><ele>1319.6</ele><time>2026-04-11T10:01:51.825Z</time></trkpt><trkpt lat="43.0859008" lon="12.8786307"><ele>1323.1999999999998</ele><time>2026-04-11T10:01:53.824Z</time></trkpt><trkpt lat="43.085884" lon="12.8785004"><ele>1326.8000000000002</ele><time>2026-04-11T10:01:55.811Z</time></trkpt><trkpt lat="43.0859096" lon="12.8783863"><ele>1330.4</ele><time>2026-04-11T10:01:57.822Z</time></trkpt><trkpt lat="43.0859666" lon="12.8782668"><ele>1334.0</ele><time>2026-04-11T10:01:59.829Z</time></trkpt><trkpt lat="43.0860319" lon="12.8781309"><ele>1334.0</ele><time>2026-04-11T10:02:01.824Z</time></trkpt><trkpt lat="43.0860764" lon="12.8780686"><ele>1334.0</ele><time>2026-04-11T10:02:02.825Z</time></trkpt><trkpt lat="43.0861367" lon="12.878012"><ele>1334.0</ele><time>2026-04-11T10:02:04.84Z</time></trkpt><trkpt lat="43.0861971" lon="12.8779513"><ele>1334.0</ele><time>2026-04-11T10:02:06.828Z</time></trkpt><trkpt lat="43.0862675" lon="12.8778821"><ele>1334.0</ele><time>2026-04-11T10:02:08.827Z</time></trkpt><trkpt lat="43.0863391" lon="12.8778039"><ele>1334.0</ele><time>2026-04-11T10:02:10.827Z</time></trkpt><trkpt lat="43.0864105" lon="12.8777147"><ele>1334.0</ele><time>2026-04-11T10:02:12.827Z</time></trkpt><trkpt lat="43.0864941" lon="12.8776412"><ele>1334.0</ele><time>2026-04-11T10:02:14.832Z</time></trkpt><trkpt lat="43.0865961" lon="12.8775879"><ele>1334.0</ele><time>2026-04-11T10:02:16.836Z</time></trkpt><trkpt lat="43.086701" lon="12.8775533"><ele>1334.0</ele><time>2026-04-11T10:02:18.824Z</time></trkpt><trkpt lat="43.086786" lon="12.8775532"><ele>1334.0</ele><time>2026-04-11T10:02:20.827Z</time></trkpt><trkpt lat="43.086864" lon="12.877629"><ele>1335.6</ele><time>2026-04-11T10:02:22.83Z</time></trkpt><trkpt lat="43.0869857" lon="12.877684"><ele>1337.2</ele><time>2026-04-11T10:02:24.826Z</time></trkpt><trkpt lat="43.0870539" lon="12.8776966"><ele>1338.8</ele><time>2026-04-11T10:02:25.822Z</time></trkpt><trkpt lat="43.087162" lon="12.877659"><ele>1340.3999999999999</ele><time>2026-04-11T10:02:27.825Z</time></trkpt><trkpt lat="43.0872186" lon="12.8775483"><ele>1342.0</ele><time>2026-04-11T10:02:29.822Z</time></trkpt><trkpt lat="43.0872703" lon="12.8774412"><ele>1342.0</ele><time>2026-04-11T10:02:31.823Z</time></trkpt><trkpt lat="43.087325" lon="12.8773649"><ele>1342.0</ele><time>2026-04-11T10:02:33.817Z</time></trkpt><trkpt lat="43.0872875" lon="12.8772708"><ele>1342.0</ele><time>2026-04-11T10:02:36.827Z</time></trkpt><trkpt lat="43.0872142" lon="12.8772747"><ele>1342.0</ele><time>2026-04-11T10:02:38.857Z</time></trkpt><trkpt lat="43.0871234" lon="12.8772991"><ele>1342.0</ele><time>2026-04-11T10:02:40.827Z</time></trkpt><trkpt lat="43.0870432" lon="12.8773153"><ele>1342.0</ele><time>2026-04-11T10:02:42.828Z</time></trkpt><trkpt lat="43.0869698" lon="12.8772907"><ele>1342.0</ele><time>2026-04-11T10:02:45.825Z</time></trkpt><trkpt lat="43.0869013" lon="12.8772418"><ele>1342.0</ele><time>2026-04-11T10:02:47.834Z</time></trkpt><trkpt lat="43.0868462" lon="12.8771925"><ele>1342.0</ele><time>2026-04-11T10:02:48.818Z</time></trkpt><trkpt lat="43.0867874" lon="12.8771466"><ele>1342.0</ele><time>2026-04-11T10:02:49.828Z</time></trkpt><trkpt lat="43.0867113" lon="12.8771134"><ele>1342.0</ele><time>2026-04-11T10:02:50.824Z</time></trkpt><trkpt lat="43.0866231" lon="12.8770839"><ele>1342.0</ele><time>2026-04-11T10:02:51.834Z</time></trkpt><trkpt lat="43.0865372" lon="12.8770545"><ele>1339.0</ele><time>2026-04-11T10:02:52.821Z</time></trkpt><trkpt lat="43.0864548" lon="12.8770325"><ele>1336.0</ele><time>2026-04-11T10:02:53.826Z</time></trkpt><trkpt lat="43.0863745" lon="12.8770006"><ele>1333.0</ele><time>2026-04-11T10:02:54.835Z</time></trkpt><trkpt lat="43.0862915" lon="12.8769659"><ele>1330.0</ele><time>2026-04-11T10:02:55.832Z</time></trkpt><trkpt lat="43.0862126" lon="12.8769163"><ele>1327.0</ele><time>2026-04-11T10:02:56.82Z</time></trkpt><trkpt lat="43.0861427" lon="12.8768575"><ele>1324.0</ele><time>2026-04-11T10:02:57.831Z</time></trkpt><trkpt lat="43.0860767" lon="12.8767946"><ele>1321.6666666666665</ele><time>2026-04-11T10:02:58.824Z</time></trkpt><trkpt lat="43.0860132" lon="12.8767303"><ele>1319.3333333333333</ele><time>2026-04-11T10:02:59.82Z</time></trkpt><trkpt lat="43.0859616" lon="12.8766678"><ele>1317.0</ele><time>2026-04-11T10:03:00.82Z</time></trkpt><trkpt lat="43.0858892" lon="12.8765481"><ele>1314.6666666666667</ele><time>2026-04-11T10:03:02.824Z</time></trkpt><trkpt lat="43.085852" lon="12.8764308"><ele>1312.3333333333335</ele><time>2026-04-11T10:03:04.828Z</time></trkpt><trkpt lat="43.0858379" lon="12.8763133"><ele>1310.0</ele><time>2026-04-11T10:03:06.824Z</time></trkpt><trkpt lat="43.0858507" lon="12.876218"><ele>1310.0</ele><time>2026-04-11T10:03:08.831Z</time></trkpt><trkpt lat="43.0858783" lon="12.8761022"><ele>1310.0</ele><time>2026-04-11T10:03:11.828Z</time></trkpt><trkpt lat="43.0859171" lon="12.876"><ele>1310.0</ele><time>2026-04-11T10:03:13.824Z</time></trkpt><trkpt lat="43.0859688" lon="12.8758948"><ele>1310.0</ele><time>2026-04-11T10:03:15.822Z</time></trkpt><trkpt lat="43.0860627" lon="12.8758826"><ele>1310.0</ele><time>2026-04-11T10:03:18.821Z</time></trkpt><trkpt lat="43.0860974" lon="12.8759599"><ele>1310.0</ele><time>2026-04-11T10:03:20.825Z</time></trkpt><trkpt lat="43.0860568" lon="12.8761029"><ele>1310.0</ele><time>2026-04-11T10:03:22.822Z</time></trkpt><trkpt lat="43.0860112" lon="12.8761745"><ele>1310.0</ele><time>2026-04-11T10:03:23.822Z</time></trkpt><trkpt lat="43.0859561" lon="12.8762463"><ele>1310.0</ele><time>2026-04-11T10:03:24.827Z</time></trkpt><trkpt lat="43.0858967" lon="12.8763338"><ele>1310.0</ele><time>2026-04-11T10:03:25.82Z</time></trkpt><trkpt lat="43.0858368" lon="12.8764286"><ele>1310.0</ele><time>2026-04-11T10:03:26.825Z</time></trkpt><trkpt lat="43.0857793" lon="12.8765278"><ele>1310.0</ele><time>2026-04-11T10:03:27.822Z</time></trkpt><trkpt lat="43.0857262" lon="12.8766252"><ele>1308.4285714285716</ele><time>2026-04-11T10:03:28.825Z</time></trkpt><trkpt lat="43.0856805" lon="12.8767114"><ele>1306.857142857143</ele><time>2026-04-11T10:03:29.828Z</time></trkpt><trkpt lat="43.085636" lon="12.8767865"><ele>1305.2857142857142</ele><time>2026-04-11T10:03:30.828Z</time></trkpt><trkpt lat="43.0855929" lon="12.8768584"><ele>1303.7142857142858</ele><time>2026-04-11T10:03:31.83Z</time></trkpt><trkpt lat="43.0855377" lon="12.8769432"><ele>1302.142857142857</ele><time>2026-04-11T10:03:33.822Z</time></trkpt><trkpt lat="43.0854899" lon="12.877005"><ele>1300.5714285714287</ele><time>2026-04-11T10:03:36.828Z</time></trkpt><trkpt lat="43.0854455" lon="12.8770854"><ele>1299.0</ele><time>2026-04-11T10:03:38.853Z</time></trkpt><trkpt lat="43.0854118" lon="12.877229"><ele>1299.0000000000002</ele><time>2026-04-11T10:03:40.832Z</time></trkpt><trkpt lat="43.0853966" lon="12.8773185"><ele>1299.0</ele><time>2026-04-11T10:03:41.823Z</time></trkpt><trkpt lat="43.0853819" lon="12.8774078"><ele>1299.0</ele><time>2026-04-11T10:03:42.825Z</time></trkpt><trkpt lat="43.0853681" lon="12.8775012"><ele>1299.0</ele><time>2026-04-11T10:03:43.828Z</time></trkpt><trkpt lat="43.0853551" lon="12.8775965"><ele>1299.0</ele><time>2026-04-11T10:03:44.829Z</time></trkpt><trkpt lat="43.0853374" lon="12.8776891"><ele>1299.0000000000002</ele><time>2026-04-11T10:03:45.82Z</time></trkpt><trkpt lat="43.0853196" lon="12.8777726"><ele>1299.0</ele><time>2026-04-11T10:03:46.837Z</time></trkpt><trkpt lat="43.085295" lon="12.8778523"><ele>1300.8333333333333</ele><time>2026-04-11T10:03:47.833Z</time></trkpt><trkpt lat="43.085269" lon="12.8779326"><ele>1302.6666666666667</ele><time>2026-04-11T10:03:48.822Z</time></trkpt><trkpt lat="43.085212" lon="12.8780664"><ele>1304.5</ele><time>2026-04-11T10:03:50.82Z</time></trkpt><trkpt lat="43.0851606" lon="12.8781708"><ele>1306.3333333333335</ele><time>2026-04-11T10:03:52.82Z</time></trkpt><trkpt lat="43.085107" lon="12.8782477"><ele>1308.1666666666667</ele><time>2026-04-11T10:03:55.827Z</time></trkpt><trkpt lat="43.0850384" lon="12.8782825"><ele>1310.0</ele><time>2026-04-11T10:19:03.836Z</time></trkpt><trkpt lat="43.0850132" lon="12.8783861"><ele>1310.0</ele><time>2026-04-11T10:22:34.838Z</time></trkpt><trkpt lat="43.0850117" lon="12.8785049"><ele>1310.0</ele><time>2026-04-11T10:22:37.833Z</time></trkpt><trkpt lat="43.0850351" lon="12.8786102"><ele>1310.0</ele><time>2026-04-11T10:22:44.83Z</time></trkpt><trkpt lat="43.0849924" lon="12.8785418"><ele>1310.0</ele><time>2026-04-11T10:23:08.839Z</time></trkpt><trkpt lat="43.0849978" lon="12.8784356"><ele>1310.0</ele><time>2026-04-11T10:24:47.824Z</time></trkpt><trkpt lat="43.0850123" lon="12.8783466"><ele>1310.0</ele><time>2026-04-11T10:24:50.828Z</time></trkpt><trkpt lat="43.0850178" lon="12.8782586"><ele>1310.0</ele><time>2026-04-11T10:24:52.83Z</time></trkpt><trkpt lat="43.0850205" lon="12.87817"><ele>1310.0</ele><time>2026-04-11T10:24:54.849Z</time></trkpt><trkpt lat="43.0850366" lon="12.8780637"><ele>1310.0</ele><time>2026-04-11T10:24:56.835Z</time></trkpt><trkpt lat="43.0850546" lon="12.8779311"><ele>1310.0</ele><time>2026-04-11T10:24:58.833Z</time></trkpt><trkpt lat="43.0850826" lon="12.877778"><ele>1310.0</ele><time>2026-04-11T10:25:00.828Z</time></trkpt><trkpt lat="43.0851144" lon="12.8776226"><ele>1310.0</ele><time>2026-04-11T10:25:02.828Z</time></trkpt><trkpt lat="43.085133" lon="12.8775346"><ele>1308.1666666666667</ele><time>2026-04-11T10:25:03.825Z</time></trkpt><trkpt lat="43.0851535" lon="12.8774481"><ele>1306.3333333333335</ele><time>2026-04-11T10:25:04.821Z</time></trkpt><trkpt lat="43.0851704" lon="12.8773588"><ele>1304.5</ele><time>2026-04-11T10:25:05.831Z</time></trkpt><trkpt lat="43.0852032" lon="12.877192"><ele>1302.6666666666667</ele><time>2026-04-11T10:25:07.825Z</time></trkpt><trkpt lat="43.0852245" lon="12.8771081"><ele>1300.8333333333333</ele><time>2026-04-11T10:25:08.83Z</time></trkpt><trkpt lat="43.0852512" lon="12.8770197"><ele>1299.0</ele><time>2026-04-11T10:25:09.829Z</time></trkpt><trkpt lat="43.0852795" lon="12.8769246"><ele>1299.0</ele><time>2026-04-11T10:25:10.843Z</time></trkpt><trkpt lat="43.0853095" lon="12.8768288"><ele>1299.0</ele><time>2026-04-11T10:25:11.821Z</time></trkpt><trkpt lat="43.0853393" lon="12.8767397"><ele>1299.0</ele><time>2026-04-11T10:25:12.83Z</time></trkpt><trkpt lat="43.0853678" lon="12.876659"><ele>1299.0</ele><time>2026-04-11T10:25:13.822Z</time></trkpt><trkpt lat="43.0854254" lon="12.8765176"><ele>1299.0</ele><time>2026-04-11T10:25:15.835Z</time></trkpt><trkpt lat="43.0854582" lon="12.876438"><ele>1299.0</ele><time>2026-04-11T10:25:16.829Z</time></trkpt><trkpt lat="43.085518" lon="12.8763083"><ele>1297.2</ele><time>2026-04-11T10:25:18.828Z</time></trkpt><trkpt lat="43.0855577" lon="12.8762175"><ele>1295.4</ele><time>2026-04-11T10:25:21.826Z</time></trkpt><trkpt lat="43.0855487" lon="12.876089"><ele>1293.6</ele><time>2026-04-11T10:25:26.828Z</time></trkpt><trkpt lat="43.0855318" lon="12.8759687"><ele>1291.8</ele><time>2026-04-11T10:25:28.83Z</time></trkpt><trkpt lat="43.0854998" lon="12.8758352"><ele>1290.0</ele><time>2026-04-11T10:25:30.827Z</time></trkpt><trkpt lat="43.0854381" lon="12.8757103"><ele>1285.75</ele><time>2026-04-11T10:25:32.827Z</time></trkpt><trkpt lat="43.0853558" lon="12.8755937"><ele>1281.5</ele><time>2026-04-11T10:25:34.837Z</time></trkpt><trkpt lat="43.0852646" lon="12.8754803"><ele>1277.25</ele><time>2026-04-11T10:25:36.83Z</time></trkpt><trkpt lat="43.0851735" lon="12.8753705"><ele>1273.0</ele><time>2026-04-11T10:25:38.825Z</time></trkpt><trkpt lat="43.0851015" lon="12.8752918"><ele>1273.0</ele><time>2026-04-11T10:25:40.832Z</time></trkpt><trkpt lat="43.0850554" lon="12.8752295"><ele>1273.0</ele><time>2026-04-11T10:25:42.841Z</time></trkpt><trkpt lat="43.0849694" lon="12.8751851"><ele>1273.0</ele><time>2026-04-11T10:25:45.825Z</time></trkpt><trkpt lat="43.0848968" lon="12.8752172"><ele>1273.0</ele><time>2026-04-11T10:25:48.827Z</time></trkpt><trkpt lat="43.0848136" lon="12.875269"><ele>1273.0</ele><time>2026-04-11T10:25:51.829Z</time></trkpt><trkpt lat="43.0847443" lon="12.8753178"><ele>1273.0</ele><time>2026-04-11T10:25:53.822Z</time></trkpt><trkpt lat="43.0846675" lon="12.8753709"><ele>1269.3333333333333</ele><time>2026-04-11T10:25:55.822Z</time></trkpt><trkpt lat="43.0845977" lon="12.87544"><ele>1265.6666666666665</ele><time>2026-04-11T10:25:57.826Z</time></trkpt><trkpt lat="43.0845305" lon="12.8755178"><ele>1262.0</ele><time>2026-04-11T10:25:59.823Z</time></trkpt><trkpt lat="43.0844585" lon="12.8756023"><ele>1258.3333333333333</ele><time>2026-04-11T10:26:01.822Z</time></trkpt><trkpt lat="43.0844031" lon="12.8756831"><ele>1254.6666666666667</ele><time>2026-04-11T10:26:03.829Z</time></trkpt><trkpt lat="43.0843515" lon="12.8757404"><ele>1251.0</ele><time>2026-04-11T10:26:05.827Z</time></trkpt><trkpt lat="43.0842973" lon="12.8758284"><ele>1251.0</ele><time>2026-04-11T10:26:08.827Z</time></trkpt><trkpt lat="43.0842344" lon="12.8759165"><ele>1251.0</ele><time>2026-04-11T10:26:11.817Z</time></trkpt><trkpt lat="43.084188" lon="12.8759816"><ele>1251.0</ele><time>2026-04-11T10:26:13.828Z</time></trkpt><trkpt lat="43.08412" lon="12.8760512"><ele>1251.0</ele><time>2026-04-11T10:26:15.824Z</time></trkpt><trkpt lat="43.0840622" lon="12.8761204"><ele>1251.0</ele><time>2026-04-11T10:26:17.834Z</time></trkpt><trkpt lat="43.0840149" lon="12.8762017"><ele>1251.0</ele><time>2026-04-11T10:26:19.833Z</time></trkpt><trkpt lat="43.0839701" lon="12.8762939"><ele>1249.6666666666667</ele><time>2026-04-11T10:26:21.831Z</time></trkpt><trkpt lat="43.0839208" lon="12.8763921"><ele>1248.3333333333333</ele><time>2026-04-11T10:26:23.835Z</time></trkpt><trkpt lat="43.0838711" lon="12.8764798"><ele>1247.0</ele><time>2026-04-11T10:26:25.826Z</time></trkpt><trkpt lat="43.0838206" lon="12.876575"><ele>1245.6666666666665</ele><time>2026-04-11T10:26:27.817Z</time></trkpt><trkpt lat="43.0837628" lon="12.8766723"><ele>1244.3333333333333</ele><time>2026-04-11T10:26:29.828Z</time></trkpt><trkpt lat="43.0837128" lon="12.876786"><ele>1243.0</ele><time>2026-04-11T10:26:32.83Z</time></trkpt><trkpt lat="43.0836746" lon="12.8768729"><ele>1243.0</ele><time>2026-04-11T10:26:34.83Z</time></trkpt><trkpt lat="43.0836267" lon="12.8769539"><ele>1243.0</ele><time>2026-04-11T10:26:36.832Z</time></trkpt><trkpt lat="43.0835743" lon="12.8770225"><ele>1243.0</ele><time>2026-04-11T10:26:38.81Z</time></trkpt><trkpt lat="43.0835094" lon="12.8770771"><ele>1243.0</ele><time>2026-04-11T10:26:40.82Z</time></trkpt><trkpt lat="43.0834367" lon="12.8771538"><ele>1243.0</ele><time>2026-04-11T10:26:42.81Z</time></trkpt><trkpt lat="43.0833669" lon="12.8772201"><ele>1243.0</ele><time>2026-04-11T10:26:44.815Z</time></trkpt><trkpt lat="43.083301" lon="12.877272"><ele>1240.857142857143</ele><time>2026-04-11T10:26:46.809Z</time></trkpt><trkpt lat="43.0832473" lon="12.8773368"><ele>1238.7142857142858</ele><time>2026-04-11T10:26:48.815Z</time></trkpt><trkpt lat="43.0832069" lon="12.877413"><ele>1236.5714285714284</ele><time>2026-04-11T10:26:51.8Z</time></trkpt><trkpt lat="43.0831858" lon="12.8775106"><ele>1234.4285714285716</ele><time>2026-04-11T10:26:54.831Z</time></trkpt><trkpt lat="43.083155" lon="12.8775945"><ele>1232.2857142857142</ele><time>2026-04-11T10:26:56.836Z</time></trkpt><trkpt lat="43.0830939" lon="12.8776724"><ele>1230.142857142857</ele><time>2026-04-11T10:26:58.836Z</time></trkpt><trkpt lat="43.0830398" lon="12.8777451"><ele>1228.0</ele><time>2026-04-11T10:27:00.841Z</time></trkpt><trkpt lat="43.0829793" lon="12.8777955"><ele>1228.0</ele><time>2026-04-11T10:27:02.842Z</time></trkpt><trkpt lat="43.0829137" lon="12.8778475"><ele>1228.0</ele><time>2026-04-11T10:27:04.826Z</time></trkpt><trkpt lat="43.0828412" lon="12.87788"><ele>1228.0</ele><time>2026-04-11T10:27:06.834Z</time></trkpt><trkpt lat="43.0827598" lon="12.8778684"><ele>1228.0</ele><time>2026-04-11T10:27:08.834Z</time></trkpt><trkpt lat="43.082681" lon="12.8778556"><ele>1228.0</ele><time>2026-04-11T10:27:10.839Z</time></trkpt><trkpt lat="43.0826254" lon="12.8779383"><ele>1228.0</ele><time>2026-04-11T10:27:12.823Z</time></trkpt><trkpt lat="43.082549" lon="12.8780434"><ele>1228.0</ele><time>2026-04-11T10:27:14.824Z</time></trkpt><trkpt lat="43.0824991" lon="12.878116"><ele>1228.0</ele><time>2026-04-11T10:27:15.825Z</time></trkpt><trkpt lat="43.0824472" lon="12.8781835"><ele>1228.0</ele><time>2026-04-11T10:27:16.826Z</time></trkpt><trkpt lat="43.0824016" lon="12.8782478"><ele>1228.0</ele><time>2026-04-11T10:27:17.826Z</time></trkpt><trkpt lat="43.082319" lon="12.8783715"><ele>1228.0</ele><time>2026-04-11T10:27:19.823Z</time></trkpt><trkpt lat="43.0822415" lon="12.8784672"><ele>1228.0</ele><time>2026-04-11T10:27:21.819Z</time></trkpt><trkpt lat="43.0821858" lon="12.878531"><ele>1224.0</ele><time>2026-04-11T10:27:23.826Z</time></trkpt><trkpt lat="43.0821341" lon="12.8786149"><ele>1220.0</ele><time>2026-04-11T10:30:04.828Z</time></trkpt><trkpt lat="43.0820853" lon="12.8787124"><ele>1216.0</ele><time>2026-04-11T10:30:06.833Z</time></trkpt><trkpt lat="43.0820217" lon="12.8788045"><ele>1212.0</ele><time>2026-04-11T10:30:08.823Z</time></trkpt><trkpt lat="43.0819302" lon="12.878869"><ele>1208.0</ele><time>2026-04-11T10:30:10.836Z</time></trkpt><trkpt lat="43.0818279" lon="12.8788396"><ele>1208.0</ele><time>2026-04-11T10:30:12.826Z</time></trkpt><trkpt lat="43.0817981" lon="12.8787109"><ele>1208.0</ele><time>2026-04-11T10:30:14.822Z</time></trkpt><trkpt lat="43.0818117" lon="12.8785742"><ele>1208.0</ele><time>2026-04-11T10:30:16.839Z</time></trkpt><trkpt lat="43.0818681" lon="12.8784196"><ele>1208.0</ele><time>2026-04-11T10:30:18.826Z</time></trkpt><trkpt lat="43.0819061" lon="12.8783296"><ele>1208.0</ele><time>2026-04-11T10:30:19.821Z</time></trkpt><trkpt lat="43.0819493" lon="12.8782428"><ele>1207.6</ele><time>2026-04-11T10:30:20.823Z</time></trkpt><trkpt lat="43.0819907" lon="12.8781544"><ele>1207.1999999999998</ele><time>2026-04-11T10:30:21.817Z</time></trkpt><trkpt lat="43.0820318" lon="12.8780613"><ele>1206.8</ele><time>2026-04-11T10:30:22.84Z</time></trkpt><trkpt lat="43.0820838" lon="12.8779612"><ele>1206.3999999999999</ele><time>2026-04-11T10:30:23.823Z</time></trkpt><trkpt lat="43.08214" lon="12.8778483"><ele>1206.0</ele><time>2026-04-11T10:30:24.818Z</time></trkpt><trkpt lat="43.0821938" lon="12.8777254"><ele>1203.5</ele><time>2026-04-11T10:30:25.818Z</time></trkpt><trkpt lat="43.0822377" lon="12.8775935"><ele>1201.0</ele><time>2026-04-11T10:30:26.822Z</time></trkpt><trkpt lat="43.0822826" lon="12.877447"><ele>1198.5</ele><time>2026-04-11T10:30:27.831Z</time></trkpt><trkpt lat="43.0823259" lon="12.8772954"><ele>1196.0</ele><time>2026-04-11T10:30:28.821Z</time></trkpt><trkpt lat="43.0823675" lon="12.8771451"><ele>1196.0</ele><time>2026-04-11T10:30:29.82Z</time></trkpt><trkpt lat="43.0824055" lon="12.8769863"><ele>1196.0</ele><time>2026-04-11T10:30:30.83Z</time></trkpt><trkpt lat="43.0824394" lon="12.8768231"><ele>1196.0</ele><time>2026-04-11T10:30:31.84Z</time></trkpt><trkpt lat="43.0824809" lon="12.87665"><ele>1196.0</ele><time>2026-04-11T10:30:32.822Z</time></trkpt><trkpt lat="43.0825197" lon="12.8764759"><ele>1195.0</ele><time>2026-04-11T10:30:33.816Z</time></trkpt><trkpt lat="43.0825599" lon="12.8763087"><ele>1194.0</ele><time>2026-04-11T10:30:34.819Z</time></trkpt><trkpt lat="43.0825994" lon="12.8761484"><ele>1193.0</ele><time>2026-04-11T10:30:35.821Z</time></trkpt><trkpt lat="43.0826401" lon="12.8759848"><ele>1192.0</ele><time>2026-04-11T10:30:36.823Z</time></trkpt><trkpt lat="43.0826809" lon="12.8758183"><ele>1192.0</ele><time>2026-04-11T10:30:37.818Z</time></trkpt><trkpt lat="43.0827155" lon="12.8756591"><ele>1192.0</ele><time>2026-04-11T10:30:38.83Z</time></trkpt><trkpt lat="43.0827524" lon="12.8754998"><ele>1192.0</ele><time>2026-04-11T10:30:39.833Z</time></trkpt><trkpt lat="43.0827865" lon="12.8753443"><ele>1192.0</ele><time>2026-04-11T10:30:40.828Z</time></trkpt><trkpt lat="43.0828188" lon="12.8751925"><ele>1188.5</ele><time>2026-04-11T10:30:41.826Z</time></trkpt><trkpt lat="43.0828542" lon="12.8750345"><ele>1185.0</ele><time>2026-04-11T10:30:42.828Z</time></trkpt><trkpt lat="43.0828945" lon="12.8748702"><ele>1181.5</ele><time>2026-04-11T10:30:43.821Z</time></trkpt><trkpt lat="43.0829429" lon="12.874701"><ele>1178.0</ele><time>2026-04-11T10:30:44.823Z</time></trkpt><trkpt lat="43.0829929" lon="12.8745431"><ele>1178.0</ele><time>2026-04-11T10:30:45.825Z</time></trkpt><trkpt lat="43.0830521" lon="12.8743871"><ele>1178.0</ele><time>2026-04-11T10:30:46.814Z</time></trkpt><trkpt lat="43.0831165" lon="12.8742211"><ele>1178.0</ele><time>2026-04-11T10:30:47.821Z</time></trkpt><trkpt lat="43.083191" lon="12.8740585"><ele>1178.0</ele><time>2026-04-11T10:30:48.836Z</time></trkpt><trkpt lat="43.0832698" lon="12.8738983"><ele>1176.75</ele><time>2026-04-11T10:30:49.815Z</time></trkpt><trkpt lat="43.0833443" lon="12.8737439"><ele>1175.5</ele><time>2026-04-11T10:30:50.826Z</time></trkpt><trkpt lat="43.0834215" lon="12.873597"><ele>1174.25</ele><time>2026-04-11T10:30:51.819Z</time></trkpt><trkpt lat="43.0835002" lon="12.8734527"><ele>1173.0</ele><time>2026-04-11T10:30:52.822Z</time></trkpt><trkpt lat="43.0835824" lon="12.8733099"><ele>1173.0</ele><time>2026-04-11T10:30:53.825Z</time></trkpt><trkpt lat="43.0836624" lon="12.8731715"><ele>1173.0</ele><time>2026-04-11T10:30:54.833Z</time></trkpt><trkpt lat="43.0837436" lon="12.8730411"><ele>1173.0</ele><time>2026-04-11T10:30:55.829Z</time></trkpt><trkpt lat="43.0838253" lon="12.872909"><ele>1173.0</ele><time>2026-04-11T10:30:56.824Z</time></trkpt><trkpt lat="43.0839047" lon="12.8727802"><ele>1173.0</ele><time>2026-04-11T10:30:57.821Z</time></trkpt><trkpt lat="43.0839875" lon="12.872652"><ele>1173.0</ele><time>2026-04-11T10:30:58.828Z</time></trkpt><trkpt lat="43.0840655" lon="12.8725451"><ele>1173.0</ele><time>2026-04-11T10:30:59.829Z</time></trkpt><trkpt lat="43.0841418" lon="12.8724565"><ele>1173.0</ele><time>2026-04-11T10:31:00.83Z</time></trkpt><trkpt lat="43.0842176" lon="12.872386"><ele>1173.0</ele><time>2026-04-11T10:31:01.816Z</time></trkpt><trkpt lat="43.0843046" lon="12.8723318"><ele>1172.8333333333333</ele><time>2026-04-11T10:31:02.824Z</time></trkpt><trkpt lat="43.084392" lon="12.8723009"><ele>1172.6666666666667</ele><time>2026-04-11T10:31:03.814Z</time></trkpt><trkpt lat="43.0844855" lon="12.8722872"><ele>1172.5</ele><time>2026-04-11T10:31:04.829Z</time></trkpt><trkpt lat="43.0845723" lon="12.8722671"><ele>1172.3333333333335</ele><time>2026-04-11T10:31:05.816Z</time></trkpt><trkpt lat="43.0846467" lon="12.8722376"><ele>1172.1666666666667</ele><time>2026-04-11T10:31:06.819Z</time></trkpt><trkpt lat="43.0847099" lon="12.8721862"><ele>1172.0</ele><time>2026-04-11T10:31:07.825Z</time></trkpt><trkpt lat="43.0847417" lon="12.8720912"><ele>1172.0</ele><time>2026-04-11T10:31:08.819Z</time></trkpt><trkpt lat="43.0847394" lon="12.8719665"><ele>1172.0</ele><time>2026-04-11T10:31:09.815Z</time></trkpt><trkpt lat="43.0847251" lon="12.8718435"><ele>1172.0</ele><time>2026-04-11T10:31:10.823Z</time></trkpt><trkpt lat="43.084705" lon="12.8717244"><ele>1172.0</ele><time>2026-04-11T10:31:11.832Z</time></trkpt><trkpt lat="43.0847167" lon="12.8716001"><ele>1172.0</ele><time>2026-04-11T10:31:12.827Z</time></trkpt><trkpt lat="43.0847694" lon="12.8714705"><ele>1171.25</ele><time>2026-04-11T10:31:13.818Z</time></trkpt><trkpt lat="43.0848452" lon="12.8713398"><ele>1170.5</ele><time>2026-04-11T10:31:14.828Z</time></trkpt><trkpt lat="43.0849347" lon="12.8712135"><ele>1169.75</ele><time>2026-04-11T10:31:15.826Z</time></trkpt><trkpt lat="43.0850294" lon="12.8710914"><ele>1169.0</ele><time>2026-04-11T10:31:16.827Z</time></trkpt><trkpt lat="43.0851307" lon="12.8709744"><ele>1164.0</ele><time>2026-04-11T10:31:17.814Z</time></trkpt><trkpt lat="43.085241" lon="12.8708619"><ele>1159.0</ele><time>2026-04-11T10:31:18.826Z</time></trkpt><trkpt lat="43.0853438" lon="12.8707621"><ele>1154.0</ele><time>2026-04-11T10:31:19.814Z</time></trkpt><trkpt lat="43.0854497" lon="12.8706651"><ele>1149.0</ele><time>2026-04-11T10:31:20.814Z</time></trkpt><trkpt lat="43.0855516" lon="12.8705744"><ele>1149.0</ele><time>2026-04-11T10:31:21.818Z</time></trkpt><trkpt lat="43.085652" lon="12.8704988"><ele>1149.0</ele><time>2026-04-11T10:31:22.819Z</time></trkpt><trkpt lat="43.0857529" lon="12.8704303"><ele>1149.0</ele><time>2026-04-11T10:31:23.811Z</time></trkpt><trkpt lat="43.0858516" lon="12.8703829"><ele>1149.0</ele><time>2026-04-11T10:31:24.818Z</time></trkpt><trkpt lat="43.0859583" lon="12.8703508"><ele>1149.0</ele><time>2026-04-11T10:31:25.821Z</time></trkpt><trkpt lat="43.0860697" lon="12.8703311"><ele>1150.0</ele><time>2026-04-11T10:31:26.817Z</time></trkpt><trkpt lat="43.0861889" lon="12.8703221"><ele>1151.0</ele><time>2026-04-11T10:31:27.816Z</time></trkpt><trkpt lat="43.0863" lon="12.8703215"><ele>1152.0</ele><time>2026-04-11T10:31:28.822Z</time></trkpt><trkpt lat="43.0864063" lon="12.8703356"><ele>1153.0</ele><time>2026-04-11T10:31:29.814Z</time></trkpt><trkpt lat="43.0865087" lon="12.8703592"><ele>1154.0</ele><time>2026-04-11T10:31:30.825Z</time></trkpt><trkpt lat="43.0866037" lon="12.870398"><ele>1154.0</ele><time>2026-04-11T10:31:31.814Z</time></trkpt><trkpt lat="43.0866956" lon="12.870454"><ele>1154.0</ele><time>2026-04-11T10:31:32.822Z</time></trkpt><trkpt lat="43.0867934" lon="12.8705219"><ele>1154.0</ele><time>2026-04-11T10:31:33.812Z</time></trkpt><trkpt lat="43.086891" lon="12.8705883"><ele>1154.0</ele><time>2026-04-11T10:31:34.822Z</time></trkpt><trkpt lat="43.086985" lon="12.8706519"><ele>1154.0</ele><time>2026-04-11T10:31:35.821Z</time></trkpt><trkpt lat="43.0870659" lon="12.8707098"><ele>1154.0</ele><time>2026-04-11T10:31:36.817Z</time></trkpt><trkpt lat="43.0871405" lon="12.8707427"><ele>1154.0</ele><time>2026-04-11T10:31:37.819Z</time></trkpt><trkpt lat="43.0872059" lon="12.8707605"><ele>1154.0</ele><time>2026-04-11T10:31:38.817Z</time></trkpt><trkpt lat="43.0872686" lon="12.8707409"><ele>1154.0</ele><time>2026-04-11T10:31:39.814Z</time></trkpt><trkpt lat="43.0873228" lon="12.8706166"><ele>1154.0</ele><time>2026-04-11T10:31:41.829Z</time></trkpt><trkpt lat="43.0872542" lon="12.8704923"><ele>1154.0</ele><time>2026-04-11T10:31:43.816Z</time></trkpt><trkpt lat="43.0871773" lon="12.8704569"><ele>1154.0</ele><time>2026-04-11T10:31:44.817Z</time></trkpt><trkpt lat="43.0870847" lon="12.8704231"><ele>1154.0</ele><time>2026-04-11T10:31:45.821Z</time></trkpt><trkpt lat="43.0869839" lon="12.8703854"><ele>1154.0</ele><time>2026-04-11T10:31:46.813Z</time></trkpt><trkpt lat="43.0868796" lon="12.8703204"><ele>1154.0</ele><time>2026-04-11T10:31:47.824Z</time></trkpt><trkpt lat="43.0867586" lon="12.8702243"><ele>1154.0</ele><time>2026-04-11T10:31:48.818Z</time></trkpt><trkpt lat="43.0866387" lon="12.8701244"><ele>1154.0</ele><time>2026-04-11T10:31:49.812Z</time></trkpt><trkpt lat="43.0865245" lon="12.8700208"><ele>1154.0</ele><time>2026-04-11T10:31:50.817Z</time></trkpt><trkpt lat="43.0864168" lon="12.8699167"><ele>1154.0</ele><time>2026-04-11T10:31:51.817Z</time></trkpt><trkpt lat="43.0863053" lon="12.8698185"><ele>1149.75</ele><time>2026-04-11T10:31:52.823Z</time></trkpt><trkpt lat="43.0861926" lon="12.869734"><ele>1145.5</ele><time>2026-04-11T10:31:53.818Z</time></trkpt><trkpt lat="43.0860756" lon="12.8696518"><ele>1141.25</ele><time>2026-04-11T10:31:54.819Z</time></trkpt><trkpt lat="43.085963" lon="12.8695782"><ele>1137.0</ele><time>2026-04-11T10:31:55.825Z</time></trkpt><trkpt lat="43.0858546" lon="12.8695147"><ele>1135.0</ele><time>2026-04-11T10:31:56.819Z</time></trkpt><trkpt lat="43.0857485" lon="12.8694644"><ele>1133.0</ele><time>2026-04-11T10:31:57.818Z</time></trkpt><trkpt lat="43.0856454" lon="12.8694183"><ele>1131.0</ele><time>2026-04-11T10:31:58.819Z</time></trkpt><trkpt lat="43.085545" lon="12.8693816"><ele>1129.0</ele><time>2026-04-11T10:31:59.815Z</time></trkpt><trkpt lat="43.0854479" lon="12.8693535"><ele>1127.0</ele><time>2026-04-11T10:32:00.821Z</time></trkpt><trkpt lat="43.0853452" lon="12.8693401"><ele>1127.0</ele><time>2026-04-11T10:32:01.81Z</time></trkpt><trkpt lat="43.0852384" lon="12.869335"><ele>1127.0</ele><time>2026-04-11T10:32:02.821Z</time></trkpt><trkpt lat="43.0851287" lon="12.8693478"><ele>1127.0</ele><time>2026-04-11T10:32:03.822Z</time></trkpt><trkpt lat="43.0850168" lon="12.8693678"><ele>1127.0</ele><time>2026-04-11T10:32:04.826Z</time></trkpt><trkpt lat="43.0848997" lon="12.8693966"><ele>1127.0</ele><time>2026-04-11T10:32:05.821Z</time></trkpt><trkpt lat="43.0847698" lon="12.8694389"><ele>1123.25</ele><time>2026-04-11T10:32:06.826Z</time></trkpt><trkpt lat="43.0846296" lon="12.8694906"><ele>1119.5</ele><time>2026-04-11T10:32:07.82Z</time></trkpt><trkpt lat="43.0844878" lon="12.8695435"><ele>1115.75</ele><time>2026-04-11T10:32:08.832Z</time></trkpt><trkpt lat="43.0843415" lon="12.869601"><ele>1112.0</ele><time>2026-04-11T10:32:09.837Z</time></trkpt><trkpt lat="43.0841979" lon="12.8696576"><ele>1108.0</ele><time>2026-04-11T10:32:10.829Z</time></trkpt><trkpt lat="43.0840625" lon="12.8697072"><ele>1104.0</ele><time>2026-04-11T10:32:11.819Z</time></trkpt><trkpt lat="43.0839294" lon="12.8697669"><ele>1100.0</ele><time>2026-04-11T10:32:12.821Z</time></trkpt><trkpt lat="43.0838009" lon="12.8698224"><ele>1096.0</ele><time>2026-04-11T10:32:13.821Z</time></trkpt><trkpt lat="43.083672" lon="12.869874"><ele>1096.0</ele><time>2026-04-11T10:32:14.828Z</time></trkpt><trkpt lat="43.0835431" lon="12.8699298"><ele>1096.0</ele><time>2026-04-11T10:32:15.819Z</time></trkpt><trkpt lat="43.0834123" lon="12.8699997"><ele>1096.0</ele><time>2026-04-11T10:32:16.823Z</time></trkpt><trkpt lat="43.0832924" lon="12.8700703"><ele>1096.0</ele><time>2026-04-11T10:32:17.824Z</time></trkpt><trkpt lat="43.0831787" lon="12.8701443"><ele>1094.6</ele><time>2026-04-11T10:32:18.824Z</time></trkpt><trkpt lat="43.0830785" lon="12.870219"><ele>1093.1999999999998</ele><time>2026-04-11T10:32:19.815Z</time></trkpt><trkpt lat="43.082985" lon="12.8702959"><ele>1091.8000000000002</ele><time>2026-04-11T10:32:20.824Z</time></trkpt><trkpt lat="43.0829082" lon="12.8703841"><ele>1090.4</ele><time>2026-04-11T10:32:21.825Z</time></trkpt><trkpt lat="43.082858" lon="12.8704887"><ele>1089.0</ele><time>2026-04-11T10:32:22.82Z</time></trkpt><trkpt lat="43.0828326" lon="12.8706233"><ele>1089.0</ele><time>2026-04-11T10:32:23.81Z</time></trkpt><trkpt lat="43.0828313" lon="12.8707463"><ele>1089.0</ele><time>2026-04-11T10:32:24.823Z</time></trkpt><trkpt lat="43.0828111" lon="12.8708542"><ele>1089.0</ele><time>2026-04-11T10:32:25.817Z</time></trkpt><trkpt lat="43.0827641" lon="12.8709393"><ele>1089.0</ele><time>2026-04-11T10:32:26.832Z</time></trkpt><trkpt lat="43.0827044" lon="12.8709717"><ele>1089.0</ele><time>2026-04-11T10:32:27.816Z</time></trkpt><trkpt lat="43.0826014" lon="12.8709364"><ele>1089.0</ele><time>2026-04-11T10:32:28.81Z</time></trkpt><trkpt lat="43.0824985" lon="12.8708866"><ele>1088.25</ele><time>2026-04-11T10:32:29.816Z</time></trkpt><trkpt lat="43.0823597" lon="12.8708758"><ele>1087.5</ele><time>2026-04-11T10:32:30.82Z</time></trkpt><trkpt lat="43.0822246" lon="12.8709125"><ele>1086.75</ele><time>2026-04-11T10:32:31.822Z</time></trkpt><trkpt lat="43.0821031" lon="12.8709637"><ele>1086.0</ele><time>2026-04-11T10:32:32.832Z</time></trkpt><trkpt lat="43.0819893" lon="12.8710349"><ele>1086.0</ele><time>2026-04-11T10:32:33.822Z</time></trkpt><trkpt lat="43.0818805" lon="12.8711275"><ele>1086.0</ele><time>2026-04-11T10:32:34.82Z</time></trkpt><trkpt lat="43.0817647" lon="12.8712356"><ele>1086.0</ele><time>2026-04-11T10:32:35.81Z</time></trkpt><trkpt lat="43.0816497" lon="12.8713482"><ele>1086.0</ele><time>2026-04-11T10:32:36.832Z</time></trkpt><trkpt lat="43.0815285" lon="12.8714674"><ele>1084.0</ele><time>2026-04-11T10:32:37.817Z</time></trkpt><trkpt lat="43.0814076" lon="12.8715876"><ele>1082.0</ele><time>2026-04-11T10:32:38.822Z</time></trkpt><trkpt lat="43.0812936" lon="12.8717068"><ele>1080.0</ele><time>2026-04-11T10:32:39.812Z</time></trkpt><trkpt lat="43.0811776" lon="12.8718228"><ele>1078.0</ele><time>2026-04-11T10:32:40.833Z</time></trkpt><trkpt lat="43.0810588" lon="12.8719385"><ele>1078.0</ele><time>2026-04-11T10:32:41.842Z</time></trkpt><trkpt lat="43.0809446" lon="12.8720531"><ele>1078.0</ele><time>2026-04-11T10:32:42.834Z</time></trkpt><trkpt lat="43.0808268" lon="12.8721733"><ele>1078.0</ele><time>2026-04-11T10:32:43.818Z</time></trkpt><trkpt lat="43.0807111" lon="12.8722913"><ele>1078.0</ele><time>2026-04-11T10:32:44.826Z</time></trkpt><trkpt lat="43.0805979" lon="12.8724064"><ele>1076.75</ele><time>2026-04-11T10:32:45.818Z</time></trkpt><trkpt lat="43.0804851" lon="12.8725274"><ele>1075.5</ele><time>2026-04-11T10:32:46.816Z</time></trkpt><trkpt lat="43.0803766" lon="12.8726479"><ele>1074.25</ele><time>2026-04-11T10:32:47.815Z</time></trkpt><trkpt lat="43.0802661" lon="12.8727534"><ele>1073.0</ele><time>2026-04-11T10:32:48.821Z</time></trkpt><trkpt lat="43.0801564" lon="12.872842"><ele>1073.0</ele><time>2026-04-11T10:32:49.824Z</time></trkpt><trkpt lat="43.0800399" lon="12.8728969"><ele>1073.0</ele><time>2026-04-11T10:32:50.818Z</time></trkpt><trkpt lat="43.0799161" lon="12.8729218"><ele>1073.0</ele><time>2026-04-11T10:32:51.82Z</time></trkpt><trkpt lat="43.0797843" lon="12.8729302"><ele>1073.0</ele><time>2026-04-11T10:32:52.824Z</time></trkpt><trkpt lat="43.0796433" lon="12.8729545"><ele>1069.5</ele><time>2026-04-11T10:32:53.823Z</time></trkpt><trkpt lat="43.0795032" lon="12.8730032"><ele>1066.0</ele><time>2026-04-11T10:32:54.837Z</time></trkpt><trkpt lat="43.0793699" lon="12.8730517"><ele>1062.5</ele><time>2026-04-11T10:32:55.813Z</time></trkpt><trkpt lat="43.0792398" lon="12.8731017"><ele>1059.0</ele><time>2026-04-11T10:32:56.818Z</time></trkpt><trkpt lat="43.0791113" lon="12.8731541"><ele>1058.5</ele><time>2026-04-11T10:32:57.821Z</time></trkpt><trkpt lat="43.0789863" lon="12.8732151"><ele>1058.0</ele><time>2026-04-11T10:32:58.813Z</time></trkpt><trkpt lat="43.0788685" lon="12.873279"><ele>1057.5</ele><time>2026-04-11T10:32:59.817Z</time></trkpt><trkpt lat="43.0787518" lon="12.8733591"><ele>1057.0</ele><time>2026-04-11T10:33:00.815Z</time></trkpt><trkpt lat="43.0786448" lon="12.8734453"><ele>1057.0</ele><time>2026-04-11T10:33:01.815Z</time></trkpt><trkpt lat="43.0785415" lon="12.8735413"><ele>1057.0</ele><time>2026-04-11T10:33:02.821Z</time></trkpt><trkpt lat="43.0784445" lon="12.8736455"><ele>1057.0</ele><time>2026-04-11T10:33:03.823Z</time></trkpt><trkpt lat="43.0783493" lon="12.8737566"><ele>1057.0</ele><time>2026-04-11T10:33:04.823Z</time></trkpt><trkpt lat="43.0782513" lon="12.8738714"><ele>1054.75</ele><time>2026-04-11T10:33:05.809Z</time></trkpt><trkpt lat="43.0781522" lon="12.8739969"><ele>1052.5</ele><time>2026-04-11T10:33:06.814Z</time></trkpt><trkpt lat="43.0780591" lon="12.8741305"><ele>1050.25</ele><time>2026-04-11T10:33:07.818Z</time></trkpt><trkpt lat="43.0779629" lon="12.8742682"><ele>1048.0</ele><time>2026-04-11T10:33:08.822Z</time></trkpt><trkpt lat="43.0778687" lon="12.8743976"><ele>1048.0</ele><time>2026-04-11T10:33:09.829Z</time></trkpt><trkpt lat="43.0777702" lon="12.8745228"><ele>1048.0</ele><time>2026-04-11T10:33:10.84Z</time></trkpt><trkpt lat="43.0776746" lon="12.8746398"><ele>1048.0</ele><time>2026-04-11T10:33:11.824Z</time></trkpt><trkpt lat="43.0775686" lon="12.8747537"><ele>1048.0</ele><time>2026-04-11T10:33:12.817Z</time></trkpt><trkpt lat="43.0774562" lon="12.8748656"><ele>1044.75</ele><time>2026-04-11T10:33:13.817Z</time></trkpt><trkpt lat="43.0773371" lon="12.8749747"><ele>1041.5</ele><time>2026-04-11T10:33:14.826Z</time></trkpt><trkpt lat="43.0772165" lon="12.8750796"><ele>1038.25</ele><time>2026-04-11T10:33:15.822Z</time></trkpt><trkpt lat="43.0770951" lon="12.875173"><ele>1035.0</ele><time>2026-04-11T10:33:16.812Z</time></trkpt><trkpt lat="43.0769753" lon="12.875263"><ele>1035.0</ele><time>2026-04-11T10:33:17.819Z</time></trkpt><trkpt lat="43.0768622" lon="12.8753597"><ele>1035.0</ele><time>2026-04-11T10:33:18.821Z</time></trkpt><trkpt lat="43.0767555" lon="12.8754679"><ele>1035.0</ele><time>2026-04-11T10:33:19.823Z</time></trkpt><trkpt lat="43.0766535" lon="12.8755899"><ele>1035.0</ele><time>2026-04-11T10:33:20.817Z</time></trkpt><trkpt lat="43.0765522" lon="12.8757129"><ele>1031.75</ele><time>2026-04-11T10:33:21.813Z</time></trkpt><trkpt lat="43.0764424" lon="12.8758409"><ele>1028.5</ele><time>2026-04-11T10:33:22.823Z</time></trkpt><trkpt lat="43.0763391" lon="12.8759697"><ele>1025.25</ele><time>2026-04-11T10:33:23.82Z</time></trkpt><trkpt lat="43.0762386" lon="12.8760979"><ele>1022.0</ele><time>2026-04-11T10:33:24.814Z</time></trkpt><trkpt lat="43.0761371" lon="12.8762284"><ele>1022.0</ele><time>2026-04-11T10:33:25.821Z</time></trkpt><trkpt lat="43.0760329" lon="12.8763563"><ele>1022.0</ele><time>2026-04-11T10:33:26.822Z</time></trkpt><trkpt lat="43.0759245" lon="12.8764874"><ele>1022.0</ele><time>2026-04-11T10:33:27.817Z</time></trkpt><trkpt lat="43.0758151" lon="12.8766264"><ele>1022.0</ele><time>2026-04-11T10:33:28.825Z</time></trkpt><trkpt lat="43.0757056" lon="12.8767654"><ele>1017.25</ele><time>2026-04-11T10:33:29.817Z</time></trkpt><trkpt lat="43.0755932" lon="12.8769021"><ele>1012.5</ele><time>2026-04-11T10:33:30.825Z</time></trkpt><trkpt lat="43.0754846" lon="12.8770365"><ele>1007.75</ele><time>2026-04-11T10:33:31.82Z</time></trkpt><trkpt lat="43.0753758" lon="12.8771674"><ele>1003.0</ele><time>2026-04-11T10:33:32.827Z</time></trkpt><trkpt lat="43.0752712" lon="12.8772907"><ele>1003.0</ele><time>2026-04-11T10:33:33.823Z</time></trkpt><trkpt lat="43.0751719" lon="12.8774154"><ele>1003.0</ele><time>2026-04-11T10:33:34.827Z</time></trkpt><trkpt lat="43.0750736" lon="12.8775362"><ele>1003.0</ele><time>2026-04-11T10:33:35.822Z</time></trkpt><trkpt lat="43.074985" lon="12.8776593"><ele>1003.0</ele><time>2026-04-11T10:33:36.838Z</time></trkpt><trkpt lat="43.0748942" lon="12.877775"><ele>999.75</ele><time>2026-04-11T10:33:37.824Z</time></trkpt><trkpt lat="43.0748044" lon="12.8778862"><ele>996.5</ele><time>2026-04-11T10:33:38.822Z</time></trkpt><trkpt lat="43.0747139" lon="12.8779875"><ele>993.25</ele><time>2026-04-11T10:33:39.83Z</time></trkpt><trkpt lat="43.0746253" lon="12.8780891"><ele>990.0</ele><time>2026-04-11T10:33:40.829Z</time></trkpt><trkpt lat="43.0745494" lon="12.8782006"><ele>990.0</ele><time>2026-04-11T10:33:41.829Z</time></trkpt><trkpt lat="43.0744809" lon="12.8783149"><ele>990.0</ele><time>2026-04-11T10:33:42.825Z</time></trkpt><trkpt lat="43.0744378" lon="12.8784416"><ele>990.0</ele><time>2026-04-11T10:33:43.821Z</time></trkpt><trkpt lat="43.0744114" lon="12.8785768"><ele>990.0</ele><time>2026-04-11T10:33:44.819Z</time></trkpt><trkpt lat="43.074406" lon="12.8787085"><ele>990.0</ele><time>2026-04-11T10:33:45.82Z</time></trkpt><trkpt lat="43.0744036" lon="12.8788452"><ele>989.8333333333334</ele><time>2026-04-11T10:33:46.821Z</time></trkpt><trkpt lat="43.074406" lon="12.8789727"><ele>989.6666666666667</ele><time>2026-04-11T10:33:47.821Z</time></trkpt><trkpt lat="43.0743929" lon="12.8790774"><ele>989.5</ele><time>2026-04-11T10:33:48.827Z</time></trkpt><trkpt lat="43.0743515" lon="12.8791768"><ele>989.3333333333334</ele><time>2026-04-11T10:33:49.832Z</time></trkpt><trkpt lat="43.0742919" lon="12.879254"><ele>989.1666666666667</ele><time>2026-04-11T10:33:50.822Z</time></trkpt><trkpt lat="43.0742247" lon="12.8792893"><ele>989.0</ele><time>2026-04-11T10:33:51.829Z</time></trkpt><trkpt lat="43.0741406" lon="12.8792754"><ele>987.6</ele><time>2026-04-11T10:33:52.819Z</time></trkpt><trkpt lat="43.0740681" lon="12.8792212"><ele>986.2</ele><time>2026-04-11T10:33:53.822Z</time></trkpt><trkpt lat="43.074002" lon="12.8791321"><ele>984.8000000000001</ele><time>2026-04-11T10:33:54.828Z</time></trkpt><trkpt lat="43.073956" lon="12.8790049"><ele>983.4000000000001</ele><time>2026-04-11T10:33:55.833Z</time></trkpt><trkpt lat="43.0739265" lon="12.8788446"><ele>982.0</ele><time>2026-04-11T10:33:56.828Z</time></trkpt><trkpt lat="43.0738966" lon="12.8786583"><ele>982.0</ele><time>2026-04-11T10:33:57.817Z</time></trkpt><trkpt lat="43.0738687" lon="12.878476"><ele>982.0</ele><time>2026-04-11T10:33:58.825Z</time></trkpt><trkpt lat="43.0738449" lon="12.8782935"><ele>982.0</ele><time>2026-04-11T10:33:59.829Z</time></trkpt><trkpt lat="43.0738337" lon="12.8781108"><ele>982.0</ele><time>2026-04-11T10:34:00.819Z</time></trkpt><trkpt lat="43.0738372" lon="12.8779223"><ele>980.5</ele><time>2026-04-11T10:34:01.816Z</time></trkpt><trkpt lat="43.073863" lon="12.8777159"><ele>979.0</ele><time>2026-04-11T10:34:02.822Z</time></trkpt><trkpt lat="43.0738994" lon="12.8775239"><ele>977.5</ele><time>2026-04-11T10:34:03.814Z</time></trkpt><trkpt lat="43.073938" lon="12.8773373"><ele>976.0</ele><time>2026-04-11T10:34:04.819Z</time></trkpt><trkpt lat="43.0739785" lon="12.8771629"><ele>976.25</ele><time>2026-04-11T10:34:05.824Z</time></trkpt><trkpt lat="43.0740233" lon="12.876995"><ele>976.5</ele><time>2026-04-11T10:34:06.82Z</time></trkpt><trkpt lat="43.0740724" lon="12.8768293"><ele>976.75</ele><time>2026-04-11T10:34:07.813Z</time></trkpt><trkpt lat="43.0741185" lon="12.876662"><ele>977.0</ele><time>2026-04-11T10:34:08.818Z</time></trkpt><trkpt lat="43.0741639" lon="12.8764916"><ele>977.0</ele><time>2026-04-11T10:34:09.821Z</time></trkpt><trkpt lat="43.0742083" lon="12.8763201"><ele>977.0</ele><time>2026-04-11T10:34:10.82Z</time></trkpt><trkpt lat="43.0742547" lon="12.8761502"><ele>977.0</ele><time>2026-04-11T10:34:11.817Z</time></trkpt><trkpt lat="43.0743073" lon="12.8759837"><ele>977.0</ele><time>2026-04-11T10:34:12.824Z</time></trkpt><trkpt lat="43.0743681" lon="12.875817"><ele>974.0</ele><time>2026-04-11T10:34:13.823Z</time></trkpt><trkpt lat="43.0744218" lon="12.8756378"><ele>971.0</ele><time>2026-04-11T10:34:14.824Z</time></trkpt><trkpt lat="43.0744747" lon="12.8754488"><ele>968.0</ele><time>2026-04-11T10:34:15.816Z</time></trkpt><trkpt lat="43.0745292" lon="12.8752435"><ele>965.0</ele><time>2026-04-11T10:34:16.823Z</time></trkpt><trkpt lat="43.0745815" lon="12.8750341"><ele>961.3333333333334</ele><time>2026-04-11T10:34:17.822Z</time></trkpt><trkpt lat="43.0746366" lon="12.8748315"><ele>957.6666666666667</ele><time>2026-04-11T10:34:18.831Z</time></trkpt><trkpt lat="43.0746896" lon="12.8746398"><ele>954.0</ele><time>2026-04-11T10:34:19.819Z</time></trkpt><trkpt lat="43.0747398" lon="12.8744498"><ele>950.5</ele><time>2026-04-11T10:34:20.824Z</time></trkpt><trkpt lat="43.0747869" lon="12.8742656"><ele>947.0</ele><time>2026-04-11T10:34:21.816Z</time></trkpt><trkpt lat="43.074835" lon="12.8740822"><ele>943.5</ele><time>2026-04-11T10:34:22.82Z</time></trkpt><trkpt lat="43.074885" lon="12.8739078"><ele>940.0</ele><time>2026-04-11T10:34:23.831Z</time></trkpt><trkpt lat="43.0749365" lon="12.873739"><ele>942.5</ele><time>2026-04-11T10:34:24.822Z</time></trkpt><trkpt lat="43.0749863" lon="12.8735806"><ele>945.0</ele><time>2026-04-11T10:34:25.808Z</time></trkpt><trkpt lat="43.0750416" lon="12.873423"><ele>947.5</ele><time>2026-04-11T10:34:26.821Z</time></trkpt><trkpt lat="43.0751065" lon="12.873273"><ele>950.0</ele><time>2026-04-11T10:34:27.818Z</time></trkpt><trkpt lat="43.0751774" lon="12.8731176"><ele>950.0</ele><time>2026-04-11T10:34:28.824Z</time></trkpt><trkpt lat="43.0752543" lon="12.872964"><ele>950.0</ele><time>2026-04-11T10:34:29.814Z</time></trkpt><trkpt lat="43.0753362" lon="12.8728323"><ele>950.0</ele><time>2026-04-11T10:34:30.827Z</time></trkpt><trkpt lat="43.0754184" lon="12.8726998"><ele>950.0</ele><time>2026-04-11T10:34:31.817Z</time></trkpt><trkpt lat="43.075507" lon="12.872591"><ele>950.5</ele><time>2026-04-11T10:34:32.816Z</time></trkpt><trkpt lat="43.0755963" lon="12.8724839"><ele>951.0</ele><time>2026-04-11T10:34:33.819Z</time></trkpt><trkpt lat="43.0756773" lon="12.8723733"><ele>951.5</ele><time>2026-04-11T10:34:34.826Z</time></trkpt><trkpt lat="43.0757405" lon="12.8722335"><ele>952.0</ele><time>2026-04-11T10:34:35.823Z</time></trkpt><trkpt lat="43.0757969" lon="12.8720636"><ele>952.0</ele><time>2026-04-11T10:34:36.832Z</time></trkpt><trkpt lat="43.0758477" lon="12.8718811"><ele>952.0</ele><time>2026-04-11T10:34:37.825Z</time></trkpt><trkpt lat="43.0758997" lon="12.8716856"><ele>952.0</ele><time>2026-04-11T10:34:38.818Z</time></trkpt><trkpt lat="43.0759506" lon="12.8714935"><ele>952.0</ele><time>2026-04-11T10:34:39.833Z</time></trkpt><trkpt lat="43.0759995" lon="12.871307"><ele>948.75</ele><time>2026-04-11T10:34:40.838Z</time></trkpt><trkpt lat="43.0760497" lon="12.8711256"><ele>945.5</ele><time>2026-04-11T10:34:41.829Z</time></trkpt><trkpt lat="43.076096" lon="12.870947"><ele>942.25</ele><time>2026-04-11T10:34:42.822Z</time></trkpt><trkpt lat="43.0761435" lon="12.8707732"><ele>939.0</ele><time>2026-04-11T10:34:43.826Z</time></trkpt><trkpt lat="43.0761929" lon="12.8706058"><ele>935.5</ele><time>2026-04-11T10:34:44.821Z</time></trkpt><trkpt lat="43.0762372" lon="12.8704456"><ele>932.0</ele><time>2026-04-11T10:34:45.823Z</time></trkpt><trkpt lat="43.076279" lon="12.8702813"><ele>928.5</ele><time>2026-04-11T10:34:46.826Z</time></trkpt><trkpt lat="43.0763257" lon="12.8701259"><ele>925.0</ele><time>2026-04-11T10:34:47.815Z</time></trkpt><trkpt lat="43.0763804" lon="12.8699739"><ele>926.75</ele><time>2026-04-11T10:34:48.829Z</time></trkpt><trkpt lat="43.0764417" lon="12.8698253"><ele>928.5</ele><time>2026-04-11T10:34:49.817Z</time></trkpt><trkpt lat="43.0765077" lon="12.8696655"><ele>930.25</ele><time>2026-04-11T10:34:50.819Z</time></trkpt><trkpt lat="43.0765744" lon="12.869496"><ele>932.0</ele><time>2026-04-11T10:34:51.812Z</time></trkpt><trkpt lat="43.0766399" lon="12.8693268"><ele>928.25</ele><time>2026-04-11T10:34:52.823Z</time></trkpt><trkpt lat="43.0767058" lon="12.8691669"><ele>924.5</ele><time>2026-04-11T10:34:53.81Z</time></trkpt><trkpt lat="43.076776" lon="12.8690047"><ele>920.75</ele><time>2026-04-11T10:34:54.821Z</time></trkpt><trkpt lat="43.076847" lon="12.8688469"><ele>917.0</ele><time>2026-04-11T10:34:55.815Z</time></trkpt><trkpt lat="43.0769177" lon="12.8686941"><ele>917.0</ele><time>2026-04-11T10:34:56.814Z</time></trkpt><trkpt lat="43.0769876" lon="12.8685392"><ele>917.0</ele><time>2026-04-11T10:34:57.81Z</time></trkpt><trkpt lat="43.0770594" lon="12.868395"><ele>917.0</ele><time>2026-04-11T10:34:58.816Z</time></trkpt><trkpt lat="43.0771303" lon="12.8682508"><ele>917.0</ele><time>2026-04-11T10:34:59.816Z</time></trkpt><trkpt lat="43.0771984" lon="12.8681018"><ele>913.5</ele><time>2026-04-11T10:35:00.817Z</time></trkpt><trkpt lat="43.0772451" lon="12.8679334"><ele>910.0</ele><time>2026-04-11T10:35:01.816Z</time></trkpt><trkpt lat="43.0772805" lon="12.8677597"><ele>906.5</ele><time>2026-04-11T10:35:02.836Z</time></trkpt><trkpt lat="43.0773124" lon="12.8675932"><ele>903.0</ele><time>2026-04-11T10:35:03.823Z</time></trkpt><trkpt lat="43.077343" lon="12.8674222"><ele>904.75</ele><time>2026-04-11T10:35:04.828Z</time></trkpt><trkpt lat="43.0773781" lon="12.8672629"><ele>906.5</ele><time>2026-04-11T10:35:05.82Z</time></trkpt><trkpt lat="43.077416" lon="12.8671062"><ele>908.25</ele><time>2026-04-11T10:35:06.818Z</time></trkpt><trkpt lat="43.0774569" lon="12.8669591"><ele>910.0</ele><time>2026-04-11T10:35:07.827Z</time></trkpt><trkpt lat="43.0774967" lon="12.8668042"><ele>908.0</ele><time>2026-04-11T10:35:08.825Z</time></trkpt><trkpt lat="43.0775389" lon="12.8666411"><ele>906.0</ele><time>2026-04-11T10:35:09.834Z</time></trkpt><trkpt lat="43.077588" lon="12.866478"><ele>904.0</ele><time>2026-04-11T10:35:10.822Z</time></trkpt><trkpt lat="43.077639" lon="12.8663183"><ele>902.0</ele><time>2026-04-11T10:35:11.82Z</time></trkpt><trkpt lat="43.0777005" lon="12.8661736"><ele>902.0</ele><time>2026-04-11T10:35:12.821Z</time></trkpt><trkpt lat="43.0777647" lon="12.8660253"><ele>902.0</ele><time>2026-04-11T10:35:13.808Z</time></trkpt><trkpt lat="43.0778234" lon="12.8658827"><ele>902.0</ele><time>2026-04-11T10:35:14.816Z</time></trkpt><trkpt lat="43.0778758" lon="12.8657302"><ele>902.0</ele><time>2026-04-11T10:35:15.816Z</time></trkpt><trkpt lat="43.0779349" lon="12.8655858"><ele>898.75</ele><time>2026-04-11T10:35:16.823Z</time></trkpt><trkpt lat="43.0780019" lon="12.8654471"><ele>895.5</ele><time>2026-04-11T10:35:17.816Z</time></trkpt><trkpt lat="43.0780729" lon="12.8652923"><ele>892.25</ele><time>2026-04-11T10:35:18.814Z</time></trkpt><trkpt lat="43.0781486" lon="12.8651262"><ele>889.0</ele><time>2026-04-11T10:35:19.809Z</time></trkpt><trkpt lat="43.0782303" lon="12.8649515"><ele>889.3333333333333</ele><time>2026-04-11T10:35:20.812Z</time></trkpt><trkpt lat="43.0783119" lon="12.864756"><ele>889.6666666666667</ele><time>2026-04-11T10:35:21.813Z</time></trkpt><trkpt lat="43.0783977" lon="12.8645509"><ele>890.0</ele><time>2026-04-11T10:35:22.817Z</time></trkpt><trkpt lat="43.0784784" lon="12.8643531"><ele>886.25</ele><time>2026-04-11T10:35:23.814Z</time></trkpt><trkpt lat="43.0785521" lon="12.864176"><ele>882.5</ele><time>2026-04-11T10:35:24.816Z</time></trkpt><trkpt lat="43.0786213" lon="12.8640035"><ele>878.75</ele><time>2026-04-11T10:35:25.814Z</time></trkpt><trkpt lat="43.0786796" lon="12.8638309"><ele>875.0</ele><time>2026-04-11T10:35:26.823Z</time></trkpt><trkpt lat="43.0787367" lon="12.8636646"><ele>875.0</ele><time>2026-04-11T10:35:27.816Z</time></trkpt><trkpt lat="43.0787982" lon="12.8634989"><ele>875.0</ele><time>2026-04-11T10:35:28.823Z</time></trkpt><trkpt lat="43.0788668" lon="12.8633478"><ele>875.0</ele><time>2026-04-11T10:35:29.801Z</time></trkpt><trkpt lat="43.0789353" lon="12.8632069"><ele>875.0</ele><time>2026-04-11T10:35:30.812Z</time></trkpt><trkpt lat="43.0789976" lon="12.8630689"><ele>875.4</ele><time>2026-04-11T10:35:31.812Z</time></trkpt><trkpt lat="43.0790588" lon="12.862944"><ele>875.8</ele><time>2026-04-11T10:35:32.815Z</time></trkpt><trkpt lat="43.079123" lon="12.8628205"><ele>876.2</ele><time>2026-04-11T10:35:33.814Z</time></trkpt><trkpt lat="43.0791906" lon="12.8627045"><ele>876.6</ele><time>2026-04-11T10:35:34.824Z</time></trkpt><trkpt lat="43.0792529" lon="12.862593"><ele>877.0</ele><time>2026-04-11T10:35:35.813Z</time></trkpt><trkpt lat="43.0793132" lon="12.862485"><ele>872.75</ele><time>2026-04-11T10:35:36.818Z</time></trkpt><trkpt lat="43.0793894" lon="12.8623791"><ele>868.5</ele><time>2026-04-11T10:35:37.823Z</time></trkpt><trkpt lat="43.0794813" lon="12.8622852"><ele>864.25</ele><time>2026-04-11T10:35:38.818Z</time></trkpt><trkpt lat="43.0795819" lon="12.862199"><ele>860.0</ele><time>2026-04-11T10:35:39.806Z</time></trkpt><trkpt lat="43.0796824" lon="12.862112"><ele>860.0</ele><time>2026-04-11T10:35:40.82Z</time></trkpt><trkpt lat="43.0797808" lon="12.862032"><ele>860.0</ele><time>2026-04-11T10:35:41.82Z</time></trkpt><trkpt lat="43.079871" lon="12.8619545"><ele>860.0</ele><time>2026-04-11T10:35:42.817Z</time></trkpt><trkpt lat="43.0799536" lon="12.8618833"><ele>860.0</ele><time>2026-04-11T10:35:43.815Z</time></trkpt><trkpt lat="43.0800343" lon="12.8618206"><ele>860.0</ele><time>2026-04-11T10:35:44.822Z</time></trkpt><trkpt lat="43.0801182" lon="12.8617723"><ele>858.5000000000001</ele><time>2026-04-11T10:35:45.818Z</time></trkpt><trkpt lat="43.0802068" lon="12.8617334"><ele>857.0</ele><time>2026-04-11T10:35:46.811Z</time></trkpt><trkpt lat="43.0802896" lon="12.86171"><ele>855.5</ele><time>2026-04-11T10:35:47.813Z</time></trkpt><trkpt lat="43.0803704" lon="12.8616915"><ele>854.0</ele><time>2026-04-11T10:35:48.819Z</time></trkpt><trkpt lat="43.0804512" lon="12.8616742"><ele>852.5000000000001</ele><time>2026-04-11T10:35:49.819Z</time></trkpt><trkpt lat="43.080508" lon="12.8616355"><ele>851.0</ele><time>2026-04-11T10:35:50.82Z</time></trkpt><trkpt lat="43.0805128" lon="12.8614887"><ele>851.0</ele><time>2026-04-11T10:35:52.81Z</time></trkpt><trkpt lat="43.0804508" lon="12.8614194"><ele>851.0</ele><time>2026-04-11T10:35:53.811Z</time></trkpt><trkpt lat="43.0803732" lon="12.8613772"><ele>851.0</ele><time>2026-04-11T10:35:54.814Z</time></trkpt><trkpt lat="43.0802811" lon="12.8613646"><ele>851.0</ele><time>2026-04-11T10:35:55.814Z</time></trkpt><trkpt lat="43.0801747" lon="12.8613595"><ele>851.0</ele><time>2026-04-11T10:35:56.813Z</time></trkpt><trkpt lat="43.0800793" lon="12.8613416"><ele>851.0000000000001</ele><time>2026-04-11T10:35:57.808Z</time></trkpt><trkpt lat="43.0799938" lon="12.8613102"><ele>851.0</ele><time>2026-04-11T10:35:58.818Z</time></trkpt><trkpt lat="43.0799314" lon="12.8612671"><ele>851.0</ele><time>2026-04-11T10:35:59.806Z</time></trkpt><trkpt lat="43.0798763" lon="12.8612105"><ele>851.0</ele><time>2026-04-11T10:36:00.813Z</time></trkpt><trkpt lat="43.0798388" lon="12.8611291"><ele>851.0000000000001</ele><time>2026-04-11T10:36:01.808Z</time></trkpt><trkpt lat="43.0798083" lon="12.8610101"><ele>851.0</ele><time>2026-04-11T10:36:02.819Z</time></trkpt><trkpt lat="43.0797773" lon="12.8608595"><ele>847.0</ele><time>2026-04-11T10:36:03.815Z</time></trkpt><trkpt lat="43.0797418" lon="12.8607009"><ele>843.0</ele><time>2026-04-11T10:36:04.806Z</time></trkpt><trkpt lat="43.0796999" lon="12.8605337"><ele>839.0</ele><time>2026-04-11T10:36:05.818Z</time></trkpt><trkpt lat="43.079654" lon="12.8603681"><ele>835.0</ele><time>2026-04-11T10:36:06.814Z</time></trkpt><trkpt lat="43.0796105" lon="12.8602122"><ele>834.2</ele><time>2026-04-11T10:36:07.82Z</time></trkpt><trkpt lat="43.0795802" lon="12.8600636"><ele>833.4</ele><time>2026-04-11T10:36:08.819Z</time></trkpt><trkpt lat="43.0795445" lon="12.8599247"><ele>832.5999999999999</ele><time>2026-04-11T10:36:09.814Z</time></trkpt><trkpt lat="43.0795027" lon="12.8597849"><ele>831.8</ele><time>2026-04-11T10:36:10.815Z</time></trkpt><trkpt lat="43.0794601" lon="12.8596385"><ele>831.0</ele><time>2026-04-11T10:36:11.813Z</time></trkpt><trkpt lat="43.0794123" lon="12.8594935"><ele>831.0</ele><time>2026-04-11T10:36:12.817Z</time></trkpt><trkpt lat="43.0793594" lon="12.8593571"><ele>831.0</ele><time>2026-04-11T10:36:13.816Z</time></trkpt><trkpt lat="43.0792974" lon="12.8592292"><ele>831.0</ele><time>2026-04-11T10:36:14.82Z</time></trkpt><trkpt lat="43.0792206" lon="12.8590998"><ele>831.0</ele><time>2026-04-11T10:36:15.823Z</time></trkpt><trkpt lat="43.0791309" lon="12.858978"><ele>829.75</ele><time>2026-04-11T10:36:16.82Z</time></trkpt><trkpt lat="43.0790417" lon="12.8588636"><ele>828.5</ele><time>2026-04-11T10:36:17.814Z</time></trkpt><trkpt lat="43.078959" lon="12.858758"><ele>827.25</ele><time>2026-04-11T10:36:18.818Z</time></trkpt><trkpt lat="43.07888" lon="12.8586546"><ele>826.0</ele><time>2026-04-11T10:36:19.817Z</time></trkpt><trkpt lat="43.0788061" lon="12.8585458"><ele>826.5</ele><time>2026-04-11T10:36:20.819Z</time></trkpt><trkpt lat="43.0787326" lon="12.8584321"><ele>827.0</ele><time>2026-04-11T10:36:21.812Z</time></trkpt><trkpt lat="43.0786507" lon="12.8583102"><ele>827.5</ele><time>2026-04-11T10:36:22.819Z</time></trkpt><trkpt lat="43.078566" lon="12.8581998"><ele>828.0</ele><time>2026-04-11T10:36:23.813Z</time></trkpt><trkpt lat="43.0784831" lon="12.858104"><ele>828.0</ele><time>2026-04-11T10:36:24.823Z</time></trkpt><trkpt lat="43.0784101" lon="12.858012"><ele>828.0</ele><time>2026-04-11T10:36:25.815Z</time></trkpt><trkpt lat="43.0783389" lon="12.8579152"><ele>828.0</ele><time>2026-04-11T10:36:26.818Z</time></trkpt><trkpt lat="43.0782702" lon="12.8578304"><ele>828.0</ele><time>2026-04-11T10:36:27.805Z</time></trkpt><trkpt lat="43.0781972" lon="12.8577506"><ele>828.0</ele><time>2026-04-11T10:36:28.813Z</time></trkpt><trkpt lat="43.0781252" lon="12.8576743"><ele>829.0</ele><time>2026-04-11T10:36:29.816Z</time></trkpt><trkpt lat="43.0780563" lon="12.8576063"><ele>830.0</ele><time>2026-04-11T10:36:30.82Z</time></trkpt><trkpt lat="43.0779972" lon="12.8575644"><ele>831.0</ele><time>2026-04-11T10:36:31.817Z</time></trkpt><trkpt lat="43.0778894" lon="12.8575062"><ele>832.0</ele><time>2026-04-11T10:36:33.816Z</time></trkpt><trkpt lat="43.0778" lon="12.8575077"><ele>833.0</ele><time>2026-04-11T10:36:35.81Z</time></trkpt><trkpt lat="43.0777206" lon="12.8575858"><ele>831.8333333333334</ele><time>2026-04-11T10:36:37.811Z</time></trkpt><trkpt lat="43.077669" lon="12.8576379"><ele>830.6666666666667</ele><time>2026-04-11T10:36:38.813Z</time></trkpt><trkpt lat="43.0776043" lon="12.8576929"><ele>829.5</ele><time>2026-04-11T10:36:39.811Z</time></trkpt><trkpt lat="43.0775238" lon="12.8577491"><ele>828.3333333333333</ele><time>2026-04-11T10:36:40.824Z</time></trkpt><trkpt lat="43.0774316" lon="12.8578056"><ele>827.1666666666666</ele><time>2026-04-11T10:36:41.821Z</time></trkpt><trkpt lat="43.0773284" lon="12.8578686"><ele>826.0</ele><time>2026-04-11T10:36:42.818Z</time></trkpt><trkpt lat="43.0772141" lon="12.8579324"><ele>825.5</ele><time>2026-04-11T10:36:43.818Z</time></trkpt><trkpt lat="43.0771004" lon="12.8579996"><ele>825.0</ele><time>2026-04-11T10:36:44.828Z</time></trkpt><trkpt lat="43.0769906" lon="12.8580659"><ele>824.5</ele><time>2026-04-11T10:36:45.813Z</time></trkpt><trkpt lat="43.0768891" lon="12.8581375"><ele>824.0</ele><time>2026-04-11T10:36:46.816Z</time></trkpt><trkpt lat="43.0767898" lon="12.85821"><ele>824.0</ele><time>2026-04-11T10:36:47.824Z</time></trkpt><trkpt lat="43.0766951" lon="12.8582782"><ele>824.0</ele><time>2026-04-11T10:36:48.81Z</time></trkpt><trkpt lat="43.0766046" lon="12.8583477"><ele>824.0</ele><time>2026-04-11T10:36:49.81Z</time></trkpt><trkpt lat="43.0765081" lon="12.8584073"><ele>824.0</ele><time>2026-04-11T10:36:50.816Z</time></trkpt><trkpt lat="43.0764111" lon="12.858458"><ele>824.0</ele><time>2026-04-11T10:36:51.806Z</time></trkpt><trkpt lat="43.0763142" lon="12.858493"><ele>823.2</ele><time>2026-04-11T10:36:52.814Z</time></trkpt><trkpt lat="43.0762184" lon="12.8585093"><ele>822.4000000000001</ele><time>2026-04-11T10:36:53.809Z</time></trkpt><trkpt lat="43.0761201" lon="12.8585138"><ele>821.6</ele><time>2026-04-11T10:36:54.816Z</time></trkpt><trkpt lat="43.0760166" lon="12.8585192"><ele>820.8</ele><time>2026-04-11T10:36:55.813Z</time></trkpt><trkpt lat="43.0759086" lon="12.8585235"><ele>820.0</ele><time>2026-04-11T10:36:56.816Z</time></trkpt><trkpt lat="43.0757962" lon="12.8585289"><ele>818.75</ele><time>2026-04-11T10:36:57.802Z</time></trkpt><trkpt lat="43.0756752" lon="12.8585367"><ele>817.5</ele><time>2026-04-11T10:36:58.815Z</time></trkpt><trkpt lat="43.0755551" lon="12.8585545"><ele>816.25</ele><time>2026-04-11T10:36:59.812Z</time></trkpt><trkpt lat="43.0754304" lon="12.8585904"><ele>815.0</ele><time>2026-04-11T10:37:00.815Z</time></trkpt><trkpt lat="43.0753014" lon="12.8586503"><ele>815.0</ele><time>2026-04-11T10:37:01.818Z</time></trkpt><trkpt lat="43.0751723" lon="12.8587209"><ele>815.0</ele><time>2026-04-11T10:37:02.811Z</time></trkpt><trkpt lat="43.0750461" lon="12.858802"><ele>815.0</ele><time>2026-04-11T10:37:03.807Z</time></trkpt><trkpt lat="43.0749198" lon="12.8589011"><ele>815.0</ele><time>2026-04-11T10:37:04.826Z</time></trkpt><trkpt lat="43.0747967" lon="12.8590154"><ele>814.0</ele><time>2026-04-11T10:37:05.822Z</time></trkpt><trkpt lat="43.0746748" lon="12.859144"><ele>813.0</ele><time>2026-04-11T10:37:06.817Z</time></trkpt><trkpt lat="43.0745614" lon="12.8592729"><ele>812.0</ele><time>2026-04-11T10:37:07.814Z</time></trkpt><trkpt lat="43.074453" lon="12.8594179"><ele>812.0</ele><time>2026-04-11T10:37:08.82Z</time></trkpt><trkpt lat="43.0743581" lon="12.8595784"><ele>812.0</ele><time>2026-04-11T10:37:09.814Z</time></trkpt><trkpt lat="43.0742696" lon="12.8597391"><ele>812.0</ele><time>2026-04-11T10:37:10.82Z</time></trkpt><trkpt lat="43.0741798" lon="12.8598978"><ele>812.0</ele><time>2026-04-11T10:37:11.831Z</time></trkpt><trkpt lat="43.0740831" lon="12.8600422"><ele>812.0</ele><time>2026-04-11T10:37:12.823Z</time></trkpt><trkpt lat="43.0739672" lon="12.8601734"><ele>812.0</ele><time>2026-04-11T10:37:13.814Z</time></trkpt><trkpt lat="43.0738363" lon="12.8602799"><ele>812.0</ele><time>2026-04-11T10:37:14.819Z</time></trkpt><trkpt lat="43.0736967" lon="12.8603654"><ele>812.0</ele><time>2026-04-11T10:37:15.814Z</time></trkpt><trkpt lat="43.0735614" lon="12.8604373"><ele>812.0</ele><time>2026-04-11T10:37:16.82Z</time></trkpt><trkpt lat="43.0734274" lon="12.8605072"><ele>812.0</ele><time>2026-04-11T10:37:17.825Z</time></trkpt><trkpt lat="43.0732859" lon="12.8605879"><ele>812.0</ele><time>2026-04-11T10:37:18.813Z</time></trkpt><trkpt lat="43.0731524" lon="12.8606627"><ele>811.0</ele><time>2026-04-11T10:37:19.804Z</time></trkpt><trkpt lat="43.0730231" lon="12.8607331"><ele>810.0</ele><time>2026-04-11T10:37:20.817Z</time></trkpt><trkpt lat="43.0729013" lon="12.8608005"><ele>809.0</ele><time>2026-04-11T10:37:21.808Z</time></trkpt><trkpt lat="43.0727855" lon="12.86087"><ele>808.0</ele><time>2026-04-11T10:37:22.824Z</time></trkpt><trkpt lat="43.0726718" lon="12.8609404"><ele>808.5</ele><time>2026-04-11T10:37:23.808Z</time></trkpt><trkpt lat="43.0725545" lon="12.8610123"><ele>809.0</ele><time>2026-04-11T10:37:24.815Z</time></trkpt><trkpt lat="43.0724417" lon="12.8610828"><ele>809.5</ele><time>2026-04-11T10:37:25.822Z</time></trkpt><trkpt lat="43.0723313" lon="12.8611479"><ele>810.0</ele><time>2026-04-11T10:37:26.811Z</time></trkpt><trkpt lat="43.0722142" lon="12.8612201"><ele>810.0</ele><time>2026-04-11T10:37:27.817Z</time></trkpt><trkpt lat="43.0721027" lon="12.8612892"><ele>810.0</ele><time>2026-04-11T10:37:28.812Z</time></trkpt><trkpt lat="43.0719953" lon="12.8613599"><ele>810.0</ele><time>2026-04-11T10:37:29.806Z</time></trkpt><trkpt lat="43.0718951" lon="12.8614404"><ele>810.0</ele><time>2026-04-11T10:37:30.81Z</time></trkpt><trkpt lat="43.0717977" lon="12.8615324"><ele>810.0</ele><time>2026-04-11T10:37:31.819Z</time></trkpt><trkpt lat="43.071704" lon="12.861635"><ele>810.0</ele><time>2026-04-11T10:37:32.815Z</time></trkpt><trkpt lat="43.0716154" lon="12.8617533"><ele>810.0</ele><time>2026-04-11T10:37:33.81Z</time></trkpt><trkpt lat="43.0715349" lon="12.8618691"><ele>810.0</ele><time>2026-04-11T10:37:34.808Z</time></trkpt><trkpt lat="43.0714561" lon="12.8619885"><ele>808.75</ele><time>2026-04-11T10:37:35.81Z</time></trkpt><trkpt lat="43.0713661" lon="12.8620949"><ele>807.5</ele><time>2026-04-11T10:37:36.819Z</time></trkpt><trkpt lat="43.0712748" lon="12.8621926"><ele>806.25</ele><time>2026-04-11T10:37:37.806Z</time></trkpt><trkpt lat="43.0711775" lon="12.8622892"><ele>805.0</ele><time>2026-04-11T10:37:38.808Z</time></trkpt><trkpt lat="43.0710792" lon="12.8623852"><ele>805.0</ele><time>2026-04-11T10:37:39.81Z</time></trkpt><trkpt lat="43.0709742" lon="12.8624757"><ele>805.0</ele><time>2026-04-11T10:37:40.825Z</time></trkpt><trkpt lat="43.0708659" lon="12.8625564"><ele>805.0</ele><time>2026-04-11T10:37:41.816Z</time></trkpt><trkpt lat="43.0707565" lon="12.8626292"><ele>805.0</ele><time>2026-04-11T10:37:42.814Z</time></trkpt><trkpt lat="43.0706448" lon="12.8626931"><ele>805.0</ele><time>2026-04-11T10:37:43.813Z</time></trkpt><trkpt lat="43.0705266" lon="12.8627432"><ele>805.0</ele><time>2026-04-11T10:37:44.809Z</time></trkpt><trkpt lat="43.0703978" lon="12.8627789"><ele>805.0</ele><time>2026-04-11T10:37:45.812Z</time></trkpt><trkpt lat="43.0702581" lon="12.8628057"><ele>805.0</ele><time>2026-04-11T10:37:46.815Z</time></trkpt><trkpt lat="43.0701161" lon="12.8628338"><ele>805.0</ele><time>2026-04-11T10:37:47.808Z</time></trkpt><trkpt lat="43.0699687" lon="12.8628601"><ele>805.0</ele><time>2026-04-11T10:37:48.814Z</time></trkpt><trkpt lat="43.0698243" lon="12.8628996"><ele>805.0</ele><time>2026-04-11T10:37:49.811Z</time></trkpt><trkpt lat="43.0696772" lon="12.8629384"><ele>805.0</ele><time>2026-04-11T10:37:50.813Z</time></trkpt><trkpt lat="43.0695363" lon="12.862986"><ele>804.25</ele><time>2026-04-11T10:37:51.81Z</time></trkpt><trkpt lat="43.0694037" lon="12.8630601"><ele>803.5</ele><time>2026-04-11T10:37:52.827Z</time></trkpt><trkpt lat="43.069286" lon="12.8631655"><ele>802.75</ele><time>2026-04-11T10:37:53.811Z</time></trkpt><trkpt lat="43.069183" lon="12.8632864"><ele>802.0</ele><time>2026-04-11T10:37:54.805Z</time></trkpt><trkpt lat="43.0690829" lon="12.8634182"><ele>801.75</ele><time>2026-04-11T10:37:55.81Z</time></trkpt><trkpt lat="43.0689918" lon="12.8635513"><ele>801.5</ele><time>2026-04-11T10:37:56.81Z</time></trkpt><trkpt lat="43.0688944" lon="12.863676"><ele>801.25</ele><time>2026-04-11T10:37:57.805Z</time></trkpt><trkpt lat="43.0687912" lon="12.8638019"><ele>801.0</ele><time>2026-04-11T10:37:58.811Z</time></trkpt><trkpt lat="43.0686892" lon="12.8639252"><ele>801.0</ele><time>2026-04-11T10:37:59.806Z</time></trkpt><trkpt lat="43.0685877" lon="12.8640537"><ele>801.0</ele><time>2026-04-11T10:38:00.813Z</time></trkpt><trkpt lat="43.0684861" lon="12.8641836"><ele>801.0</ele><time>2026-04-11T10:38:01.807Z</time></trkpt><trkpt lat="43.0683732" lon="12.8643105"><ele>801.0</ele><time>2026-04-11T10:38:02.809Z</time></trkpt><trkpt lat="43.0682504" lon="12.8644139"><ele>801.25</ele><time>2026-04-11T10:38:03.805Z</time></trkpt><trkpt lat="43.0681172" lon="12.8644789"><ele>801.5</ele><time>2026-04-11T10:38:04.829Z</time></trkpt><trkpt lat="43.0679738" lon="12.8645249"><ele>801.75</ele><time>2026-04-11T10:38:05.814Z</time></trkpt><trkpt lat="43.0678206" lon="12.8645633"><ele>802.0</ele><time>2026-04-11T10:38:06.817Z</time></trkpt><trkpt lat="43.0676731" lon="12.8646011"><ele>802.0</ele><time>2026-04-11T10:38:07.816Z</time></trkpt><trkpt lat="43.06752" lon="12.8646415"><ele>802.0</ele><time>2026-04-11T10:38:08.806Z</time></trkpt><trkpt lat="43.0673633" lon="12.8646893"><ele>802.0</ele><time>2026-04-11T10:38:09.815Z</time></trkpt><trkpt lat="43.067206" lon="12.8647417"><ele>801.3333333333333</ele><time>2026-04-11T10:38:10.817Z</time></trkpt><trkpt lat="43.0670472" lon="12.8647924"><ele>800.6666666666667</ele><time>2026-04-11T10:38:11.827Z</time></trkpt><trkpt lat="43.0668825" lon="12.8648435"><ele>800.0</ele><time>2026-04-11T10:38:12.82Z</time></trkpt><trkpt lat="43.0667232" lon="12.864884"><ele>800.6666666666667</ele><time>2026-04-11T10:38:13.809Z</time></trkpt><trkpt lat="43.0665626" lon="12.8649264"><ele>801.3333333333333</ele><time>2026-04-11T10:38:14.822Z</time></trkpt><trkpt lat="43.0664007" lon="12.8649734"><ele>802.0</ele><time>2026-04-11T10:38:15.818Z</time></trkpt><trkpt lat="43.0662433" lon="12.8650172"><ele>802.0</ele><time>2026-04-11T10:38:16.818Z</time></trkpt><trkpt lat="43.0660856" lon="12.8650658"><ele>802.0</ele><time>2026-04-11T10:38:17.813Z</time></trkpt><trkpt lat="43.0659333" lon="12.8651166"><ele>802.0</ele><time>2026-04-11T10:38:18.812Z</time></trkpt><trkpt lat="43.0657802" lon="12.8651748"><ele>801.6666666666666</ele><time>2026-04-11T10:38:19.808Z</time></trkpt><trkpt lat="43.065629" lon="12.8652456"><ele>801.3333333333333</ele><time>2026-04-11T10:38:20.812Z</time></trkpt><trkpt lat="43.0654747" lon="12.8653341"><ele>801.0</ele><time>2026-04-11T10:38:21.813Z</time></trkpt><trkpt lat="43.0653178" lon="12.8654208"><ele>801.0</ele><time>2026-04-11T10:38:22.82Z</time></trkpt><trkpt lat="43.065161" lon="12.8655108"><ele>801.0</ele><time>2026-04-11T10:38:23.817Z</time></trkpt><trkpt lat="43.0650095" lon="12.8655938"><ele>801.0</ele><time>2026-04-11T10:38:24.818Z</time></trkpt><trkpt lat="43.0648587" lon="12.8656656"><ele>800.6666666666667</ele><time>2026-04-11T10:38:25.814Z</time></trkpt><trkpt lat="43.0647081" lon="12.8657254"><ele>800.3333333333334</ele><time>2026-04-11T10:38:26.814Z</time></trkpt><trkpt lat="43.0645442" lon="12.8657671"><ele>800.0</ele><time>2026-04-11T10:38:27.811Z</time></trkpt><trkpt lat="43.0643736" lon="12.8658005"><ele>800.0</ele><time>2026-04-11T10:38:28.815Z</time></trkpt><trkpt lat="43.0642055" lon="12.8658175"><ele>800.0</ele><time>2026-04-11T10:38:29.808Z</time></trkpt><trkpt lat="43.0640389" lon="12.865833"><ele>800.0</ele><time>2026-04-11T10:38:30.811Z</time></trkpt><trkpt lat="43.0638714" lon="12.8658583"><ele>799.3333333333334</ele><time>2026-04-11T10:38:31.808Z</time></trkpt><trkpt lat="43.0637088" lon="12.8658925"><ele>798.6666666666667</ele><time>2026-04-11T10:38:32.816Z</time></trkpt><trkpt lat="43.0635484" lon="12.8659402"><ele>798.0</ele><time>2026-04-11T10:38:33.806Z</time></trkpt><trkpt lat="43.0633953" lon="12.8660244"><ele>797.0</ele><time>2026-04-11T10:38:34.818Z</time></trkpt><trkpt lat="43.0632406" lon="12.8661345"><ele>796.0</ele><time>2026-04-11T10:38:35.816Z</time></trkpt><trkpt lat="43.0630881" lon="12.8662572"><ele>795.0</ele><time>2026-04-11T10:38:36.814Z</time></trkpt><trkpt lat="43.0629303" lon="12.8663795"><ele>795.0</ele><time>2026-04-11T10:38:37.814Z</time></trkpt><trkpt lat="43.0627737" lon="12.8665017"><ele>795.0</ele><time>2026-04-11T10:38:38.81Z</time></trkpt><trkpt lat="43.0626141" lon="12.8666229"><ele>795.0</ele><time>2026-04-11T10:38:39.819Z</time></trkpt><trkpt lat="43.0624615" lon="12.8667345"><ele>795.25</ele><time>2026-04-11T10:38:40.819Z</time></trkpt><trkpt lat="43.0623203" lon="12.8668339"><ele>795.5</ele><time>2026-04-11T10:38:41.81Z</time></trkpt><trkpt lat="43.0621881" lon="12.8669241"><ele>795.75</ele><time>2026-04-11T10:38:42.812Z</time></trkpt><trkpt lat="43.0620627" lon="12.8670093"><ele>796.0</ele><time>2026-04-11T10:38:43.82Z</time></trkpt><trkpt lat="43.0619442" lon="12.8670944"><ele>796.0</ele><time>2026-04-11T10:38:44.817Z</time></trkpt><trkpt lat="43.0618304" lon="12.8671702"><ele>796.0</ele><time>2026-04-11T10:38:45.811Z</time></trkpt><trkpt lat="43.0617238" lon="12.8672409"><ele>796.0</ele><time>2026-04-11T10:38:46.819Z</time></trkpt><trkpt lat="43.0616245" lon="12.8673123"><ele>796.0</ele><time>2026-04-11T10:38:47.806Z</time></trkpt><trkpt lat="43.061523" lon="12.8673838"><ele>796.5</ele><time>2026-04-11T10:38:48.809Z</time></trkpt><trkpt lat="43.0614163" lon="12.8674591"><ele>797.0</ele><time>2026-04-11T10:38:49.817Z</time></trkpt><trkpt lat="43.0613017" lon="12.8675336"><ele>797.5</ele><time>2026-04-11T10:38:50.812Z</time></trkpt><trkpt lat="43.0611825" lon="12.8676094"><ele>798.0</ele><time>2026-04-11T10:38:51.81Z</time></trkpt><trkpt lat="43.061055" lon="12.8676876"><ele>799.0</ele><time>2026-04-11T10:38:52.81Z</time></trkpt><trkpt lat="43.0609204" lon="12.8677761"><ele>800.0</ele><time>2026-04-11T10:38:53.818Z</time></trkpt><trkpt lat="43.0607896" lon="12.8678645"><ele>801.0</ele><time>2026-04-11T10:38:54.81Z</time></trkpt><trkpt lat="43.0606572" lon="12.8679537"><ele>802.0</ele><time>2026-04-11T10:38:55.804Z</time></trkpt><trkpt lat="43.0605249" lon="12.8680382"><ele>802.25</ele><time>2026-04-11T10:38:56.805Z</time></trkpt><trkpt lat="43.0603972" lon="12.8681299"><ele>802.5</ele><time>2026-04-11T10:38:57.813Z</time></trkpt><trkpt lat="43.0602689" lon="12.8682212"><ele>802.75</ele><time>2026-04-11T10:38:58.816Z</time></trkpt><trkpt lat="43.0601402" lon="12.8683155"><ele>803.0</ele><time>2026-04-11T10:38:59.809Z</time></trkpt><trkpt lat="43.0600137" lon="12.8684024"><ele>803.75</ele><time>2026-04-11T10:39:00.822Z</time></trkpt><trkpt lat="43.0598876" lon="12.8684867"><ele>804.5</ele><time>2026-04-11T10:39:01.822Z</time></trkpt><trkpt lat="43.0597534" lon="12.8685684"><ele>805.25</ele><time>2026-04-11T10:39:02.809Z</time></trkpt><trkpt lat="43.0596115" lon="12.8686273"><ele>806.0</ele><time>2026-04-11T10:39:03.812Z</time></trkpt><trkpt lat="43.059461" lon="12.8686762"><ele>806.0</ele><time>2026-04-11T10:39:04.817Z</time></trkpt><trkpt lat="43.05931" lon="12.8687244"><ele>806.0</ele><time>2026-04-11T10:39:05.808Z</time></trkpt><trkpt lat="43.0591589" lon="12.8687677"><ele>806.0</ele><time>2026-04-11T10:39:06.82Z</time></trkpt><trkpt lat="43.0590119" lon="12.8688193"><ele>805.6666666666667</ele><time>2026-04-11T10:39:07.821Z</time></trkpt><trkpt lat="43.0588695" lon="12.8688772"><ele>805.3333333333333</ele><time>2026-04-11T10:39:08.808Z</time></trkpt><trkpt lat="43.0587282" lon="12.8689552"><ele>805.0</ele><time>2026-04-11T10:39:09.805Z</time></trkpt><trkpt lat="43.0585861" lon="12.8690535"><ele>805.0</ele><time>2026-04-11T10:39:10.818Z</time></trkpt><trkpt lat="43.0584435" lon="12.8691469"><ele>805.0</ele><time>2026-04-11T10:39:11.813Z</time></trkpt><trkpt lat="43.0582932" lon="12.8692371"><ele>805.0</ele><time>2026-04-11T10:39:12.809Z</time></trkpt><trkpt lat="43.0581357" lon="12.8693252"><ele>806.0</ele><time>2026-04-11T10:39:13.813Z</time></trkpt><trkpt lat="43.0579883" lon="12.8694048"><ele>807.0</ele><time>2026-04-11T10:39:14.81Z</time></trkpt><trkpt lat="43.0578479" lon="12.8694817"><ele>808.0</ele><time>2026-04-11T10:39:15.81Z</time></trkpt><trkpt lat="43.0577114" lon="12.8695704"><ele>808.0</ele><time>2026-04-11T10:39:16.808Z</time></trkpt><trkpt lat="43.05757" lon="12.8696619"><ele>808.0</ele><time>2026-04-11T10:39:17.816Z</time></trkpt><trkpt lat="43.0574328" lon="12.8697603"><ele>808.0</ele><time>2026-04-11T10:39:18.805Z</time></trkpt><trkpt lat="43.0573038" lon="12.8698626"><ele>807.25</ele><time>2026-04-11T10:39:19.812Z</time></trkpt><trkpt lat="43.057179" lon="12.8699549"><ele>806.5</ele><time>2026-04-11T10:39:20.818Z</time></trkpt><trkpt lat="43.0570585" lon="12.8700317"><ele>805.75</ele><time>2026-04-11T10:39:21.819Z</time></trkpt><trkpt lat="43.05694" lon="12.8701045"><ele>805.0</ele><time>2026-04-11T10:39:22.821Z</time></trkpt><trkpt lat="43.0568242" lon="12.8701785"><ele>805.0</ele><time>2026-04-11T10:39:23.816Z</time></trkpt><trkpt lat="43.0567159" lon="12.8702446"><ele>805.0</ele><time>2026-04-11T10:39:24.833Z</time></trkpt><trkpt lat="43.056613" lon="12.8703152"><ele>805.0</ele><time>2026-04-11T10:39:25.823Z</time></trkpt><trkpt lat="43.056519" lon="12.870394"><ele>805.0</ele><time>2026-04-11T10:39:26.818Z</time></trkpt><trkpt lat="43.0564193" lon="12.870485"><ele>805.0</ele><time>2026-04-11T10:39:27.804Z</time></trkpt><trkpt lat="43.0563221" lon="12.8705857"><ele>805.0</ele><time>2026-04-11T10:39:28.819Z</time></trkpt><trkpt lat="43.0562319" lon="12.8706872"><ele>805.0</ele><time>2026-04-11T10:39:29.809Z</time></trkpt><trkpt lat="43.0561476" lon="12.8707957"><ele>805.0</ele><time>2026-04-11T10:39:30.826Z</time></trkpt><trkpt lat="43.0560655" lon="12.8709177"><ele>804.8</ele><time>2026-04-11T10:39:31.812Z</time></trkpt><trkpt lat="43.0559948" lon="12.87104"><ele>804.6</ele><time>2026-04-11T10:39:32.811Z</time></trkpt><trkpt lat="43.0559307" lon="12.871153"><ele>804.4000000000001</ele><time>2026-04-11T10:39:33.812Z</time></trkpt><trkpt lat="43.0558549" lon="12.8712405"><ele>804.2</ele><time>2026-04-11T10:39:34.817Z</time></trkpt><trkpt lat="43.0557672" lon="12.8713001"><ele>804.0</ele><time>2026-04-11T10:39:35.815Z</time></trkpt><trkpt lat="43.0556809" lon="12.871328"><ele>804.0</ele><time>2026-04-11T10:39:36.814Z</time></trkpt><trkpt lat="43.0556067" lon="12.8713088"><ele>804.0</ele><time>2026-04-11T10:39:37.812Z</time></trkpt><trkpt lat="43.0555489" lon="12.8712634"><ele>804.0</ele><time>2026-04-11T10:39:38.822Z</time></trkpt><trkpt lat="43.0555304" lon="12.8711777"><ele>804.0</ele><time>2026-04-11T10:39:39.811Z</time></trkpt><trkpt lat="43.0555141" lon="12.8710933"><ele>804.0</ele><time>2026-04-11T10:39:40.835Z</time></trkpt><trkpt lat="43.0554861" lon="12.8709409"><ele>804.0</ele><time>2026-04-11T10:39:42.807Z</time></trkpt><trkpt lat="43.0554745" lon="12.8708428"><ele>803.6</ele><time>2026-04-11T10:39:43.809Z</time></trkpt><trkpt lat="43.0554637" lon="12.8707235"><ele>803.2</ele><time>2026-04-11T10:39:44.813Z</time></trkpt><trkpt lat="43.0554536" lon="12.8705858"><ele>802.8000000000001</ele><time>2026-04-11T10:39:45.811Z</time></trkpt><trkpt lat="43.0554416" lon="12.870434"><ele>802.4000000000001</ele><time>2026-04-11T10:39:46.813Z</time></trkpt><trkpt lat="43.0554304" lon="12.8702656"><ele>802.0</ele><time>2026-04-11T10:39:47.81Z</time></trkpt><trkpt lat="43.055416" lon="12.8700839"><ele>801.5</ele><time>2026-04-11T10:39:48.807Z</time></trkpt><trkpt lat="43.0553999" lon="12.8698926"><ele>801.0</ele><time>2026-04-11T10:39:49.816Z</time></trkpt><trkpt lat="43.0553865" lon="12.8697016"><ele>800.5</ele><time>2026-04-11T10:39:50.803Z</time></trkpt><trkpt lat="43.0553776" lon="12.8695123"><ele>800.0</ele><time>2026-04-11T10:39:51.808Z</time></trkpt><trkpt lat="43.0553761" lon="12.8693229"><ele>799.75</ele><time>2026-04-11T10:39:52.819Z</time></trkpt><trkpt lat="43.0553848" lon="12.8691402"><ele>799.5</ele><time>2026-04-11T10:39:53.81Z</time></trkpt><trkpt lat="43.0554005" lon="12.8689485"><ele>799.25</ele><time>2026-04-11T10:39:54.818Z</time></trkpt><trkpt lat="43.0554244" lon="12.8687643"><ele>799.0</ele><time>2026-04-11T10:39:55.813Z</time></trkpt><trkpt lat="43.0554581" lon="12.8685851"><ele>798.25</ele><time>2026-04-11T10:39:56.818Z</time></trkpt><trkpt lat="43.055496" lon="12.8684046"><ele>797.5</ele><time>2026-04-11T10:39:57.813Z</time></trkpt><trkpt lat="43.0555387" lon="12.8682168"><ele>796.75</ele><time>2026-04-11T10:39:58.822Z</time></trkpt><trkpt lat="43.0555849" lon="12.8680215"><ele>796.0</ele><time>2026-04-11T10:39:59.814Z</time></trkpt><trkpt lat="43.0556317" lon="12.8678218"><ele>796.0</ele><time>2026-04-11T10:40:00.816Z</time></trkpt><trkpt lat="43.0556907" lon="12.8676264"><ele>796.0</ele><time>2026-04-11T10:40:01.813Z</time></trkpt><trkpt lat="43.0557612" lon="12.8674373"><ele>796.0</ele><time>2026-04-11T10:40:02.817Z</time></trkpt><trkpt lat="43.0558396" lon="12.8672545"><ele>795.75</ele><time>2026-04-11T10:40:03.81Z</time></trkpt><trkpt lat="43.0559181" lon="12.867074"><ele>795.5</ele><time>2026-04-11T10:40:04.822Z</time></trkpt><trkpt lat="43.0559955" lon="12.866904"><ele>795.25</ele><time>2026-04-11T10:40:05.818Z</time></trkpt><trkpt lat="43.0560694" lon="12.8667341"><ele>795.0</ele><time>2026-04-11T10:40:06.81Z</time></trkpt><trkpt lat="43.0561446" lon="12.8665627"><ele>795.0</ele><time>2026-04-11T10:40:07.806Z</time></trkpt><trkpt lat="43.0562229" lon="12.8663857"><ele>795.0</ele><time>2026-04-11T10:40:08.812Z</time></trkpt><trkpt lat="43.0563003" lon="12.8662101"><ele>795.0</ele><time>2026-04-11T10:40:09.806Z</time></trkpt><trkpt lat="43.0563756" lon="12.8660393"><ele>795.0</ele><time>2026-04-11T10:40:10.82Z</time></trkpt><trkpt lat="43.0564403" lon="12.8658681"><ele>794.25</ele><time>2026-04-11T10:40:11.805Z</time></trkpt><trkpt lat="43.0564949" lon="12.8656985"><ele>793.5</ele><time>2026-04-11T10:40:12.812Z</time></trkpt><trkpt lat="43.0565399" lon="12.8655333"><ele>792.75</ele><time>2026-04-11T10:40:13.809Z</time></trkpt><trkpt lat="43.0565781" lon="12.8653719"><ele>792.0</ele><time>2026-04-11T10:40:14.813Z</time></trkpt><trkpt lat="43.0566096" lon="12.8652175"><ele>791.8</ele><time>2026-04-11T10:40:15.81Z</time></trkpt><trkpt lat="43.0566376" lon="12.8650743"><ele>791.6</ele><time>2026-04-11T10:40:16.817Z</time></trkpt><trkpt lat="43.056657" lon="12.8649384"><ele>791.4</ele><time>2026-04-11T10:40:17.811Z</time></trkpt><trkpt lat="43.056668" lon="12.8648241"><ele>791.1999999999999</ele><time>2026-04-11T10:40:18.814Z</time></trkpt><trkpt lat="43.0566709" lon="12.8647244"><ele>791.0</ele><time>2026-04-11T10:40:19.809Z</time></trkpt><trkpt lat="43.0566456" lon="12.8645545"><ele>790.5999999999999</ele><time>2026-04-11T10:40:21.81Z</time></trkpt><trkpt lat="43.0565452" lon="12.8644829"><ele>790.2</ele><time>2026-04-11T10:40:23.818Z</time></trkpt><trkpt lat="43.0564183" lon="12.8644756"><ele>789.8</ele><time>2026-04-11T10:40:25.811Z</time></trkpt><trkpt lat="43.0563543" lon="12.8644623"><ele>789.4000000000001</ele><time>2026-04-11T10:40:26.81Z</time></trkpt><trkpt lat="43.0562758" lon="12.8644498"><ele>789.0</ele><time>2026-04-11T10:40:27.816Z</time></trkpt><trkpt lat="43.056195" lon="12.8644432"><ele>789.0</ele><time>2026-04-11T10:40:28.813Z</time></trkpt><trkpt lat="43.0561008" lon="12.86444"><ele>789.0</ele><time>2026-04-11T10:40:29.811Z</time></trkpt><trkpt lat="43.0559973" lon="12.8644269"><ele>789.0</ele><time>2026-04-11T10:40:30.81Z</time></trkpt><trkpt lat="43.0558856" lon="12.8644104"><ele>789.0</ele><time>2026-04-11T10:40:31.81Z</time></trkpt><trkpt lat="43.055768" lon="12.8644005"><ele>789.0</ele><time>2026-04-11T10:40:32.806Z</time></trkpt><trkpt lat="43.0556419" lon="12.8643873"><ele>788.5</ele><time>2026-04-11T10:40:33.812Z</time></trkpt><trkpt lat="43.0555089" lon="12.8643794"><ele>788.0</ele><time>2026-04-11T10:40:34.819Z</time></trkpt><trkpt lat="43.0553673" lon="12.8643685"><ele>787.5</ele><time>2026-04-11T10:40:35.811Z</time></trkpt><trkpt lat="43.0552169" lon="12.8643556"><ele>787.0</ele><time>2026-04-11T10:40:36.823Z</time></trkpt><trkpt lat="43.0550563" lon="12.8643391"><ele>786.6666666666666</ele><time>2026-04-11T10:40:37.812Z</time></trkpt><trkpt lat="43.0548862" lon="12.8643095"><ele>786.3333333333333</ele><time>2026-04-11T10:40:38.823Z</time></trkpt><trkpt lat="43.0547112" lon="12.8642795"><ele>786.0</ele><time>2026-04-11T10:40:39.807Z</time></trkpt><trkpt lat="43.054531" lon="12.8642436"><ele>786.6666666666667</ele><time>2026-04-11T10:40:40.817Z</time></trkpt><trkpt lat="43.054351" lon="12.8642081"><ele>787.3333333333334</ele><time>2026-04-11T10:40:41.815Z</time></trkpt><trkpt lat="43.0541676" lon="12.8641731"><ele>788.0</ele><time>2026-04-11T10:40:42.817Z</time></trkpt><trkpt lat="43.0539851" lon="12.8641443"><ele>788.3333333333334</ele><time>2026-04-11T10:40:43.806Z</time></trkpt><trkpt lat="43.0538062" lon="12.8641057"><ele>788.6666666666667</ele><time>2026-04-11T10:40:44.81Z</time></trkpt><trkpt lat="43.0536275" lon="12.8640691"><ele>789.0</ele><time>2026-04-11T10:40:45.811Z</time></trkpt><trkpt lat="43.0534546" lon="12.8640502"><ele>789.0</ele><time>2026-04-11T10:40:46.807Z</time></trkpt><trkpt lat="43.0532848" lon="12.8640427"><ele>789.0</ele><time>2026-04-11T10:40:47.805Z</time></trkpt><trkpt lat="43.0531119" lon="12.8640426"><ele>789.0</ele><time>2026-04-11T10:40:48.812Z</time></trkpt><trkpt lat="43.0529367" lon="12.8640241"><ele>789.0</ele><time>2026-04-11T10:40:49.819Z</time></trkpt><trkpt lat="43.0527597" lon="12.8639823"><ele>789.0</ele><time>2026-04-11T10:40:50.814Z</time></trkpt><trkpt lat="43.0525866" lon="12.863953"><ele>789.0</ele><time>2026-04-11T10:40:51.81Z</time></trkpt><trkpt lat="43.0524089" lon="12.8639304"><ele>788.75</ele><time>2026-04-11T10:40:52.816Z</time></trkpt><trkpt lat="43.0522359" lon="12.8639101"><ele>788.5</ele><time>2026-04-11T10:40:53.816Z</time></trkpt><trkpt lat="43.05209" lon="12.8639101"><ele>788.25</ele><time>2026-04-11T10:40:54.814Z</time></trkpt><trkpt lat="43.0519667" lon="12.8639078"><ele>788.0</ele><time>2026-04-11T10:40:55.82Z</time></trkpt><trkpt lat="43.0518512" lon="12.8639214"><ele>788.0000000000001</ele><time>2026-04-11T10:40:56.821Z</time></trkpt><trkpt lat="43.0517457" lon="12.8639517"><ele>788.0</ele><time>2026-04-11T10:40:57.806Z</time></trkpt><trkpt lat="43.0516707" lon="12.863978"><ele>788.0</ele><time>2026-04-11T10:40:58.809Z</time></trkpt><trkpt lat="43.0515893" lon="12.8640216"><ele>788.0</ele><time>2026-04-11T10:41:00.815Z</time></trkpt><trkpt lat="43.0515358" lon="12.8640879"><ele>788.0000000000001</ele><time>2026-04-11T10:41:02.824Z</time></trkpt><trkpt lat="43.0514699" lon="12.8641105"><ele>788.0</ele><time>2026-04-11T10:41:23.812Z</time></trkpt><trkpt lat="43.0513605" lon="12.8640736"><ele>788.0000000000001</ele><time>2026-04-11T10:41:25.818Z</time></trkpt><trkpt lat="43.0512925" lon="12.8640441"><ele>788.0</ele><time>2026-04-11T10:41:26.818Z</time></trkpt><trkpt lat="43.0512173" lon="12.8640125"><ele>788.0</ele><time>2026-04-11T10:41:27.815Z</time></trkpt><trkpt lat="43.0511317" lon="12.8639748"><ele>788.0</ele><time>2026-04-11T10:41:28.813Z</time></trkpt><trkpt lat="43.0510388" lon="12.863935"><ele>788.0000000000001</ele><time>2026-04-11T10:41:29.825Z</time></trkpt><trkpt lat="43.0509444" lon="12.8638908"><ele>788.0</ele><time>2026-04-11T10:41:30.812Z</time></trkpt><trkpt lat="43.050842" lon="12.8638381"><ele>787.5999999999999</ele><time>2026-04-11T10:41:31.826Z</time></trkpt><trkpt lat="43.0507419" lon="12.8637762"><ele>787.1999999999999</ele><time>2026-04-11T10:41:32.818Z</time></trkpt><trkpt lat="43.050645" lon="12.8637102"><ele>786.8</ele><time>2026-04-11T10:41:33.825Z</time></trkpt><trkpt lat="43.0505519" lon="12.8636334"><ele>786.4</ele><time>2026-04-11T10:41:34.81Z</time></trkpt><trkpt lat="43.0504611" lon="12.8635527"><ele>786.0</ele><time>2026-04-11T10:41:35.816Z</time></trkpt><trkpt lat="43.0503724" lon="12.8634688"><ele>786.5999999999999</ele><time>2026-04-11T10:41:36.811Z</time></trkpt><trkpt lat="43.0502861" lon="12.8633888"><ele>787.2</ele><time>2026-04-11T10:41:37.814Z</time></trkpt><trkpt lat="43.0502009" lon="12.8633111"><ele>787.8</ele><time>2026-04-11T10:41:38.819Z</time></trkpt><trkpt lat="43.0501198" lon="12.8632343"><ele>788.4000000000001</ele><time>2026-04-11T10:41:39.821Z</time></trkpt><trkpt lat="43.0500379" lon="12.8631675"><ele>789.0</ele><time>2026-04-11T10:41:40.833Z</time></trkpt><trkpt lat="43.0499559" lon="12.8631185"><ele>789.0</ele><time>2026-04-11T10:41:41.821Z</time></trkpt><trkpt lat="43.0498755" lon="12.8630807"><ele>789.0</ele><time>2026-04-11T10:41:42.812Z</time></trkpt><trkpt lat="43.0497999" lon="12.8630536"><ele>789.0</ele><time>2026-04-11T10:41:43.812Z</time></trkpt><trkpt lat="43.0497306" lon="12.8630316"><ele>789.0</ele><time>2026-04-11T10:41:44.811Z</time></trkpt><trkpt lat="43.0496555" lon="12.8630074"><ele>789.0</ele><time>2026-04-11T10:41:45.811Z</time></trkpt><trkpt lat="43.049584" lon="12.8629891"><ele>789.0</ele><time>2026-04-11T10:41:46.81Z</time></trkpt><trkpt lat="43.0495176" lon="12.8629823"><ele>788.9999999999999</ele><time>2026-04-11T10:41:47.808Z</time></trkpt><trkpt lat="43.0494553" lon="12.8629953"><ele>789.0</ele><time>2026-04-11T10:41:48.808Z</time></trkpt><trkpt lat="43.0493954" lon="12.8630225"><ele>789.0</ele><time>2026-04-11T10:41:49.805Z</time></trkpt><trkpt lat="43.0493175" lon="12.8630631"><ele>789.0</ele><time>2026-04-11T10:41:51.813Z</time></trkpt><trkpt lat="43.0492554" lon="12.8631099"><ele>789.0</ele><time>2026-04-11T10:41:53.813Z</time></trkpt><trkpt lat="43.0491933" lon="12.8631734"><ele>788.9999999999999</ele><time>2026-04-11T10:41:55.82Z</time></trkpt><trkpt lat="43.0491507" lon="12.8632521"><ele>789.0</ele><time>2026-04-11T10:41:57.806Z</time></trkpt><trkpt lat="43.0491164" lon="12.8633957"><ele>788.8000000000001</ele><time>2026-04-11T10:41:59.815Z</time></trkpt><trkpt lat="43.049112" lon="12.8634823"><ele>788.6</ele><time>2026-04-11T10:42:00.819Z</time></trkpt><trkpt lat="43.0491199" lon="12.8636399"><ele>788.4</ele><time>2026-04-11T10:42:02.81Z</time></trkpt><trkpt lat="43.0491304" lon="12.8637959"><ele>788.2</ele><time>2026-04-11T10:42:04.821Z</time></trkpt><trkpt lat="43.0491258" lon="12.8639681"><ele>788.0</ele><time>2026-04-11T10:42:06.813Z</time></trkpt><trkpt lat="43.0491041" lon="12.8640526"><ele>788.0</ele><time>2026-04-11T10:42:07.823Z</time></trkpt><trkpt lat="43.0490731" lon="12.8641277"><ele>788.0</ele><time>2026-04-11T10:42:08.823Z</time></trkpt><trkpt lat="43.0490089" lon="12.864255"><ele>788.0</ele><time>2026-04-11T10:42:10.807Z</time></trkpt><trkpt lat="43.0489484" lon="12.8643628"><ele>788.0</ele><time>2026-04-11T10:42:12.811Z</time></trkpt><trkpt lat="43.0488763" lon="12.8644694"><ele>788.0</ele><time>2026-04-11T10:42:14.82Z</time></trkpt><trkpt lat="43.0487893" lon="12.8645814"><ele>787.4</ele><time>2026-04-11T10:42:16.824Z</time></trkpt><trkpt lat="43.0487082" lon="12.864673"><ele>786.8</ele><time>2026-04-11T10:42:18.826Z</time></trkpt><trkpt lat="43.0486478" lon="12.864755"><ele>786.2</ele><time>2026-04-11T10:42:20.815Z</time></trkpt><trkpt lat="43.0485945" lon="12.8648622"><ele>785.6</ele><time>2026-04-11T10:42:22.824Z</time></trkpt><trkpt lat="43.0485326" lon="12.8650021"><ele>785.0</ele><time>2026-04-11T10:42:24.817Z</time></trkpt><trkpt lat="43.048499" lon="12.8650817"><ele>785.0000000000001</ele><time>2026-04-11T10:42:25.813Z</time></trkpt><trkpt lat="43.0484649" lon="12.8651664"><ele>785.0</ele><time>2026-04-11T10:42:26.807Z</time></trkpt><trkpt lat="43.048422" lon="12.8652521"><ele>785.0</ele><time>2026-04-11T10:42:27.801Z</time></trkpt><trkpt lat="43.0483758" lon="12.8653471"><ele>785.0</ele><time>2026-04-11T10:42:28.821Z</time></trkpt><trkpt lat="43.0483301" lon="12.8654509"><ele>785.0000000000001</ele><time>2026-04-11T10:42:29.819Z</time></trkpt><trkpt lat="43.0482825" lon="12.8655528"><ele>785.0</ele><time>2026-04-11T10:42:30.813Z</time></trkpt><trkpt lat="43.0482228" lon="12.8656539"><ele>784.4</ele><time>2026-04-11T10:42:31.81Z</time></trkpt><trkpt lat="43.0481625" lon="12.8657449"><ele>783.8</ele><time>2026-04-11T10:42:32.819Z</time></trkpt><trkpt lat="43.0480959" lon="12.8658329"><ele>783.2</ele><time>2026-04-11T10:42:33.812Z</time></trkpt><trkpt lat="43.048025" lon="12.8659048"><ele>782.6</ele><time>2026-04-11T10:42:34.821Z</time></trkpt><trkpt lat="43.0479532" lon="12.8659707"><ele>782.0</ele><time>2026-04-11T10:42:35.814Z</time></trkpt><trkpt lat="43.0478741" lon="12.8660453"><ele>782.0</ele><time>2026-04-11T10:42:36.812Z</time></trkpt><trkpt lat="43.0478031" lon="12.8661394"><ele>782.0</ele><time>2026-04-11T10:42:37.811Z</time></trkpt><trkpt lat="43.0477324" lon="12.8662248"><ele>782.0</ele><time>2026-04-11T10:42:38.813Z</time></trkpt><trkpt lat="43.0476569" lon="12.8663045"><ele>782.0</ele><time>2026-04-11T10:42:39.811Z</time></trkpt><trkpt lat="43.0475844" lon="12.8663862"><ele>782.0</ele><time>2026-04-11T10:42:40.817Z</time></trkpt><trkpt lat="43.0475197" lon="12.8664662"><ele>782.0000000000001</ele><time>2026-04-11T10:42:41.805Z</time></trkpt><trkpt lat="43.0474683" lon="12.8665425"><ele>782.0</ele><time>2026-04-11T10:42:42.81Z</time></trkpt><trkpt lat="43.0474141" lon="12.8666561"><ele>782.0</ele><time>2026-04-11T10:42:44.817Z</time></trkpt><trkpt lat="43.0473572" lon="12.8667112"><ele>782.0</ele><time>2026-04-11T10:42:46.818Z</time></trkpt><trkpt lat="43.047292" lon="12.8667752"><ele>782.0000000000001</ele><time>2026-04-11T10:42:48.814Z</time></trkpt><trkpt lat="43.047207" lon="12.8668446"><ele>782.0</ele><time>2026-04-11T10:42:50.812Z</time></trkpt><trkpt lat="43.0471198" lon="12.8668652"><ele>781.3333333333334</ele><time>2026-04-11T10:42:52.814Z</time></trkpt><trkpt lat="43.0470272" lon="12.8669632"><ele>780.6666666666667</ele><time>2026-04-11T10:42:54.81Z</time></trkpt><trkpt lat="43.0469747" lon="12.8670257"><ele>780.0</ele><time>2026-04-11T10:42:55.806Z</time></trkpt><trkpt lat="43.0469185" lon="12.8670834"><ele>779.3333333333333</ele><time>2026-04-11T10:42:56.809Z</time></trkpt><trkpt lat="43.0468635" lon="12.8671351"><ele>778.6666666666666</ele><time>2026-04-11T10:42:57.815Z</time></trkpt><trkpt lat="43.0468066" lon="12.8671783"><ele>778.0</ele><time>2026-04-11T10:42:58.81Z</time></trkpt><trkpt lat="43.0467466" lon="12.8672247"><ele>778.0</ele><time>2026-04-11T10:42:59.815Z</time></trkpt><trkpt lat="43.0466865" lon="12.8672717"><ele>778.0</ele><time>2026-04-11T10:43:00.82Z</time></trkpt><trkpt lat="43.0466208" lon="12.8673218"><ele>778.0</ele><time>2026-04-11T10:43:01.82Z</time></trkpt><trkpt lat="43.0465531" lon="12.8673725"><ele>778.0</ele><time>2026-04-11T10:43:02.818Z</time></trkpt><trkpt lat="43.0464927" lon="12.8674222"><ele>778.0</ele><time>2026-04-11T10:43:03.809Z</time></trkpt><trkpt lat="43.0464374" lon="12.8674707"><ele>778.0</ele><time>2026-04-11T10:43:04.815Z</time></trkpt><trkpt lat="43.0463797" lon="12.8675087"><ele>778.0</ele><time>2026-04-11T10:43:05.829Z</time></trkpt><trkpt lat="43.0462847" lon="12.8675797"><ele>777.8333333333333</ele><time>2026-04-11T10:43:07.809Z</time></trkpt><trkpt lat="43.046198" lon="12.8676782"><ele>777.6666666666666</ele><time>2026-04-11T10:43:09.821Z</time></trkpt><trkpt lat="43.0461142" lon="12.8677867"><ele>777.5</ele><time>2026-04-11T10:43:11.814Z</time></trkpt><trkpt lat="43.0460759" lon="12.8678597"><ele>777.3333333333333</ele><time>2026-04-11T10:43:12.821Z</time></trkpt><trkpt lat="43.0460371" lon="12.8679417"><ele>777.1666666666666</ele><time>2026-04-11T10:43:13.812Z</time></trkpt><trkpt lat="43.0459979" lon="12.8680262"><ele>777.0</ele><time>2026-04-11T10:43:14.804Z</time></trkpt><trkpt lat="43.0459656" lon="12.868116"><ele>777.0</ele><time>2026-04-11T10:43:15.815Z</time></trkpt><trkpt lat="43.0459366" lon="12.8682065"><ele>777.0</ele><time>2026-04-11T10:43:16.81Z</time></trkpt><trkpt lat="43.045903" lon="12.8683007"><ele>777.0</ele><time>2026-04-11T10:43:17.808Z</time></trkpt><trkpt lat="43.0458651" lon="12.8683824"><ele>777.0</ele><time>2026-04-11T10:43:18.812Z</time></trkpt><trkpt lat="43.0458257" lon="12.8684605"><ele>777.0</ele><time>2026-04-11T10:43:19.817Z</time></trkpt><trkpt lat="43.0457922" lon="12.8685402"><ele>777.0</ele><time>2026-04-11T10:43:20.802Z</time></trkpt><trkpt lat="43.0457602" lon="12.868624"><ele>777.0</ele><time>2026-04-11T10:43:21.811Z</time></trkpt><trkpt lat="43.04573" lon="12.868711"><ele>777.0</ele><time>2026-04-11T10:43:22.808Z</time></trkpt><trkpt lat="43.0457035" lon="12.868798"><ele>777.0</ele><time>2026-04-11T10:43:23.807Z</time></trkpt><trkpt lat="43.0456846" lon="12.8688941"><ele>777.0</ele><time>2026-04-11T10:43:24.814Z</time></trkpt><trkpt lat="43.0456657" lon="12.8689866"><ele>777.0</ele><time>2026-04-11T10:43:25.812Z</time></trkpt><trkpt lat="43.0456469" lon="12.8690793"><ele>777.0</ele><time>2026-04-11T10:43:26.8Z</time></trkpt><trkpt lat="43.0456259" lon="12.8691648"><ele>777.0</ele><time>2026-04-11T10:43:27.812Z</time></trkpt><trkpt lat="43.0456047" lon="12.8692575"><ele>777.0</ele><time>2026-04-11T10:43:28.807Z</time></trkpt><trkpt lat="43.0455797" lon="12.8693434"><ele>776.6666666666666</ele><time>2026-04-11T10:43:29.811Z</time></trkpt><trkpt lat="43.0455516" lon="12.8694259"><ele>776.3333333333333</ele><time>2026-04-11T10:43:30.807Z</time></trkpt><trkpt lat="43.0455253" lon="12.8695067"><ele>776.0</ele><time>2026-04-11T10:43:31.805Z</time></trkpt><trkpt lat="43.0454685" lon="12.8696656"><ele>775.6666666666666</ele><time>2026-04-11T10:43:33.815Z</time></trkpt><trkpt lat="43.0454366" lon="12.8697427"><ele>775.3333333333333</ele><time>2026-04-11T10:43:34.816Z</time></trkpt><trkpt lat="43.0454042" lon="12.8698201"><ele>775.0</ele><time>2026-04-11T10:43:35.815Z</time></trkpt><trkpt lat="43.0453728" lon="12.8698999"><ele>774.9999999999999</ele><time>2026-04-11T10:43:36.819Z</time></trkpt><trkpt lat="43.0453412" lon="12.8699814"><ele>775.0</ele><time>2026-04-11T10:43:37.807Z</time></trkpt><trkpt lat="43.0453108" lon="12.8700603"><ele>775.0</ele><time>2026-04-11T10:43:38.821Z</time></trkpt><trkpt lat="43.045285" lon="12.8701393"><ele>775.0</ele><time>2026-04-11T10:43:39.814Z</time></trkpt><trkpt lat="43.0452396" lon="12.8702837"><ele>774.9999999999999</ele><time>2026-04-11T10:43:41.818Z</time></trkpt><trkpt lat="43.0451872" lon="12.8703763"><ele>775.0</ele><time>2026-04-11T10:43:43.812Z</time></trkpt><trkpt lat="43.0451495" lon="12.8704525"><ele>775.4</ele><time>2026-04-11T10:43:45.818Z</time></trkpt><trkpt lat="43.0451096" lon="12.8705733"><ele>775.8</ele><time>2026-04-11T10:43:48.811Z</time></trkpt><trkpt lat="43.0450753" lon="12.8707067"><ele>776.2</ele><time>2026-04-11T10:43:50.817Z</time></trkpt><trkpt lat="43.0450296" lon="12.8708354"><ele>776.6</ele><time>2026-04-11T10:43:52.807Z</time></trkpt><trkpt lat="43.0449569" lon="12.8709515"><ele>777.0</ele><time>2026-04-11T10:43:54.816Z</time></trkpt><trkpt lat="43.0448749" lon="12.8710493"><ele>777.4000000000001</ele><time>2026-04-11T10:43:56.814Z</time></trkpt><trkpt lat="43.0447814" lon="12.8711589"><ele>777.8000000000001</ele><time>2026-04-11T10:43:58.817Z</time></trkpt><trkpt lat="43.0447208" lon="12.8712201"><ele>778.2</ele><time>2026-04-11T10:43:59.821Z</time></trkpt><trkpt lat="43.0446597" lon="12.8712817"><ele>778.6</ele><time>2026-04-11T10:44:00.82Z</time></trkpt><trkpt lat="43.0446065" lon="12.8713412"><ele>779.0</ele><time>2026-04-11T10:44:01.816Z</time></trkpt><trkpt lat="43.0445196" lon="12.8714307"><ele>779.0</ele><time>2026-04-11T10:44:03.817Z</time></trkpt><trkpt lat="43.0444471" lon="12.8715133"><ele>779.0</ele><time>2026-04-11T10:44:05.815Z</time></trkpt><trkpt lat="43.0443937" lon="12.8716186"><ele>779.0</ele><time>2026-04-11T10:44:07.816Z</time></trkpt><trkpt lat="43.0443464" lon="12.8717001"><ele>779.0</ele><time>2026-04-11T10:44:09.803Z</time></trkpt><trkpt lat="43.044252" lon="12.87176"><ele>779.0</ele><time>2026-04-11T10:44:11.814Z</time></trkpt><trkpt lat="43.0441276" lon="12.8717863"><ele>778.8333333333334</ele><time>2026-04-11T10:44:13.802Z</time></trkpt><trkpt lat="43.0440601" lon="12.8717901"><ele>778.6666666666667</ele><time>2026-04-11T10:44:14.809Z</time></trkpt><trkpt lat="43.0439863" lon="12.8717869"><ele>778.5</ele><time>2026-04-11T10:44:15.814Z</time></trkpt><trkpt lat="43.0439083" lon="12.8717852"><ele>778.3333333333333</ele><time>2026-04-11T10:44:16.816Z</time></trkpt><trkpt lat="43.0438264" lon="12.8717898"><ele>778.1666666666666</ele><time>2026-04-11T10:44:17.808Z</time></trkpt><trkpt lat="43.043748" lon="12.8718037"><ele>778.0</ele><time>2026-04-11T10:44:18.824Z</time></trkpt><trkpt lat="43.043674" lon="12.8718254"><ele>778.0</ele><time>2026-04-11T10:44:19.807Z</time></trkpt><trkpt lat="43.0435983" lon="12.8718584"><ele>778.0</ele><time>2026-04-11T10:44:20.805Z</time></trkpt><trkpt lat="43.0435268" lon="12.871892"><ele>778.0</ele><time>2026-04-11T10:44:21.808Z</time></trkpt><trkpt lat="43.0434578" lon="12.8719248"><ele>778.0</ele><time>2026-04-11T10:44:22.814Z</time></trkpt><trkpt lat="43.0433931" lon="12.8719556"><ele>778.0</ele><time>2026-04-11T10:44:23.809Z</time></trkpt><trkpt lat="43.0433289" lon="12.8719843"><ele>778.0</ele><time>2026-04-11T10:44:24.812Z</time></trkpt><trkpt lat="43.0432634" lon="12.8720205"><ele>778.0</ele><time>2026-04-11T10:44:25.811Z</time></trkpt><trkpt lat="43.043196" lon="12.8720512"><ele>777.9999999999999</ele><time>2026-04-11T10:44:26.822Z</time></trkpt><trkpt lat="43.0431315" lon="12.8720826"><ele>778.0</ele><time>2026-04-11T10:44:27.816Z</time></trkpt><trkpt lat="43.0430636" lon="12.8721164"><ele>778.0</ele><time>2026-04-11T10:44:28.815Z</time></trkpt><trkpt lat="43.0429901" lon="12.8721594"><ele>778.0</ele><time>2026-04-11T10:44:29.813Z</time></trkpt><trkpt lat="43.0429137" lon="12.8721987"><ele>777.9999999999999</ele><time>2026-04-11T10:44:30.811Z</time></trkpt><trkpt lat="43.0428333" lon="12.8722396"><ele>778.0</ele><time>2026-04-11T10:44:31.82Z</time></trkpt><trkpt lat="43.0427519" lon="12.872278"><ele>778.0</ele><time>2026-04-11T10:44:32.814Z</time></trkpt><trkpt lat="43.0426652" lon="12.8723158"><ele>778.0</ele><time>2026-04-11T10:44:33.81Z</time></trkpt><trkpt lat="43.0425709" lon="12.8723495"><ele>778.0</ele><time>2026-04-11T10:44:34.815Z</time></trkpt><trkpt lat="43.0424763" lon="12.8723762"><ele>778.0</ele><time>2026-04-11T10:44:35.825Z</time></trkpt><trkpt lat="43.0423778" lon="12.8724043"><ele>778.0</ele><time>2026-04-11T10:44:36.824Z</time></trkpt><trkpt lat="43.0422823" lon="12.8724324"><ele>777.8</ele><time>2026-04-11T10:44:37.821Z</time></trkpt><trkpt lat="43.0421852" lon="12.8724676"><ele>777.5999999999999</ele><time>2026-04-11T10:44:38.814Z</time></trkpt><trkpt lat="43.0420891" lon="12.872503"><ele>777.4000000000001</ele><time>2026-04-11T10:44:39.816Z</time></trkpt><trkpt lat="43.0419997" lon="12.8725335"><ele>777.2</ele><time>2026-04-11T10:44:40.813Z</time></trkpt><trkpt lat="43.0419098" lon="12.8725646"><ele>777.0</ele><time>2026-04-11T10:44:41.814Z</time></trkpt><trkpt lat="43.0418192" lon="12.8725952"><ele>777.2</ele><time>2026-04-11T10:44:42.809Z</time></trkpt><trkpt lat="43.0417302" lon="12.8726249"><ele>777.4000000000001</ele><time>2026-04-11T10:44:43.817Z</time></trkpt><trkpt lat="43.0416422" lon="12.8726536"><ele>777.5999999999999</ele><time>2026-04-11T10:44:44.81Z</time></trkpt><trkpt lat="43.041552" lon="12.8726877"><ele>777.8</ele><time>2026-04-11T10:44:45.805Z</time></trkpt><trkpt lat="43.041461" lon="12.8727256"><ele>778.0</ele><time>2026-04-11T10:44:46.817Z</time></trkpt><trkpt lat="43.0413693" lon="12.8727659"><ele>777.5999999999999</ele><time>2026-04-11T10:44:47.813Z</time></trkpt><trkpt lat="43.0412727" lon="12.8728052"><ele>777.1999999999999</ele><time>2026-04-11T10:44:48.813Z</time></trkpt><trkpt lat="43.0411791" lon="12.872853"><ele>776.8</ele><time>2026-04-11T10:44:49.81Z</time></trkpt><trkpt lat="43.0410916" lon="12.8729001"><ele>776.4</ele><time>2026-04-11T10:44:50.808Z</time></trkpt><trkpt lat="43.04101" lon="12.8729461"><ele>776.0</ele><time>2026-04-11T10:44:51.808Z</time></trkpt><trkpt lat="43.040937" lon="12.8729853"><ele>776.0000000000001</ele><time>2026-04-11T10:44:52.82Z</time></trkpt><trkpt lat="43.0408655" lon="12.8730292"><ele>776.0</ele><time>2026-04-11T10:44:53.808Z</time></trkpt><trkpt lat="43.0407975" lon="12.8730794"><ele>776.0</ele><time>2026-04-11T10:44:54.813Z</time></trkpt><trkpt lat="43.040728" lon="12.8731325"><ele>776.0</ele><time>2026-04-11T10:44:55.814Z</time></trkpt><trkpt lat="43.0406523" lon="12.8731796"><ele>776.0000000000001</ele><time>2026-04-11T10:44:56.826Z</time></trkpt><trkpt lat="43.0405772" lon="12.8732122"><ele>776.0</ele><time>2026-04-11T10:44:57.812Z</time></trkpt><trkpt lat="43.0404994" lon="12.8732483"><ele>776.1666666666667</ele><time>2026-04-11T10:44:58.812Z</time></trkpt><trkpt lat="43.040428" lon="12.873284"><ele>776.3333333333334</ele><time>2026-04-11T10:44:59.813Z</time></trkpt><trkpt lat="43.0403653" lon="12.8733101"><ele>776.5</ele><time>2026-04-11T10:45:00.825Z</time></trkpt><trkpt lat="43.0402685" lon="12.8733573"><ele>776.6666666666667</ele><time>2026-04-11T10:45:02.815Z</time></trkpt><trkpt lat="43.0401837" lon="12.8734004"><ele>776.8333333333334</ele><time>2026-04-11T10:45:04.818Z</time></trkpt><trkpt lat="43.0400844" lon="12.8734384"><ele>777.0</ele><time>2026-04-11T10:45:06.822Z</time></trkpt><trkpt lat="43.0399744" lon="12.8734708"><ele>777.0</ele><time>2026-04-11T10:45:08.821Z</time></trkpt><trkpt lat="43.03991" lon="12.8734923"><ele>777.0</ele><time>2026-04-11T10:45:09.809Z</time></trkpt><trkpt lat="43.0398402" lon="12.8735156"><ele>777.0</ele><time>2026-04-11T10:45:10.811Z</time></trkpt><trkpt lat="43.039769" lon="12.8735393"><ele>777.0</ele><time>2026-04-11T10:45:11.819Z</time></trkpt><trkpt lat="43.0396985" lon="12.8735706"><ele>777.0</ele><time>2026-04-11T10:45:12.816Z</time></trkpt><trkpt lat="43.0396363" lon="12.8735999"><ele>777.0</ele><time>2026-04-11T10:45:13.811Z</time></trkpt><trkpt lat="43.0395412" lon="12.8736409"><ele>777.0</ele><time>2026-04-11T10:45:15.816Z</time></trkpt><trkpt lat="43.0394454" lon="12.8737093"><ele>777.0</ele><time>2026-04-11T10:45:17.813Z</time></trkpt><trkpt lat="43.0393548" lon="12.8737952"><ele>777.0</ele><time>2026-04-11T10:45:19.812Z</time></trkpt><trkpt lat="43.0392773" lon="12.8738841"><ele>777.0</ele><time>2026-04-11T10:45:21.811Z</time></trkpt><trkpt lat="43.0391893" lon="12.8739731"><ele>777.0</ele><time>2026-04-11T10:45:23.807Z</time></trkpt><trkpt lat="43.0390838" lon="12.8740439"><ele>777.3333333333334</ele><time>2026-04-11T10:45:25.824Z</time></trkpt><trkpt lat="43.0390244" lon="12.8740849"><ele>777.6666666666667</ele><time>2026-04-11T10:45:26.812Z</time></trkpt><trkpt lat="43.0389613" lon="12.8741263"><ele>778.0</ele><time>2026-04-11T10:45:27.813Z</time></trkpt><trkpt lat="43.0388911" lon="12.8741657"><ele>778.3333333333334</ele><time>2026-04-11T10:45:28.818Z</time></trkpt><trkpt lat="43.0388156" lon="12.8741978"><ele>778.6666666666667</ele><time>2026-04-11T10:45:29.81Z</time></trkpt><trkpt lat="43.0387351" lon="12.8742226"><ele>779.0</ele><time>2026-04-11T10:45:30.827Z</time></trkpt><trkpt lat="43.0386561" lon="12.8742417"><ele>779.0000000000001</ele><time>2026-04-11T10:45:31.814Z</time></trkpt><trkpt lat="43.038578" lon="12.8742521"><ele>779.0</ele><time>2026-04-11T10:45:32.823Z</time></trkpt><trkpt lat="43.0384969" lon="12.8742537"><ele>779.0</ele><time>2026-04-11T10:45:33.811Z</time></trkpt><trkpt lat="43.0384125" lon="12.8742486"><ele>779.0</ele><time>2026-04-11T10:45:34.817Z</time></trkpt><trkpt lat="43.0383355" lon="12.8742444"><ele>779.0000000000001</ele><time>2026-04-11T10:45:35.82Z</time></trkpt><trkpt lat="43.0382613" lon="12.8742322"><ele>779.0</ele><time>2026-04-11T10:45:36.814Z</time></trkpt><trkpt lat="43.0381928" lon="12.8742167"><ele>778.8333333333334</ele><time>2026-04-11T10:45:37.816Z</time></trkpt><trkpt lat="43.0381298" lon="12.8741936"><ele>778.6666666666667</ele><time>2026-04-11T10:45:38.809Z</time></trkpt><trkpt lat="43.0380662" lon="12.8741641"><ele>778.5</ele><time>2026-04-11T10:45:39.814Z</time></trkpt><trkpt lat="43.0379734" lon="12.8741085"><ele>778.3333333333333</ele><time>2026-04-11T10:45:41.807Z</time></trkpt><trkpt lat="43.037898" lon="12.8740772"><ele>778.1666666666666</ele><time>2026-04-11T10:45:43.814Z</time></trkpt><trkpt lat="43.037822" lon="12.8740623"><ele>778.0</ele><time>2026-04-11T10:45:46.812Z</time></trkpt><trkpt lat="43.037739" lon="12.8740201"><ele>777.9999999999999</ele><time>2026-04-11T10:45:50.819Z</time></trkpt><trkpt lat="43.0376627" lon="12.8739957"><ele>778.0</ele><time>2026-04-11T10:45:52.817Z</time></trkpt><trkpt lat="43.0375743" lon="12.8739649"><ele>778.0</ele><time>2026-04-11T10:45:54.814Z</time></trkpt><trkpt lat="43.0374805" lon="12.8739252"><ele>778.0</ele><time>2026-04-11T10:45:56.815Z</time></trkpt><trkpt lat="43.0374132" lon="12.8738968"><ele>777.9999999999999</ele><time>2026-04-11T10:45:58.818Z</time></trkpt><trkpt lat="43.037338" lon="12.8738549"><ele>778.0</ele><time>2026-04-11T10:46:01.811Z</time></trkpt><trkpt lat="43.0372631" lon="12.8738175"><ele>777.9999999999999</ele><time>2026-04-11T10:46:35.812Z</time></trkpt><trkpt lat="43.0372954" lon="12.8737352"><ele>778.0</ele><time>2026-04-11T10:46:39.811Z</time></trkpt><trkpt lat="43.0373678" lon="12.8737612"><ele>778.0</ele><time>2026-04-11T10:46:42.811Z</time></trkpt><trkpt lat="43.0374456" lon="12.8738222"><ele>778.0</ele><time>2026-04-11T10:46:45.82Z</time></trkpt><trkpt lat="43.0375174" lon="12.8738547"><ele>777.9999999999999</ele><time>2026-04-11T10:46:47.822Z</time></trkpt><trkpt lat="43.0375835" lon="12.8738832"><ele>778.0</ele><time>2026-04-11T10:46:49.814Z</time></trkpt><trkpt lat="43.0376469" lon="12.873932"><ele>777.9999999999999</ele><time>2026-04-11T10:46:51.81Z</time></trkpt><trkpt lat="43.0377043" lon="12.8739807"><ele>778.0</ele><time>2026-04-11T10:46:53.811Z</time></trkpt><trkpt lat="43.0377327" lon="12.8740826"><ele>778.0</ele><time>2026-04-11T10:47:07.811Z</time></trkpt><trkpt lat="43.0377273" lon="12.8742259"><ele>778.0</ele><time>2026-04-11T10:47:09.802Z</time></trkpt><trkpt lat="43.037719" lon="12.8743187"><ele>777.9999999999999</ele><time>2026-04-11T10:47:10.816Z</time></trkpt><trkpt lat="43.0377065" lon="12.8744384"><ele>778.0</ele><time>2026-04-11T10:47:11.806Z</time></trkpt><trkpt lat="43.0376951" lon="12.8745681"><ele>780.5999999999999</ele><time>2026-04-11T10:47:12.807Z</time></trkpt><trkpt lat="43.0376833" lon="12.8747051"><ele>783.1999999999999</ele><time>2026-04-11T10:47:13.813Z</time></trkpt><trkpt lat="43.0376691" lon="12.8748508"><ele>785.8</ele><time>2026-04-11T10:47:14.81Z</time></trkpt><trkpt lat="43.0376542" lon="12.8749961"><ele>788.4</ele><time>2026-04-11T10:47:15.806Z</time></trkpt><trkpt lat="43.0376378" lon="12.8751431"><ele>791.0</ele><time>2026-04-11T10:47:16.816Z</time></trkpt><trkpt lat="43.0376235" lon="12.8752954"><ele>795.5</ele><time>2026-04-11T10:47:17.813Z</time></trkpt><trkpt lat="43.0376095" lon="12.8754536"><ele>800.0</ele><time>2026-04-11T10:47:18.808Z</time></trkpt><trkpt lat="43.037594" lon="12.8756113"><ele>804.5</ele><time>2026-04-11T10:47:19.818Z</time></trkpt><trkpt lat="43.0375866" lon="12.8757705"><ele>809.0</ele><time>2026-04-11T10:47:20.818Z</time></trkpt><trkpt lat="43.037579" lon="12.8759355"><ele>811.8000000000001</ele><time>2026-04-11T10:47:21.813Z</time></trkpt><trkpt lat="43.037572" lon="12.8760956"><ele>814.6</ele><time>2026-04-11T10:47:22.817Z</time></trkpt><trkpt lat="43.0375692" lon="12.8762431"><ele>817.4</ele><time>2026-04-11T10:47:23.813Z</time></trkpt><trkpt lat="43.0375691" lon="12.8763688"><ele>820.2</ele><time>2026-04-11T10:47:24.815Z</time></trkpt><trkpt lat="43.0375615" lon="12.8764967"><ele>823.0</ele><time>2026-04-11T10:47:25.806Z</time></trkpt><trkpt lat="43.0375536" lon="12.8766216"><ele>823.0</ele><time>2026-04-11T10:47:26.807Z</time></trkpt><trkpt lat="43.0375435" lon="12.8767459"><ele>823.0</ele><time>2026-04-11T10:47:27.816Z</time></trkpt><trkpt lat="43.0375284" lon="12.8768703"><ele>823.0</ele><time>2026-04-11T10:47:28.817Z</time></trkpt><trkpt lat="43.0375178" lon="12.8769887"><ele>823.0</ele><time>2026-04-11T10:47:29.814Z</time></trkpt><trkpt lat="43.037505" lon="12.8771082"><ele>823.0</ele><time>2026-04-11T10:47:30.82Z</time></trkpt><trkpt lat="43.0374907" lon="12.8772375"><ele>824.8</ele><time>2026-04-11T10:47:31.811Z</time></trkpt><trkpt lat="43.0374705" lon="12.8773634"><ele>826.5999999999999</ele><time>2026-04-11T10:47:32.808Z</time></trkpt><trkpt lat="43.0374447" lon="12.8774892"><ele>828.4000000000001</ele><time>2026-04-11T10:47:33.818Z</time></trkpt><trkpt lat="43.0374189" lon="12.8776155"><ele>830.2</ele><time>2026-04-11T10:47:34.818Z</time></trkpt><trkpt lat="43.0373935" lon="12.8777526"><ele>832.0</ele><time>2026-04-11T10:47:35.818Z</time></trkpt><trkpt lat="43.0373604" lon="12.8778932"><ele>833.8333333333333</ele><time>2026-04-11T10:47:36.816Z</time></trkpt><trkpt lat="43.0373285" lon="12.8780226"><ele>835.6666666666666</ele><time>2026-04-11T10:47:37.815Z</time></trkpt><trkpt lat="43.0373026" lon="12.8781352"><ele>837.5</ele><time>2026-04-11T10:47:38.809Z</time></trkpt><trkpt lat="43.0372853" lon="12.878227"><ele>839.3333333333333</ele><time>2026-04-11T10:47:39.811Z</time></trkpt><trkpt lat="43.0372605" lon="12.8783549"><ele>841.1666666666666</ele><time>2026-04-11T10:47:41.825Z</time></trkpt><trkpt lat="43.0372649" lon="12.8784869"><ele>843.0</ele><time>2026-04-11T10:47:43.806Z</time></trkpt><trkpt lat="43.0372753" lon="12.878626"><ele>844.0</ele><time>2026-04-11T10:47:45.816Z</time></trkpt><trkpt lat="43.0372833" lon="12.8787777"><ele>845.0</ele><time>2026-04-11T10:47:47.815Z</time></trkpt><trkpt lat="43.0372966" lon="12.8789296"><ele>846.0</ele><time>2026-04-11T10:47:49.815Z</time></trkpt><trkpt lat="43.037299" lon="12.8790847"><ele>847.0</ele><time>2026-04-11T10:47:51.812Z</time></trkpt><trkpt lat="43.0373041" lon="12.8791763"><ele>848.0</ele><time>2026-04-11T10:47:52.815Z</time></trkpt><trkpt lat="43.0373105" lon="12.8792638"><ele>848.4</ele><time>2026-04-11T10:47:53.802Z</time></trkpt><trkpt lat="43.0372988" lon="12.8794223"><ele>848.8</ele><time>2026-04-11T10:47:55.825Z</time></trkpt><trkpt lat="43.037263" lon="12.8795882"><ele>849.2</ele><time>2026-04-11T10:47:57.815Z</time></trkpt><trkpt lat="43.0372182" lon="12.8797234"><ele>849.6</ele><time>2026-04-11T10:47:59.807Z</time></trkpt><trkpt lat="43.037191" lon="12.8798023"><ele>850.0</ele><time>2026-04-11T10:48:00.814Z</time></trkpt><trkpt lat="43.0371571" lon="12.8798933"><ele>849.9999999999999</ele><time>2026-04-11T10:48:01.812Z</time></trkpt><trkpt lat="43.0371169" lon="12.8799863"><ele>850.0</ele><time>2026-04-11T10:48:02.822Z</time></trkpt><trkpt lat="43.0370695" lon="12.8800828"><ele>850.0</ele><time>2026-04-11T10:48:03.805Z</time></trkpt><trkpt lat="43.0370149" lon="12.8801695"><ele>850.0</ele><time>2026-04-11T10:48:04.822Z</time></trkpt><trkpt lat="43.036952" lon="12.8802539"><ele>849.9999999999999</ele><time>2026-04-11T10:48:05.811Z</time></trkpt><trkpt lat="43.0368803" lon="12.8803349"><ele>850.0</ele><time>2026-04-11T10:48:06.812Z</time></trkpt><trkpt lat="43.0368066" lon="12.8804294"><ele>850.2</ele><time>2026-04-11T10:48:07.808Z</time></trkpt><trkpt lat="43.0367303" lon="12.8805253"><ele>850.4</ele><time>2026-04-11T10:48:08.813Z</time></trkpt><trkpt lat="43.036644" lon="12.8806283"><ele>850.5999999999999</ele><time>2026-04-11T10:48:09.814Z</time></trkpt><trkpt lat="43.0365541" lon="12.8807244"><ele>850.8</ele><time>2026-04-11T10:48:10.81Z</time></trkpt><trkpt lat="43.0364725" lon="12.880807"><ele>851.0</ele><time>2026-04-11T10:48:11.809Z</time></trkpt><trkpt lat="43.0363886" lon="12.880874"><ele>851.0</ele><time>2026-04-11T10:48:12.813Z</time></trkpt><trkpt lat="43.036302" lon="12.8809302"><ele>851.0</ele><time>2026-04-11T10:48:13.819Z</time></trkpt><trkpt lat="43.0362191" lon="12.8809827"><ele>851.0</ele><time>2026-04-11T10:48:14.817Z</time></trkpt><trkpt lat="43.0361359" lon="12.8810314"><ele>851.0</ele><time>2026-04-11T10:48:15.815Z</time></trkpt><trkpt lat="43.0360448" lon="12.8810559"><ele>851.0</ele><time>2026-04-11T10:48:16.807Z</time></trkpt><trkpt lat="43.0359452" lon="12.8810886"><ele>851.5</ele><time>2026-04-11T10:48:17.807Z</time></trkpt><trkpt lat="43.0358424" lon="12.8811366"><ele>852.0</ele><time>2026-04-11T10:48:18.814Z</time></trkpt><trkpt lat="43.0357541" lon="12.8812122"><ele>852.5</ele><time>2026-04-11T10:48:19.81Z</time></trkpt><trkpt lat="43.0356525" lon="12.8812922"><ele>853.0</ele><time>2026-04-11T10:48:20.81Z</time></trkpt><trkpt lat="43.0355408" lon="12.8813868"><ele>853.0</ele><time>2026-04-11T10:48:21.805Z</time></trkpt><trkpt lat="43.0354373" lon="12.8814856"><ele>853.0</ele><time>2026-04-11T10:48:22.816Z</time></trkpt><trkpt lat="43.0353334" lon="12.8815785"><ele>853.0</ele><time>2026-04-11T10:48:23.817Z</time></trkpt><trkpt lat="43.0352349" lon="12.8816669"><ele>853.0</ele><time>2026-04-11T10:48:24.809Z</time></trkpt><trkpt lat="43.0351361" lon="12.8817456"><ele>853.0</ele><time>2026-04-11T10:48:25.82Z</time></trkpt><trkpt lat="43.0350348" lon="12.8818235"><ele>853.0</ele><time>2026-04-11T10:48:26.81Z</time></trkpt><trkpt lat="43.034932" lon="12.881905"><ele>853.0</ele><time>2026-04-11T10:48:27.814Z</time></trkpt><trkpt lat="43.0348368" lon="12.8819876"><ele>853.0</ele><time>2026-04-11T10:48:28.818Z</time></trkpt><trkpt lat="43.0347437" lon="12.8820684"><ele>854.75</ele><time>2026-04-11T10:48:29.817Z</time></trkpt><trkpt lat="43.0346457" lon="12.8821556"><ele>856.5</ele><time>2026-04-11T10:48:30.812Z</time></trkpt><trkpt lat="43.0345474" lon="12.8822416"><ele>858.25</ele><time>2026-04-11T10:48:31.804Z</time></trkpt><trkpt lat="43.0344501" lon="12.8823337"><ele>860.0</ele><time>2026-04-11T10:48:32.808Z</time></trkpt><trkpt lat="43.0343491" lon="12.8824407"><ele>860.0</ele><time>2026-04-11T10:48:33.82Z</time></trkpt><trkpt lat="43.0342491" lon="12.8825518"><ele>860.0</ele><time>2026-04-11T10:48:34.811Z</time></trkpt><trkpt lat="43.0341533" lon="12.8826612"><ele>860.0</ele><time>2026-04-11T10:48:35.818Z</time></trkpt><trkpt lat="43.0340537" lon="12.8827704"><ele>860.0</ele><time>2026-04-11T10:48:36.82Z</time></trkpt><trkpt lat="43.0339546" lon="12.8828785"><ele>860.75</ele><time>2026-04-11T10:48:37.812Z</time></trkpt><trkpt lat="43.0338545" lon="12.8829712"><ele>861.5</ele><time>2026-04-11T10:48:38.808Z</time></trkpt><trkpt lat="43.0337563" lon="12.8830499"><ele>862.25</ele><time>2026-04-11T10:48:39.811Z</time></trkpt><trkpt lat="43.0336616" lon="12.8831261"><ele>863.0</ele><time>2026-04-11T10:48:40.81Z</time></trkpt><trkpt lat="43.0335659" lon="12.8832084"><ele>863.0</ele><time>2026-04-11T10:48:41.812Z</time></trkpt><trkpt lat="43.0334737" lon="12.883298"><ele>863.0</ele><time>2026-04-11T10:48:42.827Z</time></trkpt><trkpt lat="43.0333924" lon="12.8833866"><ele>863.0</ele><time>2026-04-11T10:48:43.811Z</time></trkpt><trkpt lat="43.0333238" lon="12.8834762"><ele>863.0</ele><time>2026-04-11T10:48:44.807Z</time></trkpt><trkpt lat="43.0332645" lon="12.8835616"><ele>863.0</ele><time>2026-04-11T10:48:45.811Z</time></trkpt><trkpt lat="43.0332184" lon="12.8836388"><ele>861.3333333333334</ele><time>2026-04-11T10:48:46.816Z</time></trkpt><trkpt lat="43.0331765" lon="12.883708"><ele>859.6666666666667</ele><time>2026-04-11T10:48:47.802Z</time></trkpt><trkpt lat="43.0331407" lon="12.8837811"><ele>858.0</ele><time>2026-04-11T10:48:48.814Z</time></trkpt><trkpt lat="43.0331022" lon="12.8838539"><ele>856.3333333333333</ele><time>2026-04-11T10:48:49.805Z</time></trkpt><trkpt lat="43.0330594" lon="12.8839293"><ele>854.6666666666666</ele><time>2026-04-11T10:48:50.815Z</time></trkpt><trkpt lat="43.0330052" lon="12.8839859"><ele>853.0</ele><time>2026-04-11T10:48:51.81Z</time></trkpt><trkpt lat="43.0328748" lon="12.8840136"><ele>852.9999999999999</ele><time>2026-04-11T10:48:53.816Z</time></trkpt><trkpt lat="43.0327932" lon="12.8840038"><ele>853.0</ele><time>2026-04-11T10:48:54.803Z</time></trkpt><trkpt lat="43.0327033" lon="12.8839927"><ele>853.0</ele><time>2026-04-11T10:48:55.812Z</time></trkpt><trkpt lat="43.0326157" lon="12.8839803"><ele>853.0</ele><time>2026-04-11T10:48:56.812Z</time></trkpt><trkpt lat="43.0325298" lon="12.8839633"><ele>852.9999999999999</ele><time>2026-04-11T10:48:57.802Z</time></trkpt><trkpt lat="43.0324355" lon="12.8839447"><ele>853.0</ele><time>2026-04-11T10:48:58.816Z</time></trkpt><trkpt lat="43.0323482" lon="12.8839217"><ele>852.5714285714286</ele><time>2026-04-11T10:48:59.816Z</time></trkpt><trkpt lat="43.0322649" lon="12.8839043"><ele>852.1428571428572</ele><time>2026-04-11T10:49:00.826Z</time></trkpt><trkpt lat="43.0321896" lon="12.8838946"><ele>851.7142857142858</ele><time>2026-04-11T10:49:01.804Z</time></trkpt><trkpt lat="43.032119" lon="12.8838832"><ele>851.2857142857142</ele><time>2026-04-11T10:49:02.816Z</time></trkpt><trkpt lat="43.0320492" lon="12.8838659"><ele>850.8571428571429</ele><time>2026-04-11T10:49:03.825Z</time></trkpt><trkpt lat="43.0319756" lon="12.8838535"><ele>850.4285714285714</ele><time>2026-04-11T10:49:04.812Z</time></trkpt><trkpt lat="43.0319051" lon="12.8838467"><ele>850.0</ele><time>2026-04-11T10:49:05.81Z</time></trkpt><trkpt lat="43.0318359" lon="12.8838381"><ele>849.9999999999999</ele><time>2026-04-11T10:49:06.816Z</time></trkpt><trkpt lat="43.0317107" lon="12.8838056"><ele>850.0</ele><time>2026-04-11T10:49:08.813Z</time></trkpt><trkpt lat="43.031642" lon="12.8837732"><ele>850.0</ele><time>2026-04-11T10:49:09.811Z</time></trkpt><trkpt lat="43.0315703" lon="12.8837339"><ele>850.0</ele><time>2026-04-11T10:49:10.809Z</time></trkpt><trkpt lat="43.031498" lon="12.8836905"><ele>849.9999999999999</ele><time>2026-04-11T10:49:11.812Z</time></trkpt><trkpt lat="43.0314266" lon="12.883644"><ele>850.0</ele><time>2026-04-11T10:49:12.816Z</time></trkpt><trkpt lat="43.0313574" lon="12.8835956"><ele>849.6666666666666</ele><time>2026-04-11T10:49:13.824Z</time></trkpt><trkpt lat="43.0312858" lon="12.8835527"><ele>849.3333333333333</ele><time>2026-04-11T10:49:14.82Z</time></trkpt><trkpt lat="43.0312166" lon="12.883508"><ele>849.0</ele><time>2026-04-11T10:49:15.817Z</time></trkpt><trkpt lat="43.0311468" lon="12.8834579"><ele>848.6666666666667</ele><time>2026-04-11T10:49:16.82Z</time></trkpt><trkpt lat="43.0310738" lon="12.8834066"><ele>848.3333333333334</ele><time>2026-04-11T10:49:17.813Z</time></trkpt><trkpt lat="43.0310029" lon="12.8833419"><ele>848.0</ele><time>2026-04-11T10:49:18.82Z</time></trkpt><trkpt lat="43.0309338" lon="12.8832718"><ele>846.3333333333334</ele><time>2026-04-11T10:49:19.813Z</time></trkpt><trkpt lat="43.0308666" lon="12.8832153"><ele>844.6666666666667</ele><time>2026-04-11T10:49:20.813Z</time></trkpt><trkpt lat="43.0307988" lon="12.8831821"><ele>843.0</ele><time>2026-04-11T10:49:21.806Z</time></trkpt><trkpt lat="43.0307306" lon="12.8831607"><ele>841.3333333333333</ele><time>2026-04-11T10:49:22.821Z</time></trkpt><trkpt lat="43.0306553" lon="12.8831428"><ele>839.6666666666666</ele><time>2026-04-11T10:49:23.818Z</time></trkpt><trkpt lat="43.0305767" lon="12.8831311"><ele>838.0</ele><time>2026-04-11T10:49:24.815Z</time></trkpt><trkpt lat="43.0304934" lon="12.8831136"><ele>836.1666666666666</ele><time>2026-04-11T10:49:25.817Z</time></trkpt><trkpt lat="43.0304139" lon="12.8830966"><ele>834.3333333333333</ele><time>2026-04-11T10:49:26.816Z</time></trkpt><trkpt lat="43.0303346" lon="12.8830778"><ele>832.5</ele><time>2026-04-11T10:49:27.815Z</time></trkpt><trkpt lat="43.0302583" lon="12.8830449"><ele>830.6666666666667</ele><time>2026-04-11T10:49:28.816Z</time></trkpt><trkpt lat="43.0301888" lon="12.8829827"><ele>828.8333333333334</ele><time>2026-04-11T10:49:29.805Z</time></trkpt><trkpt lat="43.0301259" lon="12.8829094"><ele>827.0</ele><time>2026-04-11T10:49:30.817Z</time></trkpt><trkpt lat="43.0300553" lon="12.8828336"><ele>827.4000000000001</ele><time>2026-04-11T10:49:31.813Z</time></trkpt><trkpt lat="43.0299747" lon="12.8827501"><ele>827.8000000000001</ele><time>2026-04-11T10:49:32.808Z</time></trkpt><trkpt lat="43.0298904" lon="12.8826666"><ele>828.2</ele><time>2026-04-11T10:49:33.806Z</time></trkpt><trkpt lat="43.029805" lon="12.8825885"><ele>828.6</ele><time>2026-04-11T10:49:34.823Z</time></trkpt><trkpt lat="43.0297213" lon="12.8825123"><ele>829.0</ele><time>2026-04-11T10:49:35.813Z</time></trkpt><trkpt lat="43.0296395" lon="12.8824331"><ele>825.4000000000001</ele><time>2026-04-11T10:49:36.806Z</time></trkpt><trkpt lat="43.0295601" lon="12.882351"><ele>821.8</ele><time>2026-04-11T10:49:37.821Z</time></trkpt><trkpt lat="43.0294808" lon="12.8822728"><ele>818.2</ele><time>2026-04-11T10:49:38.812Z</time></trkpt><trkpt lat="43.0294059" lon="12.8822002"><ele>814.5999999999999</ele><time>2026-04-11T10:49:39.81Z</time></trkpt><trkpt lat="43.0293309" lon="12.8821332"><ele>811.0</ele><time>2026-04-11T10:49:40.818Z</time></trkpt><trkpt lat="43.0292533" lon="12.8820634"><ele>810.9999999999999</ele><time>2026-04-11T10:49:41.815Z</time></trkpt><trkpt lat="43.0291761" lon="12.8819929"><ele>811.0</ele><time>2026-04-11T10:49:42.816Z</time></trkpt><trkpt lat="43.0291049" lon="12.8819158"><ele>811.0</ele><time>2026-04-11T10:49:43.804Z</time></trkpt><trkpt lat="43.0290336" lon="12.8818369"><ele>811.0</ele><time>2026-04-11T10:49:44.808Z</time></trkpt><trkpt lat="43.0289693" lon="12.8817645"><ele>810.9999999999999</ele><time>2026-04-11T10:49:45.809Z</time></trkpt><trkpt lat="43.0289078" lon="12.8816852"><ele>811.0</ele><time>2026-04-11T10:49:46.805Z</time></trkpt><trkpt lat="43.0288478" lon="12.8816017"><ele>807.8</ele><time>2026-04-11T10:49:47.81Z</time></trkpt><trkpt lat="43.0287833" lon="12.8815183"><ele>804.5999999999999</ele><time>2026-04-11T10:49:48.816Z</time></trkpt><trkpt lat="43.0287081" lon="12.881445"><ele>801.4</ele><time>2026-04-11T10:49:49.814Z</time></trkpt><trkpt lat="43.028632" lon="12.8813769"><ele>798.2</ele><time>2026-04-11T10:49:50.813Z</time></trkpt><trkpt lat="43.0285525" lon="12.881318"><ele>795.0</ele><time>2026-04-11T10:49:51.81Z</time></trkpt><trkpt lat="43.0284689" lon="12.8812702"><ele>795.0</ele><time>2026-04-11T10:49:52.819Z</time></trkpt><trkpt lat="43.0283918" lon="12.8812257"><ele>795.0</ele><time>2026-04-11T10:49:53.809Z</time></trkpt><trkpt lat="43.0283127" lon="12.881193"><ele>795.0</ele><time>2026-04-11T10:49:54.813Z</time></trkpt><trkpt lat="43.0282287" lon="12.8811553"><ele>795.0</ele><time>2026-04-11T10:49:55.809Z</time></trkpt><trkpt lat="43.0281375" lon="12.8811159"><ele>795.0</ele><time>2026-04-11T10:49:56.806Z</time></trkpt><trkpt lat="43.0280515" lon="12.8810715"><ele>795.0</ele><time>2026-04-11T10:49:57.806Z</time></trkpt><trkpt lat="43.0279767" lon="12.881006"><ele>793.3333333333334</ele><time>2026-04-11T10:49:58.804Z</time></trkpt><trkpt lat="43.0279077" lon="12.8809309"><ele>791.6666666666667</ele><time>2026-04-11T10:49:59.801Z</time></trkpt><trkpt lat="43.0278346" lon="12.8808521"><ele>790.0</ele><time>2026-04-11T10:50:00.815Z</time></trkpt><trkpt lat="43.0277697" lon="12.880776"><ele>788.3333333333334</ele><time>2026-04-11T10:50:01.816Z</time></trkpt><trkpt lat="43.0276992" lon="12.8807087"><ele>786.6666666666667</ele><time>2026-04-11T10:50:02.811Z</time></trkpt><trkpt lat="43.0276243" lon="12.8806413"><ele>785.0</ele><time>2026-04-11T10:50:03.805Z</time></trkpt><trkpt lat="43.0275497" lon="12.8805722"><ele>786.6</ele><time>2026-04-11T10:50:04.82Z</time></trkpt><trkpt lat="43.0274758" lon="12.8805016"><ele>788.2</ele><time>2026-04-11T10:50:05.817Z</time></trkpt><trkpt lat="43.0273989" lon="12.8804267"><ele>789.8</ele><time>2026-04-11T10:50:06.806Z</time></trkpt><trkpt lat="43.0273223" lon="12.8803577"><ele>791.4</ele><time>2026-04-11T10:50:07.812Z</time></trkpt><trkpt lat="43.0272445" lon="12.8802954"><ele>793.0</ele><time>2026-04-11T10:50:08.807Z</time></trkpt><trkpt lat="43.0271709" lon="12.8802378"><ele>792.9999999999999</ele><time>2026-04-11T10:50:09.813Z</time></trkpt><trkpt lat="43.0271021" lon="12.8801682"><ele>793.0</ele><time>2026-04-11T10:50:10.815Z</time></trkpt><trkpt lat="43.0270354" lon="12.8800848"><ele>793.0</ele><time>2026-04-11T10:50:11.803Z</time></trkpt><trkpt lat="43.0269738" lon="12.879993"><ele>793.0</ele><time>2026-04-11T10:50:12.822Z</time></trkpt><trkpt lat="43.0269188" lon="12.8798952"><ele>792.9999999999999</ele><time>2026-04-11T10:50:13.806Z</time></trkpt><trkpt lat="43.0268708" lon="12.8798055"><ele>793.0</ele><time>2026-04-11T10:50:14.81Z</time></trkpt><trkpt lat="43.0268223" lon="12.8797237"><ele>789.3333333333333</ele><time>2026-04-11T10:50:15.808Z</time></trkpt><trkpt lat="43.0267782" lon="12.8796398"><ele>785.6666666666666</ele><time>2026-04-11T10:50:16.812Z</time></trkpt><trkpt lat="43.0267323" lon="12.8795541"><ele>782.0</ele><time>2026-04-11T10:50:17.806Z</time></trkpt><trkpt lat="43.0266906" lon="12.8794753"><ele>778.3333333333333</ele><time>2026-04-11T10:50:18.814Z</time></trkpt><trkpt lat="43.0266504" lon="12.8794033"><ele>774.6666666666666</ele><time>2026-04-11T10:50:19.812Z</time></trkpt><trkpt lat="43.0265658" lon="12.8792971"><ele>771.0</ele><time>2026-04-11T10:50:21.802Z</time></trkpt><trkpt lat="43.026481" lon="12.8792721"><ele>769.6666666666666</ele><time>2026-04-11T10:50:23.81Z</time></trkpt><trkpt lat="43.0264157" lon="12.8792781"><ele>768.3333333333334</ele><time>2026-04-11T10:50:25.808Z</time></trkpt><trkpt lat="43.0263348" lon="12.8792652"><ele>767.0</ele><time>2026-04-11T10:51:11.81Z</time></trkpt><trkpt lat="43.0263162" lon="12.8791689"><ele>765.6666666666667</ele><time>2026-04-11T10:51:14.815Z</time></trkpt><trkpt lat="43.0263981" lon="12.8790463"><ele>764.3333333333334</ele><time>2026-04-11T10:51:16.804Z</time></trkpt><trkpt lat="43.0264502" lon="12.8789633"><ele>763.0</ele><time>2026-04-11T10:51:17.804Z</time></trkpt><trkpt lat="43.0265126" lon="12.8788767"><ele>762.75</ele><time>2026-04-11T10:51:18.809Z</time></trkpt><trkpt lat="43.0265875" lon="12.8787837"><ele>762.5</ele><time>2026-04-11T10:51:19.8Z</time></trkpt><trkpt lat="43.026682" lon="12.8786923"><ele>762.25</ele><time>2026-04-11T10:51:20.802Z</time></trkpt><trkpt lat="43.0267891" lon="12.8786093"><ele>762.0</ele><time>2026-04-11T10:51:21.805Z</time></trkpt><trkpt lat="43.0269074" lon="12.8785329"><ele>762.0</ele><time>2026-04-11T10:51:22.825Z</time></trkpt><trkpt lat="43.0270418" lon="12.8784715"><ele>762.0</ele><time>2026-04-11T10:51:23.812Z</time></trkpt><trkpt lat="43.0271731" lon="12.8784273"><ele>762.0</ele><time>2026-04-11T10:51:24.811Z</time></trkpt><trkpt lat="43.0273001" lon="12.8783807"><ele>762.0</ele><time>2026-04-11T10:51:25.815Z</time></trkpt><trkpt lat="43.0274275" lon="12.8783334"><ele>761.4000000000001</ele><time>2026-04-11T10:51:26.818Z</time></trkpt><trkpt lat="43.0275385" lon="12.8782797"><ele>760.8000000000001</ele><time>2026-04-11T10:51:27.82Z</time></trkpt><trkpt lat="43.0276443" lon="12.8782305"><ele>760.2</ele><time>2026-04-11T10:51:28.816Z</time></trkpt><trkpt lat="43.0277436" lon="12.8781873"><ele>759.6</ele><time>2026-04-11T10:51:29.82Z</time></trkpt><trkpt lat="43.0278368" lon="12.8781458"><ele>759.0</ele><time>2026-04-11T10:51:30.811Z</time></trkpt><trkpt lat="43.0279256" lon="12.8780946"><ele>759.0</ele><time>2026-04-11T10:51:31.815Z</time></trkpt><trkpt lat="43.0280115" lon="12.8780372"><ele>759.0</ele><time>2026-04-11T10:51:32.816Z</time></trkpt><trkpt lat="43.0280936" lon="12.8779689"><ele>759.0</ele><time>2026-04-11T10:51:33.812Z</time></trkpt><trkpt lat="43.0281674" lon="12.8778878"><ele>759.0</ele><time>2026-04-11T10:51:34.808Z</time></trkpt><trkpt lat="43.0282293" lon="12.8777965"><ele>759.0</ele><time>2026-04-11T10:51:35.803Z</time></trkpt><trkpt lat="43.0282867" lon="12.8777177"><ele>759.5</ele><time>2026-04-11T10:51:36.813Z</time></trkpt><trkpt lat="43.028338" lon="12.877644"><ele>760.0</ele><time>2026-04-11T10:51:37.804Z</time></trkpt><trkpt lat="43.028389" lon="12.8775726"><ele>760.5</ele><time>2026-04-11T10:51:38.809Z</time></trkpt><trkpt lat="43.028443" lon="12.8775011"><ele>761.0</ele><time>2026-04-11T10:51:39.821Z</time></trkpt><trkpt lat="43.0285028" lon="12.8774284"><ele>761.5</ele><time>2026-04-11T10:51:40.817Z</time></trkpt><trkpt lat="43.0285789" lon="12.8773793"><ele>762.0</ele><time>2026-04-11T10:51:41.819Z</time></trkpt><trkpt lat="43.0286876" lon="12.8773595"><ele>761.25</ele><time>2026-04-11T10:51:42.828Z</time></trkpt><trkpt lat="43.0288149" lon="12.8773514"><ele>760.5</ele><time>2026-04-11T10:51:43.815Z</time></trkpt><trkpt lat="43.0289504" lon="12.8773315"><ele>759.75</ele><time>2026-04-11T10:51:44.812Z</time></trkpt><trkpt lat="43.0290863" lon="12.8772786"><ele>759.0</ele><time>2026-04-11T10:51:45.808Z</time></trkpt><trkpt lat="43.0292159" lon="12.8771984"><ele>759.0</ele><time>2026-04-11T10:51:46.824Z</time></trkpt><trkpt lat="43.0293455" lon="12.877101"><ele>759.0</ele><time>2026-04-11T10:51:47.81Z</time></trkpt><trkpt lat="43.0294765" lon="12.8770013"><ele>759.0</ele><time>2026-04-11T10:51:48.817Z</time></trkpt><trkpt lat="43.0296006" lon="12.87688"><ele>759.0</ele><time>2026-04-11T10:51:49.81Z</time></trkpt><trkpt lat="43.0297158" lon="12.8767403"><ele>759.0</ele><time>2026-04-11T10:51:50.816Z</time></trkpt><trkpt lat="43.0298177" lon="12.8765843"><ele>759.0</ele><time>2026-04-11T10:51:51.804Z</time></trkpt><trkpt lat="43.0299092" lon="12.8764386"><ele>759.0</ele><time>2026-04-11T10:51:52.812Z</time></trkpt><trkpt lat="43.0299889" lon="12.8763056"><ele>759.0</ele><time>2026-04-11T10:51:53.809Z</time></trkpt><trkpt lat="43.0300461" lon="12.8761623"><ele>759.0</ele><time>2026-04-11T10:51:54.807Z</time></trkpt><trkpt lat="43.0300983" lon="12.8760072"><ele>759.0</ele><time>2026-04-11T10:51:55.809Z</time></trkpt><trkpt lat="43.0301222" lon="12.875832"><ele>759.0</ele><time>2026-04-11T10:51:56.809Z</time></trkpt><trkpt lat="43.0301304" lon="12.8756487"><ele>759.25</ele><time>2026-04-11T10:51:57.814Z</time></trkpt><trkpt lat="43.0301369" lon="12.8754587"><ele>759.5</ele><time>2026-04-11T10:51:58.819Z</time></trkpt><trkpt lat="43.030148" lon="12.8752602"><ele>759.75</ele><time>2026-04-11T10:51:59.807Z</time></trkpt><trkpt lat="43.030158" lon="12.8750556"><ele>760.0</ele><time>2026-04-11T10:52:00.824Z</time></trkpt><trkpt lat="43.0301509" lon="12.8748393"><ele>759.3333333333334</ele><time>2026-04-11T10:52:01.81Z</time></trkpt><trkpt lat="43.0301248" lon="12.8746139"><ele>758.6666666666666</ele><time>2026-04-11T10:52:02.812Z</time></trkpt><trkpt lat="43.030074" lon="12.8743895"><ele>758.0</ele><time>2026-04-11T10:52:03.813Z</time></trkpt><trkpt lat="43.0300155" lon="12.874161"><ele>757.0</ele><time>2026-04-11T10:52:04.82Z</time></trkpt><trkpt lat="43.029941" lon="12.873937"><ele>756.0</ele><time>2026-04-11T10:52:05.81Z</time></trkpt><trkpt lat="43.0298562" lon="12.8737105"><ele>755.0</ele><time>2026-04-11T10:52:06.812Z</time></trkpt><trkpt lat="43.0297618" lon="12.8734819"><ele>755.6666666666666</ele><time>2026-04-11T10:52:07.806Z</time></trkpt><trkpt lat="43.029663" lon="12.8732598"><ele>756.3333333333334</ele><time>2026-04-11T10:52:08.811Z</time></trkpt><trkpt lat="43.0295645" lon="12.8730482"><ele>757.0</ele><time>2026-04-11T10:52:09.804Z</time></trkpt><trkpt lat="43.029474" lon="12.8728561"><ele>757.0</ele><time>2026-04-11T10:52:10.811Z</time></trkpt><trkpt lat="43.0293695" lon="12.8726804"><ele>757.0</ele><time>2026-04-11T10:52:11.81Z</time></trkpt><trkpt lat="43.0292412" lon="12.872526"><ele>757.0</ele><time>2026-04-11T10:52:12.807Z</time></trkpt><trkpt lat="43.0291056" lon="12.8723974"><ele>757.3333333333334</ele><time>2026-04-11T10:52:13.81Z</time></trkpt><trkpt lat="43.0289756" lon="12.8722848"><ele>757.6666666666666</ele><time>2026-04-11T10:52:14.822Z</time></trkpt><trkpt lat="43.0288516" lon="12.872166"><ele>758.0</ele><time>2026-04-11T10:52:15.811Z</time></trkpt><trkpt lat="43.0287369" lon="12.8720247"><ele>758.0</ele><time>2026-04-11T10:52:16.82Z</time></trkpt><trkpt lat="43.0286453" lon="12.8718384"><ele>758.0</ele><time>2026-04-11T10:52:17.811Z</time></trkpt><trkpt lat="43.028573" lon="12.8716252"><ele>758.0</ele><time>2026-04-11T10:52:18.815Z</time></trkpt><trkpt lat="43.0285076" lon="12.8713941"><ele>759.0</ele><time>2026-04-11T10:52:19.804Z</time></trkpt><trkpt lat="43.0284345" lon="12.8711565"><ele>760.0</ele><time>2026-04-11T10:52:20.82Z</time></trkpt><trkpt lat="43.0283574" lon="12.8709226"><ele>761.0</ele><time>2026-04-11T10:52:21.811Z</time></trkpt><trkpt lat="43.0282784" lon="12.8706985"><ele>761.0</ele><time>2026-04-11T10:52:22.806Z</time></trkpt><trkpt lat="43.0282044" lon="12.8704767"><ele>761.0</ele><time>2026-04-11T10:52:23.812Z</time></trkpt><trkpt lat="43.0281297" lon="12.8702528"><ele>761.0</ele><time>2026-04-11T10:52:24.816Z</time></trkpt><trkpt lat="43.0280556" lon="12.8700322"><ele>763.3333333333333</ele><time>2026-04-11T10:52:25.807Z</time></trkpt><trkpt lat="43.0279831" lon="12.8698151"><ele>765.6666666666666</ele><time>2026-04-11T10:52:26.818Z</time></trkpt><trkpt lat="43.0279145" lon="12.8695967"><ele>768.0</ele><time>2026-04-11T10:52:27.807Z</time></trkpt><trkpt lat="43.027852" lon="12.8693876"><ele>769.5</ele><time>2026-04-11T10:52:28.814Z</time></trkpt><trkpt lat="43.0277973" lon="12.8692014"><ele>771.0</ele><time>2026-04-11T10:52:29.808Z</time></trkpt><trkpt lat="43.0277502" lon="12.8690294"><ele>772.5</ele><time>2026-04-11T10:52:30.814Z</time></trkpt><trkpt lat="43.0277065" lon="12.8688659"><ele>774.0</ele><time>2026-04-11T10:52:31.807Z</time></trkpt><trkpt lat="43.0276682" lon="12.868711"><ele>774.0</ele><time>2026-04-11T10:52:32.812Z</time></trkpt><trkpt lat="43.0276402" lon="12.868581"><ele>774.0</ele><time>2026-04-11T10:52:33.806Z</time></trkpt><trkpt lat="43.0276211" lon="12.8684783"><ele>774.0</ele><time>2026-04-11T10:52:34.813Z</time></trkpt><trkpt lat="43.0276019" lon="12.8683904"><ele>774.0</ele><time>2026-04-11T10:52:35.813Z</time></trkpt><trkpt lat="43.0275804" lon="12.8682411"><ele>774.0</ele><time>2026-04-11T10:52:37.81Z</time></trkpt><trkpt lat="43.0275652" lon="12.8681086"><ele>775.8000000000001</ele><time>2026-04-11T10:52:39.812Z</time></trkpt><trkpt lat="43.0275721" lon="12.8679245"><ele>777.6</ele><time>2026-04-11T10:52:41.807Z</time></trkpt><trkpt lat="43.0275726" lon="12.867812"><ele>779.4</ele><time>2026-04-11T10:52:42.822Z</time></trkpt><trkpt lat="43.027562" lon="12.867702"><ele>781.2</ele><time>2026-04-11T10:52:43.804Z</time></trkpt><trkpt lat="43.0275409" lon="12.8675895"><ele>783.0</ele><time>2026-04-11T10:52:44.809Z</time></trkpt><trkpt lat="43.0275154" lon="12.8674673"><ele>784.25</ele><time>2026-04-11T10:52:45.814Z</time></trkpt><trkpt lat="43.0274829" lon="12.8673347"><ele>785.5</ele><time>2026-04-11T10:52:46.813Z</time></trkpt><trkpt lat="43.0274448" lon="12.8671928"><ele>786.75</ele><time>2026-04-11T10:52:47.806Z</time></trkpt><trkpt lat="43.0273971" lon="12.8670478"><ele>788.0</ele><time>2026-04-11T10:52:48.814Z</time></trkpt><trkpt lat="43.0273466" lon="12.8668943"><ele>789.8</ele><time>2026-04-11T10:52:49.816Z</time></trkpt><trkpt lat="43.0272999" lon="12.866747"><ele>791.5999999999999</ele><time>2026-04-11T10:52:50.814Z</time></trkpt><trkpt lat="43.0272568" lon="12.8666103"><ele>793.4000000000001</ele><time>2026-04-11T10:52:51.808Z</time></trkpt><trkpt lat="43.0272201" lon="12.8664996"><ele>795.2</ele><time>2026-04-11T10:52:52.808Z</time></trkpt><trkpt lat="43.0271871" lon="12.8664127"><ele>797.0</ele><time>2026-04-11T10:52:53.816Z</time></trkpt><trkpt lat="43.0271442" lon="12.8663114"><ele>797.0000000000001</ele><time>2026-04-11T10:52:55.813Z</time></trkpt><trkpt lat="43.02712" lon="12.8662146"><ele>797.0</ele><time>2026-04-11T10:52:58.816Z</time></trkpt><trkpt lat="43.0271217" lon="12.8661217"><ele>797.0</ele><time>2026-04-11T10:53:00.815Z</time></trkpt><trkpt lat="43.027153" lon="12.8659684"><ele>797.0</ele><time>2026-04-11T10:53:02.816Z</time></trkpt><trkpt lat="43.0271823" lon="12.8658894"><ele>797.0000000000001</ele><time>2026-04-11T10:53:03.812Z</time></trkpt><trkpt lat="43.0272109" lon="12.8658124"><ele>797.0</ele><time>2026-04-11T10:53:04.814Z</time></trkpt><trkpt lat="43.0272784" lon="12.8657194"><ele>797.0000000000001</ele><time>2026-04-11T10:53:06.812Z</time></trkpt><trkpt lat="43.0273504" lon="12.8657513"><ele>797.0</ele><time>2026-04-11T10:53:08.804Z</time></trkpt><trkpt lat="43.027397" lon="12.8658716"><ele>797.0</ele><time>2026-04-11T10:53:10.813Z</time></trkpt><trkpt lat="43.0274471" lon="12.8659537"><ele>797.0</ele><time>2026-04-11T10:53:12.809Z</time></trkpt><trkpt lat="43.0275278" lon="12.8659044"><ele>797.0000000000001</ele><time>2026-04-11T10:53:15.808Z</time></trkpt><trkpt lat="43.0275677" lon="12.8658289"><ele>797.0</ele><time>2026-04-11T10:53:16.824Z</time></trkpt><trkpt lat="43.027619" lon="12.8657586"><ele>800.6</ele><time>2026-04-11T10:53:17.806Z</time></trkpt><trkpt lat="43.0277007" lon="12.8656877"><ele>804.2</ele><time>2026-04-11T10:53:18.816Z</time></trkpt><trkpt lat="43.0277929" lon="12.8656246"><ele>807.8</ele><time>2026-04-11T10:53:19.808Z</time></trkpt><trkpt lat="43.0278821" lon="12.8655495"><ele>811.4</ele><time>2026-04-11T10:53:20.809Z</time></trkpt><trkpt lat="43.0279514" lon="12.8654459"><ele>815.0</ele><time>2026-04-11T10:53:21.82Z</time></trkpt><trkpt lat="43.0279905" lon="12.8653143"><ele>815.0</ele><time>2026-04-11T10:53:22.812Z</time></trkpt><trkpt lat="43.0280033" lon="12.8651507"><ele>815.0</ele><time>2026-04-11T10:53:23.81Z</time></trkpt><trkpt lat="43.0279941" lon="12.8649884"><ele>815.0</ele><time>2026-04-11T10:53:24.817Z</time></trkpt><trkpt lat="43.0279969" lon="12.8648425"><ele>815.0</ele><time>2026-04-11T10:53:25.806Z</time></trkpt><trkpt lat="43.0279952" lon="12.8647"><ele>816.0</ele><time>2026-04-11T10:53:26.822Z</time></trkpt><trkpt lat="43.0279921" lon="12.8645556"><ele>817.0</ele><time>2026-04-11T10:53:27.803Z</time></trkpt><trkpt lat="43.0279903" lon="12.8644088"><ele>818.0</ele><time>2026-04-11T10:53:28.818Z</time></trkpt><trkpt lat="43.0279919" lon="12.8642624"><ele>819.0</ele><time>2026-04-11T10:53:29.815Z</time></trkpt><trkpt lat="43.0279904" lon="12.864123"><ele>820.0</ele><time>2026-04-11T10:53:30.821Z</time></trkpt><trkpt lat="43.0279925" lon="12.8639677"><ele>823.0</ele><time>2026-04-11T10:53:31.822Z</time></trkpt><trkpt lat="43.027991" lon="12.8638061"><ele>826.0</ele><time>2026-04-11T10:53:32.82Z</time></trkpt><trkpt lat="43.0279852" lon="12.8636481"><ele>829.0</ele><time>2026-04-11T10:53:33.805Z</time></trkpt><trkpt lat="43.0279669" lon="12.8634877"><ele>832.0</ele><time>2026-04-11T10:53:34.815Z</time></trkpt><trkpt lat="43.0279465" lon="12.8633249"><ele>834.4000000000001</ele><time>2026-04-11T10:53:35.811Z</time></trkpt><trkpt lat="43.0279225" lon="12.8631685"><ele>836.8000000000001</ele><time>2026-04-11T10:53:36.808Z</time></trkpt><trkpt lat="43.0278979" lon="12.8630252"><ele>839.2</ele><time>2026-04-11T10:53:37.818Z</time></trkpt><trkpt lat="43.0278712" lon="12.8628931"><ele>841.6</ele><time>2026-04-11T10:53:38.814Z</time></trkpt><trkpt lat="43.0278449" lon="12.8627903"><ele>844.0</ele><time>2026-04-11T10:53:39.806Z</time></trkpt><trkpt lat="43.0278118" lon="12.8626868"><ele>845.4999999999999</ele><time>2026-04-11T10:53:41.826Z</time></trkpt><trkpt lat="43.0277677" lon="12.8626041"><ele>847.0</ele><time>2026-04-11T10:53:44.815Z</time></trkpt><trkpt lat="43.0277251" lon="12.8625358"><ele>848.5</ele><time>2026-04-11T10:53:47.814Z</time></trkpt><trkpt lat="43.0276735" lon="12.8624454"><ele>850.0</ele><time>2026-04-11T10:53:49.829Z</time></trkpt><trkpt lat="43.0276034" lon="12.862316"><ele>851.4999999999999</ele><time>2026-04-11T10:53:51.811Z</time></trkpt><trkpt lat="43.0275602" lon="12.8622462"><ele>853.0</ele><time>2026-04-11T10:53:52.806Z</time></trkpt><trkpt lat="43.0275159" lon="12.8621826"><ele>852.1666666666666</ele><time>2026-04-11T10:53:53.8Z</time></trkpt><trkpt lat="43.0274636" lon="12.8621257"><ele>851.3333333333333</ele><time>2026-04-11T10:53:54.815Z</time></trkpt><trkpt lat="43.0274062" lon="12.8620607"><ele>850.5</ele><time>2026-04-11T10:53:55.806Z</time></trkpt><trkpt lat="43.0273462" lon="12.8619979"><ele>849.6666666666667</ele><time>2026-04-11T10:53:56.81Z</time></trkpt><trkpt lat="43.0272922" lon="12.8619431"><ele>848.8333333333334</ele><time>2026-04-11T10:53:57.805Z</time></trkpt><trkpt lat="43.0272431" lon="12.8618888"><ele>848.0</ele><time>2026-04-11T10:53:58.819Z</time></trkpt><trkpt lat="43.0271595" lon="12.861792"><ele>848.0000000000001</ele><time>2026-04-11T10:54:00.803Z</time></trkpt><trkpt lat="43.0271093" lon="12.8617202"><ele>848.0</ele><time>2026-04-11T10:54:02.81Z</time></trkpt><trkpt lat="43.0270292" lon="12.8617323"><ele>848.0</ele><time>2026-04-11T10:54:07.809Z</time></trkpt><trkpt lat="43.0269771" lon="12.8618368"><ele>848.0</ele><time>2026-04-11T10:54:09.804Z</time></trkpt><trkpt lat="43.0269093" lon="12.8618684"><ele>848.0000000000001</ele><time>2026-04-11T10:54:11.811Z</time></trkpt><trkpt lat="43.0268252" lon="12.8617752"><ele>848.0</ele><time>2026-04-11T10:54:13.812Z</time></trkpt><trkpt lat="43.0267592" lon="12.861732"><ele>848.0000000000001</ele><time>2026-04-11T10:54:15.819Z</time></trkpt><trkpt lat="43.0267016" lon="12.8617992"><ele>848.0</ele><time>2026-04-11T10:54:18.817Z</time></trkpt><trkpt lat="43.0266776" lon="12.8618804"><ele>848.0</ele><time>2026-04-11T10:54:20.815Z</time></trkpt><trkpt lat="43.0266423" lon="12.8620034"><ele>848.0</ele><time>2026-04-11T10:54:22.819Z</time></trkpt><trkpt lat="43.0266052" lon="12.8620829"><ele>848.0000000000001</ele><time>2026-04-11T10:54:24.821Z</time></trkpt><trkpt lat="43.0265627" lon="12.8621706"><ele>848.0</ele><time>2026-04-11T10:54:27.812Z</time></trkpt><trkpt lat="43.0264997" lon="12.8622608"><ele>848.0000000000001</ele><time>2026-04-11T10:54:30.806Z</time></trkpt><trkpt lat="43.0264379" lon="12.8622964"><ele>848.0</ele><time>2026-04-11T10:54:32.81Z</time></trkpt><trkpt lat="43.0263838" lon="12.8622505"><ele>848.0</ele><time>2026-04-11T10:54:46.806Z</time></trkpt><trkpt lat="43.0263275" lon="12.8621463"><ele>848.0</ele><time>2026-04-11T10:54:50.82Z</time></trkpt><trkpt lat="43.0262673" lon="12.8620261"><ele>848.0000000000001</ele><time>2026-04-11T10:54:52.814Z</time></trkpt><trkpt lat="43.0262093" lon="12.8618902"><ele>848.0</ele><time>2026-04-11T10:54:54.817Z</time></trkpt><trkpt lat="43.0261491" lon="12.8617464"><ele>848.0000000000001</ele><time>2026-04-11T10:54:56.813Z</time></trkpt><trkpt lat="43.0260893" lon="12.8616195"><ele>848.0</ele><time>2026-04-11T10:54:58.806Z</time></trkpt><trkpt lat="43.0260519" lon="12.8615463"><ele>848.0</ele><time>2026-04-11T10:54:59.806Z</time></trkpt><trkpt lat="43.0260117" lon="12.8614728"><ele>848.0</ele><time>2026-04-11T10:55:00.81Z</time></trkpt><trkpt lat="43.0259696" lon="12.8613863"><ele>848.0000000000001</ele><time>2026-04-11T10:55:01.806Z</time></trkpt><trkpt lat="43.0259189" lon="12.8612928"><ele>848.0</ele><time>2026-04-11T10:55:02.813Z</time></trkpt><trkpt lat="43.0258677" lon="12.8611951"><ele>848.0000000000001</ele><time>2026-04-11T10:55:03.805Z</time></trkpt><trkpt lat="43.0258272" lon="12.8611069"><ele>848.0</ele><time>2026-04-11T10:55:04.812Z</time></trkpt><trkpt lat="43.025801" lon="12.8610162"><ele>848.0</ele><time>2026-04-11T10:55:05.805Z</time></trkpt><trkpt lat="43.0257938" lon="12.860907"><ele>848.0</ele><time>2026-04-11T10:55:06.811Z</time></trkpt><trkpt lat="43.0258194" lon="12.8608178"><ele>848.0000000000001</ele><time>2026-04-11T10:55:07.799Z</time></trkpt><trkpt lat="43.02587" lon="12.8607358"><ele>848.0</ele><time>2026-04-11T10:55:08.813Z</time></trkpt><trkpt lat="43.0259434" lon="12.8606689"><ele>848.0000000000001</ele><time>2026-04-11T10:55:09.805Z</time></trkpt><trkpt lat="43.0260171" lon="12.8606082"><ele>848.0</ele><time>2026-04-11T10:55:10.807Z</time></trkpt><trkpt lat="43.0260893" lon="12.8605607"><ele>848.0</ele><time>2026-04-11T10:55:11.821Z</time></trkpt><trkpt lat="43.026168" lon="12.860509"><ele>848.0</ele><time>2026-04-11T10:55:12.814Z</time></trkpt><trkpt lat="43.0262374" lon="12.8604461"><ele>848.0000000000001</ele><time>2026-04-11T10:55:13.805Z</time></trkpt><trkpt lat="43.0262918" lon="12.8603574"><ele>848.0</ele><time>2026-04-11T10:55:14.821Z</time></trkpt><trkpt lat="43.0263281" lon="12.8602447"><ele>846.4</ele><time>2026-04-11T10:55:15.811Z</time></trkpt><trkpt lat="43.0263468" lon="12.8601086"><ele>844.8</ele><time>2026-04-11T10:55:16.811Z</time></trkpt><trkpt lat="43.0263457" lon="12.8599717"><ele>843.2</ele><time>2026-04-11T10:55:17.802Z</time></trkpt><trkpt lat="43.0263411" lon="12.8598421"><ele>841.6</ele><time>2026-04-11T10:55:18.818Z</time></trkpt><trkpt lat="43.0263311" lon="12.8597235"><ele>840.0</ele><time>2026-04-11T10:55:19.806Z</time></trkpt><trkpt lat="43.0263147" lon="12.8596108"><ele>840.0</ele><time>2026-04-11T10:55:20.82Z</time></trkpt><trkpt lat="43.0262778" lon="12.8594989"><ele>840.0</ele><time>2026-04-11T10:55:21.808Z</time></trkpt><trkpt lat="43.026219" lon="12.8594127"><ele>840.0</ele><time>2026-04-11T10:55:22.814Z</time></trkpt><trkpt lat="43.0261385" lon="12.8593487"><ele>840.0</ele><time>2026-04-11T10:55:23.809Z</time></trkpt><trkpt lat="43.0260541" lon="12.8592925"><ele>840.0</ele><time>2026-04-11T10:55:24.806Z</time></trkpt><trkpt lat="43.0259626" lon="12.8592307"><ele>841.2</ele><time>2026-04-11T10:55:25.811Z</time></trkpt><trkpt lat="43.0258645" lon="12.8591569"><ele>842.4</ele><time>2026-04-11T10:55:26.814Z</time></trkpt><trkpt lat="43.025764" lon="12.8590972"><ele>843.5999999999999</ele><time>2026-04-11T10:55:27.82Z</time></trkpt><trkpt lat="43.0256609" lon="12.859066"><ele>844.8</ele><time>2026-04-11T10:55:28.82Z</time></trkpt><trkpt lat="43.0255583" lon="12.859063"><ele>846.0</ele><time>2026-04-11T10:55:29.81Z</time></trkpt><trkpt lat="43.0254533" lon="12.859065"><ele>846.0</ele><time>2026-04-11T10:55:30.816Z</time></trkpt><trkpt lat="43.025354" lon="12.8590508"><ele>846.0</ele><time>2026-04-11T10:55:31.806Z</time></trkpt><trkpt lat="43.0252585" lon="12.8590229"><ele>846.0</ele><time>2026-04-11T10:55:32.817Z</time></trkpt><trkpt lat="43.0251756" lon="12.858981"><ele>846.0</ele><time>2026-04-11T10:55:33.814Z</time></trkpt><trkpt lat="43.0250931" lon="12.8589453"><ele>846.0</ele><time>2026-04-11T10:55:34.805Z</time></trkpt><trkpt lat="43.0250094" lon="12.8589398"><ele>846.5</ele><time>2026-04-11T10:55:35.807Z</time></trkpt><trkpt lat="43.0249418" lon="12.8589807"><ele>847.0</ele><time>2026-04-11T10:55:36.814Z</time></trkpt><trkpt lat="43.0248726" lon="12.859028"><ele>847.5</ele><time>2026-04-11T10:55:37.81Z</time></trkpt><trkpt lat="43.0248068" lon="12.8590837"><ele>848.0</ele><time>2026-04-11T10:55:38.824Z</time></trkpt><trkpt lat="43.0247432" lon="12.8591576"><ele>848.5</ele><time>2026-04-11T10:55:39.807Z</time></trkpt><trkpt lat="43.024676" lon="12.8592278"><ele>849.0</ele><time>2026-04-11T10:55:40.803Z</time></trkpt><trkpt lat="43.0246093" lon="12.8592905"><ele>844.8333333333334</ele><time>2026-04-11T10:55:41.818Z</time></trkpt><trkpt lat="43.0245357" lon="12.8593483"><ele>840.6666666666667</ele><time>2026-04-11T10:55:42.818Z</time></trkpt><trkpt lat="43.0244675" lon="12.8594028"><ele>836.5</ele><time>2026-04-11T10:55:43.826Z</time></trkpt><trkpt lat="43.024395" lon="12.8594481"><ele>832.3333333333334</ele><time>2026-04-11T10:55:44.808Z</time></trkpt><trkpt lat="43.0243221" lon="12.8595036"><ele>828.1666666666667</ele><time>2026-04-11T10:55:45.813Z</time></trkpt><trkpt lat="43.0242516" lon="12.8595624"><ele>824.0</ele><time>2026-04-11T10:55:46.814Z</time></trkpt><trkpt lat="43.0241819" lon="12.859608"><ele>825.0000000000001</ele><time>2026-04-11T10:55:47.809Z</time></trkpt><trkpt lat="43.0241211" lon="12.859654"><ele>826.0</ele><time>2026-04-11T10:55:48.814Z</time></trkpt><trkpt lat="43.0240651" lon="12.8596956"><ele>827.0</ele><time>2026-04-11T10:55:49.806Z</time></trkpt><trkpt lat="43.023964" lon="12.8597765"><ele>828.0</ele><time>2026-04-11T10:55:51.816Z</time></trkpt><trkpt lat="43.0238833" lon="12.8598365"><ele>829.0000000000001</ele><time>2026-04-11T10:55:53.816Z</time></trkpt><trkpt lat="43.0238086" lon="12.8598871"><ele>830.0</ele><time>2026-04-11T10:55:55.82Z</time></trkpt><trkpt lat="43.0237243" lon="12.8599563"><ele>830.0</ele><time>2026-04-11T10:55:57.81Z</time></trkpt><trkpt lat="43.0236359" lon="12.8600145"><ele>830.0</ele><time>2026-04-11T10:55:59.82Z</time></trkpt><trkpt lat="43.0235571" lon="12.8600741"><ele>830.0</ele><time>2026-04-11T10:56:01.805Z</time></trkpt><trkpt lat="43.0234668" lon="12.8601427"><ele>830.0</ele><time>2026-04-11T10:56:03.812Z</time></trkpt><trkpt lat="43.023378" lon="12.8602069"><ele>830.0</ele><time>2026-04-11T10:56:05.824Z</time></trkpt><trkpt lat="43.0232624" lon="12.8602696"><ele>825.8</ele><time>2026-04-11T10:56:07.808Z</time></trkpt><trkpt lat="43.0231559" lon="12.8603311"><ele>821.6</ele><time>2026-04-11T10:56:09.817Z</time></trkpt><trkpt lat="43.0230395" lon="12.8603664"><ele>817.4000000000001</ele><time>2026-04-11T10:56:11.809Z</time></trkpt><trkpt lat="43.0229258" lon="12.8603877"><ele>813.2</ele><time>2026-04-11T10:56:13.81Z</time></trkpt><trkpt lat="43.0228622" lon="12.8604036"><ele>809.0</ele><time>2026-04-11T10:56:14.82Z</time></trkpt><trkpt lat="43.0227989" lon="12.8604209"><ele>809.0</ele><time>2026-04-11T10:56:15.805Z</time></trkpt><trkpt lat="43.0227287" lon="12.8604384"><ele>809.0</ele><time>2026-04-11T10:56:16.82Z</time></trkpt><trkpt lat="43.0226598" lon="12.860451"><ele>809.0</ele><time>2026-04-11T10:56:17.805Z</time></trkpt><trkpt lat="43.022587" lon="12.8604643"><ele>809.0</ele><time>2026-04-11T10:56:18.812Z</time></trkpt><trkpt lat="43.0225144" lon="12.8604792"><ele>809.0</ele><time>2026-04-11T10:56:19.813Z</time></trkpt><trkpt lat="43.0224435" lon="12.8604897"><ele>809.0</ele><time>2026-04-11T10:56:20.813Z</time></trkpt><trkpt lat="43.0223686" lon="12.8605014"><ele>809.0</ele><time>2026-04-11T10:56:21.816Z</time></trkpt><trkpt lat="43.0222959" lon="12.8605151"><ele>808.7142857142858</ele><time>2026-04-11T10:56:22.814Z</time></trkpt><trkpt lat="43.0222218" lon="12.8605316"><ele>808.4285714285714</ele><time>2026-04-11T10:56:23.814Z</time></trkpt><trkpt lat="43.0221504" lon="12.8605467"><ele>808.1428571428571</ele><time>2026-04-11T10:56:24.817Z</time></trkpt><trkpt lat="43.0220773" lon="12.860562"><ele>807.8571428571429</ele><time>2026-04-11T10:56:25.802Z</time></trkpt><trkpt lat="43.0220058" lon="12.8605753"><ele>807.5714285714286</ele><time>2026-04-11T10:56:26.811Z</time></trkpt><trkpt lat="43.0219391" lon="12.8605933"><ele>807.2857142857143</ele><time>2026-04-11T10:56:27.802Z</time></trkpt><trkpt lat="43.0218735" lon="12.8606127"><ele>807.0</ele><time>2026-04-11T10:56:28.815Z</time></trkpt><trkpt lat="43.0217514" lon="12.8606499"><ele>807.0</ele><time>2026-04-11T10:56:30.826Z</time></trkpt><trkpt lat="43.0216893" lon="12.8606641"><ele>807.0</ele><time>2026-04-11T10:56:31.807Z</time></trkpt><trkpt lat="43.0215709" lon="12.8606899"><ele>807.0</ele><time>2026-04-11T10:56:33.813Z</time></trkpt><trkpt lat="43.0215076" lon="12.8607114"><ele>807.0</ele><time>2026-04-11T10:56:34.836Z</time></trkpt><trkpt lat="43.0214316" lon="12.8607478"><ele>807.0</ele><time>2026-04-11T10:56:35.813Z</time></trkpt><trkpt lat="43.0213479" lon="12.8607932"><ele>807.0</ele><time>2026-04-11T10:56:36.817Z</time></trkpt><trkpt lat="43.0212551" lon="12.8608474"><ele>806.0</ele><time>2026-04-11T10:56:37.813Z</time></trkpt><trkpt lat="43.0211544" lon="12.860907"><ele>805.0</ele><time>2026-04-11T10:56:38.814Z</time></trkpt><trkpt lat="43.0210612" lon="12.8609689"><ele>804.0</ele><time>2026-04-11T10:56:39.812Z</time></trkpt><trkpt lat="43.0209787" lon="12.8610231"><ele>803.0</ele><time>2026-04-11T10:56:40.822Z</time></trkpt><trkpt lat="43.0209004" lon="12.8610702"><ele>802.0</ele><time>2026-04-11T10:56:41.813Z</time></trkpt><trkpt lat="43.0208403" lon="12.861108"><ele>801.0</ele><time>2026-04-11T10:56:42.815Z</time></trkpt><trkpt lat="43.0207683" lon="12.8611542"><ele>800.0</ele><time>2026-04-11T10:56:44.811Z</time></trkpt><trkpt lat="43.0206865" lon="12.861204"><ele>799.0</ele><time>2026-04-11T10:57:22.827Z</time></trkpt><trkpt lat="43.0206035" lon="12.8612751"><ele>798.0</ele><time>2026-04-11T10:57:24.811Z</time></trkpt><trkpt lat="43.0204744" lon="12.8613476"><ele>797.0</ele><time>2026-04-11T10:57:26.829Z</time></trkpt><trkpt lat="43.0204039" lon="12.8613907"><ele>797.0</ele><time>2026-04-11T10:57:27.819Z</time></trkpt><trkpt lat="43.0203327" lon="12.8614335"><ele>797.0</ele><time>2026-04-11T10:57:28.812Z</time></trkpt><trkpt lat="43.0202518" lon="12.8614841"><ele>797.0</ele><time>2026-04-11T10:57:29.806Z</time></trkpt><trkpt lat="43.0201648" lon="12.8615311"><ele>797.0</ele><time>2026-04-11T10:57:30.811Z</time></trkpt><trkpt lat="43.0200713" lon="12.8615795"><ele>797.0</ele><time>2026-04-11T10:57:31.812Z</time></trkpt><trkpt lat="43.0199769" lon="12.8616212"><ele>796.4000000000001</ele><time>2026-04-11T10:57:32.81Z</time></trkpt><trkpt lat="43.0198798" lon="12.8616645"><ele>795.8000000000001</ele><time>2026-04-11T10:57:33.812Z</time></trkpt><trkpt lat="43.0197811" lon="12.8617053"><ele>795.2</ele><time>2026-04-11T10:57:34.811Z</time></trkpt><trkpt lat="43.0196794" lon="12.8617483"><ele>794.6</ele><time>2026-04-11T10:57:35.812Z</time></trkpt><trkpt lat="43.0195744" lon="12.8617908"><ele>794.0</ele><time>2026-04-11T10:57:36.83Z</time></trkpt><trkpt lat="43.0194758" lon="12.8618352"><ele>793.0</ele><time>2026-04-11T10:57:37.802Z</time></trkpt><trkpt lat="43.0193685" lon="12.8618786"><ele>792.0</ele><time>2026-04-11T10:57:38.814Z</time></trkpt><trkpt lat="43.0192591" lon="12.8619319"><ele>791.0</ele><time>2026-04-11T10:57:39.805Z</time></trkpt><trkpt lat="43.019149" lon="12.8619852"><ele>790.0</ele><time>2026-04-11T10:57:40.814Z</time></trkpt><trkpt lat="43.0190431" lon="12.8620412"><ele>789.4</ele><time>2026-04-11T10:57:41.817Z</time></trkpt><trkpt lat="43.0189434" lon="12.862108"><ele>788.8</ele><time>2026-04-11T10:57:42.822Z</time></trkpt><trkpt lat="43.0188458" lon="12.8621736"><ele>788.2</ele><time>2026-04-11T10:57:43.808Z</time></trkpt><trkpt lat="43.0187486" lon="12.8622393"><ele>787.6</ele><time>2026-04-11T10:57:44.818Z</time></trkpt><trkpt lat="43.0186467" lon="12.8623089"><ele>787.0</ele><time>2026-04-11T10:57:45.81Z</time></trkpt><trkpt lat="43.0185419" lon="12.862378"><ele>787.0</ele><time>2026-04-11T10:57:46.814Z</time></trkpt><trkpt lat="43.0184278" lon="12.8624528"><ele>787.0</ele><time>2026-04-11T10:57:47.806Z</time></trkpt><trkpt lat="43.018312" lon="12.8625291"><ele>787.0</ele><time>2026-04-11T10:57:48.809Z</time></trkpt><trkpt lat="43.0181972" lon="12.8626035"><ele>787.0</ele><time>2026-04-11T10:57:49.806Z</time></trkpt><trkpt lat="43.0180879" lon="12.8626684"><ele>786.75</ele><time>2026-04-11T10:57:50.822Z</time></trkpt><trkpt lat="43.0179806" lon="12.8627239"><ele>786.5</ele><time>2026-04-11T10:57:51.816Z</time></trkpt><trkpt lat="43.0178728" lon="12.8627618"><ele>786.25</ele><time>2026-04-11T10:57:52.814Z</time></trkpt><trkpt lat="43.0177605" lon="12.8627989"><ele>786.0</ele><time>2026-04-11T10:57:53.814Z</time></trkpt><trkpt lat="43.0176425" lon="12.8628389"><ele>786.0</ele><time>2026-04-11T10:57:54.811Z</time></trkpt><trkpt lat="43.0175167" lon="12.8628779"><ele>786.0</ele><time>2026-04-11T10:57:55.812Z</time></trkpt><trkpt lat="43.0173944" lon="12.8629136"><ele>786.0</ele><time>2026-04-11T10:57:56.815Z</time></trkpt><trkpt lat="43.0172766" lon="12.8629502"><ele>786.0</ele><time>2026-04-11T10:57:57.81Z</time></trkpt><trkpt lat="43.0171613" lon="12.862986"><ele>783.25</ele><time>2026-04-11T10:57:58.813Z</time></trkpt><trkpt lat="43.0170443" lon="12.8630243"><ele>780.5</ele><time>2026-04-11T10:57:59.806Z</time></trkpt><trkpt lat="43.0169299" lon="12.8630697"><ele>777.75</ele><time>2026-04-11T10:58:00.82Z</time></trkpt><trkpt lat="43.0168212" lon="12.8631184"><ele>775.0</ele><time>2026-04-11T10:58:01.809Z</time></trkpt><trkpt lat="43.016716" lon="12.8631824"><ele>774.0</ele><time>2026-04-11T10:58:02.809Z</time></trkpt><trkpt lat="43.0166109" lon="12.863262"><ele>773.0</ele><time>2026-04-11T10:58:03.818Z</time></trkpt><trkpt lat="43.0165023" lon="12.863352"><ele>772.0</ele><time>2026-04-11T10:58:04.807Z</time></trkpt><trkpt lat="43.0163913" lon="12.863448"><ele>771.0</ele><time>2026-04-11T10:58:05.801Z</time></trkpt><trkpt lat="43.0162779" lon="12.8635488"><ele>770.75</ele><time>2026-04-11T10:58:06.808Z</time></trkpt><trkpt lat="43.0161647" lon="12.8636454"><ele>770.5</ele><time>2026-04-11T10:58:07.81Z</time></trkpt><trkpt lat="43.0160562" lon="12.8637366"><ele>770.25</ele><time>2026-04-11T10:58:08.812Z</time></trkpt><trkpt lat="43.0159433" lon="12.8638176"><ele>770.0</ele><time>2026-04-11T10:58:09.809Z</time></trkpt><trkpt lat="43.0158262" lon="12.8638702"><ele>769.75</ele><time>2026-04-11T10:58:10.808Z</time></trkpt><trkpt lat="43.0157053" lon="12.8639004"><ele>769.5</ele><time>2026-04-11T10:58:11.816Z</time></trkpt><trkpt lat="43.0155854" lon="12.8639174"><ele>769.25</ele><time>2026-04-11T10:58:12.817Z</time></trkpt><trkpt lat="43.0154671" lon="12.8639249"><ele>769.0</ele><time>2026-04-11T10:58:13.819Z</time></trkpt><trkpt lat="43.015351" lon="12.8639427"><ele>769.0</ele><time>2026-04-11T10:58:14.811Z</time></trkpt><trkpt lat="43.0152354" lon="12.8639614"><ele>769.0</ele><time>2026-04-11T10:58:15.821Z</time></trkpt><trkpt lat="43.0151217" lon="12.8639795"><ele>769.0</ele><time>2026-04-11T10:58:16.819Z</time></trkpt><trkpt lat="43.0150129" lon="12.8640025"><ele>769.0</ele><time>2026-04-11T10:58:17.816Z</time></trkpt><trkpt lat="43.014907" lon="12.8640425"><ele>769.0</ele><time>2026-04-11T10:58:18.815Z</time></trkpt><trkpt lat="43.0148082" lon="12.864111"><ele>769.0</ele><time>2026-04-11T10:58:19.818Z</time></trkpt><trkpt lat="43.0147107" lon="12.8642155"><ele>769.0</ele><time>2026-04-11T10:58:20.818Z</time></trkpt><trkpt lat="43.0146306" lon="12.8643535"><ele>769.0</ele><time>2026-04-11T10:58:21.805Z</time></trkpt><trkpt lat="43.0145545" lon="12.8645003"><ele>769.0</ele><time>2026-04-11T10:58:22.826Z</time></trkpt><trkpt lat="43.0144678" lon="12.864646"><ele>769.0</ele><time>2026-04-11T10:58:23.818Z</time></trkpt><trkpt lat="43.014378" lon="12.8647927"><ele>769.0</ele><time>2026-04-11T10:58:24.812Z</time></trkpt><trkpt lat="43.0142909" lon="12.8649346"><ele>769.0</ele><time>2026-04-11T10:58:25.815Z</time></trkpt><trkpt lat="43.0142006" lon="12.8650692"><ele>769.5</ele><time>2026-04-11T10:58:26.81Z</time></trkpt><trkpt lat="43.0140996" lon="12.8651959"><ele>770.0</ele><time>2026-04-11T10:58:27.816Z</time></trkpt><trkpt lat="43.0139912" lon="12.8653219"><ele>770.5</ele><time>2026-04-11T10:58:28.816Z</time></trkpt><trkpt lat="43.0138935" lon="12.8654335"><ele>771.0</ele><time>2026-04-11T10:58:29.826Z</time></trkpt><trkpt lat="43.0138118" lon="12.8655264"><ele>771.0</ele><time>2026-04-11T10:58:30.819Z</time></trkpt><trkpt lat="43.0137543" lon="12.8655941"><ele>771.0</ele><time>2026-04-11T10:58:31.814Z</time></trkpt><trkpt lat="43.0136762" lon="12.8656726"><ele>771.0</ele><time>2026-04-11T10:58:33.811Z</time></trkpt><trkpt lat="43.0136123" lon="12.8657361"><ele>771.0</ele><time>2026-04-11T10:58:42.818Z</time></trkpt><trkpt lat="43.0135564" lon="12.8658298"><ele>771.0</ele><time>2026-04-11T10:58:45.817Z</time></trkpt><trkpt lat="43.0134834" lon="12.8659007"><ele>771.0</ele><time>2026-04-11T10:58:47.816Z</time></trkpt><trkpt lat="43.0133872" lon="12.8660168"><ele>770.5999999999999</ele><time>2026-04-11T10:58:49.804Z</time></trkpt><trkpt lat="43.0133319" lon="12.8660956"><ele>770.2</ele><time>2026-04-11T10:58:50.824Z</time></trkpt><trkpt lat="43.0132694" lon="12.866175"><ele>769.8</ele><time>2026-04-11T10:58:51.819Z</time></trkpt><trkpt lat="43.0132055" lon="12.8662535"><ele>769.4000000000001</ele><time>2026-04-11T10:58:52.82Z</time></trkpt><trkpt lat="43.0131279" lon="12.8663311"><ele>769.0</ele><time>2026-04-11T10:58:53.814Z</time></trkpt><trkpt lat="43.0130318" lon="12.8663907"><ele>770.75</ele><time>2026-04-11T10:58:54.804Z</time></trkpt><trkpt lat="43.0129287" lon="12.8664138"><ele>772.5</ele><time>2026-04-11T10:58:55.802Z</time></trkpt><trkpt lat="43.0128146" lon="12.8663979"><ele>774.25</ele><time>2026-04-11T10:58:56.812Z</time></trkpt><trkpt lat="43.0126977" lon="12.8663524"><ele>776.0</ele><time>2026-04-11T10:58:57.819Z</time></trkpt><trkpt lat="43.0125714" lon="12.8662966"><ele>778.0</ele><time>2026-04-11T10:58:58.814Z</time></trkpt><trkpt lat="43.0124353" lon="12.8662452"><ele>780.0</ele><time>2026-04-11T10:58:59.807Z</time></trkpt><trkpt lat="43.0122926" lon="12.8662091"><ele>782.0</ele><time>2026-04-11T10:59:00.82Z</time></trkpt><trkpt lat="43.0121529" lon="12.8662067"><ele>784.0</ele><time>2026-04-11T10:59:01.805Z</time></trkpt><trkpt lat="43.0120194" lon="12.8662406"><ele>784.0</ele><time>2026-04-11T10:59:02.81Z</time></trkpt><trkpt lat="43.0118854" lon="12.8662935"><ele>784.0</ele><time>2026-04-11T10:59:03.809Z</time></trkpt><trkpt lat="43.0117586" lon="12.8663518"><ele>784.0</ele><time>2026-04-11T10:59:04.811Z</time></trkpt><trkpt lat="43.0116473" lon="12.8664216"><ele>784.0</ele><time>2026-04-11T10:59:05.803Z</time></trkpt><trkpt lat="43.0115506" lon="12.8665178"><ele>783.75</ele><time>2026-04-11T10:59:06.825Z</time></trkpt><trkpt lat="43.0114692" lon="12.8666496"><ele>783.5</ele><time>2026-04-11T10:59:07.805Z</time></trkpt><trkpt lat="43.011406" lon="12.8668018"><ele>783.25</ele><time>2026-04-11T10:59:08.81Z</time></trkpt><trkpt lat="43.0113479" lon="12.8669648"><ele>783.0</ele><time>2026-04-11T10:59:09.815Z</time></trkpt><trkpt lat="43.0112966" lon="12.8671249"><ele>783.0</ele><time>2026-04-11T10:59:10.814Z</time></trkpt><trkpt lat="43.0112494" lon="12.8672757"><ele>783.0</ele><time>2026-04-11T10:59:11.81Z</time></trkpt><trkpt lat="43.0111981" lon="12.8674056"><ele>783.0</ele><time>2026-04-11T10:59:12.804Z</time></trkpt><trkpt lat="43.011124" lon="12.867513"><ele>783.0</ele><time>2026-04-11T10:59:13.799Z</time></trkpt><trkpt lat="43.0110356" lon="12.8675862"><ele>783.0</ele><time>2026-04-11T10:59:14.8Z</time></trkpt><trkpt lat="43.0109294" lon="12.8676324"><ele>782.25</ele><time>2026-04-11T10:59:15.805Z</time></trkpt><trkpt lat="43.0108085" lon="12.8676423"><ele>781.5</ele><time>2026-04-11T10:59:16.812Z</time></trkpt><trkpt lat="43.0106858" lon="12.8676419"><ele>780.75</ele><time>2026-04-11T10:59:17.806Z</time></trkpt><trkpt lat="43.0105397" lon="12.8676379"><ele>780.0</ele><time>2026-04-11T10:59:18.807Z</time></trkpt><trkpt lat="43.0103912" lon="12.8676289"><ele>780.0</ele><time>2026-04-11T10:59:19.8Z</time></trkpt><trkpt lat="43.0102459" lon="12.8676246"><ele>780.0</ele><time>2026-04-11T10:59:20.817Z</time></trkpt><trkpt lat="43.0101032" lon="12.867624"><ele>780.0</ele><time>2026-04-11T10:59:21.802Z</time></trkpt><trkpt lat="43.0099729" lon="12.8676331"><ele>780.0</ele><time>2026-04-11T10:59:22.812Z</time></trkpt><trkpt lat="43.0098487" lon="12.8676315"><ele>782.0</ele><time>2026-04-11T10:59:23.801Z</time></trkpt><trkpt lat="43.0097409" lon="12.8676102"><ele>784.0</ele><time>2026-04-11T10:59:24.812Z</time></trkpt><trkpt lat="43.0096418" lon="12.867569"><ele>786.0</ele><time>2026-04-11T10:59:25.81Z</time></trkpt><trkpt lat="43.0095384" lon="12.8675139"><ele>788.0</ele><time>2026-04-11T10:59:26.809Z</time></trkpt><trkpt lat="43.0094389" lon="12.8674489"><ele>790.0</ele><time>2026-04-11T10:59:27.803Z</time></trkpt><trkpt lat="43.0093292" lon="12.8673916"><ele>790.0</ele><time>2026-04-11T10:59:28.814Z</time></trkpt><trkpt lat="43.0092086" lon="12.8673316"><ele>790.0</ele><time>2026-04-11T10:59:29.816Z</time></trkpt><trkpt lat="43.0090805" lon="12.8672752"><ele>790.0</ele><time>2026-04-11T10:59:30.817Z</time></trkpt><trkpt lat="43.0089564" lon="12.8672162"><ele>790.0</ele><time>2026-04-11T10:59:31.808Z</time></trkpt><trkpt lat="43.0088322" lon="12.8671538"><ele>788.75</ele><time>2026-04-11T10:59:32.81Z</time></trkpt><trkpt lat="43.0087066" lon="12.8670871"><ele>787.5</ele><time>2026-04-11T10:59:33.8Z</time></trkpt><trkpt lat="43.0085879" lon="12.8670085"><ele>786.25</ele><time>2026-04-11T10:59:34.812Z</time></trkpt><trkpt lat="43.0084739" lon="12.8669171"><ele>785.0</ele><time>2026-04-11T10:59:35.806Z</time></trkpt><trkpt lat="43.0083601" lon="12.8668244"><ele>787.5</ele><time>2026-04-11T10:59:36.803Z</time></trkpt><trkpt lat="43.0082453" lon="12.8667319"><ele>790.0</ele><time>2026-04-11T10:59:37.811Z</time></trkpt><trkpt lat="43.0081224" lon="12.8666571"><ele>792.5</ele><time>2026-04-11T10:59:38.808Z</time></trkpt><trkpt lat="43.0079985" lon="12.8666114"><ele>795.0</ele><time>2026-04-11T10:59:39.808Z</time></trkpt><trkpt lat="43.0078783" lon="12.8665671"><ele>795.0</ele><time>2026-04-11T10:59:40.81Z</time></trkpt><trkpt lat="43.0077626" lon="12.866539"><ele>795.0</ele><time>2026-04-11T10:59:41.806Z</time></trkpt><trkpt lat="43.007649" lon="12.8665281"><ele>795.0</ele><time>2026-04-11T10:59:42.822Z</time></trkpt><trkpt lat="43.0075483" lon="12.8665241"><ele>795.0</ele><time>2026-04-11T10:59:43.809Z</time></trkpt><trkpt lat="43.0074492" lon="12.8665111"><ele>795.0</ele><time>2026-04-11T10:59:44.808Z</time></trkpt><trkpt lat="43.0073553" lon="12.8664853"><ele>794.0</ele><time>2026-04-11T10:59:45.8Z</time></trkpt><trkpt lat="43.0072595" lon="12.8664383"><ele>793.0</ele><time>2026-04-11T10:59:46.816Z</time></trkpt><trkpt lat="43.0071639" lon="12.8663874"><ele>792.0</ele><time>2026-04-11T10:59:47.801Z</time></trkpt><trkpt lat="43.0070646" lon="12.8663282"><ele>791.0</ele><time>2026-04-11T10:59:48.819Z</time></trkpt><trkpt lat="43.006959" lon="12.8662707"><ele>790.0</ele><time>2026-04-11T10:59:49.81Z</time></trkpt><trkpt lat="43.0068482" lon="12.866213"><ele>790.0</ele><time>2026-04-11T10:59:50.812Z</time></trkpt><trkpt lat="43.0067286" lon="12.8661492"><ele>790.0</ele><time>2026-04-11T10:59:51.81Z</time></trkpt><trkpt lat="43.0066127" lon="12.8660753"><ele>790.0</ele><time>2026-04-11T10:59:52.812Z</time></trkpt><trkpt lat="43.0065038" lon="12.8659938"><ele>790.0</ele><time>2026-04-11T10:59:53.811Z</time></trkpt><trkpt lat="43.0063961" lon="12.8658962"><ele>792.0</ele><time>2026-04-11T10:59:54.803Z</time></trkpt><trkpt lat="43.0062801" lon="12.8657927"><ele>794.0</ele><time>2026-04-11T10:59:55.807Z</time></trkpt><trkpt lat="43.0061584" lon="12.8656991"><ele>796.0</ele><time>2026-04-11T10:59:56.81Z</time></trkpt><trkpt lat="43.0060299" lon="12.8656152"><ele>798.0</ele><time>2026-04-11T10:59:57.804Z</time></trkpt><trkpt lat="43.0059065" lon="12.8655429"><ele>797.5</ele><time>2026-04-11T10:59:58.814Z</time></trkpt><trkpt lat="43.0057818" lon="12.865466"><ele>797.0</ele><time>2026-04-11T10:59:59.804Z</time></trkpt><trkpt lat="43.0056644" lon="12.8653849"><ele>796.5</ele><time>2026-04-11T11:00:00.816Z</time></trkpt><trkpt lat="43.0055507" lon="12.8653073"><ele>796.0</ele><time>2026-04-11T11:00:01.8Z</time></trkpt><trkpt lat="43.0054448" lon="12.8652293"><ele>796.0</ele><time>2026-04-11T11:00:02.817Z</time></trkpt><trkpt lat="43.0053393" lon="12.8651466"><ele>796.0</ele><time>2026-04-11T11:00:03.806Z</time></trkpt><trkpt lat="43.0052347" lon="12.8650588"><ele>796.0</ele><time>2026-04-11T11:00:04.805Z</time></trkpt><trkpt lat="43.0051231" lon="12.8649679"><ele>796.0</ele><time>2026-04-11T11:00:05.805Z</time></trkpt><trkpt lat="43.0050083" lon="12.864882"><ele>796.5</ele><time>2026-04-11T11:00:06.814Z</time></trkpt><trkpt lat="43.0048864" lon="12.8647949"><ele>797.0</ele><time>2026-04-11T11:00:07.808Z</time></trkpt><trkpt lat="43.0047718" lon="12.864713"><ele>797.5</ele><time>2026-04-11T11:00:08.803Z</time></trkpt><trkpt lat="43.0046662" lon="12.8646368"><ele>798.0</ele><time>2026-04-11T11:00:09.814Z</time></trkpt><trkpt lat="43.0045707" lon="12.8645676"><ele>798.0</ele><time>2026-04-11T11:00:10.817Z</time></trkpt><trkpt lat="43.0044797" lon="12.8645054"><ele>798.0</ele><time>2026-04-11T11:00:11.814Z</time></trkpt><trkpt lat="43.0043989" lon="12.8644478"><ele>798.0</ele><time>2026-04-11T11:00:12.814Z</time></trkpt><trkpt lat="43.0043241" lon="12.8643931"><ele>798.0</ele><time>2026-04-11T11:00:13.806Z</time></trkpt><trkpt lat="43.0042518" lon="12.8643432"><ele>798.0</ele><time>2026-04-11T11:00:14.812Z</time></trkpt><trkpt lat="43.0041889" lon="12.8642983"><ele>798.0</ele><time>2026-04-11T11:00:15.821Z</time></trkpt><trkpt lat="43.0041236" lon="12.8642578"><ele>798.2</ele><time>2026-04-11T11:00:16.815Z</time></trkpt><trkpt lat="43.0040642" lon="12.8641976"><ele>798.4</ele><time>2026-04-11T11:00:17.816Z</time></trkpt><trkpt lat="43.0040035" lon="12.8641201"><ele>798.6</ele><time>2026-04-11T11:00:18.812Z</time></trkpt><trkpt lat="43.0039414" lon="12.8640139"><ele>798.8000000000001</ele><time>2026-04-11T11:00:19.801Z</time></trkpt><trkpt lat="43.0038811" lon="12.8638944"><ele>799.0</ele><time>2026-04-11T11:00:20.804Z</time></trkpt><trkpt lat="43.0038089" lon="12.8637604"><ele>799.0</ele><time>2026-04-11T11:00:21.807Z</time></trkpt><trkpt lat="43.0037339" lon="12.8636199"><ele>799.0</ele><time>2026-04-11T11:00:22.807Z</time></trkpt><trkpt lat="43.0036597" lon="12.8634638"><ele>799.0</ele><time>2026-04-11T11:00:23.813Z</time></trkpt><trkpt lat="43.0035931" lon="12.8632934"><ele>799.0</ele><time>2026-04-11T11:00:24.807Z</time></trkpt><trkpt lat="43.0035375" lon="12.8631051"><ele>801.3333333333333</ele><time>2026-04-11T11:00:25.809Z</time></trkpt><trkpt lat="43.0034984" lon="12.8628903"><ele>803.6666666666667</ele><time>2026-04-11T11:00:26.813Z</time></trkpt><trkpt lat="43.0034861" lon="12.8626731"><ele>806.0</ele><time>2026-04-11T11:00:27.799Z</time></trkpt><trkpt lat="43.0034991" lon="12.8624478"><ele>807.6666666666667</ele><time>2026-04-11T11:00:28.812Z</time></trkpt><trkpt lat="43.0035305" lon="12.8622157"><ele>809.3333333333333</ele><time>2026-04-11T11:00:29.807Z</time></trkpt><trkpt lat="43.0035817" lon="12.8619834"><ele>811.0</ele><time>2026-04-11T11:00:30.829Z</time></trkpt><trkpt lat="43.0036289" lon="12.8617412"><ele>813.0</ele><time>2026-04-11T11:00:31.808Z</time></trkpt><trkpt lat="43.0036644" lon="12.8614965"><ele>815.0</ele><time>2026-04-11T11:00:32.816Z</time></trkpt><trkpt lat="43.0036785" lon="12.8612461"><ele>817.0</ele><time>2026-04-11T11:00:33.807Z</time></trkpt><trkpt lat="43.0036585" lon="12.8610029"><ele>819.3333333333333</ele><time>2026-04-11T11:00:34.819Z</time></trkpt><trkpt lat="43.0036156" lon="12.8607634"><ele>821.6666666666667</ele><time>2026-04-11T11:00:35.82Z</time></trkpt><trkpt lat="43.0035527" lon="12.8605346"><ele>824.0</ele><time>2026-04-11T11:00:36.809Z</time></trkpt><trkpt lat="43.0034754" lon="12.8603125"><ele>825.0</ele><time>2026-04-11T11:00:37.808Z</time></trkpt><trkpt lat="43.0033852" lon="12.8600965"><ele>826.0</ele><time>2026-04-11T11:00:38.818Z</time></trkpt><trkpt lat="43.0032912" lon="12.8598755"><ele>827.0</ele><time>2026-04-11T11:00:39.813Z</time></trkpt><trkpt lat="43.0032081" lon="12.859665"><ele>827.6666666666667</ele><time>2026-04-11T11:00:40.814Z</time></trkpt><trkpt lat="43.0031331" lon="12.8594688"><ele>828.3333333333333</ele><time>2026-04-11T11:00:41.8Z</time></trkpt><trkpt lat="43.0030645" lon="12.8592889"><ele>829.0</ele><time>2026-04-11T11:00:42.82Z</time></trkpt><trkpt lat="43.0029946" lon="12.8591211"><ele>829.0</ele><time>2026-04-11T11:00:43.812Z</time></trkpt><trkpt lat="43.0029293" lon="12.858961"><ele>829.0</ele><time>2026-04-11T11:00:44.81Z</time></trkpt><trkpt lat="43.0028612" lon="12.8587984"><ele>829.0</ele><time>2026-04-11T11:00:45.809Z</time></trkpt><trkpt lat="43.0027871" lon="12.8586313"><ele>829.0</ele><time>2026-04-11T11:00:46.811Z</time></trkpt><trkpt lat="43.0027081" lon="12.8584569"><ele>830.0</ele><time>2026-04-11T11:00:47.808Z</time></trkpt><trkpt lat="43.0026262" lon="12.8582775"><ele>831.0</ele><time>2026-04-11T11:00:48.817Z</time></trkpt><trkpt lat="43.0025365" lon="12.8580986"><ele>832.0</ele><time>2026-04-11T11:00:49.807Z</time></trkpt><trkpt lat="43.0024342" lon="12.857922"><ele>832.0</ele><time>2026-04-11T11:00:50.81Z</time></trkpt><trkpt lat="43.0023264" lon="12.8577485"><ele>832.0</ele><time>2026-04-11T11:00:51.804Z</time></trkpt><trkpt lat="43.0022151" lon="12.8575678"><ele>832.0</ele><time>2026-04-11T11:00:52.811Z</time></trkpt><trkpt lat="43.0021029" lon="12.8573887"><ele>829.3333333333333</ele><time>2026-04-11T11:00:53.81Z</time></trkpt><trkpt lat="43.0019864" lon="12.8572041"><ele>826.6666666666667</ele><time>2026-04-11T11:00:54.808Z</time></trkpt><trkpt lat="43.0018676" lon="12.8570102"><ele>824.0</ele><time>2026-04-11T11:00:55.808Z</time></trkpt><trkpt lat="43.0017423" lon="12.8568117"><ele>823.0</ele><time>2026-04-11T11:00:56.823Z</time></trkpt><trkpt lat="43.0016172" lon="12.8566082"><ele>822.0</ele><time>2026-04-11T11:00:57.802Z</time></trkpt><trkpt lat="43.0014854" lon="12.8564021"><ele>821.0</ele><time>2026-04-11T11:00:58.813Z</time></trkpt><trkpt lat="43.0013498" lon="12.8561986"><ele>821.0</ele><time>2026-04-11T11:00:59.806Z</time></trkpt><trkpt lat="43.0012143" lon="12.8559861"><ele>821.0</ele><time>2026-04-11T11:01:00.808Z</time></trkpt><trkpt lat="43.0010768" lon="12.8557748"><ele>821.0</ele><time>2026-04-11T11:01:01.804Z</time></trkpt><trkpt lat="43.0009394" lon="12.855565"><ele>821.6666666666667</ele><time>2026-04-11T11:01:02.812Z</time></trkpt><trkpt lat="43.0008021" lon="12.8553487"><ele>822.3333333333333</ele><time>2026-04-11T11:01:03.815Z</time></trkpt><trkpt lat="43.0006617" lon="12.8551273"><ele>823.0</ele><time>2026-04-11T11:01:04.82Z</time></trkpt><trkpt lat="43.0005151" lon="12.8549033"><ele>821.3333333333333</ele><time>2026-04-11T11:01:05.808Z</time></trkpt><trkpt lat="43.0003631" lon="12.8546984"><ele>819.6666666666667</ele><time>2026-04-11T11:01:06.812Z</time></trkpt><trkpt lat="43.0002018" lon="12.8545116"><ele>818.0</ele><time>2026-04-11T11:01:07.822Z</time></trkpt><trkpt lat="43.0000344" lon="12.8543322"><ele>814.3333333333334</ele><time>2026-04-11T11:01:08.823Z</time></trkpt><trkpt lat="42.9998771" lon="12.8541496"><ele>810.6666666666667</ele><time>2026-04-11T11:01:09.81Z</time></trkpt><trkpt lat="42.999735" lon="12.8539566"><ele>807.0</ele><time>2026-04-11T11:01:10.818Z</time></trkpt><trkpt lat="42.9996068" lon="12.8537523"><ele>807.0</ele><time>2026-04-11T11:01:11.81Z</time></trkpt><trkpt lat="42.9994904" lon="12.8535314"><ele>807.0</ele><time>2026-04-11T11:01:12.826Z</time></trkpt><trkpt lat="42.9993887" lon="12.8532874"><ele>807.0</ele><time>2026-04-11T11:01:13.814Z</time></trkpt><trkpt lat="42.9992974" lon="12.8530301"><ele>805.3333333333333</ele><time>2026-04-11T11:01:14.834Z</time></trkpt><trkpt lat="42.9992369" lon="12.8527605"><ele>803.6666666666666</ele><time>2026-04-11T11:01:15.811Z</time></trkpt><trkpt lat="42.9991811" lon="12.8524878"><ele>802.0</ele><time>2026-04-11T11:01:16.806Z</time></trkpt><trkpt lat="42.9991244" lon="12.8522176"><ele>802.0</ele><time>2026-04-11T11:01:17.813Z</time></trkpt><trkpt lat="42.9990696" lon="12.8519519"><ele>802.0</ele><time>2026-04-11T11:01:18.815Z</time></trkpt><trkpt lat="42.9990129" lon="12.851696"><ele>802.0</ele><time>2026-04-11T11:01:19.814Z</time></trkpt><trkpt lat="42.9989573" lon="12.8514532"><ele>802.0</ele><time>2026-04-11T11:01:20.813Z</time></trkpt><trkpt lat="42.9988992" lon="12.8512106"><ele>802.0</ele><time>2026-04-11T11:01:21.806Z</time></trkpt><trkpt lat="42.9988436" lon="12.8509684"><ele>802.0</ele><time>2026-04-11T11:01:22.816Z</time></trkpt><trkpt lat="42.9987924" lon="12.8507288"><ele>802.3333333333333</ele><time>2026-04-11T11:01:23.811Z</time></trkpt><trkpt lat="42.9987434" lon="12.8504778"><ele>802.6666666666667</ele><time>2026-04-11T11:01:24.811Z</time></trkpt><trkpt lat="42.9986942" lon="12.8502368"><ele>803.0</ele><time>2026-04-11T11:01:25.807Z</time></trkpt><trkpt lat="42.9986406" lon="12.8499963"><ele>802.3333333333334</ele><time>2026-04-11T11:01:26.814Z</time></trkpt><trkpt lat="42.9985883" lon="12.8497528"><ele>801.6666666666667</ele><time>2026-04-11T11:01:27.809Z</time></trkpt><trkpt lat="42.9985384" lon="12.8495084"><ele>801.0</ele><time>2026-04-11T11:01:28.81Z</time></trkpt><trkpt lat="42.9984872" lon="12.8492637"><ele>801.0</ele><time>2026-04-11T11:01:29.811Z</time></trkpt><trkpt lat="42.9984367" lon="12.8490259"><ele>801.0</ele><time>2026-04-11T11:01:30.813Z</time></trkpt><trkpt lat="42.9983875" lon="12.8487929"><ele>801.0</ele><time>2026-04-11T11:01:31.807Z</time></trkpt><trkpt lat="42.9983407" lon="12.8485729"><ele>801.5</ele><time>2026-04-11T11:01:32.821Z</time></trkpt><trkpt lat="42.9982965" lon="12.8483638"><ele>802.0</ele><time>2026-04-11T11:01:33.812Z</time></trkpt><trkpt lat="42.9982566" lon="12.8481676"><ele>802.5</ele><time>2026-04-11T11:01:34.815Z</time></trkpt><trkpt lat="42.9982165" lon="12.847986"><ele>803.0</ele><time>2026-04-11T11:01:35.81Z</time></trkpt><trkpt lat="42.9981789" lon="12.8478051"><ele>803.75</ele><time>2026-04-11T11:01:36.823Z</time></trkpt><trkpt lat="42.9981362" lon="12.8476196"><ele>804.5</ele><time>2026-04-11T11:01:37.809Z</time></trkpt><trkpt lat="42.9980983" lon="12.8474317"><ele>805.25</ele><time>2026-04-11T11:01:38.812Z</time></trkpt><trkpt lat="42.9980541" lon="12.8472447"><ele>806.0</ele><time>2026-04-11T11:01:39.811Z</time></trkpt><trkpt lat="42.9979914" lon="12.8470603"><ele>806.0</ele><time>2026-04-11T11:01:40.813Z</time></trkpt><trkpt lat="42.9979072" lon="12.8468988"><ele>806.0</ele><time>2026-04-11T11:01:41.811Z</time></trkpt><trkpt lat="42.9977947" lon="12.846763"><ele>806.0</ele><time>2026-04-11T11:01:42.825Z</time></trkpt><trkpt lat="42.9976638" lon="12.8466713"><ele>806.0</ele><time>2026-04-11T11:01:43.825Z</time></trkpt><trkpt lat="42.9975221" lon="12.8466303"><ele>806.3333333333334</ele><time>2026-04-11T11:01:44.815Z</time></trkpt><trkpt lat="42.9973573" lon="12.8466257"><ele>806.6666666666667</ele><time>2026-04-11T11:01:45.817Z</time></trkpt><trkpt lat="42.9971838" lon="12.8466369"><ele>807.0</ele><time>2026-04-11T11:01:46.839Z</time></trkpt><trkpt lat="42.9969986" lon="12.84665"><ele>807.0</ele><time>2026-04-11T11:01:47.812Z</time></trkpt><trkpt lat="42.9968095" lon="12.8466633"><ele>807.0</ele><time>2026-04-11T11:01:48.822Z</time></trkpt><trkpt lat="42.9966154" lon="12.8466692"><ele>807.0</ele><time>2026-04-11T11:01:49.807Z</time></trkpt><trkpt lat="42.9964337" lon="12.8466805"><ele>806.3333333333333</ele><time>2026-04-11T11:01:50.818Z</time></trkpt><trkpt lat="42.9962614" lon="12.8466857"><ele>805.6666666666666</ele><time>2026-04-11T11:01:51.82Z</time></trkpt><trkpt lat="42.9960995" lon="12.8466633"><ele>805.0</ele><time>2026-04-11T11:01:52.827Z</time></trkpt><trkpt lat="42.9959476" lon="12.8465871"><ele>800.6666666666666</ele><time>2026-04-11T11:01:53.806Z</time></trkpt><trkpt lat="42.9958175" lon="12.8464573"><ele>796.3333333333333</ele><time>2026-04-11T11:01:54.813Z</time></trkpt><trkpt lat="42.9956907" lon="12.8463053"><ele>792.0</ele><time>2026-04-11T11:01:55.816Z</time></trkpt><trkpt lat="42.9955703" lon="12.8461188"><ele>797.3333333333333</ele><time>2026-04-11T11:01:56.812Z</time></trkpt><trkpt lat="42.9954586" lon="12.8459331"><ele>802.6666666666666</ele><time>2026-04-11T11:01:57.813Z</time></trkpt><trkpt lat="42.9953546" lon="12.8457455"><ele>808.0</ele><time>2026-04-11T11:01:58.807Z</time></trkpt><trkpt lat="42.9952577" lon="12.8455463"><ele>808.0</ele><time>2026-04-11T11:01:59.803Z</time></trkpt><trkpt lat="42.99518" lon="12.8453218"><ele>808.0</ele><time>2026-04-11T11:02:00.806Z</time></trkpt><trkpt lat="42.9951102" lon="12.8450799"><ele>808.0</ele><time>2026-04-11T11:02:01.804Z</time></trkpt><trkpt lat="42.9950219" lon="12.8448613"><ele>802.3333333333333</ele><time>2026-04-11T11:02:02.806Z</time></trkpt><trkpt lat="42.9949087" lon="12.8446667"><ele>796.6666666666667</ele><time>2026-04-11T11:02:03.813Z</time></trkpt><trkpt lat="42.9947938" lon="12.8445028"><ele>791.0</ele><time>2026-04-11T11:02:04.813Z</time></trkpt><trkpt lat="42.9946961" lon="12.8443435"><ele>794.0</ele><time>2026-04-11T11:02:05.802Z</time></trkpt><trkpt lat="42.9946303" lon="12.8441742"><ele>797.0</ele><time>2026-04-11T11:02:06.809Z</time></trkpt><trkpt lat="42.9945963" lon="12.8439813"><ele>800.0</ele><time>2026-04-11T11:02:07.801Z</time></trkpt><trkpt lat="42.9946062" lon="12.8437846"><ele>803.0</ele><time>2026-04-11T11:02:08.809Z</time></trkpt><trkpt lat="42.994645" lon="12.8436146"><ele>802.75</ele><time>2026-04-11T11:02:09.807Z</time></trkpt><trkpt lat="42.9947032" lon="12.8434492"><ele>802.5</ele><time>2026-04-11T11:02:10.811Z</time></trkpt><trkpt lat="42.9947575" lon="12.8432933"><ele>802.25</ele><time>2026-04-11T11:02:11.802Z</time></trkpt><trkpt lat="42.9947923" lon="12.8431206"><ele>802.0</ele><time>2026-04-11T11:02:12.817Z</time></trkpt><trkpt lat="42.9947991" lon="12.8429313"><ele>802.0</ele><time>2026-04-11T11:02:13.814Z</time></trkpt><trkpt lat="42.9947946" lon="12.8427419"><ele>802.0</ele><time>2026-04-11T11:02:14.845Z</time></trkpt><trkpt lat="42.9947856" lon="12.8425568"><ele>802.0</ele><time>2026-04-11T11:02:15.817Z</time></trkpt><trkpt lat="42.9947748" lon="12.8423694"><ele>802.0</ele><time>2026-04-11T11:02:16.808Z</time></trkpt><trkpt lat="42.9947681" lon="12.8421752"><ele>802.25</ele><time>2026-04-11T11:02:17.807Z</time></trkpt><trkpt lat="42.9947576" lon="12.8419755"><ele>802.5</ele><time>2026-04-11T11:02:18.812Z</time></trkpt><trkpt lat="42.9947396" lon="12.8417863"><ele>802.75</ele><time>2026-04-11T11:02:19.803Z</time></trkpt><trkpt lat="42.9947184" lon="12.8416107"><ele>803.0</ele><time>2026-04-11T11:02:20.821Z</time></trkpt><trkpt lat="42.9946971" lon="12.8414478"><ele>803.0</ele><time>2026-04-11T11:02:21.806Z</time></trkpt><trkpt lat="42.9946583" lon="12.8412998"><ele>803.0</ele><time>2026-04-11T11:02:22.809Z</time></trkpt><trkpt lat="42.9945787" lon="12.8411892"><ele>803.0</ele><time>2026-04-11T11:02:23.806Z</time></trkpt><trkpt lat="42.9944775" lon="12.8411357"><ele>803.0</ele><time>2026-04-11T11:02:24.807Z</time></trkpt><trkpt lat="42.9943658" lon="12.8411391"><ele>803.0</ele><time>2026-04-11T11:02:25.793Z</time></trkpt><trkpt lat="42.9942639" lon="12.8411949"><ele>798.5</ele><time>2026-04-11T11:02:26.807Z</time></trkpt><trkpt lat="42.9941666" lon="12.841317"><ele>794.0</ele><time>2026-04-11T11:02:27.804Z</time></trkpt><trkpt lat="42.9940715" lon="12.841463"><ele>789.5</ele><time>2026-04-11T11:02:28.805Z</time></trkpt><trkpt lat="42.9939781" lon="12.8416331"><ele>785.0</ele><time>2026-04-11T11:02:29.802Z</time></trkpt><trkpt lat="42.9938743" lon="12.841804"><ele>779.0</ele><time>2026-04-11T11:02:30.819Z</time></trkpt><trkpt lat="42.9937607" lon="12.8419811"><ele>773.0</ele><time>2026-04-11T11:02:31.807Z</time></trkpt><trkpt lat="42.9936346" lon="12.8421343"><ele>767.0</ele><time>2026-04-11T11:02:32.816Z</time></trkpt><trkpt lat="42.993509" lon="12.8422628"><ele>767.0</ele><time>2026-04-11T11:02:33.813Z</time></trkpt><trkpt lat="42.9933832" lon="12.8423729"><ele>767.0</ele><time>2026-04-11T11:02:34.816Z</time></trkpt><trkpt lat="42.9932627" lon="12.8424618"><ele>767.0</ele><time>2026-04-11T11:02:35.808Z</time></trkpt><trkpt lat="42.993136" lon="12.8425123"><ele>767.0</ele><time>2026-04-11T11:02:36.813Z</time></trkpt><trkpt lat="42.9930063" lon="12.8425122"><ele>768.0</ele><time>2026-04-11T11:02:37.815Z</time></trkpt><trkpt lat="42.9928798" lon="12.8424558"><ele>769.0</ele><time>2026-04-11T11:02:38.817Z</time></trkpt><trkpt lat="42.9927668" lon="12.8423534"><ele>770.0</ele><time>2026-04-11T11:02:39.812Z</time></trkpt><trkpt lat="42.9926604" lon="12.842225"><ele>771.0</ele><time>2026-04-11T11:02:40.808Z</time></trkpt><trkpt lat="42.9925426" lon="12.8420765"><ele>768.0</ele><time>2026-04-11T11:02:41.805Z</time></trkpt><trkpt lat="42.9924099" lon="12.8419327"><ele>765.0</ele><time>2026-04-11T11:02:42.816Z</time></trkpt><trkpt lat="42.9922699" lon="12.8418203"><ele>762.0</ele><time>2026-04-11T11:02:43.811Z</time></trkpt><trkpt lat="42.9921278" lon="12.8417274"><ele>764.5</ele><time>2026-04-11T11:02:44.808Z</time></trkpt><trkpt lat="42.9919885" lon="12.8416522"><ele>767.0</ele><time>2026-04-11T11:02:45.808Z</time></trkpt><trkpt lat="42.9918526" lon="12.8416026"><ele>769.5</ele><time>2026-04-11T11:02:46.809Z</time></trkpt><trkpt lat="42.9917224" lon="12.841603"><ele>772.0</ele><time>2026-04-11T11:02:47.805Z</time></trkpt><trkpt lat="42.9916094" lon="12.8416785"><ele>768.0</ele><time>2026-04-11T11:02:48.806Z</time></trkpt><trkpt lat="42.9915284" lon="12.8418241"><ele>764.0</ele><time>2026-04-11T11:02:49.798Z</time></trkpt><trkpt lat="42.9914781" lon="12.8419936"><ele>760.0</ele><time>2026-04-11T11:02:50.802Z</time></trkpt><trkpt lat="42.9914409" lon="12.8421889"><ele>756.0</ele><time>2026-04-11T11:02:51.806Z</time></trkpt><trkpt lat="42.9913999" lon="12.8423967"><ele>756.0</ele><time>2026-04-11T11:02:52.807Z</time></trkpt><trkpt lat="42.9913559" lon="12.8426057"><ele>756.0</ele><time>2026-04-11T11:02:53.809Z</time></trkpt><trkpt lat="42.9913137" lon="12.842832"><ele>756.0</ele><time>2026-04-11T11:02:54.807Z</time></trkpt><trkpt lat="42.9912683" lon="12.8430704"><ele>750.6666666666666</ele><time>2026-04-11T11:02:55.796Z</time></trkpt><trkpt lat="42.9912215" lon="12.8433051"><ele>745.3333333333333</ele><time>2026-04-11T11:02:56.801Z</time></trkpt><trkpt lat="42.991189" lon="12.8435287"><ele>740.0</ele><time>2026-04-11T11:02:57.802Z</time></trkpt><trkpt lat="42.9911621" lon="12.8437414"><ele>734.0</ele><time>2026-04-11T11:02:58.8Z</time></trkpt><trkpt lat="42.9911495" lon="12.84396"><ele>728.0</ele><time>2026-04-11T11:02:59.8Z</time></trkpt><trkpt lat="42.9911412" lon="12.8441772"><ele>722.0</ele><time>2026-04-11T11:03:00.801Z</time></trkpt><trkpt lat="42.9911293" lon="12.8444009"><ele>718.6666666666666</ele><time>2026-04-11T11:03:01.799Z</time></trkpt><trkpt lat="42.9911034" lon="12.8446308"><ele>715.3333333333334</ele><time>2026-04-11T11:03:02.806Z</time></trkpt><trkpt lat="42.9910566" lon="12.8448536"><ele>712.0</ele><time>2026-04-11T11:03:03.807Z</time></trkpt><trkpt lat="42.9910015" lon="12.845045"><ele>708.0</ele><time>2026-04-11T11:03:04.809Z</time></trkpt><trkpt lat="42.9909361" lon="12.845222"><ele>704.0</ele><time>2026-04-11T11:03:05.802Z</time></trkpt><trkpt lat="42.9908587" lon="12.8453684"><ele>700.0</ele><time>2026-04-11T11:03:06.806Z</time></trkpt><trkpt lat="42.990753" lon="12.8454674"><ele>696.0</ele><time>2026-04-11T11:03:07.809Z</time></trkpt><trkpt lat="42.9906267" lon="12.845517"><ele>706.25</ele><time>2026-04-11T11:03:08.804Z</time></trkpt><trkpt lat="42.9904931" lon="12.8454915"><ele>716.5</ele><time>2026-04-11T11:03:09.803Z</time></trkpt><trkpt lat="42.9903579" lon="12.8454281"><ele>726.75</ele><time>2026-04-11T11:03:10.808Z</time></trkpt><trkpt lat="42.9902337" lon="12.8453236"><ele>737.0</ele><time>2026-04-11T11:03:11.81Z</time></trkpt><trkpt lat="42.9901097" lon="12.8452467"><ele>738.25</ele><time>2026-04-11T11:03:12.802Z</time></trkpt><trkpt lat="42.989994" lon="12.8451659"><ele>739.5</ele><time>2026-04-11T11:03:13.8Z</time></trkpt><trkpt lat="42.9898763" lon="12.8451017"><ele>740.75</ele><time>2026-04-11T11:03:14.811Z</time></trkpt><trkpt lat="42.989765" lon="12.8450965"><ele>742.0</ele><time>2026-04-11T11:03:15.803Z</time></trkpt><trkpt lat="42.9896768" lon="12.8451571"><ele>742.0</ele><time>2026-04-11T11:03:16.811Z</time></trkpt><trkpt lat="42.9896265" lon="12.8452939"><ele>742.0</ele><time>2026-04-11T11:03:17.796Z</time></trkpt><trkpt lat="42.9896149" lon="12.8454375"><ele>742.0</ele><time>2026-04-11T11:03:18.808Z</time></trkpt><trkpt lat="42.9896222" lon="12.8456094"><ele>742.0</ele><time>2026-04-11T11:03:19.797Z</time></trkpt><trkpt lat="42.9896293" lon="12.8457877"><ele>737.3333333333334</ele><time>2026-04-11T11:03:20.797Z</time></trkpt><trkpt lat="42.9896454" lon="12.8459814"><ele>732.6666666666666</ele><time>2026-04-11T11:03:21.8Z</time></trkpt><trkpt lat="42.9896562" lon="12.8461954"><ele>728.0</ele><time>2026-04-11T11:03:22.801Z</time></trkpt><trkpt lat="42.9896688" lon="12.8464221"><ele>728.0</ele><time>2026-04-11T11:03:23.802Z</time></trkpt><trkpt lat="42.9896903" lon="12.8466622"><ele>728.0</ele><time>2026-04-11T11:03:24.81Z</time></trkpt><trkpt lat="42.9897284" lon="12.8468987"><ele>728.0</ele><time>2026-04-11T11:03:25.804Z</time></trkpt><trkpt lat="42.9897893" lon="12.8471125"><ele>728.75</ele><time>2026-04-11T11:03:26.824Z</time></trkpt><trkpt lat="42.9898611" lon="12.8473084"><ele>729.5</ele><time>2026-04-11T11:03:27.805Z</time></trkpt><trkpt lat="42.9899301" lon="12.8474954"><ele>730.25</ele><time>2026-04-11T11:03:28.802Z</time></trkpt><trkpt lat="42.9899911" lon="12.8476594"><ele>731.0</ele><time>2026-04-11T11:03:29.794Z</time></trkpt><trkpt lat="42.9900202" lon="12.8478172"><ele>727.5</ele><time>2026-04-11T11:03:30.803Z</time></trkpt><trkpt lat="42.9899963" lon="12.847953"><ele>724.0</ele><time>2026-04-11T11:03:31.8Z</time></trkpt><trkpt lat="42.9899133" lon="12.8480616"><ele>720.5</ele><time>2026-04-11T11:03:32.804Z</time></trkpt><trkpt lat="42.9898033" lon="12.8481232"><ele>717.0</ele><time>2026-04-11T11:03:33.808Z</time></trkpt><trkpt lat="42.9896832" lon="12.8481639"><ele>717.0</ele><time>2026-04-11T11:03:34.804Z</time></trkpt><trkpt lat="42.9895475" lon="12.8482"><ele>717.0</ele><time>2026-04-11T11:03:35.804Z</time></trkpt><trkpt lat="42.989401" lon="12.8482322"><ele>717.0</ele><time>2026-04-11T11:03:36.806Z</time></trkpt><trkpt lat="42.9892456" lon="12.8482551"><ele>717.0</ele><time>2026-04-11T11:03:37.81Z</time></trkpt><trkpt lat="42.9890775" lon="12.8482614"><ele>719.6666666666666</ele><time>2026-04-11T11:03:38.816Z</time></trkpt><trkpt lat="42.9889005" lon="12.8482639"><ele>722.3333333333333</ele><time>2026-04-11T11:03:39.81Z</time></trkpt><trkpt lat="42.98872" lon="12.8482576"><ele>725.0</ele><time>2026-04-11T11:03:40.817Z</time></trkpt><trkpt lat="42.9885437" lon="12.848257"><ele>725.0</ele><time>2026-04-11T11:03:41.805Z</time></trkpt><trkpt lat="42.9883772" lon="12.8482597"><ele>725.0</ele><time>2026-04-11T11:03:42.817Z</time></trkpt><trkpt lat="42.988213" lon="12.8482891"><ele>725.0</ele><time>2026-04-11T11:03:43.803Z</time></trkpt><trkpt lat="42.9880477" lon="12.8483421"><ele>724.3333333333333</ele><time>2026-04-11T11:03:44.81Z</time></trkpt><trkpt lat="42.9878814" lon="12.8484092"><ele>723.6666666666666</ele><time>2026-04-11T11:03:45.81Z</time></trkpt><trkpt lat="42.9877169" lon="12.8484678"><ele>723.0</ele><time>2026-04-11T11:03:46.81Z</time></trkpt><trkpt lat="42.9875515" lon="12.8484755"><ele>723.6666666666666</ele><time>2026-04-11T11:03:47.799Z</time></trkpt><trkpt lat="42.9873852" lon="12.8484461"><ele>724.3333333333333</ele><time>2026-04-11T11:03:48.804Z</time></trkpt><trkpt lat="42.987212" lon="12.8483962"><ele>725.0</ele><time>2026-04-11T11:03:49.802Z</time></trkpt><trkpt lat="42.9870264" lon="12.8483489"><ele>725.0</ele><time>2026-04-11T11:03:50.808Z</time></trkpt><trkpt lat="42.9868349" lon="12.8483147"><ele>725.0</ele><time>2026-04-11T11:03:51.804Z</time></trkpt><trkpt lat="42.9866408" lon="12.848299"><ele>725.0</ele><time>2026-04-11T11:03:52.802Z</time></trkpt><trkpt lat="42.9864572" lon="12.8483022"><ele>721.3333333333333</ele><time>2026-04-11T11:03:53.81Z</time></trkpt><trkpt lat="42.9862882" lon="12.8483236"><ele>717.6666666666666</ele><time>2026-04-11T11:03:54.809Z</time></trkpt><trkpt lat="42.9861107" lon="12.8483469"><ele>714.0</ele><time>2026-04-11T11:03:55.807Z</time></trkpt><trkpt lat="42.9859393" lon="12.8483569"><ele>713.3333333333334</ele><time>2026-04-11T11:03:56.806Z</time></trkpt><trkpt lat="42.9857676" lon="12.8483542"><ele>712.6666666666667</ele><time>2026-04-11T11:03:57.804Z</time></trkpt><trkpt lat="42.9855958" lon="12.8483216"><ele>712.0</ele><time>2026-04-11T11:03:58.8Z</time></trkpt><trkpt lat="42.9854187" lon="12.8482589"><ele>712.0</ele><time>2026-04-11T11:03:59.807Z</time></trkpt><trkpt lat="42.9852375" lon="12.848179"><ele>712.0</ele><time>2026-04-11T11:04:00.801Z</time></trkpt><trkpt lat="42.9850414" lon="12.8480941"><ele>712.0</ele><time>2026-04-11T11:04:01.805Z</time></trkpt><trkpt lat="42.9848371" lon="12.8480008"><ele>706.3333333333334</ele><time>2026-04-11T11:04:02.811Z</time></trkpt><trkpt lat="42.9846306" lon="12.8479035"><ele>700.6666666666666</ele><time>2026-04-11T11:04:03.798Z</time></trkpt><trkpt lat="42.9844367" lon="12.8478085"><ele>695.0</ele><time>2026-04-11T11:04:04.808Z</time></trkpt><trkpt lat="42.9842594" lon="12.8477075"><ele>698.6666666666666</ele><time>2026-04-11T11:04:05.805Z</time></trkpt><trkpt lat="42.9840879" lon="12.847592"><ele>702.3333333333334</ele><time>2026-04-11T11:04:06.802Z</time></trkpt><trkpt lat="42.9839237" lon="12.8474663"><ele>706.0</ele><time>2026-04-11T11:04:07.802Z</time></trkpt><trkpt lat="42.9837593" lon="12.8473317"><ele>706.0</ele><time>2026-04-11T11:04:08.805Z</time></trkpt><trkpt lat="42.9835879" lon="12.8471911"><ele>706.0</ele><time>2026-04-11T11:04:09.81Z</time></trkpt><trkpt lat="42.9834143" lon="12.8470444"><ele>706.0</ele><time>2026-04-11T11:04:10.801Z</time></trkpt><trkpt lat="42.9832323" lon="12.8468955"><ele>706.3333333333334</ele><time>2026-04-11T11:04:11.813Z</time></trkpt><trkpt lat="42.9830526" lon="12.8467394"><ele>706.6666666666666</ele><time>2026-04-11T11:04:12.814Z</time></trkpt><trkpt lat="42.9828657" lon="12.8465803"><ele>707.0</ele><time>2026-04-11T11:04:13.799Z</time></trkpt><trkpt lat="42.9826776" lon="12.8464185"><ele>707.0</ele><time>2026-04-11T11:04:14.816Z</time></trkpt><trkpt lat="42.9824923" lon="12.8462653"><ele>707.0</ele><time>2026-04-11T11:04:15.804Z</time></trkpt><trkpt lat="42.9823102" lon="12.8461114"><ele>707.0</ele><time>2026-04-11T11:04:16.799Z</time></trkpt><trkpt lat="42.9821291" lon="12.8459584"><ele>707.0</ele><time>2026-04-11T11:04:17.806Z</time></trkpt><trkpt lat="42.9819488" lon="12.8458016"><ele>707.0</ele><time>2026-04-11T11:04:18.801Z</time></trkpt><trkpt lat="42.9817689" lon="12.8456403"><ele>707.0</ele><time>2026-04-11T11:04:19.807Z</time></trkpt><trkpt lat="42.9815938" lon="12.8454713"><ele>707.0</ele><time>2026-04-11T11:04:20.808Z</time></trkpt><trkpt lat="42.9814289" lon="12.8453032"><ele>707.0</ele><time>2026-04-11T11:04:21.801Z</time></trkpt><trkpt lat="42.981274" lon="12.8451338"><ele>707.0</ele><time>2026-04-11T11:04:22.804Z</time></trkpt><trkpt lat="42.9811266" lon="12.8449683"><ele>707.0</ele><time>2026-04-11T11:04:23.803Z</time></trkpt><trkpt lat="42.9809796" lon="12.8448049"><ele>707.0</ele><time>2026-04-11T11:04:24.809Z</time></trkpt><trkpt lat="42.980827" lon="12.844647"><ele>707.0</ele><time>2026-04-11T11:04:25.798Z</time></trkpt><trkpt lat="42.9806811" lon="12.8444936"><ele>704.3333333333333</ele><time>2026-04-11T11:04:26.814Z</time></trkpt><trkpt lat="42.9805344" lon="12.8443543"><ele>701.6666666666666</ele><time>2026-04-11T11:04:27.804Z</time></trkpt><trkpt lat="42.9803785" lon="12.8442185"><ele>699.0</ele><time>2026-04-11T11:04:28.803Z</time></trkpt><trkpt lat="42.9802216" lon="12.8440998"><ele>699.0</ele><time>2026-04-11T11:04:29.81Z</time></trkpt><trkpt lat="42.9800574" lon="12.8439865"><ele>699.0</ele><time>2026-04-11T11:04:30.804Z</time></trkpt><trkpt lat="42.9798976" lon="12.8438789"><ele>699.0</ele><time>2026-04-11T11:04:31.81Z</time></trkpt><trkpt lat="42.9797433" lon="12.8437749"><ele>692.0</ele><time>2026-04-11T11:04:32.806Z</time></trkpt><trkpt lat="42.9795912" lon="12.8436625"><ele>685.0</ele><time>2026-04-11T11:04:33.819Z</time></trkpt><trkpt lat="42.9794433" lon="12.8435488"><ele>678.0</ele><time>2026-04-11T11:04:34.805Z</time></trkpt><trkpt lat="42.9793053" lon="12.8434327"><ele>672.0</ele><time>2026-04-11T11:04:35.807Z</time></trkpt><trkpt lat="42.9791688" lon="12.8433153"><ele>666.0</ele><time>2026-04-11T11:04:36.816Z</time></trkpt><trkpt lat="42.979041" lon="12.8431962"><ele>660.0</ele><time>2026-04-11T11:04:37.808Z</time></trkpt><trkpt lat="42.9789181" lon="12.8430752"><ele>660.0</ele><time>2026-04-11T11:04:38.812Z</time></trkpt><trkpt lat="42.9788066" lon="12.8429479"><ele>660.0</ele><time>2026-04-11T11:04:39.81Z</time></trkpt><trkpt lat="42.9786971" lon="12.8428214"><ele>660.0</ele><time>2026-04-11T11:04:40.809Z</time></trkpt><trkpt lat="42.9785884" lon="12.8427059"><ele>660.0</ele><time>2026-04-11T11:04:41.805Z</time></trkpt><trkpt lat="42.9784729" lon="12.8426002"><ele>658.0</ele><time>2026-04-11T11:04:42.811Z</time></trkpt><trkpt lat="42.9783597" lon="12.8425439"><ele>656.0</ele><time>2026-04-11T11:04:43.817Z</time></trkpt><trkpt lat="42.9782581" lon="12.8425601"><ele>654.0</ele><time>2026-04-11T11:04:44.807Z</time></trkpt><trkpt lat="42.9781726" lon="12.8426389"><ele>652.0</ele><time>2026-04-11T11:04:45.808Z</time></trkpt><trkpt lat="42.9781214" lon="12.8427567"><ele>650.0</ele><time>2026-04-11T11:04:46.81Z</time></trkpt><trkpt lat="42.9781064" lon="12.8428858"><ele>648.5</ele><time>2026-04-11T11:04:47.812Z</time></trkpt><trkpt lat="42.9781523" lon="12.8430193"><ele>647.0</ele><time>2026-04-11T11:04:48.807Z</time></trkpt><trkpt lat="42.9782381" lon="12.8431252"><ele>645.5</ele><time>2026-04-11T11:04:49.801Z</time></trkpt><trkpt lat="42.9783619" lon="12.8431979"><ele>644.0</ele><time>2026-04-11T11:04:50.807Z</time></trkpt><trkpt lat="42.978496" lon="12.8432813"><ele>641.0</ele><time>2026-04-11T11:04:51.808Z</time></trkpt><trkpt lat="42.9786397" lon="12.8433804"><ele>638.0</ele><time>2026-04-11T11:04:52.814Z</time></trkpt><trkpt lat="42.9787947" lon="12.8434891"><ele>635.0</ele><time>2026-04-11T11:04:53.802Z</time></trkpt><trkpt lat="42.9789582" lon="12.8436063"><ele>635.0</ele><time>2026-04-11T11:04:54.825Z</time></trkpt><trkpt lat="42.9791284" lon="12.843731"><ele>635.0</ele><time>2026-04-11T11:04:55.804Z</time></trkpt><trkpt lat="42.9793004" lon="12.8438595"><ele>635.0</ele><time>2026-04-11T11:04:56.807Z</time></trkpt><trkpt lat="42.9794728" lon="12.8440028"><ele>632.3333333333333</ele><time>2026-04-11T11:04:57.812Z</time></trkpt><trkpt lat="42.9796364" lon="12.8441547"><ele>629.6666666666666</ele><time>2026-04-11T11:04:58.814Z</time></trkpt><trkpt lat="42.979796" lon="12.8443021"><ele>627.0</ele><time>2026-04-11T11:04:59.806Z</time></trkpt><trkpt lat="42.9799497" lon="12.8444415"><ele>641.3333333333334</ele><time>2026-04-11T11:05:00.808Z</time></trkpt><trkpt lat="42.9800945" lon="12.8445826"><ele>655.6666666666667</ele><time>2026-04-11T11:05:01.816Z</time></trkpt><trkpt lat="42.9802361" lon="12.8447436"><ele>670.0</ele><time>2026-04-11T11:05:02.799Z</time></trkpt><trkpt lat="42.9803776" lon="12.8449215"><ele>670.0</ele><time>2026-04-11T11:05:03.808Z</time></trkpt><trkpt lat="42.9805157" lon="12.8450916"><ele>670.0</ele><time>2026-04-11T11:05:04.814Z</time></trkpt><trkpt lat="42.9806563" lon="12.8452683"><ele>670.0</ele><time>2026-04-11T11:05:05.807Z</time></trkpt><trkpt lat="42.9807966" lon="12.8454496"><ele>669.6666666666667</ele><time>2026-04-11T11:05:06.804Z</time></trkpt><trkpt lat="42.9809367" lon="12.845638"><ele>669.3333333333334</ele><time>2026-04-11T11:05:07.801Z</time></trkpt><trkpt lat="42.9810796" lon="12.8458266"><ele>669.0</ele><time>2026-04-11T11:05:08.806Z</time></trkpt><trkpt lat="42.9812221" lon="12.8460158"><ele>658.3333333333334</ele><time>2026-04-11T11:05:09.809Z</time></trkpt><trkpt lat="42.9813669" lon="12.846197"><ele>647.6666666666667</ele><time>2026-04-11T11:05:10.807Z</time></trkpt><trkpt lat="42.9815093" lon="12.8463666"><ele>637.0</ele><time>2026-04-11T11:05:11.807Z</time></trkpt><trkpt lat="42.9816488" lon="12.8465271"><ele>636.3333333333334</ele><time>2026-04-11T11:05:12.81Z</time></trkpt><trkpt lat="42.9817827" lon="12.8466784"><ele>635.6666666666666</ele><time>2026-04-11T11:05:13.805Z</time></trkpt><trkpt lat="42.9819149" lon="12.8468312"><ele>635.0</ele><time>2026-04-11T11:05:14.804Z</time></trkpt><trkpt lat="42.9820449" lon="12.8469854"><ele>635.0</ele><time>2026-04-11T11:05:15.804Z</time></trkpt><trkpt lat="42.9821735" lon="12.8471447"><ele>635.0</ele><time>2026-04-11T11:05:16.807Z</time></trkpt><trkpt lat="42.9823073" lon="12.8473131"><ele>635.0</ele><time>2026-04-11T11:05:17.803Z</time></trkpt><trkpt lat="42.9824396" lon="12.8474907"><ele>636.6666666666666</ele><time>2026-04-11T11:05:18.807Z</time></trkpt><trkpt lat="42.9825767" lon="12.8476705"><ele>638.3333333333334</ele><time>2026-04-11T11:05:19.803Z</time></trkpt><trkpt lat="42.9827151" lon="12.8478491"><ele>640.0</ele><time>2026-04-11T11:05:20.809Z</time></trkpt><trkpt lat="42.9828545" lon="12.8480292"><ele>640.0</ele><time>2026-04-11T11:05:21.8Z</time></trkpt><trkpt lat="42.9829946" lon="12.8482066"><ele>640.0</ele><time>2026-04-11T11:05:22.806Z</time></trkpt><trkpt lat="42.9831317" lon="12.8483853"><ele>640.0</ele><time>2026-04-11T11:05:23.803Z</time></trkpt><trkpt lat="42.9832655" lon="12.8485596"><ele>639.0</ele><time>2026-04-11T11:05:24.798Z</time></trkpt><trkpt lat="42.9833957" lon="12.8487212"><ele>638.0</ele><time>2026-04-11T11:05:25.808Z</time></trkpt><trkpt lat="42.9835222" lon="12.8488827"><ele>637.0</ele><time>2026-04-11T11:05:26.807Z</time></trkpt><trkpt lat="42.9836482" lon="12.8490365"><ele>637.0</ele><time>2026-04-11T11:05:27.8Z</time></trkpt><trkpt lat="42.9837746" lon="12.8491708"><ele>637.0</ele><time>2026-04-11T11:05:28.814Z</time></trkpt><trkpt lat="42.983907" lon="12.8492882"><ele>637.0</ele><time>2026-04-11T11:05:29.805Z</time></trkpt><trkpt lat="42.9840415" lon="12.8494003"><ele>633.75</ele><time>2026-04-11T11:05:30.802Z</time></trkpt><trkpt lat="42.9841718" lon="12.8495011"><ele>630.5</ele><time>2026-04-11T11:05:31.809Z</time></trkpt><trkpt lat="42.9842982" lon="12.8495923"><ele>627.25</ele><time>2026-04-11T11:05:32.804Z</time></trkpt><trkpt lat="42.9844171" lon="12.8496685"><ele>624.0</ele><time>2026-04-11T11:05:33.796Z</time></trkpt><trkpt lat="42.9845297" lon="12.8497414"><ele>624.0</ele><time>2026-04-11T11:05:34.798Z</time></trkpt><trkpt lat="42.9846316" lon="12.8498187"><ele>624.0</ele><time>2026-04-11T11:05:35.797Z</time></trkpt><trkpt lat="42.9847188" lon="12.8499122"><ele>624.0</ele><time>2026-04-11T11:05:36.796Z</time></trkpt><trkpt lat="42.9847733" lon="12.850029"><ele>624.0</ele><time>2026-04-11T11:05:37.797Z</time></trkpt><trkpt lat="42.9847826" lon="12.8501753"><ele>624.0</ele><time>2026-04-11T11:05:38.8Z</time></trkpt><trkpt lat="42.9847288" lon="12.850287"><ele>621.25</ele><time>2026-04-11T11:05:39.799Z</time></trkpt><trkpt lat="42.9846339" lon="12.8503423"><ele>618.5</ele><time>2026-04-11T11:05:40.801Z</time></trkpt><trkpt lat="42.9845207" lon="12.8503377"><ele>615.75</ele><time>2026-04-11T11:05:41.794Z</time></trkpt><trkpt lat="42.9844181" lon="12.8502796"><ele>613.0</ele><time>2026-04-11T11:05:42.805Z</time></trkpt><trkpt lat="42.9843128" lon="12.8501856"><ele>613.3333333333334</ele><time>2026-04-11T11:05:43.806Z</time></trkpt><trkpt lat="42.9842079" lon="12.8500595"><ele>613.6666666666666</ele><time>2026-04-11T11:05:44.799Z</time></trkpt><trkpt lat="42.9840888" lon="12.8499344"><ele>614.0</ele><time>2026-04-11T11:05:45.798Z</time></trkpt><trkpt lat="42.9839569" lon="12.8498042"><ele>614.0</ele><time>2026-04-11T11:05:46.81Z</time></trkpt><trkpt lat="42.9838196" lon="12.8496702"><ele>614.0</ele><time>2026-04-11T11:05:47.808Z</time></trkpt><trkpt lat="42.9836689" lon="12.849527"><ele>614.0</ele><time>2026-04-11T11:05:48.809Z</time></trkpt><trkpt lat="42.9835187" lon="12.8493796"><ele>613.6666666666666</ele><time>2026-04-11T11:05:49.803Z</time></trkpt><trkpt lat="42.9833602" lon="12.8492232"><ele>613.3333333333334</ele><time>2026-04-11T11:05:50.807Z</time></trkpt><trkpt lat="42.9832044" lon="12.849066"><ele>613.0</ele><time>2026-04-11T11:05:51.805Z</time></trkpt><trkpt lat="42.9830533" lon="12.8489158"><ele>613.0</ele><time>2026-04-11T11:05:52.8Z</time></trkpt><trkpt lat="42.9829144" lon="12.8487766"><ele>613.0</ele><time>2026-04-11T11:05:53.795Z</time></trkpt><trkpt lat="42.9827812" lon="12.8486455"><ele>613.0</ele><time>2026-04-11T11:05:54.809Z</time></trkpt><trkpt lat="42.9826573" lon="12.848526"><ele>611.75</ele><time>2026-04-11T11:05:55.801Z</time></trkpt><trkpt lat="42.9825422" lon="12.8484163"><ele>610.5</ele><time>2026-04-11T11:05:56.816Z</time></trkpt><trkpt lat="42.9824305" lon="12.8483145"><ele>609.25</ele><time>2026-04-11T11:05:57.802Z</time></trkpt><trkpt lat="42.9823145" lon="12.8482175"><ele>608.0</ele><time>2026-04-11T11:05:58.806Z</time></trkpt><trkpt lat="42.9822017" lon="12.8481352"><ele>608.0</ele><time>2026-04-11T11:05:59.805Z</time></trkpt><trkpt lat="42.9820852" lon="12.8480639"><ele>608.0</ele><time>2026-04-11T11:06:00.806Z</time></trkpt><trkpt lat="42.9819657" lon="12.8480141"><ele>608.0</ele><time>2026-04-11T11:06:01.794Z</time></trkpt><trkpt lat="42.9818367" lon="12.8479766"><ele>608.0</ele><time>2026-04-11T11:06:02.812Z</time></trkpt><trkpt lat="42.9816943" lon="12.8479424"><ele>603.3333333333333</ele><time>2026-04-11T11:06:03.802Z</time></trkpt><trkpt lat="42.9815502" lon="12.8479186"><ele>598.6666666666666</ele><time>2026-04-11T11:06:04.817Z</time></trkpt><trkpt lat="42.9814" lon="12.8479006"><ele>594.0</ele><time>2026-04-11T11:06:05.799Z</time></trkpt><trkpt lat="42.9812458" lon="12.8478875"><ele>594.0</ele><time>2026-04-11T11:06:06.801Z</time></trkpt><trkpt lat="42.9810902" lon="12.8478685"><ele>594.0</ele><time>2026-04-11T11:06:07.796Z</time></trkpt><trkpt lat="42.9809371" lon="12.8478388"><ele>594.0</ele><time>2026-04-11T11:06:08.805Z</time></trkpt><trkpt lat="42.98079" lon="12.8478017"><ele>593.3333333333334</ele><time>2026-04-11T11:06:09.807Z</time></trkpt><trkpt lat="42.9806468" lon="12.8477482"><ele>592.6666666666667</ele><time>2026-04-11T11:06:10.804Z</time></trkpt><trkpt lat="42.9805015" lon="12.8476788"><ele>592.0</ele><time>2026-04-11T11:06:11.799Z</time></trkpt><trkpt lat="42.9803617" lon="12.8475929"><ele>592.0</ele><time>2026-04-11T11:06:12.809Z</time></trkpt><trkpt lat="42.980228" lon="12.8474815"><ele>592.0</ele><time>2026-04-11T11:06:13.801Z</time></trkpt><trkpt lat="42.9800957" lon="12.8473593"><ele>592.0</ele><time>2026-04-11T11:06:14.802Z</time></trkpt><trkpt lat="42.9799644" lon="12.8472199"><ele>590.6666666666667</ele><time>2026-04-11T11:06:15.799Z</time></trkpt><trkpt lat="42.9798455" lon="12.8470639"><ele>589.3333333333334</ele><time>2026-04-11T11:06:16.801Z</time></trkpt><trkpt lat="42.9797367" lon="12.8468867"><ele>588.0</ele><time>2026-04-11T11:06:17.798Z</time></trkpt><trkpt lat="42.9796486" lon="12.8466896"><ele>588.0</ele><time>2026-04-11T11:06:18.809Z</time></trkpt><trkpt lat="42.979567" lon="12.8464802"><ele>588.0</ele><time>2026-04-11T11:06:19.796Z</time></trkpt><trkpt lat="42.9794958" lon="12.8462578"><ele>588.0</ele><time>2026-04-11T11:06:20.806Z</time></trkpt><trkpt lat="42.9794411" lon="12.8460268"><ele>590.6666666666666</ele><time>2026-04-11T11:06:21.803Z</time></trkpt><trkpt lat="42.9794127" lon="12.8457832"><ele>593.3333333333333</ele><time>2026-04-11T11:06:22.814Z</time></trkpt><trkpt lat="42.9793988" lon="12.8455267"><ele>596.0</ele><time>2026-04-11T11:06:23.803Z</time></trkpt><trkpt lat="42.9793982" lon="12.8452504"><ele>595.6666666666666</ele><time>2026-04-11T11:06:24.808Z</time></trkpt><trkpt lat="42.9794055" lon="12.8449642"><ele>595.3333333333334</ele><time>2026-04-11T11:06:25.804Z</time></trkpt><trkpt lat="42.9794265" lon="12.8446849"><ele>595.0</ele><time>2026-04-11T11:06:26.802Z</time></trkpt><trkpt lat="42.9800827" lon="12.8358987"><ele>595.0</ele><time>2026-04-11T11:06:58.794Z</time></trkpt><trkpt lat="42.9801405" lon="12.8356879"><ele>595.0</ele><time>2026-04-11T11:06:59.803Z</time></trkpt><trkpt lat="42.9801503" lon="12.8354591"><ele>595.0</ele><time>2026-04-11T11:07:00.802Z</time></trkpt><trkpt lat="42.9801679" lon="12.835221"><ele>594.0</ele><time>2026-04-11T11:07:01.801Z</time></trkpt><trkpt lat="42.9801886" lon="12.8349699"><ele>593.0</ele><time>2026-04-11T11:07:02.792Z</time></trkpt><trkpt lat="42.9802031" lon="12.8347045"><ele>592.0</ele><time>2026-04-11T11:07:03.801Z</time></trkpt><trkpt lat="42.9802055" lon="12.8344317"><ele>591.0</ele><time>2026-04-11T11:07:04.808Z</time></trkpt><trkpt lat="42.9801968" lon="12.8341682"><ele>590.0</ele><time>2026-04-11T11:07:05.797Z</time></trkpt><trkpt lat="42.9801787" lon="12.8338989"><ele>589.0</ele><time>2026-04-11T11:07:06.799Z</time></trkpt><trkpt lat="42.9801599" lon="12.8336329"><ele>592.0</ele><time>2026-04-11T11:07:07.817Z</time></trkpt><trkpt lat="42.9801449" lon="12.8333598"><ele>595.0</ele><time>2026-04-11T11:07:08.8Z</time></trkpt><trkpt lat="42.9801301" lon="12.8330888"><ele>598.0</ele><time>2026-04-11T11:07:09.792Z</time></trkpt><trkpt lat="42.9801191" lon="12.8328141"><ele>596.3333333333334</ele><time>2026-04-11T11:07:10.807Z</time></trkpt><trkpt lat="42.9801064" lon="12.8325412"><ele>594.6666666666666</ele><time>2026-04-11T11:07:11.793Z</time></trkpt><trkpt lat="42.9801002" lon="12.8322763"><ele>593.0</ele><time>2026-04-11T11:07:12.81Z</time></trkpt><trkpt lat="42.9801006" lon="12.8320157"><ele>587.6666666666666</ele><time>2026-04-11T11:07:13.799Z</time></trkpt><trkpt lat="42.9801176" lon="12.8317618"><ele>582.3333333333334</ele><time>2026-04-11T11:07:14.804Z</time></trkpt><trkpt lat="42.9801569" lon="12.8315091"><ele>577.0</ele><time>2026-04-11T11:07:15.797Z</time></trkpt><trkpt lat="42.9802146" lon="12.8312562"><ele>577.0</ele><time>2026-04-11T11:07:16.794Z</time></trkpt><trkpt lat="42.980277" lon="12.8310076"><ele>577.0</ele><time>2026-04-11T11:07:17.798Z</time></trkpt><trkpt lat="42.9803334" lon="12.8307615"><ele>577.0</ele><time>2026-04-11T11:07:18.799Z</time></trkpt><trkpt lat="42.9803824" lon="12.8305295"><ele>571.3333333333334</ele><time>2026-04-11T11:07:19.807Z</time></trkpt><trkpt lat="42.9804311" lon="12.8302977"><ele>565.6666666666666</ele><time>2026-04-11T11:07:20.797Z</time></trkpt><trkpt lat="42.9804606" lon="12.8300661"><ele>560.0</ele><time>2026-04-11T11:07:21.802Z</time></trkpt><trkpt lat="42.980481" lon="12.8298352"><ele>556.3333333333333</ele><time>2026-04-11T11:07:22.804Z</time></trkpt><trkpt lat="42.980482" lon="12.8296015"><ele>552.6666666666666</ele><time>2026-04-11T11:07:23.797Z</time></trkpt><trkpt lat="42.9804663" lon="12.8293708"><ele>549.0</ele><time>2026-04-11T11:07:24.813Z</time></trkpt><trkpt lat="42.9804354" lon="12.8291392"><ele>548.3333333333334</ele><time>2026-04-11T11:07:25.795Z</time></trkpt><trkpt lat="42.9803821" lon="12.8289152"><ele>547.6666666666667</ele><time>2026-04-11T11:07:26.811Z</time></trkpt><trkpt lat="42.980316" lon="12.8287032"><ele>547.0</ele><time>2026-04-11T11:07:27.802Z</time></trkpt><trkpt lat="42.9802292" lon="12.8284941"><ele>546.6666666666667</ele><time>2026-04-11T11:07:28.802Z</time></trkpt><trkpt lat="42.9801317" lon="12.8282976"><ele>546.3333333333334</ele><time>2026-04-11T11:07:29.801Z</time></trkpt><trkpt lat="42.9800175" lon="12.8281101"><ele>546.0</ele><time>2026-04-11T11:07:30.811Z</time></trkpt><trkpt lat="42.9798968" lon="12.8279414"><ele>545.0</ele><time>2026-04-11T11:07:31.811Z</time></trkpt><trkpt lat="42.9797698" lon="12.8278082"><ele>544.0</ele><time>2026-04-11T11:07:32.804Z</time></trkpt><trkpt lat="42.9796341" lon="12.8276888"><ele>543.0</ele><time>2026-04-11T11:07:33.799Z</time></trkpt><trkpt lat="42.9794808" lon="12.8275816"><ele>543.0</ele><time>2026-04-11T11:07:34.799Z</time></trkpt><trkpt lat="42.9793239" lon="12.8274881"><ele>543.0</ele><time>2026-04-11T11:07:35.808Z</time></trkpt><trkpt lat="42.9791562" lon="12.827402"><ele>543.0</ele><time>2026-04-11T11:07:36.808Z</time></trkpt><trkpt lat="42.9789869" lon="12.827317"><ele>544.6666666666666</ele><time>2026-04-11T11:07:37.794Z</time></trkpt><trkpt lat="42.9788183" lon="12.8272241"><ele>546.3333333333333</ele><time>2026-04-11T11:07:38.807Z</time></trkpt><trkpt lat="42.9786487" lon="12.8271302"><ele>548.0</ele><time>2026-04-11T11:07:39.804Z</time></trkpt><trkpt lat="42.9784822" lon="12.8270371"><ele>546.0</ele><time>2026-04-11T11:07:40.808Z</time></trkpt><trkpt lat="42.9783151" lon="12.8269436"><ele>544.0</ele><time>2026-04-11T11:07:41.804Z</time></trkpt><trkpt lat="42.9781502" lon="12.8268405"><ele>542.0</ele><time>2026-04-11T11:07:42.815Z</time></trkpt><trkpt lat="42.977986" lon="12.8267254"><ele>542.0</ele><time>2026-04-11T11:07:43.808Z</time></trkpt><trkpt lat="42.9778397" lon="12.8265911"><ele>542.0</ele><time>2026-04-11T11:07:44.807Z</time></trkpt><trkpt lat="42.9777111" lon="12.8264488"><ele>542.0</ele><time>2026-04-11T11:07:45.803Z</time></trkpt><trkpt lat="42.9775936" lon="12.8262961"><ele>543.6666666666666</ele><time>2026-04-11T11:07:46.802Z</time></trkpt><trkpt lat="42.9774833" lon="12.8261269"><ele>545.3333333333334</ele><time>2026-04-11T11:07:47.801Z</time></trkpt><trkpt lat="42.9773773" lon="12.8259407"><ele>547.0</ele><time>2026-04-11T11:07:48.807Z</time></trkpt><trkpt lat="42.9772839" lon="12.8257514"><ele>547.0</ele><time>2026-04-11T11:07:49.8Z</time></trkpt><trkpt lat="42.9772021" lon="12.8255429"><ele>547.0</ele><time>2026-04-11T11:07:50.808Z</time></trkpt><trkpt lat="42.9771369" lon="12.8253257"><ele>547.0</ele><time>2026-04-11T11:07:51.799Z</time></trkpt><trkpt lat="42.9770801" lon="12.8251023"><ele>545.3333333333334</ele><time>2026-04-11T11:07:52.803Z</time></trkpt><trkpt lat="42.9770336" lon="12.8248709"><ele>543.6666666666666</ele><time>2026-04-11T11:07:53.804Z</time></trkpt><trkpt lat="42.9769997" lon="12.8246354"><ele>542.0</ele><time>2026-04-11T11:07:54.807Z</time></trkpt><trkpt lat="42.9769654" lon="12.8243989"><ele>543.3333333333333</ele><time>2026-04-11T11:07:55.8Z</time></trkpt><trkpt lat="42.9769307" lon="12.8241637"><ele>544.6666666666666</ele><time>2026-04-11T11:07:56.802Z</time></trkpt><trkpt lat="42.9768917" lon="12.8239261"><ele>546.0</ele><time>2026-04-11T11:07:57.798Z</time></trkpt><trkpt lat="42.9768529" lon="12.8236855"><ele>547.3333333333334</ele><time>2026-04-11T11:07:58.797Z</time></trkpt><trkpt lat="42.9768101" lon="12.8234532"><ele>548.6666666666667</ele><time>2026-04-11T11:07:59.799Z</time></trkpt><trkpt lat="42.9767602" lon="12.8232316"><ele>550.0</ele><time>2026-04-11T11:08:00.806Z</time></trkpt><trkpt lat="42.9767105" lon="12.8230329"><ele>546.3333333333334</ele><time>2026-04-11T11:08:01.794Z</time></trkpt><trkpt lat="42.9766435" lon="12.8228396"><ele>542.6666666666666</ele><time>2026-04-11T11:08:02.809Z</time></trkpt><trkpt lat="42.9765699" lon="12.8226495"><ele>539.0</ele><time>2026-04-11T11:08:03.802Z</time></trkpt><trkpt lat="42.9764835" lon="12.8224659"><ele>539.0</ele><time>2026-04-11T11:08:04.802Z</time></trkpt><trkpt lat="42.9763903" lon="12.8222777"><ele>539.0</ele><time>2026-04-11T11:08:05.802Z</time></trkpt><trkpt lat="42.9762912" lon="12.8220982"><ele>539.0</ele><time>2026-04-11T11:08:06.8Z</time></trkpt><trkpt lat="42.9761887" lon="12.8219179"><ele>540.3333333333333</ele><time>2026-04-11T11:08:07.801Z</time></trkpt><trkpt lat="42.9760845" lon="12.8217296"><ele>541.6666666666666</ele><time>2026-04-11T11:08:08.802Z</time></trkpt><trkpt lat="42.9759795" lon="12.8215378"><ele>543.0</ele><time>2026-04-11T11:08:09.802Z</time></trkpt><trkpt lat="42.9758786" lon="12.8213436"><ele>543.0</ele><time>2026-04-11T11:08:10.809Z</time></trkpt><trkpt lat="42.9757808" lon="12.8211447"><ele>543.0</ele><time>2026-04-11T11:08:11.796Z</time></trkpt><trkpt lat="42.9756804" lon="12.8209418"><ele>543.0</ele><time>2026-04-11T11:08:12.807Z</time></trkpt><trkpt lat="42.9755771" lon="12.8207464"><ele>543.0</ele><time>2026-04-11T11:08:13.803Z</time></trkpt><trkpt lat="42.9754741" lon="12.8205475"><ele>543.0</ele><time>2026-04-11T11:08:14.798Z</time></trkpt><trkpt lat="42.9753661" lon="12.8203452"><ele>543.0</ele><time>2026-04-11T11:08:15.81Z</time></trkpt><trkpt lat="42.9752552" lon="12.8201447"><ele>543.0</ele><time>2026-04-11T11:08:16.802Z</time></trkpt><trkpt lat="42.9751413" lon="12.8199333"><ele>543.0</ele><time>2026-04-11T11:08:17.806Z</time></trkpt><trkpt lat="42.9750284" lon="12.819719"><ele>543.0</ele><time>2026-04-11T11:08:18.802Z</time></trkpt><trkpt lat="42.974913" lon="12.8194997"><ele>545.6666666666666</ele><time>2026-04-11T11:08:19.802Z</time></trkpt><trkpt lat="42.9748034" lon="12.8192846"><ele>548.3333333333333</ele><time>2026-04-11T11:08:20.807Z</time></trkpt><trkpt lat="42.9747019" lon="12.8190791"><ele>551.0</ele><time>2026-04-11T11:08:21.804Z</time></trkpt><trkpt lat="42.9746113" lon="12.8188821"><ele>551.0</ele><time>2026-04-11T11:08:22.804Z</time></trkpt><trkpt lat="42.9745286" lon="12.8186904"><ele>551.0</ele><time>2026-04-11T11:08:23.801Z</time></trkpt><trkpt lat="42.9744484" lon="12.8185028"><ele>551.0</ele><time>2026-04-11T11:08:24.801Z</time></trkpt><trkpt lat="42.9743757" lon="12.8183105"><ele>554.0</ele><time>2026-04-11T11:08:25.796Z</time></trkpt><trkpt lat="42.9743118" lon="12.8181068"><ele>557.0</ele><time>2026-04-11T11:08:26.802Z</time></trkpt><trkpt lat="42.9742561" lon="12.817903"><ele>560.0</ele><time>2026-04-11T11:08:27.802Z</time></trkpt><trkpt lat="42.9742007" lon="12.8176994"><ele>555.25</ele><time>2026-04-11T11:08:28.802Z</time></trkpt><trkpt lat="42.9741458" lon="12.8174983"><ele>550.5</ele><time>2026-04-11T11:08:29.804Z</time></trkpt><trkpt lat="42.9740957" lon="12.8173093"><ele>545.75</ele><time>2026-04-11T11:08:30.798Z</time></trkpt><trkpt lat="42.9740469" lon="12.8171248"><ele>541.0</ele><time>2026-04-11T11:08:31.797Z</time></trkpt><trkpt lat="42.9740025" lon="12.8169474"><ele>543.25</ele><time>2026-04-11T11:08:32.801Z</time></trkpt><trkpt lat="42.973953" lon="12.8167634"><ele>545.5</ele><time>2026-04-11T11:08:33.798Z</time></trkpt><trkpt lat="42.9739032" lon="12.8165768"><ele>547.75</ele><time>2026-04-11T11:08:34.8Z</time></trkpt><trkpt lat="42.9738564" lon="12.8163795"><ele>550.0</ele><time>2026-04-11T11:08:35.801Z</time></trkpt><trkpt lat="42.9738121" lon="12.8161812"><ele>550.6666666666667</ele><time>2026-04-11T11:08:36.815Z</time></trkpt><trkpt lat="42.9737738" lon="12.8159726"><ele>551.3333333333334</ele><time>2026-04-11T11:08:37.799Z</time></trkpt><trkpt lat="42.9737415" lon="12.8157585"><ele>552.0</ele><time>2026-04-11T11:08:38.806Z</time></trkpt><trkpt lat="42.9737161" lon="12.8155548"><ele>552.0</ele><time>2026-04-11T11:08:39.803Z</time></trkpt><trkpt lat="42.9736922" lon="12.8153516"><ele>552.0</ele><time>2026-04-11T11:08:40.809Z</time></trkpt><trkpt lat="42.9736669" lon="12.8151586"><ele>552.0</ele><time>2026-04-11T11:08:41.809Z</time></trkpt><trkpt lat="42.9736371" lon="12.8149794"><ele>552.0</ele><time>2026-04-11T11:08:42.798Z</time></trkpt><trkpt lat="42.9736032" lon="12.8148007"><ele>552.0</ele><time>2026-04-11T11:08:43.803Z</time></trkpt><trkpt lat="42.9735614" lon="12.8146194"><ele>552.0</ele><time>2026-04-11T11:08:44.812Z</time></trkpt><trkpt lat="42.9735127" lon="12.814447"><ele>552.0</ele><time>2026-04-11T11:08:45.807Z</time></trkpt><trkpt lat="42.9734574" lon="12.814273"><ele>552.0</ele><time>2026-04-11T11:08:46.805Z</time></trkpt><trkpt lat="42.9733978" lon="12.8140968"><ele>548.0</ele><time>2026-04-11T11:08:47.795Z</time></trkpt><trkpt lat="42.9733446" lon="12.8139199"><ele>544.0</ele><time>2026-04-11T11:08:48.804Z</time></trkpt><trkpt lat="42.9732893" lon="12.8137342"><ele>540.0</ele><time>2026-04-11T11:08:49.798Z</time></trkpt><trkpt lat="42.9732398" lon="12.8135471"><ele>536.0</ele><time>2026-04-11T11:08:50.809Z</time></trkpt><trkpt lat="42.9731938" lon="12.8133552"><ele>536.0</ele><time>2026-04-11T11:08:51.809Z</time></trkpt><trkpt lat="42.9731552" lon="12.813162"><ele>536.0</ele><time>2026-04-11T11:08:52.806Z</time></trkpt><trkpt lat="42.9731298" lon="12.8129663"><ele>536.0</ele><time>2026-04-11T11:08:53.802Z</time></trkpt><trkpt lat="42.9731142" lon="12.8127685"><ele>536.0</ele><time>2026-04-11T11:08:54.802Z</time></trkpt><trkpt lat="42.973107" lon="12.8125702"><ele>536.0</ele><time>2026-04-11T11:08:55.798Z</time></trkpt><trkpt lat="42.973104" lon="12.8123758"><ele>536.0</ele><time>2026-04-11T11:08:56.806Z</time></trkpt><trkpt lat="42.9731024" lon="12.812178"><ele>536.0</ele><time>2026-04-11T11:08:57.796Z</time></trkpt><trkpt lat="42.9731005" lon="12.8119827"><ele>536.0</ele><time>2026-04-11T11:08:58.809Z</time></trkpt><trkpt lat="42.9731023" lon="12.8117838"><ele>536.25</ele><time>2026-04-11T11:08:59.805Z</time></trkpt><trkpt lat="42.9731043" lon="12.8115901"><ele>536.5</ele><time>2026-04-11T11:09:00.809Z</time></trkpt><trkpt lat="42.9731045" lon="12.8114073"><ele>536.75</ele><time>2026-04-11T11:09:01.804Z</time></trkpt><trkpt lat="42.9731008" lon="12.8112342"><ele>537.0</ele><time>2026-04-11T11:09:02.806Z</time></trkpt><trkpt lat="42.973088" lon="12.8110698"><ele>538.75</ele><time>2026-04-11T11:09:03.798Z</time></trkpt><trkpt lat="42.9730625" lon="12.8108959"><ele>540.5</ele><time>2026-04-11T11:09:04.805Z</time></trkpt><trkpt lat="42.9730251" lon="12.8107223"><ele>542.25</ele><time>2026-04-11T11:09:05.794Z</time></trkpt><trkpt lat="42.9729711" lon="12.8105505"><ele>544.0</ele><time>2026-04-11T11:09:06.799Z</time></trkpt><trkpt lat="42.9729008" lon="12.810381"><ele>544.0</ele><time>2026-04-11T11:09:07.802Z</time></trkpt><trkpt lat="42.9728166" lon="12.8102209"><ele>544.0</ele><time>2026-04-11T11:09:08.798Z</time></trkpt><trkpt lat="42.972723" lon="12.8100589"><ele>544.0</ele><time>2026-04-11T11:09:09.799Z</time></trkpt><trkpt lat="42.9726327" lon="12.8099117"><ele>544.0</ele><time>2026-04-11T11:09:10.809Z</time></trkpt><trkpt lat="42.9725431" lon="12.8097887"><ele>541.6</ele><time>2026-04-11T11:09:11.792Z</time></trkpt><trkpt lat="42.9724656" lon="12.8096781"><ele>539.2</ele><time>2026-04-11T11:09:12.812Z</time></trkpt><trkpt lat="42.9723931" lon="12.8095724"><ele>536.8000000000001</ele><time>2026-04-11T11:09:13.802Z</time></trkpt><trkpt lat="42.9723318" lon="12.8094711"><ele>534.4</ele><time>2026-04-11T11:09:14.808Z</time></trkpt><trkpt lat="42.972291" lon="12.8093659"><ele>532.0</ele><time>2026-04-11T11:09:15.804Z</time></trkpt><trkpt lat="42.9722669" lon="12.8092522"><ele>532.0</ele><time>2026-04-11T11:09:16.811Z</time></trkpt><trkpt lat="42.9722713" lon="12.8091437"><ele>532.0</ele><time>2026-04-11T11:09:17.798Z</time></trkpt><trkpt lat="42.9722983" lon="12.8090283"><ele>532.0</ele><time>2026-04-11T11:09:18.8Z</time></trkpt><trkpt lat="42.9723302" lon="12.8089021"><ele>532.0</ele><time>2026-04-11T11:09:19.796Z</time></trkpt><trkpt lat="42.9723687" lon="12.8087772"><ele>532.0</ele><time>2026-04-11T11:09:20.801Z</time></trkpt><trkpt lat="42.9724137" lon="12.8086439"><ele>532.0</ele><time>2026-04-11T11:09:21.805Z</time></trkpt><trkpt lat="42.972461" lon="12.8085032"><ele>532.0</ele><time>2026-04-11T11:09:22.799Z</time></trkpt><trkpt lat="42.9725103" lon="12.808362"><ele>532.0</ele><time>2026-04-11T11:09:23.813Z</time></trkpt><trkpt lat="42.9725536" lon="12.8082294"><ele>532.0</ele><time>2026-04-11T11:09:24.805Z</time></trkpt><trkpt lat="42.9725912" lon="12.808113"><ele>532.0</ele><time>2026-04-11T11:09:25.793Z</time></trkpt><trkpt lat="42.9726293" lon="12.8080025"><ele>531.2</ele><time>2026-04-11T11:09:26.797Z</time></trkpt><trkpt lat="42.9726712" lon="12.8078966"><ele>530.4000000000001</ele><time>2026-04-11T11:09:27.796Z</time></trkpt><trkpt lat="42.9727183" lon="12.8077956"><ele>529.5999999999999</ele><time>2026-04-11T11:09:28.797Z</time></trkpt><trkpt lat="42.9727735" lon="12.8076893"><ele>528.8</ele><time>2026-04-11T11:09:29.796Z</time></trkpt><trkpt lat="42.9728396" lon="12.807575"><ele>528.0</ele><time>2026-04-11T11:09:30.8Z</time></trkpt><trkpt lat="42.9729129" lon="12.8074501"><ele>528.0</ele><time>2026-04-11T11:09:31.799Z</time></trkpt><trkpt lat="42.972993" lon="12.807331"><ele>528.0</ele><time>2026-04-11T11:09:32.8Z</time></trkpt><trkpt lat="42.9730781" lon="12.8072024"><ele>528.0</ele><time>2026-04-11T11:09:33.801Z</time></trkpt><trkpt lat="42.97317" lon="12.8070709"><ele>528.0</ele><time>2026-04-11T11:09:34.81Z</time></trkpt><trkpt lat="42.9732668" lon="12.8069288"><ele>529.0</ele><time>2026-04-11T11:09:35.802Z</time></trkpt><trkpt lat="42.9733725" lon="12.8067738"><ele>530.0</ele><time>2026-04-11T11:09:36.796Z</time></trkpt><trkpt lat="42.9734798" lon="12.8066189"><ele>531.0</ele><time>2026-04-11T11:09:37.811Z</time></trkpt><trkpt lat="42.9736026" lon="12.8064669"><ele>531.0</ele><time>2026-04-11T11:09:38.811Z</time></trkpt><trkpt lat="42.9737351" lon="12.8063141"><ele>531.0</ele><time>2026-04-11T11:09:39.803Z</time></trkpt><trkpt lat="42.973874" lon="12.8061691"><ele>531.0</ele><time>2026-04-11T11:09:40.805Z</time></trkpt><trkpt lat="42.9740114" lon="12.8060525"><ele>528.6666666666666</ele><time>2026-04-11T11:09:41.809Z</time></trkpt><trkpt lat="42.974152" lon="12.8059588"><ele>526.3333333333333</ele><time>2026-04-11T11:09:42.801Z</time></trkpt><trkpt lat="42.9742992" lon="12.8058789"><ele>524.0</ele><time>2026-04-11T11:09:43.802Z</time></trkpt><trkpt lat="42.9744516" lon="12.8057961"><ele>524.0</ele><time>2026-04-11T11:09:44.804Z</time></trkpt><trkpt lat="42.9746081" lon="12.8057098"><ele>524.0</ele><time>2026-04-11T11:09:45.798Z</time></trkpt><trkpt lat="42.9747656" lon="12.8056218"><ele>524.0</ele><time>2026-04-11T11:09:46.802Z</time></trkpt><trkpt lat="42.9749125" lon="12.8055148"><ele>528.0</ele><time>2026-04-11T11:09:47.803Z</time></trkpt><trkpt lat="42.9750542" lon="12.8053846"><ele>532.0</ele><time>2026-04-11T11:09:48.816Z</time></trkpt><trkpt lat="42.9751813" lon="12.8052354"><ele>536.0</ele><time>2026-04-11T11:09:49.806Z</time></trkpt><trkpt lat="42.9752959" lon="12.8050761"><ele>536.0</ele><time>2026-04-11T11:09:50.797Z</time></trkpt><trkpt lat="42.9754029" lon="12.8049078"><ele>536.0</ele><time>2026-04-11T11:09:51.809Z</time></trkpt><trkpt lat="42.9755005" lon="12.8047326"><ele>536.0</ele><time>2026-04-11T11:09:52.796Z</time></trkpt><trkpt lat="42.9755904" lon="12.8045497"><ele>536.0</ele><time>2026-04-11T11:09:53.792Z</time></trkpt><trkpt lat="42.9756749" lon="12.8043606"><ele>536.0</ele><time>2026-04-11T11:09:54.808Z</time></trkpt><trkpt lat="42.9757571" lon="12.804182"><ele>536.0</ele><time>2026-04-11T11:09:55.8Z</time></trkpt><trkpt lat="42.9758421" lon="12.8039962"><ele>537.0</ele><time>2026-04-11T11:09:56.798Z</time></trkpt><trkpt lat="42.9759297" lon="12.8038077"><ele>538.0</ele><time>2026-04-11T11:09:57.799Z</time></trkpt><trkpt lat="42.9760182" lon="12.8036174"><ele>539.0</ele><time>2026-04-11T11:09:58.816Z</time></trkpt><trkpt lat="42.9761067" lon="12.8034226"><ele>539.0</ele><time>2026-04-11T11:09:59.8Z</time></trkpt><trkpt lat="42.9761905" lon="12.8032237"><ele>539.0</ele><time>2026-04-11T11:10:00.81Z</time></trkpt><trkpt lat="42.9762875" lon="12.8030186"><ele>539.0</ele><time>2026-04-11T11:10:01.801Z</time></trkpt><trkpt lat="42.9763883" lon="12.8028228"><ele>532.3333333333333</ele><time>2026-04-11T11:10:02.808Z</time></trkpt><trkpt lat="42.9764905" lon="12.8026166"><ele>525.6666666666666</ele><time>2026-04-11T11:10:03.8Z</time></trkpt><trkpt lat="42.976589" lon="12.802404"><ele>519.0</ele><time>2026-04-11T11:10:04.814Z</time></trkpt><trkpt lat="42.9766857" lon="12.8021855"><ele>521.0</ele><time>2026-04-11T11:10:05.805Z</time></trkpt><trkpt lat="42.9767844" lon="12.8019639"><ele>523.0</ele><time>2026-04-11T11:10:06.797Z</time></trkpt><trkpt lat="42.9768891" lon="12.8017463"><ele>525.0</ele><time>2026-04-11T11:10:07.798Z</time></trkpt><trkpt lat="42.97699" lon="12.8015308"><ele>525.0</ele><time>2026-04-11T11:10:08.801Z</time></trkpt><trkpt lat="42.9770878" lon="12.8013226"><ele>525.0</ele><time>2026-04-11T11:10:09.807Z</time></trkpt><trkpt lat="42.9771797" lon="12.8011244"><ele>525.0</ele><time>2026-04-11T11:10:10.809Z</time></trkpt><trkpt lat="42.9772704" lon="12.8009284"><ele>521.0</ele><time>2026-04-11T11:10:11.809Z</time></trkpt><trkpt lat="42.9773577" lon="12.80074"><ele>517.0</ele><time>2026-04-11T11:10:12.806Z</time></trkpt><trkpt lat="42.9774401" lon="12.8005482"><ele>513.0</ele><time>2026-04-11T11:10:13.798Z</time></trkpt><trkpt lat="42.9775185" lon="12.8003565"><ele>513.6666666666666</ele><time>2026-04-11T11:10:14.803Z</time></trkpt><trkpt lat="42.9776006" lon="12.8001636"><ele>514.3333333333333</ele><time>2026-04-11T11:10:15.8Z</time></trkpt><trkpt lat="42.9776903" lon="12.7999702"><ele>515.0</ele><time>2026-04-11T11:10:16.808Z</time></trkpt><trkpt lat="42.9777799" lon="12.7997728"><ele>515.0</ele><time>2026-04-11T11:10:17.8Z</time></trkpt><trkpt lat="42.9778701" lon="12.799579"><ele>515.0</ele><time>2026-04-11T11:10:18.804Z</time></trkpt><trkpt lat="42.9779644" lon="12.7993765"><ele>515.0</ele><time>2026-04-11T11:10:19.798Z</time></trkpt><trkpt lat="42.9780556" lon="12.7991686"><ele>512.0</ele><time>2026-04-11T11:10:20.815Z</time></trkpt><trkpt lat="42.9781448" lon="12.7989572"><ele>509.0</ele><time>2026-04-11T11:10:21.802Z</time></trkpt><trkpt lat="42.9782184" lon="12.7987329"><ele>506.0</ele><time>2026-04-11T11:10:22.792Z</time></trkpt><trkpt lat="42.9782938" lon="12.7985008"><ele>505.66666666666663</ele><time>2026-04-11T11:10:23.805Z</time></trkpt><trkpt lat="42.9783492" lon="12.7982634"><ele>505.33333333333337</ele><time>2026-04-11T11:10:24.807Z</time></trkpt><trkpt lat="42.9784014" lon="12.7980192"><ele>505.0</ele><time>2026-04-11T11:10:25.793Z</time></trkpt><trkpt lat="42.978451" lon="12.7977891"><ele>513.0</ele><time>2026-04-11T11:10:26.815Z</time></trkpt><trkpt lat="42.9784896" lon="12.7975675"><ele>521.0</ele><time>2026-04-11T11:10:27.799Z</time></trkpt><trkpt lat="42.9785267" lon="12.7973453"><ele>529.0</ele><time>2026-04-11T11:10:28.806Z</time></trkpt><trkpt lat="42.9785659" lon="12.7971173"><ele>529.0</ele><time>2026-04-11T11:10:29.802Z</time></trkpt><trkpt lat="42.9786049" lon="12.7968819"><ele>529.0</ele><time>2026-04-11T11:10:30.801Z</time></trkpt><trkpt lat="42.9786465" lon="12.796648"><ele>529.0</ele><time>2026-04-11T11:10:31.794Z</time></trkpt><trkpt lat="42.9786856" lon="12.796414"><ele>529.6666666666667</ele><time>2026-04-11T11:10:32.799Z</time></trkpt><trkpt lat="42.9787245" lon="12.7961922"><ele>530.3333333333334</ele><time>2026-04-11T11:10:33.797Z</time></trkpt><trkpt lat="42.9787623" lon="12.7959795"><ele>531.0</ele><time>2026-04-11T11:10:34.808Z</time></trkpt><trkpt lat="42.9787972" lon="12.7957747"><ele>531.0</ele><time>2026-04-11T11:10:35.801Z</time></trkpt><trkpt lat="42.9788265" lon="12.7955685"><ele>531.0</ele><time>2026-04-11T11:10:36.804Z</time></trkpt><trkpt lat="42.9788437" lon="12.7953642"><ele>531.0</ele><time>2026-04-11T11:10:37.81Z</time></trkpt><trkpt lat="42.9788469" lon="12.7951558"><ele>530.75</ele><time>2026-04-11T11:10:38.802Z</time></trkpt><trkpt lat="42.9788345" lon="12.7949616"><ele>530.5</ele><time>2026-04-11T11:10:39.804Z</time></trkpt><trkpt lat="42.9788134" lon="12.7947697"><ele>530.25</ele><time>2026-04-11T11:10:40.8Z</time></trkpt><trkpt lat="42.9787849" lon="12.7945631"><ele>530.0</ele><time>2026-04-11T11:10:41.8Z</time></trkpt><trkpt lat="42.9787467" lon="12.7943582"><ele>533.0</ele><time>2026-04-11T11:10:42.807Z</time></trkpt><trkpt lat="42.9786983" lon="12.7941564"><ele>536.0</ele><time>2026-04-11T11:10:43.802Z</time></trkpt><trkpt lat="42.9786219" lon="12.7939575"><ele>539.0</ele><time>2026-04-11T11:10:44.796Z</time></trkpt><trkpt lat="42.9785219" lon="12.7937775"><ele>539.0</ele><time>2026-04-11T11:10:45.806Z</time></trkpt><trkpt lat="42.9784208" lon="12.7936101"><ele>539.0</ele><time>2026-04-11T11:10:46.798Z</time></trkpt><trkpt lat="42.9783296" lon="12.7934484"><ele>539.0</ele><time>2026-04-11T11:10:47.803Z</time></trkpt><trkpt lat="42.9782645" lon="12.7932819"><ele>539.0</ele><time>2026-04-11T11:10:48.799Z</time></trkpt><trkpt lat="42.9782301" lon="12.7931033"><ele>539.25</ele><time>2026-04-11T11:10:49.793Z</time></trkpt><trkpt lat="42.9782384" lon="12.7929097"><ele>539.5</ele><time>2026-04-11T11:10:50.799Z</time></trkpt><trkpt lat="42.9782937" lon="12.7927179"><ele>539.75</ele><time>2026-04-11T11:10:51.793Z</time></trkpt><trkpt lat="42.9783724" lon="12.7925353"><ele>540.0</ele><time>2026-04-11T11:10:52.807Z</time></trkpt><trkpt lat="42.9784636" lon="12.7923563"><ele>540.0</ele><time>2026-04-11T11:10:53.789Z</time></trkpt><trkpt lat="42.9785626" lon="12.7921723"><ele>540.0</ele><time>2026-04-11T11:10:54.796Z</time></trkpt><trkpt lat="42.9786678" lon="12.7919839"><ele>540.0</ele><time>2026-04-11T11:10:55.788Z</time></trkpt><trkpt lat="42.9787793" lon="12.7917863"><ele>531.0</ele><time>2026-04-11T11:10:56.797Z</time></trkpt><trkpt lat="42.9788876" lon="12.7915874"><ele>522.0</ele><time>2026-04-11T11:10:57.792Z</time></trkpt><trkpt lat="42.9789962" lon="12.7913955"><ele>513.0</ele><time>2026-04-11T11:10:58.793Z</time></trkpt><trkpt lat="42.9791027" lon="12.7912025"><ele>523.6666666666666</ele><time>2026-04-11T11:10:59.789Z</time></trkpt><trkpt lat="42.9792027" lon="12.7910142"><ele>534.3333333333333</ele><time>2026-04-11T11:11:00.797Z</time></trkpt><trkpt lat="42.979307" lon="12.7908273"><ele>545.0</ele><time>2026-04-11T11:11:01.8Z</time></trkpt><trkpt lat="42.9794073" lon="12.7906447"><ele>545.0</ele><time>2026-04-11T11:11:02.798Z</time></trkpt><trkpt lat="42.9795015" lon="12.7904698"><ele>545.0</ele><time>2026-04-11T11:11:03.796Z</time></trkpt><trkpt lat="42.9795885" lon="12.790304"><ele>545.0</ele><time>2026-04-11T11:11:04.802Z</time></trkpt><trkpt lat="42.9796685" lon="12.7901392"><ele>538.5</ele><time>2026-04-11T11:11:05.817Z</time></trkpt><trkpt lat="42.9797503" lon="12.7899727"><ele>532.0</ele><time>2026-04-11T11:11:06.799Z</time></trkpt><trkpt lat="42.9798248" lon="12.7897971"><ele>525.5</ele><time>2026-04-11T11:11:07.799Z</time></trkpt><trkpt lat="42.9798947" lon="12.7896187"><ele>519.0</ele><time>2026-04-11T11:11:08.806Z</time></trkpt><trkpt lat="42.9799573" lon="12.7894393"><ele>515.75</ele><time>2026-04-11T11:11:09.805Z</time></trkpt><trkpt lat="42.9800137" lon="12.789265"><ele>512.5</ele><time>2026-04-11T11:11:10.798Z</time></trkpt><trkpt lat="42.9800629" lon="12.7891"><ele>509.25</ele><time>2026-04-11T11:11:11.784Z</time></trkpt><trkpt lat="42.9801035" lon="12.7889391"><ele>506.0</ele><time>2026-04-11T11:11:12.809Z</time></trkpt><trkpt lat="42.9801528" lon="12.7887817"><ele>510.25</ele><time>2026-04-11T11:11:13.791Z</time></trkpt><trkpt lat="42.9802037" lon="12.7886199"><ele>514.5</ele><time>2026-04-11T11:11:14.795Z</time></trkpt><trkpt lat="42.9802657" lon="12.7884575"><ele>518.75</ele><time>2026-04-11T11:11:15.805Z</time></trkpt><trkpt lat="42.9803346" lon="12.7882938"><ele>523.0</ele><time>2026-04-11T11:11:16.802Z</time></trkpt><trkpt lat="42.9804149" lon="12.7881299"><ele>523.0</ele><time>2026-04-11T11:11:17.8Z</time></trkpt><trkpt lat="42.9804998" lon="12.7879761"><ele>523.0</ele><time>2026-04-11T11:11:18.804Z</time></trkpt><trkpt lat="42.9805844" lon="12.7878243"><ele>523.0</ele><time>2026-04-11T11:11:19.799Z</time></trkpt><trkpt lat="42.9806578" lon="12.7876843"><ele>523.0</ele><time>2026-04-11T11:11:20.81Z</time></trkpt><trkpt lat="42.9807248" lon="12.7875505"><ele>524.8</ele><time>2026-04-11T11:11:21.797Z</time></trkpt><trkpt lat="42.9807883" lon="12.7874163"><ele>526.5999999999999</ele><time>2026-04-11T11:11:22.8Z</time></trkpt><trkpt lat="42.9808465" lon="12.7872895"><ele>528.4000000000001</ele><time>2026-04-11T11:11:23.8Z</time></trkpt><trkpt lat="42.9809047" lon="12.7871608"><ele>530.2</ele><time>2026-04-11T11:11:24.795Z</time></trkpt><trkpt lat="42.9809527" lon="12.7870419"><ele>532.0</ele><time>2026-04-11T11:11:25.794Z</time></trkpt><trkpt lat="42.9809947" lon="12.7869377"><ele>528.1666666666667</ele><time>2026-04-11T11:11:26.808Z</time></trkpt><trkpt lat="42.9810268" lon="12.7868306"><ele>524.3333333333334</ele><time>2026-04-11T11:11:27.802Z</time></trkpt><trkpt lat="42.9810531" lon="12.78673"><ele>520.5</ele><time>2026-04-11T11:11:28.806Z</time></trkpt><trkpt lat="42.9810807" lon="12.7866334"><ele>516.6666666666666</ele><time>2026-04-11T11:11:29.807Z</time></trkpt><trkpt lat="42.9811013" lon="12.7865349"><ele>512.8333333333333</ele><time>2026-04-11T11:11:30.802Z</time></trkpt><trkpt lat="42.9811174" lon="12.7864297"><ele>509.0</ele><time>2026-04-11T11:11:31.803Z</time></trkpt><trkpt lat="42.9811281" lon="12.786322"><ele>508.99999999999994</ele><time>2026-04-11T11:11:32.804Z</time></trkpt><trkpt lat="42.9811352" lon="12.786214"><ele>509.0</ele><time>2026-04-11T11:11:33.804Z</time></trkpt><trkpt lat="42.9811419" lon="12.7861036"><ele>509.0</ele><time>2026-04-11T11:11:34.801Z</time></trkpt><trkpt lat="42.9811471" lon="12.7859885"><ele>509.0</ele><time>2026-04-11T11:11:35.795Z</time></trkpt><trkpt lat="42.9811542" lon="12.785874"><ele>508.99999999999994</ele><time>2026-04-11T11:11:36.809Z</time></trkpt><trkpt lat="42.981156" lon="12.7857635"><ele>509.0</ele><time>2026-04-11T11:11:37.802Z</time></trkpt><trkpt lat="42.981155" lon="12.7856546"><ele>507.6</ele><time>2026-04-11T11:11:38.806Z</time></trkpt><trkpt lat="42.981151" lon="12.7855582"><ele>506.2</ele><time>2026-04-11T11:11:39.804Z</time></trkpt><trkpt lat="42.9811477" lon="12.7854704"><ele>504.80000000000007</ele><time>2026-04-11T11:11:40.805Z</time></trkpt><trkpt lat="42.9811346" lon="12.7853073"><ele>503.40000000000003</ele><time>2026-04-11T11:11:42.81Z</time></trkpt><trkpt lat="42.9811059" lon="12.7851579"><ele>502.0</ele><time>2026-04-11T11:11:44.805Z</time></trkpt><trkpt lat="42.9810555" lon="12.7850168"><ele>501.5714285714285</ele><time>2026-04-11T11:11:46.803Z</time></trkpt><trkpt lat="42.9810328" lon="12.784889"><ele>501.1428571428571</ele><time>2026-04-11T11:11:48.804Z</time></trkpt><trkpt lat="42.9810456" lon="12.7847886"><ele>500.7142857142857</ele><time>2026-04-11T11:11:50.806Z</time></trkpt><trkpt lat="42.9810729" lon="12.7847101"><ele>500.2857142857143</ele><time>2026-04-11T11:11:52.81Z</time></trkpt><trkpt lat="42.9811091" lon="12.784628"><ele>499.8571428571429</ele><time>2026-04-11T11:11:55.799Z</time></trkpt><trkpt lat="42.981055" lon="12.7845731"><ele>499.4285714285715</ele><time>2026-04-11T11:11:58.804Z</time></trkpt><trkpt lat="42.9809917" lon="12.7846128"><ele>499.00000000000006</ele><time>2026-04-11T11:12:54.801Z</time></trkpt><trkpt lat="42.9809727" lon="12.7847233"><ele>499.0</ele><time>2026-04-11T11:12:57.802Z</time></trkpt><trkpt lat="42.9809858" lon="12.7848325"><ele>499.0</ele><time>2026-04-11T11:12:59.809Z</time></trkpt><trkpt lat="42.9810206" lon="12.7849581"><ele>499.0</ele><time>2026-04-11T11:13:01.795Z</time></trkpt><trkpt lat="42.9810709" lon="12.7850983"><ele>499.0</ele><time>2026-04-11T11:13:03.806Z</time></trkpt><trkpt lat="42.9810987" lon="12.7852344"><ele>499.0</ele><time>2026-04-11T11:13:05.797Z</time></trkpt><trkpt lat="42.9811082" lon="12.7853547"><ele>499.6</ele><time>2026-04-11T11:13:07.802Z</time></trkpt><trkpt lat="42.9811183" lon="12.7854843"><ele>500.2</ele><time>2026-04-11T11:13:09.809Z</time></trkpt><trkpt lat="42.9811285" lon="12.7856372"><ele>500.80000000000007</ele><time>2026-04-11T11:13:11.814Z</time></trkpt><trkpt lat="42.9811267" lon="12.785798"><ele>501.40000000000003</ele><time>2026-04-11T11:13:13.797Z</time></trkpt><trkpt lat="42.9811185" lon="12.7859262"><ele>502.0</ele><time>2026-04-11T11:13:15.801Z</time></trkpt><trkpt lat="42.9810747" lon="12.7860244"><ele>509.0</ele><time>2026-04-11T11:13:18.812Z</time></trkpt><trkpt lat="42.9810379" lon="12.7861262"><ele>509.0</ele><time>2026-04-11T11:13:24.798Z</time></trkpt></trkseg><trkseg><trkpt lat="42.9810755" lon="12.7860724"><ele>509.0</ele><time>2026-04-11T12:36:51.406Z</time></trkpt><trkpt lat="42.9810246" lon="12.7861312"><ele>509.0</ele><time>2026-04-11T12:36:55.396Z</time></trkpt><trkpt lat="42.9810149" lon="12.7862732"><ele>509.0</ele><time>2026-04-11T12:36:57.406Z</time></trkpt><trkpt lat="42.9809752" lon="12.7864184"><ele>509.0</ele><time>2026-04-11T12:36:59.399Z</time></trkpt><trkpt lat="42.9809214" lon="12.7865481"><ele>509.0</ele><time>2026-04-11T12:37:01.391Z</time></trkpt><trkpt lat="42.9808831" lon="12.7866332"><ele>508.49999999999994</ele><time>2026-04-11T12:37:03.398Z</time></trkpt><trkpt lat="42.980845" lon="12.7867193"><ele>508.0</ele><time>2026-04-11T12:44:01.394Z</time></trkpt><trkpt lat="42.9808164" lon="12.7868228"><ele>507.5</ele><time>2026-04-11T12:44:03.405Z</time></trkpt><trkpt lat="42.9807859" lon="12.7869829"><ele>507.0</ele><time>2026-04-11T12:44:05.393Z</time></trkpt><trkpt lat="42.980755" lon="12.7870826"><ele>506.49999999999994</ele><time>2026-04-11T12:44:06.395Z</time></trkpt><trkpt lat="42.980733" lon="12.787186"><ele>506.0</ele><time>2026-04-11T12:44:07.399Z</time></trkpt><trkpt lat="42.9807437" lon="12.7873268"><ele>505.99999999999994</ele><time>2026-04-11T12:44:09.393Z</time></trkpt><trkpt lat="42.9808074" lon="12.7873714"><ele>506.0</ele><time>2026-04-11T12:44:12.404Z</time></trkpt><trkpt lat="42.9808916" lon="12.7872884"><ele>506.0</ele><time>2026-04-11T12:44:15.389Z</time></trkpt><trkpt lat="42.9809381" lon="12.7871596"><ele>506.0</ele><time>2026-04-11T12:44:17.394Z</time></trkpt><trkpt lat="42.9809623" lon="12.78708"><ele>505.99999999999994</ele><time>2026-04-11T12:44:18.399Z</time></trkpt><trkpt lat="42.9809919" lon="12.7869906"><ele>506.0</ele><time>2026-04-11T12:44:19.401Z</time></trkpt><trkpt lat="42.9810195" lon="12.786895"><ele>506.49999999999994</ele><time>2026-04-11T12:44:20.396Z</time></trkpt><trkpt lat="42.9810447" lon="12.7868011"><ele>507.0</ele><time>2026-04-11T12:44:21.399Z</time></trkpt><trkpt lat="42.9810665" lon="12.7867021"><ele>507.5</ele><time>2026-04-11T12:44:22.395Z</time></trkpt><trkpt lat="42.981087" lon="12.7865984"><ele>508.0</ele><time>2026-04-11T12:44:23.401Z</time></trkpt><trkpt lat="42.981104" lon="12.7864857"><ele>508.49999999999994</ele><time>2026-04-11T12:44:24.407Z</time></trkpt><trkpt lat="42.9811184" lon="12.7863809"><ele>509.0</ele><time>2026-04-11T12:44:25.392Z</time></trkpt><trkpt lat="42.9811328" lon="12.7862645"><ele>509.0</ele><time>2026-04-11T12:44:26.401Z</time></trkpt><trkpt lat="42.9811474" lon="12.7861478"><ele>509.0</ele><time>2026-04-11T12:44:27.395Z</time></trkpt><trkpt lat="42.9811539" lon="12.7860208"><ele>509.0</ele><time>2026-04-11T12:44:28.403Z</time></trkpt><trkpt lat="42.9811598" lon="12.7858934"><ele>509.0</ele><time>2026-04-11T12:44:29.395Z</time></trkpt><trkpt lat="42.9811622" lon="12.785759"><ele>509.0</ele><time>2026-04-11T12:44:30.404Z</time></trkpt><trkpt lat="42.9811605" lon="12.7856235"><ele>507.8333333333333</ele><time>2026-04-11T12:44:31.402Z</time></trkpt><trkpt lat="42.9811554" lon="12.7854878"><ele>506.66666666666663</ele><time>2026-04-11T12:44:32.402Z</time></trkpt><trkpt lat="42.9811483" lon="12.7853627"><ele>505.5</ele><time>2026-04-11T12:44:33.419Z</time></trkpt><trkpt lat="42.9811348" lon="12.7852429"><ele>504.33333333333337</ele><time>2026-04-11T12:44:34.41Z</time></trkpt><trkpt lat="42.9811054" lon="12.7851322"><ele>503.1666666666667</ele><time>2026-04-11T12:44:35.407Z</time></trkpt><trkpt lat="42.981076" lon="12.7850404"><ele>502.0</ele><time>2026-04-11T12:44:36.415Z</time></trkpt><trkpt lat="42.9810474" lon="12.7849559"><ele>501.50000000000006</ele><time>2026-04-11T12:44:37.398Z</time></trkpt><trkpt lat="42.9810154" lon="12.7848788"><ele>501.0</ele><time>2026-04-11T12:44:38.412Z</time></trkpt><trkpt lat="42.9809509" lon="12.7847414"><ele>500.5</ele><time>2026-04-11T12:44:40.411Z</time></trkpt><trkpt lat="42.9809021" lon="12.7846754"><ele>500.0</ele><time>2026-04-11T12:44:41.397Z</time></trkpt><trkpt lat="42.980854" lon="12.78461"><ele>499.50000000000006</ele><time>2026-04-11T12:44:42.406Z</time></trkpt><trkpt lat="42.9807963" lon="12.7845351"><ele>499.0</ele><time>2026-04-11T12:44:43.402Z</time></trkpt><trkpt lat="42.9807281" lon="12.7844503"><ele>498.4</ele><time>2026-04-11T12:44:44.409Z</time></trkpt><trkpt lat="42.9806505" lon="12.7843691"><ele>497.79999999999995</ele><time>2026-04-11T12:44:45.394Z</time></trkpt><trkpt lat="42.9805657" lon="12.78428"><ele>497.20000000000005</ele><time>2026-04-11T12:44:46.403Z</time></trkpt><trkpt lat="42.9804814" lon="12.7841878"><ele>496.6</ele><time>2026-04-11T12:44:47.402Z</time></trkpt><trkpt lat="42.9803933" lon="12.7840909"><ele>496.0</ele><time>2026-04-11T12:44:48.409Z</time></trkpt><trkpt lat="42.9803037" lon="12.7839947"><ele>495.8</ele><time>2026-04-11T12:44:49.399Z</time></trkpt><trkpt lat="42.98021" lon="12.7839045"><ele>495.6</ele><time>2026-04-11T12:44:50.399Z</time></trkpt><trkpt lat="42.9801144" lon="12.7838088"><ele>495.4</ele><time>2026-04-11T12:44:51.399Z</time></trkpt><trkpt lat="42.9800323" lon="12.7837223"><ele>495.2</ele><time>2026-04-11T12:44:52.409Z</time></trkpt><trkpt lat="42.9799517" lon="12.7836403"><ele>495.0</ele><time>2026-04-11T12:44:53.402Z</time></trkpt><trkpt lat="42.9798886" lon="12.7835502"><ele>494.4</ele><time>2026-04-11T12:44:54.404Z</time></trkpt><trkpt lat="42.9798323" lon="12.7834545"><ele>493.8</ele><time>2026-04-11T12:44:55.396Z</time></trkpt><trkpt lat="42.9797841" lon="12.783351"><ele>493.20000000000005</ele><time>2026-04-11T12:44:56.398Z</time></trkpt><trkpt lat="42.9797378" lon="12.783247"><ele>492.6</ele><time>2026-04-11T12:44:57.395Z</time></trkpt><trkpt lat="42.9797021" lon="12.7831268"><ele>492.0</ele><time>2026-04-11T12:44:58.405Z</time></trkpt><trkpt lat="42.9796758" lon="12.782992"><ele>492.0</ele><time>2026-04-11T12:44:59.405Z</time></trkpt><trkpt lat="42.9796641" lon="12.7828535"><ele>492.00000000000006</ele><time>2026-04-11T12:45:00.405Z</time></trkpt><trkpt lat="42.9796519" lon="12.7827048"><ele>492.00000000000006</ele><time>2026-04-11T12:45:01.396Z</time></trkpt><trkpt lat="42.9796427" lon="12.7825546"><ele>492.0</ele><time>2026-04-11T12:45:02.405Z</time></trkpt><trkpt lat="42.9796349" lon="12.7823966"><ele>492.0</ele><time>2026-04-11T12:45:03.402Z</time></trkpt><trkpt lat="42.9796327" lon="12.782235"><ele>492.25</ele><time>2026-04-11T12:45:04.412Z</time></trkpt><trkpt lat="42.9796495" lon="12.7820709"><ele>492.5</ele><time>2026-04-11T12:45:05.397Z</time></trkpt><trkpt lat="42.9796799" lon="12.7819021"><ele>492.75</ele><time>2026-04-11T12:45:06.403Z</time></trkpt><trkpt lat="42.9797138" lon="12.7817289"><ele>493.0</ele><time>2026-04-11T12:45:07.397Z</time></trkpt><trkpt lat="42.9797534" lon="12.7815583"><ele>493.75</ele><time>2026-04-11T12:45:08.412Z</time></trkpt><trkpt lat="42.9797939" lon="12.7813869"><ele>494.5</ele><time>2026-04-11T12:45:09.389Z</time></trkpt><trkpt lat="42.9798413" lon="12.7812228"><ele>495.25</ele><time>2026-04-11T12:45:10.404Z</time></trkpt><trkpt lat="42.9798911" lon="12.7810625"><ele>496.0</ele><time>2026-04-11T12:45:11.393Z</time></trkpt><trkpt lat="42.9799498" lon="12.780916"><ele>494.0</ele><time>2026-04-11T12:45:12.396Z</time></trkpt><trkpt lat="42.9800202" lon="12.7807719"><ele>492.0</ele><time>2026-04-11T12:45:13.393Z</time></trkpt><trkpt lat="42.9800974" lon="12.7806456"><ele>490.0</ele><time>2026-04-11T12:45:14.409Z</time></trkpt><trkpt lat="42.9801867" lon="12.7805349"><ele>488.0</ele><time>2026-04-11T12:45:15.402Z</time></trkpt><trkpt lat="42.9802802" lon="12.7804293"><ele>488.0</ele><time>2026-04-11T12:45:16.396Z</time></trkpt><trkpt lat="42.9803757" lon="12.7803213"><ele>488.0</ele><time>2026-04-11T12:45:17.404Z</time></trkpt><trkpt lat="42.9804666" lon="12.7802049"><ele>488.0</ele><time>2026-04-11T12:45:18.397Z</time></trkpt><trkpt lat="42.9805484" lon="12.7800712"><ele>488.0</ele><time>2026-04-11T12:45:19.399Z</time></trkpt><trkpt lat="42.9806204" lon="12.7799142"><ele>487.5</ele><time>2026-04-11T12:45:20.399Z</time></trkpt><trkpt lat="42.9806805" lon="12.7797444"><ele>487.0</ele><time>2026-04-11T12:45:21.395Z</time></trkpt><trkpt lat="42.9807401" lon="12.7795732"><ele>486.5</ele><time>2026-04-11T12:45:22.404Z</time></trkpt><trkpt lat="42.9807999" lon="12.7794025"><ele>486.0</ele><time>2026-04-11T12:45:23.39Z</time></trkpt><trkpt lat="42.9808576" lon="12.7792378"><ele>486.0</ele><time>2026-04-11T12:45:24.403Z</time></trkpt><trkpt lat="42.9809106" lon="12.7790869"><ele>486.0</ele><time>2026-04-11T12:45:25.388Z</time></trkpt><trkpt lat="42.9809628" lon="12.7789363"><ele>486.0</ele><time>2026-04-11T12:45:26.409Z</time></trkpt><trkpt lat="42.9810119" lon="12.7787856"><ele>486.0</ele><time>2026-04-11T12:45:27.408Z</time></trkpt><trkpt lat="42.9810561" lon="12.7786294"><ele>486.5</ele><time>2026-04-11T12:45:28.403Z</time></trkpt><trkpt lat="42.981098" lon="12.7784726"><ele>487.0</ele><time>2026-04-11T12:45:29.404Z</time></trkpt><trkpt lat="42.9811314" lon="12.7783046"><ele>487.5</ele><time>2026-04-11T12:45:30.4Z</time></trkpt><trkpt lat="42.9811536" lon="12.7781377"><ele>488.0</ele><time>2026-04-11T12:45:31.402Z</time></trkpt><trkpt lat="42.981164" lon="12.7779621"><ele>488.0</ele><time>2026-04-11T12:45:32.4Z</time></trkpt><trkpt lat="42.9811708" lon="12.7778001"><ele>487.99999999999994</ele><time>2026-04-11T12:45:33.398Z</time></trkpt><trkpt lat="42.9811732" lon="12.7776505"><ele>487.99999999999994</ele><time>2026-04-11T12:45:34.396Z</time></trkpt><trkpt lat="42.9811763" lon="12.777513"><ele>488.0</ele><time>2026-04-11T12:45:35.401Z</time></trkpt><trkpt lat="42.9811814" lon="12.7773872"><ele>488.0</ele><time>2026-04-11T12:45:36.397Z</time></trkpt><trkpt lat="42.9811902" lon="12.777277"><ele>487.99999999999994</ele><time>2026-04-11T12:45:37.392Z</time></trkpt><trkpt lat="42.9812034" lon="12.7771709"><ele>488.0</ele><time>2026-04-11T12:45:38.397Z</time></trkpt><trkpt lat="42.9812119" lon="12.7770707"><ele>488.0</ele><time>2026-04-11T12:45:39.39Z</time></trkpt><trkpt lat="42.9812172" lon="12.7769771"><ele>488.0</ele><time>2026-04-11T12:45:40.391Z</time></trkpt><trkpt lat="42.9812232" lon="12.7768892"><ele>487.99999999999994</ele><time>2026-04-11T12:45:41.383Z</time></trkpt><trkpt lat="42.9812509" lon="12.7767515"><ele>488.0</ele><time>2026-04-11T12:45:43.385Z</time></trkpt><trkpt lat="42.9813142" lon="12.776663"><ele>488.0</ele><time>2026-04-11T12:45:45.389Z</time></trkpt><trkpt lat="42.9814032" lon="12.7766364"><ele>487.99999999999994</ele><time>2026-04-11T12:45:47.385Z</time></trkpt><trkpt lat="42.981509" lon="12.776695"><ele>487.99999999999994</ele><time>2026-04-11T12:45:49.377Z</time></trkpt><trkpt lat="42.9815815" lon="12.7768049"><ele>488.0</ele><time>2026-04-11T12:45:51.395Z</time></trkpt><trkpt lat="42.9816062" lon="12.7769232"><ele>488.0</ele><time>2026-04-11T12:45:53.391Z</time></trkpt><trkpt lat="42.9816412" lon="12.7770344"><ele>487.99999999999994</ele><time>2026-04-11T12:45:56.392Z</time></trkpt><trkpt lat="42.9816637" lon="12.7771289"><ele>488.0</ele><time>2026-04-11T12:45:59.383Z</time></trkpt><trkpt lat="42.9816994" lon="12.7772064"><ele>487.99999999999994</ele><time>2026-04-11T12:46:03.4Z</time></trkpt><trkpt lat="42.9817605" lon="12.777229"><ele>487.99999999999994</ele><time>2026-04-11T12:46:08.393Z</time></trkpt><trkpt lat="42.9818505" lon="12.7771797"><ele>488.0</ele><time>2026-04-11T12:46:11.389Z</time></trkpt><trkpt lat="42.9819103" lon="12.7771306"><ele>487.99999999999994</ele><time>2026-04-11T12:46:13.399Z</time></trkpt><trkpt lat="42.9819685" lon="12.7770883"><ele>487.99999999999994</ele><time>2026-04-11T12:46:15.396Z</time></trkpt><trkpt lat="42.98205" lon="12.7770307"><ele>487.99999999999994</ele><time>2026-04-11T12:46:18.408Z</time></trkpt><trkpt lat="42.9820679" lon="12.7769338"><ele>488.0</ele><time>2026-04-11T12:46:22.397Z</time></trkpt><trkpt lat="42.9820737" lon="12.7768477"><ele>487.99999999999994</ele><time>2026-04-11T12:46:26.397Z</time></trkpt><trkpt lat="42.9820725" lon="12.7767558"><ele>487.99999999999994</ele><time>2026-04-11T12:46:28.392Z</time></trkpt><trkpt lat="42.9820734" lon="12.7766513"><ele>488.0</ele><time>2026-04-11T12:46:30.401Z</time></trkpt><trkpt lat="42.9820707" lon="12.7765539"><ele>487.99999999999994</ele><time>2026-04-11T12:46:32.4Z</time></trkpt><trkpt lat="42.9820758" lon="12.7764338"><ele>487.99999999999994</ele><time>2026-04-11T12:46:34.391Z</time></trkpt><trkpt lat="42.982083" lon="12.7763032"><ele>487.59999999999997</ele><time>2026-04-11T12:46:36.399Z</time></trkpt><trkpt lat="42.9820852" lon="12.7761736"><ele>487.19999999999993</ele><time>2026-04-11T12:46:38.395Z</time></trkpt><trkpt lat="42.9820822" lon="12.7760499"><ele>486.8</ele><time>2026-04-11T12:46:40.394Z</time></trkpt><trkpt lat="42.9820737" lon="12.7759145"><ele>486.4</ele><time>2026-04-11T12:46:42.393Z</time></trkpt><trkpt lat="42.9820762" lon="12.7757853"><ele>486.0</ele><time>2026-04-11T12:46:44.394Z</time></trkpt><trkpt lat="42.9820724" lon="12.7756602"><ele>485.5</ele><time>2026-04-11T12:46:46.398Z</time></trkpt><trkpt lat="42.9820727" lon="12.7755332"><ele>485.0</ele><time>2026-04-11T12:46:48.409Z</time></trkpt><trkpt lat="42.9820823" lon="12.7754072"><ele>484.5</ele><time>2026-04-11T12:46:50.394Z</time></trkpt><trkpt lat="42.9821266" lon="12.7752997"><ele>484.0</ele><time>2026-04-11T12:46:52.415Z</time></trkpt><trkpt lat="42.9821952" lon="12.7752738"><ele>483.5</ele><time>2026-04-11T12:46:55.388Z</time></trkpt><trkpt lat="42.9822618" lon="12.775203"><ele>483.0</ele><time>2026-04-11T12:46:59.39Z</time></trkpt><trkpt lat="42.9822857" lon="12.7750601"><ele>482.1666666666667</ele><time>2026-04-11T12:47:02.388Z</time></trkpt><trkpt lat="42.9823025" lon="12.7749594"><ele>481.33333333333337</ele><time>2026-04-11T12:47:04.383Z</time></trkpt><trkpt lat="42.9823219" lon="12.7748709"><ele>480.5</ele><time>2026-04-11T12:47:06.398Z</time></trkpt><trkpt lat="42.9823418" lon="12.774746"><ele>479.6666666666667</ele><time>2026-04-11T12:47:09.386Z</time></trkpt><trkpt lat="42.9823176" lon="12.7746291"><ele>478.83333333333337</ele><time>2026-04-11T12:47:12.395Z</time></trkpt><trkpt lat="42.9822595" lon="12.7745805"><ele>478.0</ele><time>2026-04-11T12:47:14.383Z</time></trkpt><trkpt lat="42.9821996" lon="12.7745143"><ele>478.00000000000006</ele><time>2026-04-11T12:47:17.382Z</time></trkpt><trkpt lat="42.9822664" lon="12.7744916"><ele>478.0</ele><time>2026-04-11T12:48:34.397Z</time></trkpt><trkpt lat="42.9821943" lon="12.7744944"><ele>478.0</ele><time>2026-04-11T12:48:47.386Z</time></trkpt><trkpt lat="42.9821444" lon="12.7744367"><ele>478.0</ele><time>2026-04-11T12:49:47.396Z</time></trkpt><trkpt lat="42.982057" lon="12.7744068"><ele>478.00000000000006</ele><time>2026-04-11T12:49:49.399Z</time></trkpt><trkpt lat="42.9819586" lon="12.7744348"><ele>478.0</ele><time>2026-04-11T12:49:51.396Z</time></trkpt><trkpt lat="42.9818797" lon="12.7744389"><ele>478.00000000000006</ele><time>2026-04-11T12:49:53.394Z</time></trkpt><trkpt lat="42.9818136" lon="12.774431"><ele>478.0</ele><time>2026-04-11T12:49:56.387Z</time></trkpt><trkpt lat="42.9817536" lon="12.7744021"><ele>478.0</ele><time>2026-04-11T12:50:01.381Z</time></trkpt><trkpt lat="42.9816351" lon="12.7743374"><ele>478.0</ele><time>2026-04-11T12:50:03.395Z</time></trkpt><trkpt lat="42.9815551" lon="12.7743152"><ele>478.00000000000006</ele><time>2026-04-11T12:50:04.397Z</time></trkpt><trkpt lat="42.9814668" lon="12.7742845"><ele>478.0</ele><time>2026-04-11T12:50:06.418Z</time></trkpt><trkpt lat="42.9813687" lon="12.7742549"><ele>476.4</ele><time>2026-04-11T12:50:08.395Z</time></trkpt><trkpt lat="42.9812781" lon="12.7742328"><ele>474.79999999999995</ele><time>2026-04-11T12:50:10.399Z</time></trkpt><trkpt lat="42.981169" lon="12.7742167"><ele>473.2</ele><time>2026-04-11T12:50:12.394Z</time></trkpt><trkpt lat="42.9810525" lon="12.7741827"><ele>471.6</ele><time>2026-04-11T12:50:14.411Z</time></trkpt><trkpt lat="42.9809906" lon="12.774166"><ele>470.0</ele><time>2026-04-11T12:50:15.39Z</time></trkpt><trkpt lat="42.9808803" lon="12.7741343"><ele>473.2</ele><time>2026-04-11T12:50:17.392Z</time></trkpt><trkpt lat="42.9807702" lon="12.7740803"><ele>476.4</ele><time>2026-04-11T12:50:19.395Z</time></trkpt><trkpt lat="42.9806715" lon="12.7740151"><ele>479.6</ele><time>2026-04-11T12:50:21.389Z</time></trkpt><trkpt lat="42.9806034" lon="12.7739582"><ele>482.8</ele><time>2026-04-11T12:50:23.39Z</time></trkpt><trkpt lat="42.9805323" lon="12.7739621"><ele>486.0</ele><time>2026-04-11T12:50:27.384Z</time></trkpt><trkpt lat="42.9805919" lon="12.7740433"><ele>486.0</ele><time>2026-04-11T12:50:29.396Z</time></trkpt><trkpt lat="42.9806489" lon="12.7740975"><ele>486.0</ele><time>2026-04-11T12:50:30.403Z</time></trkpt><trkpt lat="42.9807178" lon="12.7741473"><ele>486.0</ele><time>2026-04-11T12:50:31.39Z</time></trkpt><trkpt lat="42.9807954" lon="12.7742089"><ele>486.0</ele><time>2026-04-11T12:50:32.391Z</time></trkpt><trkpt lat="42.9808749" lon="12.7742801"><ele>486.0</ele><time>2026-04-11T12:50:33.399Z</time></trkpt><trkpt lat="42.9809489" lon="12.7743571"><ele>486.0</ele><time>2026-04-11T12:50:34.408Z</time></trkpt><trkpt lat="42.9810143" lon="12.7744432"><ele>485.6</ele><time>2026-04-11T12:50:35.392Z</time></trkpt><trkpt lat="42.9810791" lon="12.7745441"><ele>485.20000000000005</ele><time>2026-04-11T12:50:36.388Z</time></trkpt><trkpt lat="42.9811315" lon="12.774646"><ele>484.79999999999995</ele><time>2026-04-11T12:50:37.428Z</time></trkpt><trkpt lat="42.9811819" lon="12.7747602"><ele>484.4</ele><time>2026-04-11T12:50:38.401Z</time></trkpt><trkpt lat="42.9812274" lon="12.7748775"><ele>484.0</ele><time>2026-04-11T12:50:39.388Z</time></trkpt><trkpt lat="42.9812682" lon="12.7749827"><ele>484.0</ele><time>2026-04-11T12:50:40.409Z</time></trkpt><trkpt lat="42.9813057" lon="12.7750883"><ele>484.0</ele><time>2026-04-11T12:50:41.396Z</time></trkpt><trkpt lat="42.9813418" lon="12.7752011"><ele>484.0</ele><time>2026-04-11T12:50:42.396Z</time></trkpt><trkpt lat="42.981371" lon="12.7753209"><ele>484.0</ele><time>2026-04-11T12:50:43.382Z</time></trkpt><trkpt lat="42.9813941" lon="12.7754475"><ele>484.0</ele><time>2026-04-11T12:50:44.41Z</time></trkpt><trkpt lat="42.9814132" lon="12.7755884"><ele>484.79999999999995</ele><time>2026-04-11T12:50:45.393Z</time></trkpt><trkpt lat="42.9814242" lon="12.7757326"><ele>485.59999999999997</ele><time>2026-04-11T12:50:46.415Z</time></trkpt><trkpt lat="42.9814255" lon="12.7758754"><ele>486.4</ele><time>2026-04-11T12:50:47.387Z</time></trkpt><trkpt lat="42.9814091" lon="12.7760117"><ele>487.2</ele><time>2026-04-11T12:50:48.401Z</time></trkpt><trkpt lat="42.9813764" lon="12.7761427"><ele>488.0</ele><time>2026-04-11T12:50:49.397Z</time></trkpt><trkpt lat="42.9813381" lon="12.7762643"><ele>488.0</ele><time>2026-04-11T12:50:50.4Z</time></trkpt><trkpt lat="42.981302" lon="12.7763782"><ele>487.99999999999994</ele><time>2026-04-11T12:50:51.393Z</time></trkpt><trkpt lat="42.9812617" lon="12.7764943"><ele>487.99999999999994</ele><time>2026-04-11T12:50:52.394Z</time></trkpt><trkpt lat="42.981227" lon="12.7766109"><ele>488.0</ele><time>2026-04-11T12:50:53.398Z</time></trkpt><trkpt lat="42.9812015" lon="12.7767358"><ele>488.0</ele><time>2026-04-11T12:50:54.404Z</time></trkpt><trkpt lat="42.981184" lon="12.7768665"><ele>488.2</ele><time>2026-04-11T12:50:55.387Z</time></trkpt><trkpt lat="42.9811701" lon="12.7770014"><ele>488.4</ele><time>2026-04-11T12:50:56.396Z</time></trkpt><trkpt lat="42.9811558" lon="12.7771478"><ele>488.59999999999997</ele><time>2026-04-11T12:50:57.39Z</time></trkpt><trkpt lat="42.9811456" lon="12.7772965"><ele>488.79999999999995</ele><time>2026-04-11T12:50:58.399Z</time></trkpt><trkpt lat="42.9811423" lon="12.7774533"><ele>489.0</ele><time>2026-04-11T12:50:59.387Z</time></trkpt><trkpt lat="42.9811384" lon="12.7776189"><ele>488.75</ele><time>2026-04-11T12:51:00.405Z</time></trkpt><trkpt lat="42.981137" lon="12.7777956"><ele>488.5</ele><time>2026-04-11T12:51:01.393Z</time></trkpt><trkpt lat="42.9811298" lon="12.7779726"><ele>488.25</ele><time>2026-04-11T12:51:02.393Z</time></trkpt><trkpt lat="42.9811132" lon="12.7781545"><ele>488.0</ele><time>2026-04-11T12:51:03.393Z</time></trkpt><trkpt lat="42.9810851" lon="12.7783381"><ele>487.5</ele><time>2026-04-11T12:51:04.398Z</time></trkpt><trkpt lat="42.9810429" lon="12.7785254"><ele>487.0</ele><time>2026-04-11T12:51:05.392Z</time></trkpt><trkpt lat="42.9809922" lon="12.7787058"><ele>486.5</ele><time>2026-04-11T12:51:06.394Z</time></trkpt><trkpt lat="42.9809278" lon="12.7788845"><ele>486.0</ele><time>2026-04-11T12:51:07.421Z</time></trkpt><trkpt lat="42.9808608" lon="12.7790702"><ele>487.66666666666663</ele><time>2026-04-11T12:51:08.399Z</time></trkpt><trkpt lat="42.9807958" lon="12.7792677"><ele>489.3333333333333</ele><time>2026-04-11T12:51:09.397Z</time></trkpt><trkpt lat="42.9807321" lon="12.779457"><ele>491.0</ele><time>2026-04-11T12:51:10.416Z</time></trkpt><trkpt lat="42.9806639" lon="12.7796396"><ele>491.0</ele><time>2026-04-11T12:51:11.394Z</time></trkpt><trkpt lat="42.9805931" lon="12.7798127"><ele>491.0</ele><time>2026-04-11T12:51:12.396Z</time></trkpt><trkpt lat="42.9805188" lon="12.779977"><ele>491.0</ele><time>2026-04-11T12:51:13.389Z</time></trkpt><trkpt lat="42.9804367" lon="12.7801302"><ele>491.0</ele><time>2026-04-11T12:51:14.411Z</time></trkpt><trkpt lat="42.9803389" lon="12.7802568"><ele>490.25</ele><time>2026-04-11T12:51:15.395Z</time></trkpt><trkpt lat="42.9802364" lon="12.7803704"><ele>489.5</ele><time>2026-04-11T12:51:16.393Z</time></trkpt><trkpt lat="42.980142" lon="12.7804914"><ele>488.75</ele><time>2026-04-11T12:51:17.401Z</time></trkpt><trkpt lat="42.9800512" lon="12.7806216"><ele>488.0</ele><time>2026-04-11T12:51:18.409Z</time></trkpt><trkpt lat="42.9799704" lon="12.7807602"><ele>490.0</ele><time>2026-04-11T12:51:19.397Z</time></trkpt><trkpt lat="42.9798968" lon="12.7809141"><ele>492.0</ele><time>2026-04-11T12:51:20.404Z</time></trkpt><trkpt lat="42.9798304" lon="12.7810751"><ele>494.0</ele><time>2026-04-11T12:51:21.41Z</time></trkpt><trkpt lat="42.979769" lon="12.7812416"><ele>496.0</ele><time>2026-04-11T12:51:22.399Z</time></trkpt><trkpt lat="42.9797244" lon="12.7814099"><ele>496.0</ele><time>2026-04-11T12:51:23.406Z</time></trkpt><trkpt lat="42.9796871" lon="12.7815806"><ele>496.0</ele><time>2026-04-11T12:51:24.388Z</time></trkpt><trkpt lat="42.9796536" lon="12.7817525"><ele>496.0</ele><time>2026-04-11T12:51:25.384Z</time></trkpt><trkpt lat="42.9796221" lon="12.7819307"><ele>496.0</ele><time>2026-04-11T12:51:26.391Z</time></trkpt><trkpt lat="42.9796009" lon="12.782115"><ele>495.25</ele><time>2026-04-11T12:51:27.375Z</time></trkpt><trkpt lat="42.9795929" lon="12.7822992"><ele>494.5</ele><time>2026-04-11T12:51:28.403Z</time></trkpt><trkpt lat="42.979595" lon="12.7824862"><ele>493.75</ele><time>2026-04-11T12:51:29.395Z</time></trkpt><trkpt lat="42.9796028" lon="12.7826696"><ele>493.0</ele><time>2026-04-11T12:51:30.417Z</time></trkpt><trkpt lat="42.9796189" lon="12.7828602"><ele>492.75</ele><time>2026-04-11T12:51:31.389Z</time></trkpt><trkpt lat="42.9796425" lon="12.7830366"><ele>492.5</ele><time>2026-04-11T12:51:32.387Z</time></trkpt><trkpt lat="42.9796854" lon="12.7831997"><ele>492.25</ele><time>2026-04-11T12:51:33.391Z</time></trkpt><trkpt lat="42.9797437" lon="12.7833504"><ele>492.0</ele><time>2026-04-11T12:51:34.388Z</time></trkpt><trkpt lat="42.9798192" lon="12.7834841"><ele>492.75</ele><time>2026-04-11T12:51:35.393Z</time></trkpt><trkpt lat="42.9799132" lon="12.7836014"><ele>493.5</ele><time>2026-04-11T12:51:36.398Z</time></trkpt><trkpt lat="42.9800054" lon="12.7837056"><ele>494.25</ele><time>2026-04-11T12:51:37.392Z</time></trkpt><trkpt lat="42.9800965" lon="12.7838069"><ele>495.0</ele><time>2026-04-11T12:51:38.387Z</time></trkpt><trkpt lat="42.9801851" lon="12.7838973"><ele>495.0</ele><time>2026-04-11T12:51:39.397Z</time></trkpt><trkpt lat="42.9802702" lon="12.7839783"><ele>495.0</ele><time>2026-04-11T12:51:40.397Z</time></trkpt><trkpt lat="42.9803482" lon="12.7840578"><ele>495.0</ele><time>2026-04-11T12:51:41.389Z</time></trkpt><trkpt lat="42.9804189" lon="12.7841351"><ele>495.0</ele><time>2026-04-11T12:51:42.394Z</time></trkpt><trkpt lat="42.9804805" lon="12.7842091"><ele>495.0</ele><time>2026-04-11T12:51:43.39Z</time></trkpt><trkpt lat="42.980542" lon="12.7842711"><ele>495.0</ele><time>2026-04-11T12:51:44.409Z</time></trkpt><trkpt lat="42.9806032" lon="12.7843284"><ele>495.0</ele><time>2026-04-11T12:51:45.396Z</time></trkpt><trkpt lat="42.9806566" lon="12.784385"><ele>495.0</ele><time>2026-04-11T12:51:46.391Z</time></trkpt><trkpt lat="42.9807068" lon="12.7844396"><ele>495.0</ele><time>2026-04-11T12:51:47.4Z</time></trkpt><trkpt lat="42.9807955" lon="12.7845467"><ele>495.0</ele><time>2026-04-11T12:51:49.433Z</time></trkpt><trkpt lat="42.9808611" lon="12.784625"><ele>495.0</ele><time>2026-04-11T12:51:51.398Z</time></trkpt><trkpt lat="42.9809282" lon="12.7846812"><ele>495.6666666666667</ele><time>2026-04-11T12:51:53.392Z</time></trkpt><trkpt lat="42.9809956" lon="12.7846473"><ele>496.33333333333337</ele><time>2026-04-11T12:51:56.399Z</time></trkpt><trkpt lat="42.9810033" lon="12.7845328"><ele>497.0</ele><time>2026-04-11T12:51:59.426Z</time></trkpt><trkpt lat="42.9810745" lon="12.7845286"><ele>497.6666666666667</ele><time>2026-04-11T12:52:02.396Z</time></trkpt><trkpt lat="42.9810957" lon="12.7846188"><ele>498.33333333333337</ele><time>2026-04-11T12:58:28.398Z</time></trkpt><trkpt lat="42.9810596" lon="12.7847271"><ele>499.0</ele><time>2026-04-11T12:58:31.394Z</time></trkpt><trkpt lat="42.9810481" lon="12.7848291"><ele>499.00000000000006</ele><time>2026-04-11T12:58:33.398Z</time></trkpt><trkpt lat="42.9810819" lon="12.784909"><ele>499.0</ele><time>2026-04-11T12:58:38.401Z</time></trkpt><trkpt lat="42.9810883" lon="12.7850208"><ele>499.0</ele><time>2026-04-11T12:58:42.409Z</time></trkpt><trkpt lat="42.9811066" lon="12.7851643"><ele>499.0</ele><time>2026-04-11T12:58:44.392Z</time></trkpt><trkpt lat="42.9811224" lon="12.7853259"><ele>499.00000000000006</ele><time>2026-04-11T12:58:46.41Z</time></trkpt><trkpt lat="42.9811296" lon="12.7854153"><ele>499.0</ele><time>2026-04-11T12:58:47.396Z</time></trkpt><trkpt lat="42.9811304" lon="12.7855149"><ele>499.50000000000006</ele><time>2026-04-11T12:58:48.397Z</time></trkpt><trkpt lat="42.98114" lon="12.7856204"><ele>500.0</ele><time>2026-04-11T12:58:49.394Z</time></trkpt><trkpt lat="42.9811417" lon="12.7857292"><ele>500.5</ele><time>2026-04-11T12:58:50.396Z</time></trkpt><trkpt lat="42.9811393" lon="12.7858317"><ele>501.0</ele><time>2026-04-11T12:58:51.388Z</time></trkpt><trkpt lat="42.9811283" lon="12.7859176"><ele>501.50000000000006</ele><time>2026-04-11T12:58:52.404Z</time></trkpt><trkpt lat="42.9810827" lon="12.786065"><ele>502.0</ele><time>2026-04-11T12:58:54.399Z</time></trkpt><trkpt lat="42.9810464" lon="12.7861958"><ele>501.50000000000006</ele><time>2026-04-11T12:58:56.406Z</time></trkpt><trkpt lat="42.9810017" lon="12.7863253"><ele>501.0</ele><time>2026-04-11T12:58:58.395Z</time></trkpt><trkpt lat="42.9809654" lon="12.7864373"><ele>500.5</ele><time>2026-04-11T12:59:00.403Z</time></trkpt><trkpt lat="42.9809357" lon="12.7865289"><ele>500.0</ele><time>2026-04-11T12:59:02.395Z</time></trkpt><trkpt lat="42.9808943" lon="12.7866079"><ele>499.50000000000006</ele><time>2026-04-11T12:59:05.394Z</time></trkpt><trkpt lat="42.9808618" lon="12.7867043"><ele>499.0</ele><time>2026-04-11T13:00:02.393Z</time></trkpt><trkpt lat="42.9808438" lon="12.7868014"><ele>500.1666666666667</ele><time>2026-04-11T13:00:07.389Z</time></trkpt><trkpt lat="42.9808082" lon="12.7869001"><ele>501.33333333333337</ele><time>2026-04-11T13:00:10.388Z</time></trkpt><trkpt lat="42.9807911" lon="12.7870027"><ele>502.5</ele><time>2026-04-11T13:00:13.393Z</time></trkpt><trkpt lat="42.9807776" lon="12.7871258"><ele>503.66666666666663</ele><time>2026-04-11T13:00:16.408Z</time></trkpt><trkpt lat="42.9807648" lon="12.7872269"><ele>504.8333333333333</ele><time>2026-04-11T13:00:19.393Z</time></trkpt><trkpt lat="42.980772" lon="12.7873269"><ele>506.0</ele><time>2026-04-11T13:00:24.4Z</time></trkpt><trkpt lat="42.9807509" lon="12.7874695"><ele>505.99999999999994</ele><time>2026-04-11T13:00:27.395Z</time></trkpt><trkpt lat="42.9806949" lon="12.7875804"><ele>506.0</ele><time>2026-04-11T13:00:29.392Z</time></trkpt><trkpt lat="42.9806369" lon="12.7876967"><ele>506.0</ele><time>2026-04-11T13:00:31.39Z</time></trkpt><trkpt lat="42.9805738" lon="12.7878277"><ele>506.0</ele><time>2026-04-11T13:00:33.386Z</time></trkpt><trkpt lat="42.9805363" lon="12.7878973"><ele>505.99999999999994</ele><time>2026-04-11T13:00:34.405Z</time></trkpt><trkpt lat="42.980494" lon="12.787969"><ele>506.0</ele><time>2026-04-11T13:00:35.375Z</time></trkpt><trkpt lat="42.9804511" lon="12.7880422"><ele>508.4285714285715</ele><time>2026-04-11T13:00:36.392Z</time></trkpt><trkpt lat="42.9804087" lon="12.7881185"><ele>510.8571428571429</ele><time>2026-04-11T13:00:37.386Z</time></trkpt><trkpt lat="42.9803705" lon="12.7881923"><ele>513.2857142857142</ele><time>2026-04-11T13:00:38.401Z</time></trkpt><trkpt lat="42.9803306" lon="12.7882753"><ele>515.7142857142858</ele><time>2026-04-11T13:00:39.394Z</time></trkpt><trkpt lat="42.980289" lon="12.7883628"><ele>518.1428571428571</ele><time>2026-04-11T13:00:40.417Z</time></trkpt><trkpt lat="42.980248" lon="12.7884562"><ele>520.5714285714286</ele><time>2026-04-11T13:00:41.393Z</time></trkpt><trkpt lat="42.9802115" lon="12.7885513"><ele>523.0</ele><time>2026-04-11T13:00:42.406Z</time></trkpt><trkpt lat="42.9801767" lon="12.7886524"><ele>520.1666666666667</ele><time>2026-04-11T13:00:43.386Z</time></trkpt><trkpt lat="42.9801448" lon="12.788755"><ele>517.3333333333334</ele><time>2026-04-11T13:00:44.393Z</time></trkpt><trkpt lat="42.9801151" lon="12.788856"><ele>514.5</ele><time>2026-04-11T13:00:45.382Z</time></trkpt><trkpt lat="42.9800819" lon="12.7889559"><ele>511.66666666666663</ele><time>2026-04-11T13:00:46.41Z</time></trkpt><trkpt lat="42.9800502" lon="12.789057"><ele>508.8333333333333</ele><time>2026-04-11T13:00:47.386Z</time></trkpt><trkpt lat="42.9800226" lon="12.7891594"><ele>506.0</ele><time>2026-04-11T13:00:48.394Z</time></trkpt><trkpt lat="42.9799889" lon="12.7892543"><ele>508.16666666666663</ele><time>2026-04-11T13:00:49.381Z</time></trkpt><trkpt lat="42.9799649" lon="12.7893548"><ele>510.3333333333333</ele><time>2026-04-11T13:00:50.402Z</time></trkpt><trkpt lat="42.9799338" lon="12.7894543"><ele>512.5</ele><time>2026-04-11T13:00:51.388Z</time></trkpt><trkpt lat="42.9798984" lon="12.7895492"><ele>514.6666666666666</ele><time>2026-04-11T13:00:52.394Z</time></trkpt><trkpt lat="42.9798636" lon="12.7896485"><ele>516.8333333333334</ele><time>2026-04-11T13:00:53.383Z</time></trkpt><trkpt lat="42.9798287" lon="12.7897383"><ele>519.0</ele><time>2026-04-11T13:00:54.392Z</time></trkpt><trkpt lat="42.9797917" lon="12.7898337"><ele>519.0</ele><time>2026-04-11T13:00:55.389Z</time></trkpt><trkpt lat="42.9797538" lon="12.789934"><ele>519.0</ele><time>2026-04-11T13:00:56.393Z</time></trkpt><trkpt lat="42.9797105" lon="12.7900334"><ele>519.0</ele><time>2026-04-11T13:00:57.402Z</time></trkpt><trkpt lat="42.9796638" lon="12.7901312"><ele>519.0</ele><time>2026-04-11T13:00:58.39Z</time></trkpt><trkpt lat="42.9796138" lon="12.7902278"><ele>519.0</ele><time>2026-04-11T13:00:59.391Z</time></trkpt><trkpt lat="42.9795634" lon="12.790323"><ele>519.0</ele><time>2026-04-11T13:01:00.392Z</time></trkpt><trkpt lat="42.979506" lon="12.7904203"><ele>524.2</ele><time>2026-04-11T13:01:01.404Z</time></trkpt><trkpt lat="42.9794491" lon="12.7905206"><ele>529.4</ele><time>2026-04-11T13:01:02.387Z</time></trkpt><trkpt lat="42.9793941" lon="12.790626"><ele>534.6</ele><time>2026-04-11T13:01:03.388Z</time></trkpt><trkpt lat="42.9793357" lon="12.7907363"><ele>539.8</ele><time>2026-04-11T13:01:04.404Z</time></trkpt><trkpt lat="42.9792741" lon="12.7908479"><ele>545.0</ele><time>2026-04-11T13:01:05.385Z</time></trkpt><trkpt lat="42.9792067" lon="12.7909589"><ele>537.0</ele><time>2026-04-11T13:01:06.385Z</time></trkpt><trkpt lat="42.9791368" lon="12.7910838"><ele>529.0</ele><time>2026-04-11T13:01:07.386Z</time></trkpt><trkpt lat="42.9790629" lon="12.7912184"><ele>521.0</ele><time>2026-04-11T13:01:08.391Z</time></trkpt><trkpt lat="42.9789871" lon="12.7913555"><ele>513.0</ele><time>2026-04-11T13:01:09.39Z</time></trkpt><trkpt lat="42.9789077" lon="12.791495"><ele>513.0</ele><time>2026-04-11T13:01:10.398Z</time></trkpt><trkpt lat="42.9788295" lon="12.7916311"><ele>513.0</ele><time>2026-04-11T13:01:11.388Z</time></trkpt><trkpt lat="42.9787509" lon="12.7917688"><ele>513.0</ele><time>2026-04-11T13:01:12.397Z</time></trkpt><trkpt lat="42.9786691" lon="12.7919129"><ele>513.0</ele><time>2026-04-11T13:01:13.38Z</time></trkpt><trkpt lat="42.9785884" lon="12.7920564"><ele>511.25</ele><time>2026-04-11T13:01:14.396Z</time></trkpt><trkpt lat="42.9785132" lon="12.7921857"><ele>509.5</ele><time>2026-04-11T13:01:15.389Z</time></trkpt><trkpt lat="42.9784455" lon="12.7923138"><ele>507.75</ele><time>2026-04-11T13:01:16.389Z</time></trkpt><trkpt lat="42.9783823" lon="12.7924363"><ele>506.0</ele><time>2026-04-11T13:01:17.391Z</time></trkpt><trkpt lat="42.9783228" lon="12.7925604"><ele>507.0</ele><time>2026-04-11T13:01:18.4Z</time></trkpt><trkpt lat="42.9782692" lon="12.7926865"><ele>508.0</ele><time>2026-04-11T13:01:19.382Z</time></trkpt><trkpt lat="42.9782324" lon="12.7928314"><ele>509.0</ele><time>2026-04-11T13:01:20.399Z</time></trkpt><trkpt lat="42.9782147" lon="12.7929847"><ele>510.0</ele><time>2026-04-11T13:01:21.388Z</time></trkpt><trkpt lat="42.9782163" lon="12.7931354"><ele>511.0</ele><time>2026-04-11T13:01:22.394Z</time></trkpt><trkpt lat="42.97824" lon="12.7932843"><ele>511.0</ele><time>2026-04-11T13:01:23.392Z</time></trkpt><trkpt lat="42.9782854" lon="12.7934177"><ele>511.0</ele><time>2026-04-11T13:01:24.391Z</time></trkpt><trkpt lat="42.9783535" lon="12.7935566"><ele>511.0</ele><time>2026-04-11T13:01:25.39Z</time></trkpt><trkpt lat="42.9784293" lon="12.7936819"><ele>511.0</ele><time>2026-04-11T13:01:26.395Z</time></trkpt><trkpt lat="42.9785101" lon="12.7938016"><ele>515.75</ele><time>2026-04-11T13:01:27.384Z</time></trkpt><trkpt lat="42.9785903" lon="12.7939303"><ele>520.5</ele><time>2026-04-11T13:01:28.388Z</time></trkpt><trkpt lat="42.9786536" lon="12.7940737"><ele>525.25</ele><time>2026-04-11T13:01:29.38Z</time></trkpt><trkpt lat="42.9787041" lon="12.7942403"><ele>530.0</ele><time>2026-04-11T13:01:30.395Z</time></trkpt><trkpt lat="42.9787384" lon="12.7944132"><ele>530.0</ele><time>2026-04-11T13:01:31.401Z</time></trkpt><trkpt lat="42.9787645" lon="12.7945774"><ele>530.0</ele><time>2026-04-11T13:01:32.394Z</time></trkpt><trkpt lat="42.9787847" lon="12.7947368"><ele>530.0</ele><time>2026-04-11T13:01:33.392Z</time></trkpt><trkpt lat="42.9788069" lon="12.7949018"><ele>530.0</ele><time>2026-04-11T13:01:34.388Z</time></trkpt><trkpt lat="42.9788235" lon="12.7950562"><ele>530.25</ele><time>2026-04-11T13:01:35.39Z</time></trkpt><trkpt lat="42.9788325" lon="12.7952139"><ele>530.5</ele><time>2026-04-11T13:01:36.396Z</time></trkpt><trkpt lat="42.9788285" lon="12.795371"><ele>530.75</ele><time>2026-04-11T13:01:37.395Z</time></trkpt><trkpt lat="42.978813" lon="12.7955262"><ele>531.0</ele><time>2026-04-11T13:01:38.396Z</time></trkpt><trkpt lat="42.9787901" lon="12.7956787"><ele>531.0</ele><time>2026-04-11T13:01:39.393Z</time></trkpt><trkpt lat="42.9787612" lon="12.7958281"><ele>531.0</ele><time>2026-04-11T13:01:40.391Z</time></trkpt><trkpt lat="42.9787309" lon="12.7959809"><ele>531.0</ele><time>2026-04-11T13:01:41.391Z</time></trkpt><trkpt lat="42.9787017" lon="12.7961336"><ele>531.0</ele><time>2026-04-11T13:01:42.382Z</time></trkpt><trkpt lat="42.9786719" lon="12.7962866"><ele>530.5</ele><time>2026-04-11T13:01:43.392Z</time></trkpt><trkpt lat="42.978642" lon="12.7964462"><ele>530.0</ele><time>2026-04-11T13:01:44.394Z</time></trkpt><trkpt lat="42.9786171" lon="12.7966071"><ele>529.5</ele><time>2026-04-11T13:01:45.388Z</time></trkpt><trkpt lat="42.9785914" lon="12.7967736"><ele>529.0</ele><time>2026-04-11T13:01:46.379Z</time></trkpt><trkpt lat="42.97856" lon="12.7969371"><ele>529.0</ele><time>2026-04-11T13:01:47.398Z</time></trkpt><trkpt lat="42.9785318" lon="12.7971018"><ele>529.0</ele><time>2026-04-11T13:01:48.4Z</time></trkpt><trkpt lat="42.9785021" lon="12.7972625"><ele>529.0</ele><time>2026-04-11T13:01:49.381Z</time></trkpt><trkpt lat="42.978469" lon="12.7974244"><ele>529.0</ele><time>2026-04-11T13:01:50.382Z</time></trkpt><trkpt lat="42.9784344" lon="12.7975914"><ele>527.0</ele><time>2026-04-11T13:01:51.382Z</time></trkpt><trkpt lat="42.9784042" lon="12.7977642"><ele>525.0</ele><time>2026-04-11T13:01:52.391Z</time></trkpt><trkpt lat="42.9783806" lon="12.7979297"><ele>523.0</ele><time>2026-04-11T13:01:53.397Z</time></trkpt><trkpt lat="42.9783581" lon="12.7980874"><ele>521.0</ele><time>2026-04-11T13:01:54.397Z</time></trkpt><trkpt lat="42.9783262" lon="12.7982445"><ele>518.0</ele><time>2026-04-11T13:01:55.378Z</time></trkpt><trkpt lat="42.9782938" lon="12.7983901"><ele>515.0</ele><time>2026-04-11T13:01:56.412Z</time></trkpt><trkpt lat="42.9782601" lon="12.798544"><ele>512.0</ele><time>2026-04-11T13:01:57.396Z</time></trkpt><trkpt lat="42.9782283" lon="12.7986789"><ele>509.0</ele><time>2026-04-11T13:01:58.398Z</time></trkpt><trkpt lat="42.9781723" lon="12.7987964"><ele>506.0</ele><time>2026-04-11T13:01:59.391Z</time></trkpt><trkpt lat="42.9781241" lon="12.7989226"><ele>506.0</ele><time>2026-04-11T13:02:00.389Z</time></trkpt><trkpt lat="42.9780673" lon="12.7990498"><ele>506.0</ele><time>2026-04-11T13:02:01.389Z</time></trkpt><trkpt lat="42.9780099" lon="12.7991787"><ele>506.0</ele><time>2026-04-11T13:02:02.392Z</time></trkpt><trkpt lat="42.9779533" lon="12.7993163"><ele>506.0</ele><time>2026-04-11T13:02:03.395Z</time></trkpt><trkpt lat="42.9778916" lon="12.7994449"><ele>506.0</ele><time>2026-04-11T13:02:04.393Z</time></trkpt><trkpt lat="42.9778338" lon="12.7995793"><ele>508.25</ele><time>2026-04-11T13:02:05.394Z</time></trkpt><trkpt lat="42.9777695" lon="12.7997181"><ele>510.5</ele><time>2026-04-11T13:02:06.391Z</time></trkpt><trkpt lat="42.9777046" lon="12.7998543"><ele>512.75</ele><time>2026-04-11T13:02:07.386Z</time></trkpt><trkpt lat="42.9776388" lon="12.799997"><ele>515.0</ele><time>2026-04-11T13:02:08.397Z</time></trkpt><trkpt lat="42.9775721" lon="12.8001402"><ele>514.6</ele><time>2026-04-11T13:02:09.395Z</time></trkpt><trkpt lat="42.9775157" lon="12.8002748"><ele>514.2</ele><time>2026-04-11T13:02:10.411Z</time></trkpt><trkpt lat="42.9774617" lon="12.8004057"><ele>513.8</ele><time>2026-04-11T13:02:11.412Z</time></trkpt><trkpt lat="42.9774085" lon="12.8005361"><ele>513.4</ele><time>2026-04-11T13:02:12.398Z</time></trkpt><trkpt lat="42.9773529" lon="12.8006731"><ele>513.0</ele><time>2026-04-11T13:02:13.399Z</time></trkpt><trkpt lat="42.9772948" lon="12.800814"><ele>513.0</ele><time>2026-04-11T13:02:14.395Z</time></trkpt><trkpt lat="42.9772317" lon="12.8009516"><ele>513.0</ele><time>2026-04-11T13:02:15.402Z</time></trkpt><trkpt lat="42.9771669" lon="12.8010831"><ele>513.0</ele><time>2026-04-11T13:02:16.401Z</time></trkpt><trkpt lat="42.9771066" lon="12.8012239"><ele>513.0</ele><time>2026-04-11T13:02:17.391Z</time></trkpt><trkpt lat="42.9770423" lon="12.8013587"><ele>515.4</ele><time>2026-04-11T13:02:18.396Z</time></trkpt><trkpt lat="42.9769798" lon="12.8014855"><ele>517.8</ele><time>2026-04-11T13:02:19.392Z</time></trkpt><trkpt lat="42.9769228" lon="12.8016075"><ele>520.2</ele><time>2026-04-11T13:02:20.388Z</time></trkpt><trkpt lat="42.9768702" lon="12.801723"><ele>522.6</ele><time>2026-04-11T13:02:21.384Z</time></trkpt><trkpt lat="42.9768195" lon="12.8018323"><ele>525.0</ele><time>2026-04-11T13:02:22.398Z</time></trkpt><trkpt lat="42.9767686" lon="12.8019412"><ele>523.8</ele><time>2026-04-11T13:02:23.395Z</time></trkpt><trkpt lat="42.9767152" lon="12.8020488"><ele>522.6</ele><time>2026-04-11T13:02:24.393Z</time></trkpt><trkpt lat="42.9766594" lon="12.8021587"><ele>521.4</ele><time>2026-04-11T13:02:25.386Z</time></trkpt><trkpt lat="42.9766056" lon="12.802269"><ele>520.2</ele><time>2026-04-11T13:02:26.398Z</time></trkpt><trkpt lat="42.9765541" lon="12.8023849"><ele>519.0</ele><time>2026-04-11T13:02:27.39Z</time></trkpt><trkpt lat="42.9765026" lon="12.8025059"><ele>519.0</ele><time>2026-04-11T13:02:28.393Z</time></trkpt><trkpt lat="42.9764494" lon="12.8026249"><ele>519.0</ele><time>2026-04-11T13:02:29.39Z</time></trkpt><trkpt lat="42.9763917" lon="12.8027308"><ele>519.0</ele><time>2026-04-11T13:02:30.388Z</time></trkpt><trkpt lat="42.9763405" lon="12.8028425"><ele>519.0</ele><time>2026-04-11T13:02:31.391Z</time></trkpt><trkpt lat="42.9762911" lon="12.8029533"><ele>519.0</ele><time>2026-04-11T13:02:32.39Z</time></trkpt><trkpt lat="42.9762407" lon="12.8030646"><ele>522.3333333333334</ele><time>2026-04-11T13:02:33.395Z</time></trkpt><trkpt lat="42.9761901" lon="12.8031734"><ele>525.6666666666666</ele><time>2026-04-11T13:02:34.392Z</time></trkpt><trkpt lat="42.9761398" lon="12.8032826"><ele>529.0</ele><time>2026-04-11T13:02:35.387Z</time></trkpt><trkpt lat="42.9760939" lon="12.8033906"><ele>532.3333333333333</ele><time>2026-04-11T13:02:36.391Z</time></trkpt><trkpt lat="42.9760494" lon="12.8034871"><ele>535.6666666666666</ele><time>2026-04-11T13:02:37.407Z</time></trkpt><trkpt lat="42.9760076" lon="12.8035822"><ele>539.0</ele><time>2026-04-11T13:02:38.389Z</time></trkpt><trkpt lat="42.9759659" lon="12.8036785"><ele>536.1666666666666</ele><time>2026-04-11T13:02:39.387Z</time></trkpt><trkpt lat="42.9759257" lon="12.8037766"><ele>533.3333333333333</ele><time>2026-04-11T13:02:40.408Z</time></trkpt><trkpt lat="42.9758796" lon="12.8038775"><ele>530.5</ele><time>2026-04-11T13:02:41.386Z</time></trkpt><trkpt lat="42.9758364" lon="12.803982"><ele>527.6666666666666</ele><time>2026-04-11T13:02:42.399Z</time></trkpt><trkpt lat="42.9757939" lon="12.8040782"><ele>524.8333333333334</ele><time>2026-04-11T13:02:43.389Z</time></trkpt><trkpt lat="42.9757513" lon="12.8041688"><ele>522.0</ele><time>2026-04-11T13:02:44.393Z</time></trkpt><trkpt lat="42.975709" lon="12.8042487"><ele>522.0</ele><time>2026-04-11T13:02:45.391Z</time></trkpt><trkpt lat="42.9756744" lon="12.8043266"><ele>522.0</ele><time>2026-04-11T13:02:46.388Z</time></trkpt><trkpt lat="42.9756396" lon="12.8044001"><ele>522.0</ele><time>2026-04-11T13:02:47.4Z</time></trkpt><trkpt lat="42.975574" lon="12.8045472"><ele>522.0</ele><time>2026-04-11T13:02:49.388Z</time></trkpt><trkpt lat="42.9755337" lon="12.8046255"><ele>522.0</ele><time>2026-04-11T13:02:50.389Z</time></trkpt><trkpt lat="42.9754944" lon="12.8047074"><ele>522.0</ele><time>2026-04-11T13:02:51.391Z</time></trkpt><trkpt lat="42.9754529" lon="12.8047944"><ele>524.3333333333334</ele><time>2026-04-11T13:02:52.4Z</time></trkpt><trkpt lat="42.9754043" lon="12.8048867"><ele>526.6666666666666</ele><time>2026-04-11T13:02:53.388Z</time></trkpt><trkpt lat="42.9753505" lon="12.8049717"><ele>529.0</ele><time>2026-04-11T13:02:54.392Z</time></trkpt><trkpt lat="42.9752943" lon="12.8050574"><ele>531.3333333333333</ele><time>2026-04-11T13:02:55.386Z</time></trkpt><trkpt lat="42.9752264" lon="12.8051504"><ele>533.6666666666666</ele><time>2026-04-11T13:02:56.39Z</time></trkpt><trkpt lat="42.9751566" lon="12.8052362"><ele>536.0</ele><time>2026-04-11T13:02:57.425Z</time></trkpt><trkpt lat="42.9750817" lon="12.8053242"><ele>533.6</ele><time>2026-04-11T13:02:58.395Z</time></trkpt><trkpt lat="42.9750032" lon="12.805406"><ele>531.2</ele><time>2026-04-11T13:02:59.387Z</time></trkpt><trkpt lat="42.9749182" lon="12.8054789"><ele>528.8</ele><time>2026-04-11T13:03:00.392Z</time></trkpt><trkpt lat="42.9748255" lon="12.8055381"><ele>526.4</ele><time>2026-04-11T13:03:01.389Z</time></trkpt><trkpt lat="42.9747278" lon="12.8055933"><ele>524.0</ele><time>2026-04-11T13:03:02.386Z</time></trkpt><trkpt lat="42.9746338" lon="12.8056433"><ele>524.0</ele><time>2026-04-11T13:03:03.388Z</time></trkpt><trkpt lat="42.9745372" lon="12.8056961"><ele>524.0</ele><time>2026-04-11T13:03:04.388Z</time></trkpt><trkpt lat="42.9744375" lon="12.80575"><ele>524.0</ele><time>2026-04-11T13:03:05.378Z</time></trkpt><trkpt lat="42.9743359" lon="12.8057962"><ele>524.0</ele><time>2026-04-11T13:03:06.396Z</time></trkpt><trkpt lat="42.9742396" lon="12.805847"><ele>524.0</ele><time>2026-04-11T13:03:07.389Z</time></trkpt><trkpt lat="42.9741481" lon="12.8059027"><ele>522.8</ele><time>2026-04-11T13:03:08.394Z</time></trkpt><trkpt lat="42.9740585" lon="12.8059604"><ele>521.5999999999999</ele><time>2026-04-11T13:03:09.389Z</time></trkpt><trkpt lat="42.9739694" lon="12.8060295"><ele>520.4</ele><time>2026-04-11T13:03:10.396Z</time></trkpt><trkpt lat="42.9738851" lon="12.8061026"><ele>519.1999999999999</ele><time>2026-04-11T13:03:11.393Z</time></trkpt><trkpt lat="42.9737974" lon="12.8061857"><ele>518.0</ele><time>2026-04-11T13:03:12.39Z</time></trkpt><trkpt lat="42.9737172" lon="12.8062734"><ele>517.6</ele><time>2026-04-11T13:03:13.387Z</time></trkpt><trkpt lat="42.9736381" lon="12.8063596"><ele>517.1999999999999</ele><time>2026-04-11T13:03:14.392Z</time></trkpt><trkpt lat="42.9735637" lon="12.806455"><ele>516.8</ele><time>2026-04-11T13:03:15.408Z</time></trkpt><trkpt lat="42.9734961" lon="12.8065586"><ele>516.4</ele><time>2026-04-11T13:03:16.41Z</time></trkpt><trkpt lat="42.9734255" lon="12.806661"><ele>516.0</ele><time>2026-04-11T13:03:17.396Z</time></trkpt><trkpt lat="42.973353" lon="12.8067575"><ele>518.4</ele><time>2026-04-11T13:03:18.404Z</time></trkpt><trkpt lat="42.9732836" lon="12.8068644"><ele>520.8</ele><time>2026-04-11T13:03:19.394Z</time></trkpt><trkpt lat="42.9732159" lon="12.8069645"><ele>523.1999999999999</ele><time>2026-04-11T13:03:20.408Z</time></trkpt><trkpt lat="42.9731468" lon="12.8070515"><ele>525.6</ele><time>2026-04-11T13:03:21.393Z</time></trkpt><trkpt lat="42.9730796" lon="12.8071441"><ele>528.0</ele><time>2026-04-11T13:03:22.4Z</time></trkpt><trkpt lat="42.9730169" lon="12.8072415"><ele>528.0</ele><time>2026-04-11T13:03:23.394Z</time></trkpt><trkpt lat="42.9729551" lon="12.8073336"><ele>528.0</ele><time>2026-04-11T13:03:24.391Z</time></trkpt><trkpt lat="42.9728957" lon="12.8074242"><ele>528.0</ele><time>2026-04-11T13:03:25.391Z</time></trkpt><trkpt lat="42.9728396" lon="12.8075157"><ele>528.0</ele><time>2026-04-11T13:03:26.397Z</time></trkpt><trkpt lat="42.9727866" lon="12.8076076"><ele>528.0</ele><time>2026-04-11T13:03:27.393Z</time></trkpt><trkpt lat="42.9727415" lon="12.8077031"><ele>528.0</ele><time>2026-04-11T13:03:28.404Z</time></trkpt><trkpt lat="42.9727013" lon="12.8077983"><ele>528.1666666666666</ele><time>2026-04-11T13:03:29.4Z</time></trkpt><trkpt lat="42.9726634" lon="12.8078846"><ele>528.3333333333334</ele><time>2026-04-11T13:03:30.392Z</time></trkpt><trkpt lat="42.9726288" lon="12.8079699"><ele>528.5</ele><time>2026-04-11T13:03:31.389Z</time></trkpt><trkpt lat="42.972596" lon="12.808065"><ele>528.6666666666667</ele><time>2026-04-11T13:03:32.395Z</time></trkpt><trkpt lat="42.9725626" lon="12.8081624"><ele>528.8333333333334</ele><time>2026-04-11T13:03:33.387Z</time></trkpt><trkpt lat="42.9725265" lon="12.808267"><ele>529.0</ele><time>2026-04-11T13:03:34.396Z</time></trkpt><trkpt lat="42.9724874" lon="12.8083696"><ele>529.0</ele><time>2026-04-11T13:03:35.411Z</time></trkpt><trkpt lat="42.9724493" lon="12.8084769"><ele>529.0</ele><time>2026-04-11T13:03:36.396Z</time></trkpt><trkpt lat="42.9724122" lon="12.8085897"><ele>529.0</ele><time>2026-04-11T13:03:37.387Z</time></trkpt><trkpt lat="42.9723778" lon="12.8086949"><ele>529.0</ele><time>2026-04-11T13:03:38.396Z</time></trkpt><trkpt lat="42.9723448" lon="12.8087845"><ele>529.0</ele><time>2026-04-11T13:03:39.4Z</time></trkpt><trkpt lat="42.9723154" lon="12.8088744"><ele>529.0</ele><time>2026-04-11T13:03:40.414Z</time></trkpt><trkpt lat="42.9722906" lon="12.8089561"><ele>529.1666666666667</ele><time>2026-04-11T13:03:41.391Z</time></trkpt><trkpt lat="42.9722581" lon="12.8090822"><ele>529.3333333333334</ele><time>2026-04-11T13:03:43.388Z</time></trkpt><trkpt lat="42.9722499" lon="12.8091884"><ele>529.5</ele><time>2026-04-11T13:03:45.385Z</time></trkpt><trkpt lat="42.972242" lon="12.8092812"><ele>529.6666666666666</ele><time>2026-04-11T13:03:47.394Z</time></trkpt><trkpt lat="42.9722521" lon="12.8093765"><ele>529.8333333333333</ele><time>2026-04-11T13:03:53.395Z</time></trkpt><trkpt lat="42.9722679" lon="12.8094797"><ele>530.0</ele><time>2026-04-11T13:04:13.389Z</time></trkpt><trkpt lat="42.9721939" lon="12.8095466"><ele>530.0</ele><time>2026-04-11T13:04:16.391Z</time></trkpt><trkpt lat="42.9721256" lon="12.8095625"><ele>530.0</ele><time>2026-04-11T13:04:18.4Z</time></trkpt><trkpt lat="42.9720352" lon="12.8095864"><ele>530.0</ele><time>2026-04-11T13:04:21.395Z</time></trkpt><trkpt lat="42.9719559" lon="12.8096123"><ele>530.0</ele><time>2026-04-11T13:04:24.402Z</time></trkpt><trkpt lat="42.9718777" lon="12.8096022"><ele>530.0</ele><time>2026-04-11T13:04:27.386Z</time></trkpt><trkpt lat="42.9718107" lon="12.8096205"><ele>530.0</ele><time>2026-04-11T13:04:30.411Z</time></trkpt><trkpt lat="42.9717276" lon="12.8096522"><ele>528.8</ele><time>2026-04-11T13:04:33.397Z</time></trkpt><trkpt lat="42.9716505" lon="12.8096786"><ele>527.6</ele><time>2026-04-11T13:04:58.393Z</time></trkpt><trkpt lat="42.9715371" lon="12.8097143"><ele>526.4</ele><time>2026-04-11T13:05:00.403Z</time></trkpt><trkpt lat="42.9714587" lon="12.8097337"><ele>525.2</ele><time>2026-04-11T13:05:01.385Z</time></trkpt><trkpt lat="42.9713687" lon="12.8097584"><ele>524.0</ele><time>2026-04-11T13:05:02.392Z</time></trkpt><trkpt lat="42.9712868" lon="12.8097693"><ele>524.0</ele><time>2026-04-11T13:05:03.398Z</time></trkpt><trkpt lat="42.9712083" lon="12.8097772"><ele>524.0</ele><time>2026-04-11T13:05:04.391Z</time></trkpt><trkpt lat="42.9711005" lon="12.8097142"><ele>524.0</ele><time>2026-04-11T13:05:06.399Z</time></trkpt><trkpt lat="42.9710628" lon="12.8096427"><ele>524.0</ele><time>2026-04-11T13:05:07.385Z</time></trkpt><trkpt lat="42.9710183" lon="12.8095595"><ele>524.0</ele><time>2026-04-11T13:05:08.397Z</time></trkpt><trkpt lat="42.9709644" lon="12.8094742"><ele>524.0</ele><time>2026-04-11T13:05:09.394Z</time></trkpt><trkpt lat="42.9708969" lon="12.8093819"><ele>524.0</ele><time>2026-04-11T13:05:10.395Z</time></trkpt><trkpt lat="42.9708179" lon="12.8093003"><ele>524.0</ele><time>2026-04-11T13:05:11.387Z</time></trkpt><trkpt lat="42.9707348" lon="12.8092088"><ele>524.0</ele><time>2026-04-11T13:05:12.396Z</time></trkpt><trkpt lat="42.9706612" lon="12.8091135"><ele>524.0</ele><time>2026-04-11T13:05:13.396Z</time></trkpt><trkpt lat="42.9706009" lon="12.8090135"><ele>524.0</ele><time>2026-04-11T13:05:14.396Z</time></trkpt><trkpt lat="42.9705552" lon="12.8089311"><ele>524.0</ele><time>2026-04-11T13:05:15.387Z</time></trkpt><trkpt lat="42.9705178" lon="12.8088611"><ele>524.0</ele><time>2026-04-11T13:05:16.388Z</time></trkpt><trkpt lat="42.9704813" lon="12.8087535"><ele>524.0</ele><time>2026-04-11T13:05:19.391Z</time></trkpt><trkpt lat="42.9704469" lon="12.8086199"><ele>524.0</ele><time>2026-04-11T13:05:22.393Z</time></trkpt><trkpt lat="42.9704094" lon="12.8085129"><ele>524.0</ele><time>2026-04-11T13:05:24.399Z</time></trkpt><trkpt lat="42.9703797" lon="12.8084333"><ele>524.0</ele><time>2026-04-11T13:05:26.395Z</time></trkpt><trkpt lat="42.9703313" lon="12.8083606"><ele>523.6666666666666</ele><time>2026-04-11T13:05:29.391Z</time></trkpt><trkpt lat="42.9702785" lon="12.8083028"><ele>523.3333333333333</ele><time>2026-04-11T13:05:32.399Z</time></trkpt><trkpt lat="42.9702008" lon="12.8082339"><ele>523.0</ele><time>2026-04-11T13:05:35.393Z</time></trkpt><trkpt lat="42.9701362" lon="12.8081569"><ele>522.6666666666666</ele><time>2026-04-11T13:05:37.389Z</time></trkpt><trkpt lat="42.9700728" lon="12.8080832"><ele>522.3333333333334</ele><time>2026-04-11T13:05:39.404Z</time></trkpt><trkpt lat="42.9700341" lon="12.8079556"><ele>522.0</ele><time>2026-04-11T13:05:41.387Z</time></trkpt><trkpt lat="42.9700042" lon="12.8078316"><ele>521.8571428571429</ele><time>2026-04-11T13:05:43.393Z</time></trkpt><trkpt lat="42.9699361" lon="12.8077724"><ele>521.7142857142857</ele><time>2026-04-11T13:05:47.396Z</time></trkpt><trkpt lat="42.9698626" lon="12.8077944"><ele>521.5714285714286</ele><time>2026-04-11T13:05:49.385Z</time></trkpt><trkpt lat="42.9697982" lon="12.8078189"><ele>521.4285714285714</ele><time>2026-04-11T13:08:38.395Z</time></trkpt><trkpt lat="42.9697388" lon="12.8078499"><ele>521.2857142857143</ele><time>2026-04-11T13:08:40.413Z</time></trkpt><trkpt lat="42.969665" lon="12.8078951"><ele>521.1428571428571</ele><time>2026-04-11T13:08:42.393Z</time></trkpt><trkpt lat="42.9695893" lon="12.8079342"><ele>521.0</ele><time>2026-04-11T13:08:44.398Z</time></trkpt><trkpt lat="42.9694992" lon="12.8080132"><ele>521.0</ele><time>2026-04-11T13:08:46.388Z</time></trkpt><trkpt lat="42.9693923" lon="12.8080699"><ele>521.0</ele><time>2026-04-11T13:08:48.403Z</time></trkpt><trkpt lat="42.9693224" lon="12.8080782"><ele>521.0</ele><time>2026-04-11T13:08:49.39Z</time></trkpt><trkpt lat="42.9692402" lon="12.8080891"><ele>521.0</ele><time>2026-04-11T13:08:50.402Z</time></trkpt><trkpt lat="42.9691482" lon="12.8081002"><ele>521.0</ele><time>2026-04-11T13:08:51.403Z</time></trkpt><trkpt lat="42.9690564" lon="12.8081161"><ele>520.8</ele><time>2026-04-11T13:08:52.407Z</time></trkpt><trkpt lat="42.9689646" lon="12.8081292"><ele>520.6</ele><time>2026-04-11T13:08:53.39Z</time></trkpt><trkpt lat="42.9688675" lon="12.8081578"><ele>520.4</ele><time>2026-04-11T13:08:54.399Z</time></trkpt><trkpt lat="42.9687748" lon="12.8081962"><ele>520.2</ele><time>2026-04-11T13:08:55.392Z</time></trkpt><trkpt lat="42.968686" lon="12.808226"><ele>520.0</ele><time>2026-04-11T13:08:56.398Z</time></trkpt><trkpt lat="42.9685965" lon="12.8082485"><ele>520.0</ele><time>2026-04-11T13:08:57.395Z</time></trkpt><trkpt lat="42.9685082" lon="12.8082582"><ele>520.0</ele><time>2026-04-11T13:08:58.401Z</time></trkpt><trkpt lat="42.9684215" lon="12.8082609"><ele>520.0</ele><time>2026-04-11T13:08:59.391Z</time></trkpt><trkpt lat="42.9683237" lon="12.8082611"><ele>520.0</ele><time>2026-04-11T13:09:00.395Z</time></trkpt><trkpt lat="42.9682268" lon="12.8082587"><ele>520.0</ele><time>2026-04-11T13:09:01.377Z</time></trkpt><trkpt lat="42.968132" lon="12.8082564"><ele>521.4</ele><time>2026-04-11T13:09:02.397Z</time></trkpt><trkpt lat="42.9680331" lon="12.8082381"><ele>522.8</ele><time>2026-04-11T13:09:03.388Z</time></trkpt><trkpt lat="42.9679308" lon="12.8082059"><ele>524.2</ele><time>2026-04-11T13:09:04.408Z</time></trkpt><trkpt lat="42.9678347" lon="12.8081688"><ele>525.6</ele><time>2026-04-11T13:09:05.403Z</time></trkpt><trkpt lat="42.9677358" lon="12.8081374"><ele>527.0</ele><time>2026-04-11T13:09:06.393Z</time></trkpt><trkpt lat="42.9676305" lon="12.808124"><ele>527.6666666666666</ele><time>2026-04-11T13:09:07.395Z</time></trkpt><trkpt lat="42.9675233" lon="12.8081132"><ele>528.3333333333333</ele><time>2026-04-11T13:09:08.395Z</time></trkpt><trkpt lat="42.9674244" lon="12.8081107"><ele>529.0</ele><time>2026-04-11T13:09:09.387Z</time></trkpt><trkpt lat="42.9673431" lon="12.808123"><ele>529.6666666666666</ele><time>2026-04-11T13:09:10.387Z</time></trkpt><trkpt lat="42.9672652" lon="12.8081386"><ele>530.3333333333334</ele><time>2026-04-11T13:09:11.391Z</time></trkpt><trkpt lat="42.9671868" lon="12.8081507"><ele>531.0</ele><time>2026-04-11T13:09:12.39Z</time></trkpt><trkpt lat="42.967107" lon="12.8081409"><ele>531.0</ele><time>2026-04-11T13:09:13.385Z</time></trkpt><trkpt lat="42.9670242" lon="12.8081231"><ele>531.0</ele><time>2026-04-11T13:09:14.396Z</time></trkpt><trkpt lat="42.9669412" lon="12.8081059"><ele>531.0</ele><time>2026-04-11T13:09:15.391Z</time></trkpt><trkpt lat="42.9668468" lon="12.8080868"><ele>531.0</ele><time>2026-04-11T13:09:16.385Z</time></trkpt><trkpt lat="42.9667485" lon="12.8080662"><ele>531.0</ele><time>2026-04-11T13:09:17.383Z</time></trkpt><trkpt lat="42.9666487" lon="12.8080508"><ele>532.6</ele><time>2026-04-11T13:09:18.403Z</time></trkpt><trkpt lat="42.9665463" lon="12.808031"><ele>534.2</ele><time>2026-04-11T13:09:19.382Z</time></trkpt><trkpt lat="42.9664464" lon="12.8079981"><ele>535.8</ele><time>2026-04-11T13:09:20.394Z</time></trkpt><trkpt lat="42.9663495" lon="12.8079356"><ele>537.4</ele><time>2026-04-11T13:09:21.388Z</time></trkpt><trkpt lat="42.9662516" lon="12.8078487"><ele>539.0</ele><time>2026-04-11T13:09:22.387Z</time></trkpt><trkpt lat="42.9661597" lon="12.8077576"><ele>539.0</ele><time>2026-04-11T13:09:23.397Z</time></trkpt><trkpt lat="42.9660641" lon="12.8076806"><ele>539.0</ele><time>2026-04-11T13:09:24.383Z</time></trkpt><trkpt lat="42.9659625" lon="12.8076229"><ele>539.0</ele><time>2026-04-11T13:09:25.387Z</time></trkpt><trkpt lat="42.9658573" lon="12.8075788"><ele>539.0</ele><time>2026-04-11T13:09:26.39Z</time></trkpt><trkpt lat="42.9657589" lon="12.8075341"><ele>539.0</ele><time>2026-04-11T13:09:27.38Z</time></trkpt><trkpt lat="42.9656613" lon="12.8074879"><ele>540.25</ele><time>2026-04-11T13:09:28.387Z</time></trkpt><trkpt lat="42.965565" lon="12.8074429"><ele>541.5</ele><time>2026-04-11T13:09:29.395Z</time></trkpt><trkpt lat="42.9654589" lon="12.8073968"><ele>542.75</ele><time>2026-04-11T13:09:30.396Z</time></trkpt><trkpt lat="42.9653464" lon="12.8073491"><ele>544.0</ele><time>2026-04-11T13:09:31.39Z</time></trkpt><trkpt lat="42.9652291" lon="12.8073069"><ele>544.0</ele><time>2026-04-11T13:09:32.394Z</time></trkpt><trkpt lat="42.9651053" lon="12.8072579"><ele>544.0</ele><time>2026-04-11T13:09:33.386Z</time></trkpt><trkpt lat="42.9649821" lon="12.8072188"><ele>544.0</ele><time>2026-04-11T13:09:34.387Z</time></trkpt><trkpt lat="42.9648534" lon="12.8071809"><ele>544.0</ele><time>2026-04-11T13:09:35.39Z</time></trkpt><trkpt lat="42.9647175" lon="12.8071442"><ele>545.5</ele><time>2026-04-11T13:09:36.387Z</time></trkpt><trkpt lat="42.9645751" lon="12.8071206"><ele>547.0</ele><time>2026-04-11T13:09:37.393Z</time></trkpt><trkpt lat="42.96443" lon="12.807115"><ele>548.5</ele><time>2026-04-11T13:09:38.397Z</time></trkpt><trkpt lat="42.9642954" lon="12.807109"><ele>550.0</ele><time>2026-04-11T13:09:39.408Z</time></trkpt><trkpt lat="42.9641743" lon="12.8070935"><ele>551.0</ele><time>2026-04-11T13:09:40.396Z</time></trkpt><trkpt lat="42.964058" lon="12.8070635"><ele>552.0</ele><time>2026-04-11T13:09:41.384Z</time></trkpt><trkpt lat="42.963943" lon="12.8070164"><ele>553.0</ele><time>2026-04-11T13:09:42.381Z</time></trkpt><trkpt lat="42.9638201" lon="12.8069632"><ele>554.0</ele><time>2026-04-11T13:09:43.386Z</time></trkpt><trkpt lat="42.9636841" lon="12.8069106"><ele>554.0</ele><time>2026-04-11T13:09:44.378Z</time></trkpt><trkpt lat="42.9635481" lon="12.8068692"><ele>554.0</ele><time>2026-04-11T13:09:45.389Z</time></trkpt><trkpt lat="42.9634013" lon="12.8068319"><ele>554.0</ele><time>2026-04-11T13:09:46.385Z</time></trkpt><trkpt lat="42.9632582" lon="12.8067936"><ele>554.0</ele><time>2026-04-11T13:09:47.386Z</time></trkpt><trkpt lat="42.9631193" lon="12.8067503"><ele>560.0</ele><time>2026-04-11T13:09:48.395Z</time></trkpt><trkpt lat="42.962976" lon="12.8067088"><ele>566.0</ele><time>2026-04-11T13:09:49.377Z</time></trkpt><trkpt lat="42.962842" lon="12.8066748"><ele>572.0</ele><time>2026-04-11T13:09:50.392Z</time></trkpt><trkpt lat="42.9627107" lon="12.8066413"><ele>578.0</ele><time>2026-04-11T13:09:51.394Z</time></trkpt><trkpt lat="42.9625773" lon="12.8066089"><ele>579.25</ele><time>2026-04-11T13:09:52.401Z</time></trkpt><trkpt lat="42.9624349" lon="12.8065866"><ele>580.5</ele><time>2026-04-11T13:09:53.386Z</time></trkpt><trkpt lat="42.9622847" lon="12.8065709"><ele>581.75</ele><time>2026-04-11T13:09:54.385Z</time></trkpt><trkpt lat="42.9621336" lon="12.8065559"><ele>583.0</ele><time>2026-04-11T13:09:55.391Z</time></trkpt><trkpt lat="42.9619761" lon="12.8065385"><ele>583.0</ele><time>2026-04-11T13:09:56.397Z</time></trkpt><trkpt lat="42.9618233" lon="12.8065192"><ele>583.0</ele><time>2026-04-11T13:09:57.387Z</time></trkpt><trkpt lat="42.9616682" lon="12.806501"><ele>583.0</ele><time>2026-04-11T13:09:58.407Z</time></trkpt><trkpt lat="42.9615266" lon="12.8065023"><ele>584.25</ele><time>2026-04-11T13:09:59.39Z</time></trkpt><trkpt lat="42.9613866" lon="12.8065317"><ele>585.5</ele><time>2026-04-11T13:10:00.385Z</time></trkpt><trkpt lat="42.9612547" lon="12.8065885"><ele>586.75</ele><time>2026-04-11T13:10:01.383Z</time></trkpt><trkpt lat="42.9611289" lon="12.8066472"><ele>588.0</ele><time>2026-04-11T13:10:02.391Z</time></trkpt><trkpt lat="42.9610078" lon="12.8067053"><ele>588.0</ele><time>2026-04-11T13:10:03.383Z</time></trkpt><trkpt lat="42.9608953" lon="12.8067427"><ele>588.0</ele><time>2026-04-11T13:10:04.399Z</time></trkpt><trkpt lat="42.9607825" lon="12.8067528"><ele>588.0</ele><time>2026-04-11T13:10:05.385Z</time></trkpt><trkpt lat="42.9606801" lon="12.8067182"><ele>588.0</ele><time>2026-04-11T13:10:06.393Z</time></trkpt><trkpt lat="42.9605843" lon="12.8066606"><ele>588.0</ele><time>2026-04-11T13:10:07.384Z</time></trkpt><trkpt lat="42.9604924" lon="12.8066055"><ele>590.6</ele><time>2026-04-11T13:10:08.394Z</time></trkpt><trkpt lat="42.9604119" lon="12.8066093"><ele>593.1999999999999</ele><time>2026-04-11T13:10:09.392Z</time></trkpt><trkpt lat="42.9602963" lon="12.8066327"><ele>595.8</ele><time>2026-04-11T13:10:10.397Z</time></trkpt><trkpt lat="42.9601838" lon="12.8066762"><ele>598.4</ele><time>2026-04-11T13:10:11.39Z</time></trkpt><trkpt lat="42.9600645" lon="12.8067326"><ele>601.0</ele><time>2026-04-11T13:10:12.388Z</time></trkpt><trkpt lat="42.9599325" lon="12.8067886"><ele>601.8</ele><time>2026-04-11T13:10:13.378Z</time></trkpt><trkpt lat="42.9598064" lon="12.8068366"><ele>602.6</ele><time>2026-04-11T13:10:14.392Z</time></trkpt><trkpt lat="42.9597038" lon="12.806887"><ele>603.4</ele><time>2026-04-11T13:10:15.386Z</time></trkpt><trkpt lat="42.9596251" lon="12.8069182"><ele>604.2</ele><time>2026-04-11T13:10:16.385Z</time></trkpt><trkpt lat="42.9595565" lon="12.8069327"><ele>605.0</ele><time>2026-04-11T13:10:17.4Z</time></trkpt><trkpt lat="42.9594585" lon="12.8069291"><ele>605.0</ele><time>2026-04-11T13:10:19.38Z</time></trkpt><trkpt lat="42.9593605" lon="12.8069166"><ele>605.0</ele><time>2026-04-11T13:10:21.379Z</time></trkpt><trkpt lat="42.9592332" lon="12.8069372"><ele>605.0</ele><time>2026-04-11T13:10:23.387Z</time></trkpt><trkpt lat="42.9591199" lon="12.8069621"><ele>605.0</ele><time>2026-04-11T13:10:25.384Z</time></trkpt><trkpt lat="42.9590281" lon="12.8069857"><ele>605.0</ele><time>2026-04-11T13:10:27.383Z</time></trkpt><trkpt lat="42.9589367" lon="12.8070094"><ele>608.0</ele><time>2026-04-11T13:10:29.396Z</time></trkpt><trkpt lat="42.9588355" lon="12.8070167"><ele>611.0</ele><time>2026-04-11T13:10:31.383Z</time></trkpt><trkpt lat="42.9587539" lon="12.8070217"><ele>614.0</ele><time>2026-04-11T13:10:33.395Z</time></trkpt><trkpt lat="42.9586744" lon="12.8070365"><ele>617.0</ele><time>2026-04-11T13:10:35.372Z</time></trkpt><trkpt lat="42.9585676" lon="12.8070457"><ele>620.0</ele><time>2026-04-11T13:10:37.378Z</time></trkpt><trkpt lat="42.9585033" lon="12.8070398"><ele>623.0</ele><time>2026-04-11T13:10:38.392Z</time></trkpt><trkpt lat="42.9584346" lon="12.8070295"><ele>624.7142857142857</ele><time>2026-04-11T13:10:39.384Z</time></trkpt><trkpt lat="42.9583647" lon="12.8070258"><ele>626.4285714285714</ele><time>2026-04-11T13:10:40.389Z</time></trkpt><trkpt lat="42.9583014" lon="12.8070238"><ele>628.1428571428571</ele><time>2026-04-11T13:10:41.375Z</time></trkpt><trkpt lat="42.9582353" lon="12.8070369"><ele>629.8571428571429</ele><time>2026-04-11T13:10:42.384Z</time></trkpt><trkpt lat="42.9581704" lon="12.8070589"><ele>631.5714285714286</ele><time>2026-04-11T13:10:43.384Z</time></trkpt><trkpt lat="42.9581018" lon="12.8070693"><ele>633.2857142857142</ele><time>2026-04-11T13:10:44.396Z</time></trkpt><trkpt lat="42.958028" lon="12.8070813"><ele>635.0</ele><time>2026-04-11T13:10:45.381Z</time></trkpt><trkpt lat="42.9579546" lon="12.8070911"><ele>635.0</ele><time>2026-04-11T13:10:46.388Z</time></trkpt><trkpt lat="42.9578815" lon="12.8071071"><ele>635.0</ele><time>2026-04-11T13:10:47.387Z</time></trkpt><trkpt lat="42.9578189" lon="12.8071321"><ele>635.0</ele><time>2026-04-11T13:10:48.381Z</time></trkpt><trkpt lat="42.9577416" lon="12.8072164"><ele>635.0</ele><time>2026-04-11T13:10:50.392Z</time></trkpt><trkpt lat="42.9576672" lon="12.8072916"><ele>635.0</ele><time>2026-04-11T13:10:53.384Z</time></trkpt><trkpt lat="42.9575959" lon="12.8072265"><ele>635.0</ele><time>2026-04-11T13:12:09.378Z</time></trkpt><trkpt lat="42.9575049" lon="12.8071961"><ele>637.8</ele><time>2026-04-11T13:12:12.39Z</time></trkpt><trkpt lat="42.9573988" lon="12.8072105"><ele>640.6</ele><time>2026-04-11T13:12:14.382Z</time></trkpt><trkpt lat="42.9573335" lon="12.8072096"><ele>643.4000000000001</ele><time>2026-04-11T13:12:15.371Z</time></trkpt><trkpt lat="42.9572147" lon="12.8072108"><ele>646.2</ele><time>2026-04-11T13:12:17.387Z</time></trkpt><trkpt lat="42.9571147" lon="12.8072463"><ele>649.0</ele><time>2026-04-11T13:12:19.389Z</time></trkpt><trkpt lat="42.9570178" lon="12.8072434"><ele>649.0</ele><time>2026-04-11T13:12:21.381Z</time></trkpt><trkpt lat="42.9569214" lon="12.8071833"><ele>649.0</ele><time>2026-04-11T13:12:23.388Z</time></trkpt><trkpt lat="42.9568111" lon="12.8071476"><ele>649.0</ele><time>2026-04-11T13:12:25.38Z</time></trkpt><trkpt lat="42.9567029" lon="12.8071224"><ele>649.0</ele><time>2026-04-11T13:12:27.385Z</time></trkpt><trkpt lat="42.9566386" lon="12.8071413"><ele>649.0</ele><time>2026-04-11T13:12:28.391Z</time></trkpt><trkpt lat="42.956532" lon="12.8071744"><ele>651.0</ele><time>2026-04-11T13:12:30.38Z</time></trkpt><trkpt lat="42.9564312" lon="12.8071426"><ele>653.0</ele><time>2026-04-11T13:12:32.377Z</time></trkpt><trkpt lat="42.9563625" lon="12.8070855"><ele>655.0</ele><time>2026-04-11T13:12:34.388Z</time></trkpt><trkpt lat="42.9562995" lon="12.8070636"><ele>657.0</ele><time>2026-04-11T13:13:29.381Z</time></trkpt><trkpt lat="42.956226" lon="12.8070328"><ele>659.0</ele><time>2026-04-11T13:13:31.377Z</time></trkpt><trkpt lat="42.9561528" lon="12.8069952"><ele>661.0</ele><time>2026-04-11T13:13:33.397Z</time></trkpt><trkpt lat="42.9560793" lon="12.8069527"><ele>661.0</ele><time>2026-04-11T13:13:35.383Z</time></trkpt><trkpt lat="42.9560012" lon="12.8069275"><ele>661.0</ele><time>2026-04-11T13:13:38.393Z</time></trkpt><trkpt lat="42.9559396" lon="12.806901"><ele>661.0</ele><time>2026-04-11T13:13:41.398Z</time></trkpt><trkpt lat="42.9560076" lon="12.8069085"><ele>661.0</ele><time>2026-04-11T13:14:05.394Z</time></trkpt><trkpt lat="42.9560766" lon="12.8069412"><ele>661.0</ele><time>2026-04-11T13:14:07.381Z</time></trkpt><trkpt lat="42.9561752" lon="12.8069969"><ele>661.0</ele><time>2026-04-11T13:14:09.375Z</time></trkpt><trkpt lat="42.9562595" lon="12.807044"><ele>661.0</ele><time>2026-04-11T13:14:11.387Z</time></trkpt><trkpt lat="42.956323" lon="12.8070802"><ele>661.0</ele><time>2026-04-11T13:14:14.381Z</time></trkpt><trkpt lat="42.9564382" lon="12.8071283"><ele>661.0</ele><time>2026-04-11T13:14:20.374Z</time></trkpt><trkpt lat="42.956502" lon="12.8071407"><ele>661.0</ele><time>2026-04-11T13:14:22.388Z</time></trkpt><trkpt lat="42.9565652" lon="12.8071411"><ele>661.0</ele><time>2026-04-11T13:14:24.386Z</time></trkpt><trkpt lat="42.9566409" lon="12.8071221"><ele>661.0</ele><time>2026-04-11T13:14:26.388Z</time></trkpt><trkpt lat="42.9567223" lon="12.8070911"><ele>658.5999999999999</ele><time>2026-04-11T13:14:28.396Z</time></trkpt><trkpt lat="42.9567985" lon="12.8071056"><ele>656.2</ele><time>2026-04-11T13:14:30.394Z</time></trkpt><trkpt lat="42.9568936" lon="12.8071414"><ele>653.8</ele><time>2026-04-11T13:14:32.385Z</time></trkpt><trkpt lat="42.9569907" lon="12.8071822"><ele>651.4000000000001</ele><time>2026-04-11T13:14:34.4Z</time></trkpt><trkpt lat="42.9571014" lon="12.8072068"><ele>649.0</ele><time>2026-04-11T13:14:36.38Z</time></trkpt><trkpt lat="42.9571688" lon="12.8071926"><ele>648.9999999999999</ele><time>2026-04-11T13:14:37.382Z</time></trkpt><trkpt lat="42.9572345" lon="12.8071731"><ele>649.0</ele><time>2026-04-11T13:14:38.39Z</time></trkpt><trkpt lat="42.9573071" lon="12.8071773"><ele>649.0</ele><time>2026-04-11T13:14:39.375Z</time></trkpt><trkpt lat="42.9573798" lon="12.807188"><ele>649.0</ele><time>2026-04-11T13:14:40.399Z</time></trkpt><trkpt lat="42.9574511" lon="12.8071834"><ele>649.0</ele><time>2026-04-11T13:14:41.382Z</time></trkpt><trkpt lat="42.9575153" lon="12.8071828"><ele>648.9999999999999</ele><time>2026-04-11T13:14:42.393Z</time></trkpt><trkpt lat="42.9575833" lon="12.8071915"><ele>649.0</ele><time>2026-04-11T13:14:43.385Z</time></trkpt><trkpt lat="42.957649" lon="12.8072047"><ele>646.2</ele><time>2026-04-11T13:14:44.384Z</time></trkpt><trkpt lat="42.9577572" lon="12.8071965"><ele>643.4000000000001</ele><time>2026-04-11T13:14:46.382Z</time></trkpt><trkpt lat="42.9578419" lon="12.8071275"><ele>640.6</ele><time>2026-04-11T13:14:48.392Z</time></trkpt><trkpt lat="42.9579586" lon="12.8070619"><ele>637.8</ele><time>2026-04-11T13:14:50.394Z</time></trkpt><trkpt lat="42.9580291" lon="12.8070512"><ele>635.0</ele><time>2026-04-11T13:14:51.385Z</time></trkpt><trkpt lat="42.9581078" lon="12.8070445"><ele>635.0</ele><time>2026-04-11T13:14:52.392Z</time></trkpt><trkpt lat="42.9581882" lon="12.8070263"><ele>635.0</ele><time>2026-04-11T13:14:53.376Z</time></trkpt><trkpt lat="42.9582602" lon="12.8070078"><ele>635.0</ele><time>2026-04-11T13:14:54.383Z</time></trkpt><trkpt lat="42.9583419" lon="12.8069977"><ele>635.0</ele><time>2026-04-11T13:14:55.388Z</time></trkpt><trkpt lat="42.9584235" lon="12.8069961"><ele>635.0</ele><time>2026-04-11T13:14:56.373Z</time></trkpt><trkpt lat="42.9585084" lon="12.8070079"><ele>635.0</ele><time>2026-04-11T13:14:57.382Z</time></trkpt><trkpt lat="42.9585914" lon="12.8070218"><ele>633.0</ele><time>2026-04-11T13:14:58.386Z</time></trkpt><trkpt lat="42.9586737" lon="12.8070177"><ele>631.0</ele><time>2026-04-11T13:14:59.407Z</time></trkpt><trkpt lat="42.9587637" lon="12.8070028"><ele>629.0</ele><time>2026-04-11T13:15:00.386Z</time></trkpt><trkpt lat="42.9588492" lon="12.8069944"><ele>627.0</ele><time>2026-04-11T13:15:01.385Z</time></trkpt><trkpt lat="42.9589286" lon="12.8069827"><ele>625.0</ele><time>2026-04-11T13:15:02.389Z</time></trkpt><trkpt lat="42.9590106" lon="12.8069728"><ele>623.0</ele><time>2026-04-11T13:15:03.387Z</time></trkpt><trkpt lat="42.9590791" lon="12.8069633"><ele>623.0</ele><time>2026-04-11T13:15:04.384Z</time></trkpt><trkpt lat="42.9591438" lon="12.8069379"><ele>623.0</ele><time>2026-04-11T13:15:05.388Z</time></trkpt><trkpt lat="42.9592117" lon="12.8069175"><ele>623.0</ele><time>2026-04-11T13:15:06.382Z</time></trkpt><trkpt lat="42.9592781" lon="12.8069"><ele>623.0</ele><time>2026-04-11T13:15:07.397Z</time></trkpt><trkpt lat="42.9593415" lon="12.8068783"><ele>623.0</ele><time>2026-04-11T13:15:08.379Z</time></trkpt><trkpt lat="42.9594321" lon="12.8068186"><ele>623.0</ele><time>2026-04-11T13:15:10.388Z</time></trkpt><trkpt lat="42.9595155" lon="12.8067487"><ele>620.5</ele><time>2026-04-11T13:15:12.385Z</time></trkpt><trkpt lat="42.9596108" lon="12.806692"><ele>618.0</ele><time>2026-04-11T13:15:14.39Z</time></trkpt><trkpt lat="42.9597267" lon="12.806642"><ele>615.5</ele><time>2026-04-11T13:15:16.385Z</time></trkpt><trkpt lat="42.9598358" lon="12.806598"><ele>613.0</ele><time>2026-04-11T13:15:18.393Z</time></trkpt><trkpt lat="42.9599374" lon="12.8065196"><ele>613.0</ele><time>2026-04-11T13:15:20.383Z</time></trkpt><trkpt lat="42.9600269" lon="12.8064504"><ele>613.0</ele><time>2026-04-11T13:15:22.376Z</time></trkpt><trkpt lat="42.9601342" lon="12.80638"><ele>613.0</ele><time>2026-04-11T13:15:24.386Z</time></trkpt><trkpt lat="42.9602477" lon="12.806309"><ele>613.0</ele><time>2026-04-11T13:15:26.383Z</time></trkpt><trkpt lat="42.9603009" lon="12.806253"><ele>613.0</ele><time>2026-04-11T13:15:27.382Z</time></trkpt><trkpt lat="42.9603483" lon="12.8061874"><ele>610.6</ele><time>2026-04-11T13:15:28.386Z</time></trkpt><trkpt lat="42.9604034" lon="12.8060453"><ele>608.1999999999999</ele><time>2026-04-11T13:15:30.388Z</time></trkpt><trkpt lat="42.9604633" lon="12.8059405"><ele>605.8</ele><time>2026-04-11T13:15:32.391Z</time></trkpt><trkpt lat="42.9605729" lon="12.8059232"><ele>603.4</ele><time>2026-04-11T13:15:34.38Z</time></trkpt><trkpt lat="42.9606404" lon="12.8059426"><ele>601.0</ele><time>2026-04-11T13:15:35.395Z</time></trkpt><trkpt lat="42.9607228" lon="12.8059563"><ele>606.6</ele><time>2026-04-11T13:15:36.383Z</time></trkpt><trkpt lat="42.9608154" lon="12.8059603"><ele>612.2</ele><time>2026-04-11T13:15:37.382Z</time></trkpt><trkpt lat="42.9609101" lon="12.8059303"><ele>617.8</ele><time>2026-04-11T13:15:38.38Z</time></trkpt><trkpt lat="42.9610083" lon="12.8058688"><ele>623.4</ele><time>2026-04-11T13:15:39.383Z</time></trkpt><trkpt lat="42.9611202" lon="12.805801"><ele>629.0</ele><time>2026-04-11T13:15:40.394Z</time></trkpt><trkpt lat="42.9612334" lon="12.8057355"><ele>629.0</ele><time>2026-04-11T13:15:41.395Z</time></trkpt><trkpt lat="42.9613473" lon="12.8056719"><ele>629.0</ele><time>2026-04-11T13:15:42.386Z</time></trkpt><trkpt lat="42.9614637" lon="12.8055986"><ele>629.0</ele><time>2026-04-11T13:15:43.388Z</time></trkpt><trkpt lat="42.961581" lon="12.8055372"><ele>629.0</ele><time>2026-04-11T13:15:44.396Z</time></trkpt><trkpt lat="42.9617023" lon="12.8054955"><ele>627.75</ele><time>2026-04-11T13:15:45.391Z</time></trkpt><trkpt lat="42.9618359" lon="12.8054768"><ele>626.5</ele><time>2026-04-11T13:15:46.402Z</time></trkpt><trkpt lat="42.9619754" lon="12.805462"><ele>625.25</ele><time>2026-04-11T13:15:47.391Z</time></trkpt><trkpt lat="42.9621079" lon="12.8054405"><ele>624.0</ele><time>2026-04-11T13:15:48.394Z</time></trkpt><trkpt lat="42.9622507" lon="12.8054118"><ele>624.0</ele><time>2026-04-11T13:15:49.395Z</time></trkpt><trkpt lat="42.9623927" lon="12.8053874"><ele>624.0</ele><time>2026-04-11T13:15:50.39Z</time></trkpt><trkpt lat="42.9625318" lon="12.8053645"><ele>624.0</ele><time>2026-04-11T13:15:51.415Z</time></trkpt><trkpt lat="42.9626714" lon="12.8053411"><ele>624.0</ele><time>2026-04-11T13:15:52.39Z</time></trkpt><trkpt lat="42.9628084" lon="12.8053178"><ele>623.5</ele><time>2026-04-11T13:15:53.396Z</time></trkpt><trkpt lat="42.9629397" lon="12.805291"><ele>623.0</ele><time>2026-04-11T13:15:54.391Z</time></trkpt><trkpt lat="42.9630674" lon="12.8052606"><ele>622.5</ele><time>2026-04-11T13:15:55.393Z</time></trkpt><trkpt lat="42.9631888" lon="12.8052207"><ele>622.0</ele><time>2026-04-11T13:15:56.396Z</time></trkpt><trkpt lat="42.96331" lon="12.8051738"><ele>629.5</ele><time>2026-04-11T13:15:57.384Z</time></trkpt><trkpt lat="42.9634386" lon="12.8051025"><ele>637.0</ele><time>2026-04-11T13:15:58.386Z</time></trkpt><trkpt lat="42.9635673" lon="12.8050124"><ele>644.5</ele><time>2026-04-11T13:15:59.385Z</time></trkpt><trkpt lat="42.9636932" lon="12.8049176"><ele>652.0</ele><time>2026-04-11T13:16:00.392Z</time></trkpt><trkpt lat="42.9638196" lon="12.8048386"><ele>652.0</ele><time>2026-04-11T13:16:01.383Z</time></trkpt><trkpt lat="42.9639482" lon="12.8047824"><ele>652.0</ele><time>2026-04-11T13:16:02.394Z</time></trkpt><trkpt lat="42.9640857" lon="12.8047426"><ele>652.0</ele><time>2026-04-11T13:16:03.392Z</time></trkpt><trkpt lat="42.9642319" lon="12.8047188"><ele>652.0</ele><time>2026-04-11T13:16:04.388Z</time></trkpt><trkpt lat="42.9643811" lon="12.8046966"><ele>649.5</ele><time>2026-04-11T13:16:05.413Z</time></trkpt><trkpt lat="42.9645238" lon="12.8046895"><ele>647.0</ele><time>2026-04-11T13:16:06.385Z</time></trkpt><trkpt lat="42.9646497" lon="12.8046782"><ele>644.5</ele><time>2026-04-11T13:16:07.386Z</time></trkpt><trkpt lat="42.9647636" lon="12.8046483"><ele>642.0</ele><time>2026-04-11T13:16:08.392Z</time></trkpt><trkpt lat="42.9648641" lon="12.8045985"><ele>642.0</ele><time>2026-04-11T13:16:09.405Z</time></trkpt><trkpt lat="42.964946" lon="12.8045231"><ele>642.0</ele><time>2026-04-11T13:16:10.401Z</time></trkpt><trkpt lat="42.9650157" lon="12.8044161"><ele>642.0</ele><time>2026-04-11T13:16:11.39Z</time></trkpt><trkpt lat="42.965083" lon="12.8043061"><ele>642.0</ele><time>2026-04-11T13:16:12.391Z</time></trkpt><trkpt lat="42.9651692" lon="12.804197"><ele>642.0</ele><time>2026-04-11T13:16:13.388Z</time></trkpt><trkpt lat="42.9652702" lon="12.8041318"><ele>643.0</ele><time>2026-04-11T13:16:14.385Z</time></trkpt><trkpt lat="42.9653678" lon="12.8040972"><ele>644.0</ele><time>2026-04-11T13:16:15.39Z</time></trkpt><trkpt lat="42.9654496" lon="12.8040682"><ele>645.0</ele><time>2026-04-11T13:16:16.394Z</time></trkpt><trkpt lat="42.9655183" lon="12.8040302"><ele>646.0</ele><time>2026-04-11T13:16:17.395Z</time></trkpt><trkpt lat="42.9655706" lon="12.8039687"><ele>647.0</ele><time>2026-04-11T13:16:18.395Z</time></trkpt><trkpt lat="42.9655728" lon="12.8038116"><ele>648.0</ele><time>2026-04-11T13:16:20.391Z</time></trkpt><trkpt lat="42.9654606" lon="12.8037687"><ele>648.0</ele><time>2026-04-11T13:16:22.388Z</time></trkpt><trkpt lat="42.9653922" lon="12.8038016"><ele>648.0</ele><time>2026-04-11T13:16:23.392Z</time></trkpt><trkpt lat="42.9653096" lon="12.8038453"><ele>648.0</ele><time>2026-04-11T13:16:24.395Z</time></trkpt><trkpt lat="42.9652166" lon="12.803895"><ele>648.0</ele><time>2026-04-11T13:16:25.39Z</time></trkpt><trkpt lat="42.9651091" lon="12.8039415"><ele>648.0</ele><time>2026-04-11T13:16:26.402Z</time></trkpt><trkpt lat="42.9649957" lon="12.8039903"><ele>655.25</ele><time>2026-04-11T13:16:27.391Z</time></trkpt><trkpt lat="42.9648711" lon="12.8040323"><ele>662.5</ele><time>2026-04-11T13:16:28.403Z</time></trkpt><trkpt lat="42.9647269" lon="12.8040798"><ele>669.75</ele><time>2026-04-11T13:16:29.386Z</time></trkpt><trkpt lat="42.9645664" lon="12.8041191"><ele>677.0</ele><time>2026-04-11T13:16:30.384Z</time></trkpt><trkpt lat="42.964398" lon="12.8041476"><ele>677.0</ele><time>2026-04-11T13:16:31.387Z</time></trkpt><trkpt lat="42.9642212" lon="12.8041626"><ele>677.0</ele><time>2026-04-11T13:16:32.385Z</time></trkpt><trkpt lat="42.9640351" lon="12.8041689"><ele>677.0</ele><time>2026-04-11T13:16:33.392Z</time></trkpt><trkpt lat="42.9638589" lon="12.8041788"><ele>681.6666666666666</ele><time>2026-04-11T13:16:34.382Z</time></trkpt><trkpt lat="42.9636974" lon="12.8041913"><ele>686.3333333333334</ele><time>2026-04-11T13:16:35.385Z</time></trkpt><trkpt lat="42.963543" lon="12.804211"><ele>691.0</ele><time>2026-04-11T13:16:36.384Z</time></trkpt><trkpt lat="42.9633933" lon="12.8042485"><ele>694.0</ele><time>2026-04-11T13:16:37.379Z</time></trkpt><trkpt lat="42.9632585" lon="12.8042942"><ele>697.0</ele><time>2026-04-11T13:16:38.383Z</time></trkpt><trkpt lat="42.9631373" lon="12.8043313"><ele>700.0</ele><time>2026-04-11T13:16:39.392Z</time></trkpt><trkpt lat="42.9630179" lon="12.8043509"><ele>703.0</ele><time>2026-04-11T13:16:40.407Z</time></trkpt><trkpt lat="42.9628925" lon="12.8043568"><ele>705.5</ele><time>2026-04-11T13:16:41.404Z</time></trkpt><trkpt lat="42.962767" lon="12.8043524"><ele>708.0</ele><time>2026-04-11T13:16:42.372Z</time></trkpt><trkpt lat="42.9626363" lon="12.8043473"><ele>710.5</ele><time>2026-04-11T13:16:43.395Z</time></trkpt><trkpt lat="42.9625042" lon="12.8043399"><ele>713.0</ele><time>2026-04-11T13:16:44.391Z</time></trkpt><trkpt lat="42.9623674" lon="12.8043225"><ele>713.0</ele><time>2026-04-11T13:16:45.389Z</time></trkpt><trkpt lat="42.9622321" lon="12.804295"><ele>713.0</ele><time>2026-04-11T13:16:46.406Z</time></trkpt><trkpt lat="42.962093" lon="12.8042612"><ele>713.0</ele><time>2026-04-11T13:16:47.391Z</time></trkpt><trkpt lat="42.9619518" lon="12.8042203"><ele>713.0</ele><time>2026-04-11T13:16:48.392Z</time></trkpt><trkpt lat="42.9618097" lon="12.8041824"><ele>713.0</ele><time>2026-04-11T13:16:49.389Z</time></trkpt><trkpt lat="42.9616605" lon="12.8041546"><ele>713.0</ele><time>2026-04-11T13:16:50.39Z</time></trkpt><trkpt lat="42.9615094" lon="12.8041543"><ele>713.0</ele><time>2026-04-11T13:16:51.389Z</time></trkpt><trkpt lat="42.961357" lon="12.8041804"><ele>713.0</ele><time>2026-04-11T13:16:52.393Z</time></trkpt><trkpt lat="42.9612084" lon="12.8042264"><ele>713.0</ele><time>2026-04-11T13:16:53.391Z</time></trkpt><trkpt lat="42.9610683" lon="12.8042637"><ele>713.0</ele><time>2026-04-11T13:16:54.392Z</time></trkpt><trkpt lat="42.9609415" lon="12.8042706"><ele>713.0</ele><time>2026-04-11T13:16:55.387Z</time></trkpt><trkpt lat="42.9608151" lon="12.8042473"><ele>714.75</ele><time>2026-04-11T13:16:56.374Z</time></trkpt><trkpt lat="42.9606944" lon="12.8042006"><ele>716.5</ele><time>2026-04-11T13:16:57.381Z</time></trkpt><trkpt lat="42.9605729" lon="12.8041152"><ele>718.25</ele><time>2026-04-11T13:16:58.385Z</time></trkpt><trkpt lat="42.9604477" lon="12.8040238"><ele>720.0</ele><time>2026-04-11T13:16:59.375Z</time></trkpt><trkpt lat="42.9603178" lon="12.8039495"><ele>720.0</ele><time>2026-04-11T13:17:00.376Z</time></trkpt><trkpt lat="42.9601941" lon="12.8039261"><ele>720.0</ele><time>2026-04-11T13:17:01.385Z</time></trkpt><trkpt lat="42.9600795" lon="12.8039613"><ele>720.0</ele><time>2026-04-11T13:17:02.385Z</time></trkpt><trkpt lat="42.959993" lon="12.8040552"><ele>720.0</ele><time>2026-04-11T13:17:03.379Z</time></trkpt><trkpt lat="42.9599258" lon="12.8041639"><ele>721.5</ele><time>2026-04-11T13:17:04.384Z</time></trkpt><trkpt lat="42.9598902" lon="12.8042722"><ele>723.0</ele><time>2026-04-11T13:17:05.388Z</time></trkpt><trkpt lat="42.959814" lon="12.8043244"><ele>724.5</ele><time>2026-04-11T13:17:06.373Z</time></trkpt><trkpt lat="42.9596697" lon="12.8043068"><ele>726.0</ele><time>2026-04-11T13:17:07.377Z</time></trkpt><trkpt lat="42.9595128" lon="12.804276"><ele>726.0</ele><time>2026-04-11T13:17:08.376Z</time></trkpt><trkpt lat="42.9593539" lon="12.8042181"><ele>726.0</ele><time>2026-04-11T13:17:09.366Z</time></trkpt><trkpt lat="42.9591867" lon="12.8041498"><ele>726.0</ele><time>2026-04-11T13:17:10.389Z</time></trkpt><trkpt lat="42.9590445" lon="12.804079"><ele>728.75</ele><time>2026-04-11T13:17:11.383Z</time></trkpt><trkpt lat="42.9589295" lon="12.8040316"><ele>731.5</ele><time>2026-04-11T13:17:12.39Z</time></trkpt><trkpt lat="42.958821" lon="12.8040301"><ele>734.25</ele><time>2026-04-11T13:17:13.373Z</time></trkpt><trkpt lat="42.9587219" lon="12.8040908"><ele>737.0</ele><time>2026-04-11T13:17:14.401Z</time></trkpt><trkpt lat="42.9586182" lon="12.8041915"><ele>737.0</ele><time>2026-04-11T13:17:15.381Z</time></trkpt><trkpt lat="42.9585101" lon="12.8042982"><ele>737.0</ele><time>2026-04-11T13:17:16.384Z</time></trkpt><trkpt lat="42.9584098" lon="12.8043866"><ele>737.0</ele><time>2026-04-11T13:17:17.38Z</time></trkpt><trkpt lat="42.9583016" lon="12.804483"><ele>737.0</ele><time>2026-04-11T13:17:18.38Z</time></trkpt><trkpt lat="42.9582149" lon="12.8046147"><ele>735.0</ele><time>2026-04-11T13:17:19.376Z</time></trkpt><trkpt lat="42.958161" lon="12.8047446"><ele>733.0</ele><time>2026-04-11T13:17:20.38Z</time></trkpt><trkpt lat="42.9580864" lon="12.804843"><ele>731.0</ele><time>2026-04-11T13:17:21.393Z</time></trkpt><trkpt lat="42.9579903" lon="12.804891"><ele>729.0</ele><time>2026-04-11T13:17:22.383Z</time></trkpt><trkpt lat="42.9578902" lon="12.804908"><ele>727.0</ele><time>2026-04-11T13:17:23.38Z</time></trkpt><trkpt lat="42.9577671" lon="12.8049054"><ele>727.0</ele><time>2026-04-11T13:17:24.384Z</time></trkpt><trkpt lat="42.957634" lon="12.8048907"><ele>727.0</ele><time>2026-04-11T13:17:25.375Z</time></trkpt><trkpt lat="42.9574892" lon="12.8048621"><ele>727.0</ele><time>2026-04-11T13:17:26.387Z</time></trkpt><trkpt lat="42.9573312" lon="12.8048047"><ele>727.0</ele><time>2026-04-11T13:17:27.383Z</time></trkpt><trkpt lat="42.9571805" lon="12.8047347"><ele>731.0</ele><time>2026-04-11T13:17:28.381Z</time></trkpt><trkpt lat="42.9570398" lon="12.8046725"><ele>735.0</ele><time>2026-04-11T13:17:29.384Z</time></trkpt><trkpt lat="42.9569105" lon="12.8046383"><ele>739.0</ele><time>2026-04-11T13:17:30.388Z</time></trkpt><trkpt lat="42.956772" lon="12.804623"><ele>743.0</ele><time>2026-04-11T13:17:31.371Z</time></trkpt><trkpt lat="42.956619" lon="12.804623"><ele>744.3333333333333</ele><time>2026-04-11T13:17:32.38Z</time></trkpt><trkpt lat="42.9564606" lon="12.8046254"><ele>745.6666666666666</ele><time>2026-04-11T13:17:33.377Z</time></trkpt><trkpt lat="42.9562914" lon="12.8046279"><ele>747.0</ele><time>2026-04-11T13:17:34.389Z</time></trkpt><trkpt lat="42.9561228" lon="12.8046297"><ele>747.0</ele><time>2026-04-11T13:17:35.375Z</time></trkpt><trkpt lat="42.9559631" lon="12.8046313"><ele>747.0</ele><time>2026-04-11T13:17:36.379Z</time></trkpt><trkpt lat="42.955819" lon="12.804637"><ele>747.0</ele><time>2026-04-11T13:17:37.385Z</time></trkpt><trkpt lat="42.955684" lon="12.8046448"><ele>747.0</ele><time>2026-04-11T13:17:38.383Z</time></trkpt><trkpt lat="42.9555486" lon="12.8046472"><ele>749.5</ele><time>2026-04-11T13:17:39.395Z</time></trkpt><trkpt lat="42.9554173" lon="12.8046537"><ele>752.0</ele><time>2026-04-11T13:17:40.381Z</time></trkpt><trkpt lat="42.9552842" lon="12.8046629"><ele>754.5</ele><time>2026-04-11T13:17:41.382Z</time></trkpt><trkpt lat="42.9551593" lon="12.8046696"><ele>757.0</ele><time>2026-04-11T13:17:42.375Z</time></trkpt><trkpt lat="42.9550348" lon="12.8046768"><ele>758.4000000000001</ele><time>2026-04-11T13:17:43.386Z</time></trkpt><trkpt lat="42.9549207" lon="12.8046834"><ele>759.8000000000001</ele><time>2026-04-11T13:17:44.386Z</time></trkpt><trkpt lat="42.9548217" lon="12.8046847"><ele>761.2</ele><time>2026-04-11T13:17:45.384Z</time></trkpt><trkpt lat="42.9547233" lon="12.8046878"><ele>762.6</ele><time>2026-04-11T13:17:46.383Z</time></trkpt><trkpt lat="42.9546121" lon="12.8046834"><ele>764.0</ele><time>2026-04-11T13:17:47.403Z</time></trkpt><trkpt lat="42.9544925" lon="12.8046641"><ele>764.0</ele><time>2026-04-11T13:17:48.38Z</time></trkpt><trkpt lat="42.95438" lon="12.804641"><ele>764.0</ele><time>2026-04-11T13:17:49.384Z</time></trkpt><trkpt lat="42.954268" lon="12.804618"><ele>764.0</ele><time>2026-04-11T13:17:50.379Z</time></trkpt><trkpt lat="42.9541696" lon="12.8045798"><ele>764.0</ele><time>2026-04-11T13:17:51.374Z</time></trkpt><trkpt lat="42.9540699" lon="12.8045294"><ele>764.0</ele><time>2026-04-11T13:17:52.381Z</time></trkpt><trkpt lat="42.9539678" lon="12.8044856"><ele>764.25</ele><time>2026-04-11T13:17:53.378Z</time></trkpt><trkpt lat="42.9538583" lon="12.8044757"><ele>764.5</ele><time>2026-04-11T13:17:54.373Z</time></trkpt><trkpt lat="42.9537306" lon="12.8044797"><ele>764.75</ele><time>2026-04-11T13:17:55.373Z</time></trkpt><trkpt lat="42.953607" lon="12.80449"><ele>765.0</ele><time>2026-04-11T13:17:56.382Z</time></trkpt><trkpt lat="42.9534809" lon="12.8045008"><ele>766.75</ele><time>2026-04-11T13:17:57.372Z</time></trkpt><trkpt lat="42.9533511" lon="12.8045202"><ele>768.5</ele><time>2026-04-11T13:17:58.378Z</time></trkpt><trkpt lat="42.9532136" lon="12.8045374"><ele>770.25</ele><time>2026-04-11T13:17:59.384Z</time></trkpt><trkpt lat="42.9530822" lon="12.8045447"><ele>772.0</ele><time>2026-04-11T13:18:00.384Z</time></trkpt><trkpt lat="42.9529495" lon="12.8045581"><ele>772.0</ele><time>2026-04-11T13:18:01.386Z</time></trkpt><trkpt lat="42.9528105" lon="12.8045717"><ele>772.0</ele><time>2026-04-11T13:18:02.387Z</time></trkpt><trkpt lat="42.9526651" lon="12.8045897"><ele>772.0</ele><time>2026-04-11T13:18:03.373Z</time></trkpt><trkpt lat="42.9525204" lon="12.8046098"><ele>772.0</ele><time>2026-04-11T13:18:04.39Z</time></trkpt><trkpt lat="42.9523833" lon="12.8046365"><ele>775.25</ele><time>2026-04-11T13:18:05.376Z</time></trkpt><trkpt lat="42.9522475" lon="12.8046569"><ele>778.5</ele><time>2026-04-11T13:18:06.383Z</time></trkpt><trkpt lat="42.9521243" lon="12.8046779"><ele>781.75</ele><time>2026-04-11T13:18:07.381Z</time></trkpt><trkpt lat="42.9520084" lon="12.8046912"><ele>785.0</ele><time>2026-04-11T13:18:08.38Z</time></trkpt><trkpt lat="42.9518908" lon="12.8047002"><ele>785.0</ele><time>2026-04-11T13:18:09.373Z</time></trkpt><trkpt lat="42.9517695" lon="12.8047175"><ele>785.0</ele><time>2026-04-11T13:18:10.379Z</time></trkpt><trkpt lat="42.9516402" lon="12.8047494"><ele>785.0</ele><time>2026-04-11T13:18:11.381Z</time></trkpt><trkpt lat="42.9515133" lon="12.804793"><ele>785.0</ele><time>2026-04-11T13:18:12.387Z</time></trkpt><trkpt lat="42.9513782" lon="12.8048288"><ele>790.6666666666667</ele><time>2026-04-11T13:18:13.373Z</time></trkpt><trkpt lat="42.9512361" lon="12.8048684"><ele>796.3333333333333</ele><time>2026-04-11T13:18:14.382Z</time></trkpt><trkpt lat="42.9510857" lon="12.8048932"><ele>802.0</ele><time>2026-04-11T13:18:15.372Z</time></trkpt><trkpt lat="42.950929" lon="12.8049146"><ele>808.3333333333333</ele><time>2026-04-11T13:18:16.377Z</time></trkpt><trkpt lat="42.9507634" lon="12.804929"><ele>814.6666666666667</ele><time>2026-04-11T13:18:17.374Z</time></trkpt><trkpt lat="42.9505993" lon="12.8049439"><ele>821.0</ele><time>2026-04-11T13:18:18.38Z</time></trkpt><trkpt lat="42.9504363" lon="12.8049675"><ele>821.0</ele><time>2026-04-11T13:18:19.377Z</time></trkpt><trkpt lat="42.9502836" lon="12.8049917"><ele>821.0</ele><time>2026-04-11T13:18:20.396Z</time></trkpt><trkpt lat="42.9501498" lon="12.8050108"><ele>821.0</ele><time>2026-04-11T13:18:21.373Z</time></trkpt><trkpt lat="42.9500143" lon="12.8050208"><ele>821.0</ele><time>2026-04-11T13:18:22.377Z</time></trkpt><trkpt lat="42.9498807" lon="12.8050161"><ele>823.75</ele><time>2026-04-11T13:18:23.377Z</time></trkpt><trkpt lat="42.9497414" lon="12.8049934"><ele>826.5</ele><time>2026-04-11T13:18:24.376Z</time></trkpt><trkpt lat="42.9495995" lon="12.804955"><ele>829.25</ele><time>2026-04-11T13:18:25.376Z</time></trkpt><trkpt lat="42.9494598" lon="12.8049067"><ele>832.0</ele><time>2026-04-11T13:18:26.376Z</time></trkpt><trkpt lat="42.9493199" lon="12.8048553"><ele>834.3333333333333</ele><time>2026-04-11T13:18:27.391Z</time></trkpt><trkpt lat="42.9491794" lon="12.8047948"><ele>836.6666666666667</ele><time>2026-04-11T13:18:28.384Z</time></trkpt><trkpt lat="42.9490329" lon="12.8047357"><ele>839.0</ele><time>2026-04-11T13:18:29.378Z</time></trkpt><trkpt lat="42.9488755" lon="12.804672"><ele>839.0</ele><time>2026-04-11T13:18:30.379Z</time></trkpt><trkpt lat="42.9487308" lon="12.8046065"><ele>839.0</ele><time>2026-04-11T13:18:31.381Z</time></trkpt><trkpt lat="42.9485979" lon="12.8045362"><ele>839.0</ele><time>2026-04-11T13:18:32.376Z</time></trkpt><trkpt lat="42.9484734" lon="12.8044657"><ele>839.0</ele><time>2026-04-11T13:18:33.366Z</time></trkpt><trkpt lat="42.948359" lon="12.8044041"><ele>841.2</ele><time>2026-04-11T13:18:34.38Z</time></trkpt><trkpt lat="42.9482458" lon="12.8043453"><ele>843.4000000000001</ele><time>2026-04-11T13:18:35.377Z</time></trkpt><trkpt lat="42.9481426" lon="12.8042892"><ele>845.6</ele><time>2026-04-11T13:18:36.381Z</time></trkpt><trkpt lat="42.9480548" lon="12.8042406"><ele>847.8</ele><time>2026-04-11T13:18:37.378Z</time></trkpt><trkpt lat="42.9479941" lon="12.8042075"><ele>850.0</ele><time>2026-04-11T13:18:38.383Z</time></trkpt><trkpt lat="42.9478868" lon="12.804153"><ele>851.3333333333333</ele><time>2026-04-11T13:18:40.386Z</time></trkpt><trkpt lat="42.9478196" lon="12.8041304"><ele>852.6666666666666</ele><time>2026-04-11T13:18:41.376Z</time></trkpt><trkpt lat="42.9477474" lon="12.8041123"><ele>854.0</ele><time>2026-04-11T13:18:42.389Z</time></trkpt><trkpt lat="42.9476678" lon="12.8040934"><ele>855.3333333333333</ele><time>2026-04-11T13:18:43.382Z</time></trkpt><trkpt lat="42.9475842" lon="12.8040782"><ele>856.6666666666666</ele><time>2026-04-11T13:18:44.383Z</time></trkpt><trkpt lat="42.9474975" lon="12.8040557"><ele>858.0</ele><time>2026-04-11T13:18:45.381Z</time></trkpt><trkpt lat="42.9474216" lon="12.8040437"><ele>858.0</ele><time>2026-04-11T13:18:46.377Z</time></trkpt><trkpt lat="42.947346" lon="12.8040325"><ele>858.0</ele><time>2026-04-11T13:18:47.379Z</time></trkpt><trkpt lat="42.9472703" lon="12.8040292"><ele>858.0</ele><time>2026-04-11T13:18:48.404Z</time></trkpt><trkpt lat="42.9471921" lon="12.8040245"><ele>858.0</ele><time>2026-04-11T13:18:49.38Z</time></trkpt><trkpt lat="42.9471013" lon="12.8040179"><ele>858.0</ele><time>2026-04-11T13:18:50.388Z</time></trkpt><trkpt lat="42.9470047" lon="12.804012"><ele>858.0</ele><time>2026-04-11T13:18:51.385Z</time></trkpt><trkpt lat="42.9469013" lon="12.8040096"><ele>858.0</ele><time>2026-04-11T13:18:52.393Z</time></trkpt><trkpt lat="42.9467933" lon="12.804009"><ele>858.0</ele><time>2026-04-11T13:18:53.394Z</time></trkpt><trkpt lat="42.9466812" lon="12.8039999"><ele>858.0</ele><time>2026-04-11T13:18:54.388Z</time></trkpt><trkpt lat="42.9465663" lon="12.8039811"><ele>858.0</ele><time>2026-04-11T13:18:55.375Z</time></trkpt><trkpt lat="42.9464468" lon="12.8039609"><ele>860.0</ele><time>2026-04-11T13:18:56.39Z</time></trkpt><trkpt lat="42.9463217" lon="12.8039548"><ele>862.0</ele><time>2026-04-11T13:18:57.371Z</time></trkpt><trkpt lat="42.9461979" lon="12.8039697"><ele>864.0</ele><time>2026-04-11T13:18:58.382Z</time></trkpt><trkpt lat="42.9460668" lon="12.8040024"><ele>866.0</ele><time>2026-04-11T13:18:59.384Z</time></trkpt><trkpt lat="42.9459358" lon="12.8040339"><ele>868.0</ele><time>2026-04-11T13:19:00.376Z</time></trkpt><trkpt lat="42.9457972" lon="12.8040645"><ele>870.0</ele><time>2026-04-11T13:19:01.369Z</time></trkpt><trkpt lat="42.9456608" lon="12.8040986"><ele>872.0</ele><time>2026-04-11T13:19:02.379Z</time></trkpt><trkpt lat="42.9455269" lon="12.8041369"><ele>874.0</ele><time>2026-04-11T13:19:03.378Z</time></trkpt><trkpt lat="42.9453978" lon="12.804187"><ele>874.0</ele><time>2026-04-11T13:19:04.38Z</time></trkpt><trkpt lat="42.9452761" lon="12.8042499"><ele>874.0</ele><time>2026-04-11T13:19:05.377Z</time></trkpt><trkpt lat="42.9451652" lon="12.8043159"><ele>874.0</ele><time>2026-04-11T13:19:06.383Z</time></trkpt><trkpt lat="42.9450716" lon="12.8043941"><ele>874.0</ele><time>2026-04-11T13:19:07.377Z</time></trkpt><trkpt lat="42.9450012" lon="12.804483"><ele>875.6666666666666</ele><time>2026-04-11T13:19:08.371Z</time></trkpt><trkpt lat="42.9449415" lon="12.8045684"><ele>877.3333333333333</ele><time>2026-04-11T13:19:09.367Z</time></trkpt><trkpt lat="42.9448907" lon="12.8046212"><ele>879.0</ele><time>2026-04-11T13:19:10.377Z</time></trkpt><trkpt lat="42.9447936" lon="12.804632"><ele>880.6666666666667</ele><time>2026-04-11T13:19:12.389Z</time></trkpt><trkpt lat="42.9447446" lon="12.8045285"><ele>882.3333333333334</ele><time>2026-04-11T13:19:14.382Z</time></trkpt><trkpt lat="42.9447937" lon="12.8044013"><ele>884.0</ele><time>2026-04-11T13:19:16.383Z</time></trkpt><trkpt lat="42.9448586" lon="12.8043339"><ele>885.5</ele><time>2026-04-11T13:19:17.384Z</time></trkpt><trkpt lat="42.944943" lon="12.8043118"><ele>887.0</ele><time>2026-04-11T13:19:18.38Z</time></trkpt><trkpt lat="42.9450293" lon="12.804209"><ele>888.5</ele><time>2026-04-11T13:19:19.374Z</time></trkpt><trkpt lat="42.9451053" lon="12.8040405"><ele>890.0</ele><time>2026-04-11T13:19:20.378Z</time></trkpt><trkpt lat="42.9452014" lon="12.8039183"><ele>886.8</ele><time>2026-04-11T13:19:21.375Z</time></trkpt><trkpt lat="42.9452969" lon="12.8038479"><ele>883.6</ele><time>2026-04-11T13:19:22.38Z</time></trkpt><trkpt lat="42.9453941" lon="12.8038185"><ele>880.4000000000001</ele><time>2026-04-11T13:19:23.388Z</time></trkpt><trkpt lat="42.9454876" lon="12.8037603"><ele>877.2</ele><time>2026-04-11T13:19:24.385Z</time></trkpt><trkpt lat="42.9455843" lon="12.803668"><ele>874.0</ele><time>2026-04-11T13:19:25.381Z</time></trkpt><trkpt lat="42.945681" lon="12.8035383"><ele>877.25</ele><time>2026-04-11T13:19:26.38Z</time></trkpt><trkpt lat="42.9457822" lon="12.8034288"><ele>880.5</ele><time>2026-04-11T13:19:27.383Z</time></trkpt><trkpt lat="42.9458994" lon="12.8033278"><ele>883.75</ele><time>2026-04-11T13:19:28.392Z</time></trkpt><trkpt lat="42.9460106" lon="12.8032423"><ele>887.0</ele><time>2026-04-11T13:19:29.373Z</time></trkpt><trkpt lat="42.9460993" lon="12.8031677"><ele>887.0000000000001</ele><time>2026-04-11T13:19:30.383Z</time></trkpt><trkpt lat="42.9461719" lon="12.8031144"><ele>887.0</ele><time>2026-04-11T13:19:31.381Z</time></trkpt><trkpt lat="42.9462317" lon="12.8030729"><ele>887.0</ele><time>2026-04-11T13:19:32.386Z</time></trkpt><trkpt lat="42.9462957" lon="12.8030398"><ele>887.0</ele><time>2026-04-11T13:19:33.372Z</time></trkpt><trkpt lat="42.9463668" lon="12.8030118"><ele>887.0000000000001</ele><time>2026-04-11T13:19:34.38Z</time></trkpt><trkpt lat="42.9464526" lon="12.8029426"><ele>887.0</ele><time>2026-04-11T13:19:36.388Z</time></trkpt><trkpt lat="42.9464869" lon="12.8028269"><ele>887.0000000000001</ele><time>2026-04-11T13:19:38.377Z</time></trkpt><trkpt lat="42.9464267" lon="12.8027482"><ele>887.0</ele><time>2026-04-11T13:19:40.379Z</time></trkpt><trkpt lat="42.9463407" lon="12.8027654"><ele>887.0</ele><time>2026-04-11T13:19:42.39Z</time></trkpt><trkpt lat="42.9462392" lon="12.8028532"><ele>887.0</ele><time>2026-04-11T13:19:44.39Z</time></trkpt><trkpt lat="42.9461818" lon="12.8028909"><ele>887.0000000000001</ele><time>2026-04-11T13:19:45.376Z</time></trkpt><trkpt lat="42.9461209" lon="12.8029238"><ele>887.0</ele><time>2026-04-11T13:19:46.379Z</time></trkpt><trkpt lat="42.9460555" lon="12.802956"><ele>887.0000000000001</ele><time>2026-04-11T13:19:47.385Z</time></trkpt><trkpt lat="42.945986" lon="12.8029858"><ele>887.0</ele><time>2026-04-11T13:19:48.381Z</time></trkpt><trkpt lat="42.9459192" lon="12.8030069"><ele>887.0</ele><time>2026-04-11T13:19:49.373Z</time></trkpt><trkpt lat="42.945852" lon="12.8030187"><ele>887.0</ele><time>2026-04-11T13:19:50.394Z</time></trkpt><trkpt lat="42.945729" lon="12.8030398"><ele>887.0000000000001</ele><time>2026-04-11T13:19:52.391Z</time></trkpt><trkpt lat="42.9456664" lon="12.8030496"><ele>887.0</ele><time>2026-04-11T13:19:53.374Z</time></trkpt><trkpt lat="42.9456009" lon="12.8030579"><ele>888.6666666666667</ele><time>2026-04-11T13:19:54.381Z</time></trkpt><trkpt lat="42.9455317" lon="12.803065"><ele>890.3333333333334</ele><time>2026-04-11T13:19:55.379Z</time></trkpt><trkpt lat="42.9454584" lon="12.8030711"><ele>892.0</ele><time>2026-04-11T13:19:56.387Z</time></trkpt><trkpt lat="42.9453794" lon="12.8030761"><ele>893.6666666666667</ele><time>2026-04-11T13:19:57.377Z</time></trkpt><trkpt lat="42.945289" lon="12.8030834"><ele>895.3333333333334</ele><time>2026-04-11T13:19:58.386Z</time></trkpt><trkpt lat="42.9451928" lon="12.8030917"><ele>897.0</ele><time>2026-04-11T13:19:59.384Z</time></trkpt><trkpt lat="42.9451114" lon="12.8030934"><ele>897.0</ele><time>2026-04-11T13:20:00.378Z</time></trkpt><trkpt lat="42.9450461" lon="12.8030905"><ele>897.0</ele><time>2026-04-11T13:20:01.384Z</time></trkpt><trkpt lat="42.9449467" lon="12.8030856"><ele>897.0</ele><time>2026-04-11T13:20:03.374Z</time></trkpt><trkpt lat="42.9448382" lon="12.8030931"><ele>897.0</ele><time>2026-04-11T13:20:05.378Z</time></trkpt><trkpt lat="42.9447706" lon="12.8030975"><ele>897.0</ele><time>2026-04-11T13:20:06.398Z</time></trkpt><trkpt lat="42.9446992" lon="12.8031014"><ele>897.0</ele><time>2026-04-11T13:20:07.376Z</time></trkpt><trkpt lat="42.9446282" lon="12.8031078"><ele>899.6</ele><time>2026-04-11T13:20:08.387Z</time></trkpt><trkpt lat="42.9445649" lon="12.8031158"><ele>902.2</ele><time>2026-04-11T13:20:09.379Z</time></trkpt><trkpt lat="42.9444977" lon="12.8031276"><ele>904.8</ele><time>2026-04-11T13:20:10.391Z</time></trkpt><trkpt lat="42.9444308" lon="12.8031398"><ele>907.4</ele><time>2026-04-11T13:20:11.378Z</time></trkpt><trkpt lat="42.9443099" lon="12.8031629"><ele>910.0</ele><time>2026-04-11T13:20:13.385Z</time></trkpt><trkpt lat="42.9441804" lon="12.8031843"><ele>912.4999999999999</ele><time>2026-04-11T13:20:15.379Z</time></trkpt><trkpt lat="42.9441139" lon="12.8031958"><ele>915.0</ele><time>2026-04-11T13:20:16.384Z</time></trkpt><trkpt lat="42.944045" lon="12.8032092"><ele>917.5</ele><time>2026-04-11T13:20:17.391Z</time></trkpt><trkpt lat="42.9439764" lon="12.803215"><ele>920.0</ele><time>2026-04-11T13:20:18.395Z</time></trkpt><trkpt lat="42.9438535" lon="12.8032307"><ele>922.4999999999999</ele><time>2026-04-11T13:20:20.382Z</time></trkpt><trkpt lat="42.943791" lon="12.8032504"><ele>925.0</ele><time>2026-04-11T13:20:21.381Z</time></trkpt><trkpt lat="42.9436605" lon="12.8032648"><ele>925.0</ele><time>2026-04-11T13:20:23.378Z</time></trkpt><trkpt lat="42.9435919" lon="12.803286"><ele>925.0</ele><time>2026-04-11T13:20:24.388Z</time></trkpt><trkpt lat="42.9435221" lon="12.8033036"><ele>925.0</ele><time>2026-04-11T13:20:25.378Z</time></trkpt><trkpt lat="42.9434555" lon="12.8033388"><ele>925.0</ele><time>2026-04-11T13:20:26.386Z</time></trkpt><trkpt lat="42.9433874" lon="12.803382"><ele>925.0</ele><time>2026-04-11T13:20:27.377Z</time></trkpt><trkpt lat="42.9433321" lon="12.8034304"><ele>925.0</ele><time>2026-04-11T13:20:28.386Z</time></trkpt><trkpt lat="42.9432782" lon="12.8034759"><ele>925.0</ele><time>2026-04-11T13:20:29.391Z</time></trkpt><trkpt lat="42.9432185" lon="12.8035169"><ele>924.5714285714287</ele><time>2026-04-11T13:20:30.383Z</time></trkpt><trkpt lat="42.9431544" lon="12.8035577"><ele>924.1428571428571</ele><time>2026-04-11T13:20:31.389Z</time></trkpt><trkpt lat="42.9430914" lon="12.8035969"><ele>923.7142857142858</ele><time>2026-04-11T13:20:32.397Z</time></trkpt><trkpt lat="42.9430261" lon="12.8036272"><ele>923.2857142857143</ele><time>2026-04-11T13:20:33.377Z</time></trkpt><trkpt lat="42.9429583" lon="12.8036484"><ele>922.8571428571429</ele><time>2026-04-11T13:20:34.375Z</time></trkpt><trkpt lat="42.9428884" lon="12.8036583"><ele>922.4285714285714</ele><time>2026-04-11T13:20:35.379Z</time></trkpt><trkpt lat="42.9428174" lon="12.8036563"><ele>922.0</ele><time>2026-04-11T13:20:36.381Z</time></trkpt><trkpt lat="42.9427013" lon="12.803649"><ele>921.9999999999999</ele><time>2026-04-11T13:20:38.394Z</time></trkpt><trkpt lat="42.9425947" lon="12.8036319"><ele>922.0</ele><time>2026-04-11T13:20:40.385Z</time></trkpt><trkpt lat="42.9424772" lon="12.8035932"><ele>922.0</ele><time>2026-04-11T13:20:42.393Z</time></trkpt><trkpt lat="42.9424062" lon="12.8035756"><ele>922.0</ele><time>2026-04-11T13:20:43.384Z</time></trkpt><trkpt lat="42.9423374" lon="12.8035448"><ele>921.9999999999999</ele><time>2026-04-11T13:20:44.381Z</time></trkpt><trkpt lat="42.942274" lon="12.8035143"><ele>922.0</ele><time>2026-04-11T13:20:45.374Z</time></trkpt><trkpt lat="42.9422131" lon="12.8034848"><ele>924.0</ele><time>2026-04-11T13:20:46.383Z</time></trkpt><trkpt lat="42.9421494" lon="12.8034537"><ele>926.0</ele><time>2026-04-11T13:20:47.384Z</time></trkpt><trkpt lat="42.9420869" lon="12.803425"><ele>928.0</ele><time>2026-04-11T13:20:48.386Z</time></trkpt><trkpt lat="42.9419727" lon="12.803367"><ele>930.0</ele><time>2026-04-11T13:20:50.397Z</time></trkpt><trkpt lat="42.9418642" lon="12.8033283"><ele>932.0</ele><time>2026-04-11T13:20:52.395Z</time></trkpt><trkpt lat="42.9417386" lon="12.8032781"><ele>930.0000000000001</ele><time>2026-04-11T13:20:54.395Z</time></trkpt><trkpt lat="42.9416645" lon="12.8032451"><ele>928.0</ele><time>2026-04-11T13:20:55.398Z</time></trkpt><trkpt lat="42.9415902" lon="12.8032158"><ele>926.0</ele><time>2026-04-11T13:20:56.386Z</time></trkpt><trkpt lat="42.9415128" lon="12.8031841"><ele>924.0</ele><time>2026-04-11T13:20:57.383Z</time></trkpt><trkpt lat="42.9414419" lon="12.80316"><ele>922.0000000000001</ele><time>2026-04-11T13:20:58.379Z</time></trkpt><trkpt lat="42.9413659" lon="12.8031341"><ele>920.0</ele><time>2026-04-11T13:20:59.377Z</time></trkpt><trkpt lat="42.9412957" lon="12.8031035"><ele>919.9999999999999</ele><time>2026-04-11T13:21:00.394Z</time></trkpt><trkpt lat="42.9412258" lon="12.8030587"><ele>920.0</ele><time>2026-04-11T13:21:01.38Z</time></trkpt><trkpt lat="42.9411754" lon="12.8029871"><ele>919.9999999999999</ele><time>2026-04-11T13:21:02.383Z</time></trkpt><trkpt lat="42.9411366" lon="12.8029049"><ele>919.9999999999999</ele><time>2026-04-11T13:21:03.384Z</time></trkpt><trkpt lat="42.94112" lon="12.8028103"><ele>920.0</ele><time>2026-04-11T13:21:04.38Z</time></trkpt><trkpt lat="42.9411204" lon="12.8027039"><ele>919.9999999999999</ele><time>2026-04-11T13:21:05.379Z</time></trkpt><trkpt lat="42.9411318" lon="12.802599"><ele>919.9999999999999</ele><time>2026-04-11T13:21:06.396Z</time></trkpt><trkpt lat="42.9411569" lon="12.8024954"><ele>920.8333333333334</ele><time>2026-04-11T13:21:07.382Z</time></trkpt><trkpt lat="42.9411887" lon="12.8023933"><ele>921.6666666666667</ele><time>2026-04-11T13:21:08.385Z</time></trkpt><trkpt lat="42.9412231" lon="12.8022881"><ele>922.5</ele><time>2026-04-11T13:21:09.374Z</time></trkpt><trkpt lat="42.941256" lon="12.8021871"><ele>923.3333333333333</ele><time>2026-04-11T13:21:10.383Z</time></trkpt><trkpt lat="42.9412865" lon="12.8020849"><ele>924.1666666666666</ele><time>2026-04-11T13:21:11.374Z</time></trkpt><trkpt lat="42.9413065" lon="12.8019867"><ele>925.0</ele><time>2026-04-11T13:21:12.388Z</time></trkpt><trkpt lat="42.9413173" lon="12.8018955"><ele>925.8333333333333</ele><time>2026-04-11T13:21:13.385Z</time></trkpt><trkpt lat="42.9413044" lon="12.8018015"><ele>926.6666666666666</ele><time>2026-04-11T13:21:14.389Z</time></trkpt><trkpt lat="42.941257" lon="12.8017207"><ele>927.5</ele><time>2026-04-11T13:21:15.383Z</time></trkpt><trkpt lat="42.94118" lon="12.8016918"><ele>928.3333333333333</ele><time>2026-04-11T13:21:16.379Z</time></trkpt><trkpt lat="42.9410957" lon="12.8017099"><ele>929.1666666666666</ele><time>2026-04-11T13:21:17.378Z</time></trkpt><trkpt lat="42.941018" lon="12.8017534"><ele>930.0</ele><time>2026-04-11T13:21:18.392Z</time></trkpt><trkpt lat="42.9409416" lon="12.8017822"><ele>927.8</ele><time>2026-04-11T13:21:19.377Z</time></trkpt><trkpt lat="42.9408415" lon="12.801773"><ele>925.6</ele><time>2026-04-11T13:21:20.379Z</time></trkpt><trkpt lat="42.9407297" lon="12.8017413"><ele>923.4000000000001</ele><time>2026-04-11T13:21:21.377Z</time></trkpt><trkpt lat="42.9406148" lon="12.8017044"><ele>921.2</ele><time>2026-04-11T13:21:22.387Z</time></trkpt><trkpt lat="42.9405037" lon="12.8016635"><ele>919.0</ele><time>2026-04-11T13:21:23.376Z</time></trkpt><trkpt lat="42.9403964" lon="12.8016343"><ele>919.0</ele><time>2026-04-11T13:21:24.391Z</time></trkpt><trkpt lat="42.940288" lon="12.8016112"><ele>919.0000000000001</ele><time>2026-04-11T13:21:25.379Z</time></trkpt><trkpt lat="42.9401804" lon="12.8015904"><ele>919.0000000000001</ele><time>2026-04-11T13:21:26.38Z</time></trkpt><trkpt lat="42.9400769" lon="12.8015626"><ele>919.0</ele><time>2026-04-11T13:21:27.378Z</time></trkpt><trkpt lat="42.939976" lon="12.8015251"><ele>919.0</ele><time>2026-04-11T13:21:28.388Z</time></trkpt><trkpt lat="42.9398735" lon="12.8014863"><ele>915.6</ele><time>2026-04-11T13:21:29.373Z</time></trkpt><trkpt lat="42.939772" lon="12.8014417"><ele>912.2</ele><time>2026-04-11T13:21:30.387Z</time></trkpt><trkpt lat="42.9396769" lon="12.8013947"><ele>908.8000000000001</ele><time>2026-04-11T13:21:31.382Z</time></trkpt><trkpt lat="42.9395872" lon="12.8013513"><ele>905.4000000000001</ele><time>2026-04-11T13:21:32.373Z</time></trkpt><trkpt lat="42.9394951" lon="12.8013038"><ele>902.0</ele><time>2026-04-11T13:21:33.364Z</time></trkpt><trkpt lat="42.939391" lon="12.8012454"><ele>902.0</ele><time>2026-04-11T13:21:34.38Z</time></trkpt><trkpt lat="42.9392768" lon="12.8011769"><ele>902.0</ele><time>2026-04-11T13:21:35.367Z</time></trkpt><trkpt lat="42.939154" lon="12.801104"><ele>902.0</ele><time>2026-04-11T13:21:36.375Z</time></trkpt><trkpt lat="42.9390412" lon="12.8010247"><ele>902.0</ele><time>2026-04-11T13:21:37.367Z</time></trkpt><trkpt lat="42.9389339" lon="12.8009131"><ele>903.0</ele><time>2026-04-11T13:21:38.377Z</time></trkpt><trkpt lat="42.9388358" lon="12.8007833"><ele>904.0</ele><time>2026-04-11T13:21:39.375Z</time></trkpt><trkpt lat="42.9387416" lon="12.8006363"><ele>905.0</ele><time>2026-04-11T13:21:40.385Z</time></trkpt><trkpt lat="42.9386584" lon="12.8004717"><ele>906.0</ele><time>2026-04-11T13:21:41.38Z</time></trkpt><trkpt lat="42.9385728" lon="12.8003018"><ele>912.3333333333333</ele><time>2026-04-11T13:21:42.385Z</time></trkpt><trkpt lat="42.9384973" lon="12.8001243"><ele>918.6666666666666</ele><time>2026-04-11T13:21:43.377Z</time></trkpt><trkpt lat="42.93842" lon="12.7999446"><ele>925.0</ele><time>2026-04-11T13:21:44.382Z</time></trkpt><trkpt lat="42.9383428" lon="12.799769"><ele>918.5</ele><time>2026-04-11T13:21:45.375Z</time></trkpt><trkpt lat="42.9382618" lon="12.799595"><ele>912.0</ele><time>2026-04-11T13:21:46.38Z</time></trkpt><trkpt lat="42.9381875" lon="12.7994385"><ele>905.5</ele><time>2026-04-11T13:21:47.368Z</time></trkpt><trkpt lat="42.9381141" lon="12.7992874"><ele>899.0</ele><time>2026-04-11T13:21:48.39Z</time></trkpt><trkpt lat="42.9380487" lon="12.7991388"><ele>899.0</ele><time>2026-04-11T13:21:49.381Z</time></trkpt><trkpt lat="42.9379911" lon="12.7989884"><ele>899.0</ele><time>2026-04-11T13:21:50.384Z</time></trkpt><trkpt lat="42.9379354" lon="12.79886"><ele>899.0</ele><time>2026-04-11T13:21:51.379Z</time></trkpt><trkpt lat="42.937851" lon="12.798761"><ele>899.0</ele><time>2026-04-11T13:21:52.377Z</time></trkpt><trkpt lat="42.9377535" lon="12.7987063"><ele>899.0</ele><time>2026-04-11T13:21:53.376Z</time></trkpt><trkpt lat="42.9376601" lon="12.7986507"><ele>899.0000000000001</ele><time>2026-04-11T13:21:54.377Z</time></trkpt><trkpt lat="42.9375657" lon="12.7985911"><ele>899.0000000000001</ele><time>2026-04-11T13:21:55.379Z</time></trkpt><trkpt lat="42.9374764" lon="12.7985307"><ele>899.0</ele><time>2026-04-11T13:21:56.386Z</time></trkpt><trkpt lat="42.9373946" lon="12.7984644"><ele>899.0</ele><time>2026-04-11T13:21:57.375Z</time></trkpt><trkpt lat="42.9373147" lon="12.7983933"><ele>896.9999999999999</ele><time>2026-04-11T13:21:58.382Z</time></trkpt><trkpt lat="42.9372438" lon="12.79833"><ele>895.0</ele><time>2026-04-11T13:21:59.379Z</time></trkpt><trkpt lat="42.9371776" lon="12.7982749"><ele>893.0</ele><time>2026-04-11T13:22:00.385Z</time></trkpt><trkpt lat="42.9371125" lon="12.7982234"><ele>891.0</ele><time>2026-04-11T13:22:01.375Z</time></trkpt><trkpt lat="42.9370561" lon="12.7981763"><ele>889.0</ele><time>2026-04-11T13:22:02.384Z</time></trkpt><trkpt lat="42.9369993" lon="12.798124"><ele>887.0</ele><time>2026-04-11T13:22:03.374Z</time></trkpt><trkpt lat="42.9369405" lon="12.7980765"><ele>885.0</ele><time>2026-04-11T13:22:04.381Z</time></trkpt><trkpt lat="42.9368738" lon="12.7980312"><ele>885.0</ele><time>2026-04-11T13:22:05.375Z</time></trkpt><trkpt lat="42.936807" lon="12.7979803"><ele>885.0</ele><time>2026-04-11T13:22:06.382Z</time></trkpt><trkpt lat="42.936743" lon="12.7979313"><ele>885.0</ele><time>2026-04-11T13:22:07.381Z</time></trkpt><trkpt lat="42.9366738" lon="12.7978867"><ele>885.0</ele><time>2026-04-11T13:22:08.381Z</time></trkpt><trkpt lat="42.9365922" lon="12.7978359"><ele>885.0</ele><time>2026-04-11T13:22:09.382Z</time></trkpt><trkpt lat="42.936505" lon="12.7977827"><ele>885.0</ele><time>2026-04-11T13:22:10.383Z</time></trkpt><trkpt lat="42.9364146" lon="12.7977291"><ele>885.0</ele><time>2026-04-11T13:22:11.372Z</time></trkpt><trkpt lat="42.9363246" lon="12.7976695"><ele>885.0</ele><time>2026-04-11T13:22:12.378Z</time></trkpt><trkpt lat="42.9362353" lon="12.7976096"><ele>885.0</ele><time>2026-04-11T13:22:13.375Z</time></trkpt><trkpt lat="42.9361483" lon="12.7975399"><ele>885.0</ele><time>2026-04-11T13:22:14.39Z</time></trkpt><trkpt lat="42.9360653" lon="12.7974548"><ele>885.0</ele><time>2026-04-11T13:22:15.386Z</time></trkpt><trkpt lat="42.9359841" lon="12.7973655"><ele>885.0</ele><time>2026-04-11T13:22:16.398Z</time></trkpt><trkpt lat="42.9359046" lon="12.7972792"><ele>885.0</ele><time>2026-04-11T13:22:17.382Z</time></trkpt><trkpt lat="42.9358302" lon="12.7971911"><ele>885.0</ele><time>2026-04-11T13:22:18.382Z</time></trkpt><trkpt lat="42.9357671" lon="12.7970933"><ele>885.0</ele><time>2026-04-11T13:22:19.377Z</time></trkpt><trkpt lat="42.9357209" lon="12.796986"><ele>885.0</ele><time>2026-04-11T13:22:20.382Z</time></trkpt><trkpt lat="42.9356816" lon="12.7968921"><ele>882.5</ele><time>2026-04-11T13:22:21.383Z</time></trkpt><trkpt lat="42.9356479" lon="12.7968161"><ele>880.0</ele><time>2026-04-11T13:22:22.389Z</time></trkpt><trkpt lat="42.9355888" lon="12.7967766"><ele>877.5</ele><time>2026-04-11T13:22:24.385Z</time></trkpt><trkpt lat="42.9355683" lon="12.7968889"><ele>875.0</ele><time>2026-04-11T13:22:27.386Z</time></trkpt><trkpt lat="42.9356056" lon="12.7969875"><ele>872.5</ele><time>2026-04-11T13:22:29.379Z</time></trkpt><trkpt lat="42.9356464" lon="12.7971625"><ele>870.0</ele><time>2026-04-11T13:22:31.376Z</time></trkpt><trkpt lat="42.9356646" lon="12.7972901"><ele>867.0</ele><time>2026-04-11T13:22:32.384Z</time></trkpt><trkpt lat="42.9356934" lon="12.7974308"><ele>864.0</ele><time>2026-04-11T13:22:33.378Z</time></trkpt><trkpt lat="42.9357303" lon="12.7975748"><ele>861.0</ele><time>2026-04-11T13:22:34.378Z</time></trkpt><trkpt lat="42.9357801" lon="12.7977008"><ele>858.0</ele><time>2026-04-11T13:22:35.372Z</time></trkpt><trkpt lat="42.9358261" lon="12.7978136"><ele>855.0</ele><time>2026-04-11T13:22:36.38Z</time></trkpt><trkpt lat="42.9358811" lon="12.7979212"><ele>855.2</ele><time>2026-04-11T13:22:37.378Z</time></trkpt><trkpt lat="42.9359467" lon="12.7980133"><ele>855.4</ele><time>2026-04-11T13:22:38.4Z</time></trkpt><trkpt lat="42.9360179" lon="12.7980969"><ele>855.5999999999999</ele><time>2026-04-11T13:22:39.38Z</time></trkpt><trkpt lat="42.9360909" lon="12.7981788"><ele>855.8</ele><time>2026-04-11T13:22:40.39Z</time></trkpt><trkpt lat="42.9361622" lon="12.7982645"><ele>856.0</ele><time>2026-04-11T13:22:41.39Z</time></trkpt><trkpt lat="42.9362298" lon="12.7983452"><ele>856.0</ele><time>2026-04-11T13:22:42.408Z</time></trkpt><trkpt lat="42.9362991" lon="12.7984237"><ele>855.9999999999999</ele><time>2026-04-11T13:22:43.38Z</time></trkpt><trkpt lat="42.9363711" lon="12.7985074"><ele>855.9999999999999</ele><time>2026-04-11T13:22:44.395Z</time></trkpt><trkpt lat="42.9364445" lon="12.7985863"><ele>856.0</ele><time>2026-04-11T13:22:45.386Z</time></trkpt><trkpt lat="42.936515" lon="12.7986678"><ele>856.0</ele><time>2026-04-11T13:22:46.384Z</time></trkpt><trkpt lat="42.9365855" lon="12.7987468"><ele>856.4999999999999</ele><time>2026-04-11T13:22:47.386Z</time></trkpt><trkpt lat="42.9366483" lon="12.7988265"><ele>857.0</ele><time>2026-04-11T13:22:48.395Z</time></trkpt><trkpt lat="42.9367048" lon="12.7989055"><ele>857.5</ele><time>2026-04-11T13:22:49.38Z</time></trkpt><trkpt lat="42.9367572" lon="12.7989782"><ele>858.0</ele><time>2026-04-11T13:22:50.391Z</time></trkpt><trkpt lat="42.9368082" lon="12.7990346"><ele>858.4999999999999</ele><time>2026-04-11T13:22:51.382Z</time></trkpt><trkpt lat="42.9368571" lon="12.7991037"><ele>859.0</ele><time>2026-04-11T13:22:52.396Z</time></trkpt><trkpt lat="42.9369038" lon="12.799192"><ele>858.9999999999999</ele><time>2026-04-11T13:22:53.379Z</time></trkpt><trkpt lat="42.9369431" lon="12.7993012"><ele>859.0</ele><time>2026-04-11T13:22:54.382Z</time></trkpt><trkpt lat="42.9369753" lon="12.7994084"><ele>859.0</ele><time>2026-04-11T13:22:55.382Z</time></trkpt><trkpt lat="42.9370071" lon="12.7995081"><ele>859.0</ele><time>2026-04-11T13:22:56.384Z</time></trkpt><trkpt lat="42.9370364" lon="12.799602"><ele>858.9999999999999</ele><time>2026-04-11T13:22:57.376Z</time></trkpt><trkpt lat="42.9370648" lon="12.7996976"><ele>859.0</ele><time>2026-04-11T13:22:58.397Z</time></trkpt><trkpt lat="42.9370792" lon="12.7997845"><ele>856.0</ele><time>2026-04-11T13:22:59.374Z</time></trkpt><trkpt lat="42.9370665" lon="12.7999605"><ele>853.0000000000001</ele><time>2026-04-11T13:23:01.374Z</time></trkpt><trkpt lat="42.9370234" lon="12.8000821"><ele>850.0</ele><time>2026-04-11T13:23:03.368Z</time></trkpt><trkpt lat="42.9369748" lon="12.8001547"><ele>847.0</ele><time>2026-04-11T13:23:05.378Z</time></trkpt><trkpt lat="42.9369261" lon="12.8002439"><ele>844.0</ele><time>2026-04-11T13:23:07.379Z</time></trkpt><trkpt lat="42.936846" lon="12.8002416"><ele>844.0</ele><time>2026-04-11T13:23:10.384Z</time></trkpt><trkpt lat="42.9368101" lon="12.800169"><ele>844.0</ele><time>2026-04-11T13:23:12.383Z</time></trkpt><trkpt lat="42.9367815" lon="12.800091"><ele>844.0</ele><time>2026-04-11T13:23:14.382Z</time></trkpt><trkpt lat="42.9367693" lon="12.8000037"><ele>844.0</ele><time>2026-04-11T13:23:16.379Z</time></trkpt><trkpt lat="42.9367507" lon="12.7999143"><ele>844.0</ele><time>2026-04-11T13:23:20.383Z</time></trkpt><trkpt lat="42.9367172" lon="12.7998411"><ele>844.0</ele><time>2026-04-11T13:26:39.381Z</time></trkpt><trkpt lat="42.9366747" lon="12.7997349"><ele>844.0</ele><time>2026-04-11T13:26:41.38Z</time></trkpt><trkpt lat="42.9366252" lon="12.7996324"><ele>841.0</ele><time>2026-04-11T13:26:43.383Z</time></trkpt><trkpt lat="42.9365551" lon="12.7995044"><ele>838.0</ele><time>2026-04-11T13:26:45.382Z</time></trkpt><trkpt lat="42.9364569" lon="12.7993837"><ele>835.0</ele><time>2026-04-11T13:26:47.381Z</time></trkpt><trkpt lat="42.9364089" lon="12.7993192"><ele>832.0</ele><time>2026-04-11T13:26:48.385Z</time></trkpt><trkpt lat="42.9363553" lon="12.7992606"><ele>829.0</ele><time>2026-04-11T13:26:49.386Z</time></trkpt><trkpt lat="42.9362972" lon="12.7991988"><ele>828.9999999999999</ele><time>2026-04-11T13:26:50.381Z</time></trkpt><trkpt lat="42.9362298" lon="12.7991423"><ele>829.0</ele><time>2026-04-11T13:26:51.374Z</time></trkpt><trkpt lat="42.9361513" lon="12.7990971"><ele>829.0</ele><time>2026-04-11T13:26:52.374Z</time></trkpt><trkpt lat="42.9360639" lon="12.7990628"><ele>829.0</ele><time>2026-04-11T13:26:53.379Z</time></trkpt><trkpt lat="42.9359738" lon="12.799034"><ele>828.9999999999999</ele><time>2026-04-11T13:26:54.382Z</time></trkpt><trkpt lat="42.9358745" lon="12.799032"><ele>829.0</ele><time>2026-04-11T13:26:55.375Z</time></trkpt><trkpt lat="42.9357668" lon="12.7990483"><ele>825.0</ele><time>2026-04-11T13:26:56.382Z</time></trkpt><trkpt lat="42.9356499" lon="12.799077"><ele>821.0</ele><time>2026-04-11T13:26:57.384Z</time></trkpt><trkpt lat="42.9355365" lon="12.7991122"><ele>817.0</ele><time>2026-04-11T13:26:58.382Z</time></trkpt><trkpt lat="42.9354197" lon="12.7991469"><ele>813.0</ele><time>2026-04-11T13:26:59.385Z</time></trkpt><trkpt lat="42.9353024" lon="12.7991819"><ele>813.0</ele><time>2026-04-11T13:27:00.377Z</time></trkpt><trkpt lat="42.9351852" lon="12.7992042"><ele>813.0</ele><time>2026-04-11T13:27:01.395Z</time></trkpt><trkpt lat="42.9350782" lon="12.7992243"><ele>813.0</ele><time>2026-04-11T13:27:02.384Z</time></trkpt><trkpt lat="42.9349733" lon="12.7992381"><ele>813.0</ele><time>2026-04-11T13:27:03.373Z</time></trkpt><trkpt lat="42.9348781" lon="12.7992247"><ele>813.0</ele><time>2026-04-11T13:27:04.374Z</time></trkpt><trkpt lat="42.9347877" lon="12.7992018"><ele>812.5</ele><time>2026-04-11T13:27:05.382Z</time></trkpt><trkpt lat="42.9347102" lon="12.7991568"><ele>812.0</ele><time>2026-04-11T13:27:06.391Z</time></trkpt><trkpt lat="42.9346454" lon="12.7991194"><ele>811.5</ele><time>2026-04-11T13:27:07.377Z</time></trkpt><trkpt lat="42.9345352" lon="12.7991457"><ele>811.0</ele><time>2026-04-11T13:27:09.379Z</time></trkpt><trkpt lat="42.9345258" lon="12.7992486"><ele>810.5</ele><time>2026-04-11T13:27:11.377Z</time></trkpt><trkpt lat="42.9345649" lon="12.7993241"><ele>810.0</ele><time>2026-04-11T13:27:12.382Z</time></trkpt><trkpt lat="42.9346259" lon="12.7993985"><ele>808.3333333333334</ele><time>2026-04-11T13:27:13.372Z</time></trkpt><trkpt lat="42.9346961" lon="12.7994559"><ele>806.6666666666667</ele><time>2026-04-11T13:27:14.375Z</time></trkpt><trkpt lat="42.9347714" lon="12.7995188"><ele>805.0</ele><time>2026-04-11T13:27:15.372Z</time></trkpt><trkpt lat="42.9348507" lon="12.799566"><ele>803.3333333333334</ele><time>2026-04-11T13:27:16.377Z</time></trkpt><trkpt lat="42.9349329" lon="12.7996147"><ele>801.6666666666667</ele><time>2026-04-11T13:27:17.388Z</time></trkpt><trkpt lat="42.9350156" lon="12.79966"><ele>800.0</ele><time>2026-04-11T13:27:18.378Z</time></trkpt><trkpt lat="42.9350999" lon="12.7997097"><ele>800.0000000000001</ele><time>2026-04-11T13:27:19.369Z</time></trkpt><trkpt lat="42.9351783" lon="12.7997656"><ele>800.0</ele><time>2026-04-11T13:27:20.378Z</time></trkpt><trkpt lat="42.9352584" lon="12.7998125"><ele>800.0</ele><time>2026-04-11T13:27:21.384Z</time></trkpt><trkpt lat="42.9353401" lon="12.7998696"><ele>800.0</ele><time>2026-04-11T13:27:22.376Z</time></trkpt><trkpt lat="42.9354132" lon="12.7999303"><ele>800.0000000000001</ele><time>2026-04-11T13:27:23.386Z</time></trkpt><trkpt lat="42.9354879" lon="12.7999954"><ele>800.0</ele><time>2026-04-11T13:27:24.383Z</time></trkpt><trkpt lat="42.9355554" lon="12.8000716"><ele>800.0000000000001</ele><time>2026-04-11T13:27:25.381Z</time></trkpt><trkpt lat="42.9356175" lon="12.800152"><ele>800.0</ele><time>2026-04-11T13:27:26.384Z</time></trkpt><trkpt lat="42.9356665" lon="12.8002453"><ele>800.0</ele><time>2026-04-11T13:27:27.383Z</time></trkpt><trkpt lat="42.9357009" lon="12.8003407"><ele>800.0</ele><time>2026-04-11T13:27:28.383Z</time></trkpt><trkpt lat="42.9357136" lon="12.8004452"><ele>800.0000000000001</ele><time>2026-04-11T13:27:29.369Z</time></trkpt><trkpt lat="42.935689" lon="12.800531"><ele>800.0</ele><time>2026-04-11T13:27:30.383Z</time></trkpt><trkpt lat="42.9356436" lon="12.8005917"><ele>799.2</ele><time>2026-04-11T13:27:31.384Z</time></trkpt><trkpt lat="42.9355227" lon="12.800628"><ele>798.4</ele><time>2026-04-11T13:27:33.377Z</time></trkpt><trkpt lat="42.9354445" lon="12.8006121"><ele>797.5999999999999</ele><time>2026-04-11T13:27:34.378Z</time></trkpt><trkpt lat="42.9353617" lon="12.8005779"><ele>796.8</ele><time>2026-04-11T13:27:35.37Z</time></trkpt><trkpt lat="42.9352673" lon="12.8005504"><ele>796.0</ele><time>2026-04-11T13:27:36.378Z</time></trkpt><trkpt lat="42.9351687" lon="12.8005259"><ele>796.0</ele><time>2026-04-11T13:27:37.369Z</time></trkpt><trkpt lat="42.9350593" lon="12.8004953"><ele>796.0</ele><time>2026-04-11T13:27:38.375Z</time></trkpt><trkpt lat="42.9349483" lon="12.8004518"><ele>796.0</ele><time>2026-04-11T13:27:39.371Z</time></trkpt><trkpt lat="42.934846" lon="12.8004151"><ele>796.0</ele><time>2026-04-11T13:27:40.373Z</time></trkpt><trkpt lat="42.9347426" lon="12.8003761"><ele>796.0</ele><time>2026-04-11T13:27:41.38Z</time></trkpt><trkpt lat="42.9346477" lon="12.8003319"><ele>794.8333333333333</ele><time>2026-04-11T13:27:42.389Z</time></trkpt><trkpt lat="42.9345588" lon="12.8003049"><ele>793.6666666666666</ele><time>2026-04-11T13:27:43.385Z</time></trkpt><trkpt lat="42.9344807" lon="12.8002664"><ele>792.5</ele><time>2026-04-11T13:27:44.378Z</time></trkpt><trkpt lat="42.9344033" lon="12.8002223"><ele>791.3333333333333</ele><time>2026-04-11T13:27:45.374Z</time></trkpt><trkpt lat="42.9343276" lon="12.8001824"><ele>790.1666666666666</ele><time>2026-04-11T13:27:46.372Z</time></trkpt><trkpt lat="42.9342505" lon="12.8001425"><ele>789.0</ele><time>2026-04-11T13:27:47.375Z</time></trkpt><trkpt lat="42.9341786" lon="12.8000985"><ele>786.3333333333334</ele><time>2026-04-11T13:27:48.372Z</time></trkpt><trkpt lat="42.9341045" lon="12.8000431"><ele>783.6666666666667</ele><time>2026-04-11T13:27:49.386Z</time></trkpt><trkpt lat="42.9340296" lon="12.7999808"><ele>781.0</ele><time>2026-04-11T13:27:50.378Z</time></trkpt><trkpt lat="42.9339573" lon="12.7999154"><ele>778.3333333333334</ele><time>2026-04-11T13:27:51.371Z</time></trkpt><trkpt lat="42.9338925" lon="12.7998542"><ele>775.6666666666667</ele><time>2026-04-11T13:27:52.385Z</time></trkpt><trkpt lat="42.9338304" lon="12.7997932"><ele>773.0</ele><time>2026-04-11T13:27:53.371Z</time></trkpt><trkpt lat="42.9337676" lon="12.799729"><ele>773.0000000000001</ele><time>2026-04-11T13:27:54.378Z</time></trkpt><trkpt lat="42.9337026" lon="12.7996634"><ele>773.0</ele><time>2026-04-11T13:27:55.378Z</time></trkpt><trkpt lat="42.9336391" lon="12.7995893"><ele>773.0</ele><time>2026-04-11T13:27:56.377Z</time></trkpt><trkpt lat="42.9335674" lon="12.7995095"><ele>773.0</ele><time>2026-04-11T13:27:57.381Z</time></trkpt><trkpt lat="42.9334972" lon="12.7994357"><ele>773.0000000000001</ele><time>2026-04-11T13:27:58.378Z</time></trkpt><trkpt lat="42.9334238" lon="12.7993555"><ele>773.0</ele><time>2026-04-11T13:27:59.375Z</time></trkpt><trkpt lat="42.9333561" lon="12.7992769"><ele>772.5000000000001</ele><time>2026-04-11T13:28:00.374Z</time></trkpt><trkpt lat="42.9332869" lon="12.799206"><ele>772.0</ele><time>2026-04-11T13:28:01.37Z</time></trkpt><trkpt lat="42.9332163" lon="12.7991457"><ele>771.5</ele><time>2026-04-11T13:28:02.379Z</time></trkpt><trkpt lat="42.9331412" lon="12.7990946"><ele>771.0</ele><time>2026-04-11T13:28:03.372Z</time></trkpt><trkpt lat="42.9330612" lon="12.7990516"><ele>770.5000000000001</ele><time>2026-04-11T13:28:04.375Z</time></trkpt><trkpt lat="42.9329784" lon="12.7990125"><ele>770.0</ele><time>2026-04-11T13:28:05.382Z</time></trkpt><trkpt lat="42.93291" lon="12.7989879"><ele>770.0</ele><time>2026-04-11T13:28:06.389Z</time></trkpt><trkpt lat="42.9328388" lon="12.7989742"><ele>770.0</ele><time>2026-04-11T13:28:08.379Z</time></trkpt><trkpt lat="42.9327658" lon="12.7989236"><ele>770.0</ele><time>2026-04-11T13:28:12.38Z</time></trkpt><trkpt lat="42.9326739" lon="12.7988449"><ele>770.0</ele><time>2026-04-11T13:28:14.384Z</time></trkpt><trkpt lat="42.9326108" lon="12.7987222"><ele>770.0</ele><time>2026-04-11T13:28:16.378Z</time></trkpt><trkpt lat="42.9325728" lon="12.798569"><ele>767.8</ele><time>2026-04-11T13:28:18.383Z</time></trkpt><trkpt lat="42.9325434" lon="12.7984153"><ele>765.6</ele><time>2026-04-11T13:28:20.381Z</time></trkpt><trkpt lat="42.9325268" lon="12.7982481"><ele>763.4000000000001</ele><time>2026-04-11T13:28:22.38Z</time></trkpt><trkpt lat="42.9325153" lon="12.7981572"><ele>761.2</ele><time>2026-04-11T13:28:23.387Z</time></trkpt><trkpt lat="42.9324735" lon="12.7980016"><ele>759.0</ele><time>2026-04-11T13:28:25.378Z</time></trkpt><trkpt lat="42.9324232" lon="12.7978622"><ele>759.0</ele><time>2026-04-11T13:28:27.377Z</time></trkpt><trkpt lat="42.9323872" lon="12.7977843"><ele>759.0</ele><time>2026-04-11T13:28:28.376Z</time></trkpt><trkpt lat="42.9323596" lon="12.7976972"><ele>759.0</ele><time>2026-04-11T13:28:29.382Z</time></trkpt><trkpt lat="42.9323384" lon="12.7975338"><ele>759.0</ele><time>2026-04-11T13:28:31.371Z</time></trkpt><trkpt lat="42.9323318" lon="12.7974393"><ele>759.0</ele><time>2026-04-11T13:28:32.384Z</time></trkpt><trkpt lat="42.9323204" lon="12.7973388"><ele>759.0</ele><time>2026-04-11T13:28:33.382Z</time></trkpt><trkpt lat="42.9323028" lon="12.7972455"><ele>759.0</ele><time>2026-04-11T13:28:34.371Z</time></trkpt><trkpt lat="42.9322796" lon="12.7971459"><ele>759.0</ele><time>2026-04-11T13:28:35.372Z</time></trkpt><trkpt lat="42.9322543" lon="12.7970526"><ele>759.0</ele><time>2026-04-11T13:28:36.376Z</time></trkpt><trkpt lat="42.9322161" lon="12.7969622"><ele>759.0</ele><time>2026-04-11T13:28:37.376Z</time></trkpt><trkpt lat="42.9321727" lon="12.7968703"><ele>759.0</ele><time>2026-04-11T13:28:38.383Z</time></trkpt><trkpt lat="42.9321241" lon="12.7967768"><ele>759.0</ele><time>2026-04-11T13:28:39.373Z</time></trkpt><trkpt lat="42.9320772" lon="12.796678"><ele>759.6666666666666</ele><time>2026-04-11T13:28:40.373Z</time></trkpt><trkpt lat="42.9320249" lon="12.7965734"><ele>760.3333333333334</ele><time>2026-04-11T13:28:41.378Z</time></trkpt><trkpt lat="42.9319711" lon="12.7964805"><ele>761.0</ele><time>2026-04-11T13:28:42.376Z</time></trkpt><trkpt lat="42.93192" lon="12.7963893"><ele>761.6666666666667</ele><time>2026-04-11T13:28:43.369Z</time></trkpt><trkpt lat="42.9318769" lon="12.7963042"><ele>762.3333333333334</ele><time>2026-04-11T13:28:44.386Z</time></trkpt><trkpt lat="42.9318296" lon="12.796214"><ele>763.0</ele><time>2026-04-11T13:28:45.373Z</time></trkpt><trkpt lat="42.9317869" lon="12.796123"><ele>763.0</ele><time>2026-04-11T13:28:46.377Z</time></trkpt><trkpt lat="42.9317422" lon="12.79603"><ele>763.0</ele><time>2026-04-11T13:28:47.368Z</time></trkpt><trkpt lat="42.9317032" lon="12.7959273"><ele>763.0</ele><time>2026-04-11T13:28:48.381Z</time></trkpt><trkpt lat="42.9316626" lon="12.7958363"><ele>763.0</ele><time>2026-04-11T13:28:49.372Z</time></trkpt><trkpt lat="42.9316263" lon="12.7957529"><ele>763.0</ele><time>2026-04-11T13:28:50.38Z</time></trkpt><trkpt lat="42.9315263" lon="12.7956452"><ele>763.0</ele><time>2026-04-11T13:28:52.383Z</time></trkpt><trkpt lat="42.9314603" lon="12.7956032"><ele>761.2857142857143</ele><time>2026-04-11T13:28:53.377Z</time></trkpt><trkpt lat="42.9314003" lon="12.7955583"><ele>759.5714285714286</ele><time>2026-04-11T13:28:54.378Z</time></trkpt><trkpt lat="42.9313416" lon="12.7955004"><ele>757.8571428571429</ele><time>2026-04-11T13:28:55.378Z</time></trkpt><trkpt lat="42.9312841" lon="12.7954329"><ele>756.1428571428571</ele><time>2026-04-11T13:28:56.374Z</time></trkpt><trkpt lat="42.9312315" lon="12.7953672"><ele>754.4285714285714</ele><time>2026-04-11T13:28:57.371Z</time></trkpt><trkpt lat="42.9311797" lon="12.7953031"><ele>752.7142857142858</ele><time>2026-04-11T13:28:58.383Z</time></trkpt><trkpt lat="42.9311102" lon="12.7952564"><ele>751.0</ele><time>2026-04-11T13:28:59.368Z</time></trkpt><trkpt lat="42.9310446" lon="12.7952145"><ele>750.8333333333334</ele><time>2026-04-11T13:29:00.38Z</time></trkpt><trkpt lat="42.9309824" lon="12.7951702"><ele>750.6666666666667</ele><time>2026-04-11T13:29:01.377Z</time></trkpt><trkpt lat="42.9308954" lon="12.79507"><ele>750.5</ele><time>2026-04-11T13:29:03.375Z</time></trkpt><trkpt lat="42.9308234" lon="12.7950339"><ele>750.3333333333334</ele><time>2026-04-11T13:29:04.375Z</time></trkpt><trkpt lat="42.9307497" lon="12.7949954"><ele>750.1666666666666</ele><time>2026-04-11T13:29:05.38Z</time></trkpt><trkpt lat="42.9306704" lon="12.7949507"><ele>750.0</ele><time>2026-04-11T13:29:06.375Z</time></trkpt><trkpt lat="42.9305897" lon="12.7948999"><ele>750.0</ele><time>2026-04-11T13:29:07.37Z</time></trkpt><trkpt lat="42.9305095" lon="12.7948543"><ele>750.0</ele><time>2026-04-11T13:29:08.379Z</time></trkpt><trkpt lat="42.9304353" lon="12.7948082"><ele>750.0</ele><time>2026-04-11T13:29:09.367Z</time></trkpt><trkpt lat="42.9303675" lon="12.7947608"><ele>750.0</ele><time>2026-04-11T13:29:10.375Z</time></trkpt><trkpt lat="42.9302935" lon="12.7947269"><ele>750.0</ele><time>2026-04-11T13:29:11.373Z</time></trkpt><trkpt lat="42.9302123" lon="12.7947098"><ele>750.0</ele><time>2026-04-11T13:29:12.377Z</time></trkpt><trkpt lat="42.930122" lon="12.7946997"><ele>748.5</ele><time>2026-04-11T13:29:13.37Z</time></trkpt><trkpt lat="42.9300438" lon="12.7946834"><ele>747.0</ele><time>2026-04-11T13:29:14.372Z</time></trkpt><trkpt lat="42.9299643" lon="12.7946663"><ele>745.5</ele><time>2026-04-11T13:29:15.367Z</time></trkpt><trkpt lat="42.929887" lon="12.7946408"><ele>744.0</ele><time>2026-04-11T13:29:16.381Z</time></trkpt><trkpt lat="42.92981" lon="12.7946123"><ele>742.5</ele><time>2026-04-11T13:29:17.379Z</time></trkpt><trkpt lat="42.929739" lon="12.7945698"><ele>741.0</ele><time>2026-04-11T13:29:18.377Z</time></trkpt><trkpt lat="42.9296662" lon="12.7945323"><ele>741.0</ele><time>2026-04-11T13:29:19.371Z</time></trkpt><trkpt lat="42.929587" lon="12.7944812"><ele>741.0</ele><time>2026-04-11T13:29:20.371Z</time></trkpt><trkpt lat="42.9295181" lon="12.7944196"><ele>741.0</ele><time>2026-04-11T13:29:21.371Z</time></trkpt><trkpt lat="42.9294445" lon="12.7943482"><ele>741.0</ele><time>2026-04-11T13:29:22.37Z</time></trkpt><trkpt lat="42.9293705" lon="12.7942792"><ele>741.0</ele><time>2026-04-11T13:29:23.373Z</time></trkpt><trkpt lat="42.9293005" lon="12.7942134"><ele>741.0</ele><time>2026-04-11T13:29:24.377Z</time></trkpt><trkpt lat="42.9292296" lon="12.7941544"><ele>740.6666666666666</ele><time>2026-04-11T13:29:25.367Z</time></trkpt><trkpt lat="42.9291723" lon="12.7941083"><ele>740.3333333333334</ele><time>2026-04-11T13:29:26.379Z</time></trkpt><trkpt lat="42.9291087" lon="12.7940592"><ele>740.0</ele><time>2026-04-11T13:29:28.377Z</time></trkpt><trkpt lat="42.9290305" lon="12.7939958"><ele>739.6666666666667</ele><time>2026-04-11T13:30:26.379Z</time></trkpt><trkpt lat="42.928938" lon="12.7939383"><ele>739.3333333333334</ele><time>2026-04-11T13:30:28.368Z</time></trkpt><trkpt lat="42.928869" lon="12.7939341"><ele>739.0</ele><time>2026-04-11T13:30:29.378Z</time></trkpt><trkpt lat="42.9287992" lon="12.7939383"><ele>739.0</ele><time>2026-04-11T13:30:30.38Z</time></trkpt><trkpt lat="42.9287355" lon="12.7939558"><ele>739.0</ele><time>2026-04-11T13:30:31.37Z</time></trkpt><trkpt lat="42.9286146" lon="12.7939529"><ele>739.0</ele><time>2026-04-11T13:30:33.371Z</time></trkpt><trkpt lat="42.9284941" lon="12.793916"><ele>739.0</ele><time>2026-04-11T13:30:35.378Z</time></trkpt><trkpt lat="42.9284322" lon="12.7938797"><ele>739.0</ele><time>2026-04-11T13:30:36.383Z</time></trkpt><trkpt lat="42.9283719" lon="12.7938394"><ele>739.0</ele><time>2026-04-11T13:30:37.368Z</time></trkpt><trkpt lat="42.9283063" lon="12.793795"><ele>738.8333333333334</ele><time>2026-04-11T13:30:38.373Z</time></trkpt><trkpt lat="42.9282291" lon="12.7937529"><ele>738.6666666666667</ele><time>2026-04-11T13:30:39.362Z</time></trkpt><trkpt lat="42.9281552" lon="12.7936949"><ele>738.5</ele><time>2026-04-11T13:30:40.378Z</time></trkpt><trkpt lat="42.9280834" lon="12.7936353"><ele>738.3333333333334</ele><time>2026-04-11T13:30:41.366Z</time></trkpt><trkpt lat="42.9280149" lon="12.7935839"><ele>738.1666666666666</ele><time>2026-04-11T13:30:42.377Z</time></trkpt><trkpt lat="42.9279505" lon="12.7935384"><ele>738.0</ele><time>2026-04-11T13:30:43.38Z</time></trkpt><trkpt lat="42.9278797" lon="12.7935032"><ele>738.5</ele><time>2026-04-11T13:30:44.379Z</time></trkpt><trkpt lat="42.9278058" lon="12.7934801"><ele>739.0</ele><time>2026-04-11T13:30:45.379Z</time></trkpt><trkpt lat="42.9277224" lon="12.7934504"><ele>739.5</ele><time>2026-04-11T13:30:46.38Z</time></trkpt><trkpt lat="42.9276342" lon="12.79342"><ele>740.0</ele><time>2026-04-11T13:30:47.375Z</time></trkpt><trkpt lat="42.9275394" lon="12.7933963"><ele>740.5</ele><time>2026-04-11T13:30:48.373Z</time></trkpt><trkpt lat="42.9274421" lon="12.7933741"><ele>741.0</ele><time>2026-04-11T13:30:49.37Z</time></trkpt><trkpt lat="42.9273438" lon="12.7933522"><ele>739.1666666666666</ele><time>2026-04-11T13:30:50.377Z</time></trkpt><trkpt lat="42.927254" lon="12.7933271"><ele>737.3333333333334</ele><time>2026-04-11T13:30:51.383Z</time></trkpt><trkpt lat="42.9271708" lon="12.7932947"><ele>735.5</ele><time>2026-04-11T13:30:52.369Z</time></trkpt><trkpt lat="42.927098" lon="12.7932525"><ele>733.6666666666667</ele><time>2026-04-11T13:30:53.376Z</time></trkpt><trkpt lat="42.9270235" lon="12.7932037"><ele>731.8333333333334</ele><time>2026-04-11T13:30:54.375Z</time></trkpt><trkpt lat="42.9269433" lon="12.793157"><ele>730.0</ele><time>2026-04-11T13:30:55.372Z</time></trkpt><trkpt lat="42.9268646" lon="12.7931178"><ele>730.0000000000001</ele><time>2026-04-11T13:30:56.367Z</time></trkpt><trkpt lat="42.9267925" lon="12.7930718"><ele>730.0</ele><time>2026-04-11T13:30:57.38Z</time></trkpt><trkpt lat="42.9267274" lon="12.7930273"><ele>730.0</ele><time>2026-04-11T13:30:58.379Z</time></trkpt><trkpt lat="42.9266652" lon="12.792987"><ele>730.0</ele><time>2026-04-11T13:30:59.37Z</time></trkpt><trkpt lat="42.9266005" lon="12.7929534"><ele>730.0</ele><time>2026-04-11T13:31:00.387Z</time></trkpt><trkpt lat="42.9265299" lon="12.7929131"><ele>730.0000000000001</ele><time>2026-04-11T13:31:01.369Z</time></trkpt><trkpt lat="42.9264566" lon="12.7928667"><ele>730.0</ele><time>2026-04-11T13:31:02.373Z</time></trkpt><trkpt lat="42.9263918" lon="12.7928227"><ele>730.0</ele><time>2026-04-11T13:31:03.373Z</time></trkpt><trkpt lat="42.9263256" lon="12.7927809"><ele>730.0</ele><time>2026-04-11T13:31:04.378Z</time></trkpt><trkpt lat="42.926268" lon="12.7927406"><ele>730.0</ele><time>2026-04-11T13:31:05.365Z</time></trkpt><trkpt lat="42.9262148" lon="12.7926906"><ele>730.0</ele><time>2026-04-11T13:31:06.369Z</time></trkpt><trkpt lat="42.9261199" lon="12.7926033"><ele>730.0</ele><time>2026-04-11T13:31:08.374Z</time></trkpt><trkpt lat="42.9259926" lon="12.7925345"><ele>730.0000000000001</ele><time>2026-04-11T13:31:10.379Z</time></trkpt><trkpt lat="42.9259268" lon="12.7925083"><ele>730.0</ele><time>2026-04-11T13:31:11.373Z</time></trkpt><trkpt lat="42.925861" lon="12.7924872"><ele>730.0</ele><time>2026-04-11T13:31:12.372Z</time></trkpt><trkpt lat="42.9257905" lon="12.7924708"><ele>730.0</ele><time>2026-04-11T13:31:13.365Z</time></trkpt><trkpt lat="42.9257217" lon="12.7924584"><ele>730.0</ele><time>2026-04-11T13:31:14.375Z</time></trkpt><trkpt lat="42.9256461" lon="12.7924558"><ele>730.0000000000001</ele><time>2026-04-11T13:31:15.379Z</time></trkpt><trkpt lat="42.925569" lon="12.7924703"><ele>730.0</ele><time>2026-04-11T13:31:16.375Z</time></trkpt><trkpt lat="42.9254925" lon="12.7924838"><ele>729.6666666666667</ele><time>2026-04-11T13:31:17.377Z</time></trkpt><trkpt lat="42.9254109" lon="12.7924978"><ele>729.3333333333334</ele><time>2026-04-11T13:31:18.376Z</time></trkpt><trkpt lat="42.9253255" lon="12.7925162"><ele>729.0</ele><time>2026-04-11T13:31:19.362Z</time></trkpt><trkpt lat="42.9252485" lon="12.792538"><ele>728.6666666666666</ele><time>2026-04-11T13:31:20.366Z</time></trkpt><trkpt lat="42.925177" lon="12.7925628"><ele>728.3333333333333</ele><time>2026-04-11T13:31:21.365Z</time></trkpt><trkpt lat="42.9250786" lon="12.7926164"><ele>728.0</ele><time>2026-04-11T13:31:23.361Z</time></trkpt><trkpt lat="42.9250078" lon="12.7927307"><ele>728.0</ele><time>2026-04-11T13:31:25.361Z</time></trkpt><trkpt lat="42.9249595" lon="12.7927992"><ele>728.0</ele><time>2026-04-11T13:31:26.375Z</time></trkpt><trkpt lat="42.9249099" lon="12.7928533"><ele>728.0</ele><time>2026-04-11T13:31:27.363Z</time></trkpt><trkpt lat="42.9248514" lon="12.7928878"><ele>728.0</ele><time>2026-04-11T13:31:28.372Z</time></trkpt><trkpt lat="42.9247963" lon="12.7929325"><ele>728.0</ele><time>2026-04-11T13:31:29.368Z</time></trkpt><trkpt lat="42.9246888" lon="12.7929568"><ele>728.0</ele><time>2026-04-11T13:31:31.362Z</time></trkpt><trkpt lat="42.9245782" lon="12.7930049"><ele>728.0</ele><time>2026-04-11T13:31:33.366Z</time></trkpt><trkpt lat="42.9244738" lon="12.7930957"><ele>728.0</ele><time>2026-04-11T13:31:35.362Z</time></trkpt><trkpt lat="42.9243582" lon="12.7931198"><ele>728.0</ele><time>2026-04-11T13:31:37.369Z</time></trkpt><trkpt lat="42.9242941" lon="12.7931281"><ele>728.0</ele><time>2026-04-11T13:31:38.372Z</time></trkpt><trkpt lat="42.9241914" lon="12.7930722"><ele>728.0</ele><time>2026-04-11T13:31:40.372Z</time></trkpt><trkpt lat="42.9241307" lon="12.7930404"><ele>726.1666666666666</ele><time>2026-04-11T13:31:41.368Z</time></trkpt><trkpt lat="42.9240565" lon="12.7930176"><ele>724.3333333333333</ele><time>2026-04-11T13:31:42.374Z</time></trkpt><trkpt lat="42.9239777" lon="12.7929944"><ele>722.5</ele><time>2026-04-11T13:31:43.37Z</time></trkpt><trkpt lat="42.9239072" lon="12.7929746"><ele>720.6666666666666</ele><time>2026-04-11T13:31:44.382Z</time></trkpt><trkpt lat="42.9238392" lon="12.7929482"><ele>718.8333333333334</ele><time>2026-04-11T13:31:45.367Z</time></trkpt><trkpt lat="42.9237268" lon="12.7929129"><ele>717.0</ele><time>2026-04-11T13:31:47.366Z</time></trkpt><trkpt lat="42.9236136" lon="12.7928497"><ele>717.0</ele><time>2026-04-11T13:31:49.366Z</time></trkpt><trkpt lat="42.9235433" lon="12.7928106"><ele>717.0</ele><time>2026-04-11T13:31:50.374Z</time></trkpt><trkpt lat="42.9234629" lon="12.792771"><ele>717.0</ele><time>2026-04-11T13:31:51.371Z</time></trkpt><trkpt lat="42.9233787" lon="12.7927283"><ele>717.0</ele><time>2026-04-11T13:31:52.372Z</time></trkpt><trkpt lat="42.9233026" lon="12.7926871"><ele>717.0</ele><time>2026-04-11T13:31:53.374Z</time></trkpt><trkpt lat="42.9232108" lon="12.7925731"><ele>715.8571428571429</ele><time>2026-04-11T13:31:55.38Z</time></trkpt><trkpt lat="42.9231625" lon="12.7925069"><ele>714.7142857142857</ele><time>2026-04-11T13:31:56.372Z</time></trkpt><trkpt lat="42.9231036" lon="12.7924423"><ele>713.5714285714287</ele><time>2026-04-11T13:31:57.367Z</time></trkpt><trkpt lat="42.9230434" lon="12.7923824"><ele>712.4285714285714</ele><time>2026-04-11T13:31:58.383Z</time></trkpt><trkpt lat="42.9229858" lon="12.7923301"><ele>711.2857142857143</ele><time>2026-04-11T13:31:59.371Z</time></trkpt><trkpt lat="42.9229284" lon="12.7922928"><ele>710.1428571428572</ele><time>2026-04-11T13:32:00.369Z</time></trkpt><trkpt lat="42.9228676" lon="12.7922503"><ele>709.0</ele><time>2026-04-11T13:32:01.37Z</time></trkpt><trkpt lat="42.9228124" lon="12.7922001"><ele>709.0</ele><time>2026-04-11T13:32:02.373Z</time></trkpt><trkpt lat="42.9227072" lon="12.7921588"><ele>709.0</ele><time>2026-04-11T13:32:04.376Z</time></trkpt><trkpt lat="42.9225956" lon="12.7921494"><ele>709.0</ele><time>2026-04-11T13:32:06.372Z</time></trkpt><trkpt lat="42.9224956" lon="12.7921284"><ele>709.0</ele><time>2026-04-11T13:32:08.373Z</time></trkpt><trkpt lat="42.9224011" lon="12.7921199"><ele>709.0</ele><time>2026-04-11T13:32:10.369Z</time></trkpt><trkpt lat="42.9223056" lon="12.7920932"><ele>709.2</ele><time>2026-04-11T13:32:12.367Z</time></trkpt><trkpt lat="42.9222283" lon="12.7920988"><ele>709.4000000000001</ele><time>2026-04-11T13:32:14.38Z</time></trkpt><trkpt lat="42.9221115" lon="12.7921054"><ele>709.6</ele><time>2026-04-11T13:32:16.377Z</time></trkpt><trkpt lat="42.9220035" lon="12.7920814"><ele>709.8</ele><time>2026-04-11T13:32:18.375Z</time></trkpt><trkpt lat="42.9219352" lon="12.7920474"><ele>710.0</ele><time>2026-04-11T13:32:19.376Z</time></trkpt><trkpt lat="42.9218505" lon="12.7920125"><ele>710.0</ele><time>2026-04-11T13:32:20.371Z</time></trkpt><trkpt lat="42.9217718" lon="12.7919812"><ele>710.0</ele><time>2026-04-11T13:32:21.367Z</time></trkpt><trkpt lat="42.921699" lon="12.7919465"><ele>710.0</ele><time>2026-04-11T13:32:22.368Z</time></trkpt><trkpt lat="42.9216424" lon="12.7918863"><ele>710.0</ele><time>2026-04-11T13:32:23.38Z</time></trkpt><trkpt lat="42.9215854" lon="12.7918198"><ele>710.0</ele><time>2026-04-11T13:32:24.368Z</time></trkpt><trkpt lat="42.9215384" lon="12.7917586"><ele>710.0</ele><time>2026-04-11T13:32:25.372Z</time></trkpt><trkpt lat="42.9214877" lon="12.7917029"><ele>710.0</ele><time>2026-04-11T13:32:26.372Z</time></trkpt><trkpt lat="42.9213652" lon="12.7916495"><ele>708.3333333333333</ele><time>2026-04-11T13:32:28.377Z</time></trkpt><trkpt lat="42.9213013" lon="12.7916275"><ele>706.6666666666666</ele><time>2026-04-11T13:32:29.364Z</time></trkpt><trkpt lat="42.921235" lon="12.7916096"><ele>705.0</ele><time>2026-04-11T13:32:30.38Z</time></trkpt><trkpt lat="42.9211406" lon="12.7915445"><ele>703.3333333333334</ele><time>2026-04-11T13:32:32.377Z</time></trkpt><trkpt lat="42.9210993" lon="12.7914572"><ele>701.6666666666667</ele><time>2026-04-11T13:32:34.378Z</time></trkpt><trkpt lat="42.9210699" lon="12.7913737"><ele>700.0</ele><time>2026-04-11T13:32:36.368Z</time></trkpt><trkpt lat="42.9210161" lon="12.7912675"><ele>700.0</ele><time>2026-04-11T13:32:39.383Z</time></trkpt><trkpt lat="42.9209666" lon="12.7911784"><ele>700.0</ele><time>2026-04-11T13:32:41.377Z</time></trkpt><trkpt lat="42.9209086" lon="12.7910515"><ele>700.0</ele><time>2026-04-11T13:32:43.367Z</time></trkpt><trkpt lat="42.9208711" lon="12.7909555"><ele>700.0</ele><time>2026-04-11T13:32:45.372Z</time></trkpt><trkpt lat="42.9208286" lon="12.7908438"><ele>700.0</ele><time>2026-04-11T13:32:47.364Z</time></trkpt><trkpt lat="42.9207742" lon="12.7907343"><ele>699.6666666666667</ele><time>2026-04-11T13:32:49.373Z</time></trkpt><trkpt lat="42.9207473" lon="12.7906031"><ele>699.3333333333334</ele><time>2026-04-11T13:32:51.367Z</time></trkpt><trkpt lat="42.9206998" lon="12.790482"><ele>699.0</ele><time>2026-04-11T13:32:53.373Z</time></trkpt><trkpt lat="42.920668" lon="12.7903838"><ele>698.6666666666666</ele><time>2026-04-11T13:32:55.373Z</time></trkpt><trkpt lat="42.9206447" lon="12.7902734"><ele>698.3333333333333</ele><time>2026-04-11T13:32:57.384Z</time></trkpt><trkpt lat="42.9206185" lon="12.7901719"><ele>698.0</ele><time>2026-04-11T13:32:59.374Z</time></trkpt><trkpt lat="42.9205855" lon="12.7900769"><ele>698.0</ele><time>2026-04-11T13:33:01.378Z</time></trkpt><trkpt lat="42.9205372" lon="12.7899823"><ele>698.0</ele><time>2026-04-11T13:33:03.375Z</time></trkpt><trkpt lat="42.9204831" lon="12.7898808"><ele>698.0</ele><time>2026-04-11T13:33:05.376Z</time></trkpt><trkpt lat="42.9204381" lon="12.7898018"><ele>698.0</ele><time>2026-04-11T13:33:07.375Z</time></trkpt><trkpt lat="42.9203993" lon="12.7897127"><ele>698.0</ele><time>2026-04-11T13:33:09.369Z</time></trkpt><trkpt lat="42.9203472" lon="12.789593"><ele>698.0</ele><time>2026-04-11T13:33:11.374Z</time></trkpt><trkpt lat="42.920283" lon="12.7894633"><ele>698.0</ele><time>2026-04-11T13:33:13.373Z</time></trkpt><trkpt lat="42.9202043" lon="12.7893489"><ele>698.0</ele><time>2026-04-11T13:33:15.374Z</time></trkpt><trkpt lat="42.920128" lon="12.7892303"><ele>698.0</ele><time>2026-04-11T13:33:17.377Z</time></trkpt><trkpt lat="42.9200644" lon="12.7890958"><ele>698.0</ele><time>2026-04-11T13:33:19.371Z</time></trkpt><trkpt lat="42.9200112" lon="12.7889553"><ele>696.0</ele><time>2026-04-11T13:33:21.368Z</time></trkpt><trkpt lat="42.9199543" lon="12.7888207"><ele>694.0</ele><time>2026-04-11T13:33:23.371Z</time></trkpt><trkpt lat="42.9198751" lon="12.7887069"><ele>692.0</ele><time>2026-04-11T13:33:25.371Z</time></trkpt><trkpt lat="42.9197906" lon="12.7886003"><ele>690.0</ele><time>2026-04-11T13:33:27.372Z</time></trkpt><trkpt lat="42.9197154" lon="12.7884649"><ele>690.0</ele><time>2026-04-11T13:33:29.371Z</time></trkpt><trkpt lat="42.9196814" lon="12.7883887"><ele>690.0</ele><time>2026-04-11T13:33:30.374Z</time></trkpt><trkpt lat="42.9196093" lon="12.7882402"><ele>690.0</ele><time>2026-04-11T13:33:32.374Z</time></trkpt><trkpt lat="42.9195538" lon="12.7880869"><ele>690.0</ele><time>2026-04-11T13:33:34.375Z</time></trkpt><trkpt lat="42.9195079" lon="12.7879255"><ele>690.0</ele><time>2026-04-11T13:33:36.377Z</time></trkpt><trkpt lat="42.919452" lon="12.787772"><ele>691.5</ele><time>2026-04-11T13:33:38.371Z</time></trkpt><trkpt lat="42.9193998" lon="12.7876423"><ele>693.0</ele><time>2026-04-11T13:33:40.37Z</time></trkpt><trkpt lat="42.9193636" lon="12.7875458"><ele>694.5</ele><time>2026-04-11T13:33:43.375Z</time></trkpt><trkpt lat="42.9193718" lon="12.7874346"><ele>696.0</ele><time>2026-04-11T13:33:45.38Z</time></trkpt><trkpt lat="42.9193807" lon="12.7873385"><ele>697.5</ele><time>2026-04-11T13:33:46.372Z</time></trkpt><trkpt lat="42.9193997" lon="12.787242"><ele>699.0</ele><time>2026-04-11T13:33:47.378Z</time></trkpt><trkpt lat="42.9193984" lon="12.7871432"><ele>699.0</ele><time>2026-04-11T13:33:48.373Z</time></trkpt><trkpt lat="42.9193947" lon="12.7870489"><ele>699.0</ele><time>2026-04-11T13:33:49.365Z</time></trkpt><trkpt lat="42.9193479" lon="12.7868996"><ele>699.0</ele><time>2026-04-11T13:33:51.384Z</time></trkpt><trkpt lat="42.9192671" lon="12.7867851"><ele>699.0</ele><time>2026-04-11T13:33:53.382Z</time></trkpt><trkpt lat="42.9191793" lon="12.7866761"><ele>699.0</ele><time>2026-04-11T13:33:55.371Z</time></trkpt><trkpt lat="42.919101" lon="12.7865699"><ele>696.3333333333334</ele><time>2026-04-11T13:33:57.372Z</time></trkpt><trkpt lat="42.9190509" lon="12.7864936"><ele>693.6666666666666</ele><time>2026-04-11T13:33:59.38Z</time></trkpt><trkpt lat="42.9189715" lon="12.7865057"><ele>691.0</ele><time>2026-04-11T13:34:15.368Z</time></trkpt><trkpt lat="42.9188882" lon="12.786478"><ele>688.3333333333333</ele><time>2026-04-11T13:34:18.374Z</time></trkpt><trkpt lat="42.9187869" lon="12.7864298"><ele>685.6666666666666</ele><time>2026-04-11T13:34:20.376Z</time></trkpt><trkpt lat="42.9186914" lon="12.7863884"><ele>683.0</ele><time>2026-04-11T13:34:22.378Z</time></trkpt><trkpt lat="42.9185804" lon="12.7863143"><ele>683.0</ele><time>2026-04-11T13:34:24.38Z</time></trkpt><trkpt lat="42.9185252" lon="12.7862551"><ele>683.0</ele><time>2026-04-11T13:34:25.371Z</time></trkpt><trkpt lat="42.918469" lon="12.7862005"><ele>683.0</ele><time>2026-04-11T13:34:26.378Z</time></trkpt><trkpt lat="42.9184118" lon="12.7861517"><ele>683.0</ele><time>2026-04-11T13:34:27.376Z</time></trkpt><trkpt lat="42.9183269" lon="12.7860566"><ele>683.0</ele><time>2026-04-11T13:34:29.371Z</time></trkpt><trkpt lat="42.9182603" lon="12.7859248"><ele>683.0</ele><time>2026-04-11T13:34:31.374Z</time></trkpt><trkpt lat="42.918193" lon="12.7857818"><ele>682.1666666666666</ele><time>2026-04-11T13:34:33.372Z</time></trkpt><trkpt lat="42.9181568" lon="12.7857058"><ele>681.3333333333333</ele><time>2026-04-11T13:34:34.369Z</time></trkpt><trkpt lat="42.9181192" lon="12.7856244"><ele>680.5</ele><time>2026-04-11T13:34:35.369Z</time></trkpt><trkpt lat="42.9180958" lon="12.7855409"><ele>679.6666666666666</ele><time>2026-04-11T13:34:36.371Z</time></trkpt><trkpt lat="42.9180711" lon="12.7853717"><ele>678.8333333333334</ele><time>2026-04-11T13:34:38.369Z</time></trkpt><trkpt lat="42.9180704" lon="12.7852845"><ele>678.0</ele><time>2026-04-11T13:34:39.361Z</time></trkpt><trkpt lat="42.9180354" lon="12.7851779"><ele>680.5</ele><time>2026-04-11T13:34:41.378Z</time></trkpt><trkpt lat="42.9179967" lon="12.7850636"><ele>683.0</ele><time>2026-04-11T13:34:43.372Z</time></trkpt><trkpt lat="42.9179657" lon="12.7849773"><ele>685.5</ele><time>2026-04-11T13:34:45.371Z</time></trkpt><trkpt lat="42.917922" lon="12.7848879"><ele>688.0</ele><time>2026-04-11T13:34:47.362Z</time></trkpt><trkpt lat="42.9178443" lon="12.784813"><ele>690.5</ele><time>2026-04-11T13:34:49.369Z</time></trkpt><trkpt lat="42.9177702" lon="12.7847507"><ele>693.0</ele><time>2026-04-11T13:34:51.368Z</time></trkpt><trkpt lat="42.9177106" lon="12.7847153"><ele>693.0</ele><time>2026-04-11T13:34:53.373Z</time></trkpt><trkpt lat="42.9176593" lon="12.7846447"><ele>693.0</ele><time>2026-04-11T13:34:56.377Z</time></trkpt><trkpt lat="42.9176019" lon="12.7845785"><ele>693.0</ele><time>2026-04-11T13:34:59.373Z</time></trkpt><trkpt lat="42.917554" lon="12.784491"><ele>693.0</ele><time>2026-04-11T13:35:12.384Z</time></trkpt><trkpt lat="42.9175242" lon="12.784401"><ele>693.0</ele><time>2026-04-11T13:35:27.372Z</time></trkpt><trkpt lat="42.9174882" lon="12.7843111"><ele>693.0</ele><time>2026-04-11T13:35:30.383Z</time></trkpt><trkpt lat="42.917409" lon="12.7842461"><ele>689.2857142857143</ele><time>2026-04-11T13:35:33.383Z</time></trkpt><trkpt lat="42.9173593" lon="12.7841792"><ele>685.5714285714286</ele><time>2026-04-11T13:35:40.378Z</time></trkpt><trkpt lat="42.9173006" lon="12.7842126"><ele>681.8571428571429</ele><time>2026-04-11T13:35:49.376Z</time></trkpt><trkpt lat="42.9172204" lon="12.7841851"><ele>678.1428571428571</ele><time>2026-04-11T13:37:44.372Z</time></trkpt><trkpt lat="42.9172673" lon="12.7841219"><ele>674.4285714285714</ele><time>2026-04-11T13:46:00.38Z</time></trkpt><trkpt lat="42.9173335" lon="12.784174"><ele>670.7142857142858</ele><time>2026-04-11T13:46:10.376Z</time></trkpt><trkpt lat="42.9173901" lon="12.7842523"><ele>667.0</ele><time>2026-04-11T13:46:23.373Z</time></trkpt><trkpt lat="42.9174344" lon="12.7843153"><ele>667.0000000000001</ele><time>2026-04-11T13:46:26.379Z</time></trkpt><trkpt lat="42.917477" lon="12.7844027"><ele>667.0</ele><time>2026-04-11T13:46:29.37Z</time></trkpt><trkpt lat="42.9174498" lon="12.7843225"><ele>667.0</ele><time>2026-04-11T13:50:30.368Z</time></trkpt><trkpt lat="42.9174043" lon="12.784262"><ele>667.0</ele><time>2026-04-11T13:50:39.371Z</time></trkpt><trkpt lat="42.9173442" lon="12.7842"><ele>667.0</ele><time>2026-04-11T13:50:42.377Z</time></trkpt><trkpt lat="42.9173775" lon="12.7843026"><ele>667.0000000000001</ele><time>2026-04-11T13:50:50.371Z</time></trkpt><trkpt lat="42.9174052" lon="12.7843957"><ele>667.0</ele><time>2026-04-11T13:50:53.363Z</time></trkpt><trkpt lat="42.9174333" lon="12.784501"><ele>667.6</ele><time>2026-04-11T13:50:56.389Z</time></trkpt><trkpt lat="42.9174758" lon="12.7845897"><ele>668.2</ele><time>2026-04-11T13:51:54.376Z</time></trkpt><trkpt lat="42.9175378" lon="12.7846914"><ele>668.8</ele><time>2026-04-11T13:51:56.374Z</time></trkpt><trkpt lat="42.9176064" lon="12.7848136"><ele>669.4</ele><time>2026-04-11T13:51:58.369Z</time></trkpt><trkpt lat="42.9176788" lon="12.7849415"><ele>670.0</ele><time>2026-04-11T13:52:00.391Z</time></trkpt><trkpt lat="42.9177436" lon="12.7850697"><ele>671.1666666666667</ele><time>2026-04-11T13:52:02.383Z</time></trkpt><trkpt lat="42.9177718" lon="12.7851516"><ele>672.3333333333334</ele><time>2026-04-11T13:52:04.375Z</time></trkpt><trkpt lat="42.9177533" lon="12.7852395"><ele>673.5</ele><time>2026-04-11T13:53:02.382Z</time></trkpt><trkpt lat="42.917676" lon="12.7853098"><ele>674.6666666666666</ele><time>2026-04-11T13:53:05.371Z</time></trkpt><trkpt lat="42.9175969" lon="12.7853109"><ele>675.8333333333333</ele><time>2026-04-11T13:53:08.383Z</time></trkpt><trkpt lat="42.9175229" lon="12.7852404"><ele>677.0</ele><time>2026-04-11T13:53:11.379Z</time></trkpt><trkpt lat="42.9174393" lon="12.7851868"><ele>675.8333333333333</ele><time>2026-04-11T13:53:13.374Z</time></trkpt><trkpt lat="42.9173335" lon="12.7851117"><ele>674.6666666666666</ele><time>2026-04-11T13:53:15.378Z</time></trkpt><trkpt lat="42.9172744" lon="12.7850643"><ele>673.5</ele><time>2026-04-11T13:53:16.38Z</time></trkpt><trkpt lat="42.9172198" lon="12.7850085"><ele>672.3333333333334</ele><time>2026-04-11T13:53:17.363Z</time></trkpt><trkpt lat="42.9171602" lon="12.7849452"><ele>671.1666666666667</ele><time>2026-04-11T13:53:18.38Z</time></trkpt><trkpt lat="42.9170941" lon="12.7848664"><ele>670.0</ele><time>2026-04-11T13:53:19.382Z</time></trkpt><trkpt lat="42.9170193" lon="12.7847802"><ele>670.0</ele><time>2026-04-11T13:53:20.385Z</time></trkpt><trkpt lat="42.9169515" lon="12.7846959"><ele>670.0</ele><time>2026-04-11T13:53:21.372Z</time></trkpt><trkpt lat="42.9168849" lon="12.7846023"><ele>670.0</ele><time>2026-04-11T13:53:22.374Z</time></trkpt><trkpt lat="42.9168173" lon="12.7844973"><ele>670.0</ele><time>2026-04-11T13:53:23.384Z</time></trkpt><trkpt lat="42.9167525" lon="12.7843842"><ele>670.0</ele><time>2026-04-11T13:53:24.37Z</time></trkpt><trkpt lat="42.9166939" lon="12.7842706"><ele>670.8</ele><time>2026-04-11T13:53:25.378Z</time></trkpt><trkpt lat="42.9166469" lon="12.7841644"><ele>671.6</ele><time>2026-04-11T13:53:26.36Z</time></trkpt><trkpt lat="42.9166112" lon="12.7840578"><ele>672.4000000000001</ele><time>2026-04-11T13:53:27.362Z</time></trkpt><trkpt lat="42.9165822" lon="12.7839461"><ele>673.2</ele><time>2026-04-11T13:53:28.375Z</time></trkpt><trkpt lat="42.916548" lon="12.7838291"><ele>674.0</ele><time>2026-04-11T13:53:29.355Z</time></trkpt><trkpt lat="42.9165122" lon="12.783709"><ele>674.0</ele><time>2026-04-11T13:53:30.361Z</time></trkpt><trkpt lat="42.9164811" lon="12.783588"><ele>674.0</ele><time>2026-04-11T13:53:31.37Z</time></trkpt><trkpt lat="42.9164489" lon="12.7834611"><ele>674.0</ele><time>2026-04-11T13:53:32.396Z</time></trkpt><trkpt lat="42.9164186" lon="12.783338"><ele>674.0</ele><time>2026-04-11T13:53:33.367Z</time></trkpt><trkpt lat="42.9163955" lon="12.7832305"><ele>674.0</ele><time>2026-04-11T13:53:34.363Z</time></trkpt><trkpt lat="42.9163713" lon="12.7831166"><ele>671.0</ele><time>2026-04-11T13:53:35.369Z</time></trkpt><trkpt lat="42.9163476" lon="12.782996"><ele>668.0</ele><time>2026-04-11T13:53:36.383Z</time></trkpt><trkpt lat="42.9163243" lon="12.7828695"><ele>665.0</ele><time>2026-04-11T13:53:37.358Z</time></trkpt><trkpt lat="42.9163099" lon="12.7827474"><ele>662.0</ele><time>2026-04-11T13:53:38.408Z</time></trkpt><trkpt lat="42.9162947" lon="12.7826229"><ele>659.0</ele><time>2026-04-11T13:53:39.371Z</time></trkpt><trkpt lat="42.9162803" lon="12.7825017"><ele>658.2</ele><time>2026-04-11T13:53:40.382Z</time></trkpt><trkpt lat="42.9162587" lon="12.7823839"><ele>657.4000000000001</ele><time>2026-04-11T13:53:41.375Z</time></trkpt><trkpt lat="42.916229" lon="12.7822645"><ele>656.6</ele><time>2026-04-11T13:53:42.386Z</time></trkpt><trkpt lat="42.9161973" lon="12.782134"><ele>655.8</ele><time>2026-04-11T13:53:43.371Z</time></trkpt><trkpt lat="42.9161738" lon="12.7820132"><ele>655.0</ele><time>2026-04-11T13:53:44.384Z</time></trkpt><trkpt lat="42.9161509" lon="12.7819009"><ele>654.6666666666667</ele><time>2026-04-11T13:53:45.369Z</time></trkpt><trkpt lat="42.916127" lon="12.781777"><ele>654.3333333333334</ele><time>2026-04-11T13:53:46.388Z</time></trkpt><trkpt lat="42.9161029" lon="12.781662"><ele>654.0</ele><time>2026-04-11T13:53:47.379Z</time></trkpt><trkpt lat="42.9160795" lon="12.7815557"><ele>653.6666666666666</ele><time>2026-04-11T13:53:48.383Z</time></trkpt><trkpt lat="42.9160696" lon="12.7814568"><ele>653.3333333333333</ele><time>2026-04-11T13:53:49.357Z</time></trkpt><trkpt lat="42.9160852" lon="12.7813658"><ele>653.0</ele><time>2026-04-11T13:53:50.385Z</time></trkpt><trkpt lat="42.9161134" lon="12.7812699"><ele>653.0</ele><time>2026-04-11T13:53:51.377Z</time></trkpt><trkpt lat="42.9161446" lon="12.7811547"><ele>653.0</ele><time>2026-04-11T13:53:52.375Z</time></trkpt><trkpt lat="42.9161655" lon="12.781011"><ele>653.0</ele><time>2026-04-11T13:53:53.374Z</time></trkpt><trkpt lat="42.9161928" lon="12.7808747"><ele>653.0</ele><time>2026-04-11T13:53:54.39Z</time></trkpt><trkpt lat="42.916219" lon="12.7807264"><ele>653.0</ele><time>2026-04-11T13:53:55.375Z</time></trkpt><trkpt lat="42.9162403" lon="12.7805695"><ele>653.3333333333333</ele><time>2026-04-11T13:53:56.38Z</time></trkpt><trkpt lat="42.9162601" lon="12.7804215"><ele>653.6666666666666</ele><time>2026-04-11T13:53:57.377Z</time></trkpt><trkpt lat="42.9162712" lon="12.7802962"><ele>654.0</ele><time>2026-04-11T13:53:58.382Z</time></trkpt><trkpt lat="42.916281" lon="12.7802098"><ele>654.3333333333334</ele><time>2026-04-11T13:53:59.373Z</time></trkpt><trkpt lat="42.916307" lon="12.7801018"><ele>654.6666666666667</ele><time>2026-04-11T13:54:01.375Z</time></trkpt><trkpt lat="42.9162731" lon="12.7800209"><ele>655.0</ele><time>2026-04-11T13:54:04.39Z</time></trkpt><trkpt lat="42.916232" lon="12.7801046"><ele>655.0</ele><time>2026-04-11T13:54:07.375Z</time></trkpt><trkpt lat="42.9161969" lon="12.7801845"><ele>655.0</ele><time>2026-04-11T13:54:09.37Z</time></trkpt><trkpt lat="42.9161462" lon="12.7802694"><ele>655.0</ele><time>2026-04-11T13:54:11.369Z</time></trkpt><trkpt lat="42.9161011" lon="12.7803705"><ele>655.0</ele><time>2026-04-11T13:54:13.363Z</time></trkpt><trkpt lat="42.9160642" lon="12.7804711"><ele>655.0</ele><time>2026-04-11T13:54:15.381Z</time></trkpt><trkpt lat="42.915985" lon="12.7805996"><ele>655.0</ele><time>2026-04-11T13:54:17.373Z</time></trkpt><trkpt lat="42.9158943" lon="12.7807171"><ele>662.0</ele><time>2026-04-11T13:54:19.381Z</time></trkpt><trkpt lat="42.915842" lon="12.7807736"><ele>669.0</ele><time>2026-04-11T13:54:20.375Z</time></trkpt><trkpt lat="42.9157873" lon="12.7808363"><ele>676.0</ele><time>2026-04-11T13:54:21.373Z</time></trkpt><trkpt lat="42.915738" lon="12.7809047"><ele>683.0</ele><time>2026-04-11T13:54:22.385Z</time></trkpt><trkpt lat="42.9156897" lon="12.7809765"><ele>690.0</ele><time>2026-04-11T13:54:23.376Z</time></trkpt><trkpt lat="42.9156401" lon="12.7810523"><ele>697.0</ele><time>2026-04-11T13:54:24.373Z</time></trkpt><trkpt lat="42.9155919" lon="12.7811324"><ele>704.0</ele><time>2026-04-11T13:54:25.368Z</time></trkpt><trkpt lat="42.9155491" lon="12.781217"><ele>704.0</ele><time>2026-04-11T13:54:26.378Z</time></trkpt><trkpt lat="42.9155187" lon="12.7813096"><ele>704.0</ele><time>2026-04-11T13:54:27.384Z</time></trkpt><trkpt lat="42.9154935" lon="12.7814041"><ele>704.0</ele><time>2026-04-11T13:54:28.362Z</time></trkpt><trkpt lat="42.915475" lon="12.7814974"><ele>704.0</ele><time>2026-04-11T13:54:29.371Z</time></trkpt><trkpt lat="42.9154827" lon="12.7815984"><ele>704.0</ele><time>2026-04-11T13:54:30.382Z</time></trkpt><trkpt lat="42.9154998" lon="12.7817136"><ele>704.0</ele><time>2026-04-11T13:54:31.371Z</time></trkpt><trkpt lat="42.9155107" lon="12.7818274"><ele>704.8333333333333</ele><time>2026-04-11T13:54:32.386Z</time></trkpt><trkpt lat="42.9155168" lon="12.7819361"><ele>705.6666666666666</ele><time>2026-04-11T13:54:33.374Z</time></trkpt><trkpt lat="42.9155239" lon="12.7820352"><ele>706.5</ele><time>2026-04-11T13:54:34.39Z</time></trkpt><trkpt lat="42.9155333" lon="12.7821294"><ele>707.3333333333334</ele><time>2026-04-11T13:54:35.382Z</time></trkpt><trkpt lat="42.9155414" lon="12.7822269"><ele>708.1666666666667</ele><time>2026-04-11T13:54:36.398Z</time></trkpt><trkpt lat="42.9155372" lon="12.782402"><ele>709.0</ele><time>2026-04-11T13:54:38.385Z</time></trkpt><trkpt lat="42.9155345" lon="12.7825735"><ele>709.0</ele><time>2026-04-11T13:54:40.381Z</time></trkpt><trkpt lat="42.9155258" lon="12.7826637"><ele>709.0</ele><time>2026-04-11T13:54:41.387Z</time></trkpt><trkpt lat="42.9155242" lon="12.7827619"><ele>709.0</ele><time>2026-04-11T13:54:42.38Z</time></trkpt><trkpt lat="42.9155208" lon="12.782863"><ele>709.0</ele><time>2026-04-11T13:54:43.391Z</time></trkpt><trkpt lat="42.9155099" lon="12.7829785"><ele>709.0</ele><time>2026-04-11T13:54:44.399Z</time></trkpt><trkpt lat="42.9155068" lon="12.7830823"><ele>709.0</ele><time>2026-04-11T13:54:45.384Z</time></trkpt><trkpt lat="42.9154898" lon="12.7832542"><ele>710.5</ele><time>2026-04-11T13:54:47.371Z</time></trkpt><trkpt lat="42.9154803" lon="12.7833651"><ele>712.0</ele><time>2026-04-11T13:54:48.365Z</time></trkpt><trkpt lat="42.9154733" lon="12.7834877"><ele>713.5</ele><time>2026-04-11T13:54:49.38Z</time></trkpt><trkpt lat="42.9154668" lon="12.7836085"><ele>715.0</ele><time>2026-04-11T13:54:50.373Z</time></trkpt><trkpt lat="42.9154644" lon="12.7837225"><ele>716.5</ele><time>2026-04-11T13:54:51.372Z</time></trkpt><trkpt lat="42.9154653" lon="12.7838367"><ele>718.0</ele><time>2026-04-11T13:54:52.393Z</time></trkpt><trkpt lat="42.9154752" lon="12.7839511"><ele>720.4</ele><time>2026-04-11T13:54:53.372Z</time></trkpt><trkpt lat="42.9154825" lon="12.7840623"><ele>722.8</ele><time>2026-04-11T13:54:54.38Z</time></trkpt><trkpt lat="42.9154922" lon="12.7841824"><ele>725.2</ele><time>2026-04-11T13:54:55.371Z</time></trkpt><trkpt lat="42.9155016" lon="12.7843081"><ele>727.6</ele><time>2026-04-11T13:54:56.382Z</time></trkpt><trkpt lat="42.915513" lon="12.7844398"><ele>730.0</ele><time>2026-04-11T13:54:57.368Z</time></trkpt><trkpt lat="42.9155266" lon="12.7845717"><ele>733.2</ele><time>2026-04-11T13:54:58.385Z</time></trkpt><trkpt lat="42.9155481" lon="12.7847063"><ele>736.4</ele><time>2026-04-11T13:54:59.383Z</time></trkpt><trkpt lat="42.9155665" lon="12.7848457"><ele>739.5999999999999</ele><time>2026-04-11T13:55:00.387Z</time></trkpt><trkpt lat="42.9155895" lon="12.7849801"><ele>742.8</ele><time>2026-04-11T13:55:01.359Z</time></trkpt><trkpt lat="42.9156141" lon="12.7851135"><ele>746.0</ele><time>2026-04-11T13:55:02.384Z</time></trkpt><trkpt lat="42.9156348" lon="12.7852357"><ele>748.0</ele><time>2026-04-11T13:55:03.38Z</time></trkpt><trkpt lat="42.9156526" lon="12.7853444"><ele>750.0</ele><time>2026-04-11T13:55:04.383Z</time></trkpt><trkpt lat="42.9156674" lon="12.7854616"><ele>752.0</ele><time>2026-04-11T13:55:05.374Z</time></trkpt><trkpt lat="42.9156745" lon="12.7855889"><ele>754.0</ele><time>2026-04-11T13:55:06.404Z</time></trkpt><trkpt lat="42.9156878" lon="12.7857042"><ele>756.0</ele><time>2026-04-11T13:55:07.372Z</time></trkpt><trkpt lat="42.9156979" lon="12.7858218"><ele>758.0</ele><time>2026-04-11T13:55:08.388Z</time></trkpt><trkpt lat="42.9157073" lon="12.7859237"><ele>758.0</ele><time>2026-04-11T13:55:09.374Z</time></trkpt><trkpt lat="42.9157026" lon="12.7860469"><ele>758.0</ele><time>2026-04-11T13:55:11.36Z</time></trkpt><trkpt lat="42.9156603" lon="12.7861195"><ele>758.0</ele><time>2026-04-11T13:55:14.407Z</time></trkpt><trkpt lat="42.9156249" lon="12.7860434"><ele>758.0</ele><time>2026-04-11T13:55:25.38Z</time></trkpt><trkpt lat="42.9155906" lon="12.785899"><ele>758.0</ele><time>2026-04-11T13:55:27.378Z</time></trkpt><trkpt lat="42.9155485" lon="12.7858046"><ele>758.0</ele><time>2026-04-11T13:55:28.388Z</time></trkpt><trkpt lat="42.9155128" lon="12.7857284"><ele>758.0</ele><time>2026-04-11T13:55:29.374Z</time></trkpt><trkpt lat="42.9154667" lon="12.7856329"><ele>758.0</ele><time>2026-04-11T13:55:31.374Z</time></trkpt><trkpt lat="42.9154181" lon="12.7855528"><ele>758.0</ele><time>2026-04-11T13:56:03.373Z</time></trkpt><trkpt lat="42.9153374" lon="12.7855026"><ele>758.0</ele><time>2026-04-11T13:56:05.371Z</time></trkpt><trkpt lat="42.9152678" lon="12.7854997"><ele>758.0</ele><time>2026-04-11T13:56:07.375Z</time></trkpt><trkpt lat="42.9152006" lon="12.7855144"><ele>758.0</ele><time>2026-04-11T13:56:09.377Z</time></trkpt><trkpt lat="42.9151238" lon="12.7854839"><ele>760.1666666666666</ele><time>2026-04-11T13:56:12.428Z</time></trkpt><trkpt lat="42.9150567" lon="12.7854026"><ele>762.3333333333333</ele><time>2026-04-11T13:56:14.38Z</time></trkpt><trkpt lat="42.9150055" lon="12.7853177"><ele>764.5</ele><time>2026-04-11T13:56:16.384Z</time></trkpt><trkpt lat="42.9149562" lon="12.7852418"><ele>766.6666666666666</ele><time>2026-04-11T13:56:18.383Z</time></trkpt><trkpt lat="42.9148988" lon="12.7851677"><ele>768.8333333333334</ele><time>2026-04-11T13:56:20.386Z</time></trkpt><trkpt lat="42.9148466" lon="12.7850834"><ele>771.0</ele><time>2026-04-11T13:56:22.381Z</time></trkpt><trkpt lat="42.914782" lon="12.7849892"><ele>771.0</ele><time>2026-04-11T13:56:24.382Z</time></trkpt><trkpt lat="42.9147054" lon="12.7848854"><ele>771.0</ele><time>2026-04-11T13:56:26.381Z</time></trkpt><trkpt lat="42.914623" lon="12.7847737"><ele>771.0</ele><time>2026-04-11T13:56:28.397Z</time></trkpt><trkpt lat="42.9145362" lon="12.7846537"><ele>771.0</ele><time>2026-04-11T13:56:30.377Z</time></trkpt><trkpt lat="42.9144891" lon="12.784594"><ele>771.0</ele><time>2026-04-11T13:56:31.371Z</time></trkpt><trkpt lat="42.9144428" lon="12.7845246"><ele>771.0</ele><time>2026-04-11T13:56:32.372Z</time></trkpt><trkpt lat="42.9143979" lon="12.7844612"><ele>771.0</ele><time>2026-04-11T13:56:33.373Z</time></trkpt><trkpt lat="42.9143107" lon="12.7843481"><ele>771.0</ele><time>2026-04-11T13:56:35.37Z</time></trkpt><trkpt lat="42.9142317" lon="12.7842422"><ele>771.0</ele><time>2026-04-11T13:56:37.375Z</time></trkpt><trkpt lat="42.9141839" lon="12.7841844"><ele>771.0</ele><time>2026-04-11T13:56:38.391Z</time></trkpt><trkpt lat="42.9141307" lon="12.7841135"><ele>771.0</ele><time>2026-04-11T13:56:39.373Z</time></trkpt><trkpt lat="42.9140647" lon="12.7840306"><ele>771.0</ele><time>2026-04-11T13:56:40.395Z</time></trkpt><trkpt lat="42.9139901" lon="12.7839413"><ele>771.0</ele><time>2026-04-11T13:56:41.379Z</time></trkpt><trkpt lat="42.9139049" lon="12.7838447"><ele>771.0</ele><time>2026-04-11T13:56:42.375Z</time></trkpt><trkpt lat="42.9138055" lon="12.7837473"><ele>771.0</ele><time>2026-04-11T13:56:43.371Z</time></trkpt><trkpt lat="42.9137117" lon="12.7836671"><ele>771.0</ele><time>2026-04-11T13:56:44.391Z</time></trkpt><trkpt lat="42.9136239" lon="12.7835765"><ele>770.1999999999999</ele><time>2026-04-11T13:56:45.379Z</time></trkpt><trkpt lat="42.9135379" lon="12.7834828"><ele>769.4</ele><time>2026-04-11T13:56:46.382Z</time></trkpt><trkpt lat="42.9134563" lon="12.7833964"><ele>768.6</ele><time>2026-04-11T13:56:47.373Z</time></trkpt><trkpt lat="42.9133728" lon="12.7833069"><ele>767.8</ele><time>2026-04-11T13:56:48.385Z</time></trkpt><trkpt lat="42.9132902" lon="12.7832229"><ele>767.0</ele><time>2026-04-11T13:56:49.371Z</time></trkpt><trkpt lat="42.9132061" lon="12.7831356"><ele>767.0</ele><time>2026-04-11T13:56:50.387Z</time></trkpt><trkpt lat="42.9131263" lon="12.7830537"><ele>767.0</ele><time>2026-04-11T13:56:51.379Z</time></trkpt><trkpt lat="42.9130407" lon="12.7829691"><ele>767.0</ele><time>2026-04-11T13:56:52.381Z</time></trkpt><trkpt lat="42.9129649" lon="12.7828843"><ele>767.0</ele><time>2026-04-11T13:56:53.371Z</time></trkpt><trkpt lat="42.9128872" lon="12.7828003"><ele>767.0</ele><time>2026-04-11T13:56:54.392Z</time></trkpt><trkpt lat="42.9128107" lon="12.7827231"><ele>768.8</ele><time>2026-04-11T13:56:55.375Z</time></trkpt><trkpt lat="42.9127367" lon="12.7826513"><ele>770.6</ele><time>2026-04-11T13:56:56.372Z</time></trkpt><trkpt lat="42.9126582" lon="12.7825778"><ele>772.4</ele><time>2026-04-11T13:56:57.378Z</time></trkpt><trkpt lat="42.9125855" lon="12.7825049"><ele>774.1999999999999</ele><time>2026-04-11T13:56:58.373Z</time></trkpt><trkpt lat="42.9125156" lon="12.7824385"><ele>776.0</ele><time>2026-04-11T13:56:59.373Z</time></trkpt><trkpt lat="42.9124396" lon="12.782363"><ele>772.4</ele><time>2026-04-11T13:57:00.383Z</time></trkpt><trkpt lat="42.9123604" lon="12.7822867"><ele>768.8</ele><time>2026-04-11T13:57:01.371Z</time></trkpt><trkpt lat="42.9122784" lon="12.7822051"><ele>765.1999999999999</ele><time>2026-04-11T13:57:02.387Z</time></trkpt><trkpt lat="42.9121907" lon="12.7821168"><ele>761.5999999999999</ele><time>2026-04-11T13:57:03.371Z</time></trkpt><trkpt lat="42.9121048" lon="12.7820368"><ele>758.0</ele><time>2026-04-11T13:57:04.379Z</time></trkpt><trkpt lat="42.9120195" lon="12.7819537"><ele>758.0</ele><time>2026-04-11T13:57:05.382Z</time></trkpt><trkpt lat="42.9119335" lon="12.7818734"><ele>758.0</ele><time>2026-04-11T13:57:06.392Z</time></trkpt><trkpt lat="42.911846" lon="12.7818093"><ele>758.0</ele><time>2026-04-11T13:57:07.377Z</time></trkpt><trkpt lat="42.9117626" lon="12.781748"><ele>758.0</ele><time>2026-04-11T13:57:08.376Z</time></trkpt><trkpt lat="42.9116818" lon="12.7816816"><ele>758.0</ele><time>2026-04-11T13:57:09.384Z</time></trkpt><trkpt lat="42.9116075" lon="12.7816195"><ele>756.2</ele><time>2026-04-11T13:57:10.372Z</time></trkpt><trkpt lat="42.9115385" lon="12.7815507"><ele>754.4</ele><time>2026-04-11T13:57:11.373Z</time></trkpt><trkpt lat="42.9114671" lon="12.7814774"><ele>752.6</ele><time>2026-04-11T13:57:12.376Z</time></trkpt><trkpt lat="42.9113892" lon="12.7813989"><ele>750.8000000000001</ele><time>2026-04-11T13:57:13.376Z</time></trkpt><trkpt lat="42.9113086" lon="12.7813204"><ele>749.0</ele><time>2026-04-11T13:57:14.377Z</time></trkpt><trkpt lat="42.9112323" lon="12.7812459"><ele>749.0</ele><time>2026-04-11T13:57:15.37Z</time></trkpt><trkpt lat="42.9111548" lon="12.7811756"><ele>749.0</ele><time>2026-04-11T13:57:16.374Z</time></trkpt><trkpt lat="42.9110715" lon="12.7810944"><ele>749.0</ele><time>2026-04-11T13:57:17.376Z</time></trkpt><trkpt lat="42.9109846" lon="12.7810164"><ele>749.0</ele><time>2026-04-11T13:57:18.374Z</time></trkpt><trkpt lat="42.9108977" lon="12.780946"><ele>749.0</ele><time>2026-04-11T13:57:19.371Z</time></trkpt><trkpt lat="42.9108118" lon="12.7808751"><ele>746.4000000000001</ele><time>2026-04-11T13:57:20.384Z</time></trkpt><trkpt lat="42.9107256" lon="12.7808037"><ele>743.8</ele><time>2026-04-11T13:57:21.371Z</time></trkpt><trkpt lat="42.910631" lon="12.7807718"><ele>741.2</ele><time>2026-04-11T13:57:22.379Z</time></trkpt><trkpt lat="42.9105287" lon="12.7807643"><ele>738.5999999999999</ele><time>2026-04-11T13:57:23.375Z</time></trkpt><trkpt lat="42.9104191" lon="12.780782"><ele>736.0</ele><time>2026-04-11T13:57:24.377Z</time></trkpt><trkpt lat="42.9103044" lon="12.780788"><ele>736.0</ele><time>2026-04-11T13:57:25.374Z</time></trkpt><trkpt lat="42.910202" lon="12.7807898"><ele>736.0</ele><time>2026-04-11T13:57:26.393Z</time></trkpt><trkpt lat="42.9100915" lon="12.7807664"><ele>736.0</ele><time>2026-04-11T13:57:27.366Z</time></trkpt><trkpt lat="42.9099719" lon="12.7807193"><ele>736.0</ele><time>2026-04-11T13:57:28.367Z</time></trkpt><trkpt lat="42.9098545" lon="12.7806535"><ele>734.75</ele><time>2026-04-11T13:57:29.371Z</time></trkpt><trkpt lat="42.9097405" lon="12.78057"><ele>733.5</ele><time>2026-04-11T13:57:30.401Z</time></trkpt><trkpt lat="42.9096327" lon="12.7804904"><ele>732.25</ele><time>2026-04-11T13:57:31.386Z</time></trkpt><trkpt lat="42.9095344" lon="12.7804178"><ele>731.0</ele><time>2026-04-11T13:57:32.386Z</time></trkpt><trkpt lat="42.9094451" lon="12.7803556"><ele>731.0</ele><time>2026-04-11T13:57:33.384Z</time></trkpt><trkpt lat="42.9093661" lon="12.7803095"><ele>731.0</ele><time>2026-04-11T13:57:34.375Z</time></trkpt><trkpt lat="42.9093093" lon="12.7802705"><ele>731.0</ele><time>2026-04-11T13:57:35.37Z</time></trkpt><trkpt lat="42.9092767" lon="12.7801472"><ele>731.0</ele><time>2026-04-11T13:57:37.378Z</time></trkpt><trkpt lat="42.9093943" lon="12.7801293"><ele>731.0</ele><time>2026-04-11T13:57:39.37Z</time></trkpt><trkpt lat="42.9094707" lon="12.7801581"><ele>731.0</ele><time>2026-04-11T13:57:40.375Z</time></trkpt><trkpt lat="42.9095614" lon="12.780189"><ele>731.0</ele><time>2026-04-11T13:57:41.371Z</time></trkpt><trkpt lat="42.9096484" lon="12.7801939"><ele>731.0</ele><time>2026-04-11T13:57:42.372Z</time></trkpt><trkpt lat="42.9097351" lon="12.7801925"><ele>731.0</ele><time>2026-04-11T13:57:43.372Z</time></trkpt><trkpt lat="42.9098186" lon="12.78018"><ele>731.0</ele><time>2026-04-11T13:57:44.408Z</time></trkpt><trkpt lat="42.9099022" lon="12.7801629"><ele>731.0</ele><time>2026-04-11T13:57:45.388Z</time></trkpt><trkpt lat="42.9099796" lon="12.7801297"><ele>731.0</ele><time>2026-04-11T13:57:46.378Z</time></trkpt><trkpt lat="42.9100451" lon="12.7800734"><ele>733.1666666666666</ele><time>2026-04-11T13:57:47.394Z</time></trkpt><trkpt lat="42.9100921" lon="12.7800062"><ele>735.3333333333333</ele><time>2026-04-11T13:57:48.365Z</time></trkpt><trkpt lat="42.9101118" lon="12.7799236"><ele>737.5</ele><time>2026-04-11T13:57:49.367Z</time></trkpt><trkpt lat="42.9100994" lon="12.7798351"><ele>739.6666666666666</ele><time>2026-04-11T13:57:50.381Z</time></trkpt><trkpt lat="42.9100596" lon="12.7797383"><ele>741.8333333333334</ele><time>2026-04-11T13:57:51.373Z</time></trkpt><trkpt lat="42.9100144" lon="12.7796299"><ele>744.0</ele><time>2026-04-11T13:57:52.371Z</time></trkpt><trkpt lat="42.9099725" lon="12.7795152"><ele>737.5</ele><time>2026-04-11T13:57:53.368Z</time></trkpt><trkpt lat="42.90993" lon="12.7793669"><ele>731.0</ele><time>2026-04-11T13:57:54.393Z</time></trkpt><trkpt lat="42.9098904" lon="12.779202"><ele>724.5</ele><time>2026-04-11T13:57:55.372Z</time></trkpt><trkpt lat="42.9098486" lon="12.779034"><ele>718.0</ele><time>2026-04-11T13:57:56.389Z</time></trkpt><trkpt lat="42.9098088" lon="12.7788602"><ele>718.0</ele><time>2026-04-11T13:57:57.372Z</time></trkpt><trkpt lat="42.9097673" lon="12.7786851"><ele>718.0</ele><time>2026-04-11T13:57:58.385Z</time></trkpt><trkpt lat="42.9097253" lon="12.7785068"><ele>718.0</ele><time>2026-04-11T13:57:59.38Z</time></trkpt><trkpt lat="42.9096879" lon="12.7783314"><ele>718.0</ele><time>2026-04-11T13:58:00.376Z</time></trkpt><trkpt lat="42.9096472" lon="12.7781558"><ele>719.0</ele><time>2026-04-11T13:58:01.365Z</time></trkpt><trkpt lat="42.9096057" lon="12.7779888"><ele>720.0</ele><time>2026-04-11T13:58:02.376Z</time></trkpt><trkpt lat="42.909568" lon="12.777816"><ele>721.0</ele><time>2026-04-11T13:58:03.375Z</time></trkpt><trkpt lat="42.9095337" lon="12.7776459"><ele>722.0</ele><time>2026-04-11T13:58:04.388Z</time></trkpt><trkpt lat="42.9094969" lon="12.7774792"><ele>723.0</ele><time>2026-04-11T13:58:05.379Z</time></trkpt><trkpt lat="42.9094632" lon="12.7773113"><ele>724.0</ele><time>2026-04-11T13:58:06.379Z</time></trkpt><trkpt lat="42.909431" lon="12.777147"><ele>725.0</ele><time>2026-04-11T13:58:07.377Z</time></trkpt><trkpt lat="42.9093993" lon="12.7769845"><ele>726.0</ele><time>2026-04-11T13:58:08.385Z</time></trkpt><trkpt lat="42.9093689" lon="12.7768233"><ele>726.5</ele><time>2026-04-11T13:58:09.366Z</time></trkpt><trkpt lat="42.9093332" lon="12.7766653"><ele>727.0</ele><time>2026-04-11T13:58:10.38Z</time></trkpt><trkpt lat="42.9092972" lon="12.7765121"><ele>727.5</ele><time>2026-04-11T13:58:11.369Z</time></trkpt><trkpt lat="42.9092574" lon="12.7763586"><ele>728.0</ele><time>2026-04-11T13:58:12.374Z</time></trkpt><trkpt lat="42.9092182" lon="12.7762064"><ele>718.5</ele><time>2026-04-11T13:58:13.369Z</time></trkpt><trkpt lat="42.9091739" lon="12.7760527"><ele>709.0</ele><time>2026-04-11T13:58:14.37Z</time></trkpt><trkpt lat="42.9091321" lon="12.7759042"><ele>699.5</ele><time>2026-04-11T13:58:15.378Z</time></trkpt><trkpt lat="42.9090894" lon="12.7757541"><ele>690.0</ele><time>2026-04-11T13:58:16.377Z</time></trkpt><trkpt lat="42.9090558" lon="12.7756044"><ele>690.0</ele><time>2026-04-11T13:58:17.371Z</time></trkpt><trkpt lat="42.9090253" lon="12.775453"><ele>690.0</ele><time>2026-04-11T13:58:18.375Z</time></trkpt><trkpt lat="42.9089914" lon="12.7752978"><ele>690.0</ele><time>2026-04-11T13:58:19.376Z</time></trkpt><trkpt lat="42.9089551" lon="12.775142"><ele>690.0</ele><time>2026-04-11T13:58:20.369Z</time></trkpt><trkpt lat="42.9089176" lon="12.774979"><ele>690.25</ele><time>2026-04-11T13:58:21.384Z</time></trkpt><trkpt lat="42.9088808" lon="12.7748071"><ele>690.5</ele><time>2026-04-11T13:58:22.374Z</time></trkpt><trkpt lat="42.9088372" lon="12.7746321"><ele>690.75</ele><time>2026-04-11T13:58:23.372Z</time></trkpt><trkpt lat="42.9087925" lon="12.7744523"><ele>691.0</ele><time>2026-04-11T13:58:24.37Z</time></trkpt><trkpt lat="42.9087477" lon="12.7742773"><ele>688.4</ele><time>2026-04-11T13:58:25.376Z</time></trkpt><trkpt lat="42.9087029" lon="12.7741079"><ele>685.8</ele><time>2026-04-11T13:58:26.385Z</time></trkpt><trkpt lat="42.9086604" lon="12.7739513"><ele>683.1999999999999</ele><time>2026-04-11T13:58:27.374Z</time></trkpt><trkpt lat="42.908626" lon="12.7738148"><ele>680.5999999999999</ele><time>2026-04-11T13:58:28.385Z</time></trkpt><trkpt lat="42.9085998" lon="12.7737002"><ele>678.0</ele><time>2026-04-11T13:58:29.377Z</time></trkpt><trkpt lat="42.9085827" lon="12.7736167"><ele>678.0</ele><time>2026-04-11T13:58:30.377Z</time></trkpt><trkpt lat="42.90852" lon="12.7735803"><ele>678.0</ele><time>2026-04-11T13:58:32.38Z</time></trkpt><trkpt lat="42.9084773" lon="12.7737252"><ele>678.0</ele><time>2026-04-11T13:58:34.381Z</time></trkpt><trkpt lat="42.9084876" lon="12.7738213"><ele>678.0</ele><time>2026-04-11T13:58:35.368Z</time></trkpt><trkpt lat="42.9085024" lon="12.7739383"><ele>678.0</ele><time>2026-04-11T13:58:36.381Z</time></trkpt><trkpt lat="42.9085091" lon="12.7740802"><ele>678.0</ele><time>2026-04-11T13:58:37.371Z</time></trkpt><trkpt lat="42.9085119" lon="12.7742404"><ele>681.25</ele><time>2026-04-11T13:58:38.387Z</time></trkpt><trkpt lat="42.9085166" lon="12.7744106"><ele>684.5</ele><time>2026-04-11T13:58:39.372Z</time></trkpt><trkpt lat="42.9085248" lon="12.7745869"><ele>687.75</ele><time>2026-04-11T13:58:40.38Z</time></trkpt><trkpt lat="42.9085271" lon="12.7747576"><ele>691.0</ele><time>2026-04-11T13:58:41.374Z</time></trkpt><trkpt lat="42.9085258" lon="12.7749257"><ele>691.0</ele><time>2026-04-11T13:58:42.391Z</time></trkpt><trkpt lat="42.9085231" lon="12.7750913"><ele>691.0</ele><time>2026-04-11T13:58:43.376Z</time></trkpt><trkpt lat="42.9085091" lon="12.7752495"><ele>691.0</ele><time>2026-04-11T13:58:44.394Z</time></trkpt><trkpt lat="42.9084923" lon="12.7754055"><ele>691.0</ele><time>2026-04-11T13:58:45.387Z</time></trkpt><trkpt lat="42.9084716" lon="12.7755552"><ele>690.8333333333334</ele><time>2026-04-11T13:58:46.375Z</time></trkpt><trkpt lat="42.9084475" lon="12.7756913"><ele>690.6666666666667</ele><time>2026-04-11T13:58:47.369Z</time></trkpt><trkpt lat="42.9084307" lon="12.7758148"><ele>690.5</ele><time>2026-04-11T13:58:48.377Z</time></trkpt><trkpt lat="42.9084151" lon="12.7759239"><ele>690.3333333333334</ele><time>2026-04-11T13:58:49.37Z</time></trkpt><trkpt lat="42.9083939" lon="12.776005"><ele>690.1666666666666</ele><time>2026-04-11T13:58:50.375Z</time></trkpt><trkpt lat="42.9082943" lon="12.7760394"><ele>690.0</ele><time>2026-04-11T13:58:52.378Z</time></trkpt><trkpt lat="42.9082568" lon="12.7758735"><ele>681.75</ele><time>2026-04-11T13:58:54.377Z</time></trkpt><trkpt lat="42.9082627" lon="12.7757484"><ele>673.5</ele><time>2026-04-11T13:58:55.377Z</time></trkpt><trkpt lat="42.9082733" lon="12.7756128"><ele>665.25</ele><time>2026-04-11T13:58:56.369Z</time></trkpt><trkpt lat="42.9082596" lon="12.7754502"><ele>657.0</ele><time>2026-04-11T13:58:57.369Z</time></trkpt><trkpt lat="42.9082307" lon="12.7752615"><ele>657.0</ele><time>2026-04-11T13:58:58.376Z</time></trkpt><trkpt lat="42.9081959" lon="12.7750558"><ele>657.0</ele><time>2026-04-11T13:58:59.368Z</time></trkpt><trkpt lat="42.9081512" lon="12.7748375"><ele>657.0</ele><time>2026-04-11T13:59:00.371Z</time></trkpt><trkpt lat="42.9080952" lon="12.7746347"><ele>657.0</ele><time>2026-04-11T13:59:01.369Z</time></trkpt><trkpt lat="42.9080295" lon="12.7744425"><ele>657.0</ele><time>2026-04-11T13:59:02.379Z</time></trkpt><trkpt lat="42.907972" lon="12.7742561"><ele>657.0</ele><time>2026-04-11T13:59:03.365Z</time></trkpt><trkpt lat="42.9079064" lon="12.7740753"><ele>656.75</ele><time>2026-04-11T13:59:04.383Z</time></trkpt><trkpt lat="42.9078303" lon="12.7739036"><ele>656.5</ele><time>2026-04-11T13:59:05.375Z</time></trkpt><trkpt lat="42.9077388" lon="12.7737496"><ele>656.25</ele><time>2026-04-11T13:59:06.366Z</time></trkpt><trkpt lat="42.9076465" lon="12.7736033"><ele>656.0</ele><time>2026-04-11T13:59:07.364Z</time></trkpt><trkpt lat="42.9075681" lon="12.7734611"><ele>650.25</ele><time>2026-04-11T13:59:08.363Z</time></trkpt><trkpt lat="42.9074873" lon="12.7733152"><ele>644.5</ele><time>2026-04-11T13:59:09.367Z</time></trkpt><trkpt lat="42.9074197" lon="12.7731877"><ele>638.75</ele><time>2026-04-11T13:59:10.374Z</time></trkpt><trkpt lat="42.9073526" lon="12.7730592"><ele>633.0</ele><time>2026-04-11T13:59:11.374Z</time></trkpt><trkpt lat="42.9072947" lon="12.7729291"><ele>633.0</ele><time>2026-04-11T13:59:12.392Z</time></trkpt><trkpt lat="42.9072393" lon="12.772793"><ele>633.0</ele><time>2026-04-11T13:59:13.373Z</time></trkpt><trkpt lat="42.9071865" lon="12.7726575"><ele>633.0</ele><time>2026-04-11T13:59:14.391Z</time></trkpt><trkpt lat="42.9071359" lon="12.7725136"><ele>633.0</ele><time>2026-04-11T13:59:15.373Z</time></trkpt><trkpt lat="42.9070863" lon="12.7723723"><ele>634.25</ele><time>2026-04-11T13:59:16.367Z</time></trkpt><trkpt lat="42.9070376" lon="12.7722322"><ele>635.5</ele><time>2026-04-11T13:59:17.368Z</time></trkpt><trkpt lat="42.9069879" lon="12.7720887"><ele>636.75</ele><time>2026-04-11T13:59:18.375Z</time></trkpt><trkpt lat="42.9069439" lon="12.7719471"><ele>638.0</ele><time>2026-04-11T13:59:19.373Z</time></trkpt><trkpt lat="42.9068981" lon="12.7718063"><ele>635.1666666666666</ele><time>2026-04-11T13:59:20.37Z</time></trkpt><trkpt lat="42.9068608" lon="12.7716676"><ele>632.3333333333333</ele><time>2026-04-11T13:59:21.36Z</time></trkpt><trkpt lat="42.9068435" lon="12.771546"><ele>629.5</ele><time>2026-04-11T13:59:22.377Z</time></trkpt><trkpt lat="42.9068357" lon="12.7714412"><ele>626.6666666666666</ele><time>2026-04-11T13:59:23.378Z</time></trkpt><trkpt lat="42.9068475" lon="12.771354"><ele>623.8333333333334</ele><time>2026-04-11T13:59:24.381Z</time></trkpt><trkpt lat="42.9069221" lon="12.7712811"><ele>621.0</ele><time>2026-04-11T13:59:26.389Z</time></trkpt><trkpt lat="42.9070425" lon="12.7712884"><ele>621.0</ele><time>2026-04-11T13:59:28.386Z</time></trkpt><trkpt lat="42.9071402" lon="12.7712922"><ele>621.0</ele><time>2026-04-11T13:59:30.367Z</time></trkpt><trkpt lat="42.9071382" lon="12.7711802"><ele>621.0</ele><time>2026-04-11T13:59:33.372Z</time></trkpt><trkpt lat="42.9070394" lon="12.7711253"><ele>621.0</ele><time>2026-04-11T13:59:35.365Z</time></trkpt><trkpt lat="42.9069655" lon="12.7711101"><ele>621.0</ele><time>2026-04-11T13:59:36.388Z</time></trkpt><trkpt lat="42.906882" lon="12.7710972"><ele>621.0</ele><time>2026-04-11T13:59:37.373Z</time></trkpt><trkpt lat="42.9067953" lon="12.7710972"><ele>618.5</ele><time>2026-04-11T13:59:38.374Z</time></trkpt><trkpt lat="42.9067181" lon="12.7711334"><ele>616.0</ele><time>2026-04-11T13:59:39.379Z</time></trkpt><trkpt lat="42.9066579" lon="12.7711972"><ele>613.5</ele><time>2026-04-11T13:59:40.384Z</time></trkpt><trkpt lat="42.9066173" lon="12.7712903"><ele>611.0</ele><time>2026-04-11T13:59:41.374Z</time></trkpt><trkpt lat="42.9065707" lon="12.7713951"><ele>608.5</ele><time>2026-04-11T13:59:42.373Z</time></trkpt><trkpt lat="42.9065482" lon="12.7715058"><ele>606.0</ele><time>2026-04-11T13:59:43.379Z</time></trkpt><trkpt lat="42.9065328" lon="12.7716262"><ele>606.0</ele><time>2026-04-11T13:59:44.392Z</time></trkpt><trkpt lat="42.9065159" lon="12.7717509"><ele>606.0</ele><time>2026-04-11T13:59:45.38Z</time></trkpt><trkpt lat="42.9065008" lon="12.7718714"><ele>606.0</ele><time>2026-04-11T13:59:46.365Z</time></trkpt><trkpt lat="42.9065007" lon="12.7719935"><ele>606.0</ele><time>2026-04-11T13:59:47.376Z</time></trkpt><trkpt lat="42.9065159" lon="12.7721166"><ele>606.0</ele><time>2026-04-11T13:59:48.365Z</time></trkpt><trkpt lat="42.9065422" lon="12.7722422"><ele>606.5</ele><time>2026-04-11T13:59:49.366Z</time></trkpt><trkpt lat="42.9065714" lon="12.7723538"><ele>607.0</ele><time>2026-04-11T13:59:50.367Z</time></trkpt><trkpt lat="42.9065837" lon="12.7724588"><ele>607.5</ele><time>2026-04-11T13:59:51.352Z</time></trkpt><trkpt lat="42.9065752" lon="12.7725543"><ele>608.0</ele><time>2026-04-11T13:59:52.368Z</time></trkpt><trkpt lat="42.9065036" lon="12.7726558"><ele>608.5</ele><time>2026-04-11T13:59:54.369Z</time></trkpt><trkpt lat="42.9064251" lon="12.7725998"><ele>609.0</ele><time>2026-04-11T13:59:56.381Z</time></trkpt><trkpt lat="42.9063518" lon="12.7724443"><ele>609.0</ele><time>2026-04-11T13:59:58.367Z</time></trkpt><trkpt lat="42.9063007" lon="12.7723544"><ele>609.0</ele><time>2026-04-11T13:59:59.362Z</time></trkpt><trkpt lat="42.9062316" lon="12.7722668"><ele>609.0</ele><time>2026-04-11T14:00:00.37Z</time></trkpt><trkpt lat="42.9061528" lon="12.7721899"><ele>609.0</ele><time>2026-04-11T14:00:01.356Z</time></trkpt><trkpt lat="42.9060692" lon="12.7721177"><ele>609.0</ele><time>2026-04-11T14:00:02.363Z</time></trkpt><trkpt lat="42.905974" lon="12.7720482"><ele>606.8</ele><time>2026-04-11T14:00:03.364Z</time></trkpt><trkpt lat="42.9058794" lon="12.7719784"><ele>604.5999999999999</ele><time>2026-04-11T14:00:04.37Z</time></trkpt><trkpt lat="42.905788" lon="12.7718974"><ele>602.4</ele><time>2026-04-11T14:00:05.349Z</time></trkpt><trkpt lat="42.9057123" lon="12.7717925"><ele>600.1999999999999</ele><time>2026-04-11T14:00:06.368Z</time></trkpt><trkpt lat="42.9056337" lon="12.7716717"><ele>598.0</ele><time>2026-04-11T14:00:07.368Z</time></trkpt><trkpt lat="42.9055457" lon="12.7715623"><ele>595.0</ele><time>2026-04-11T14:00:08.372Z</time></trkpt><trkpt lat="42.9054485" lon="12.7714644"><ele>592.0</ele><time>2026-04-11T14:00:09.365Z</time></trkpt><trkpt lat="42.905356" lon="12.7713641"><ele>589.0</ele><time>2026-04-11T14:00:10.365Z</time></trkpt><trkpt lat="42.9052751" lon="12.7712495"><ele>586.0</ele><time>2026-04-11T14:00:11.372Z</time></trkpt><trkpt lat="42.9052063" lon="12.771114"><ele>584.75</ele><time>2026-04-11T14:00:12.37Z</time></trkpt><trkpt lat="42.9051406" lon="12.7709677"><ele>583.5</ele><time>2026-04-11T14:00:13.366Z</time></trkpt><trkpt lat="42.905071" lon="12.7708334"><ele>582.25</ele><time>2026-04-11T14:00:14.372Z</time></trkpt><trkpt lat="42.9050053" lon="12.7707048"><ele>581.0</ele><time>2026-04-11T14:00:15.367Z</time></trkpt><trkpt lat="42.9049389" lon="12.7705763"><ele>581.0</ele><time>2026-04-11T14:00:16.363Z</time></trkpt><trkpt lat="42.9048778" lon="12.7704452"><ele>581.0</ele><time>2026-04-11T14:00:17.358Z</time></trkpt><trkpt lat="42.9048156" lon="12.7703166"><ele>581.0</ele><time>2026-04-11T14:00:18.39Z</time></trkpt><trkpt lat="42.9047628" lon="12.7701796"><ele>581.0</ele><time>2026-04-11T14:00:19.362Z</time></trkpt><trkpt lat="42.9047117" lon="12.7700485"><ele>581.0</ele><time>2026-04-11T14:00:20.376Z</time></trkpt><trkpt lat="42.9046563" lon="12.769926"><ele>577.6</ele><time>2026-04-11T14:00:21.363Z</time></trkpt><trkpt lat="42.9045929" lon="12.7698148"><ele>574.2</ele><time>2026-04-11T14:00:22.364Z</time></trkpt><trkpt lat="42.9045183" lon="12.7697102"><ele>570.8</ele><time>2026-04-11T14:00:23.367Z</time></trkpt><trkpt lat="42.9044422" lon="12.7695942"><ele>567.4</ele><time>2026-04-11T14:00:24.37Z</time></trkpt><trkpt lat="42.904356" lon="12.7694914"><ele>564.0</ele><time>2026-04-11T14:00:25.364Z</time></trkpt><trkpt lat="42.9042466" lon="12.7693969"><ele>563.75</ele><time>2026-04-11T14:00:26.365Z</time></trkpt><trkpt lat="42.9041337" lon="12.7693028"><ele>563.5</ele><time>2026-04-11T14:00:27.366Z</time></trkpt><trkpt lat="42.9040193" lon="12.7692174"><ele>563.25</ele><time>2026-04-11T14:00:28.375Z</time></trkpt><trkpt lat="42.9038991" lon="12.7691249"><ele>563.0</ele><time>2026-04-11T14:00:29.361Z</time></trkpt><trkpt lat="42.9037827" lon="12.7690306"><ele>563.0</ele><time>2026-04-11T14:00:30.373Z</time></trkpt><trkpt lat="42.9036653" lon="12.7689413"><ele>563.0</ele><time>2026-04-11T14:00:31.363Z</time></trkpt><trkpt lat="42.9035536" lon="12.768861"><ele>563.0</ele><time>2026-04-11T14:00:32.385Z</time></trkpt><trkpt lat="42.9034419" lon="12.7687811"><ele>563.0</ele><time>2026-04-11T14:00:33.363Z</time></trkpt><trkpt lat="42.903332" lon="12.7686963"><ele>559.25</ele><time>2026-04-11T14:00:34.372Z</time></trkpt><trkpt lat="42.9032266" lon="12.768613"><ele>555.5</ele><time>2026-04-11T14:00:35.363Z</time></trkpt><trkpt lat="42.903121" lon="12.7685216"><ele>551.75</ele><time>2026-04-11T14:00:36.369Z</time></trkpt><trkpt lat="42.9030138" lon="12.76843"><ele>548.0</ele><time>2026-04-11T14:00:37.376Z</time></trkpt><trkpt lat="42.9029062" lon="12.7683277"><ele>548.0</ele><time>2026-04-11T14:00:38.365Z</time></trkpt><trkpt lat="42.9027961" lon="12.7682344"><ele>548.0</ele><time>2026-04-11T14:00:39.371Z</time></trkpt><trkpt lat="42.9026889" lon="12.7681418"><ele>548.0</ele><time>2026-04-11T14:00:40.375Z</time></trkpt><trkpt lat="42.9025885" lon="12.7680523"><ele>548.0</ele><time>2026-04-11T14:00:41.357Z</time></trkpt><trkpt lat="42.9024909" lon="12.7679674"><ele>550.0</ele><time>2026-04-11T14:00:42.376Z</time></trkpt><trkpt lat="42.9024062" lon="12.7678905"><ele>552.0</ele><time>2026-04-11T14:00:43.36Z</time></trkpt><trkpt lat="42.9023204" lon="12.7678198"><ele>554.0</ele><time>2026-04-11T14:00:44.373Z</time></trkpt><trkpt lat="42.9022379" lon="12.7677718"><ele>556.0</ele><time>2026-04-11T14:00:45.359Z</time></trkpt><trkpt lat="42.9021546" lon="12.7677663"><ele>558.0</ele><time>2026-04-11T14:00:46.373Z</time></trkpt><trkpt lat="42.9020739" lon="12.7677991"><ele>581.0</ele><time>2026-04-11T14:00:47.366Z</time></trkpt><trkpt lat="42.9049389" lon="12.7705763"><ele>581.0</ele><time>2026-04-11T14:00:16.363Z</time></trkpt><trkpt lat="42.9048778" lon="12.7704452"><ele>581.0</ele><time>2026-04-11T14:00:17.358Z</time></trkpt><trkpt lat="42.9048156" lon="12.7703166"><ele>581.0</ele><time>2026-04-11T14:00:18.39Z</time></trkpt><trkpt lat="42.9047628" lon="12.7701796"><ele>581.0</ele><time>2026-04-11T14:00:19.362Z</time></trkpt><trkpt lat="42.9047117" lon="12.7700485"><ele>581.0</ele><time>2026-04-11T14:00:20.376Z</time></trkpt><trkpt lat="42.9046563" lon="12.769926"><ele>577.6</ele><time>2026-04-11T14:00:21.363Z</time></trkpt><trkpt lat="42.9045929" lon="12.7698148"><ele>574.2</ele><time>2026-04-11T14:00:22.364Z</time></trkpt><trkpt lat="42.9045183" lon="12.7697102"><ele>570.8</ele><time>2026-04-11T14:00:23.367Z</time></trkpt><trkpt lat="42.9044422" lon="12.7695942"><ele>567.4</ele><time>2026-04-11T14:00:24.37Z</time></trkpt><trkpt lat="42.904356" lon="12.7694914"><ele>564.0</ele><time>2026-04-11T14:00:25.364Z</time></trkpt><trkpt lat="42.9042466" lon="12.7693969"><ele>563.75</ele><time>2026-04-11T14:00:26.365Z</time></trkpt><trkpt lat="42.9041337" lon="12.7693028"><ele>563.5</ele><time>2026-04-11T14:00:27.366Z</time></trkpt><trkpt lat="42.9040193" lon="12.7692174"><ele>563.25</ele><time>2026-04-11T14:00:28.375Z</time></trkpt><trkpt lat="42.9038991" lon="12.7691249"><ele>563.0</ele><time>2026-04-11T14:00:29.361Z</time></trkpt><trkpt lat="42.9037827" lon="12.7690306"><ele>563.0</ele><time>2026-04-11T14:00:30.373Z</time></trkpt><trkpt lat="42.9036653" lon="12.7689413"><ele>563.0</ele><time>2026-04-11T14:00:31.363Z</time></trkpt><trkpt lat="42.9035536" lon="12.768861"><ele>563.0</ele><time>2026-04-11T14:00:32.385Z</time></trkpt><trkpt lat="42.9034419" lon="12.7687811"><ele>563.0</ele><time>2026-04-11T14:00:33.363Z</time></trkpt><trkpt lat="42.903332" lon="12.7686963"><ele>559.25</ele><time>2026-04-11T14:00:34.372Z</time></trkpt><trkpt lat="42.9032266" lon="12.768613"><ele>555.5</ele><time>2026-04-11T14:00:35.363Z</time></trkpt><trkpt lat="42.903121" lon="12.7685216"><ele>551.75</ele><time>2026-04-11T14:00:36.369Z</time></trkpt><trkpt lat="42.9030138" lon="12.76843"><ele>548.0</ele><time>2026-04-11T14:00:37.376Z</time></trkpt><trkpt lat="42.9029062" lon="12.7683277"><ele>548.0</ele><time>2026-04-11T14:00:38.365Z</time></trkpt><trkpt lat="42.9027961" lon="12.7682344"><ele>548.0</ele><time>2026-04-11T14:00:39.371Z</time></trkpt><trkpt lat="42.9026889" lon="12.7681418"><ele>548.0</ele><time>2026-04-11T14:00:40.375Z</time></trkpt><trkpt lat="42.9025885" lon="12.7680523"><ele>548.0</ele><time>2026-04-11T14:00:41.357Z</time></trkpt><trkpt lat="42.9024909" lon="12.7679674"><ele>550.0</ele><time>2026-04-11T14:00:42.376Z</time></trkpt><trkpt lat="42.9024062" lon="12.7678905"><ele>552.0</ele><time>2026-04-11T14:00:43.36Z</time></trkpt><trkpt lat="42.9023204" lon="12.7678198"><ele>554.0</ele><time>2026-04-11T14:00:44.373Z</time></trkpt><trkpt lat="42.9022379" lon="12.7677718"><ele>556.0</ele><time>2026-04-11T14:00:45.359Z</time></trkpt><trkpt lat="42.9021546" lon="12.7677663"><ele>558.0</ele><time>2026-04-11T14:00:46.373Z</time></trkpt><trkpt lat="42.9020739" lon="12.7677991"><ele>558.0</ele><time>2026-04-11T14:00:47.366Z</time></trkpt><trkpt lat="42.9020254" lon="12.7678684"><ele>558.0</ele><time>2026-04-11T14:00:48.378Z</time></trkpt><trkpt lat="42.901992" lon="12.76797"><ele>558.0</ele><time>2026-04-11T14:00:49.36Z</time></trkpt><trkpt lat="42.9019614" lon="12.7680968"><ele>558.0</ele><time>2026-04-11T14:00:50.366Z</time></trkpt><trkpt lat="42.9019383" lon="12.7682476"><ele>558.0</ele><time>2026-04-11T14:00:51.369Z</time></trkpt><trkpt lat="42.9019139" lon="12.7684197"><ele>564.0</ele><time>2026-04-11T14:00:52.371Z</time></trkpt><trkpt lat="42.9018849" lon="12.768615"><ele>570.0</ele><time>2026-04-11T14:00:53.367Z</time></trkpt><trkpt lat="42.9018584" lon="12.7688237"><ele>576.0</ele><time>2026-04-11T14:00:54.374Z</time></trkpt><trkpt lat="42.9018374" lon="12.7690335"><ele>576.0</ele><time>2026-04-11T14:00:55.366Z</time></trkpt><trkpt lat="42.9018208" lon="12.769229"><ele>576.0</ele><time>2026-04-11T14:00:56.381Z</time></trkpt><trkpt lat="42.9018069" lon="12.7694278"><ele>576.0</ele><time>2026-04-11T14:00:57.37Z</time></trkpt><trkpt lat="42.9017975" lon="12.7696026"><ele>576.0</ele><time>2026-04-11T14:00:58.373Z</time></trkpt><trkpt lat="42.901777" lon="12.7697718"><ele>569.0</ele><time>2026-04-11T14:00:59.367Z</time></trkpt><trkpt lat="42.9017445" lon="12.7699376"><ele>562.0</ele><time>2026-04-11T14:01:00.369Z</time></trkpt><trkpt lat="42.9016995" lon="12.7700962"><ele>555.0</ele><time>2026-04-11T14:01:01.36Z</time></trkpt><trkpt lat="42.9016583" lon="12.7702513"><ele>548.0</ele><time>2026-04-11T14:01:02.372Z</time></trkpt><trkpt lat="42.901617" lon="12.7704"><ele>548.0</ele><time>2026-04-11T14:01:03.364Z</time></trkpt><trkpt lat="42.9015773" lon="12.7705416"><ele>548.0</ele><time>2026-04-11T14:01:04.371Z</time></trkpt><trkpt lat="42.9015296" lon="12.770682"><ele>548.0</ele><time>2026-04-11T14:01:05.364Z</time></trkpt><trkpt lat="42.9014794" lon="12.7708143"><ele>548.0</ele><time>2026-04-11T14:01:06.371Z</time></trkpt><trkpt lat="42.9014235" lon="12.7709346"><ele>548.0</ele><time>2026-04-11T14:01:07.364Z</time></trkpt><trkpt lat="42.9013638" lon="12.771049"><ele>551.8</ele><time>2026-04-11T14:01:08.376Z</time></trkpt><trkpt lat="42.9012947" lon="12.7711545"><ele>555.5999999999999</ele><time>2026-04-11T14:01:09.364Z</time></trkpt><trkpt lat="42.9012247" lon="12.7712588"><ele>559.4000000000001</ele><time>2026-04-11T14:01:10.373Z</time></trkpt><trkpt lat="42.9011567" lon="12.771366"><ele>563.2</ele><time>2026-04-11T14:01:11.362Z</time></trkpt><trkpt lat="42.9010881" lon="12.7714677"><ele>567.0</ele><time>2026-04-11T14:01:12.369Z</time></trkpt><trkpt lat="42.9010257" lon="12.7715844"><ele>567.0</ele><time>2026-04-11T14:01:13.364Z</time></trkpt><trkpt lat="42.9009779" lon="12.7717197"><ele>567.0</ele><time>2026-04-11T14:01:14.366Z</time></trkpt><trkpt lat="42.9009419" lon="12.7718508"><ele>567.0</ele><time>2026-04-11T14:01:15.368Z</time></trkpt><trkpt lat="42.9008969" lon="12.7719718"><ele>567.0</ele><time>2026-04-11T14:01:16.368Z</time></trkpt><trkpt lat="42.9008365" lon="12.7720863"><ele>567.0</ele><time>2026-04-11T14:01:17.361Z</time></trkpt><trkpt lat="42.9007568" lon="12.7721907"><ele>561.2</ele><time>2026-04-11T14:01:18.37Z</time></trkpt><trkpt lat="42.9006784" lon="12.7722931"><ele>555.4000000000001</ele><time>2026-04-11T14:01:19.366Z</time></trkpt><trkpt lat="42.9006059" lon="12.772384"><ele>549.5999999999999</ele><time>2026-04-11T14:01:20.377Z</time></trkpt><trkpt lat="42.9005445" lon="12.7724596"><ele>543.8</ele><time>2026-04-11T14:01:21.371Z</time></trkpt><trkpt lat="42.9004862" lon="12.7725127"><ele>538.0</ele><time>2026-04-11T14:01:22.371Z</time></trkpt><trkpt lat="42.9003797" lon="12.7725093"><ele>538.0</ele><time>2026-04-11T14:01:24.366Z</time></trkpt><trkpt lat="42.900311" lon="12.7723703"><ele>538.0</ele><time>2026-04-11T14:01:26.363Z</time></trkpt><trkpt lat="42.9002812" lon="12.7722857"><ele>538.0</ele><time>2026-04-11T14:01:27.365Z</time></trkpt><trkpt lat="42.9002645" lon="12.7721829"><ele>538.0</ele><time>2026-04-11T14:01:28.369Z</time></trkpt><trkpt lat="42.9002621" lon="12.7720969"><ele>538.0</ele><time>2026-04-11T14:01:29.357Z</time></trkpt><trkpt lat="42.900278" lon="12.7720031"><ele>538.0</ele><time>2026-04-11T14:01:30.364Z</time></trkpt><trkpt lat="42.9003105" lon="12.7719105"><ele>534.8</ele><time>2026-04-11T14:01:31.361Z</time></trkpt><trkpt lat="42.9003543" lon="12.7718136"><ele>531.5999999999999</ele><time>2026-04-11T14:01:32.364Z</time></trkpt><trkpt lat="42.9004092" lon="12.7716981"><ele>528.4000000000001</ele><time>2026-04-11T14:01:33.367Z</time></trkpt><trkpt lat="42.9004689" lon="12.7715717"><ele>525.2</ele><time>2026-04-11T14:01:34.373Z</time></trkpt><trkpt lat="42.9005263" lon="12.7714253"><ele>522.0</ele><time>2026-04-11T14:01:35.366Z</time></trkpt><trkpt lat="42.9005765" lon="12.7712742"><ele>522.0</ele><time>2026-04-11T14:01:36.364Z</time></trkpt><trkpt lat="42.9006169" lon="12.7711149"><ele>522.0</ele><time>2026-04-11T14:01:37.366Z</time></trkpt><trkpt lat="42.9006485" lon="12.7709567"><ele>522.0</ele><time>2026-04-11T14:01:38.375Z</time></trkpt><trkpt lat="42.9006744" lon="12.7707996"><ele>522.0</ele><time>2026-04-11T14:01:39.359Z</time></trkpt><trkpt lat="42.9007004" lon="12.7706481"><ele>520.0</ele><time>2026-04-11T14:01:40.377Z</time></trkpt><trkpt lat="42.9007277" lon="12.7704995"><ele>518.0</ele><time>2026-04-11T14:01:41.368Z</time></trkpt><trkpt lat="42.9007509" lon="12.7703497"><ele>516.0</ele><time>2026-04-11T14:01:42.362Z</time></trkpt><trkpt lat="42.9007543" lon="12.7701953"><ele>514.0</ele><time>2026-04-11T14:01:43.365Z</time></trkpt><trkpt lat="42.90076" lon="12.7700477"><ele>512.0</ele><time>2026-04-11T14:01:44.365Z</time></trkpt><trkpt lat="42.9007657" lon="12.7699068"><ele>510.8</ele><time>2026-04-11T14:01:45.375Z</time></trkpt><trkpt lat="42.9007691" lon="12.7697591"><ele>509.6</ele><time>2026-04-11T14:01:46.364Z</time></trkpt><trkpt lat="42.9007715" lon="12.7696119"><ele>508.40000000000003</ele><time>2026-04-11T14:01:47.365Z</time></trkpt><trkpt lat="42.9007777" lon="12.7694667"><ele>507.20000000000005</ele><time>2026-04-11T14:01:48.378Z</time></trkpt><trkpt lat="42.9007818" lon="12.7693204"><ele>506.0</ele><time>2026-04-11T14:01:49.374Z</time></trkpt><trkpt lat="42.9007813" lon="12.7691726"><ele>504.6</ele><time>2026-04-11T14:01:50.36Z</time></trkpt><trkpt lat="42.9007797" lon="12.7690255"><ele>503.20000000000005</ele><time>2026-04-11T14:01:51.369Z</time></trkpt><trkpt lat="42.9007845" lon="12.7688825"><ele>501.79999999999995</ele><time>2026-04-11T14:01:52.371Z</time></trkpt><trkpt lat="42.900794" lon="12.7687378"><ele>500.4</ele><time>2026-04-11T14:01:53.369Z</time></trkpt><trkpt lat="42.9008186" lon="12.7685873"><ele>499.0</ele><time>2026-04-11T14:01:54.376Z</time></trkpt><trkpt lat="42.9008549" lon="12.7684466"><ele>497.75</ele><time>2026-04-11T14:01:55.367Z</time></trkpt><trkpt lat="42.9008829" lon="12.7683004"><ele>496.5</ele><time>2026-04-11T14:01:56.37Z</time></trkpt><trkpt lat="42.9008852" lon="12.7681281"><ele>495.25</ele><time>2026-04-11T14:01:57.369Z</time></trkpt><trkpt lat="42.9008599" lon="12.76792"><ele>494.0</ele><time>2026-04-11T14:01:58.376Z</time></trkpt><trkpt lat="42.9008116" lon="12.7677048"><ele>491.66666666666663</ele><time>2026-04-11T14:01:59.37Z</time></trkpt><trkpt lat="42.9007697" lon="12.7674903"><ele>489.33333333333337</ele><time>2026-04-11T14:02:00.369Z</time></trkpt><trkpt lat="42.9007457" lon="12.7672769"><ele>487.0</ele><time>2026-04-11T14:02:01.363Z</time></trkpt><trkpt lat="42.9007344" lon="12.7670727"><ele>487.0</ele><time>2026-04-11T14:02:02.368Z</time></trkpt><trkpt lat="42.9007252" lon="12.7668656"><ele>487.0</ele><time>2026-04-11T14:02:03.355Z</time></trkpt><trkpt lat="42.9007204" lon="12.7666631"><ele>487.0</ele><time>2026-04-11T14:02:04.373Z</time></trkpt><trkpt lat="42.9007241" lon="12.7664615"><ele>487.0</ele><time>2026-04-11T14:02:05.36Z</time></trkpt><trkpt lat="42.9007336" lon="12.7662788"><ele>484.75</ele><time>2026-04-11T14:02:06.374Z</time></trkpt><trkpt lat="42.9007465" lon="12.766109"><ele>482.5</ele><time>2026-04-11T14:02:07.356Z</time></trkpt><trkpt lat="42.900761" lon="12.7659492"><ele>480.25</ele><time>2026-04-11T14:02:08.372Z</time></trkpt><trkpt lat="42.9007902" lon="12.7657887"><ele>478.0</ele><time>2026-04-11T14:02:09.362Z</time></trkpt><trkpt lat="42.9008165" lon="12.7656326"><ele>476.0</ele><time>2026-04-11T14:02:10.383Z</time></trkpt><trkpt lat="42.9008384" lon="12.7654736"><ele>474.0</ele><time>2026-04-11T14:02:11.379Z</time></trkpt><trkpt lat="42.9008593" lon="12.7653095"><ele>472.0</ele><time>2026-04-11T14:02:12.364Z</time></trkpt><trkpt lat="42.9008734" lon="12.7651499"><ele>470.0</ele><time>2026-04-11T14:02:13.355Z</time></trkpt><trkpt lat="42.9008807" lon="12.7649887"><ele>468.5</ele><time>2026-04-11T14:02:14.371Z</time></trkpt><trkpt lat="42.9008836" lon="12.7648205"><ele>467.0</ele><time>2026-04-11T14:02:15.36Z</time></trkpt><trkpt lat="42.9008871" lon="12.7646487"><ele>465.5</ele><time>2026-04-11T14:02:16.369Z</time></trkpt><trkpt lat="42.9008811" lon="12.7644701"><ele>464.0</ele><time>2026-04-11T14:02:17.364Z</time></trkpt><trkpt lat="42.900879" lon="12.7642892"><ele>462.25</ele><time>2026-04-11T14:02:18.364Z</time></trkpt><trkpt lat="42.9008699" lon="12.7641041"><ele>460.5</ele><time>2026-04-11T14:02:19.355Z</time></trkpt><trkpt lat="42.9008501" lon="12.7639269"><ele>458.75</ele><time>2026-04-11T14:02:20.374Z</time></trkpt><trkpt lat="42.9008224" lon="12.7637489"><ele>457.0</ele><time>2026-04-11T14:02:21.367Z</time></trkpt><trkpt lat="42.9007923" lon="12.7635732"><ele>455.25</ele><time>2026-04-11T14:02:22.371Z</time></trkpt><trkpt lat="42.9007587" lon="12.7634003"><ele>453.5</ele><time>2026-04-11T14:02:23.365Z</time></trkpt><trkpt lat="42.9007236" lon="12.7632219"><ele>451.75</ele><time>2026-04-11T14:02:24.38Z</time></trkpt><trkpt lat="42.9006878" lon="12.7630517"><ele>450.0</ele><time>2026-04-11T14:02:25.362Z</time></trkpt><trkpt lat="42.9006519" lon="12.7628819"><ele>450.0</ele><time>2026-04-11T14:02:26.368Z</time></trkpt><trkpt lat="42.9006137" lon="12.7627045"><ele>450.0</ele><time>2026-04-11T14:02:27.364Z</time></trkpt><trkpt lat="42.9005706" lon="12.7625324"><ele>450.0</ele><time>2026-04-11T14:02:28.376Z</time></trkpt><trkpt lat="42.9005243" lon="12.7623665"><ele>450.0</ele><time>2026-04-11T14:02:29.365Z</time></trkpt><trkpt lat="42.9004786" lon="12.7622003"><ele>448.5</ele><time>2026-04-11T14:02:30.377Z</time></trkpt><trkpt lat="42.9004299" lon="12.7620367"><ele>447.0</ele><time>2026-04-11T14:02:31.367Z</time></trkpt><trkpt lat="42.9003788" lon="12.7618773"><ele>445.5</ele><time>2026-04-11T14:02:32.376Z</time></trkpt><trkpt lat="42.9003247" lon="12.761722"><ele>444.0</ele><time>2026-04-11T14:02:33.368Z</time></trkpt><trkpt lat="42.9002626" lon="12.7615685"><ele>444.0</ele><time>2026-04-11T14:02:34.368Z</time></trkpt><trkpt lat="42.9001936" lon="12.7614234"><ele>444.0</ele><time>2026-04-11T14:02:35.367Z</time></trkpt><trkpt lat="42.9001149" lon="12.7612786"><ele>444.0</ele><time>2026-04-11T14:02:36.362Z</time></trkpt><trkpt lat="42.900031" lon="12.7611345"><ele>444.0</ele><time>2026-04-11T14:02:37.359Z</time></trkpt><trkpt lat="42.8999324" lon="12.7609912"><ele>440.5</ele><time>2026-04-11T14:02:38.374Z</time></trkpt><trkpt lat="42.8998285" lon="12.7608526"><ele>437.0</ele><time>2026-04-11T14:02:39.363Z</time></trkpt><trkpt lat="42.8997257" lon="12.76072"><ele>433.5</ele><time>2026-04-11T14:02:40.371Z</time></trkpt><trkpt lat="42.899618" lon="12.7605785"><ele>430.0</ele><time>2026-04-11T14:02:41.361Z</time></trkpt><trkpt lat="42.89951" lon="12.7604338"><ele>430.0</ele><time>2026-04-11T14:02:42.368Z</time></trkpt><trkpt lat="42.899404" lon="12.7602803"><ele>430.0</ele><time>2026-04-11T14:02:43.377Z</time></trkpt><trkpt lat="42.8993111" lon="12.7601166"><ele>430.0</ele><time>2026-04-11T14:02:44.368Z</time></trkpt><trkpt lat="42.8992384" lon="12.7599461"><ele>430.0</ele><time>2026-04-11T14:02:45.367Z</time></trkpt><trkpt lat="42.8991765" lon="12.7597657"><ele>430.0</ele><time>2026-04-11T14:02:46.368Z</time></trkpt><trkpt lat="42.8991171" lon="12.7595781"><ele>430.0</ele><time>2026-04-11T14:02:47.366Z</time></trkpt><trkpt lat="42.8990701" lon="12.7593998"><ele>430.0</ele><time>2026-04-11T14:02:48.366Z</time></trkpt><trkpt lat="42.8990259" lon="12.7592292"><ele>426.75</ele><time>2026-04-11T14:02:49.367Z</time></trkpt><trkpt lat="42.8989899" lon="12.7590675"><ele>423.5</ele><time>2026-04-11T14:02:50.388Z</time></trkpt><trkpt lat="42.8989621" lon="12.7589175"><ele>420.25</ele><time>2026-04-11T14:02:51.362Z</time></trkpt><trkpt lat="42.8989583" lon="12.7587662"><ele>417.0</ele><time>2026-04-11T14:02:52.364Z</time></trkpt><trkpt lat="42.8989847" lon="12.7586137"><ele>415.8</ele><time>2026-04-11T14:02:53.369Z</time></trkpt><trkpt lat="42.8990196" lon="12.7584697"><ele>414.6</ele><time>2026-04-11T14:02:54.376Z</time></trkpt><trkpt lat="42.8990458" lon="12.758325"><ele>413.40000000000003</ele><time>2026-04-11T14:02:55.371Z</time></trkpt><trkpt lat="42.8990676" lon="12.7581787"><ele>412.20000000000005</ele><time>2026-04-11T14:02:56.372Z</time></trkpt><trkpt lat="42.8990823" lon="12.7580324"><ele>411.0</ele><time>2026-04-11T14:02:57.368Z</time></trkpt><trkpt lat="42.8990708" lon="12.7578852"><ele>411.0</ele><time>2026-04-11T14:02:58.37Z</time></trkpt><trkpt lat="42.8990481" lon="12.7577279"><ele>411.0</ele><time>2026-04-11T14:02:59.371Z</time></trkpt><trkpt lat="42.8990234" lon="12.7575757"><ele>411.0</ele><time>2026-04-11T14:03:00.37Z</time></trkpt><trkpt lat="42.8989951" lon="12.7574214"><ele>411.0</ele><time>2026-04-11T14:03:01.365Z</time></trkpt><trkpt lat="42.8989644" lon="12.7572708"><ele>410.75</ele><time>2026-04-11T14:03:02.38Z</time></trkpt><trkpt lat="42.8989275" lon="12.7571264"><ele>410.5</ele><time>2026-04-11T14:03:03.363Z</time></trkpt><trkpt lat="42.8988798" lon="12.7569665"><ele>410.25</ele><time>2026-04-11T14:03:04.363Z</time></trkpt><trkpt lat="42.8988264" lon="12.7567945"><ele>410.0</ele><time>2026-04-11T14:03:05.372Z</time></trkpt><trkpt lat="42.898762" lon="12.7566194"><ele>411.0</ele><time>2026-04-11T14:03:06.378Z</time></trkpt><trkpt lat="42.8986933" lon="12.7564375"><ele>412.0</ele><time>2026-04-11T14:03:07.361Z</time></trkpt><trkpt lat="42.8986271" lon="12.7562424"><ele>413.0</ele><time>2026-04-11T14:03:08.368Z</time></trkpt><trkpt lat="42.8985486" lon="12.7560518"><ele>413.66666666666663</ele><time>2026-04-11T14:03:09.371Z</time></trkpt><trkpt lat="42.8984574" lon="12.7558641"><ele>414.33333333333337</ele><time>2026-04-11T14:03:10.373Z</time></trkpt><trkpt lat="42.8983547" lon="12.7557042"><ele>415.0</ele><time>2026-04-11T14:03:11.37Z</time></trkpt><trkpt lat="42.8982466" lon="12.7555602"><ele>406.33333333333337</ele><time>2026-04-11T14:03:12.367Z</time></trkpt><trkpt lat="42.8981304" lon="12.7554307"><ele>397.66666666666663</ele><time>2026-04-11T14:03:13.367Z</time></trkpt><trkpt lat="42.8980069" lon="12.7553158"><ele>389.0</ele><time>2026-04-11T14:03:14.384Z</time></trkpt><trkpt lat="42.897877" lon="12.7551896"><ele>390.0</ele><time>2026-04-11T14:03:15.357Z</time></trkpt><trkpt lat="42.8977521" lon="12.7550485"><ele>391.0</ele><time>2026-04-11T14:03:16.361Z</time></trkpt><trkpt lat="42.8976419" lon="12.7548918"><ele>392.0</ele><time>2026-04-11T14:03:17.369Z</time></trkpt><trkpt lat="42.8975377" lon="12.7547152"><ele>392.0</ele><time>2026-04-11T14:03:18.373Z</time></trkpt><trkpt lat="42.897427" lon="12.7545273"><ele>392.0</ele><time>2026-04-11T14:03:19.369Z</time></trkpt><trkpt lat="42.8973181" lon="12.7543326"><ele>392.0</ele><time>2026-04-11T14:03:20.377Z</time></trkpt><trkpt lat="42.897216" lon="12.7541332"><ele>388.3333333333333</ele><time>2026-04-11T14:03:21.363Z</time></trkpt><trkpt lat="42.8971242" lon="12.7539303"><ele>384.66666666666663</ele><time>2026-04-11T14:03:22.373Z</time></trkpt><trkpt lat="42.8970393" lon="12.7537347"><ele>381.0</ele><time>2026-04-11T14:03:23.364Z</time></trkpt><trkpt lat="42.8969541" lon="12.7535555"><ele>382.25</ele><time>2026-04-11T14:03:24.374Z</time></trkpt><trkpt lat="42.8968742" lon="12.7533901"><ele>383.5</ele><time>2026-04-11T14:03:25.37Z</time></trkpt><trkpt lat="42.896784" lon="12.753249"><ele>384.75</ele><time>2026-04-11T14:03:26.38Z</time></trkpt><trkpt lat="42.896682" lon="12.7531381"><ele>386.0</ele><time>2026-04-11T14:03:27.374Z</time></trkpt><trkpt lat="42.8965852" lon="12.7530379"><ele>386.0</ele><time>2026-04-11T14:03:28.377Z</time></trkpt><trkpt lat="42.8964868" lon="12.7529703"><ele>386.0</ele><time>2026-04-11T14:03:29.371Z</time></trkpt><trkpt lat="42.8963973" lon="12.7529502"><ele>386.0</ele><time>2026-04-11T14:03:30.375Z</time></trkpt><trkpt lat="42.8963138" lon="12.7529835"><ele>386.0</ele><time>2026-04-11T14:03:31.37Z</time></trkpt><trkpt lat="42.8962418" lon="12.7530544"><ele>386.0</ele><time>2026-04-11T14:03:32.367Z</time></trkpt><trkpt lat="42.8961695" lon="12.7531458"><ele>386.0</ele><time>2026-04-11T14:03:33.367Z</time></trkpt><trkpt lat="42.8960857" lon="12.753238"><ele>386.0</ele><time>2026-04-11T14:03:34.379Z</time></trkpt><trkpt lat="42.8959839" lon="12.753277"><ele>386.0</ele><time>2026-04-11T14:03:35.367Z</time></trkpt><trkpt lat="42.8958705" lon="12.7532744"><ele>386.0</ele><time>2026-04-11T14:03:36.379Z</time></trkpt><trkpt lat="42.8957459" lon="12.7532476"><ele>385.25</ele><time>2026-04-11T14:03:37.367Z</time></trkpt><trkpt lat="42.8956194" lon="12.7532078"><ele>384.5</ele><time>2026-04-11T14:03:38.374Z</time></trkpt><trkpt lat="42.8954966" lon="12.7531525"><ele>383.75</ele><time>2026-04-11T14:03:39.37Z</time></trkpt><trkpt lat="42.8953868" lon="12.7531143"><ele>383.0</ele><time>2026-04-11T14:03:40.385Z</time></trkpt><trkpt lat="42.8952787" lon="12.7530834"><ele>383.0</ele><time>2026-04-11T14:03:41.368Z</time></trkpt><trkpt lat="42.8951759" lon="12.7530546"><ele>383.0</ele><time>2026-04-11T14:03:42.375Z</time></trkpt><trkpt lat="42.8950738" lon="12.7530244"><ele>383.0</ele><time>2026-04-11T14:03:43.371Z</time></trkpt><trkpt lat="42.8949755" lon="12.7529918"><ele>383.0</ele><time>2026-04-11T14:03:44.387Z</time></trkpt><trkpt lat="42.8948768" lon="12.7529452"><ele>383.0</ele><time>2026-04-11T14:03:45.368Z</time></trkpt><trkpt lat="42.8947753" lon="12.7528896"><ele>383.59999999999997</ele><time>2026-04-11T14:03:46.377Z</time></trkpt><trkpt lat="42.8946761" lon="12.7528545"><ele>384.2</ele><time>2026-04-11T14:03:47.369Z</time></trkpt><trkpt lat="42.8945704" lon="12.7528251"><ele>384.8</ele><time>2026-04-11T14:03:48.38Z</time></trkpt><trkpt lat="42.8944609" lon="12.7528063"><ele>385.4</ele><time>2026-04-11T14:03:49.372Z</time></trkpt><trkpt lat="42.8943541" lon="12.7527892"><ele>386.0</ele><time>2026-04-11T14:03:50.376Z</time></trkpt><trkpt lat="42.8942493" lon="12.7527736"><ele>385.99999999999994</ele><time>2026-04-11T14:03:51.38Z</time></trkpt><trkpt lat="42.8941485" lon="12.7527581"><ele>386.0</ele><time>2026-04-11T14:03:52.382Z</time></trkpt><trkpt lat="42.8940584" lon="12.7527574"><ele>386.0</ele><time>2026-04-11T14:03:53.37Z</time></trkpt><trkpt lat="42.8939833" lon="12.7527571"><ele>386.0</ele><time>2026-04-11T14:03:54.377Z</time></trkpt><trkpt lat="42.8938897" lon="12.75275"><ele>385.99999999999994</ele><time>2026-04-11T14:03:56.379Z</time></trkpt><trkpt lat="42.8938408" lon="12.7526828"><ele>386.0</ele><time>2026-04-11T14:03:58.374Z</time></trkpt><trkpt lat="42.8938494" lon="12.752591"><ele>384.4</ele><time>2026-04-11T14:04:00.381Z</time></trkpt><trkpt lat="42.89389" lon="12.7524734"><ele>382.8</ele><time>2026-04-11T14:04:03.373Z</time></trkpt><trkpt lat="42.8939248" lon="12.7523557"><ele>381.2</ele><time>2026-04-11T14:04:05.369Z</time></trkpt><trkpt lat="42.8939616" lon="12.7522152"><ele>379.59999999999997</ele><time>2026-04-11T14:04:07.367Z</time></trkpt><trkpt lat="42.8940028" lon="12.7520533"><ele>378.0</ele><time>2026-04-11T14:04:09.373Z</time></trkpt><trkpt lat="42.8940278" lon="12.751956"><ele>376.59999999999997</ele><time>2026-04-11T14:04:10.376Z</time></trkpt><trkpt lat="42.8940542" lon="12.7518351"><ele>375.2</ele><time>2026-04-11T14:04:11.365Z</time></trkpt><trkpt lat="42.894085" lon="12.7517129"><ele>373.8</ele><time>2026-04-11T14:04:12.379Z</time></trkpt><trkpt lat="42.8941184" lon="12.7515833"><ele>372.4</ele><time>2026-04-11T14:04:13.371Z</time></trkpt><trkpt lat="42.8941488" lon="12.7514544"><ele>371.0</ele><time>2026-04-11T14:04:14.375Z</time></trkpt><trkpt lat="42.8941746" lon="12.7513216"><ele>371.0</ele><time>2026-04-11T14:04:15.369Z</time></trkpt><trkpt lat="42.894192" lon="12.75119"><ele>371.0</ele><time>2026-04-11T14:04:16.379Z</time></trkpt><trkpt lat="42.8941983" lon="12.7510567"><ele>371.0</ele><time>2026-04-11T14:04:17.365Z</time></trkpt><trkpt lat="42.8942032" lon="12.7509167"><ele>371.0</ele><time>2026-04-11T14:04:18.384Z</time></trkpt><trkpt lat="42.8941977" lon="12.750784"><ele>371.0</ele><time>2026-04-11T14:04:19.377Z</time></trkpt><trkpt lat="42.8941918" lon="12.7506493"><ele>369.4</ele><time>2026-04-11T14:04:20.374Z</time></trkpt><trkpt lat="42.894186" lon="12.7505145"><ele>367.8</ele><time>2026-04-11T14:04:21.377Z</time></trkpt><trkpt lat="42.8941754" lon="12.7503813"><ele>366.2</ele><time>2026-04-11T14:04:22.387Z</time></trkpt><trkpt lat="42.8941627" lon="12.7502429"><ele>364.59999999999997</ele><time>2026-04-11T14:04:23.374Z</time></trkpt><trkpt lat="42.894148" lon="12.7501018"><ele>363.0</ele><time>2026-04-11T14:04:24.374Z</time></trkpt><trkpt lat="42.8941363" lon="12.7499596"><ele>361.59999999999997</ele><time>2026-04-11T14:04:25.369Z</time></trkpt><trkpt lat="42.8941245" lon="12.7498181"><ele>360.2</ele><time>2026-04-11T14:04:26.382Z</time></trkpt><trkpt lat="42.8941145" lon="12.7496726"><ele>358.8</ele><time>2026-04-11T14:04:27.373Z</time></trkpt><trkpt lat="42.8941081" lon="12.7495289"><ele>357.4</ele><time>2026-04-11T14:04:28.383Z</time></trkpt><trkpt lat="42.8941095" lon="12.7493852"><ele>356.0</ele><time>2026-04-11T14:04:29.364Z</time></trkpt><trkpt lat="42.8941222" lon="12.7492353"><ele>354.8</ele><time>2026-04-11T14:04:30.389Z</time></trkpt><trkpt lat="42.8941492" lon="12.7490938"><ele>353.6</ele><time>2026-04-11T14:04:31.369Z</time></trkpt><trkpt lat="42.8941936" lon="12.7489639"><ele>352.4</ele><time>2026-04-11T14:04:32.382Z</time></trkpt><trkpt lat="42.8942601" lon="12.7488486"><ele>351.2</ele><time>2026-04-11T14:04:33.377Z</time></trkpt><trkpt lat="42.8943382" lon="12.748746"><ele>350.0</ele><time>2026-04-11T14:04:34.373Z</time></trkpt><trkpt lat="42.894434" lon="12.7486453"><ele>347.5</ele><time>2026-04-11T14:04:35.381Z</time></trkpt><trkpt lat="42.8945458" lon="12.7485385"><ele>345.0</ele><time>2026-04-11T14:04:36.372Z</time></trkpt><trkpt lat="42.894667" lon="12.7484187"><ele>342.5</ele><time>2026-04-11T14:04:37.371Z</time></trkpt><trkpt lat="42.894789" lon="12.7483005"><ele>340.0</ele><time>2026-04-11T14:04:38.377Z</time></trkpt><trkpt lat="42.8949147" lon="12.7481971"><ele>340.0</ele><time>2026-04-11T14:04:39.371Z</time></trkpt><trkpt lat="42.8950314" lon="12.7481131"><ele>340.0</ele><time>2026-04-11T14:04:40.381Z</time></trkpt><trkpt lat="42.8951411" lon="12.7480474"><ele>340.0</ele><time>2026-04-11T14:04:41.365Z</time></trkpt><trkpt lat="42.895242" lon="12.7479859"><ele>340.0</ele><time>2026-04-11T14:04:42.377Z</time></trkpt><trkpt lat="42.8953337" lon="12.7479231"><ele>339.4</ele><time>2026-04-11T14:04:43.367Z</time></trkpt><trkpt lat="42.8954267" lon="12.7478634"><ele>338.8</ele><time>2026-04-11T14:04:44.364Z</time></trkpt><trkpt lat="42.8955186" lon="12.7478026"><ele>338.20000000000005</ele><time>2026-04-11T14:04:45.377Z</time></trkpt><trkpt lat="42.8956132" lon="12.7477561"><ele>337.6</ele><time>2026-04-11T14:04:46.387Z</time></trkpt><trkpt lat="42.8957082" lon="12.7477091"><ele>337.0</ele><time>2026-04-11T14:04:47.374Z</time></trkpt><trkpt lat="42.8958015" lon="12.7476564"><ele>335.6</ele><time>2026-04-11T14:04:48.373Z</time></trkpt><trkpt lat="42.895893" lon="12.747599"><ele>334.20000000000005</ele><time>2026-04-11T14:04:49.368Z</time></trkpt><trkpt lat="42.8959785" lon="12.7475304"><ele>332.8</ele><time>2026-04-11T14:04:50.379Z</time></trkpt><trkpt lat="42.8960561" lon="12.7474501"><ele>331.4</ele><time>2026-04-11T14:04:51.381Z</time></trkpt><trkpt lat="42.8961245" lon="12.7473729"><ele>330.0</ele><time>2026-04-11T14:04:52.375Z</time></trkpt><trkpt lat="42.8961774" lon="12.7472915"><ele>329.8333333333333</ele><time>2026-04-11T14:04:53.366Z</time></trkpt><trkpt lat="42.8962248" lon="12.7472189"><ele>329.6666666666667</ele><time>2026-04-11T14:04:54.391Z</time></trkpt><trkpt lat="42.8962643" lon="12.7471501"><ele>329.5</ele><time>2026-04-11T14:04:55.369Z</time></trkpt><trkpt lat="42.8963022" lon="12.7470346"><ele>329.33333333333337</ele><time>2026-04-11T14:04:57.372Z</time></trkpt><trkpt lat="42.8962493" lon="12.7469494"><ele>329.1666666666667</ele><time>2026-04-11T14:05:00.38Z</time></trkpt><trkpt lat="42.8961631" lon="12.7468998"><ele>329.0</ele><time>2026-04-11T14:05:03.364Z</time></trkpt><trkpt lat="42.8960854" lon="12.7468582"><ele>328.5</ele><time>2026-04-11T14:05:05.368Z</time></trkpt><trkpt lat="42.8959797" lon="12.7467864"><ele>328.0</ele><time>2026-04-11T14:05:07.366Z</time></trkpt><trkpt lat="42.895913" lon="12.7467482"><ele>327.5</ele><time>2026-04-11T14:05:08.381Z</time></trkpt><trkpt lat="42.8958446" lon="12.7467085"><ele>327.0</ele><time>2026-04-11T14:05:09.368Z</time></trkpt><trkpt lat="42.8957718" lon="12.7466596"><ele>326.5</ele><time>2026-04-11T14:05:10.374Z</time></trkpt><trkpt lat="42.8956973" lon="12.7465998"><ele>326.0</ele><time>2026-04-11T14:05:11.361Z</time></trkpt><trkpt lat="42.8956213" lon="12.7465405"><ele>326.0</ele><time>2026-04-11T14:05:12.379Z</time></trkpt><trkpt lat="42.8955397" lon="12.7464767"><ele>326.0</ele><time>2026-04-11T14:05:13.368Z</time></trkpt><trkpt lat="42.8954511" lon="12.7464256"><ele>326.0</ele><time>2026-04-11T14:05:14.376Z</time></trkpt><trkpt lat="42.8953603" lon="12.7463829"><ele>326.0</ele><time>2026-04-11T14:05:15.383Z</time></trkpt><trkpt lat="42.89527" lon="12.7463484"><ele>326.0</ele><time>2026-04-11T14:05:16.385Z</time></trkpt><trkpt lat="42.8951748" lon="12.7463189"><ele>326.4</ele><time>2026-04-11T14:05:17.376Z</time></trkpt><trkpt lat="42.8950746" lon="12.7463003"><ele>326.8</ele><time>2026-04-11T14:05:18.379Z</time></trkpt><trkpt lat="42.8949774" lon="12.7462753"><ele>327.2</ele><time>2026-04-11T14:05:19.376Z</time></trkpt><trkpt lat="42.8948774" lon="12.7462501"><ele>327.59999999999997</ele><time>2026-04-11T14:05:20.376Z</time></trkpt><trkpt lat="42.8947784" lon="12.7462213"><ele>328.0</ele><time>2026-04-11T14:05:21.368Z</time></trkpt><trkpt lat="42.89468" lon="12.7461864"><ele>328.0</ele><time>2026-04-11T14:05:22.388Z</time></trkpt><trkpt lat="42.8945816" lon="12.7461548"><ele>328.0</ele><time>2026-04-11T14:05:23.364Z</time></trkpt><trkpt lat="42.8944913" lon="12.7461272"><ele>328.0</ele><time>2026-04-11T14:05:24.375Z</time></trkpt><trkpt lat="42.8944225" lon="12.746107"><ele>328.0</ele><time>2026-04-11T14:05:25.375Z</time></trkpt><trkpt lat="42.8943477" lon="12.7460069"><ele>328.0</ele><time>2026-04-11T14:05:27.37Z</time></trkpt><trkpt lat="42.8942687" lon="12.7459304"><ele>327.0</ele><time>2026-04-11T14:05:29.378Z</time></trkpt><trkpt lat="42.8941458" lon="12.7459108"><ele>326.0</ele><time>2026-04-11T14:05:31.37Z</time></trkpt><trkpt lat="42.8940747" lon="12.7459037"><ele>325.0</ele><time>2026-04-11T14:05:32.373Z</time></trkpt><trkpt lat="42.8939864" lon="12.745898"><ele>324.0</ele><time>2026-04-11T14:05:33.376Z</time></trkpt><trkpt lat="42.8939021" lon="12.7458894"><ele>323.0</ele><time>2026-04-11T14:05:34.372Z</time></trkpt><trkpt lat="42.893832" lon="12.7458874"><ele>322.0</ele><time>2026-04-11T14:05:35.393Z</time></trkpt><trkpt lat="42.8937228" lon="12.7458359"><ele>322.0</ele><time>2026-04-11T14:05:37.372Z</time></trkpt><trkpt lat="42.893638" lon="12.7457049"><ele>322.0</ele><time>2026-04-11T14:05:39.363Z</time></trkpt><trkpt lat="42.8935922" lon="12.7456214"><ele>322.0</ele><time>2026-04-11T14:05:40.382Z</time></trkpt><trkpt lat="42.8935443" lon="12.7455383"><ele>322.0</ele><time>2026-04-11T14:05:41.365Z</time></trkpt><trkpt lat="42.8935132" lon="12.7454568"><ele>322.0</ele><time>2026-04-11T14:05:42.37Z</time></trkpt><trkpt lat="42.8934938" lon="12.7453703"><ele>322.0</ele><time>2026-04-11T14:05:43.374Z</time></trkpt><trkpt lat="42.8934826" lon="12.7452854"><ele>320.6</ele><time>2026-04-11T14:05:44.379Z</time></trkpt><trkpt lat="42.8934724" lon="12.7451935"><ele>319.20000000000005</ele><time>2026-04-11T14:05:45.376Z</time></trkpt><trkpt lat="42.8934405" lon="12.7450366"><ele>317.8</ele><time>2026-04-11T14:05:47.371Z</time></trkpt><trkpt lat="42.8933779" lon="12.7449383"><ele>316.4</ele><time>2026-04-11T14:05:49.367Z</time></trkpt><trkpt lat="42.8932845" lon="12.7449766"><ele>315.0</ele><time>2026-04-11T14:05:51.375Z</time></trkpt><trkpt lat="42.8931638" lon="12.7450087"><ele>314.8333333333333</ele><time>2026-04-11T14:05:53.36Z</time></trkpt><trkpt lat="42.8930731" lon="12.7450383"><ele>314.6666666666667</ele><time>2026-04-11T14:05:55.367Z</time></trkpt><trkpt lat="42.8930125" lon="12.7449799"><ele>314.5</ele><time>2026-04-11T14:05:57.368Z</time></trkpt><trkpt lat="42.892991" lon="12.7448985"><ele>314.33333333333337</ele><time>2026-04-11T14:05:58.379Z</time></trkpt><trkpt lat="42.8929682" lon="12.7447801"><ele>314.1666666666667</ele><time>2026-04-11T14:05:59.374Z</time></trkpt><trkpt lat="42.8929291" lon="12.7446518"><ele>314.0</ele><time>2026-04-11T14:06:00.378Z</time></trkpt><trkpt lat="42.8928825" lon="12.7445025"><ele>312.0</ele><time>2026-04-11T14:06:01.366Z</time></trkpt><trkpt lat="42.8928246" lon="12.7443272"><ele>310.0</ele><time>2026-04-11T14:06:02.366Z</time></trkpt><trkpt lat="42.8927591" lon="12.7441426"><ele>308.0</ele><time>2026-04-11T14:06:03.373Z</time></trkpt><trkpt lat="42.8926817" lon="12.7439516"><ele>308.0</ele><time>2026-04-11T14:06:04.374Z</time></trkpt><trkpt lat="42.8926051" lon="12.7437774"><ele>308.0</ele><time>2026-04-11T14:06:05.364Z</time></trkpt><trkpt lat="42.8925289" lon="12.7436036"><ele>308.0</ele><time>2026-04-11T14:06:06.378Z</time></trkpt><trkpt lat="42.8924549" lon="12.743432"><ele>308.0</ele><time>2026-04-11T14:06:07.357Z</time></trkpt><trkpt lat="42.8923832" lon="12.7432624"><ele>306.5</ele><time>2026-04-11T14:06:08.401Z</time></trkpt><trkpt lat="42.8923161" lon="12.7430974"><ele>305.0</ele><time>2026-04-11T14:06:09.365Z</time></trkpt><trkpt lat="42.8922544" lon="12.7429366"><ele>303.5</ele><time>2026-04-11T14:06:10.374Z</time></trkpt><trkpt lat="42.8921958" lon="12.7427822"><ele>302.0</ele><time>2026-04-11T14:06:11.371Z</time></trkpt><trkpt lat="42.892145" lon="12.742631"><ele>300.0</ele><time>2026-04-11T14:06:12.372Z</time></trkpt><trkpt lat="42.892093" lon="12.7424844"><ele>298.0</ele><time>2026-04-11T14:06:13.358Z</time></trkpt><trkpt lat="42.8920399" lon="12.7423457"><ele>296.0</ele><time>2026-04-11T14:06:14.383Z</time></trkpt><trkpt lat="42.8919938" lon="12.7421978"><ele>294.0</ele><time>2026-04-11T14:06:15.364Z</time></trkpt><trkpt lat="42.8919422" lon="12.7420545"><ele>294.0</ele><time>2026-04-11T14:06:16.374Z</time></trkpt><trkpt lat="42.8918905" lon="12.741913"><ele>294.0</ele><time>2026-04-11T14:06:17.366Z</time></trkpt><trkpt lat="42.8918285" lon="12.7417784"><ele>294.0</ele><time>2026-04-11T14:06:18.37Z</time></trkpt><trkpt lat="42.8917646" lon="12.7416503"><ele>294.0</ele><time>2026-04-11T14:06:19.363Z</time></trkpt><trkpt lat="42.8916969" lon="12.7415271"><ele>292.25</ele><time>2026-04-11T14:06:20.374Z</time></trkpt><trkpt lat="42.8916323" lon="12.7413958"><ele>290.5</ele><time>2026-04-11T14:06:21.374Z</time></trkpt><trkpt lat="42.8915715" lon="12.7412655"><ele>288.75</ele><time>2026-04-11T14:06:22.375Z</time></trkpt><trkpt lat="42.891514" lon="12.7411242"><ele>287.0</ele><time>2026-04-11T14:06:23.364Z</time></trkpt><trkpt lat="42.891465" lon="12.7409795"><ele>286.0</ele><time>2026-04-11T14:06:24.368Z</time></trkpt><trkpt lat="42.8914204" lon="12.7408346"><ele>285.0</ele><time>2026-04-11T14:06:25.362Z</time></trkpt><trkpt lat="42.8913879" lon="12.740683"><ele>284.0</ele><time>2026-04-11T14:06:26.381Z</time></trkpt><trkpt lat="42.8913703" lon="12.7405251"><ele>283.0</ele><time>2026-04-11T14:06:27.376Z</time></trkpt><trkpt lat="42.8913614" lon="12.7403646"><ele>281.5</ele><time>2026-04-11T14:06:28.374Z</time></trkpt><trkpt lat="42.89136" lon="12.7402053"><ele>280.0</ele><time>2026-04-11T14:06:29.366Z</time></trkpt><trkpt lat="42.8913608" lon="12.740051"><ele>278.5</ele><time>2026-04-11T14:06:30.379Z</time></trkpt><trkpt lat="42.8913586" lon="12.7398933"><ele>277.0</ele><time>2026-04-11T14:06:31.394Z</time></trkpt><trkpt lat="42.8913546" lon="12.7397409"><ele>277.0</ele><time>2026-04-11T14:06:32.372Z</time></trkpt><trkpt lat="42.8913465" lon="12.739586"><ele>277.0</ele><time>2026-04-11T14:06:33.367Z</time></trkpt><trkpt lat="42.8913308" lon="12.7394284"><ele>277.0</ele><time>2026-04-11T14:06:34.377Z</time></trkpt><trkpt lat="42.8913082" lon="12.7392707"><ele>277.0</ele><time>2026-04-11T14:06:35.375Z</time></trkpt><trkpt lat="42.8912848" lon="12.7391257"><ele>275.4</ele><time>2026-04-11T14:06:36.374Z</time></trkpt><trkpt lat="42.891258" lon="12.7389794"><ele>273.79999999999995</ele><time>2026-04-11T14:06:37.376Z</time></trkpt><trkpt lat="42.8912276" lon="12.7388383"><ele>272.2</ele><time>2026-04-11T14:06:38.37Z</time></trkpt><trkpt lat="42.8911965" lon="12.7386978"><ele>270.59999999999997</ele><time>2026-04-11T14:06:39.366Z</time></trkpt><trkpt lat="42.8911652" lon="12.7385585"><ele>269.0</ele><time>2026-04-11T14:06:40.384Z</time></trkpt><trkpt lat="42.8911403" lon="12.7384183"><ele>267.8</ele><time>2026-04-11T14:06:41.369Z</time></trkpt><trkpt lat="42.891112" lon="12.7382776"><ele>266.59999999999997</ele><time>2026-04-11T14:06:42.376Z</time></trkpt><trkpt lat="42.8910832" lon="12.7381405"><ele>265.4</ele><time>2026-04-11T14:06:43.369Z</time></trkpt><trkpt lat="42.8910509" lon="12.7379906"><ele>264.2</ele><time>2026-04-11T14:06:44.373Z</time></trkpt><trkpt lat="42.8910208" lon="12.73783"><ele>263.0</ele><time>2026-04-11T14:06:45.373Z</time></trkpt><trkpt lat="42.8910005" lon="12.7376596"><ele>262.0</ele><time>2026-04-11T14:06:46.378Z</time></trkpt><trkpt lat="42.8909946" lon="12.7374846"><ele>261.0</ele><time>2026-04-11T14:06:47.368Z</time></trkpt><trkpt lat="42.8909995" lon="12.7373038"><ele>260.0</ele><time>2026-04-11T14:06:48.392Z</time></trkpt><trkpt lat="42.8910047" lon="12.7371154"><ele>259.0</ele><time>2026-04-11T14:06:49.375Z</time></trkpt><trkpt lat="42.8910031" lon="12.7369281"><ele>257.5</ele><time>2026-04-11T14:06:50.382Z</time></trkpt><trkpt lat="42.8909946" lon="12.7367345"><ele>256.0</ele><time>2026-04-11T14:06:51.369Z</time></trkpt><trkpt lat="42.8909765" lon="12.7365386"><ele>254.5</ele><time>2026-04-11T14:06:52.38Z</time></trkpt><trkpt lat="42.8909505" lon="12.7363455"><ele>253.0</ele><time>2026-04-11T14:06:53.38Z</time></trkpt><trkpt lat="42.8909029" lon="12.7361396"><ele>251.0</ele><time>2026-04-11T14:06:54.369Z</time></trkpt><trkpt lat="42.8908496" lon="12.735925"><ele>249.0</ele><time>2026-04-11T14:06:55.377Z</time></trkpt><trkpt lat="42.8907918" lon="12.7357125"><ele>247.0</ele><time>2026-04-11T14:06:56.378Z</time></trkpt><trkpt lat="42.8907301" lon="12.7354979"><ele>247.0</ele><time>2026-04-11T14:06:57.379Z</time></trkpt><trkpt lat="42.8906651" lon="12.7352898"><ele>247.0</ele><time>2026-04-11T14:06:58.376Z</time></trkpt><trkpt lat="42.8906005" lon="12.7350792"><ele>247.0</ele><time>2026-04-11T14:06:59.373Z</time></trkpt><trkpt lat="42.8905398" lon="12.7348816"><ele>245.5</ele><time>2026-04-11T14:07:00.378Z</time></trkpt><trkpt lat="42.8904839" lon="12.7347043"><ele>244.0</ele><time>2026-04-11T14:07:01.371Z</time></trkpt><trkpt lat="42.8904362" lon="12.7345349"><ele>242.5</ele><time>2026-04-11T14:07:02.379Z</time></trkpt><trkpt lat="42.8903992" lon="12.734392"><ele>241.0</ele><time>2026-04-11T14:07:03.358Z</time></trkpt><trkpt lat="42.8903637" lon="12.7342799"><ele>240.66666666666666</ele><time>2026-04-11T14:07:04.375Z</time></trkpt><trkpt lat="42.8903343" lon="12.7341849"><ele>240.33333333333331</ele><time>2026-04-11T14:07:05.372Z</time></trkpt><trkpt lat="42.8903055" lon="12.7340964"><ele>240.0</ele><time>2026-04-11T14:07:06.377Z</time></trkpt><trkpt lat="42.8902069" lon="12.7340098"><ele>239.66666666666669</ele><time>2026-04-11T14:07:08.367Z</time></trkpt><trkpt lat="42.890137" lon="12.7340067"><ele>239.33333333333334</ele><time>2026-04-11T14:07:09.371Z</time></trkpt><trkpt lat="42.8900524" lon="12.7340266"><ele>239.0</ele><time>2026-04-11T14:07:10.372Z</time></trkpt><trkpt lat="42.8899501" lon="12.7340615"><ele>239.0</ele><time>2026-04-11T14:07:11.371Z</time></trkpt><trkpt lat="42.8898285" lon="12.7341019"><ele>239.0</ele><time>2026-04-11T14:07:12.381Z</time></trkpt><trkpt lat="42.8897035" lon="12.7341548"><ele>239.0</ele><time>2026-04-11T14:07:13.375Z</time></trkpt><trkpt lat="42.8895604" lon="12.7342071"><ele>239.0</ele><time>2026-04-11T14:07:14.385Z</time></trkpt><trkpt lat="42.8894041" lon="12.7342659"><ele>239.33333333333334</ele><time>2026-04-11T14:07:15.366Z</time></trkpt><trkpt lat="42.8892419" lon="12.7343286"><ele>239.66666666666669</ele><time>2026-04-11T14:07:16.368Z</time></trkpt><trkpt lat="42.8890829" lon="12.734391"><ele>240.0</ele><time>2026-04-11T14:07:17.37Z</time></trkpt><trkpt lat="42.888943" lon="12.73445"><ele>240.0</ele><time>2026-04-11T14:07:18.376Z</time></trkpt><trkpt lat="42.8888187" lon="12.7344904"><ele>240.0</ele><time>2026-04-11T14:07:19.373Z</time></trkpt><trkpt lat="42.8887103" lon="12.7345272"><ele>240.0</ele><time>2026-04-11T14:07:20.384Z</time></trkpt><trkpt lat="42.8886097" lon="12.7345651"><ele>240.0</ele><time>2026-04-11T14:07:21.379Z</time></trkpt><trkpt lat="42.8885156" lon="12.7346066"><ele>240.0</ele><time>2026-04-11T14:07:22.384Z</time></trkpt><trkpt lat="42.8884307" lon="12.7346499"><ele>239.16666666666666</ele><time>2026-04-11T14:07:23.375Z</time></trkpt><trkpt lat="42.8883487" lon="12.7346941"><ele>238.33333333333331</ele><time>2026-04-11T14:07:24.383Z</time></trkpt><trkpt lat="42.8882722" lon="12.7347404"><ele>237.5</ele><time>2026-04-11T14:07:25.375Z</time></trkpt><trkpt lat="42.8882019" lon="12.7347846"><ele>236.66666666666666</ele><time>2026-04-11T14:07:26.37Z</time></trkpt><trkpt lat="42.8881382" lon="12.7348236"><ele>235.83333333333331</ele><time>2026-04-11T14:07:27.362Z</time></trkpt><trkpt lat="42.888032" lon="12.7348819"><ele>235.0</ele><time>2026-04-11T14:07:29.361Z</time></trkpt><trkpt lat="42.8879263" lon="12.7348833"><ele>235.0</ele><time>2026-04-11T14:07:31.365Z</time></trkpt><trkpt lat="42.8878647" lon="12.7348653"><ele>234.99999999999997</ele><time>2026-04-11T14:07:32.38Z</time></trkpt><trkpt lat="42.8877899" lon="12.7348393"><ele>235.0</ele><time>2026-04-11T14:07:33.359Z</time></trkpt><trkpt lat="42.8877122" lon="12.7348348"><ele>235.0</ele><time>2026-04-11T14:07:34.375Z</time></trkpt><trkpt lat="42.887634" lon="12.73485"><ele>234.99999999999997</ele><time>2026-04-11T14:07:35.373Z</time></trkpt><trkpt lat="42.8875651" lon="12.7348717"><ele>235.0</ele><time>2026-04-11T14:07:36.377Z</time></trkpt><trkpt lat="42.8875019" lon="12.7348943"><ele>235.0</ele><time>2026-04-11T14:07:37.37Z</time></trkpt><trkpt lat="42.8874405" lon="12.7349272"><ele>235.14285714285714</ele><time>2026-04-11T14:07:38.373Z</time></trkpt><trkpt lat="42.8873781" lon="12.7349653"><ele>235.28571428571428</ele><time>2026-04-11T14:07:39.365Z</time></trkpt><trkpt lat="42.8873213" lon="12.7350131"><ele>235.42857142857142</ele><time>2026-04-11T14:07:40.378Z</time></trkpt><trkpt lat="42.8872594" lon="12.7350715"><ele>235.57142857142856</ele><time>2026-04-11T14:07:41.372Z</time></trkpt><trkpt lat="42.8872054" lon="12.7351293"><ele>235.71428571428572</ele><time>2026-04-11T14:07:42.382Z</time></trkpt><trkpt lat="42.8871462" lon="12.735187"><ele>235.85714285714283</ele><time>2026-04-11T14:07:43.359Z</time></trkpt><trkpt lat="42.8870921" lon="12.7352392"><ele>236.0</ele><time>2026-04-11T14:07:44.375Z</time></trkpt><trkpt lat="42.8869924" lon="12.7353338"><ele>236.0</ele><time>2026-04-11T14:07:46.382Z</time></trkpt><trkpt lat="42.8869381" lon="12.7353892"><ele>236.0</ele><time>2026-04-11T14:07:47.37Z</time></trkpt><trkpt lat="42.8868873" lon="12.7354546"><ele>236.0</ele><time>2026-04-11T14:07:48.373Z</time></trkpt><trkpt lat="42.8868342" lon="12.7355169"><ele>236.0</ele><time>2026-04-11T14:07:49.365Z</time></trkpt><trkpt lat="42.8867744" lon="12.7355703"><ele>236.0</ele><time>2026-04-11T14:07:50.389Z</time></trkpt><trkpt lat="42.8867065" lon="12.7355978"><ele>236.0</ele><time>2026-04-11T14:07:51.372Z</time></trkpt><trkpt lat="42.8866278" lon="12.7356209"><ele>236.0</ele><time>2026-04-11T14:07:52.381Z</time></trkpt><trkpt lat="42.8865449" lon="12.7356338"><ele>235.33333333333334</ele><time>2026-04-11T14:07:53.372Z</time></trkpt><trkpt lat="42.8864611" lon="12.7356498"><ele>234.66666666666669</ele><time>2026-04-11T14:07:54.373Z</time></trkpt><trkpt lat="42.8863727" lon="12.73567"><ele>234.0</ele><time>2026-04-11T14:07:55.37Z</time></trkpt><trkpt lat="42.886285" lon="12.735683"><ele>233.33333333333331</ele><time>2026-04-11T14:07:56.372Z</time></trkpt><trkpt lat="42.8861991" lon="12.7357166"><ele>232.66666666666666</ele><time>2026-04-11T14:07:57.367Z</time></trkpt><trkpt lat="42.8861197" lon="12.7357698"><ele>232.0</ele><time>2026-04-11T14:07:58.372Z</time></trkpt><trkpt lat="42.886049" lon="12.7358187"><ele>231.99999999999997</ele><time>2026-04-11T14:07:59.355Z</time></trkpt><trkpt lat="42.8859774" lon="12.7358609"><ele>232.0</ele><time>2026-04-11T14:08:00.381Z</time></trkpt><trkpt lat="42.8858996" lon="12.7359014"><ele>232.0</ele><time>2026-04-11T14:08:01.365Z</time></trkpt><trkpt lat="42.885821" lon="12.7359392"><ele>232.0</ele><time>2026-04-11T14:08:02.377Z</time></trkpt><trkpt lat="42.8857378" lon="12.7359891"><ele>231.99999999999997</ele><time>2026-04-11T14:08:03.373Z</time></trkpt><trkpt lat="42.8856574" lon="12.7360654"><ele>232.0</ele><time>2026-04-11T14:08:04.376Z</time></trkpt><trkpt lat="42.8855832" lon="12.7361554"><ele>230.83333333333331</ele><time>2026-04-11T14:08:05.361Z</time></trkpt><trkpt lat="42.8855134" lon="12.7362616"><ele>229.66666666666666</ele><time>2026-04-11T14:08:06.371Z</time></trkpt><trkpt lat="42.8854505" lon="12.7363567"><ele>228.5</ele><time>2026-04-11T14:08:07.369Z</time></trkpt><trkpt lat="42.8853866" lon="12.7364347"><ele>227.33333333333331</ele><time>2026-04-11T14:08:08.367Z</time></trkpt><trkpt lat="42.8853312" lon="12.736491"><ele>226.16666666666666</ele><time>2026-04-11T14:08:09.369Z</time></trkpt><trkpt lat="42.8852722" lon="12.7365445"><ele>225.0</ele><time>2026-04-11T14:08:10.371Z</time></trkpt><trkpt lat="42.885185" lon="12.7366073"><ele>225.0</ele><time>2026-04-11T14:08:12.381Z</time></trkpt><trkpt lat="42.8851261" lon="12.7365584"><ele>225.0</ele><time>2026-04-11T14:08:15.365Z</time></trkpt><trkpt lat="42.8850864" lon="12.7364626"><ele>225.0</ele><time>2026-04-11T14:08:23.371Z</time></trkpt><trkpt lat="42.885053" lon="12.736389"><ele>225.0</ele><time>2026-04-11T14:08:24.373Z</time></trkpt><trkpt lat="42.8850285" lon="12.7362947"><ele>225.0</ele><time>2026-04-11T14:08:25.375Z</time></trkpt><trkpt lat="42.8849976" lon="12.736193"><ele>225.0</ele><time>2026-04-11T14:08:26.378Z</time></trkpt><trkpt lat="42.8849635" lon="12.7360865"><ele>224.5</ele><time>2026-04-11T14:08:27.367Z</time></trkpt><trkpt lat="42.8849279" lon="12.7359741"><ele>224.0</ele><time>2026-04-11T14:08:28.38Z</time></trkpt><trkpt lat="42.8849061" lon="12.7358642"><ele>223.5</ele><time>2026-04-11T14:08:29.363Z</time></trkpt><trkpt lat="42.884881" lon="12.7357535"><ele>223.0</ele><time>2026-04-11T14:08:30.381Z</time></trkpt><trkpt lat="42.8848571" lon="12.7356615"><ele>222.5</ele><time>2026-04-11T14:08:31.373Z</time></trkpt><trkpt lat="42.8848352" lon="12.7355731"><ele>222.0</ele><time>2026-04-11T14:08:32.373Z</time></trkpt><trkpt lat="42.884815" lon="12.7354761"><ele>222.0</ele><time>2026-04-11T14:08:33.377Z</time></trkpt><trkpt lat="42.8847952" lon="12.7353836"><ele>222.0</ele><time>2026-04-11T14:08:34.377Z</time></trkpt><trkpt lat="42.8847717" lon="12.735289"><ele>222.0</ele><time>2026-04-11T14:08:35.373Z</time></trkpt><trkpt lat="42.8847383" lon="12.7351908"><ele>222.0</ele><time>2026-04-11T14:08:36.373Z</time></trkpt><trkpt lat="42.884712" lon="12.7350966"><ele>222.0</ele><time>2026-04-11T14:08:37.37Z</time></trkpt><trkpt lat="42.884694" lon="12.7350073"><ele>222.0</ele><time>2026-04-11T14:08:38.378Z</time></trkpt><trkpt lat="42.8846677" lon="12.7348567"><ele>221.66666666666666</ele><time>2026-04-11T14:08:40.375Z</time></trkpt><trkpt lat="42.8846459" lon="12.7347298"><ele>221.33333333333331</ele><time>2026-04-11T14:08:42.381Z</time></trkpt><trkpt lat="42.884627" lon="12.7346473"><ele>221.0</ele><time>2026-04-11T14:08:45.379Z</time></trkpt><trkpt lat="42.8845875" lon="12.7345558"><ele>220.66666666666666</ele><time>2026-04-11T14:08:52.375Z</time></trkpt><trkpt lat="42.8845414" lon="12.7344297"><ele>220.33333333333331</ele><time>2026-04-11T14:08:54.376Z</time></trkpt><trkpt lat="42.8845005" lon="12.7342955"><ele>220.0</ele><time>2026-04-11T14:08:56.381Z</time></trkpt><trkpt lat="42.8844596" lon="12.7342236"><ele>219.49999999999997</ele><time>2026-04-11T14:08:57.369Z</time></trkpt><trkpt lat="42.8844012" lon="12.7341336"><ele>219.0</ele><time>2026-04-11T14:08:58.374Z</time></trkpt><trkpt lat="42.8843387" lon="12.7340487"><ele>218.5</ele><time>2026-04-11T14:08:59.361Z</time></trkpt><trkpt lat="42.8842828" lon="12.7339671"><ele>218.0</ele><time>2026-04-11T14:09:00.379Z</time></trkpt><trkpt lat="42.8842278" lon="12.7339076"><ele>217.49999999999997</ele><time>2026-04-11T14:09:01.37Z</time></trkpt><trkpt lat="42.8841744" lon="12.7338572"><ele>217.0</ele><time>2026-04-11T14:09:02.369Z</time></trkpt><trkpt lat="42.8840818" lon="12.7337307"><ele>216.66666666666666</ele><time>2026-04-11T14:09:04.38Z</time></trkpt><trkpt lat="42.8840258" lon="12.7336551"><ele>216.33333333333331</ele><time>2026-04-11T14:09:05.363Z</time></trkpt><trkpt lat="42.8839723" lon="12.7335753"><ele>216.0</ele><time>2026-04-11T14:09:06.383Z</time></trkpt><trkpt lat="42.8839203" lon="12.733497"><ele>215.66666666666669</ele><time>2026-04-11T14:09:07.373Z</time></trkpt><trkpt lat="42.8838723" lon="12.7334184"><ele>215.33333333333334</ele><time>2026-04-11T14:09:08.375Z</time></trkpt><trkpt lat="42.8838296" lon="12.7333535"><ele>215.0</ele><time>2026-04-11T14:09:09.369Z</time></trkpt><trkpt lat="42.8837483" lon="12.7332281"><ele>214.66666666666669</ele><time>2026-04-11T14:09:11.37Z</time></trkpt><trkpt lat="42.8837005" lon="12.7331517"><ele>214.33333333333334</ele><time>2026-04-11T14:09:13.371Z</time></trkpt><trkpt lat="42.8836592" lon="12.733053"><ele>214.0</ele><time>2026-04-11T14:09:15.368Z</time></trkpt><trkpt lat="42.8836228" lon="12.7329589"><ele>213.66666666666669</ele><time>2026-04-11T14:09:16.379Z</time></trkpt><trkpt lat="42.8835882" lon="12.7328463"><ele>213.33333333333334</ele><time>2026-04-11T14:09:17.365Z</time></trkpt><trkpt lat="42.8835389" lon="12.7327044"><ele>213.0</ele><time>2026-04-11T14:09:18.377Z</time></trkpt><trkpt lat="42.8834883" lon="12.7325525"><ele>212.5</ele><time>2026-04-11T14:09:19.369Z</time></trkpt><trkpt lat="42.8834402" lon="12.7323972"><ele>212.0</ele><time>2026-04-11T14:09:20.373Z</time></trkpt><trkpt lat="42.8833927" lon="12.732246"><ele>211.5</ele><time>2026-04-11T14:09:21.365Z</time></trkpt><trkpt lat="42.8833472" lon="12.7321071"><ele>211.0</ele><time>2026-04-11T14:09:22.38Z</time></trkpt><trkpt lat="42.8833117" lon="12.7319746"><ele>210.60000000000002</ele><time>2026-04-11T14:09:23.369Z</time></trkpt><trkpt lat="42.8832732" lon="12.7318397"><ele>210.2</ele><time>2026-04-11T14:09:24.378Z</time></trkpt><trkpt lat="42.8832372" lon="12.7317135"><ele>209.8</ele><time>2026-04-11T14:09:25.371Z</time></trkpt><trkpt lat="42.8832025" lon="12.7315894"><ele>209.39999999999998</ele><time>2026-04-11T14:09:26.366Z</time></trkpt><trkpt lat="42.8831711" lon="12.7314763"><ele>209.0</ele><time>2026-04-11T14:09:27.375Z</time></trkpt><trkpt lat="42.8831408" lon="12.7313652"><ele>209.00000000000003</ele><time>2026-04-11T14:09:28.38Z</time></trkpt><trkpt lat="42.8831092" lon="12.7312552"><ele>209.0</ele><time>2026-04-11T14:09:29.367Z</time></trkpt><trkpt lat="42.883072" lon="12.7311434"><ele>209.0</ele><time>2026-04-11T14:09:30.381Z</time></trkpt><trkpt lat="42.8830353" lon="12.7310293"><ele>209.0</ele><time>2026-04-11T14:09:31.37Z</time></trkpt><trkpt lat="42.8830009" lon="12.730924"><ele>209.00000000000003</ele><time>2026-04-11T14:09:32.372Z</time></trkpt><trkpt lat="42.8829789" lon="12.7308322"><ele>209.0</ele><time>2026-04-11T14:09:33.36Z</time></trkpt><trkpt lat="42.8829463" lon="12.7307111"><ele>208.83333333333334</ele><time>2026-04-11T14:09:35.367Z</time></trkpt><trkpt lat="42.8829165" lon="12.7305837"><ele>208.66666666666669</ele><time>2026-04-11T14:09:38.385Z</time></trkpt><trkpt lat="42.882863" lon="12.7304848"><ele>208.5</ele><time>2026-04-11T14:09:40.399Z</time></trkpt><trkpt lat="42.8828507" lon="12.7303888"><ele>208.33333333333331</ele><time>2026-04-11T14:09:41.374Z</time></trkpt><trkpt lat="42.8828287" lon="12.7302705"><ele>208.16666666666666</ele><time>2026-04-11T14:09:42.369Z</time></trkpt><trkpt lat="42.8828031" lon="12.730143"><ele>208.0</ele><time>2026-04-11T14:09:43.365Z</time></trkpt><trkpt lat="42.8827704" lon="12.7300292"><ele>208.0</ele><time>2026-04-11T14:09:44.372Z</time></trkpt><trkpt lat="42.882737" lon="12.7299333"><ele>208.0</ele><time>2026-04-11T14:09:45.371Z</time></trkpt><trkpt lat="42.8827131" lon="12.729846"><ele>208.0</ele><time>2026-04-11T14:09:46.381Z</time></trkpt><trkpt lat="42.8826979" lon="12.729753"><ele>208.0</ele><time>2026-04-11T14:09:47.376Z</time></trkpt><trkpt lat="42.8826808" lon="12.7296623"><ele>208.0</ele><time>2026-04-11T14:09:48.369Z</time></trkpt><trkpt lat="42.8826632" lon="12.7295629"><ele>208.0</ele><time>2026-04-11T14:09:49.369Z</time></trkpt><trkpt lat="42.8826437" lon="12.7294533"><ele>208.0</ele><time>2026-04-11T14:09:50.375Z</time></trkpt><trkpt lat="42.882617" lon="12.7293371"><ele>208.28571428571428</ele><time>2026-04-11T14:09:51.369Z</time></trkpt><trkpt lat="42.8825822" lon="12.7292323"><ele>208.57142857142858</ele><time>2026-04-11T14:09:52.37Z</time></trkpt><trkpt lat="42.8825385" lon="12.7291419"><ele>208.85714285714286</ele><time>2026-04-11T14:09:53.369Z</time></trkpt><trkpt lat="42.8825003" lon="12.7290633"><ele>209.14285714285714</ele><time>2026-04-11T14:09:54.375Z</time></trkpt><trkpt lat="42.8824563" lon="12.7289904"><ele>209.42857142857144</ele><time>2026-04-11T14:09:55.372Z</time></trkpt><trkpt lat="42.8824101" lon="12.7289167"><ele>209.71428571428572</ele><time>2026-04-11T14:09:56.367Z</time></trkpt><trkpt lat="42.882371" lon="12.7288315"><ele>210.0</ele><time>2026-04-11T14:09:57.365Z</time></trkpt><trkpt lat="42.8823328" lon="12.7287437"><ele>210.0</ele><time>2026-04-11T14:09:58.38Z</time></trkpt><trkpt lat="42.8822961" lon="12.7286349"><ele>210.0</ele><time>2026-04-11T14:09:59.37Z</time></trkpt><trkpt lat="42.8822597" lon="12.7285192"><ele>210.0</ele><time>2026-04-11T14:10:00.361Z</time></trkpt><trkpt lat="42.8822243" lon="12.7284041"><ele>210.0</ele><time>2026-04-11T14:10:01.365Z</time></trkpt><trkpt lat="42.8821972" lon="12.7282868"><ele>210.0</ele><time>2026-04-11T14:10:02.37Z</time></trkpt><trkpt lat="42.8821674" lon="12.7281735"><ele>210.0</ele><time>2026-04-11T14:10:03.362Z</time></trkpt><trkpt lat="42.8821392" lon="12.7280593"><ele>210.0</ele><time>2026-04-11T14:10:04.384Z</time></trkpt><trkpt lat="42.882107" lon="12.727943"><ele>210.0</ele><time>2026-04-11T14:10:05.371Z</time></trkpt><trkpt lat="42.8820693" lon="12.7278211"><ele>210.0</ele><time>2026-04-11T14:10:06.378Z</time></trkpt><trkpt lat="42.8820266" lon="12.7276911"><ele>210.0</ele><time>2026-04-11T14:10:07.37Z</time></trkpt><trkpt lat="42.8819733" lon="12.7275554"><ele>210.0</ele><time>2026-04-11T14:10:08.38Z</time></trkpt><trkpt lat="42.8819222" lon="12.7274197"><ele>210.0</ele><time>2026-04-11T14:10:09.379Z</time></trkpt><trkpt lat="42.8818705" lon="12.7272886"><ele>210.0</ele><time>2026-04-11T14:10:10.368Z</time></trkpt><trkpt lat="42.8818195" lon="12.7271575"><ele>210.0</ele><time>2026-04-11T14:10:11.365Z</time></trkpt><trkpt lat="42.881778" lon="12.7270236"><ele>210.0</ele><time>2026-04-11T14:10:12.372Z</time></trkpt><trkpt lat="42.8817369" lon="12.7268868"><ele>209.6</ele><time>2026-04-11T14:10:13.365Z</time></trkpt><trkpt lat="42.8816914" lon="12.7267439"><ele>209.2</ele><time>2026-04-11T14:10:14.371Z</time></trkpt><trkpt lat="42.8816515" lon="12.7266048"><ele>208.8</ele><time>2026-04-11T14:10:15.367Z</time></trkpt><trkpt lat="42.8816108" lon="12.7264673"><ele>208.4</ele><time>2026-04-11T14:10:16.381Z</time></trkpt><trkpt lat="42.8815655" lon="12.7263253"><ele>208.0</ele><time>2026-04-11T14:10:17.362Z</time></trkpt><trkpt lat="42.8815255" lon="12.7261956"><ele>208.0</ele><time>2026-04-11T14:10:18.377Z</time></trkpt><trkpt lat="42.8814898" lon="12.7260903"><ele>208.0</ele><time>2026-04-11T14:10:19.367Z</time></trkpt><trkpt lat="42.8814588" lon="12.7259945"><ele>208.0</ele><time>2026-04-11T14:10:20.381Z</time></trkpt><trkpt lat="42.8814086" lon="12.7258507"><ele>208.0</ele><time>2026-04-11T14:10:22.373Z</time></trkpt><trkpt lat="42.8814051" lon="12.7257402"><ele>208.0</ele><time>2026-04-11T14:10:24.378Z</time></trkpt><trkpt lat="42.8814959" lon="12.725662"><ele>208.16666666666666</ele><time>2026-04-11T14:10:26.375Z</time></trkpt><trkpt lat="42.881558" lon="12.7256273"><ele>208.33333333333331</ele><time>2026-04-11T14:10:27.359Z</time></trkpt><trkpt lat="42.8816338" lon="12.7255942"><ele>208.5</ele><time>2026-04-11T14:10:28.367Z</time></trkpt><trkpt lat="42.8817187" lon="12.7255543"><ele>208.66666666666669</ele><time>2026-04-11T14:10:29.37Z</time></trkpt><trkpt lat="42.8818179" lon="12.7255242"><ele>208.83333333333334</ele><time>2026-04-11T14:10:30.367Z</time></trkpt><trkpt lat="42.8819267" lon="12.7254998"><ele>209.0</ele><time>2026-04-11T14:10:31.374Z</time></trkpt><trkpt lat="42.8820387" lon="12.7255004"><ele>209.0</ele><time>2026-04-11T14:10:32.377Z</time></trkpt><trkpt lat="42.8821555" lon="12.725518"><ele>209.0</ele><time>2026-04-11T14:10:33.37Z</time></trkpt><trkpt lat="42.8822806" lon="12.7255432"><ele>209.0</ele><time>2026-04-11T14:10:34.368Z</time></trkpt><trkpt lat="42.8824074" lon="12.725561"><ele>209.0</ele><time>2026-04-11T14:10:35.371Z</time></trkpt><trkpt lat="42.8825311" lon="12.7255708"><ele>209.0</ele><time>2026-04-11T14:10:36.37Z</time></trkpt><trkpt lat="42.8826492" lon="12.7255664"><ele>209.0</ele><time>2026-04-11T14:10:37.37Z</time></trkpt><trkpt lat="42.882773" lon="12.7255684"><ele>209.0</ele><time>2026-04-11T14:10:38.38Z</time></trkpt><trkpt lat="42.8829001" lon="12.7255755"><ele>209.0</ele><time>2026-04-11T14:10:39.362Z</time></trkpt><trkpt lat="42.8830224" lon="12.7255857"><ele>209.0</ele><time>2026-04-11T14:10:40.372Z</time></trkpt><trkpt lat="42.8831394" lon="12.7255899"><ele>209.0</ele><time>2026-04-11T14:10:41.38Z</time></trkpt><trkpt lat="42.8832447" lon="12.7256014"><ele>209.0</ele><time>2026-04-11T14:10:42.372Z</time></trkpt><trkpt lat="42.8833437" lon="12.725617"><ele>209.0</ele><time>2026-04-11T14:10:43.373Z</time></trkpt><trkpt lat="42.883434" lon="12.7256411"><ele>209.0</ele><time>2026-04-11T14:10:44.377Z</time></trkpt><trkpt lat="42.8835153" lon="12.7256642"><ele>209.00000000000003</ele><time>2026-04-11T14:10:45.364Z</time></trkpt><trkpt lat="42.883592" lon="12.7256858"><ele>209.0</ele><time>2026-04-11T14:10:46.39Z</time></trkpt><trkpt lat="42.8836653" lon="12.7257033"><ele>209.0</ele><time>2026-04-11T14:10:47.372Z</time></trkpt><trkpt lat="42.8837352" lon="12.7257146"><ele>209.0</ele><time>2026-04-11T14:10:48.374Z</time></trkpt><trkpt lat="42.8837986" lon="12.7257201"><ele>209.00000000000003</ele><time>2026-04-11T14:10:49.363Z</time></trkpt><trkpt lat="42.883906" lon="12.7257004"><ele>209.0</ele><time>2026-04-11T14:10:51.373Z</time></trkpt><trkpt lat="42.8839986" lon="12.7256819"><ele>209.0</ele><time>2026-04-11T14:10:53.371Z</time></trkpt><trkpt lat="42.884073" lon="12.725647"><ele>209.0</ele><time>2026-04-11T14:10:55.365Z</time></trkpt><trkpt lat="42.8841416" lon="12.7256021"><ele>209.0</ele><time>2026-04-11T14:10:57.372Z</time></trkpt><trkpt lat="42.8842026" lon="12.7255733"><ele>209.0</ele><time>2026-04-11T14:10:59.378Z</time></trkpt><trkpt lat="42.8842983" lon="12.7255618"><ele>209.0</ele><time>2026-04-11T14:11:01.373Z</time></trkpt><trkpt lat="42.884432" lon="12.7255245"><ele>208.66666666666669</ele><time>2026-04-11T14:11:03.381Z</time></trkpt><trkpt lat="42.8845131" lon="12.7254898"><ele>208.33333333333334</ele><time>2026-04-11T14:11:04.371Z</time></trkpt><trkpt lat="42.8845931" lon="12.7254567"><ele>208.0</ele><time>2026-04-11T14:11:05.367Z</time></trkpt><trkpt lat="42.8846681" lon="12.7254232"><ele>207.66666666666669</ele><time>2026-04-11T14:11:06.381Z</time></trkpt><trkpt lat="42.884741" lon="12.7253828"><ele>207.33333333333334</ele><time>2026-04-11T14:11:07.369Z</time></trkpt><trkpt lat="42.8848146" lon="12.7253321"><ele>207.0</ele><time>2026-04-11T14:11:08.368Z</time></trkpt><trkpt lat="42.884881" lon="12.7252716"><ele>207.16666666666666</ele><time>2026-04-11T14:11:09.373Z</time></trkpt><trkpt lat="42.8849393" lon="12.7252015"><ele>207.33333333333331</ele><time>2026-04-11T14:11:10.373Z</time></trkpt><trkpt lat="42.8850137" lon="12.7251425"><ele>207.5</ele><time>2026-04-11T14:11:11.369Z</time></trkpt><trkpt lat="42.8850908" lon="12.7250981"><ele>207.66666666666666</ele><time>2026-04-11T14:11:12.374Z</time></trkpt><trkpt lat="42.8851638" lon="12.7250488"><ele>207.83333333333331</ele><time>2026-04-11T14:11:13.363Z</time></trkpt><trkpt lat="42.8852444" lon="12.7249987"><ele>208.0</ele><time>2026-04-11T14:11:14.375Z</time></trkpt><trkpt lat="42.8853265" lon="12.7249474"><ele>208.16666666666666</ele><time>2026-04-11T14:11:15.371Z</time></trkpt><trkpt lat="42.8854084" lon="12.7249017"><ele>208.33333333333331</ele><time>2026-04-11T14:11:16.373Z</time></trkpt><trkpt lat="42.8854829" lon="12.7248616"><ele>208.5</ele><time>2026-04-11T14:11:17.371Z</time></trkpt><trkpt lat="42.8855463" lon="12.7248228"><ele>208.66666666666669</ele><time>2026-04-11T14:11:18.371Z</time></trkpt><trkpt lat="42.8856013" lon="12.7247757"><ele>208.83333333333334</ele><time>2026-04-11T14:11:19.367Z</time></trkpt><trkpt lat="42.8856955" lon="12.7246805"><ele>209.0</ele><time>2026-04-11T14:11:21.366Z</time></trkpt><trkpt lat="42.8857553" lon="12.7245629"><ele>209.0</ele><time>2026-04-11T14:11:23.361Z</time></trkpt><trkpt lat="42.8857447" lon="12.7244133"><ele>209.0</ele><time>2026-04-11T14:11:25.364Z</time></trkpt><trkpt lat="42.8856906" lon="12.7242873"><ele>209.0</ele><time>2026-04-11T14:11:27.362Z</time></trkpt><trkpt lat="42.8856422" lon="12.7241479"><ele>209.0</ele><time>2026-04-11T14:11:29.361Z</time></trkpt><trkpt lat="42.8856137" lon="12.7240666"><ele>209.0</ele><time>2026-04-11T14:11:30.376Z</time></trkpt><trkpt lat="42.8855802" lon="12.723979"><ele>209.00000000000003</ele><time>2026-04-11T14:11:31.366Z</time></trkpt><trkpt lat="42.8855449" lon="12.7238902"><ele>209.0</ele><time>2026-04-11T14:11:32.375Z</time></trkpt><trkpt lat="42.8855076" lon="12.7238039"><ele>209.0</ele><time>2026-04-11T14:11:33.373Z</time></trkpt><trkpt lat="42.8854729" lon="12.7237159"><ele>209.0</ele><time>2026-04-11T14:11:34.377Z</time></trkpt><trkpt lat="42.885434" lon="12.7236379"><ele>209.00000000000003</ele><time>2026-04-11T14:11:35.368Z</time></trkpt><trkpt lat="42.8853918" lon="12.7234802"><ele>209.0</ele><time>2026-04-11T14:11:37.365Z</time></trkpt><trkpt lat="42.8854652" lon="12.7233705"><ele>209.00000000000003</ele><time>2026-04-11T14:11:39.379Z</time></trkpt><trkpt lat="42.8855344" lon="12.7233455"><ele>209.0</ele><time>2026-04-11T14:11:40.373Z</time></trkpt><trkpt lat="42.8856092" lon="12.7233039"><ele>209.0</ele><time>2026-04-11T14:11:41.37Z</time></trkpt><trkpt lat="42.8856887" lon="12.7232512"><ele>209.0</ele><time>2026-04-11T14:11:42.371Z</time></trkpt><trkpt lat="42.8857741" lon="12.7231917"><ele>209.00000000000003</ele><time>2026-04-11T14:11:43.383Z</time></trkpt><trkpt lat="42.8858529" lon="12.7231421"><ele>209.0</ele><time>2026-04-11T14:11:44.374Z</time></trkpt><trkpt lat="42.8859247" lon="12.7230994"><ele>209.00000000000003</ele><time>2026-04-11T14:11:45.363Z</time></trkpt><trkpt lat="42.8859909" lon="12.7230607"><ele>209.0</ele><time>2026-04-11T14:11:46.38Z</time></trkpt><trkpt lat="42.8860511" lon="12.7230224"><ele>209.0</ele><time>2026-04-11T14:11:47.375Z</time></trkpt><trkpt lat="42.8861411" lon="12.7229719"><ele>209.0</ele><time>2026-04-11T14:11:49.368Z</time></trkpt><trkpt lat="42.886196" lon="12.7229142"><ele>209.00000000000003</ele><time>2026-04-11T14:11:52.374Z</time></trkpt><trkpt lat="42.8861683" lon="12.7228185"><ele>209.0</ele><time>2026-04-11T14:11:54.369Z</time></trkpt><trkpt lat="42.8860953" lon="12.7227115"><ele>208.79999999999998</ele><time>2026-04-11T14:11:56.384Z</time></trkpt><trkpt lat="42.886015" lon="12.722592"><ele>208.6</ele><time>2026-04-11T14:11:58.377Z</time></trkpt><trkpt lat="42.8859368" lon="12.7224819"><ele>208.4</ele><time>2026-04-11T14:12:00.371Z</time></trkpt><trkpt lat="42.8858805" lon="12.7224033"><ele>208.2</ele><time>2026-04-11T14:12:02.371Z</time></trkpt><trkpt lat="42.8858238" lon="12.7223243"><ele>208.0</ele><time>2026-04-11T14:12:05.381Z</time></trkpt><trkpt lat="42.8857826" lon="12.7222582"><ele>207.99999999999997</ele><time>2026-04-11T14:12:10.375Z</time></trkpt><trkpt lat="42.8857655" lon="12.7221598"><ele>208.0</ele><time>2026-04-11T14:14:34.38Z</time></trkpt><trkpt lat="42.8857316" lon="12.7220744"><ele>208.0</ele><time>2026-04-11T14:15:17.383Z</time></trkpt><trkpt lat="42.8856686" lon="12.7219781"><ele>208.0</ele><time>2026-04-11T14:15:19.379Z</time></trkpt><trkpt lat="42.8856111" lon="12.7218836"><ele>207.99999999999997</ele><time>2026-04-11T14:15:21.385Z</time></trkpt><trkpt lat="42.8855743" lon="12.7218031"><ele>208.0</ele><time>2026-04-11T14:15:22.38Z</time></trkpt><trkpt lat="42.8855246" lon="12.7216922"><ele>207.75</ele><time>2026-04-11T14:15:23.378Z</time></trkpt><trkpt lat="42.8854696" lon="12.7215651"><ele>207.5</ele><time>2026-04-11T14:15:24.381Z</time></trkpt><trkpt lat="42.8854107" lon="12.7214317"><ele>207.25</ele><time>2026-04-11T14:15:25.405Z</time></trkpt><trkpt lat="42.8853468" lon="12.7212885"><ele>207.0</ele><time>2026-04-11T14:15:26.377Z</time></trkpt><trkpt lat="42.8852747" lon="12.7211287"><ele>207.25</ele><time>2026-04-11T14:15:27.372Z</time></trkpt><trkpt lat="42.8852021" lon="12.720961"><ele>207.5</ele><time>2026-04-11T14:15:28.376Z</time></trkpt><trkpt lat="42.8851329" lon="12.7207982"><ele>207.75</ele><time>2026-04-11T14:15:29.37Z</time></trkpt><trkpt lat="42.8850669" lon="12.7206432"><ele>208.0</ele><time>2026-04-11T14:15:30.387Z</time></trkpt><trkpt lat="42.8850071" lon="12.7204915"><ele>208.5</ele><time>2026-04-11T14:15:31.382Z</time></trkpt><trkpt lat="42.8849595" lon="12.7203306"><ele>209.0</ele><time>2026-04-11T14:15:32.382Z</time></trkpt><trkpt lat="42.8849274" lon="12.720159"><ele>209.5</ele><time>2026-04-11T14:15:33.378Z</time></trkpt><trkpt lat="42.8849128" lon="12.7199837"><ele>210.0</ele><time>2026-04-11T14:15:34.368Z</time></trkpt><trkpt lat="42.8849089" lon="12.7198019"><ele>210.25</ele><time>2026-04-11T14:15:35.375Z</time></trkpt><trkpt lat="42.8849105" lon="12.7196073"><ele>210.5</ele><time>2026-04-11T14:15:36.377Z</time></trkpt><trkpt lat="42.8849126" lon="12.7194128"><ele>210.75</ele><time>2026-04-11T14:15:37.375Z</time></trkpt><trkpt lat="42.8849172" lon="12.719219"><ele>211.0</ele><time>2026-04-11T14:15:38.378Z</time></trkpt><trkpt lat="42.8849185" lon="12.7190351"><ele>211.0</ele><time>2026-04-11T14:15:39.397Z</time></trkpt><trkpt lat="42.8849215" lon="12.7188632"><ele>211.0</ele><time>2026-04-11T14:15:40.377Z</time></trkpt><trkpt lat="42.8849439" lon="12.7187111"><ele>211.0</ele><time>2026-04-11T14:15:41.382Z</time></trkpt><trkpt lat="42.8849729" lon="12.7185581"><ele>211.0</ele><time>2026-04-11T14:15:42.388Z</time></trkpt><trkpt lat="42.8850158" lon="12.7183944"><ele>211.0</ele><time>2026-04-11T14:15:43.38Z</time></trkpt><trkpt lat="42.8850528" lon="12.7182265"><ele>211.0</ele><time>2026-04-11T14:15:44.377Z</time></trkpt><trkpt lat="42.8850908" lon="12.7180467"><ele>211.0</ele><time>2026-04-11T14:15:45.374Z</time></trkpt><trkpt lat="42.8851267" lon="12.7178575"><ele>211.0</ele><time>2026-04-11T14:15:46.393Z</time></trkpt><trkpt lat="42.8851473" lon="12.7176575"><ele>211.0</ele><time>2026-04-11T14:15:47.388Z</time></trkpt><trkpt lat="42.885153" lon="12.7174552"><ele>211.0</ele><time>2026-04-11T14:15:48.395Z</time></trkpt><trkpt lat="42.8851317" lon="12.7172821"><ele>211.0</ele><time>2026-04-11T14:15:49.373Z</time></trkpt><trkpt lat="42.8851051" lon="12.7171223"><ele>211.0</ele><time>2026-04-11T14:15:50.379Z</time></trkpt><trkpt lat="42.8850762" lon="12.716968"><ele>211.49999999999997</ele><time>2026-04-11T14:15:51.374Z</time></trkpt><trkpt lat="42.8850467" lon="12.7168285"><ele>212.0</ele><time>2026-04-11T14:15:52.395Z</time></trkpt><trkpt lat="42.8850148" lon="12.7167236"><ele>212.5</ele><time>2026-04-11T14:15:53.378Z</time></trkpt><trkpt lat="42.8849921" lon="12.7166205"><ele>213.0</ele><time>2026-04-11T14:15:55.372Z</time></trkpt><trkpt lat="42.8849605" lon="12.7165304"><ele>213.49999999999997</ele><time>2026-04-11T14:15:57.375Z</time></trkpt><trkpt lat="42.8849284" lon="12.7164534"><ele>214.0</ele><time>2026-04-11T14:15:58.38Z</time></trkpt><trkpt lat="42.8848918" lon="12.7163792"><ele>214.0</ele><time>2026-04-11T14:15:59.378Z</time></trkpt><trkpt lat="42.8848257" lon="12.7162181"><ele>214.0</ele><time>2026-04-11T14:16:01.377Z</time></trkpt><trkpt lat="42.884777" lon="12.7161034"><ele>214.0</ele><time>2026-04-11T14:16:02.372Z</time></trkpt><trkpt lat="42.8847306" lon="12.7159783"><ele>214.0</ele><time>2026-04-11T14:16:03.404Z</time></trkpt><trkpt lat="42.8846788" lon="12.7158328"><ele>213.75</ele><time>2026-04-11T14:16:04.384Z</time></trkpt><trkpt lat="42.8846134" lon="12.7156718"><ele>213.5</ele><time>2026-04-11T14:16:05.382Z</time></trkpt><trkpt lat="42.8845363" lon="12.7155054"><ele>213.25</ele><time>2026-04-11T14:16:06.38Z</time></trkpt><trkpt lat="42.8844457" lon="12.7153397"><ele>213.0</ele><time>2026-04-11T14:16:07.375Z</time></trkpt><trkpt lat="42.8843471" lon="12.7151849"><ele>213.33333333333331</ele><time>2026-04-11T14:16:08.374Z</time></trkpt><trkpt lat="42.884246" lon="12.7150257"><ele>213.66666666666666</ele><time>2026-04-11T14:16:09.367Z</time></trkpt><trkpt lat="42.8841398" lon="12.7148584"><ele>214.0</ele><time>2026-04-11T14:16:10.378Z</time></trkpt><trkpt lat="42.8840293" lon="12.7146875"><ele>214.0</ele><time>2026-04-11T14:16:11.384Z</time></trkpt><trkpt lat="42.883921" lon="12.7145108"><ele>214.0</ele><time>2026-04-11T14:16:12.386Z</time></trkpt><trkpt lat="42.8838119" lon="12.7143275"><ele>214.0</ele><time>2026-04-11T14:16:13.37Z</time></trkpt><trkpt lat="42.8837014" lon="12.7141391"><ele>213.33333333333331</ele><time>2026-04-11T14:16:14.378Z</time></trkpt><trkpt lat="42.8835903" lon="12.7139493"><ele>212.66666666666669</ele><time>2026-04-11T14:16:15.375Z</time></trkpt><trkpt lat="42.8834836" lon="12.7137794"><ele>212.0</ele><time>2026-04-11T14:16:16.376Z</time></trkpt><trkpt lat="42.8833807" lon="12.7136225"><ele>212.25</ele><time>2026-04-11T14:16:17.385Z</time></trkpt><trkpt lat="42.8832859" lon="12.7134885"><ele>212.5</ele><time>2026-04-11T14:16:18.375Z</time></trkpt><trkpt lat="42.8831828" lon="12.7133674"><ele>212.75</ele><time>2026-04-11T14:16:19.369Z</time></trkpt><trkpt lat="42.8830647" lon="12.7133077"><ele>213.0</ele><time>2026-04-11T14:16:20.375Z</time></trkpt><trkpt lat="42.8829378" lon="12.713285"><ele>213.0</ele><time>2026-04-11T14:16:21.37Z</time></trkpt><trkpt lat="42.8828185" lon="12.7132742"><ele>213.0</ele><time>2026-04-11T14:16:22.383Z</time></trkpt><trkpt lat="42.8827002" lon="12.7132598"><ele>213.0</ele><time>2026-04-11T14:16:23.374Z</time></trkpt><trkpt lat="42.8825798" lon="12.7132119"><ele>213.0</ele><time>2026-04-11T14:16:24.381Z</time></trkpt><trkpt lat="42.8824681" lon="12.713113"><ele>213.0</ele><time>2026-04-11T14:16:25.375Z</time></trkpt><trkpt lat="42.8823761" lon="12.7129955"><ele>213.0</ele><time>2026-04-11T14:16:26.38Z</time></trkpt><trkpt lat="42.8822956" lon="12.7128765"><ele>213.0</ele><time>2026-04-11T14:16:27.381Z</time></trkpt><trkpt lat="42.8822192" lon="12.7127631"><ele>213.0</ele><time>2026-04-11T14:16:28.379Z</time></trkpt><trkpt lat="42.8821558" lon="12.7126367"><ele>213.0</ele><time>2026-04-11T14:16:29.372Z</time></trkpt><trkpt lat="42.8821055" lon="12.7124812"><ele>213.0</ele><time>2026-04-11T14:16:30.382Z</time></trkpt><trkpt lat="42.8820641" lon="12.7122912"><ele>213.0</ele><time>2026-04-11T14:16:31.381Z</time></trkpt><trkpt lat="42.882024" lon="12.7120884"><ele>213.0</ele><time>2026-04-11T14:16:32.372Z</time></trkpt><trkpt lat="42.8819787" lon="12.7118759"><ele>213.0</ele><time>2026-04-11T14:16:33.377Z</time></trkpt><trkpt lat="42.8819234" lon="12.7116613"><ele>213.0</ele><time>2026-04-11T14:16:34.383Z</time></trkpt><trkpt lat="42.8818717" lon="12.7114403"><ele>213.0</ele><time>2026-04-11T14:16:35.376Z</time></trkpt><trkpt lat="42.8818141" lon="12.7112393"><ele>212.0</ele><time>2026-04-11T14:16:36.38Z</time></trkpt><trkpt lat="42.8817467" lon="12.7110631"><ele>211.0</ele><time>2026-04-11T14:16:37.38Z</time></trkpt><trkpt lat="42.8816638" lon="12.710909"><ele>210.0</ele><time>2026-04-11T14:16:38.382Z</time></trkpt><trkpt lat="42.8815804" lon="12.7107706"><ele>209.0</ele><time>2026-04-11T14:16:39.377Z</time></trkpt><trkpt lat="42.8814961" lon="12.7106493"><ele>209.0</ele><time>2026-04-11T14:16:40.376Z</time></trkpt><trkpt lat="42.8814178" lon="12.7105425"><ele>209.0</ele><time>2026-04-11T14:16:41.384Z</time></trkpt><trkpt lat="42.8813436" lon="12.7104277"><ele>209.0</ele><time>2026-04-11T14:16:42.384Z</time></trkpt><trkpt lat="42.8812839" lon="12.7103021"><ele>209.0</ele><time>2026-04-11T14:16:43.383Z</time></trkpt><trkpt lat="42.8812508" lon="12.7101568"><ele>209.0</ele><time>2026-04-11T14:16:44.362Z</time></trkpt><trkpt lat="42.8812501" lon="12.7100148"><ele>209.2</ele><time>2026-04-11T14:16:45.378Z</time></trkpt><trkpt lat="42.8812911" lon="12.7098773"><ele>209.39999999999998</ele><time>2026-04-11T14:16:46.38Z</time></trkpt><trkpt lat="42.8813585" lon="12.7097535"><ele>209.6</ele><time>2026-04-11T14:16:47.384Z</time></trkpt><trkpt lat="42.8814364" lon="12.7096308"><ele>209.8</ele><time>2026-04-11T14:16:48.376Z</time></trkpt><trkpt lat="42.881512" lon="12.7095286"><ele>210.0</ele><time>2026-04-11T14:16:49.372Z</time></trkpt><trkpt lat="42.8815844" lon="12.7094255"><ele>210.4</ele><time>2026-04-11T14:16:50.381Z</time></trkpt><trkpt lat="42.881652" lon="12.7093166"><ele>210.8</ele><time>2026-04-11T14:16:51.382Z</time></trkpt><trkpt lat="42.8817072" lon="12.7091983"><ele>211.2</ele><time>2026-04-11T14:16:52.382Z</time></trkpt><trkpt lat="42.8817345" lon="12.7090671"><ele>211.6</ele><time>2026-04-11T14:16:53.371Z</time></trkpt><trkpt lat="42.881739" lon="12.7089188"><ele>212.0</ele><time>2026-04-11T14:16:54.377Z</time></trkpt><trkpt lat="42.8817266" lon="12.7087665"><ele>212.0</ele><time>2026-04-11T14:16:55.379Z</time></trkpt><trkpt lat="42.8817061" lon="12.7086037"><ele>212.0</ele><time>2026-04-11T14:16:56.384Z</time></trkpt><trkpt lat="42.8816885" lon="12.7084301"><ele>212.0</ele><time>2026-04-11T14:16:57.383Z</time></trkpt><trkpt lat="42.8816678" lon="12.7082535"><ele>212.0</ele><time>2026-04-11T14:16:58.374Z</time></trkpt><trkpt lat="42.8816489" lon="12.7080647"><ele>211.75</ele><time>2026-04-11T14:16:59.378Z</time></trkpt><trkpt lat="42.881628" lon="12.7078717"><ele>211.5</ele><time>2026-04-11T14:17:00.376Z</time></trkpt><trkpt lat="42.8816053" lon="12.7076757"><ele>211.25</ele><time>2026-04-11T14:17:01.372Z</time></trkpt><trkpt lat="42.8815867" lon="12.7074886"><ele>211.0</ele><time>2026-04-11T14:17:02.397Z</time></trkpt><trkpt lat="42.8815662" lon="12.7073161"><ele>211.0</ele><time>2026-04-11T14:17:03.385Z</time></trkpt><trkpt lat="42.8815493" lon="12.7071552"><ele>211.0</ele><time>2026-04-11T14:17:04.377Z</time></trkpt><trkpt lat="42.8815294" lon="12.7070025"><ele>211.0</ele><time>2026-04-11T14:17:05.369Z</time></trkpt><trkpt lat="42.8815071" lon="12.7068479"><ele>211.0</ele><time>2026-04-11T14:17:06.378Z</time></trkpt><trkpt lat="42.8814905" lon="12.7067097"><ele>210.83333333333331</ele><time>2026-04-11T14:17:07.378Z</time></trkpt><trkpt lat="42.8814759" lon="12.70658"><ele>210.66666666666666</ele><time>2026-04-11T14:17:08.381Z</time></trkpt><trkpt lat="42.8814619" lon="12.7064563"><ele>210.5</ele><time>2026-04-11T14:17:09.404Z</time></trkpt><trkpt lat="42.8814503" lon="12.7063308"><ele>210.33333333333331</ele><time>2026-04-11T14:17:10.371Z</time></trkpt><trkpt lat="42.881443" lon="12.7062207"><ele>210.16666666666666</ele><time>2026-04-11T14:17:11.389Z</time></trkpt><trkpt lat="42.8814388" lon="12.706117"><ele>210.0</ele><time>2026-04-11T14:17:12.386Z</time></trkpt><trkpt lat="42.8814535" lon="12.7060216"><ele>210.0</ele><time>2026-04-11T14:17:13.373Z</time></trkpt><trkpt lat="42.8815016" lon="12.7059547"><ele>210.0</ele><time>2026-04-11T14:17:14.379Z</time></trkpt><trkpt lat="42.8815699" lon="12.7059124"><ele>210.0</ele><time>2026-04-11T14:17:15.383Z</time></trkpt><trkpt lat="42.881648" lon="12.7058853"><ele>210.0</ele><time>2026-04-11T14:17:16.378Z</time></trkpt><trkpt lat="42.8817331" lon="12.7058416"><ele>210.0</ele><time>2026-04-11T14:17:17.383Z</time></trkpt><trkpt lat="42.8818226" lon="12.7057951"><ele>210.0</ele><time>2026-04-11T14:17:18.385Z</time></trkpt><trkpt lat="42.8819174" lon="12.7057416"><ele>212.0</ele><time>2026-04-11T14:17:19.366Z</time></trkpt></trkseg><trkseg><trkpt lat="42.884571" lon="12.7042626"><ele>212.0</ele><time>2026-04-11T14:18:06.363Z</time></trkpt><trkpt lat="42.8846318" lon="12.7044448"><ele>212.0</ele><time>2026-04-11T14:18:11.383Z</time></trkpt><trkpt lat="42.8847504" lon="12.7043863"><ele>212.0</ele><time>2026-04-11T14:18:48.377Z</time></trkpt><trkpt lat="42.8848254" lon="12.704349"><ele>212.0</ele><time>2026-04-11T14:18:49.383Z</time></trkpt><trkpt lat="42.8849068" lon="12.7043133"><ele>212.0</ele><time>2026-04-11T14:18:50.374Z</time></trkpt><trkpt lat="42.8849919" lon="12.7042842"><ele>212.00000000000003</ele><time>2026-04-11T14:18:51.376Z</time></trkpt><trkpt lat="42.885072" lon="12.7042554"><ele>212.0</ele><time>2026-04-11T14:18:52.374Z</time></trkpt><trkpt lat="42.8851411" lon="12.7042137"><ele>212.0</ele><time>2026-04-11T14:18:53.401Z</time></trkpt><trkpt lat="42.8852025" lon="12.7041458"><ele>212.0</ele><time>2026-04-11T14:18:54.394Z</time></trkpt><trkpt lat="42.8852405" lon="12.7040449"><ele>212.00000000000003</ele><time>2026-04-11T14:18:55.372Z</time></trkpt><trkpt lat="42.8852377" lon="12.7039329"><ele>212.0</ele><time>2026-04-11T14:18:56.387Z</time></trkpt><trkpt lat="42.8852099" lon="12.7038139"><ele>212.0</ele><time>2026-04-11T14:18:57.383Z</time></trkpt><trkpt lat="42.8851737" lon="12.7036834"><ele>212.0</ele><time>2026-04-11T14:18:58.388Z</time></trkpt><trkpt lat="42.8851398" lon="12.7035423"><ele>212.0</ele><time>2026-04-11T14:18:59.376Z</time></trkpt><trkpt lat="42.8851126" lon="12.7033835"><ele>212.0</ele><time>2026-04-11T14:19:00.387Z</time></trkpt><trkpt lat="42.8850928" lon="12.703218"><ele>212.5</ele><time>2026-04-11T14:19:01.376Z</time></trkpt><trkpt lat="42.8850668" lon="12.7030462"><ele>213.0</ele><time>2026-04-11T14:19:02.378Z</time></trkpt><trkpt lat="42.8850461" lon="12.702894"><ele>213.5</ele><time>2026-04-11T14:19:03.397Z</time></trkpt><trkpt lat="42.8850203" lon="12.7027377"><ele>214.0</ele><time>2026-04-11T14:19:04.375Z</time></trkpt><trkpt lat="42.8850036" lon="12.7025794"><ele>214.0</ele><time>2026-04-11T14:19:05.372Z</time></trkpt><trkpt lat="42.8849974" lon="12.7024204"><ele>214.0</ele><time>2026-04-11T14:19:06.387Z</time></trkpt><trkpt lat="42.8850035" lon="12.7022588"><ele>214.0</ele><time>2026-04-11T14:19:07.373Z</time></trkpt><trkpt lat="42.8850091" lon="12.7021052"><ele>214.0</ele><time>2026-04-11T14:19:08.389Z</time></trkpt><trkpt lat="42.8850114" lon="12.7019658"><ele>213.79999999999998</ele><time>2026-04-11T14:19:09.383Z</time></trkpt><trkpt lat="42.8849988" lon="12.7018412"><ele>213.59999999999997</ele><time>2026-04-11T14:19:10.377Z</time></trkpt><trkpt lat="42.8849667" lon="12.7017253"><ele>213.4</ele><time>2026-04-11T14:19:11.393Z</time></trkpt><trkpt lat="42.8849003" lon="12.7016176"><ele>213.2</ele><time>2026-04-11T14:19:12.384Z</time></trkpt><trkpt lat="42.8848081" lon="12.7015244"><ele>213.0</ele><time>2026-04-11T14:19:13.379Z</time></trkpt><trkpt lat="42.8846982" lon="12.7014404"><ele>213.0</ele><time>2026-04-11T14:19:14.377Z</time></trkpt><trkpt lat="42.8845918" lon="12.7013778"><ele>213.0</ele><time>2026-04-11T14:19:15.382Z</time></trkpt><trkpt lat="42.8844848" lon="12.7013379"><ele>213.0</ele><time>2026-04-11T14:19:16.391Z</time></trkpt><trkpt lat="42.8843761" lon="12.7013254"><ele>213.0</ele><time>2026-04-11T14:19:17.386Z</time></trkpt><trkpt lat="42.8842716" lon="12.7013104"><ele>213.0</ele><time>2026-04-11T14:19:18.383Z</time></trkpt><trkpt lat="42.8841793" lon="12.7012992"><ele>213.16666666666666</ele><time>2026-04-11T14:19:19.393Z</time></trkpt><trkpt lat="42.8840929" lon="12.7012884"><ele>213.33333333333331</ele><time>2026-04-11T14:19:20.37Z</time></trkpt><trkpt lat="42.8840143" lon="12.7012814"><ele>213.5</ele><time>2026-04-11T14:19:21.378Z</time></trkpt><trkpt lat="42.8839491" lon="12.7012771"><ele>213.66666666666666</ele><time>2026-04-11T14:19:22.392Z</time></trkpt><trkpt lat="42.8838654" lon="12.7012679"><ele>213.83333333333331</ele><time>2026-04-11T14:19:24.387Z</time></trkpt><trkpt lat="42.8837923" lon="12.7012561"><ele>214.0</ele><time>2026-04-11T14:19:37.382Z</time></trkpt><trkpt lat="42.8837014" lon="12.7012487"><ele>213.99999999999997</ele><time>2026-04-11T14:19:39.396Z</time></trkpt><trkpt lat="42.8836329" lon="12.7012453"><ele>214.0</ele><time>2026-04-11T14:19:40.366Z</time></trkpt><trkpt lat="42.8835578" lon="12.7012448"><ele>214.0</ele><time>2026-04-11T14:19:41.398Z</time></trkpt><trkpt lat="42.8834718" lon="12.7012339"><ele>214.0</ele><time>2026-04-11T14:19:42.38Z</time></trkpt><trkpt lat="42.8833737" lon="12.7012285"><ele>213.99999999999997</ele><time>2026-04-11T14:19:43.371Z</time></trkpt><trkpt lat="42.8832718" lon="12.7012199"><ele>214.0</ele><time>2026-04-11T14:19:44.371Z</time></trkpt><trkpt lat="42.8831575" lon="12.7012114"><ele>214.25</ele><time>2026-04-11T14:19:45.389Z</time></trkpt><trkpt lat="42.8830318" lon="12.7011973"><ele>214.5</ele><time>2026-04-11T14:19:46.386Z</time></trkpt><trkpt lat="42.8829038" lon="12.7011824"><ele>214.75</ele><time>2026-04-11T14:19:47.38Z</time></trkpt><trkpt lat="42.882787" lon="12.7011685"><ele>215.0</ele><time>2026-04-11T14:19:48.383Z</time></trkpt><trkpt lat="42.8826771" lon="12.7011517"><ele>214.75</ele><time>2026-04-11T14:19:49.38Z</time></trkpt><trkpt lat="42.8825666" lon="12.7011437"><ele>214.5</ele><time>2026-04-11T14:19:50.385Z</time></trkpt><trkpt lat="42.8824466" lon="12.70113"><ele>214.25</ele><time>2026-04-11T14:19:51.375Z</time></trkpt><trkpt lat="42.8823185" lon="12.7011125"><ele>214.0</ele><time>2026-04-11T14:19:52.387Z</time></trkpt><trkpt lat="42.8821927" lon="12.7010896"><ele>214.25</ele><time>2026-04-11T14:19:53.381Z</time></trkpt><trkpt lat="42.8820657" lon="12.7010623"><ele>214.5</ele><time>2026-04-11T14:19:54.376Z</time></trkpt><trkpt lat="42.881936" lon="12.7010364"><ele>214.75</ele><time>2026-04-11T14:19:55.396Z</time></trkpt><trkpt lat="42.881801" lon="12.701015"><ele>215.0</ele><time>2026-04-11T14:19:56.379Z</time></trkpt><trkpt lat="42.8816624" lon="12.7009971"><ele>215.0</ele><time>2026-04-11T14:19:57.389Z</time></trkpt><trkpt lat="42.8815164" lon="12.7009766"><ele>215.0</ele><time>2026-04-11T14:19:58.379Z</time></trkpt><trkpt lat="42.8813681" lon="12.7009542"><ele>215.0</ele><time>2026-04-11T14:19:59.382Z</time></trkpt><trkpt lat="42.881219" lon="12.7009209"><ele>215.0</ele><time>2026-04-11T14:20:00.38Z</time></trkpt><trkpt lat="42.8810672" lon="12.7008955"><ele>215.66666666666669</ele><time>2026-04-11T14:20:01.373Z</time></trkpt><trkpt lat="42.8809147" lon="12.7008745"><ele>216.33333333333331</ele><time>2026-04-11T14:20:02.371Z</time></trkpt><trkpt lat="42.8807679" lon="12.7008478"><ele>217.0</ele><time>2026-04-11T14:20:03.384Z</time></trkpt><trkpt lat="42.8806194" lon="12.70082"><ele>217.0</ele><time>2026-04-11T14:20:04.379Z</time></trkpt><trkpt lat="42.880469" lon="12.7007943"><ele>217.0</ele><time>2026-04-11T14:20:05.386Z</time></trkpt><trkpt lat="42.8803156" lon="12.7007756"><ele>217.0</ele><time>2026-04-11T14:20:06.378Z</time></trkpt><trkpt lat="42.880162" lon="12.7007552"><ele>217.0</ele><time>2026-04-11T14:20:07.373Z</time></trkpt><trkpt lat="42.8800058" lon="12.7007359"><ele>217.0</ele><time>2026-04-11T14:20:08.376Z</time></trkpt><trkpt lat="42.8798494" lon="12.7007085"><ele>217.0</ele><time>2026-04-11T14:20:09.378Z</time></trkpt><trkpt lat="42.8796851" lon="12.7006862"><ele>217.0</ele><time>2026-04-11T14:20:10.364Z</time></trkpt><trkpt lat="42.8795195" lon="12.7006652"><ele>217.0</ele><time>2026-04-11T14:20:11.384Z</time></trkpt><trkpt lat="42.8793505" lon="12.7006484"><ele>217.0</ele><time>2026-04-11T14:20:12.393Z</time></trkpt><trkpt lat="42.8791843" lon="12.7006245"><ele>216.0</ele><time>2026-04-11T14:20:13.371Z</time></trkpt><trkpt lat="42.8790164" lon="12.7005986"><ele>215.0</ele><time>2026-04-11T14:20:14.375Z</time></trkpt><trkpt lat="42.8788403" lon="12.7005635"><ele>214.0</ele><time>2026-04-11T14:20:15.383Z</time></trkpt><trkpt lat="42.8786641" lon="12.7005356"><ele>214.0</ele><time>2026-04-11T14:20:16.383Z</time></trkpt><trkpt lat="42.8784949" lon="12.700516"><ele>214.0</ele><time>2026-04-11T14:20:17.381Z</time></trkpt><trkpt lat="42.8783309" lon="12.7004983"><ele>214.0</ele><time>2026-04-11T14:20:18.38Z</time></trkpt><trkpt lat="42.8781638" lon="12.7004767"><ele>214.0</ele><time>2026-04-11T14:20:19.394Z</time></trkpt><trkpt lat="42.8779928" lon="12.7004477"><ele>214.0</ele><time>2026-04-11T14:20:20.374Z</time></trkpt><trkpt lat="42.87782" lon="12.7004179"><ele>214.0</ele><time>2026-04-11T14:20:21.382Z</time></trkpt><trkpt lat="42.8776414" lon="12.7003907"><ele>214.33333333333331</ele><time>2026-04-11T14:20:22.376Z</time></trkpt><trkpt lat="42.8774595" lon="12.700359"><ele>214.66666666666669</ele><time>2026-04-11T14:20:23.376Z</time></trkpt><trkpt lat="42.8772726" lon="12.7003329"><ele>215.0</ele><time>2026-04-11T14:20:24.373Z</time></trkpt><trkpt lat="42.8770875" lon="12.7003068"><ele>215.0</ele><time>2026-04-11T14:20:25.379Z</time></trkpt><trkpt lat="42.8768988" lon="12.700279"><ele>215.0</ele><time>2026-04-11T14:20:26.37Z</time></trkpt><trkpt lat="42.8767064" lon="12.7002488"><ele>215.0</ele><time>2026-04-11T14:20:27.374Z</time></trkpt><trkpt lat="42.8765048" lon="12.7002219"><ele>215.0</ele><time>2026-04-11T14:20:28.377Z</time></trkpt><trkpt lat="42.8762998" lon="12.7001889"><ele>215.0</ele><time>2026-04-11T14:20:29.38Z</time></trkpt><trkpt lat="42.8760928" lon="12.7001506"><ele>215.0</ele><time>2026-04-11T14:20:30.368Z</time></trkpt><trkpt lat="42.8758847" lon="12.7001116"><ele>215.33333333333334</ele><time>2026-04-11T14:20:31.39Z</time></trkpt><trkpt lat="42.8756754" lon="12.7000815"><ele>215.66666666666669</ele><time>2026-04-11T14:20:32.371Z</time></trkpt><trkpt lat="42.8754698" lon="12.7000543"><ele>216.0</ele><time>2026-04-11T14:20:33.376Z</time></trkpt><trkpt lat="42.8752689" lon="12.7000283"><ele>216.0</ele><time>2026-04-11T14:20:34.375Z</time></trkpt><trkpt lat="42.8750733" lon="12.6999996"><ele>216.0</ele><time>2026-04-11T14:20:35.373Z</time></trkpt><trkpt lat="42.8748767" lon="12.6999693"><ele>216.0</ele><time>2026-04-11T14:20:36.381Z</time></trkpt><trkpt lat="42.8746832" lon="12.6999375"><ele>216.0</ele><time>2026-04-11T14:20:37.376Z</time></trkpt><trkpt lat="42.8745019" lon="12.6999079"><ele>216.0</ele><time>2026-04-11T14:20:38.386Z</time></trkpt><trkpt lat="42.8743345" lon="12.699887"><ele>216.0</ele><time>2026-04-11T14:20:39.379Z</time></trkpt><trkpt lat="42.8741791" lon="12.6998719"><ele>216.0</ele><time>2026-04-11T14:20:40.385Z</time></trkpt><trkpt lat="42.8740323" lon="12.699849"><ele>216.0</ele><time>2026-04-11T14:20:41.38Z</time></trkpt><trkpt lat="42.873893" lon="12.6998287"><ele>216.0</ele><time>2026-04-11T14:20:42.376Z</time></trkpt><trkpt lat="42.8737607" lon="12.6998127"><ele>216.0</ele><time>2026-04-11T14:20:43.381Z</time></trkpt><trkpt lat="42.8736309" lon="12.6997936"><ele>216.0</ele><time>2026-04-11T14:20:44.371Z</time></trkpt><trkpt lat="42.8735003" lon="12.6997736"><ele>216.0</ele><time>2026-04-11T14:20:45.396Z</time></trkpt><trkpt lat="42.873367" lon="12.6997489"><ele>216.0</ele><time>2026-04-11T14:20:46.379Z</time></trkpt><trkpt lat="42.8732254" lon="12.6997201"><ele>216.0</ele><time>2026-04-11T14:20:47.378Z</time></trkpt><trkpt lat="42.8730755" lon="12.6996978"><ele>216.0</ele><time>2026-04-11T14:20:48.371Z</time></trkpt><trkpt lat="42.8729157" lon="12.6996724"><ele>216.0</ele><time>2026-04-11T14:20:49.374Z</time></trkpt><trkpt lat="42.872751" lon="12.6996473"><ele>216.0</ele><time>2026-04-11T14:20:50.372Z</time></trkpt><trkpt lat="42.8725793" lon="12.6996228"><ele>216.33333333333331</ele><time>2026-04-11T14:20:51.378Z</time></trkpt><trkpt lat="42.8724094" lon="12.6995937"><ele>216.66666666666666</ele><time>2026-04-11T14:20:52.375Z</time></trkpt><trkpt lat="42.872249" lon="12.6995772"><ele>217.0</ele><time>2026-04-11T14:20:53.38Z</time></trkpt><trkpt lat="42.8721053" lon="12.6995521"><ele>217.0</ele><time>2026-04-11T14:20:54.374Z</time></trkpt><trkpt lat="42.8719671" lon="12.6995318"><ele>217.0</ele><time>2026-04-11T14:20:55.381Z</time></trkpt><trkpt lat="42.8718434" lon="12.6995128"><ele>217.0</ele><time>2026-04-11T14:20:56.369Z</time></trkpt><trkpt lat="42.8717318" lon="12.6994919"><ele>217.0</ele><time>2026-04-11T14:20:57.407Z</time></trkpt><trkpt lat="42.8716354" lon="12.6994703"><ele>216.99999999999997</ele><time>2026-04-11T14:20:58.387Z</time></trkpt><trkpt lat="42.8715542" lon="12.6994603"><ele>217.0</ele><time>2026-04-11T14:20:59.38Z</time></trkpt><trkpt lat="42.871491" lon="12.6994583"><ele>217.0</ele><time>2026-04-11T14:21:00.385Z</time></trkpt><trkpt lat="42.8714115" lon="12.6994533"><ele>217.0</ele><time>2026-04-11T14:21:02.373Z</time></trkpt><trkpt lat="42.8713262" lon="12.6994334"><ele>216.99999999999997</ele><time>2026-04-11T14:21:05.377Z</time></trkpt><trkpt lat="42.8712516" lon="12.6994085"><ele>217.0</ele><time>2026-04-11T14:21:07.384Z</time></trkpt><trkpt lat="42.8711574" lon="12.6993577"><ele>217.0</ele><time>2026-04-11T14:21:09.381Z</time></trkpt><trkpt lat="42.8710632" lon="12.6993134"><ele>217.0</ele><time>2026-04-11T14:21:11.389Z</time></trkpt><trkpt lat="42.8709491" lon="12.699256"><ele>217.0</ele><time>2026-04-11T14:21:13.382Z</time></trkpt><trkpt lat="42.8708783" lon="12.6992232"><ele>217.0</ele><time>2026-04-11T14:21:14.373Z</time></trkpt><trkpt lat="42.8707975" lon="12.6991908"><ele>217.0</ele><time>2026-04-11T14:21:15.376Z</time></trkpt><trkpt lat="42.8707117" lon="12.6991583"><ele>217.39999999999998</ele><time>2026-04-11T14:21:16.378Z</time></trkpt><trkpt lat="42.8706247" lon="12.6991125"><ele>217.79999999999998</ele><time>2026-04-11T14:21:17.375Z</time></trkpt><trkpt lat="42.8705341" lon="12.6990679"><ele>218.2</ele><time>2026-04-11T14:21:18.383Z</time></trkpt><trkpt lat="42.8704426" lon="12.6990325"><ele>218.6</ele><time>2026-04-11T14:21:19.385Z</time></trkpt><trkpt lat="42.8703534" lon="12.6989956"><ele>219.0</ele><time>2026-04-11T14:21:20.37Z</time></trkpt><trkpt lat="42.8702721" lon="12.6989593"><ele>219.0</ele><time>2026-04-11T14:21:21.391Z</time></trkpt><trkpt lat="42.87019" lon="12.6989238"><ele>219.0</ele><time>2026-04-11T14:21:22.386Z</time></trkpt><trkpt lat="42.8701074" lon="12.6988835"><ele>219.0</ele><time>2026-04-11T14:21:23.4Z</time></trkpt><trkpt lat="42.8700253" lon="12.6988461"><ele>219.0</ele><time>2026-04-11T14:21:24.375Z</time></trkpt><trkpt lat="42.8699463" lon="12.6988064"><ele>219.0</ele><time>2026-04-11T14:21:25.382Z</time></trkpt><trkpt lat="42.8698726" lon="12.6987723"><ele>219.0</ele><time>2026-04-11T14:21:26.379Z</time></trkpt><trkpt lat="42.869797" lon="12.6987349"><ele>218.83333333333334</ele><time>2026-04-11T14:21:27.378Z</time></trkpt><trkpt lat="42.8697174" lon="12.6987006"><ele>218.66666666666669</ele><time>2026-04-11T14:21:28.393Z</time></trkpt><trkpt lat="42.8696375" lon="12.6986649"><ele>218.5</ele><time>2026-04-11T14:21:29.383Z</time></trkpt><trkpt lat="42.8695555" lon="12.6986203"><ele>218.33333333333334</ele><time>2026-04-11T14:21:30.381Z</time></trkpt><trkpt lat="42.8694688" lon="12.6985763"><ele>218.16666666666669</ele><time>2026-04-11T14:21:31.375Z</time></trkpt><trkpt lat="42.869381" lon="12.6985401"><ele>218.0</ele><time>2026-04-11T14:21:32.38Z</time></trkpt><trkpt lat="42.86929" lon="12.6985038"><ele>218.0</ele><time>2026-04-11T14:21:33.378Z</time></trkpt><trkpt lat="42.8691957" lon="12.6984638"><ele>218.0</ele><time>2026-04-11T14:21:34.385Z</time></trkpt><trkpt lat="42.8690955" lon="12.6984229"><ele>218.0</ele><time>2026-04-11T14:21:35.38Z</time></trkpt><trkpt lat="42.8689941" lon="12.6983764"><ele>218.0</ele><time>2026-04-11T14:21:36.379Z</time></trkpt><trkpt lat="42.8688888" lon="12.6983338"><ele>218.0</ele><time>2026-04-11T14:21:37.38Z</time></trkpt><trkpt lat="42.8687803" lon="12.6982889"><ele>218.0</ele><time>2026-04-11T14:21:38.377Z</time></trkpt><trkpt lat="42.8686707" lon="12.6982442"><ele>218.0</ele><time>2026-04-11T14:21:39.378Z</time></trkpt><trkpt lat="42.8685573" lon="12.6981959"><ele>218.0</ele><time>2026-04-11T14:21:40.372Z</time></trkpt><trkpt lat="42.8684441" lon="12.698145"><ele>218.0</ele><time>2026-04-11T14:21:41.381Z</time></trkpt><trkpt lat="42.8683278" lon="12.6980876"><ele>218.0</ele><time>2026-04-11T14:21:42.375Z</time></trkpt><trkpt lat="42.8682116" lon="12.6980332"><ele>218.0</ele><time>2026-04-11T14:21:43.38Z</time></trkpt><trkpt lat="42.8680959" lon="12.6979775"><ele>218.0</ele><time>2026-04-11T14:21:44.368Z</time></trkpt><trkpt lat="42.8679805" lon="12.6979187"><ele>218.0</ele><time>2026-04-11T14:21:45.381Z</time></trkpt><trkpt lat="42.8678657" lon="12.6978641"><ele>218.0</ele><time>2026-04-11T14:21:46.394Z</time></trkpt><trkpt lat="42.8677473" lon="12.6978098"><ele>218.0</ele><time>2026-04-11T14:21:47.395Z</time></trkpt><trkpt lat="42.8676349" lon="12.6977551"><ele>218.0</ele><time>2026-04-11T14:21:48.372Z</time></trkpt><trkpt lat="42.8675235" lon="12.6977053"><ele>218.0</ele><time>2026-04-11T14:21:49.383Z</time></trkpt><trkpt lat="42.8674139" lon="12.6976578"><ele>218.0</ele><time>2026-04-11T14:21:50.373Z</time></trkpt><trkpt lat="42.8673112" lon="12.6976102"><ele>218.0</ele><time>2026-04-11T14:21:51.381Z</time></trkpt><trkpt lat="42.8672107" lon="12.6975687"><ele>218.0</ele><time>2026-04-11T14:21:52.38Z</time></trkpt><trkpt lat="42.8671084" lon="12.6975244"><ele>218.0</ele><time>2026-04-11T14:21:53.378Z</time></trkpt><trkpt lat="42.8670071" lon="12.697475"><ele>218.0</ele><time>2026-04-11T14:21:54.369Z</time></trkpt><trkpt lat="42.8669121" lon="12.6974266"><ele>218.0</ele><time>2026-04-11T14:21:55.381Z</time></trkpt><trkpt lat="42.8668147" lon="12.6973829"><ele>218.0</ele><time>2026-04-11T14:21:56.38Z</time></trkpt><trkpt lat="42.866716" lon="12.6973421"><ele>218.0</ele><time>2026-04-11T14:21:57.381Z</time></trkpt><trkpt lat="42.8666217" lon="12.6972966"><ele>218.0</ele><time>2026-04-11T14:21:58.385Z</time></trkpt><trkpt lat="42.8665223" lon="12.6972483"><ele>218.0</ele><time>2026-04-11T14:21:59.384Z</time></trkpt><trkpt lat="42.8664232" lon="12.6972004"><ele>218.4</ele><time>2026-04-11T14:22:00.374Z</time></trkpt><trkpt lat="42.8663293" lon="12.6971603"><ele>218.8</ele><time>2026-04-11T14:22:01.377Z</time></trkpt><trkpt lat="42.8662463" lon="12.6971223"><ele>219.2</ele><time>2026-04-11T14:22:02.372Z</time></trkpt><trkpt lat="42.8661608" lon="12.6970877"><ele>219.6</ele><time>2026-04-11T14:22:03.392Z</time></trkpt><trkpt lat="42.8660723" lon="12.6970508"><ele>220.0</ele><time>2026-04-11T14:22:04.372Z</time></trkpt><trkpt lat="42.8659818" lon="12.697012"><ele>219.8</ele><time>2026-04-11T14:22:05.375Z</time></trkpt><trkpt lat="42.8658889" lon="12.6969706"><ele>219.6</ele><time>2026-04-11T14:22:06.374Z</time></trkpt><trkpt lat="42.8658007" lon="12.6969173"><ele>219.39999999999998</ele><time>2026-04-11T14:22:07.381Z</time></trkpt><trkpt lat="42.8657093" lon="12.6968592"><ele>219.2</ele><time>2026-04-11T14:22:08.374Z</time></trkpt><trkpt lat="42.8656183" lon="12.6968039"><ele>219.0</ele><time>2026-04-11T14:22:09.379Z</time></trkpt><trkpt lat="42.8655283" lon="12.6967457"><ele>219.0</ele><time>2026-04-11T14:22:10.393Z</time></trkpt><trkpt lat="42.8654469" lon="12.6966885"><ele>218.99999999999997</ele><time>2026-04-11T14:22:11.385Z</time></trkpt><trkpt lat="42.8653616" lon="12.6966358"><ele>218.99999999999997</ele><time>2026-04-11T14:22:12.379Z</time></trkpt><trkpt lat="42.8652778" lon="12.6965868"><ele>219.0</ele><time>2026-04-11T14:22:13.382Z</time></trkpt><trkpt lat="42.865193" lon="12.6965333"><ele>219.0</ele><time>2026-04-11T14:22:14.382Z</time></trkpt><trkpt lat="42.8651096" lon="12.6964799"><ele>219.2</ele><time>2026-04-11T14:22:15.381Z</time></trkpt><trkpt lat="42.8650314" lon="12.6964283"><ele>219.39999999999998</ele><time>2026-04-11T14:22:16.376Z</time></trkpt><trkpt lat="42.8649496" lon="12.6963719"><ele>219.6</ele><time>2026-04-11T14:22:17.383Z</time></trkpt><trkpt lat="42.8648645" lon="12.6963156"><ele>219.8</ele><time>2026-04-11T14:22:18.375Z</time></trkpt><trkpt lat="42.8647797" lon="12.6962594"><ele>220.0</ele><time>2026-04-11T14:22:19.378Z</time></trkpt><trkpt lat="42.864691" lon="12.6962027"><ele>220.0</ele><time>2026-04-11T14:22:20.376Z</time></trkpt><trkpt lat="42.8646064" lon="12.6961474"><ele>220.0</ele><time>2026-04-11T14:22:21.379Z</time></trkpt><trkpt lat="42.864523" lon="12.69609"><ele>220.0</ele><time>2026-04-11T14:22:22.38Z</time></trkpt><trkpt lat="42.864437" lon="12.6960331"><ele>220.0</ele><time>2026-04-11T14:22:23.379Z</time></trkpt><trkpt lat="42.8643484" lon="12.6959752"><ele>220.0</ele><time>2026-04-11T14:22:24.377Z</time></trkpt><trkpt lat="42.8642598" lon="12.6959117"><ele>219.6</ele><time>2026-04-11T14:22:25.381Z</time></trkpt><trkpt lat="42.8641742" lon="12.6958577"><ele>219.2</ele><time>2026-04-11T14:22:26.38Z</time></trkpt><trkpt lat="42.86409" lon="12.6957993"><ele>218.8</ele><time>2026-04-11T14:22:27.39Z</time></trkpt><trkpt lat="42.8640041" lon="12.6957444"><ele>218.4</ele><time>2026-04-11T14:22:28.384Z</time></trkpt><trkpt lat="42.8639183" lon="12.6956879"><ele>218.0</ele><time>2026-04-11T14:22:29.386Z</time></trkpt><trkpt lat="42.8638342" lon="12.6956357"><ele>218.0</ele><time>2026-04-11T14:22:30.374Z</time></trkpt><trkpt lat="42.8637492" lon="12.6955822"><ele>218.0</ele><time>2026-04-11T14:22:31.381Z</time></trkpt><trkpt lat="42.8636582" lon="12.6955291"><ele>218.0</ele><time>2026-04-11T14:22:32.373Z</time></trkpt><trkpt lat="42.8635649" lon="12.6954743"><ele>218.0</ele><time>2026-04-11T14:22:33.372Z</time></trkpt><trkpt lat="42.8634709" lon="12.6954188"><ele>218.0</ele><time>2026-04-11T14:22:34.375Z</time></trkpt><trkpt lat="42.8633802" lon="12.6953592"><ele>218.2</ele><time>2026-04-11T14:22:35.384Z</time></trkpt><trkpt lat="42.8632875" lon="12.6952999"><ele>218.4</ele><time>2026-04-11T14:22:36.369Z</time></trkpt><trkpt lat="42.8631999" lon="12.695239"><ele>218.59999999999997</ele><time>2026-04-11T14:22:37.377Z</time></trkpt><trkpt lat="42.8631117" lon="12.6951812"><ele>218.79999999999998</ele><time>2026-04-11T14:22:38.379Z</time></trkpt><trkpt lat="42.8630233" lon="12.6951225"><ele>219.0</ele><time>2026-04-11T14:22:39.379Z</time></trkpt><trkpt lat="42.8629336" lon="12.6950662"><ele>219.2</ele><time>2026-04-11T14:22:40.376Z</time></trkpt><trkpt lat="42.8628385" lon="12.6950129"><ele>219.39999999999998</ele><time>2026-04-11T14:22:41.388Z</time></trkpt><trkpt lat="42.8627462" lon="12.6949566"><ele>219.6</ele><time>2026-04-11T14:22:42.378Z</time></trkpt><trkpt lat="42.8626501" lon="12.6949052"><ele>219.8</ele><time>2026-04-11T14:22:43.376Z</time></trkpt><trkpt lat="42.8625571" lon="12.6948475"><ele>220.0</ele><time>2026-04-11T14:22:44.375Z</time></trkpt><trkpt lat="42.8624632" lon="12.6947841"><ele>220.2</ele><time>2026-04-11T14:22:45.385Z</time></trkpt><trkpt lat="42.8623675" lon="12.6947168"><ele>220.4</ele><time>2026-04-11T14:22:46.388Z</time></trkpt><trkpt lat="42.8622714" lon="12.6946479"><ele>220.60000000000002</ele><time>2026-04-11T14:22:47.389Z</time></trkpt><trkpt lat="42.8621759" lon="12.694576"><ele>220.8</ele><time>2026-04-11T14:22:48.371Z</time></trkpt><trkpt lat="42.8620853" lon="12.694498"><ele>221.0</ele><time>2026-04-11T14:22:49.382Z</time></trkpt><trkpt lat="42.8619893" lon="12.6944251"><ele>221.0</ele><time>2026-04-11T14:22:50.38Z</time></trkpt><trkpt lat="42.8618943" lon="12.6943525"><ele>221.0</ele><time>2026-04-11T14:22:51.378Z</time></trkpt><trkpt lat="42.8617981" lon="12.6942751"><ele>221.0</ele><time>2026-04-11T14:22:52.381Z</time></trkpt><trkpt lat="42.8616993" lon="12.6941955"><ele>221.0</ele><time>2026-04-11T14:22:53.378Z</time></trkpt><trkpt lat="42.8615979" lon="12.6941211"><ele>220.8</ele><time>2026-04-11T14:22:54.393Z</time></trkpt><trkpt lat="42.8614977" lon="12.694041"><ele>220.60000000000002</ele><time>2026-04-11T14:22:55.376Z</time></trkpt><trkpt lat="42.8613937" lon="12.6939635"><ele>220.4</ele><time>2026-04-11T14:22:56.381Z</time></trkpt><trkpt lat="42.8612978" lon="12.6938915"><ele>220.2</ele><time>2026-04-11T14:22:57.372Z</time></trkpt><trkpt lat="42.8612085" lon="12.6938196"><ele>220.0</ele><time>2026-04-11T14:22:58.372Z</time></trkpt><trkpt lat="42.8611241" lon="12.6937522"><ele>219.99999999999997</ele><time>2026-04-11T14:22:59.379Z</time></trkpt><trkpt lat="42.8610407" lon="12.6936863"><ele>220.0</ele><time>2026-04-11T14:23:00.369Z</time></trkpt><trkpt lat="42.8609669" lon="12.6936302"><ele>220.0</ele><time>2026-04-11T14:23:01.379Z</time></trkpt><trkpt lat="42.8609083" lon="12.6935855"><ele>220.0</ele><time>2026-04-11T14:23:02.374Z</time></trkpt><trkpt lat="42.8608656" lon="12.6934848"><ele>219.99999999999997</ele><time>2026-04-11T14:23:04.368Z</time></trkpt><trkpt lat="42.8609057" lon="12.693417"><ele>220.0</ele><time>2026-04-11T14:23:06.381Z</time></trkpt><trkpt lat="42.860953" lon="12.6933308"><ele>219.83333333333331</ele><time>2026-04-11T14:23:10.388Z</time></trkpt><trkpt lat="42.8609887" lon="12.6932357"><ele>219.66666666666666</ele><time>2026-04-11T14:23:12.373Z</time></trkpt><trkpt lat="42.8610471" lon="12.6931031"><ele>219.5</ele><time>2026-04-11T14:23:14.376Z</time></trkpt><trkpt lat="42.8610986" lon="12.6929803"><ele>219.33333333333331</ele><time>2026-04-11T14:23:16.391Z</time></trkpt><trkpt lat="42.8611368" lon="12.6928983"><ele>219.16666666666666</ele><time>2026-04-11T14:23:18.38Z</time></trkpt><trkpt lat="42.8611726" lon="12.692824"><ele>219.0</ele><time>2026-04-11T14:23:21.386Z</time></trkpt><trkpt lat="42.8611938" lon="12.692742"><ele>219.0</ele><time>2026-04-11T14:23:28.384Z</time></trkpt><trkpt lat="42.8611567" lon="12.6926521"><ele>219.0</ele><time>2026-04-11T14:23:37.381Z</time></trkpt><trkpt lat="42.8610657" lon="12.6925992"><ele>219.0</ele><time>2026-04-11T14:23:39.376Z</time></trkpt><trkpt lat="42.8609524" lon="12.6925395"><ele>219.0</ele><time>2026-04-11T14:23:41.399Z</time></trkpt><trkpt lat="42.8608851" lon="12.6925097"><ele>219.0</ele><time>2026-04-11T14:23:42.387Z</time></trkpt><trkpt lat="42.8608169" lon="12.6924758"><ele>219.0</ele><time>2026-04-11T14:23:43.356Z</time></trkpt><trkpt lat="42.8607456" lon="12.6924431"><ele>219.0</ele><time>2026-04-11T14:23:44.38Z</time></trkpt><trkpt lat="42.8606797" lon="12.6924099"><ele>219.0</ele><time>2026-04-11T14:23:45.362Z</time></trkpt><trkpt lat="42.860618" lon="12.6923763"><ele>219.0</ele><time>2026-04-11T14:23:46.366Z</time></trkpt><trkpt lat="42.8605526" lon="12.6923367"><ele>219.0</ele><time>2026-04-11T14:23:47.384Z</time></trkpt><trkpt lat="42.860489" lon="12.6922941"><ele>219.0</ele><time>2026-04-11T14:23:48.375Z</time></trkpt><trkpt lat="42.8604224" lon="12.6922509"><ele>219.0</ele><time>2026-04-11T14:23:49.372Z</time></trkpt><trkpt lat="42.8603523" lon="12.6922124"><ele>219.0</ele><time>2026-04-11T14:23:50.407Z</time></trkpt><trkpt lat="42.8602831" lon="12.6921637"><ele>219.0</ele><time>2026-04-11T14:23:51.382Z</time></trkpt><trkpt lat="42.8602222" lon="12.692111"><ele>219.0</ele><time>2026-04-11T14:23:52.373Z</time></trkpt><trkpt lat="42.8601711" lon="12.6920578"><ele>219.0</ele><time>2026-04-11T14:23:53.38Z</time></trkpt><trkpt lat="42.8600744" lon="12.6919898"><ele>219.0</ele><time>2026-04-11T14:23:55.377Z</time></trkpt><trkpt lat="42.8599933" lon="12.6919228"><ele>219.0</ele><time>2026-04-11T14:23:57.385Z</time></trkpt><trkpt lat="42.8599238" lon="12.691873"><ele>219.0</ele><time>2026-04-11T14:23:59.38Z</time></trkpt><trkpt lat="42.859859" lon="12.6918192"><ele>219.33333333333334</ele><time>2026-04-11T14:24:01.377Z</time></trkpt><trkpt lat="42.8598019" lon="12.6917675"><ele>219.66666666666669</ele><time>2026-04-11T14:24:03.37Z</time></trkpt><trkpt lat="42.8597468" lon="12.6917199"><ele>220.0</ele><time>2026-04-11T14:24:05.382Z</time></trkpt><trkpt lat="42.8596788" lon="12.6916523"><ele>220.33333333333334</ele><time>2026-04-11T14:24:07.386Z</time></trkpt><trkpt lat="42.8596054" lon="12.6915829"><ele>220.66666666666669</ele><time>2026-04-11T14:24:09.377Z</time></trkpt><trkpt lat="42.8595424" lon="12.691531"><ele>221.0</ele><time>2026-04-11T14:24:11.375Z</time></trkpt><trkpt lat="42.8594682" lon="12.6914732"><ele>221.00000000000003</ele><time>2026-04-11T14:24:14.377Z</time></trkpt><trkpt lat="42.8593943" lon="12.6914024"><ele>221.0</ele><time>2026-04-11T14:24:18.379Z</time></trkpt><trkpt lat="42.8593308" lon="12.6913471"><ele>221.0</ele><time>2026-04-11T14:24:20.386Z</time></trkpt><trkpt lat="42.8592564" lon="12.6912789"><ele>221.0</ele><time>2026-04-11T14:24:23.386Z</time></trkpt><trkpt lat="42.8591976" lon="12.6912264"><ele>221.00000000000003</ele><time>2026-04-11T14:24:25.397Z</time></trkpt><trkpt lat="42.859138" lon="12.6911785"><ele>221.0</ele><time>2026-04-11T14:24:27.378Z</time></trkpt><trkpt lat="42.859082" lon="12.6911277"><ele>221.14285714285717</ele><time>2026-04-11T14:24:29.383Z</time></trkpt><trkpt lat="42.8590164" lon="12.6910529"><ele>221.28571428571428</ele><time>2026-04-11T14:24:33.371Z</time></trkpt><trkpt lat="42.8589452" lon="12.6909854"><ele>221.42857142857144</ele><time>2026-04-11T14:24:36.378Z</time></trkpt><trkpt lat="42.8588964" lon="12.6909305"><ele>221.57142857142858</ele><time>2026-04-11T14:24:38.37Z</time></trkpt><trkpt lat="42.8588445" lon="12.6908734"><ele>221.71428571428572</ele><time>2026-04-11T14:24:40.377Z</time></trkpt><trkpt lat="42.8587871" lon="12.6908173"><ele>221.85714285714286</ele><time>2026-04-11T14:24:42.368Z</time></trkpt><trkpt lat="42.8587284" lon="12.6907573"><ele>222.0</ele><time>2026-04-11T14:24:44.392Z</time></trkpt><trkpt lat="42.8586671" lon="12.6906889"><ele>222.0</ele><time>2026-04-11T14:24:46.373Z</time></trkpt><trkpt lat="42.8586079" lon="12.6906268"><ele>222.0</ele><time>2026-04-11T14:24:48.39Z</time></trkpt><trkpt lat="42.8585387" lon="12.6905334"><ele>222.0</ele><time>2026-04-11T14:24:51.376Z</time></trkpt><trkpt lat="42.8584837" lon="12.6904623"><ele>222.0</ele><time>2026-04-11T14:24:53.383Z</time></trkpt><trkpt lat="42.8584176" lon="12.690393"><ele>222.0</ele><time>2026-04-11T14:24:55.377Z</time></trkpt><trkpt lat="42.8583677" lon="12.6903272"><ele>222.0</ele><time>2026-04-11T14:24:57.38Z</time></trkpt><trkpt lat="42.8583226" lon="12.6902609"><ele>222.0</ele><time>2026-04-11T14:24:59.374Z</time></trkpt><trkpt lat="42.8582709" lon="12.6901913"><ele>222.0</ele><time>2026-04-11T14:25:01.369Z</time></trkpt><trkpt lat="42.8582083" lon="12.6901094"><ele>222.0</ele><time>2026-04-11T14:25:03.372Z</time></trkpt><trkpt lat="42.858138" lon="12.6900133"><ele>222.0</ele><time>2026-04-11T14:25:05.375Z</time></trkpt><trkpt lat="42.8580743" lon="12.6899152"><ele>222.0</ele><time>2026-04-11T14:25:07.382Z</time></trkpt><trkpt lat="42.8580205" lon="12.6898484"><ele>222.0</ele><time>2026-04-11T14:25:09.393Z</time></trkpt><trkpt lat="42.8579573" lon="12.6897577"><ele>222.0</ele><time>2026-04-11T14:25:12.374Z</time></trkpt><trkpt lat="42.857907" lon="12.6896962"><ele>222.0</ele><time>2026-04-11T14:25:14.374Z</time></trkpt><trkpt lat="42.857862" lon="12.6896352"><ele>222.0</ele><time>2026-04-11T14:25:16.376Z</time></trkpt><trkpt lat="42.8578137" lon="12.6895657"><ele>222.0</ele><time>2026-04-11T14:25:18.385Z</time></trkpt><trkpt lat="42.8577606" lon="12.6894946"><ele>222.0</ele><time>2026-04-11T14:25:20.374Z</time></trkpt><trkpt lat="42.8577091" lon="12.6894339"><ele>222.0</ele><time>2026-04-11T14:25:22.372Z</time></trkpt><trkpt lat="42.8576562" lon="12.6893622"><ele>222.0</ele><time>2026-04-11T14:25:24.367Z</time></trkpt><trkpt lat="42.8576053" lon="12.6892907"><ele>222.0</ele><time>2026-04-11T14:25:26.379Z</time></trkpt><trkpt lat="42.8575493" lon="12.6892195"><ele>222.0</ele><time>2026-04-11T14:25:28.384Z</time></trkpt><trkpt lat="42.8574897" lon="12.6891436"><ele>222.0</ele><time>2026-04-11T14:25:30.378Z</time></trkpt><trkpt lat="42.8574198" lon="12.6890471"><ele>222.0</ele><time>2026-04-11T14:25:32.365Z</time></trkpt><trkpt lat="42.8573583" lon="12.6889567"><ele>222.0</ele><time>2026-04-11T14:25:34.373Z</time></trkpt><trkpt lat="42.8572977" lon="12.6888797"><ele>222.0</ele><time>2026-04-11T14:25:36.371Z</time></trkpt><trkpt lat="42.8572502" lon="12.6888156"><ele>222.0</ele><time>2026-04-11T14:25:39.376Z</time></trkpt><trkpt lat="42.8571835" lon="12.688728"><ele>222.0</ele><time>2026-04-11T14:25:52.369Z</time></trkpt><trkpt lat="42.8571194" lon="12.6886418"><ele>222.0</ele><time>2026-04-11T14:25:54.381Z</time></trkpt><trkpt lat="42.8570545" lon="12.6885653"><ele>222.0</ele><time>2026-04-11T14:25:56.378Z</time></trkpt><trkpt lat="42.8569735" lon="12.6884651"><ele>222.0</ele><time>2026-04-11T14:25:58.381Z</time></trkpt><trkpt lat="42.8568882" lon="12.6883487"><ele>222.0</ele><time>2026-04-11T14:26:00.377Z</time></trkpt><trkpt lat="42.8568026" lon="12.6882379"><ele>222.0</ele><time>2026-04-11T14:26:02.367Z</time></trkpt><trkpt lat="42.8567283" lon="12.6881418"><ele>222.0</ele><time>2026-04-11T14:26:04.369Z</time></trkpt><trkpt lat="42.8566589" lon="12.6880416"><ele>222.0</ele><time>2026-04-11T14:26:06.371Z</time></trkpt><trkpt lat="42.8565912" lon="12.6879444"><ele>222.0</ele><time>2026-04-11T14:26:08.373Z</time></trkpt><trkpt lat="42.8565297" lon="12.6878578"><ele>222.0</ele><time>2026-04-11T14:26:10.37Z</time></trkpt><trkpt lat="42.8564757" lon="12.6877822"><ele>222.0</ele><time>2026-04-11T14:26:12.371Z</time></trkpt><trkpt lat="42.8564096" lon="12.687708"><ele>222.0</ele><time>2026-04-11T14:26:14.366Z</time></trkpt><trkpt lat="42.8563431" lon="12.6876182"><ele>222.0</ele><time>2026-04-11T14:26:16.372Z</time></trkpt><trkpt lat="42.8562833" lon="12.6875277"><ele>222.0</ele><time>2026-04-11T14:26:18.368Z</time></trkpt><trkpt lat="42.8562159" lon="12.6874376"><ele>222.0</ele><time>2026-04-11T14:26:20.389Z</time></trkpt><trkpt lat="42.8561473" lon="12.6873386"><ele>222.0</ele><time>2026-04-11T14:26:22.389Z</time></trkpt><trkpt lat="42.8560735" lon="12.6872459"><ele>222.0</ele><time>2026-04-11T14:26:24.373Z</time></trkpt><trkpt lat="42.8560098" lon="12.6871553"><ele>222.0</ele><time>2026-04-11T14:26:26.38Z</time></trkpt><trkpt lat="42.8559422" lon="12.6870603"><ele>222.0</ele><time>2026-04-11T14:26:28.374Z</time></trkpt><trkpt lat="42.8558696" lon="12.6869675"><ele>222.0</ele><time>2026-04-11T14:26:30.374Z</time></trkpt><trkpt lat="42.8558025" lon="12.6868781"><ele>222.16666666666666</ele><time>2026-04-11T14:26:32.371Z</time></trkpt><trkpt lat="42.8557338" lon="12.6867812"><ele>222.33333333333331</ele><time>2026-04-11T14:26:34.37Z</time></trkpt><trkpt lat="42.8556645" lon="12.6866916"><ele>222.5</ele><time>2026-04-11T14:26:36.381Z</time></trkpt><trkpt lat="42.8556122" lon="12.6866174"><ele>222.66666666666666</ele><time>2026-04-11T14:26:38.381Z</time></trkpt><trkpt lat="42.8555624" lon="12.6865505"><ele>222.83333333333331</ele><time>2026-04-11T14:26:40.383Z</time></trkpt><trkpt lat="42.8555095" lon="12.6864824"><ele>223.0</ele><time>2026-04-11T14:26:42.374Z</time></trkpt><trkpt lat="42.8554539" lon="12.6864182"><ele>222.99999999999997</ele><time>2026-04-11T14:26:44.373Z</time></trkpt><trkpt lat="42.8554046" lon="12.6863404"><ele>223.0</ele><time>2026-04-11T14:26:46.376Z</time></trkpt><trkpt lat="42.8553536" lon="12.6862772"><ele>223.0</ele><time>2026-04-11T14:26:48.374Z</time></trkpt><trkpt lat="42.8552856" lon="12.6861933"><ele>223.0</ele><time>2026-04-11T14:26:51.386Z</time></trkpt><trkpt lat="42.8552975" lon="12.686093"><ele>222.99999999999997</ele><time>2026-04-11T14:26:53.376Z</time></trkpt><trkpt lat="42.8553382" lon="12.6859706"><ele>223.0</ele><time>2026-04-11T14:26:55.38Z</time></trkpt><trkpt lat="42.8553676" lon="12.6858578"><ele>223.0</ele><time>2026-04-11T14:26:57.377Z</time></trkpt><trkpt lat="42.8553976" lon="12.6857645"><ele>223.0</ele><time>2026-04-11T14:26:59.374Z</time></trkpt><trkpt lat="42.8554223" lon="12.6856844"><ele>223.0</ele><time>2026-04-11T14:27:01.374Z</time></trkpt><trkpt lat="42.8554541" lon="12.6856006"><ele>223.0</ele><time>2026-04-11T14:27:04.392Z</time></trkpt><trkpt lat="42.8554541" lon="12.6856006"><ele>223.0</ele><time>2026-04-11T14:27:04.392Z</time></trkpt><trkpt lat="42.8554704" lon="12.6855248"><ele>223.0</ele><time>2026-04-11T14:31:11.376Z</time></trkpt><trkpt lat="42.855485" lon="12.6854395"><ele>223.0</ele><time>2026-04-11T14:31:12.366Z</time></trkpt><trkpt lat="42.8555041" lon="12.6853344"><ele>223.0</ele><time>2026-04-11T14:31:13.385Z</time></trkpt><trkpt lat="42.855526" lon="12.6852108"><ele>223.0</ele><time>2026-04-11T14:31:14.381Z</time></trkpt><trkpt lat="42.8555597" lon="12.6850807"><ele>223.0</ele><time>2026-04-11T14:31:15.379Z</time></trkpt><trkpt lat="42.8555984" lon="12.6849387"><ele>223.0</ele><time>2026-04-11T14:31:16.379Z</time></trkpt><trkpt lat="42.8556345" lon="12.6847909"><ele>223.0</ele><time>2026-04-11T14:31:17.393Z</time></trkpt><trkpt lat="42.8556778" lon="12.6846358"><ele>223.0</ele><time>2026-04-11T14:31:18.373Z</time></trkpt><trkpt lat="42.8557116" lon="12.6844809"><ele>223.2</ele><time>2026-04-11T14:31:19.376Z</time></trkpt><trkpt lat="42.8557407" lon="12.6843443"><ele>223.4</ele><time>2026-04-11T14:31:20.38Z</time></trkpt><trkpt lat="42.8557723" lon="12.6842092"><ele>223.59999999999997</ele><time>2026-04-11T14:31:21.369Z</time></trkpt><trkpt lat="42.8558013" lon="12.6840719"><ele>223.79999999999998</ele><time>2026-04-11T14:31:22.373Z</time></trkpt><trkpt lat="42.8558391" lon="12.6839399"><ele>224.0</ele><time>2026-04-11T14:31:23.38Z</time></trkpt><trkpt lat="42.8558808" lon="12.6838087"><ele>224.0</ele><time>2026-04-11T14:31:24.379Z</time></trkpt><trkpt lat="42.8559015" lon="12.683666"><ele>224.0</ele><time>2026-04-11T14:31:25.369Z</time></trkpt><trkpt lat="42.855924" lon="12.6835103"><ele>224.0</ele><time>2026-04-11T14:31:26.369Z</time></trkpt><trkpt lat="42.8559542" lon="12.6833505"><ele>224.0</ele><time>2026-04-11T14:31:27.372Z</time></trkpt><trkpt lat="42.8559852" lon="12.6831782"><ele>224.5</ele><time>2026-04-11T14:31:28.37Z</time></trkpt><trkpt lat="42.856012" lon="12.6830027"><ele>225.0</ele><time>2026-04-11T14:31:29.38Z</time></trkpt><trkpt lat="42.8560432" lon="12.682816"><ele>225.5</ele><time>2026-04-11T14:31:30.376Z</time></trkpt><trkpt lat="42.8560725" lon="12.6826202"><ele>226.0</ele><time>2026-04-11T14:31:31.375Z</time></trkpt><trkpt lat="42.8561002" lon="12.6824202"><ele>227.5</ele><time>2026-04-11T14:31:32.368Z</time></trkpt><trkpt lat="42.8561322" lon="12.6822145"><ele>229.0</ele><time>2026-04-11T14:31:33.377Z</time></trkpt><trkpt lat="42.8561671" lon="12.682014"><ele>230.5</ele><time>2026-04-11T14:31:34.385Z</time></trkpt><trkpt lat="42.8561969" lon="12.6818235"><ele>232.0</ele><time>2026-04-11T14:31:35.394Z</time></trkpt><trkpt lat="42.8562262" lon="12.6816458"><ele>232.2</ele><time>2026-04-11T14:31:36.369Z</time></trkpt><trkpt lat="42.8562479" lon="12.6814896"><ele>232.39999999999998</ele><time>2026-04-11T14:31:37.367Z</time></trkpt><trkpt lat="42.856272" lon="12.6813488"><ele>232.60000000000002</ele><time>2026-04-11T14:31:38.371Z</time></trkpt><trkpt lat="42.8562975" lon="12.6812304"><ele>232.8</ele><time>2026-04-11T14:31:39.384Z</time></trkpt><trkpt lat="42.8563127" lon="12.681124"><ele>233.0</ele><time>2026-04-11T14:31:40.366Z</time></trkpt><trkpt lat="42.8563231" lon="12.681024"><ele>232.50000000000003</ele><time>2026-04-11T14:31:41.372Z</time></trkpt><trkpt lat="42.8563178" lon="12.680866"><ele>232.0</ele><time>2026-04-11T14:31:43.374Z</time></trkpt><trkpt lat="42.8562332" lon="12.6807739"><ele>231.5</ele><time>2026-04-11T14:31:45.378Z</time></trkpt><trkpt lat="42.8561739" lon="12.6807286"><ele>231.0</ele><time>2026-04-11T14:31:46.369Z</time></trkpt><trkpt lat="42.8561125" lon="12.6806816"><ele>230.50000000000003</ele><time>2026-04-11T14:31:47.392Z</time></trkpt><trkpt lat="42.8560354" lon="12.6806334"><ele>230.0</ele><time>2026-04-11T14:31:48.392Z</time></trkpt><trkpt lat="42.8559396" lon="12.6805899"><ele>230.0</ele><time>2026-04-11T14:31:49.378Z</time></trkpt><trkpt lat="42.855827" lon="12.6805475"><ele>230.0</ele><time>2026-04-11T14:31:50.376Z</time></trkpt><trkpt lat="42.8557073" lon="12.6805188"><ele>230.0</ele><time>2026-04-11T14:31:51.377Z</time></trkpt><trkpt lat="42.8555925" lon="12.6804961"><ele>230.0</ele><time>2026-04-11T14:31:52.366Z</time></trkpt><trkpt lat="42.8554837" lon="12.6804714"><ele>230.0</ele><time>2026-04-11T14:31:53.372Z</time></trkpt><trkpt lat="42.8553808" lon="12.680432"><ele>230.0</ele><time>2026-04-11T14:31:54.376Z</time></trkpt><trkpt lat="42.8552877" lon="12.6803648"><ele>230.0</ele><time>2026-04-11T14:31:55.379Z</time></trkpt><trkpt lat="42.8551947" lon="12.6802831"><ele>230.0</ele><time>2026-04-11T14:31:56.375Z</time></trkpt><trkpt lat="42.8551007" lon="12.6801864"><ele>230.0</ele><time>2026-04-11T14:31:57.38Z</time></trkpt><trkpt lat="42.8550063" lon="12.68008"><ele>230.6</ele><time>2026-04-11T14:31:58.379Z</time></trkpt><trkpt lat="42.8549165" lon="12.6799785"><ele>231.2</ele><time>2026-04-11T14:31:59.389Z</time></trkpt><trkpt lat="42.854839" lon="12.6798826"><ele>231.8</ele><time>2026-04-11T14:32:00.391Z</time></trkpt><trkpt lat="42.8547712" lon="12.6797725"><ele>232.4</ele><time>2026-04-11T14:32:01.382Z</time></trkpt><trkpt lat="42.8547008" lon="12.679661"><ele>233.0</ele><time>2026-04-11T14:32:02.366Z</time></trkpt><trkpt lat="42.8546174" lon="12.6795545"><ele>233.0</ele><time>2026-04-11T14:32:03.375Z</time></trkpt><trkpt lat="42.8545236" lon="12.6794439"><ele>233.0</ele><time>2026-04-11T14:32:04.368Z</time></trkpt><trkpt lat="42.8544302" lon="12.6793297"><ele>233.0</ele><time>2026-04-11T14:32:05.379Z</time></trkpt><trkpt lat="42.854332" lon="12.679209"><ele>233.0</ele><time>2026-04-11T14:32:06.376Z</time></trkpt><trkpt lat="42.8542326" lon="12.6790813"><ele>233.25</ele><time>2026-04-11T14:32:07.38Z</time></trkpt><trkpt lat="42.8541305" lon="12.6789493"><ele>233.5</ele><time>2026-04-11T14:32:08.375Z</time></trkpt><trkpt lat="42.8540339" lon="12.67882"><ele>233.75</ele><time>2026-04-11T14:32:09.374Z</time></trkpt><trkpt lat="42.8539398" lon="12.6786895"><ele>234.0</ele><time>2026-04-11T14:32:10.376Z</time></trkpt><trkpt lat="42.853843" lon="12.678556"><ele>234.0</ele><time>2026-04-11T14:32:11.376Z</time></trkpt><trkpt lat="42.8537427" lon="12.6784165"><ele>234.0</ele><time>2026-04-11T14:32:12.384Z</time></trkpt><trkpt lat="42.8536317" lon="12.6782764"><ele>234.0</ele><time>2026-04-11T14:32:13.376Z</time></trkpt><trkpt lat="42.8535099" lon="12.6781428"><ele>234.33333333333331</ele><time>2026-04-11T14:32:14.386Z</time></trkpt><trkpt lat="42.8533749" lon="12.678029"><ele>234.66666666666666</ele><time>2026-04-11T14:32:15.386Z</time></trkpt><trkpt lat="42.8532387" lon="12.6779167"><ele>235.0</ele><time>2026-04-11T14:32:16.383Z</time></trkpt><trkpt lat="42.8530968" lon="12.6778057"><ele>234.66666666666666</ele><time>2026-04-11T14:32:17.387Z</time></trkpt><trkpt lat="42.8529541" lon="12.6776975"><ele>234.33333333333331</ele><time>2026-04-11T14:32:18.375Z</time></trkpt><trkpt lat="42.8528193" lon="12.677594"><ele>234.0</ele><time>2026-04-11T14:32:19.377Z</time></trkpt><trkpt lat="42.852702" lon="12.6774959"><ele>234.75</ele><time>2026-04-11T14:32:20.373Z</time></trkpt><trkpt lat="42.8525903" lon="12.6773993"><ele>235.5</ele><time>2026-04-11T14:32:21.379Z</time></trkpt><trkpt lat="42.8524844" lon="12.6773024"><ele>236.25</ele><time>2026-04-11T14:32:22.382Z</time></trkpt><trkpt lat="42.8523875" lon="12.6772224"><ele>237.0</ele><time>2026-04-11T14:32:23.375Z</time></trkpt><trkpt lat="42.8522842" lon="12.6771691"><ele>237.0</ele><time>2026-04-11T14:32:24.383Z</time></trkpt><trkpt lat="42.852183" lon="12.6771532"><ele>237.0</ele><time>2026-04-11T14:32:25.384Z</time></trkpt><trkpt lat="42.8520878" lon="12.6771865"><ele>237.0</ele><time>2026-04-11T14:32:26.383Z</time></trkpt><trkpt lat="42.8519847" lon="12.6772799"><ele>237.0</ele><time>2026-04-11T14:32:27.374Z</time></trkpt><trkpt lat="42.8518868" lon="12.6773831"><ele>237.0</ele><time>2026-04-11T14:32:28.373Z</time></trkpt><trkpt lat="42.8517885" lon="12.6775022"><ele>237.25</ele><time>2026-04-11T14:32:29.386Z</time></trkpt><trkpt lat="42.8516791" lon="12.6776359"><ele>237.5</ele><time>2026-04-11T14:32:30.388Z</time></trkpt><trkpt lat="42.8515679" lon="12.677765"><ele>237.75</ele><time>2026-04-11T14:32:31.374Z</time></trkpt><trkpt lat="42.8514599" lon="12.6778895"><ele>238.0</ele><time>2026-04-11T14:32:32.388Z</time></trkpt><trkpt lat="42.8513468" lon="12.6779957"><ele>237.33333333333331</ele><time>2026-04-11T14:32:33.389Z</time></trkpt><trkpt lat="42.851221" lon="12.6780909"><ele>236.66666666666669</ele><time>2026-04-11T14:32:34.378Z</time></trkpt><trkpt lat="42.8510794" lon="12.6781744"><ele>236.0</ele><time>2026-04-11T14:32:35.38Z</time></trkpt><trkpt lat="42.8509343" lon="12.67824"><ele>235.5</ele><time>2026-04-11T14:32:36.373Z</time></trkpt><trkpt lat="42.8507915" lon="12.6782856"><ele>235.0</ele><time>2026-04-11T14:32:37.377Z</time></trkpt><trkpt lat="42.8506453" lon="12.6783166"><ele>234.5</ele><time>2026-04-11T14:32:38.373Z</time></trkpt><trkpt lat="42.8504908" lon="12.6783295"><ele>234.0</ele><time>2026-04-11T14:32:39.386Z</time></trkpt><trkpt lat="42.8503417" lon="12.6783214"><ele>234.0</ele><time>2026-04-11T14:32:40.378Z</time></trkpt><trkpt lat="42.8502043" lon="12.6782949"><ele>234.0</ele><time>2026-04-11T14:32:41.383Z</time></trkpt><trkpt lat="42.8500718" lon="12.6782548"><ele>234.0</ele><time>2026-04-11T14:32:42.372Z</time></trkpt><trkpt lat="42.8499402" lon="12.6782305"><ele>234.0</ele><time>2026-04-11T14:32:43.383Z</time></trkpt><trkpt lat="42.8498239" lon="12.6782367"><ele>233.5</ele><time>2026-04-11T14:32:44.374Z</time></trkpt><trkpt lat="42.8497282" lon="12.6782662"><ele>233.0</ele><time>2026-04-11T14:32:45.39Z</time></trkpt><trkpt lat="42.8496504" lon="12.6783125"><ele>232.5</ele><time>2026-04-11T14:32:46.371Z</time></trkpt><trkpt lat="42.8495925" lon="12.6783539"><ele>232.0</ele><time>2026-04-11T14:32:47.373Z</time></trkpt><trkpt lat="42.8495301" lon="12.6784134"><ele>231.5</ele><time>2026-04-11T14:32:49.389Z</time></trkpt><trkpt lat="42.8494546" lon="12.6784399"><ele>231.0</ele><time>2026-04-11T14:32:53.377Z</time></trkpt><trkpt lat="42.849407" lon="12.6783509"><ele>231.0</ele><time>2026-04-11T14:32:56.368Z</time></trkpt><trkpt lat="42.8493899" lon="12.6782543"><ele>231.00000000000003</ele><time>2026-04-11T14:32:58.376Z</time></trkpt><trkpt lat="42.8493728" lon="12.6781151"><ele>231.00000000000003</ele><time>2026-04-11T14:33:00.372Z</time></trkpt><trkpt lat="42.8493548" lon="12.6779631"><ele>231.0</ele><time>2026-04-11T14:33:02.374Z</time></trkpt><trkpt lat="42.849335" lon="12.677828"><ele>231.0</ele><time>2026-04-11T14:33:04.375Z</time></trkpt><trkpt lat="42.8493105" lon="12.6777035"><ele>231.33333333333334</ele><time>2026-04-11T14:33:06.372Z</time></trkpt><trkpt lat="42.8492629" lon="12.6775519"><ele>231.66666666666669</ele><time>2026-04-11T14:33:08.375Z</time></trkpt><trkpt lat="42.8492363" lon="12.6774716"><ele>232.0</ele><time>2026-04-11T14:33:09.379Z</time></trkpt><trkpt lat="42.8492071" lon="12.6773893"><ele>232.33333333333334</ele><time>2026-04-11T14:33:10.381Z</time></trkpt><trkpt lat="42.8491744" lon="12.6773029"><ele>232.66666666666669</ele><time>2026-04-11T14:33:11.377Z</time></trkpt><trkpt lat="42.8491434" lon="12.6772142"><ele>233.0</ele><time>2026-04-11T14:33:12.375Z</time></trkpt><trkpt lat="42.8491145" lon="12.6771259"><ele>233.00000000000003</ele><time>2026-04-11T14:33:13.376Z</time></trkpt><trkpt lat="42.8490812" lon="12.6770349"><ele>233.0</ele><time>2026-04-11T14:33:14.37Z</time></trkpt><trkpt lat="42.8490524" lon="12.6769445"><ele>233.0</ele><time>2026-04-11T14:33:15.378Z</time></trkpt><trkpt lat="42.8490306" lon="12.6768603"><ele>233.0</ele><time>2026-04-11T14:33:16.374Z</time></trkpt><trkpt lat="42.8490187" lon="12.6767084"><ele>233.00000000000003</ele><time>2026-04-11T14:33:18.372Z</time></trkpt><trkpt lat="42.8490311" lon="12.6765652"><ele>233.0</ele><time>2026-04-11T14:33:20.37Z</time></trkpt><trkpt lat="42.8490495" lon="12.6763886"><ele>233.16666666666669</ele><time>2026-04-11T14:33:22.381Z</time></trkpt><trkpt lat="42.8490685" lon="12.6762871"><ele>233.33333333333334</ele><time>2026-04-11T14:33:23.384Z</time></trkpt><trkpt lat="42.8490986" lon="12.6761823"><ele>233.5</ele><time>2026-04-11T14:33:24.365Z</time></trkpt><trkpt lat="42.8491352" lon="12.6760712"><ele>233.66666666666669</ele><time>2026-04-11T14:33:25.385Z</time></trkpt><trkpt lat="42.84916" lon="12.6759557"><ele>233.83333333333334</ele><time>2026-04-11T14:33:26.365Z</time></trkpt><trkpt lat="42.8491894" lon="12.6758419"><ele>234.0</ele><time>2026-04-11T14:33:27.373Z</time></trkpt><trkpt lat="42.84923" lon="12.6757388"><ele>234.2</ele><time>2026-04-11T14:33:28.355Z</time></trkpt><trkpt lat="42.8492793" lon="12.6756389"><ele>234.39999999999998</ele><time>2026-04-11T14:33:29.384Z</time></trkpt><trkpt lat="42.8493295" lon="12.6755342"><ele>234.6</ele><time>2026-04-11T14:33:30.384Z</time></trkpt><trkpt lat="42.8493893" lon="12.6754296"><ele>234.8</ele><time>2026-04-11T14:33:31.392Z</time></trkpt><trkpt lat="42.8494631" lon="12.6753223"><ele>235.0</ele><time>2026-04-11T14:33:32.371Z</time></trkpt><trkpt lat="42.8495321" lon="12.6752177"><ele>235.6</ele><time>2026-04-11T14:33:33.373Z</time></trkpt><trkpt lat="42.8496073" lon="12.6751117"><ele>236.2</ele><time>2026-04-11T14:33:34.37Z</time></trkpt><trkpt lat="42.8496632" lon="12.6749909"><ele>236.8</ele><time>2026-04-11T14:33:35.389Z</time></trkpt><trkpt lat="42.8497092" lon="12.6748701"><ele>237.4</ele><time>2026-04-11T14:33:36.369Z</time></trkpt><trkpt lat="42.8497375" lon="12.6747282"><ele>238.0</ele><time>2026-04-11T14:33:37.375Z</time></trkpt><trkpt lat="42.8497471" lon="12.6745818"><ele>238.60000000000002</ele><time>2026-04-11T14:33:38.372Z</time></trkpt><trkpt lat="42.8497514" lon="12.6744344"><ele>239.20000000000002</ele><time>2026-04-11T14:33:39.375Z</time></trkpt><trkpt lat="42.8497492" lon="12.6742891"><ele>239.8</ele><time>2026-04-11T14:33:40.383Z</time></trkpt><trkpt lat="42.8497488" lon="12.6741403"><ele>240.4</ele><time>2026-04-11T14:33:41.378Z</time></trkpt><trkpt lat="42.8497528" lon="12.6739923"><ele>241.0</ele><time>2026-04-11T14:33:42.375Z</time></trkpt><trkpt lat="42.8497569" lon="12.6738423"><ele>241.0</ele><time>2026-04-11T14:33:43.381Z</time></trkpt><trkpt lat="42.8497521" lon="12.6736917"><ele>241.0</ele><time>2026-04-11T14:33:44.38Z</time></trkpt><trkpt lat="42.849747" lon="12.6735321"><ele>241.0</ele><time>2026-04-11T14:33:45.38Z</time></trkpt><trkpt lat="42.8497431" lon="12.6733686"><ele>241.0</ele><time>2026-04-11T14:33:46.374Z</time></trkpt><trkpt lat="42.8497369" lon="12.6732065"><ele>242.0</ele><time>2026-04-11T14:33:47.378Z</time></trkpt><trkpt lat="42.8497316" lon="12.6730431"><ele>243.0</ele><time>2026-04-11T14:33:48.371Z</time></trkpt><trkpt lat="42.8497286" lon="12.6728741"><ele>244.0</ele><time>2026-04-11T14:33:49.388Z</time></trkpt><trkpt lat="42.8497276" lon="12.672703"><ele>245.0</ele><time>2026-04-11T14:33:50.375Z</time></trkpt><trkpt lat="42.8497206" lon="12.6725294"><ele>246.25</ele><time>2026-04-11T14:33:51.377Z</time></trkpt><trkpt lat="42.8497087" lon="12.6723542"><ele>247.5</ele><time>2026-04-11T14:33:52.377Z</time></trkpt><trkpt lat="42.8496944" lon="12.6721937"><ele>248.75</ele><time>2026-04-11T14:33:53.371Z</time></trkpt><trkpt lat="42.8496786" lon="12.6720443"><ele>250.0</ele><time>2026-04-11T14:33:54.383Z</time></trkpt><trkpt lat="42.8496561" lon="12.6719006"><ele>250.0</ele><time>2026-04-11T14:33:55.383Z</time></trkpt><trkpt lat="42.8496329" lon="12.6717629"><ele>250.0</ele><time>2026-04-11T14:33:56.376Z</time></trkpt><trkpt lat="42.8496103" lon="12.671624"><ele>250.0</ele><time>2026-04-11T14:33:57.388Z</time></trkpt><trkpt lat="42.8495895" lon="12.6714832"><ele>250.0</ele><time>2026-04-11T14:33:58.376Z</time></trkpt><trkpt lat="42.849575" lon="12.6713368"><ele>250.0</ele><time>2026-04-11T14:33:59.384Z</time></trkpt><trkpt lat="42.8495611" lon="12.6711896"><ele>250.25</ele><time>2026-04-11T14:34:00.37Z</time></trkpt><trkpt lat="42.8495584" lon="12.6710375"><ele>250.5</ele><time>2026-04-11T14:34:01.376Z</time></trkpt><trkpt lat="42.849557" lon="12.6708844"><ele>250.75</ele><time>2026-04-11T14:34:02.378Z</time></trkpt><trkpt lat="42.8495564" lon="12.6707292"><ele>251.0</ele><time>2026-04-11T14:34:03.384Z</time></trkpt><trkpt lat="42.8495513" lon="12.6705608"><ele>251.0</ele><time>2026-04-11T14:34:04.382Z</time></trkpt><trkpt lat="42.8495463" lon="12.6703919"><ele>251.0</ele><time>2026-04-11T14:34:05.373Z</time></trkpt><trkpt lat="42.8495423" lon="12.6702128"><ele>251.0</ele><time>2026-04-11T14:34:06.374Z</time></trkpt><trkpt lat="42.849532" lon="12.6700238"><ele>251.0</ele><time>2026-04-11T14:34:07.388Z</time></trkpt><trkpt lat="42.8495204" lon="12.6698365"><ele>251.75</ele><time>2026-04-11T14:34:08.379Z</time></trkpt><trkpt lat="42.8495078" lon="12.6696495"><ele>252.5</ele><time>2026-04-11T14:34:09.377Z</time></trkpt><trkpt lat="42.8494997" lon="12.669463"><ele>253.25</ele><time>2026-04-11T14:34:10.374Z</time></trkpt><trkpt lat="42.8494928" lon="12.6692733"><ele>254.0</ele><time>2026-04-11T14:34:11.38Z</time></trkpt><trkpt lat="42.8494821" lon="12.6690821"><ele>255.0</ele><time>2026-04-11T14:34:12.39Z</time></trkpt><trkpt lat="42.849474" lon="12.6688905"><ele>256.0</ele><time>2026-04-11T14:34:13.382Z</time></trkpt><trkpt lat="42.8494715" lon="12.6687093"><ele>257.0</ele><time>2026-04-11T14:34:14.389Z</time></trkpt><trkpt lat="42.8494644" lon="12.6685188"><ele>258.0</ele><time>2026-04-11T14:34:15.369Z</time></trkpt><trkpt lat="42.8494616" lon="12.6683256"><ele>260.0</ele><time>2026-04-11T14:34:16.37Z</time></trkpt><trkpt lat="42.8494551" lon="12.6681356"><ele>262.0</ele><time>2026-04-11T14:34:17.388Z</time></trkpt><trkpt lat="42.8494502" lon="12.6679562"><ele>264.0</ele><time>2026-04-11T14:34:18.377Z</time></trkpt><trkpt lat="42.8494346" lon="12.6677812"><ele>266.0</ele><time>2026-04-11T14:34:19.38Z</time></trkpt><trkpt lat="42.8494021" lon="12.6676232"><ele>266.25</ele><time>2026-04-11T14:34:20.368Z</time></trkpt><trkpt lat="42.8493512" lon="12.667476"><ele>266.5</ele><time>2026-04-11T14:34:21.382Z</time></trkpt><trkpt lat="42.849283" lon="12.6673379"><ele>266.75</ele><time>2026-04-11T14:34:22.378Z</time></trkpt><trkpt lat="42.8492131" lon="12.6671974"><ele>267.0</ele><time>2026-04-11T14:34:23.383Z</time></trkpt><trkpt lat="42.8491454" lon="12.6670599"><ele>268.0</ele><time>2026-04-11T14:34:24.372Z</time></trkpt><trkpt lat="42.8490809" lon="12.6669404"><ele>269.0</ele><time>2026-04-11T14:34:25.382Z</time></trkpt><trkpt lat="42.8490282" lon="12.6668289"><ele>270.0</ele><time>2026-04-11T14:34:26.368Z</time></trkpt><trkpt lat="42.8489817" lon="12.6667314"><ele>271.0</ele><time>2026-04-11T14:34:27.379Z</time></trkpt><trkpt lat="42.8489485" lon="12.6666454"><ele>272.0</ele><time>2026-04-11T14:34:28.377Z</time></trkpt><trkpt lat="42.8489057" lon="12.666509"><ele>272.0</ele><time>2026-04-11T14:34:30.375Z</time></trkpt><trkpt lat="42.8488882" lon="12.6663415"><ele>272.0</ele><time>2026-04-11T14:34:32.37Z</time></trkpt><trkpt lat="42.848879" lon="12.6662239"><ele>272.0</ele><time>2026-04-11T14:34:33.387Z</time></trkpt><trkpt lat="42.8488715" lon="12.6660971"><ele>272.0</ele><time>2026-04-11T14:34:34.38Z</time></trkpt><trkpt lat="42.8488623" lon="12.6659626"><ele>272.0</ele><time>2026-04-11T14:34:35.379Z</time></trkpt><trkpt lat="42.8488517" lon="12.6658161"><ele>273.5</ele><time>2026-04-11T14:34:36.372Z</time></trkpt><trkpt lat="42.8488415" lon="12.6656703"><ele>275.0</ele><time>2026-04-11T14:34:37.4Z</time></trkpt><trkpt lat="42.8488365" lon="12.6655085"><ele>276.5</ele><time>2026-04-11T14:34:38.369Z</time></trkpt><trkpt lat="42.8488375" lon="12.6653444"><ele>278.0</ele><time>2026-04-11T14:34:39.37Z</time></trkpt><trkpt lat="42.8488367" lon="12.6651805"><ele>278.75</ele><time>2026-04-11T14:34:40.378Z</time></trkpt><trkpt lat="42.8488309" lon="12.6650211"><ele>279.5</ele><time>2026-04-11T14:34:41.374Z</time></trkpt><trkpt lat="42.8488222" lon="12.6648452"><ele>280.25</ele><time>2026-04-11T14:34:42.377Z</time></trkpt><trkpt lat="42.8488183" lon="12.6646671"><ele>281.0</ele><time>2026-04-11T14:34:43.395Z</time></trkpt><trkpt lat="42.8488184" lon="12.6645041"><ele>282.2</ele><time>2026-04-11T14:34:44.394Z</time></trkpt><trkpt lat="42.8488255" lon="12.6643535"><ele>283.40000000000003</ele><time>2026-04-11T14:34:45.396Z</time></trkpt><trkpt lat="42.8488404" lon="12.6642105"><ele>284.6</ele><time>2026-04-11T14:34:46.387Z</time></trkpt><trkpt lat="42.8488636" lon="12.664065"><ele>285.8</ele><time>2026-04-11T14:34:47.379Z</time></trkpt><trkpt lat="42.8488899" lon="12.6639357"><ele>287.0</ele><time>2026-04-11T14:34:48.369Z</time></trkpt><trkpt lat="42.8489127" lon="12.663824"><ele>287.0</ele><time>2026-04-11T14:34:49.388Z</time></trkpt><trkpt lat="42.8489319" lon="12.6637153"><ele>287.0</ele><time>2026-04-11T14:34:50.378Z</time></trkpt><trkpt lat="42.8489363" lon="12.6636236"><ele>287.0</ele><time>2026-04-11T14:34:51.376Z</time></trkpt><trkpt lat="42.8489246" lon="12.6634781"><ele>287.0</ele><time>2026-04-11T14:34:53.373Z</time></trkpt><trkpt lat="42.8489053" lon="12.663369"><ele>287.0</ele><time>2026-04-11T14:34:56.368Z</time></trkpt><trkpt lat="42.8489236" lon="12.6632678"><ele>287.0</ele><time>2026-04-11T14:35:00.377Z</time></trkpt><trkpt lat="42.8488923" lon="12.6633759"><ele>287.0</ele><time>2026-04-11T14:35:26.37Z</time></trkpt><trkpt lat="42.848923" lon="12.6634947"><ele>287.0</ele><time>2026-04-11T14:35:28.392Z</time></trkpt><trkpt lat="42.8489415" lon="12.6636302"><ele>287.0</ele><time>2026-04-11T14:35:30.385Z</time></trkpt><trkpt lat="42.8489279" lon="12.6637346"><ele>287.0</ele><time>2026-04-11T14:35:32.376Z</time></trkpt><trkpt lat="42.8488945" lon="12.6638557"><ele>287.0</ele><time>2026-04-11T14:35:34.375Z</time></trkpt><trkpt lat="42.8488739" lon="12.6639693"><ele>287.0</ele><time>2026-04-11T14:35:36.379Z</time></trkpt><trkpt lat="42.8488555" lon="12.6640779"><ele>287.0</ele><time>2026-04-11T14:35:38.374Z</time></trkpt><trkpt lat="42.8488392" lon="12.6641972"><ele>287.0</ele><time>2026-04-11T14:35:40.385Z</time></trkpt><trkpt lat="42.8488185" lon="12.6643001"><ele>287.0</ele><time>2026-04-11T14:35:42.38Z</time></trkpt><trkpt lat="42.8487585" lon="12.664351"><ele>287.0</ele><time>2026-04-11T14:35:44.378Z</time></trkpt><trkpt lat="42.8486536" lon="12.6643519"><ele>287.0</ele><time>2026-04-11T14:35:46.373Z</time></trkpt><trkpt lat="42.8485893" lon="12.6643398"><ele>287.0</ele><time>2026-04-11T14:35:47.375Z</time></trkpt><trkpt lat="42.8485201" lon="12.664323"><ele>287.0</ele><time>2026-04-11T14:35:48.373Z</time></trkpt><trkpt lat="42.8484503" lon="12.6643048"><ele>287.0</ele><time>2026-04-11T14:35:49.385Z</time></trkpt><trkpt lat="42.8483785" lon="12.6642818"><ele>287.0</ele><time>2026-04-11T14:35:50.367Z</time></trkpt><trkpt lat="42.8482984" lon="12.6642656"><ele>287.0</ele><time>2026-04-11T14:35:51.379Z</time></trkpt><trkpt lat="42.8482101" lon="12.6642501"><ele>287.0</ele><time>2026-04-11T14:35:52.367Z</time></trkpt><trkpt lat="42.8481191" lon="12.6642357"><ele>286.4</ele><time>2026-04-11T14:35:53.381Z</time></trkpt><trkpt lat="42.8480314" lon="12.6642179"><ele>285.79999999999995</ele><time>2026-04-11T14:35:54.369Z</time></trkpt><trkpt lat="42.847957" lon="12.6641977"><ele>285.2</ele><time>2026-04-11T14:35:55.377Z</time></trkpt><trkpt lat="42.8478843" lon="12.6641733"><ele>284.59999999999997</ele><time>2026-04-11T14:35:56.376Z</time></trkpt><trkpt lat="42.8477974" lon="12.6640769"><ele>284.0</ele><time>2026-04-11T14:35:58.369Z</time></trkpt><trkpt lat="42.8476966" lon="12.6640224"><ele>284.0</ele><time>2026-04-11T14:36:00.375Z</time></trkpt><trkpt lat="42.8476273" lon="12.6640083"><ele>284.0</ele><time>2026-04-11T14:36:01.374Z</time></trkpt><trkpt lat="42.8475491" lon="12.664"><ele>284.0</ele><time>2026-04-11T14:36:02.372Z</time></trkpt><trkpt lat="42.8474744" lon="12.663993"><ele>284.0</ele><time>2026-04-11T14:36:03.373Z</time></trkpt><trkpt lat="42.8474027" lon="12.6639754"><ele>284.0</ele><time>2026-04-11T14:36:04.384Z</time></trkpt><trkpt lat="42.8473278" lon="12.6639489"><ele>284.0</ele><time>2026-04-11T14:36:05.383Z</time></trkpt><trkpt lat="42.8472502" lon="12.663924"><ele>283.1666666666667</ele><time>2026-04-11T14:36:06.378Z</time></trkpt><trkpt lat="42.8471755" lon="12.6638958"><ele>282.33333333333337</ele><time>2026-04-11T14:36:07.377Z</time></trkpt><trkpt lat="42.8470928" lon="12.663871"><ele>281.5</ele><time>2026-04-11T14:36:08.371Z</time></trkpt><trkpt lat="42.8470116" lon="12.6638513"><ele>280.6666666666667</ele><time>2026-04-11T14:36:09.384Z</time></trkpt><trkpt lat="42.8469249" lon="12.6638328"><ele>279.8333333333333</ele><time>2026-04-11T14:36:10.375Z</time></trkpt><trkpt lat="42.8468462" lon="12.6638108"><ele>279.0</ele><time>2026-04-11T14:36:11.375Z</time></trkpt><trkpt lat="42.8467736" lon="12.6637938"><ele>276.8333333333333</ele><time>2026-04-11T14:36:12.384Z</time></trkpt><trkpt lat="42.8467064" lon="12.6637759"><ele>274.6666666666667</ele><time>2026-04-11T14:36:13.379Z</time></trkpt><trkpt lat="42.8466428" lon="12.6637573"><ele>272.5</ele><time>2026-04-11T14:36:14.391Z</time></trkpt><trkpt lat="42.8465343" lon="12.6637241"><ele>270.33333333333337</ele><time>2026-04-11T14:36:16.371Z</time></trkpt><trkpt lat="42.846454" lon="12.6636972"><ele>268.1666666666667</ele><time>2026-04-11T14:36:18.376Z</time></trkpt><trkpt lat="42.8463796" lon="12.6636831"><ele>266.0</ele><time>2026-04-11T14:36:22.373Z</time></trkpt><trkpt lat="42.8463145" lon="12.6636416"><ele>266.2</ele><time>2026-04-11T14:36:26.381Z</time></trkpt><trkpt lat="42.8463066" lon="12.6635489"><ele>266.40000000000003</ele><time>2026-04-11T14:36:28.375Z</time></trkpt><trkpt lat="42.8463727" lon="12.6633811"><ele>266.6</ele><time>2026-04-11T14:36:30.377Z</time></trkpt><trkpt lat="42.8464165" lon="12.6632817"><ele>266.8</ele><time>2026-04-11T14:36:31.379Z</time></trkpt><trkpt lat="42.846467" lon="12.6631631"><ele>267.0</ele><time>2026-04-11T14:36:32.373Z</time></trkpt><trkpt lat="42.8465274" lon="12.6630316"><ele>267.0</ele><time>2026-04-11T14:36:33.375Z</time></trkpt><trkpt lat="42.8465916" lon="12.6628961"><ele>267.0</ele><time>2026-04-11T14:36:34.379Z</time></trkpt><trkpt lat="42.846662" lon="12.6627596"><ele>267.0</ele><time>2026-04-11T14:36:35.384Z</time></trkpt><trkpt lat="42.8467367" lon="12.6626096"><ele>267.0</ele><time>2026-04-11T14:36:36.383Z</time></trkpt><trkpt lat="42.8468164" lon="12.6624598"><ele>269.5</ele><time>2026-04-11T14:36:37.374Z</time></trkpt><trkpt lat="42.8469083" lon="12.6623064"><ele>272.0</ele><time>2026-04-11T14:36:38.373Z</time></trkpt><trkpt lat="42.8470025" lon="12.6621556"><ele>274.5</ele><time>2026-04-11T14:36:39.381Z</time></trkpt><trkpt lat="42.8470905" lon="12.6620046"><ele>277.0</ele><time>2026-04-11T14:36:40.371Z</time></trkpt><trkpt lat="42.847168" lon="12.6618648"><ele>277.0</ele><time>2026-04-11T14:36:41.386Z</time></trkpt><trkpt lat="42.8472235" lon="12.6617258"><ele>277.0</ele><time>2026-04-11T14:36:42.382Z</time></trkpt><trkpt lat="42.8472714" lon="12.6615872"><ele>277.0</ele><time>2026-04-11T14:36:43.374Z</time></trkpt><trkpt lat="42.8473152" lon="12.6614435"><ele>277.0</ele><time>2026-04-11T14:36:44.377Z</time></trkpt><trkpt lat="42.8473504" lon="12.6612913"><ele>277.0</ele><time>2026-04-11T14:36:45.383Z</time></trkpt><trkpt lat="42.8473756" lon="12.6611444"><ele>277.0</ele><time>2026-04-11T14:36:46.381Z</time></trkpt><trkpt lat="42.8473862" lon="12.6610154"><ele>277.0</ele><time>2026-04-11T14:36:47.378Z</time></trkpt><trkpt lat="42.847398" lon="12.6609013"><ele>277.0</ele><time>2026-04-11T14:36:48.374Z</time></trkpt><trkpt lat="42.8474062" lon="12.6608098"><ele>277.0</ele><time>2026-04-11T14:36:49.389Z</time></trkpt><trkpt lat="42.8474139" lon="12.6607194"><ele>277.0</ele><time>2026-04-11T14:36:50.375Z</time></trkpt><trkpt lat="42.8474288" lon="12.6605704"><ele>277.5</ele><time>2026-04-11T14:36:52.378Z</time></trkpt><trkpt lat="42.8474322" lon="12.660445"><ele>278.0</ele><time>2026-04-11T14:36:54.38Z</time></trkpt><trkpt lat="42.847434" lon="12.6603335"><ele>278.5</ele><time>2026-04-11T14:36:56.376Z</time></trkpt><trkpt lat="42.8474242" lon="12.6602356"><ele>279.0</ele><time>2026-04-11T14:36:58.365Z</time></trkpt><trkpt lat="42.8473857" lon="12.6601477"><ele>279.5</ele><time>2026-04-11T14:37:00.37Z</time></trkpt><trkpt lat="42.8473221" lon="12.6601693"><ele>280.0</ele><time>2026-04-11T14:37:02.361Z</time></trkpt><trkpt lat="42.847287" lon="12.6603056"><ele>280.0</ele><time>2026-04-11T14:37:04.373Z</time></trkpt><trkpt lat="42.8472862" lon="12.6603933"><ele>280.0</ele><time>2026-04-11T14:37:05.374Z</time></trkpt><trkpt lat="42.8472827" lon="12.660486"><ele>280.0</ele><time>2026-04-11T14:37:06.374Z</time></trkpt><trkpt lat="42.8472866" lon="12.6605874"><ele>280.0</ele><time>2026-04-11T14:37:07.377Z</time></trkpt><trkpt lat="42.8472855" lon="12.6606928"><ele>280.0</ele><time>2026-04-11T14:37:08.371Z</time></trkpt><trkpt lat="42.8472816" lon="12.6607961"><ele>280.0</ele><time>2026-04-11T14:37:09.376Z</time></trkpt><trkpt lat="42.8472766" lon="12.660887"><ele>280.0</ele><time>2026-04-11T14:37:10.371Z</time></trkpt><trkpt lat="42.847222" lon="12.6610309"><ele>280.0</ele><time>2026-04-11T14:37:12.373Z</time></trkpt><trkpt lat="42.8471658" lon="12.6610698"><ele>280.0</ele><time>2026-04-11T14:37:13.374Z</time></trkpt><trkpt lat="42.8471026" lon="12.6610872"><ele>280.0</ele><time>2026-04-11T14:37:14.376Z</time></trkpt><trkpt lat="42.8470331" lon="12.6610996"><ele>280.0</ele><time>2026-04-11T14:37:15.383Z</time></trkpt><trkpt lat="42.8469645" lon="12.6611124"><ele>280.0</ele><time>2026-04-11T14:37:16.377Z</time></trkpt><trkpt lat="42.8468898" lon="12.6611261"><ele>280.0</ele><time>2026-04-11T14:37:17.381Z</time></trkpt><trkpt lat="42.8468107" lon="12.6611348"><ele>280.0</ele><time>2026-04-11T14:37:18.377Z</time></trkpt><trkpt lat="42.8467321" lon="12.6611454"><ele>277.5</ele><time>2026-04-11T14:37:19.38Z</time></trkpt><trkpt lat="42.8466648" lon="12.6611554"><ele>275.0</ele><time>2026-04-11T14:37:20.371Z</time></trkpt><trkpt lat="42.8465585" lon="12.6611699"><ele>272.5</ele><time>2026-04-11T14:37:22.372Z</time></trkpt><trkpt lat="42.8464881" lon="12.6611835"><ele>270.0</ele><time>2026-04-11T14:37:24.395Z</time></trkpt><trkpt lat="42.8464063" lon="12.6611949"><ele>267.5</ele><time>2026-04-11T14:37:57.381Z</time></trkpt><trkpt lat="42.8463429" lon="12.6612093"><ele>265.0</ele><time>2026-04-11T14:37:59.382Z</time></trkpt><trkpt lat="42.8464195" lon="12.6612191"><ele>265.0</ele><time>2026-04-11T14:38:14.371Z</time></trkpt><trkpt lat="42.8465375" lon="12.661189"><ele>265.0</ele><time>2026-04-11T14:38:16.375Z</time></trkpt><trkpt lat="42.8466068" lon="12.6611741"><ele>265.0</ele><time>2026-04-11T14:38:17.373Z</time></trkpt><trkpt lat="42.8466935" lon="12.6611549"><ele>265.0</ele><time>2026-04-11T14:38:18.374Z</time></trkpt><trkpt lat="42.8467887" lon="12.6611359"><ele>265.0</ele><time>2026-04-11T14:38:19.384Z</time></trkpt><trkpt lat="42.8468976" lon="12.6611196"><ele>267.5</ele><time>2026-04-11T14:38:20.378Z</time></trkpt><trkpt lat="42.8470065" lon="12.6611009"><ele>270.0</ele><time>2026-04-11T14:38:21.375Z</time></trkpt><trkpt lat="42.8471008" lon="12.661085"><ele>272.5</ele><time>2026-04-11T14:38:22.371Z</time></trkpt><trkpt lat="42.8471712" lon="12.6610612"><ele>275.0</ele><time>2026-04-11T14:38:23.372Z</time></trkpt><trkpt lat="42.8472261" lon="12.6610056"><ele>277.5</ele><time>2026-04-11T14:38:24.371Z</time></trkpt><trkpt lat="42.8472593" lon="12.6609317"><ele>280.0</ele><time>2026-04-11T14:38:25.383Z</time></trkpt><trkpt lat="42.8472766" lon="12.6608431"><ele>280.0</ele><time>2026-04-11T14:38:26.368Z</time></trkpt><trkpt lat="42.847286" lon="12.6607347"><ele>280.0</ele><time>2026-04-11T14:38:27.38Z</time></trkpt><trkpt lat="42.8472901" lon="12.6606074"><ele>280.0</ele><time>2026-04-11T14:38:28.374Z</time></trkpt><trkpt lat="42.8472924" lon="12.6604763"><ele>280.0</ele><time>2026-04-11T14:38:29.379Z</time></trkpt><trkpt lat="42.8472971" lon="12.6603608"><ele>280.0</ele><time>2026-04-11T14:38:30.373Z</time></trkpt><trkpt lat="42.847312" lon="12.6602491"><ele>280.0</ele><time>2026-04-11T14:38:31.384Z</time></trkpt><trkpt lat="42.8473365" lon="12.6601675"><ele>280.4</ele><time>2026-04-11T14:38:32.367Z</time></trkpt><trkpt lat="42.8473746" lon="12.6600376"><ele>280.8</ele><time>2026-04-11T14:38:34.379Z</time></trkpt><trkpt lat="42.8473842" lon="12.6598404"><ele>281.2</ele><time>2026-04-11T14:38:36.371Z</time></trkpt><trkpt lat="42.8473689" lon="12.6597163"><ele>281.6</ele><time>2026-04-11T14:38:37.377Z</time></trkpt><trkpt lat="42.8473418" lon="12.6595789"><ele>282.0</ele><time>2026-04-11T14:38:38.361Z</time></trkpt><trkpt lat="42.8473106" lon="12.6594422"><ele>282.4</ele><time>2026-04-11T14:38:39.364Z</time></trkpt><trkpt lat="42.8472914" lon="12.6593066"><ele>282.79999999999995</ele><time>2026-04-11T14:38:40.375Z</time></trkpt><trkpt lat="42.8472823" lon="12.6591571"><ele>283.2</ele><time>2026-04-11T14:38:41.377Z</time></trkpt><trkpt lat="42.8472854" lon="12.658997"><ele>283.59999999999997</ele><time>2026-04-11T14:38:42.375Z</time></trkpt><trkpt lat="42.8473018" lon="12.658839"><ele>284.0</ele><time>2026-04-11T14:38:43.373Z</time></trkpt><trkpt lat="42.8473393" lon="12.6586761"><ele>284.0</ele><time>2026-04-11T14:38:44.384Z</time></trkpt><trkpt lat="42.8474031" lon="12.6585207"><ele>284.0</ele><time>2026-04-11T14:38:45.377Z</time></trkpt><trkpt lat="42.8474798" lon="12.658372"><ele>284.0</ele><time>2026-04-11T14:38:46.375Z</time></trkpt><trkpt lat="42.8475779" lon="12.6582312"><ele>284.0</ele><time>2026-04-11T14:38:47.373Z</time></trkpt><trkpt lat="42.8476763" lon="12.6581041"><ele>286.25</ele><time>2026-04-11T14:38:48.384Z</time></trkpt><trkpt lat="42.8477822" lon="12.6579839"><ele>288.5</ele><time>2026-04-11T14:38:49.374Z</time></trkpt><trkpt lat="42.8478874" lon="12.6578577"><ele>290.75</ele><time>2026-04-11T14:38:50.372Z</time></trkpt><trkpt lat="42.8479912" lon="12.6577239"><ele>293.0</ele><time>2026-04-11T14:38:51.376Z</time></trkpt><trkpt lat="42.8480974" lon="12.6575743"><ele>293.0</ele><time>2026-04-11T14:38:52.376Z</time></trkpt><trkpt lat="42.8481935" lon="12.6574094"><ele>293.0</ele><time>2026-04-11T14:38:53.373Z</time></trkpt><trkpt lat="42.8482896" lon="12.657238"><ele>293.0</ele><time>2026-04-11T14:38:54.376Z</time></trkpt><trkpt lat="42.8483788" lon="12.6570481"><ele>296.33333333333337</ele><time>2026-04-11T14:38:55.367Z</time></trkpt><trkpt lat="42.8484705" lon="12.6568541"><ele>299.6666666666667</ele><time>2026-04-11T14:38:56.366Z</time></trkpt><trkpt lat="42.8485562" lon="12.6566554"><ele>303.0</ele><time>2026-04-11T14:38:57.375Z</time></trkpt><trkpt lat="42.8486254" lon="12.6564523"><ele>303.0</ele><time>2026-04-11T14:38:58.371Z</time></trkpt><trkpt lat="42.8486798" lon="12.6562218"><ele>303.0</ele><time>2026-04-11T14:38:59.397Z</time></trkpt><trkpt lat="42.8487195" lon="12.6559872"><ele>303.0</ele><time>2026-04-11T14:39:00.37Z</time></trkpt><trkpt lat="42.8487473" lon="12.6557534"><ele>303.3333333333333</ele><time>2026-04-11T14:39:01.377Z</time></trkpt><trkpt lat="42.8487457" lon="12.6555247"><ele>303.66666666666663</ele><time>2026-04-11T14:39:02.379Z</time></trkpt><trkpt lat="42.8487264" lon="12.6552986"><ele>304.0</ele><time>2026-04-11T14:39:03.375Z</time></trkpt><trkpt lat="42.8486768" lon="12.6550755"><ele>304.0</ele><time>2026-04-11T14:39:04.373Z</time></trkpt><trkpt lat="42.8486058" lon="12.6548544"><ele>304.0</ele><time>2026-04-11T14:39:05.39Z</time></trkpt><trkpt lat="42.8485173" lon="12.6546496"><ele>304.0</ele><time>2026-04-11T14:39:06.366Z</time></trkpt><trkpt lat="42.8484256" lon="12.6544404"><ele>303.66666666666663</ele><time>2026-04-11T14:39:07.375Z</time></trkpt><trkpt lat="42.8483239" lon="12.6542258"><ele>303.3333333333333</ele><time>2026-04-11T14:39:08.362Z</time></trkpt><trkpt lat="42.8482234" lon="12.65401"><ele>303.0</ele><time>2026-04-11T14:39:09.379Z</time></trkpt><trkpt lat="42.8481244" lon="12.6537863"><ele>301.0</ele><time>2026-04-11T14:39:10.372Z</time></trkpt><trkpt lat="42.8480271" lon="12.6535783"><ele>299.0</ele><time>2026-04-11T14:39:11.373Z</time></trkpt><trkpt lat="42.8479332" lon="12.6533754"><ele>297.0</ele><time>2026-04-11T14:39:12.377Z</time></trkpt><trkpt lat="42.8478483" lon="12.6531819"><ele>297.0</ele><time>2026-04-11T14:39:13.38Z</time></trkpt><trkpt lat="42.847763" lon="12.6529764"><ele>297.0</ele><time>2026-04-11T14:39:14.374Z</time></trkpt><trkpt lat="42.8476885" lon="12.652761"><ele>297.0</ele><time>2026-04-11T14:39:15.383Z</time></trkpt><trkpt lat="42.8476262" lon="12.6525389"><ele>298.6666666666667</ele><time>2026-04-11T14:39:16.38Z</time></trkpt><trkpt lat="42.8475691" lon="12.6523093"><ele>300.33333333333337</ele><time>2026-04-11T14:39:17.381Z</time></trkpt><trkpt lat="42.8475154" lon="12.6520814"><ele>302.0</ele><time>2026-04-11T14:39:18.374Z</time></trkpt><trkpt lat="42.8474582" lon="12.6518487"><ele>303.0</ele><time>2026-04-11T14:39:19.377Z</time></trkpt><trkpt lat="42.847398" lon="12.6516234"><ele>304.0</ele><time>2026-04-11T14:39:20.376Z</time></trkpt><trkpt lat="42.8473411" lon="12.6513981"><ele>305.0</ele><time>2026-04-11T14:39:21.377Z</time></trkpt><trkpt lat="42.8472857" lon="12.6511658"><ele>306.0</ele><time>2026-04-11T14:39:22.371Z</time></trkpt><trkpt lat="42.8472305" lon="12.6509351"><ele>307.0</ele><time>2026-04-11T14:39:23.381Z</time></trkpt><trkpt lat="42.8471706" lon="12.6507063"><ele>308.0</ele><time>2026-04-11T14:39:24.378Z</time></trkpt><trkpt lat="42.8471141" lon="12.6504753"><ele>307.6666666666667</ele><time>2026-04-11T14:39:25.387Z</time></trkpt><trkpt lat="42.8470601" lon="12.6502439"><ele>307.3333333333333</ele><time>2026-04-11T14:39:26.373Z</time></trkpt><trkpt lat="42.8470055" lon="12.6500207"><ele>307.0</ele><time>2026-04-11T14:39:27.366Z</time></trkpt><trkpt lat="42.8469542" lon="12.6498077"><ele>307.0</ele><time>2026-04-11T14:39:28.364Z</time></trkpt><trkpt lat="42.8469005" lon="12.6495957"><ele>307.0</ele><time>2026-04-11T14:39:29.361Z</time></trkpt><trkpt lat="42.8468336" lon="12.64938"><ele>307.0</ele><time>2026-04-11T14:39:30.38Z</time></trkpt><trkpt lat="42.8467522" lon="12.6491732"><ele>308.3333333333333</ele><time>2026-04-11T14:39:31.379Z</time></trkpt><trkpt lat="42.8466454" lon="12.648978"><ele>309.6666666666667</ele><time>2026-04-11T14:39:32.384Z</time></trkpt><trkpt lat="42.8465161" lon="12.6488017"><ele>311.0</ele><time>2026-04-11T14:39:33.371Z</time></trkpt><trkpt lat="42.8463797" lon="12.6486334"><ele>311.0</ele><time>2026-04-11T14:39:34.359Z</time></trkpt><trkpt lat="42.8462528" lon="12.6484685"><ele>311.0</ele><time>2026-04-11T14:39:35.371Z</time></trkpt><trkpt lat="42.8461412" lon="12.6482957"><ele>311.0</ele><time>2026-04-11T14:39:36.37Z</time></trkpt><trkpt lat="42.8460496" lon="12.648118"><ele>311.0</ele><time>2026-04-11T14:39:37.377Z</time></trkpt><trkpt lat="42.8459689" lon="12.6479221"><ele>311.0</ele><time>2026-04-11T14:39:38.369Z</time></trkpt><trkpt lat="42.8458912" lon="12.6477268"><ele>311.0</ele><time>2026-04-11T14:39:39.379Z</time></trkpt><trkpt lat="42.8458101" lon="12.6475362"><ele>314.33333333333337</ele><time>2026-04-11T14:39:40.388Z</time></trkpt><trkpt lat="42.8457217" lon="12.6473647"><ele>317.6666666666667</ele><time>2026-04-11T14:39:41.376Z</time></trkpt><trkpt lat="42.845618" lon="12.6472102"><ele>321.0</ele><time>2026-04-11T14:39:42.381Z</time></trkpt><trkpt lat="42.8454918" lon="12.6470734"><ele>321.0</ele><time>2026-04-11T14:39:43.376Z</time></trkpt><trkpt lat="42.845358" lon="12.6469646"><ele>321.0</ele><time>2026-04-11T14:39:44.383Z</time></trkpt><trkpt lat="42.8452111" lon="12.6468857"><ele>321.0</ele><time>2026-04-11T14:39:45.389Z</time></trkpt><trkpt lat="42.8450544" lon="12.6468375"><ele>322.0</ele><time>2026-04-11T14:39:46.375Z</time></trkpt><trkpt lat="42.844897" lon="12.646814"><ele>323.0</ele><time>2026-04-11T14:39:47.381Z</time></trkpt><trkpt lat="42.8447412" lon="12.646796"><ele>324.0</ele><time>2026-04-11T14:39:48.373Z</time></trkpt><trkpt lat="42.8445983" lon="12.6467753"><ele>324.0</ele><time>2026-04-11T14:39:49.37Z</time></trkpt><trkpt lat="42.8444662" lon="12.6467405"><ele>324.0</ele><time>2026-04-11T14:39:50.371Z</time></trkpt><trkpt lat="42.844347" lon="12.6467059"><ele>324.0</ele><time>2026-04-11T14:39:51.379Z</time></trkpt><trkpt lat="42.8442383" lon="12.6466521"><ele>324.0</ele><time>2026-04-11T14:39:52.38Z</time></trkpt><trkpt lat="42.8441403" lon="12.6465919"><ele>326.75</ele><time>2026-04-11T14:39:53.377Z</time></trkpt><trkpt lat="42.8440422" lon="12.6465295"><ele>329.5</ele><time>2026-04-11T14:39:54.374Z</time></trkpt><trkpt lat="42.8439451" lon="12.6464609"><ele>332.25</ele><time>2026-04-11T14:39:55.373Z</time></trkpt><trkpt lat="42.8438489" lon="12.646381"><ele>335.0</ele><time>2026-04-11T14:39:56.375Z</time></trkpt><trkpt lat="42.843749" lon="12.6462915"><ele>335.0</ele><time>2026-04-11T14:39:57.374Z</time></trkpt><trkpt lat="42.8436487" lon="12.6461837"><ele>335.0</ele><time>2026-04-11T14:39:58.375Z</time></trkpt><trkpt lat="42.8435505" lon="12.6460715"><ele>335.0</ele><time>2026-04-11T14:39:59.38Z</time></trkpt><trkpt lat="42.8434536" lon="12.6459422"><ele>335.0</ele><time>2026-04-11T14:40:00.375Z</time></trkpt><trkpt lat="42.8433651" lon="12.6458016"><ele>336.25</ele><time>2026-04-11T14:40:01.378Z</time></trkpt><trkpt lat="42.8432819" lon="12.6456438"><ele>337.5</ele><time>2026-04-11T14:40:02.381Z</time></trkpt><trkpt lat="42.8431978" lon="12.6454845"><ele>338.75</ele><time>2026-04-11T14:40:03.384Z</time></trkpt><trkpt lat="42.8431176" lon="12.6453225"><ele>340.0</ele><time>2026-04-11T14:40:04.377Z</time></trkpt><trkpt lat="42.8430349" lon="12.6451587"><ele>340.75</ele><time>2026-04-11T14:40:05.386Z</time></trkpt><trkpt lat="42.8429551" lon="12.6449923"><ele>341.5</ele><time>2026-04-11T14:40:06.376Z</time></trkpt><trkpt lat="42.8428779" lon="12.644828"><ele>342.25</ele><time>2026-04-11T14:40:07.371Z</time></trkpt><trkpt lat="42.8427966" lon="12.6446562"><ele>343.0</ele><time>2026-04-11T14:40:08.374Z</time></trkpt><trkpt lat="42.8427117" lon="12.6444799"><ele>342.66666666666663</ele><time>2026-04-11T14:40:09.377Z</time></trkpt><trkpt lat="42.8426179" lon="12.6443024"><ele>342.3333333333333</ele><time>2026-04-11T14:40:10.369Z</time></trkpt><trkpt lat="42.8425192" lon="12.6441244"><ele>342.0</ele><time>2026-04-11T14:40:11.366Z</time></trkpt><trkpt lat="42.8424176" lon="12.6439415"><ele>342.0</ele><time>2026-04-11T14:40:12.373Z</time></trkpt><trkpt lat="42.8423189" lon="12.6437569"><ele>342.0</ele><time>2026-04-11T14:40:13.376Z</time></trkpt><trkpt lat="42.8422191" lon="12.6435756"><ele>342.0</ele><time>2026-04-11T14:40:14.384Z</time></trkpt><trkpt lat="42.8421179" lon="12.6433901"><ele>341.3333333333333</ele><time>2026-04-11T14:40:15.381Z</time></trkpt><trkpt lat="42.8420187" lon="12.643199"><ele>340.66666666666663</ele><time>2026-04-11T14:40:16.373Z</time></trkpt><trkpt lat="42.8419243" lon="12.642999"><ele>340.0</ele><time>2026-04-11T14:40:17.376Z</time></trkpt><trkpt lat="42.8418367" lon="12.6427906"><ele>340.3333333333333</ele><time>2026-04-11T14:40:18.376Z</time></trkpt><trkpt lat="42.8417629" lon="12.6425726"><ele>340.6666666666667</ele><time>2026-04-11T14:40:19.385Z</time></trkpt><trkpt lat="42.8416978" lon="12.6423395"><ele>341.0</ele><time>2026-04-11T14:40:20.367Z</time></trkpt><trkpt lat="42.8416503" lon="12.6420931"><ele>340.33333333333337</ele><time>2026-04-11T14:40:21.379Z</time></trkpt><trkpt lat="42.8416251" lon="12.6418333"><ele>339.6666666666667</ele><time>2026-04-11T14:40:22.381Z</time></trkpt><trkpt lat="42.8416194" lon="12.6415675"><ele>339.0</ele><time>2026-04-11T14:40:23.374Z</time></trkpt><trkpt lat="42.8416266" lon="12.6413018"><ele>339.3333333333333</ele><time>2026-04-11T14:40:24.374Z</time></trkpt><trkpt lat="42.8416461" lon="12.6410363"><ele>339.66666666666663</ele><time>2026-04-11T14:40:25.384Z</time></trkpt><trkpt lat="42.8416715" lon="12.6407901"><ele>340.0</ele><time>2026-04-11T14:40:26.375Z</time></trkpt><trkpt lat="42.8417031" lon="12.6405464"><ele>340.0</ele><time>2026-04-11T14:40:27.374Z</time></trkpt><trkpt lat="42.8417344" lon="12.6403017"><ele>340.0</ele><time>2026-04-11T14:40:28.38Z</time></trkpt><trkpt lat="42.8417805" lon="12.6400593"><ele>340.0</ele><time>2026-04-11T14:40:29.374Z</time></trkpt><trkpt lat="42.8418345" lon="12.6398152"><ele>338.66666666666663</ele><time>2026-04-11T14:40:30.377Z</time></trkpt><trkpt lat="42.8419006" lon="12.6395779"><ele>337.3333333333333</ele><time>2026-04-11T14:40:31.374Z</time></trkpt><trkpt lat="42.8419712" lon="12.6393435"><ele>336.0</ele><time>2026-04-11T14:40:32.382Z</time></trkpt><trkpt lat="42.842043" lon="12.6391217"><ele>336.0</ele><time>2026-04-11T14:40:33.385Z</time></trkpt><trkpt lat="42.8421051" lon="12.6389163"><ele>336.0</ele><time>2026-04-11T14:40:34.376Z</time></trkpt><trkpt lat="42.8421641" lon="12.6387347"><ele>336.0</ele><time>2026-04-11T14:40:35.373Z</time></trkpt><trkpt lat="42.8422151" lon="12.6385683"><ele>336.0</ele><time>2026-04-11T14:40:36.379Z</time></trkpt><trkpt lat="42.8422633" lon="12.6384107"><ele>336.4</ele><time>2026-04-11T14:40:37.374Z</time></trkpt><trkpt lat="42.8423058" lon="12.6382771"><ele>336.8</ele><time>2026-04-11T14:40:38.377Z</time></trkpt><trkpt lat="42.8423403" lon="12.6381513"><ele>337.2</ele><time>2026-04-11T14:40:39.37Z</time></trkpt><trkpt lat="42.8423754" lon="12.6380367"><ele>337.59999999999997</ele><time>2026-04-11T14:40:40.376Z</time></trkpt><trkpt lat="42.8424106" lon="12.6379286"><ele>338.0</ele><time>2026-04-11T14:40:41.368Z</time></trkpt><trkpt lat="42.842448" lon="12.6378286"><ele>338.2</ele><time>2026-04-11T14:40:42.373Z</time></trkpt><trkpt lat="42.8424873" lon="12.6377223"><ele>338.4</ele><time>2026-04-11T14:40:43.379Z</time></trkpt><trkpt lat="42.8425346" lon="12.6376078"><ele>338.59999999999997</ele><time>2026-04-11T14:40:44.376Z</time></trkpt><trkpt lat="42.8425856" lon="12.6374854"><ele>338.79999999999995</ele><time>2026-04-11T14:40:45.374Z</time></trkpt><trkpt lat="42.8426464" lon="12.6373646"><ele>339.0</ele><time>2026-04-11T14:40:46.373Z</time></trkpt><trkpt lat="42.8427181" lon="12.6372417"><ele>339.0</ele><time>2026-04-11T14:40:47.384Z</time></trkpt><trkpt lat="42.8427886" lon="12.6371242"><ele>339.0</ele><time>2026-04-11T14:40:48.371Z</time></trkpt><trkpt lat="42.8428574" lon="12.6370155"><ele>339.0</ele><time>2026-04-11T14:40:49.377Z</time></trkpt><trkpt lat="42.8429167" lon="12.6369176"><ele>339.0</ele><time>2026-04-11T14:40:50.386Z</time></trkpt><trkpt lat="42.8429794" lon="12.636827"><ele>339.0</ele><time>2026-04-11T14:40:51.376Z</time></trkpt><trkpt lat="42.8430388" lon="12.6367456"><ele>338.8333333333333</ele><time>2026-04-11T14:40:52.375Z</time></trkpt><trkpt lat="42.8430927" lon="12.636667"><ele>338.6666666666667</ele><time>2026-04-11T14:40:53.386Z</time></trkpt><trkpt lat="42.8431427" lon="12.6365979"><ele>338.5</ele><time>2026-04-11T14:40:54.379Z</time></trkpt><trkpt lat="42.8432043" lon="12.6364561"><ele>338.33333333333337</ele><time>2026-04-11T14:40:56.351Z</time></trkpt><trkpt lat="42.8431519" lon="12.6363333"><ele>338.1666666666667</ele><time>2026-04-11T14:40:58.375Z</time></trkpt><trkpt lat="42.8430918" lon="12.6362889"><ele>338.0</ele><time>2026-04-11T14:40:59.378Z</time></trkpt><trkpt lat="42.8430095" lon="12.6362546"><ele>338.0</ele><time>2026-04-11T14:41:00.365Z</time></trkpt><trkpt lat="42.8429076" lon="12.6362178"><ele>338.0</ele><time>2026-04-11T14:41:01.379Z</time></trkpt><trkpt lat="42.8427856" lon="12.6361696"><ele>338.0</ele><time>2026-04-11T14:41:02.373Z</time></trkpt><trkpt lat="42.8426521" lon="12.6361095"><ele>338.0</ele><time>2026-04-11T14:41:03.373Z</time></trkpt><trkpt lat="42.8425068" lon="12.6360462"><ele>338.0</ele><time>2026-04-11T14:41:04.373Z</time></trkpt><trkpt lat="42.842349" lon="12.6359753"><ele>338.0</ele><time>2026-04-11T14:41:05.367Z</time></trkpt><trkpt lat="42.842181" lon="12.6359078"><ele>338.0</ele><time>2026-04-11T14:41:06.371Z</time></trkpt><trkpt lat="42.842009" lon="12.6358407"><ele>338.0</ele><time>2026-04-11T14:41:07.381Z</time></trkpt><trkpt lat="42.8418411" lon="12.6357774"><ele>338.0</ele><time>2026-04-11T14:41:08.36Z</time></trkpt><trkpt lat="42.8416863" lon="12.6357192"><ele>338.0</ele><time>2026-04-11T14:41:09.367Z</time></trkpt><trkpt lat="42.8415479" lon="12.6356641"><ele>338.0</ele><time>2026-04-11T14:41:10.358Z</time></trkpt><trkpt lat="42.8414114" lon="12.6356096"><ele>338.0</ele><time>2026-04-11T14:41:11.378Z</time></trkpt><trkpt lat="42.8412696" lon="12.6355573"><ele>338.0</ele><time>2026-04-11T14:41:12.363Z</time></trkpt><trkpt lat="42.8411257" lon="12.6355227"><ele>338.0</ele><time>2026-04-11T14:41:13.373Z</time></trkpt><trkpt lat="42.8409759" lon="12.6355028"><ele>338.6666666666667</ele><time>2026-04-11T14:41:14.373Z</time></trkpt><trkpt lat="42.8408259" lon="12.6355033"><ele>339.3333333333333</ele><time>2026-04-11T14:41:15.364Z</time></trkpt><trkpt lat="42.8406688" lon="12.6355227"><ele>340.0</ele><time>2026-04-11T14:41:16.364Z</time></trkpt><trkpt lat="42.8405101" lon="12.6355408"><ele>340.0</ele><time>2026-04-11T14:41:17.368Z</time></trkpt><trkpt lat="42.8403487" lon="12.6355609"><ele>340.0</ele><time>2026-04-11T14:41:18.37Z</time></trkpt><trkpt lat="42.8401848" lon="12.6355686"><ele>340.0</ele><time>2026-04-11T14:41:19.379Z</time></trkpt><trkpt lat="42.84002" lon="12.6355834"><ele>340.66666666666663</ele><time>2026-04-11T14:41:20.361Z</time></trkpt><trkpt lat="42.8398508" lon="12.6356081"><ele>341.3333333333333</ele><time>2026-04-11T14:41:21.359Z</time></trkpt><trkpt lat="42.8396831" lon="12.6356386"><ele>342.0</ele><time>2026-04-11T14:41:22.373Z</time></trkpt><trkpt lat="42.8395182" lon="12.6356728"><ele>342.0</ele><time>2026-04-11T14:41:23.372Z</time></trkpt><trkpt lat="42.839359" lon="12.6357143"><ele>342.0</ele><time>2026-04-11T14:41:24.365Z</time></trkpt><trkpt lat="42.8392042" lon="12.6357626"><ele>342.0</ele><time>2026-04-11T14:41:25.369Z</time></trkpt><trkpt lat="42.8390514" lon="12.6358162"><ele>343.0</ele><time>2026-04-11T14:41:26.363Z</time></trkpt><trkpt lat="42.8389073" lon="12.6358584"><ele>344.0</ele><time>2026-04-11T14:41:27.369Z</time></trkpt><trkpt lat="42.8387734" lon="12.63589"><ele>345.0</ele><time>2026-04-11T14:41:28.372Z</time></trkpt><trkpt lat="42.8386344" lon="12.6359041"><ele>346.0</ele><time>2026-04-11T14:41:29.366Z</time></trkpt><trkpt lat="42.8384882" lon="12.6359097"><ele>347.66666666666663</ele><time>2026-04-11T14:41:30.359Z</time></trkpt><trkpt lat="42.8383332" lon="12.6359079"><ele>349.3333333333333</ele><time>2026-04-11T14:41:31.363Z</time></trkpt><trkpt lat="42.838176" lon="12.6359023"><ele>351.0</ele><time>2026-04-11T14:41:32.365Z</time></trkpt><trkpt lat="42.8380222" lon="12.6358828"><ele>351.0</ele><time>2026-04-11T14:41:33.375Z</time></trkpt><trkpt lat="42.8378685" lon="12.6358507"><ele>351.0</ele><time>2026-04-11T14:41:34.358Z</time></trkpt><trkpt lat="42.8377123" lon="12.6358195"><ele>351.0</ele><time>2026-04-11T14:41:35.371Z</time></trkpt><trkpt lat="42.8375534" lon="12.6357898"><ele>352.3333333333333</ele><time>2026-04-11T14:41:36.373Z</time></trkpt><trkpt lat="42.8373915" lon="12.6357604"><ele>353.66666666666663</ele><time>2026-04-11T14:41:37.363Z</time></trkpt><trkpt lat="42.8372275" lon="12.6357345"><ele>355.0</ele><time>2026-04-11T14:41:38.378Z</time></trkpt><trkpt lat="42.8370619" lon="12.6357021"><ele>355.0</ele><time>2026-04-11T14:41:39.369Z</time></trkpt><trkpt lat="42.8368982" lon="12.6356516"><ele>355.0</ele><time>2026-04-11T14:41:40.37Z</time></trkpt><trkpt lat="42.8367324" lon="12.6355978"><ele>355.0</ele><time>2026-04-11T14:41:41.369Z</time></trkpt><trkpt lat="42.8365681" lon="12.635534"><ele>356.66666666666663</ele><time>2026-04-11T14:41:42.363Z</time></trkpt><trkpt lat="42.8364071" lon="12.6354603"><ele>358.3333333333333</ele><time>2026-04-11T14:41:43.373Z</time></trkpt><trkpt lat="42.8362515" lon="12.6353729"><ele>360.0</ele><time>2026-04-11T14:41:44.372Z</time></trkpt><trkpt lat="42.8361063" lon="12.63528"><ele>360.0</ele><time>2026-04-11T14:41:45.376Z</time></trkpt><trkpt lat="42.8359716" lon="12.6351911"><ele>360.0</ele><time>2026-04-11T14:41:46.366Z</time></trkpt><trkpt lat="42.8358405" lon="12.6351017"><ele>360.0</ele><time>2026-04-11T14:41:47.368Z</time></trkpt><trkpt lat="42.8357072" lon="12.6350091"><ele>360.0</ele><time>2026-04-11T14:41:48.369Z</time></trkpt><trkpt lat="42.8355716" lon="12.6349214"><ele>360.6666666666667</ele><time>2026-04-11T14:41:49.363Z</time></trkpt><trkpt lat="42.8354298" lon="12.6348357"><ele>361.33333333333337</ele><time>2026-04-11T14:41:50.377Z</time></trkpt><trkpt lat="42.835277" lon="12.6347725"><ele>362.0</ele><time>2026-04-11T14:41:51.381Z</time></trkpt><trkpt lat="42.8351171" lon="12.6347177"><ele>363.6666666666667</ele><time>2026-04-11T14:41:52.376Z</time></trkpt><trkpt lat="42.8349517" lon="12.6346691"><ele>365.3333333333333</ele><time>2026-04-11T14:41:53.376Z</time></trkpt><trkpt lat="42.834784" lon="12.6346194"><ele>367.0</ele><time>2026-04-11T14:41:54.378Z</time></trkpt><trkpt lat="42.8346191" lon="12.6345582"><ele>367.0</ele><time>2026-04-11T14:41:55.362Z</time></trkpt><trkpt lat="42.8344564" lon="12.6344922"><ele>367.0</ele><time>2026-04-11T14:41:56.372Z</time></trkpt><trkpt lat="42.8343042" lon="12.6344281"><ele>367.0</ele><time>2026-04-11T14:41:57.374Z</time></trkpt><trkpt lat="42.8341626" lon="12.6343744"><ele>367.5</ele><time>2026-04-11T14:41:58.357Z</time></trkpt><trkpt lat="42.8340313" lon="12.6343343"><ele>368.0</ele><time>2026-04-11T14:41:59.356Z</time></trkpt><trkpt lat="42.8338979" lon="12.6343182"><ele>368.5</ele><time>2026-04-11T14:42:00.386Z</time></trkpt><trkpt lat="42.8337511" lon="12.634313"><ele>369.0</ele><time>2026-04-11T14:42:01.378Z</time></trkpt><trkpt lat="42.8335863" lon="12.6343167"><ele>370.6666666666667</ele><time>2026-04-11T14:42:02.379Z</time></trkpt><trkpt lat="42.8334065" lon="12.6343089"><ele>372.33333333333337</ele><time>2026-04-11T14:42:03.368Z</time></trkpt><trkpt lat="42.8332192" lon="12.6342909"><ele>374.0</ele><time>2026-04-11T14:42:04.365Z</time></trkpt><trkpt lat="42.8330539" lon="12.6342631"><ele>374.0</ele><time>2026-04-11T14:42:05.366Z</time></trkpt><trkpt lat="42.8329022" lon="12.6342352"><ele>374.0</ele><time>2026-04-11T14:42:06.374Z</time></trkpt><trkpt lat="42.8327726" lon="12.6342134"><ele>374.0</ele><time>2026-04-11T14:42:07.366Z</time></trkpt><trkpt lat="42.8326636" lon="12.6342058"><ele>374.0</ele><time>2026-04-11T14:42:08.364Z</time></trkpt><trkpt lat="42.8325822" lon="12.6341998"><ele>374.0</ele><time>2026-04-11T14:42:09.361Z</time></trkpt><trkpt lat="42.8325201" lon="12.6341845"><ele>374.0</ele><time>2026-04-11T14:42:10.362Z</time></trkpt><trkpt lat="42.8324556" lon="12.6341507"><ele>374.0</ele><time>2026-04-11T14:42:12.364Z</time></trkpt><trkpt lat="42.8324154" lon="12.6340622"><ele>374.0</ele><time>2026-04-11T14:42:33.36Z</time></trkpt><trkpt lat="42.8324118" lon="12.6339585"><ele>374.0</ele><time>2026-04-11T14:42:35.361Z</time></trkpt><trkpt lat="42.832445" lon="12.6338095"><ele>374.0</ele><time>2026-04-11T14:42:37.371Z</time></trkpt><trkpt lat="42.8324873" lon="12.6336666"><ele>374.2</ele><time>2026-04-11T14:42:39.374Z</time></trkpt><trkpt lat="42.8325246" lon="12.6335407"><ele>374.4</ele><time>2026-04-11T14:42:41.37Z</time></trkpt><trkpt lat="42.8325651" lon="12.6334467"><ele>374.6</ele><time>2026-04-11T14:43:27.364Z</time></trkpt><trkpt lat="42.8326088" lon="12.6333455"><ele>374.8</ele><time>2026-04-11T14:43:29.367Z</time></trkpt><trkpt lat="42.8326794" lon="12.6331983"><ele>375.0</ele><time>2026-04-11T14:43:31.365Z</time></trkpt><trkpt lat="42.832718" lon="12.6331144"><ele>375.2</ele><time>2026-04-11T14:43:32.362Z</time></trkpt><trkpt lat="42.8327638" lon="12.633017"><ele>375.4</ele><time>2026-04-11T14:43:33.369Z</time></trkpt><trkpt lat="42.832815" lon="12.6329103"><ele>375.6</ele><time>2026-04-11T14:43:34.36Z</time></trkpt><trkpt lat="42.8328722" lon="12.6327942"><ele>375.8</ele><time>2026-04-11T14:43:35.373Z</time></trkpt><trkpt lat="42.832934" lon="12.6326756"><ele>376.0</ele><time>2026-04-11T14:43:36.372Z</time></trkpt><trkpt lat="42.8329887" lon="12.6325632"><ele>376.0</ele><time>2026-04-11T14:43:37.35Z</time></trkpt><trkpt lat="42.8330469" lon="12.6324513"><ele>376.0</ele><time>2026-04-11T14:43:38.379Z</time></trkpt><trkpt lat="42.8330964" lon="12.6323423"><ele>376.0</ele><time>2026-04-11T14:43:39.362Z</time></trkpt><trkpt lat="42.8331414" lon="12.6322266"><ele>376.0</ele><time>2026-04-11T14:43:40.365Z</time></trkpt><trkpt lat="42.8331689" lon="12.6321067"><ele>376.0</ele><time>2026-04-11T14:43:41.362Z</time></trkpt><trkpt lat="42.8331713" lon="12.631983"><ele>377.4</ele><time>2026-04-11T14:43:42.362Z</time></trkpt><trkpt lat="42.8331504" lon="12.6318484"><ele>378.8</ele><time>2026-04-11T14:43:43.382Z</time></trkpt><trkpt lat="42.8331217" lon="12.6317111"><ele>380.2</ele><time>2026-04-11T14:43:44.369Z</time></trkpt><trkpt lat="42.833078" lon="12.6315703"><ele>381.59999999999997</ele><time>2026-04-11T14:43:45.374Z</time></trkpt><trkpt lat="42.8330329" lon="12.6314243"><ele>383.0</ele><time>2026-04-11T14:43:46.377Z</time></trkpt><trkpt lat="42.832975" lon="12.631278"><ele>383.0</ele><time>2026-04-11T14:43:47.367Z</time></trkpt><trkpt lat="42.8329059" lon="12.6311413"><ele>383.0</ele><time>2026-04-11T14:43:48.358Z</time></trkpt><trkpt lat="42.8328358" lon="12.6310091"><ele>383.0</ele><time>2026-04-11T14:43:49.38Z</time></trkpt><trkpt lat="42.8327703" lon="12.6308959"><ele>383.0</ele><time>2026-04-11T14:43:50.373Z</time></trkpt><trkpt lat="42.8327019" lon="12.6307989"><ele>383.0</ele><time>2026-04-11T14:43:51.369Z</time></trkpt><trkpt lat="42.8326286" lon="12.6307041"><ele>385.4</ele><time>2026-04-11T14:43:52.367Z</time></trkpt><trkpt lat="42.8325613" lon="12.6305977"><ele>387.79999999999995</ele><time>2026-04-11T14:43:53.372Z</time></trkpt><trkpt lat="42.8325136" lon="12.6304694"><ele>390.2</ele><time>2026-04-11T14:43:54.369Z</time></trkpt><trkpt lat="42.8324902" lon="12.6303325"><ele>392.6</ele><time>2026-04-11T14:43:55.368Z</time></trkpt><trkpt lat="42.8324814" lon="12.6301892"><ele>395.0</ele><time>2026-04-11T14:43:56.375Z</time></trkpt><trkpt lat="42.8324679" lon="12.6300349"><ele>395.75</ele><time>2026-04-11T14:43:57.37Z</time></trkpt><trkpt lat="42.8324602" lon="12.6298626"><ele>396.5</ele><time>2026-04-11T14:43:58.377Z</time></trkpt><trkpt lat="42.8324529" lon="12.6296893"><ele>397.25</ele><time>2026-04-11T14:43:59.375Z</time></trkpt><trkpt lat="42.8324543" lon="12.6295023"><ele>398.0</ele><time>2026-04-11T14:44:00.358Z</time></trkpt><trkpt lat="42.8324538" lon="12.6293152"><ele>399.0</ele><time>2026-04-11T14:44:01.38Z</time></trkpt><trkpt lat="42.8324566" lon="12.6291307"><ele>400.0</ele><time>2026-04-11T14:44:02.375Z</time></trkpt><trkpt lat="42.8324604" lon="12.628958"><ele>401.0</ele><time>2026-04-11T14:44:03.368Z</time></trkpt><trkpt lat="42.8324474" lon="12.6287872"><ele>402.0</ele><time>2026-04-11T14:44:04.366Z</time></trkpt><trkpt lat="42.8323913" lon="12.6286237"><ele>402.5</ele><time>2026-04-11T14:44:05.37Z</time></trkpt><trkpt lat="42.8323104" lon="12.6284749"><ele>403.0</ele><time>2026-04-11T14:44:06.372Z</time></trkpt><trkpt lat="42.8322125" lon="12.6283319"><ele>403.5</ele><time>2026-04-11T14:44:07.374Z</time></trkpt><trkpt lat="42.8321165" lon="12.6281778"><ele>404.0</ele><time>2026-04-11T14:44:08.371Z</time></trkpt><trkpt lat="42.832031" lon="12.6280146"><ele>404.0</ele><time>2026-04-11T14:44:09.359Z</time></trkpt><trkpt lat="42.8319415" lon="12.6278412"><ele>404.0</ele><time>2026-04-11T14:44:10.375Z</time></trkpt><trkpt lat="42.8318397" lon="12.6276675"><ele>404.0</ele><time>2026-04-11T14:44:11.357Z</time></trkpt><trkpt lat="42.8317262" lon="12.6275037"><ele>407.66666666666663</ele><time>2026-04-11T14:44:12.359Z</time></trkpt><trkpt lat="42.8316068" lon="12.6273394"><ele>411.33333333333337</ele><time>2026-04-11T14:44:13.371Z</time></trkpt><trkpt lat="42.8314843" lon="12.6271571"><ele>415.0</ele><time>2026-04-11T14:44:14.364Z</time></trkpt><trkpt lat="42.8313648" lon="12.6269746"><ele>416.75</ele><time>2026-04-11T14:44:15.367Z</time></trkpt><trkpt lat="42.8312592" lon="12.6268102"><ele>418.5</ele><time>2026-04-11T14:44:16.376Z</time></trkpt><trkpt lat="42.8311697" lon="12.6266626"><ele>420.25</ele><time>2026-04-11T14:44:17.363Z</time></trkpt><trkpt lat="42.8310968" lon="12.6265369"><ele>422.0</ele><time>2026-04-11T14:44:18.359Z</time></trkpt><trkpt lat="42.8310335" lon="12.6264311"><ele>421.99999999999994</ele><time>2026-04-11T14:44:19.381Z</time></trkpt><trkpt lat="42.8309893" lon="12.6263514"><ele>422.0</ele><time>2026-04-11T14:44:20.366Z</time></trkpt><trkpt lat="42.8308926" lon="12.6262447"><ele>422.0</ele><time>2026-04-11T14:44:22.38Z</time></trkpt><trkpt lat="42.8308253" lon="12.6262101"><ele>422.0</ele><time>2026-04-11T14:44:23.367Z</time></trkpt><trkpt lat="42.8307489" lon="12.6261857"><ele>421.99999999999994</ele><time>2026-04-11T14:44:24.357Z</time></trkpt><trkpt lat="42.8306581" lon="12.6261917"><ele>422.0</ele><time>2026-04-11T14:44:25.363Z</time></trkpt><trkpt lat="42.8305629" lon="12.6262109"><ele>422.0</ele><time>2026-04-11T14:44:26.359Z</time></trkpt><trkpt lat="42.8304681" lon="12.6262291"><ele>422.0</ele><time>2026-04-11T14:44:27.367Z</time></trkpt><trkpt lat="42.83036" lon="12.6262574"><ele>422.0</ele><time>2026-04-11T14:44:28.358Z</time></trkpt><trkpt lat="42.8302363" lon="12.6262863"><ele>422.0</ele><time>2026-04-11T14:44:29.366Z</time></trkpt><trkpt lat="42.8301021" lon="12.6262991"><ele>421.5</ele><time>2026-04-11T14:44:30.359Z</time></trkpt><trkpt lat="42.8299694" lon="12.6263102"><ele>421.0</ele><time>2026-04-11T14:44:31.367Z</time></trkpt><trkpt lat="42.8298303" lon="12.6263336"><ele>420.5</ele><time>2026-04-11T14:44:32.371Z</time></trkpt><trkpt lat="42.829689" lon="12.626353"><ele>420.0</ele><time>2026-04-11T14:44:33.375Z</time></trkpt><trkpt lat="42.8295471" lon="12.6263761"><ele>420.0</ele><time>2026-04-11T14:44:34.368Z</time></trkpt><trkpt lat="42.8294063" lon="12.6263839"><ele>420.0</ele><time>2026-04-11T14:44:35.368Z</time></trkpt><trkpt lat="42.8292591" lon="12.6263783"><ele>420.0</ele><time>2026-04-11T14:44:36.364Z</time></trkpt><trkpt lat="42.8291118" lon="12.6263705"><ele>420.0</ele><time>2026-04-11T14:44:37.367Z</time></trkpt><trkpt lat="42.8289694" lon="12.6263574"><ele>421.75</ele><time>2026-04-11T14:44:38.366Z</time></trkpt><trkpt lat="42.8288284" lon="12.6263553"><ele>423.5</ele><time>2026-04-11T14:44:39.37Z</time></trkpt><trkpt lat="42.8286858" lon="12.6263694"><ele>425.25</ele><time>2026-04-11T14:44:40.364Z</time></trkpt><trkpt lat="42.8285415" lon="12.6263973"><ele>427.0</ele><time>2026-04-11T14:44:41.385Z</time></trkpt><trkpt lat="42.8283941" lon="12.6264409"><ele>430.33333333333337</ele><time>2026-04-11T14:44:42.361Z</time></trkpt><trkpt lat="42.8282461" lon="12.6264954"><ele>433.66666666666663</ele><time>2026-04-11T14:44:43.371Z</time></trkpt><trkpt lat="42.8280984" lon="12.6265463"><ele>437.0</ele><time>2026-04-11T14:44:44.369Z</time></trkpt><trkpt lat="42.8279536" lon="12.6265951"><ele>437.0</ele><time>2026-04-11T14:44:45.368Z</time></trkpt><trkpt lat="42.8278073" lon="12.6266391"><ele>437.0</ele><time>2026-04-11T14:44:46.364Z</time></trkpt><trkpt lat="42.8276589" lon="12.6266552"><ele>437.0</ele><time>2026-04-11T14:44:47.369Z</time></trkpt><trkpt lat="42.8275114" lon="12.6266565"><ele>437.0</ele><time>2026-04-11T14:44:48.366Z</time></trkpt><trkpt lat="42.827362" lon="12.6266428"><ele>438.75</ele><time>2026-04-11T14:44:49.371Z</time></trkpt><trkpt lat="42.8272225" lon="12.6266232"><ele>440.5</ele><time>2026-04-11T14:44:50.365Z</time></trkpt><trkpt lat="42.8270965" lon="12.6266045"><ele>442.25</ele><time>2026-04-11T14:44:51.373Z</time></trkpt><trkpt lat="42.8269774" lon="12.626586"><ele>444.0</ele><time>2026-04-11T14:44:52.384Z</time></trkpt><trkpt lat="42.8268766" lon="12.626579"><ele>445.0</ele><time>2026-04-11T14:44:53.372Z</time></trkpt><trkpt lat="42.8267836" lon="12.6265643"><ele>446.0</ele><time>2026-04-11T14:44:54.373Z</time></trkpt><trkpt lat="42.826709" lon="12.626558"><ele>447.0</ele><time>2026-04-11T14:44:55.371Z</time></trkpt><trkpt lat="42.8266388" lon="12.6264981"><ele>448.0</ele><time>2026-04-11T14:44:57.363Z</time></trkpt><trkpt lat="42.8266206" lon="12.6263807"><ele>449.0</ele><time>2026-04-11T14:44:59.363Z</time></trkpt><trkpt lat="42.8266286" lon="12.6262704"><ele>450.0</ele><time>2026-04-11T14:45:00.36Z</time></trkpt><trkpt lat="42.8266226" lon="12.6261468"><ele>449.5</ele><time>2026-04-11T14:45:01.369Z</time></trkpt><trkpt lat="42.8266075" lon="12.6259884"><ele>449.0</ele><time>2026-04-11T14:45:02.377Z</time></trkpt><trkpt lat="42.8265797" lon="12.6258224"><ele>448.5</ele><time>2026-04-11T14:45:03.368Z</time></trkpt><trkpt lat="42.8265434" lon="12.6256483"><ele>448.0</ele><time>2026-04-11T14:45:04.418Z</time></trkpt><trkpt lat="42.8265013" lon="12.6254687"><ele>448.5</ele><time>2026-04-11T14:45:05.367Z</time></trkpt><trkpt lat="42.8264415" lon="12.6252804"><ele>449.0</ele><time>2026-04-11T14:45:06.365Z</time></trkpt><trkpt lat="42.8263651" lon="12.6250979"><ele>449.5</ele><time>2026-04-11T14:45:07.382Z</time></trkpt><trkpt lat="42.8262889" lon="12.6249312"><ele>450.0</ele><time>2026-04-11T14:45:08.382Z</time></trkpt><trkpt lat="42.8262167" lon="12.6247763"><ele>450.0</ele><time>2026-04-11T14:45:09.375Z</time></trkpt><trkpt lat="42.826158" lon="12.6246188"><ele>450.0</ele><time>2026-04-11T14:45:10.394Z</time></trkpt><trkpt lat="42.8261094" lon="12.6244373"><ele>450.0</ele><time>2026-04-11T14:45:11.377Z</time></trkpt><trkpt lat="42.8260677" lon="12.6242307"><ele>450.0</ele><time>2026-04-11T14:45:12.366Z</time></trkpt><trkpt lat="42.826027" lon="12.6240093"><ele>450.0</ele><time>2026-04-11T14:45:13.368Z</time></trkpt><trkpt lat="42.8259891" lon="12.6237871"><ele>450.0</ele><time>2026-04-11T14:45:14.369Z</time></trkpt><trkpt lat="42.8259474" lon="12.6235742"><ele>450.0</ele><time>2026-04-11T14:45:15.365Z</time></trkpt><trkpt lat="42.8259145" lon="12.6233717"><ele>448.0</ele><time>2026-04-11T14:45:16.358Z</time></trkpt><trkpt lat="42.8258849" lon="12.6231767"><ele>446.0</ele><time>2026-04-11T14:45:17.359Z</time></trkpt><trkpt lat="42.8258759" lon="12.6229852"><ele>444.0</ele><time>2026-04-11T14:45:18.363Z</time></trkpt><trkpt lat="42.8258934" lon="12.6227952"><ele>442.0</ele><time>2026-04-11T14:45:19.379Z</time></trkpt><trkpt lat="42.8259391" lon="12.6225874"><ele>440.6666666666667</ele><time>2026-04-11T14:45:20.372Z</time></trkpt><trkpt lat="42.8259966" lon="12.6223733"><ele>439.33333333333337</ele><time>2026-04-11T14:45:21.362Z</time></trkpt><trkpt lat="42.8260666" lon="12.6221657"><ele>438.0</ele><time>2026-04-11T14:45:22.366Z</time></trkpt><trkpt lat="42.8261418" lon="12.6219726"><ele>438.0</ele><time>2026-04-11T14:45:23.374Z</time></trkpt><trkpt lat="42.8262363" lon="12.6218176"><ele>438.0</ele><time>2026-04-11T14:45:24.361Z</time></trkpt><trkpt lat="42.8263597" lon="12.6217036"><ele>438.0</ele><time>2026-04-11T14:45:25.374Z</time></trkpt><trkpt lat="42.8265042" lon="12.6216164"><ele>438.0</ele><time>2026-04-11T14:45:26.362Z</time></trkpt><trkpt lat="42.8266644" lon="12.6215323"><ele>438.0</ele><time>2026-04-11T14:45:27.367Z</time></trkpt><trkpt lat="42.8268325" lon="12.621444"><ele>438.0</ele><time>2026-04-11T14:45:28.361Z</time></trkpt><trkpt lat="42.8270072" lon="12.6213472"><ele>436.33333333333337</ele><time>2026-04-11T14:45:29.371Z</time></trkpt><trkpt lat="42.827172" lon="12.6212463"><ele>434.6666666666667</ele><time>2026-04-11T14:45:30.365Z</time></trkpt><trkpt lat="42.8273424" lon="12.6211125"><ele>433.0</ele><time>2026-04-11T14:45:31.357Z</time></trkpt><trkpt lat="42.8275026" lon="12.6209544"><ele>432.33333333333337</ele><time>2026-04-11T14:45:32.364Z</time></trkpt><trkpt lat="42.8276439" lon="12.6208163"><ele>431.66666666666663</ele><time>2026-04-11T14:45:33.372Z</time></trkpt><trkpt lat="42.8277685" lon="12.6206877"><ele>431.0</ele><time>2026-04-11T14:45:34.367Z</time></trkpt><trkpt lat="42.8278867" lon="12.6205682"><ele>431.0</ele><time>2026-04-11T14:45:35.366Z</time></trkpt><trkpt lat="42.82799" lon="12.6204676"><ele>431.0</ele><time>2026-04-11T14:45:36.373Z</time></trkpt><trkpt lat="42.8280714" lon="12.6203721"><ele>431.0</ele><time>2026-04-11T14:45:37.376Z</time></trkpt><trkpt lat="42.8281411" lon="12.6202997"><ele>431.0</ele><time>2026-04-11T14:45:38.356Z</time></trkpt><trkpt lat="42.828191" lon="12.6202423"><ele>431.0</ele><time>2026-04-11T14:45:39.372Z</time></trkpt><trkpt lat="42.8282437" lon="12.6201025"><ele>431.0</ele><time>2026-04-11T14:45:41.368Z</time></trkpt><trkpt lat="42.8282013" lon="12.6199307"><ele>431.0</ele><time>2026-04-11T14:45:43.366Z</time></trkpt><trkpt lat="42.8281487" lon="12.6198308"><ele>431.0</ele><time>2026-04-11T14:45:44.354Z</time></trkpt><trkpt lat="42.8280776" lon="12.6197169"><ele>431.0</ele><time>2026-04-11T14:45:45.377Z</time></trkpt><trkpt lat="42.8279925" lon="12.6196158"><ele>431.0</ele><time>2026-04-11T14:45:46.356Z</time></trkpt><trkpt lat="42.8278923" lon="12.6195213"><ele>430.5</ele><time>2026-04-11T14:45:47.38Z</time></trkpt><trkpt lat="42.8277906" lon="12.6194348"><ele>430.0</ele><time>2026-04-11T14:45:48.368Z</time></trkpt><trkpt lat="42.8276826" lon="12.6193674"><ele>429.5</ele><time>2026-04-11T14:45:49.374Z</time></trkpt><trkpt lat="42.8275719" lon="12.6193184"><ele>429.0</ele><time>2026-04-11T14:45:50.356Z</time></trkpt><trkpt lat="42.8274516" lon="12.6192716"><ele>429.0</ele><time>2026-04-11T14:45:51.368Z</time></trkpt><trkpt lat="42.8273268" lon="12.6192291"><ele>429.0</ele><time>2026-04-11T14:45:52.36Z</time></trkpt><trkpt lat="42.8272001" lon="12.6191857"><ele>429.0</ele><time>2026-04-11T14:45:53.379Z</time></trkpt><trkpt lat="42.8270712" lon="12.6191459"><ele>429.0</ele><time>2026-04-11T14:45:54.357Z</time></trkpt><trkpt lat="42.8269405" lon="12.6191052"><ele>428.5</ele><time>2026-04-11T14:45:55.366Z</time></trkpt><trkpt lat="42.8268051" lon="12.6190649"><ele>428.0</ele><time>2026-04-11T14:45:56.358Z</time></trkpt><trkpt lat="42.8266718" lon="12.6190198"><ele>427.5</ele><time>2026-04-11T14:45:57.363Z</time></trkpt><trkpt lat="42.8265442" lon="12.6189782"><ele>427.0</ele><time>2026-04-11T14:45:58.366Z</time></trkpt><trkpt lat="42.8264234" lon="12.6189108"><ele>427.0</ele><time>2026-04-11T14:45:59.363Z</time></trkpt><trkpt lat="42.826301" lon="12.6188115"><ele>427.0</ele><time>2026-04-11T14:46:00.353Z</time></trkpt><trkpt lat="42.826175" lon="12.6187057"><ele>427.0</ele><time>2026-04-11T14:46:01.386Z</time></trkpt><trkpt lat="42.8260359" lon="12.6186102"><ele>427.0</ele><time>2026-04-11T14:46:02.368Z</time></trkpt><trkpt lat="42.8258864" lon="12.6185438"><ele>429.0</ele><time>2026-04-11T14:46:03.364Z</time></trkpt><trkpt lat="42.8257271" lon="12.6185002"><ele>431.0</ele><time>2026-04-11T14:46:04.361Z</time></trkpt><trkpt lat="42.8255789" lon="12.618461"><ele>433.0</ele><time>2026-04-11T14:46:05.372Z</time></trkpt><trkpt lat="42.8254476" lon="12.6184005"><ele>433.0</ele><time>2026-04-11T14:46:06.359Z</time></trkpt><trkpt lat="42.8253231" lon="12.6183142"><ele>433.0</ele><time>2026-04-11T14:46:07.367Z</time></trkpt><trkpt lat="42.8252021" lon="12.6182041"><ele>433.0</ele><time>2026-04-11T14:46:08.361Z</time></trkpt><trkpt lat="42.8250908" lon="12.6180871"><ele>433.0</ele><time>2026-04-11T14:46:09.368Z</time></trkpt><trkpt lat="42.8249815" lon="12.6179964"><ele>432.59999999999997</ele><time>2026-04-11T14:46:10.362Z</time></trkpt><trkpt lat="42.8248688" lon="12.617934"><ele>432.19999999999993</ele><time>2026-04-11T14:46:11.364Z</time></trkpt><trkpt lat="42.8247678" lon="12.6178946"><ele>431.8</ele><time>2026-04-11T14:46:12.361Z</time></trkpt><trkpt lat="42.8246839" lon="12.6178533"><ele>431.4</ele><time>2026-04-11T14:46:13.363Z</time></trkpt><trkpt lat="42.8246212" lon="12.6178046"><ele>431.0</ele><time>2026-04-11T14:46:14.366Z</time></trkpt><trkpt lat="42.8245852" lon="12.6177232"><ele>433.49999999999994</ele><time>2026-04-11T14:46:15.366Z</time></trkpt><trkpt lat="42.824601" lon="12.6176385"><ele>436.0</ele><time>2026-04-11T14:46:16.363Z</time></trkpt><trkpt lat="42.8246424" lon="12.6175566"><ele>438.5</ele><time>2026-04-11T14:46:17.369Z</time></trkpt><trkpt lat="42.8247032" lon="12.6174791"><ele>441.0</ele><time>2026-04-11T14:46:18.369Z</time></trkpt><trkpt lat="42.8247828" lon="12.6174145"><ele>443.49999999999994</ele><time>2026-04-11T14:46:19.373Z</time></trkpt><trkpt lat="42.8248717" lon="12.6173303"><ele>446.0</ele><time>2026-04-11T14:46:20.375Z</time></trkpt><trkpt lat="42.8249617" lon="12.6172399"><ele>445.99999999999994</ele><time>2026-04-11T14:46:21.36Z</time></trkpt><trkpt lat="42.8250372" lon="12.6171467"><ele>446.0</ele><time>2026-04-11T14:46:22.359Z</time></trkpt><trkpt lat="42.8250598" lon="12.6170496"><ele>446.0</ele><time>2026-04-11T14:46:23.369Z</time></trkpt><trkpt lat="42.8250473" lon="12.6169566"><ele>446.0</ele><time>2026-04-11T14:46:24.366Z</time></trkpt><trkpt lat="42.8249843" lon="12.616861"><ele>445.99999999999994</ele><time>2026-04-11T14:46:25.388Z</time></trkpt><trkpt lat="42.8249074" lon="12.6167758"><ele>446.0</ele><time>2026-04-11T14:46:26.377Z</time></trkpt><trkpt lat="42.8248394" lon="12.6166391"><ele>448.0</ele><time>2026-04-11T14:46:27.371Z</time></trkpt><trkpt lat="42.8247875" lon="12.6164797"><ele>450.0</ele><time>2026-04-11T14:46:28.365Z</time></trkpt><trkpt lat="42.8247276" lon="12.6163211"><ele>452.0</ele><time>2026-04-11T14:46:29.359Z</time></trkpt><trkpt lat="42.824655" lon="12.6162184"><ele>454.0</ele><time>2026-04-11T14:46:30.36Z</time></trkpt><trkpt lat="42.8245629" lon="12.6161914"><ele>454.0</ele><time>2026-04-11T14:46:31.385Z</time></trkpt><trkpt lat="42.8244739" lon="12.6162462"><ele>454.0</ele><time>2026-04-11T14:46:32.36Z</time></trkpt><trkpt lat="42.8243977" lon="12.6163701"><ele>454.0</ele><time>2026-04-11T14:46:33.377Z</time></trkpt><trkpt lat="42.8243424" lon="12.6165101"><ele>454.0</ele><time>2026-04-11T14:46:34.361Z</time></trkpt><trkpt lat="42.8242805" lon="12.6166936"><ele>454.5</ele><time>2026-04-11T14:46:35.369Z</time></trkpt><trkpt lat="42.8242036" lon="12.6168594"><ele>455.0</ele><time>2026-04-11T14:46:36.361Z</time></trkpt><trkpt lat="42.8241061" lon="12.6169904"><ele>455.5</ele><time>2026-04-11T14:46:37.363Z</time></trkpt><trkpt lat="42.8240019" lon="12.6170837"><ele>456.0</ele><time>2026-04-11T14:46:38.358Z</time></trkpt><trkpt lat="42.8238898" lon="12.6171208"><ele>456.0</ele><time>2026-04-11T14:46:39.375Z</time></trkpt><trkpt lat="42.8237637" lon="12.6171185"><ele>456.0</ele><time>2026-04-11T14:46:40.363Z</time></trkpt><trkpt lat="42.8236243" lon="12.6170789"><ele>456.0</ele><time>2026-04-11T14:46:41.373Z</time></trkpt><trkpt lat="42.8234867" lon="12.6170053"><ele>456.0</ele><time>2026-04-11T14:46:42.365Z</time></trkpt><trkpt lat="42.8233493" lon="12.6169178"><ele>462.33333333333337</ele><time>2026-04-11T14:46:43.377Z</time></trkpt><trkpt lat="42.8231949" lon="12.6168064"><ele>468.6666666666667</ele><time>2026-04-11T14:46:44.366Z</time></trkpt><trkpt lat="42.8230422" lon="12.6166921"><ele>475.0</ele><time>2026-04-11T14:46:45.372Z</time></trkpt><trkpt lat="42.8228911" lon="12.6165736"><ele>475.0</ele><time>2026-04-11T14:46:46.372Z</time></trkpt><trkpt lat="42.8227458" lon="12.6164532"><ele>475.0</ele><time>2026-04-11T14:46:47.377Z</time></trkpt><trkpt lat="42.8226095" lon="12.6163392"><ele>475.0</ele><time>2026-04-11T14:46:48.369Z</time></trkpt><trkpt lat="42.82249" lon="12.6162259"><ele>477.0</ele><time>2026-04-11T14:46:49.376Z</time></trkpt><trkpt lat="42.8223811" lon="12.6161091"><ele>479.0</ele><time>2026-04-11T14:46:50.36Z</time></trkpt><trkpt lat="42.8222741" lon="12.6159852"><ele>481.0</ele><time>2026-04-11T14:46:51.37Z</time></trkpt><trkpt lat="42.8221758" lon="12.6158594"><ele>483.0</ele><time>2026-04-11T14:46:52.366Z</time></trkpt><trkpt lat="42.8220858" lon="12.6157543"><ele>483.0</ele><time>2026-04-11T14:46:53.376Z</time></trkpt><trkpt lat="42.8219949" lon="12.615685"><ele>482.99999999999994</ele><time>2026-04-11T14:46:54.365Z</time></trkpt><trkpt lat="42.8218934" lon="12.6156434"><ele>482.99999999999994</ele><time>2026-04-11T14:46:55.378Z</time></trkpt><trkpt lat="42.8217855" lon="12.6155917"><ele>483.0</ele><time>2026-04-11T14:46:56.358Z</time></trkpt><trkpt lat="42.8216761" lon="12.6155148"><ele>483.0</ele><time>2026-04-11T14:46:57.363Z</time></trkpt><trkpt lat="42.8215554" lon="12.615429"><ele>483.5</ele><time>2026-04-11T14:46:58.356Z</time></trkpt><trkpt lat="42.8214352" lon="12.6153518"><ele>484.0</ele><time>2026-04-11T14:46:59.371Z</time></trkpt><trkpt lat="42.8213204" lon="12.6152835"><ele>484.5</ele><time>2026-04-11T14:47:00.361Z</time></trkpt><trkpt lat="42.8212148" lon="12.6152219"><ele>485.0</ele><time>2026-04-11T14:47:01.368Z</time></trkpt><trkpt lat="42.821115" lon="12.6151602"><ele>484.4</ele><time>2026-04-11T14:47:02.356Z</time></trkpt><trkpt lat="42.8210207" lon="12.6151022"><ele>483.8</ele><time>2026-04-11T14:47:03.362Z</time></trkpt><trkpt lat="42.8209211" lon="12.6150492"><ele>483.20000000000005</ele><time>2026-04-11T14:47:04.357Z</time></trkpt><trkpt lat="42.8208198" lon="12.6150052"><ele>482.6</ele><time>2026-04-11T14:47:05.365Z</time></trkpt><trkpt lat="42.8207136" lon="12.6149762"><ele>482.0</ele><time>2026-04-11T14:47:06.354Z</time></trkpt><trkpt lat="42.8206019" lon="12.6149473"><ele>482.0</ele><time>2026-04-11T14:47:07.368Z</time></trkpt><trkpt lat="42.8204929" lon="12.6149291"><ele>482.00000000000006</ele><time>2026-04-11T14:47:08.361Z</time></trkpt><trkpt lat="42.8203834" lon="12.6149181"><ele>482.00000000000006</ele><time>2026-04-11T14:47:09.37Z</time></trkpt><trkpt lat="42.8202789" lon="12.614902"><ele>482.0</ele><time>2026-04-11T14:47:10.361Z</time></trkpt><trkpt lat="42.8201892" lon="12.6148695"><ele>482.0</ele><time>2026-04-11T14:47:11.37Z</time></trkpt><trkpt lat="42.8201065" lon="12.6147877"><ele>480.25</ele><time>2026-04-11T14:47:12.364Z</time></trkpt><trkpt lat="42.8200309" lon="12.6146629"><ele>478.5</ele><time>2026-04-11T14:47:13.361Z</time></trkpt><trkpt lat="42.8199415" lon="12.6145194"><ele>476.75</ele><time>2026-04-11T14:47:14.362Z</time></trkpt><trkpt lat="42.8198466" lon="12.6143748"><ele>475.0</ele><time>2026-04-11T14:47:15.38Z</time></trkpt><trkpt lat="42.8197444" lon="12.6142228"><ele>473.5</ele><time>2026-04-11T14:47:16.352Z</time></trkpt><trkpt lat="42.8196452" lon="12.6140649"><ele>472.0</ele><time>2026-04-11T14:47:17.37Z</time></trkpt><trkpt lat="42.8195488" lon="12.6139089"><ele>470.5</ele><time>2026-04-11T14:47:18.353Z</time></trkpt><trkpt lat="42.8194532" lon="12.6137693"><ele>469.0</ele><time>2026-04-11T14:47:19.365Z</time></trkpt><trkpt lat="42.8193574" lon="12.6136388"><ele>470.0</ele><time>2026-04-11T14:47:20.357Z</time></trkpt><trkpt lat="42.8192667" lon="12.6135227"><ele>471.0</ele><time>2026-04-11T14:47:21.376Z</time></trkpt><trkpt lat="42.8191764" lon="12.6134241"><ele>472.0</ele><time>2026-04-11T14:47:22.365Z</time></trkpt><trkpt lat="42.8190857" lon="12.6133507"><ele>473.0</ele><time>2026-04-11T14:47:23.373Z</time></trkpt><trkpt lat="42.8189818" lon="12.6133003"><ele>473.0</ele><time>2026-04-11T14:47:24.358Z</time></trkpt><trkpt lat="42.8188678" lon="12.6132854"><ele>473.0</ele><time>2026-04-11T14:47:25.371Z</time></trkpt><trkpt lat="42.8187436" lon="12.6132844"><ele>473.0</ele><time>2026-04-11T14:47:26.363Z</time></trkpt><trkpt lat="42.8186157" lon="12.6132943"><ele>473.0</ele><time>2026-04-11T14:47:27.372Z</time></trkpt><trkpt lat="42.8184885" lon="12.6133015"><ele>473.5</ele><time>2026-04-11T14:47:28.362Z</time></trkpt><trkpt lat="42.8183564" lon="12.6133181"><ele>474.0</ele><time>2026-04-11T14:47:29.368Z</time></trkpt><trkpt lat="42.8182249" lon="12.6133411"><ele>474.5</ele><time>2026-04-11T14:47:30.358Z</time></trkpt><trkpt lat="42.8180974" lon="12.6133648"><ele>475.0</ele><time>2026-04-11T14:47:31.368Z</time></trkpt><trkpt lat="42.8179798" lon="12.6133875"><ele>475.00000000000006</ele><time>2026-04-11T14:47:32.362Z</time></trkpt><trkpt lat="42.8178744" lon="12.6134029"><ele>475.0</ele><time>2026-04-11T14:47:33.387Z</time></trkpt><trkpt lat="42.8177798" lon="12.6134002"><ele>475.0</ele><time>2026-04-11T14:47:34.357Z</time></trkpt><trkpt lat="42.8176977" lon="12.6133796"><ele>475.0</ele><time>2026-04-11T14:47:35.358Z</time></trkpt><trkpt lat="42.8176404" lon="12.6133257"><ele>475.00000000000006</ele><time>2026-04-11T14:47:36.36Z</time></trkpt><trkpt lat="42.8176278" lon="12.6132383"><ele>475.0</ele><time>2026-04-11T14:47:37.361Z</time></trkpt><trkpt lat="42.8176499" lon="12.6131502"><ele>475.0</ele><time>2026-04-11T14:47:38.358Z</time></trkpt><trkpt lat="42.8176999" lon="12.6130635"><ele>475.0</ele><time>2026-04-11T14:47:39.375Z</time></trkpt><trkpt lat="42.8177742" lon="12.6129896"><ele>475.0</ele><time>2026-04-11T14:47:40.363Z</time></trkpt><trkpt lat="42.8178648" lon="12.6129063"><ele>475.0</ele><time>2026-04-11T14:47:41.372Z</time></trkpt><trkpt lat="42.8179654" lon="12.612857"><ele>475.0</ele><time>2026-04-11T14:47:42.37Z</time></trkpt><trkpt lat="42.8180417" lon="12.6127691"><ele>476.5</ele><time>2026-04-11T14:47:43.363Z</time></trkpt><trkpt lat="42.8180566" lon="12.6126312"><ele>478.0</ele><time>2026-04-11T14:47:44.362Z</time></trkpt><trkpt lat="42.8180219" lon="12.6124405"><ele>479.5</ele><time>2026-04-11T14:47:45.375Z</time></trkpt><trkpt lat="42.8179739" lon="12.6122471"><ele>481.0</ele><time>2026-04-11T14:47:46.359Z</time></trkpt><trkpt lat="42.817937" lon="12.6120271"><ele>478.5</ele><time>2026-04-11T14:47:47.364Z</time></trkpt><trkpt lat="42.8179062" lon="12.6118283"><ele>476.0</ele><time>2026-04-11T14:47:48.355Z</time></trkpt><trkpt lat="42.817877" lon="12.6116453"><ele>473.5</ele><time>2026-04-11T14:47:49.368Z</time></trkpt><trkpt lat="42.8178455" lon="12.6114807"><ele>471.0</ele><time>2026-04-11T14:47:50.361Z</time></trkpt><trkpt lat="42.8177747" lon="12.6113485"><ele>471.0</ele><time>2026-04-11T14:47:51.363Z</time></trkpt><trkpt lat="42.8176535" lon="12.6112683"><ele>471.0</ele><time>2026-04-11T14:47:52.367Z</time></trkpt><trkpt lat="42.8175388" lon="12.611196"><ele>471.0</ele><time>2026-04-11T14:47:53.38Z</time></trkpt><trkpt lat="42.8174419" lon="12.611095"><ele>471.0</ele><time>2026-04-11T14:47:54.367Z</time></trkpt><trkpt lat="42.8173786" lon="12.6109508"><ele>467.25</ele><time>2026-04-11T14:47:55.373Z</time></trkpt><trkpt lat="42.8173325" lon="12.6107677"><ele>463.5</ele><time>2026-04-11T14:47:56.366Z</time></trkpt><trkpt lat="42.8172914" lon="12.6105742"><ele>459.75</ele><time>2026-04-11T14:47:57.383Z</time></trkpt><trkpt lat="42.817251" lon="12.6103726"><ele>456.0</ele><time>2026-04-11T14:47:58.36Z</time></trkpt><trkpt lat="42.817198" lon="12.6101759"><ele>453.66666666666663</ele><time>2026-04-11T14:47:59.391Z</time></trkpt><trkpt lat="42.817124" lon="12.6100058"><ele>451.3333333333333</ele><time>2026-04-11T14:48:00.356Z</time></trkpt><trkpt lat="42.8170187" lon="12.6098634"><ele>449.0</ele><time>2026-04-11T14:48:01.378Z</time></trkpt><trkpt lat="42.8168907" lon="12.6097345"><ele>448.0</ele><time>2026-04-11T14:48:02.364Z</time></trkpt><trkpt lat="42.8167607" lon="12.609594"><ele>447.0</ele><time>2026-04-11T14:48:03.369Z</time></trkpt><trkpt lat="42.8166335" lon="12.6094605"><ele>446.0</ele><time>2026-04-11T14:48:04.352Z</time></trkpt><trkpt lat="42.8165074" lon="12.6093115"><ele>447.5</ele><time>2026-04-11T14:48:05.371Z</time></trkpt><trkpt lat="42.8163939" lon="12.6091766"><ele>449.0</ele><time>2026-04-11T14:48:06.373Z</time></trkpt><trkpt lat="42.8163016" lon="12.6090485"><ele>450.5</ele><time>2026-04-11T14:48:07.363Z</time></trkpt><trkpt lat="42.8162142" lon="12.6089235"><ele>452.0</ele><time>2026-04-11T14:48:08.357Z</time></trkpt><trkpt lat="42.8161654" lon="12.6087668"><ele>454.0</ele><time>2026-04-11T14:48:09.368Z</time></trkpt><trkpt lat="42.8161421" lon="12.6085818"><ele>456.0</ele><time>2026-04-11T14:48:10.371Z</time></trkpt><trkpt lat="42.8161181" lon="12.6083855"><ele>458.0</ele><time>2026-04-11T14:48:11.378Z</time></trkpt><trkpt lat="42.816083" lon="12.6081831"><ele>460.0</ele><time>2026-04-11T14:48:12.359Z</time></trkpt><trkpt lat="42.8160441" lon="12.6079828"><ele>462.25</ele><time>2026-04-11T14:48:13.368Z</time></trkpt><trkpt lat="42.816014" lon="12.6077899"><ele>464.5</ele><time>2026-04-11T14:48:14.359Z</time></trkpt><trkpt lat="42.8160097" lon="12.6075978"><ele>466.75</ele><time>2026-04-11T14:48:15.369Z</time></trkpt><trkpt lat="42.8160186" lon="12.6074154"><ele>469.0</ele><time>2026-04-11T14:48:16.356Z</time></trkpt><trkpt lat="42.8160312" lon="12.6072799"><ele>469.0</ele><time>2026-04-11T14:48:17.381Z</time></trkpt><trkpt lat="42.8160264" lon="12.6071568"><ele>469.0</ele><time>2026-04-11T14:48:18.356Z</time></trkpt><trkpt lat="42.8159983" lon="12.607031"><ele>469.0</ele><time>2026-04-11T14:48:19.371Z</time></trkpt><trkpt lat="42.8159574" lon="12.6069087"><ele>469.0</ele><time>2026-04-11T14:48:20.358Z</time></trkpt><trkpt lat="42.8159157" lon="12.606785"><ele>469.0</ele><time>2026-04-11T14:48:21.376Z</time></trkpt><trkpt lat="42.8158788" lon="12.6066637"><ele>471.0</ele><time>2026-04-11T14:48:22.367Z</time></trkpt><trkpt lat="42.8158444" lon="12.6065306"><ele>473.0</ele><time>2026-04-11T14:48:23.358Z</time></trkpt><trkpt lat="42.8158092" lon="12.6063981"><ele>475.0</ele><time>2026-04-11T14:48:24.361Z</time></trkpt><trkpt lat="42.8157742" lon="12.6062628"><ele>477.0</ele><time>2026-04-11T14:48:25.367Z</time></trkpt><trkpt lat="42.8157378" lon="12.6061328"><ele>479.0</ele><time>2026-04-11T14:48:26.354Z</time></trkpt><trkpt lat="42.8156997" lon="12.6060034"><ele>480.2</ele><time>2026-04-11T14:48:27.366Z</time></trkpt><trkpt lat="42.8156551" lon="12.6058712"><ele>481.4</ele><time>2026-04-11T14:48:28.351Z</time></trkpt><trkpt lat="42.8156096" lon="12.6057326"><ele>482.6</ele><time>2026-04-11T14:48:29.359Z</time></trkpt><trkpt lat="42.8155681" lon="12.6055918"><ele>483.8</ele><time>2026-04-11T14:48:30.349Z</time></trkpt><trkpt lat="42.8155192" lon="12.6054527"><ele>485.0</ele><time>2026-04-11T14:48:31.367Z</time></trkpt><trkpt lat="42.8154638" lon="12.6053171"><ele>486.5</ele><time>2026-04-11T14:48:32.355Z</time></trkpt><trkpt lat="42.8154087" lon="12.6051772"><ele>488.0</ele><time>2026-04-11T14:48:33.368Z</time></trkpt><trkpt lat="42.8153481" lon="12.6050316"><ele>489.5</ele><time>2026-04-11T14:48:34.351Z</time></trkpt><trkpt lat="42.8152894" lon="12.6048853"><ele>491.0</ele><time>2026-04-11T14:48:35.358Z</time></trkpt><trkpt lat="42.8152385" lon="12.6047398"><ele>491.0</ele><time>2026-04-11T14:48:36.354Z</time></trkpt><trkpt lat="42.8151889" lon="12.6045894"><ele>491.0</ele><time>2026-04-11T14:48:37.361Z</time></trkpt><trkpt lat="42.8151442" lon="12.6044539"><ele>491.0</ele><time>2026-04-11T14:48:38.348Z</time></trkpt><trkpt lat="42.8151176" lon="12.6043256"><ele>491.0</ele><time>2026-04-11T14:48:39.35Z</time></trkpt><trkpt lat="42.8151132" lon="12.6042111"><ele>491.0</ele><time>2026-04-11T14:48:40.358Z</time></trkpt><trkpt lat="42.8151285" lon="12.604121"><ele>494.8</ele><time>2026-04-11T14:48:41.355Z</time></trkpt><trkpt lat="42.81521" lon="12.6040659"><ele>498.6</ele><time>2026-04-11T14:48:43.353Z</time></trkpt><trkpt lat="42.8153043" lon="12.6041236"><ele>502.4</ele><time>2026-04-11T14:48:45.354Z</time></trkpt><trkpt lat="42.8153999" lon="12.6042213"><ele>506.2</ele><time>2026-04-11T14:48:47.353Z</time></trkpt><trkpt lat="42.8154746" lon="12.6042617"><ele>510.0</ele><time>2026-04-11T14:48:48.35Z</time></trkpt><trkpt lat="42.8155495" lon="12.6042954"><ele>510.0</ele><time>2026-04-11T14:48:49.369Z</time></trkpt><trkpt lat="42.8156418" lon="12.6043218"><ele>510.0</ele><time>2026-04-11T14:48:50.355Z</time></trkpt><trkpt lat="42.8157355" lon="12.6043434"><ele>510.0</ele><time>2026-04-11T14:48:51.364Z</time></trkpt><trkpt lat="42.8158282" lon="12.6043608"><ele>510.0</ele><time>2026-04-11T14:48:52.355Z</time></trkpt><trkpt lat="42.8159078" lon="12.604377"><ele>510.0</ele><time>2026-04-11T14:48:53.37Z</time></trkpt><trkpt lat="42.8159836" lon="12.6043797"><ele>510.0</ele><time>2026-04-11T14:48:54.346Z</time></trkpt><trkpt lat="42.8160555" lon="12.6043689"><ele>513.3333333333334</ele><time>2026-04-11T14:48:55.356Z</time></trkpt><trkpt lat="42.8161291" lon="12.6043405"><ele>516.6666666666666</ele><time>2026-04-11T14:48:56.345Z</time></trkpt><trkpt lat="42.8162024" lon="12.6043203"><ele>520.0</ele><time>2026-04-11T14:48:57.372Z</time></trkpt><trkpt lat="42.8162776" lon="12.6043037"><ele>523.3333333333333</ele><time>2026-04-11T14:48:58.354Z</time></trkpt><trkpt lat="42.8163413" lon="12.6043068"><ele>526.6666666666666</ele><time>2026-04-11T14:48:59.369Z</time></trkpt><trkpt lat="42.8164317" lon="12.6042804"><ele>530.0</ele><time>2026-04-11T14:49:01.373Z</time></trkpt><trkpt lat="42.8164256" lon="12.6041602"><ele>530.0</ele><time>2026-04-11T14:49:03.365Z</time></trkpt><trkpt lat="42.816311" lon="12.6040949"><ele>530.0</ele><time>2026-04-11T14:49:05.353Z</time></trkpt><trkpt lat="42.8162302" lon="12.6040778"><ele>530.0</ele><time>2026-04-11T14:49:06.356Z</time></trkpt><trkpt lat="42.8161525" lon="12.6040504"><ele>530.0</ele><time>2026-04-11T14:49:07.368Z</time></trkpt><trkpt lat="42.8160729" lon="12.6040108"><ele>530.0</ele><time>2026-04-11T14:49:08.358Z</time></trkpt><trkpt lat="42.8159808" lon="12.6039545"><ele>532.75</ele><time>2026-04-11T14:49:09.389Z</time></trkpt><trkpt lat="42.8158795" lon="12.6038659"><ele>535.5</ele><time>2026-04-11T14:49:10.354Z</time></trkpt><trkpt lat="42.8157785" lon="12.6037795"><ele>538.25</ele><time>2026-04-11T14:49:11.373Z</time></trkpt><trkpt lat="42.8156846" lon="12.6036868"><ele>541.0</ele><time>2026-04-11T14:49:12.357Z</time></trkpt><trkpt lat="42.8156021" lon="12.6035974"><ele>541.0</ele><time>2026-04-11T14:49:13.368Z</time></trkpt><trkpt lat="42.8155273" lon="12.6035225"><ele>541.0</ele><time>2026-04-11T14:49:14.353Z</time></trkpt><trkpt lat="42.8154706" lon="12.6034547"><ele>541.0</ele><time>2026-04-11T14:49:15.364Z</time></trkpt><trkpt lat="42.8154293" lon="12.6033583"><ele>541.0</ele><time>2026-04-11T14:49:17.363Z</time></trkpt><trkpt lat="42.8154458" lon="12.6032707"><ele>541.0</ele><time>2026-04-11T14:49:19.369Z</time></trkpt><trkpt lat="42.8155398" lon="12.6032765"><ele>541.0</ele><time>2026-04-11T14:49:21.376Z</time></trkpt><trkpt lat="42.8155998" lon="12.6033408"><ele>541.0</ele><time>2026-04-11T14:49:22.358Z</time></trkpt><trkpt lat="42.8156772" lon="12.6033988"><ele>541.0</ele><time>2026-04-11T14:49:23.357Z</time></trkpt><trkpt lat="42.8157658" lon="12.6034495"><ele>541.0</ele><time>2026-04-11T14:49:24.354Z</time></trkpt><trkpt lat="42.815866" lon="12.6034759"><ele>541.0</ele><time>2026-04-11T14:49:25.361Z</time></trkpt><trkpt lat="42.8159742" lon="12.6034986"><ele>541.0</ele><time>2026-04-11T14:49:26.359Z</time></trkpt><trkpt lat="42.8160971" lon="12.6035096"><ele>543.75</ele><time>2026-04-11T14:49:27.373Z</time></trkpt><trkpt lat="42.8162222" lon="12.603507"><ele>546.5</ele><time>2026-04-11T14:49:28.368Z</time></trkpt><trkpt lat="42.8163422" lon="12.6035049"><ele>549.25</ele><time>2026-04-11T14:49:29.367Z</time></trkpt><trkpt lat="42.8164658" lon="12.6035013"><ele>552.0</ele><time>2026-04-11T14:49:30.358Z</time></trkpt><trkpt lat="42.8165884" lon="12.6035018"><ele>552.0</ele><time>2026-04-11T14:49:31.37Z</time></trkpt><trkpt lat="42.8167133" lon="12.60348"><ele>552.0</ele><time>2026-04-11T14:49:32.362Z</time></trkpt><trkpt lat="42.8168371" lon="12.6034469"><ele>552.0</ele><time>2026-04-11T14:49:33.372Z</time></trkpt><trkpt lat="42.8169528" lon="12.6034171"><ele>552.0</ele><time>2026-04-11T14:49:34.363Z</time></trkpt><trkpt lat="42.8170528" lon="12.6033845"><ele>552.3333333333334</ele><time>2026-04-11T14:49:35.378Z</time></trkpt><trkpt lat="42.8171434" lon="12.6033759"><ele>552.6666666666666</ele><time>2026-04-11T14:49:36.358Z</time></trkpt><trkpt lat="42.8172199" lon="12.6033998"><ele>553.0</ele><time>2026-04-11T14:49:37.369Z</time></trkpt><trkpt lat="42.8172854" lon="12.6034656"><ele>553.3333333333333</ele><time>2026-04-11T14:49:38.352Z</time></trkpt><trkpt lat="42.8173383" lon="12.6035396"><ele>553.6666666666666</ele><time>2026-04-11T14:49:39.38Z</time></trkpt><trkpt lat="42.8174222" lon="12.6036157"><ele>554.0</ele><time>2026-04-11T14:49:41.366Z</time></trkpt><trkpt lat="42.8175144" lon="12.6036276"><ele>554.0</ele><time>2026-04-11T14:49:43.368Z</time></trkpt><trkpt lat="42.8176061" lon="12.6036115"><ele>554.0</ele><time>2026-04-11T14:49:45.374Z</time></trkpt><trkpt lat="42.8176584" lon="12.6035468"><ele>554.0</ele><time>2026-04-11T14:49:47.38Z</time></trkpt><trkpt lat="42.8176454" lon="12.6034106"><ele>554.0</ele><time>2026-04-11T14:49:50.361Z</time></trkpt><trkpt lat="42.8176043" lon="12.6032703"><ele>554.0</ele><time>2026-04-11T14:49:52.354Z</time></trkpt><trkpt lat="42.8175685" lon="12.6031986"><ele>554.0</ele><time>2026-04-11T14:49:53.375Z</time></trkpt><trkpt lat="42.8175312" lon="12.6031259"><ele>554.0</ele><time>2026-04-11T14:49:54.358Z</time></trkpt><trkpt lat="42.8174895" lon="12.6030537"><ele>554.0</ele><time>2026-04-11T14:49:55.368Z</time></trkpt><trkpt lat="42.8174482" lon="12.6029792"><ele>554.0</ele><time>2026-04-11T14:49:56.349Z</time></trkpt><trkpt lat="42.8174083" lon="12.6029008"><ele>554.0</ele><time>2026-04-11T14:49:57.358Z</time></trkpt><trkpt lat="42.8173584" lon="12.6028284"><ele>554.0</ele><time>2026-04-11T14:49:58.365Z</time></trkpt><trkpt lat="42.8172999" lon="12.6027767"><ele>554.0</ele><time>2026-04-11T14:49:59.363Z</time></trkpt><trkpt lat="42.8171945" lon="12.6027387"><ele>553.3333333333333</ele><time>2026-04-11T14:50:01.358Z</time></trkpt><trkpt lat="42.8171094" lon="12.6027768"><ele>552.6666666666666</ele><time>2026-04-11T14:50:03.374Z</time></trkpt><trkpt lat="42.8170461" lon="12.6027331"><ele>552.0</ele><time>2026-04-11T14:50:05.369Z</time></trkpt><trkpt lat="42.8170164" lon="12.6026291"><ele>551.3333333333334</ele><time>2026-04-11T14:50:07.361Z</time></trkpt><trkpt lat="42.8170205" lon="12.6025171"><ele>550.6666666666667</ele><time>2026-04-11T14:50:09.379Z</time></trkpt><trkpt lat="42.8170149" lon="12.6023851"><ele>550.0</ele><time>2026-04-11T14:50:11.369Z</time></trkpt><trkpt lat="42.8169534" lon="12.6023201"><ele>550.0</ele><time>2026-04-11T14:50:13.37Z</time></trkpt><trkpt lat="42.8168633" lon="12.6023102"><ele>550.0</ele><time>2026-04-11T14:50:15.374Z</time></trkpt><trkpt lat="42.8167464" lon="12.6023265"><ele>550.0</ele><time>2026-04-11T14:50:17.376Z</time></trkpt><trkpt lat="42.8166768" lon="12.6023343"><ele>550.0</ele><time>2026-04-11T14:50:18.36Z</time></trkpt><trkpt lat="42.816612" lon="12.6023369"><ele>550.0</ele><time>2026-04-11T14:50:19.36Z</time></trkpt><trkpt lat="42.8165045" lon="12.6022772"><ele>553.3333333333334</ele><time>2026-04-11T14:50:21.366Z</time></trkpt><trkpt lat="42.8164057" lon="12.6021685"><ele>556.6666666666667</ele><time>2026-04-11T14:50:23.357Z</time></trkpt><trkpt lat="42.8163564" lon="12.6021115"><ele>560.0</ele><time>2026-04-11T14:50:24.359Z</time></trkpt><trkpt lat="42.816297" lon="12.6020525"><ele>563.3333333333334</ele><time>2026-04-11T14:50:25.363Z</time></trkpt><trkpt lat="42.8162333" lon="12.601984"><ele>566.6666666666666</ele><time>2026-04-11T14:50:26.362Z</time></trkpt><trkpt lat="42.8161597" lon="12.6019133"><ele>570.0</ele><time>2026-04-11T14:50:27.371Z</time></trkpt><trkpt lat="42.8160858" lon="12.6018447"><ele>572.6</ele><time>2026-04-11T14:50:28.37Z</time></trkpt><trkpt lat="42.8160108" lon="12.6017691"><ele>575.2</ele><time>2026-04-11T14:50:29.367Z</time></trkpt><trkpt lat="42.815926" lon="12.6016999"><ele>577.8</ele><time>2026-04-11T14:50:30.363Z</time></trkpt><trkpt lat="42.8158484" lon="12.6016294"><ele>580.4</ele><time>2026-04-11T14:50:31.371Z</time></trkpt><trkpt lat="42.8157785" lon="12.6015578"><ele>583.0</ele><time>2026-04-11T14:50:32.359Z</time></trkpt><trkpt lat="42.8157171" lon="12.6014768"><ele>584.1999999999999</ele><time>2026-04-11T14:50:33.366Z</time></trkpt><trkpt lat="42.8156617" lon="12.601392"><ele>585.4</ele><time>2026-04-11T14:50:34.368Z</time></trkpt><trkpt lat="42.8156146" lon="12.6013007"><ele>586.5999999999999</ele><time>2026-04-11T14:50:35.382Z</time></trkpt><trkpt lat="42.8155594" lon="12.6012047"><ele>587.8</ele><time>2026-04-11T14:50:36.356Z</time></trkpt><trkpt lat="42.8155009" lon="12.6011029"><ele>589.0</ele><time>2026-04-11T14:50:37.374Z</time></trkpt><trkpt lat="42.8154378" lon="12.6009901"><ele>588.2</ele><time>2026-04-11T14:50:38.368Z</time></trkpt><trkpt lat="42.8153774" lon="12.6008698"><ele>587.4</ele><time>2026-04-11T14:50:39.364Z</time></trkpt><trkpt lat="42.8153126" lon="12.6007474"><ele>586.6</ele><time>2026-04-11T14:50:40.371Z</time></trkpt><trkpt lat="42.815251" lon="12.600621"><ele>585.8</ele><time>2026-04-11T14:50:41.373Z</time></trkpt><trkpt lat="42.8151865" lon="12.6004991"><ele>585.0</ele><time>2026-04-11T14:50:42.374Z</time></trkpt><trkpt lat="42.8151172" lon="12.6003798"><ele>588.6</ele><time>2026-04-11T14:50:43.363Z</time></trkpt><trkpt lat="42.8150442" lon="12.600272"><ele>592.2</ele><time>2026-04-11T14:50:44.355Z</time></trkpt><trkpt lat="42.814968" lon="12.600162"><ele>595.8</ele><time>2026-04-11T14:50:45.373Z</time></trkpt><trkpt lat="42.8148912" lon="12.6000557"><ele>599.4</ele><time>2026-04-11T14:50:46.365Z</time></trkpt><trkpt lat="42.814804" lon="12.5999466"><ele>603.0</ele><time>2026-04-11T14:50:47.368Z</time></trkpt><trkpt lat="42.8147136" lon="12.5998456"><ele>603.0</ele><time>2026-04-11T14:50:48.367Z</time></trkpt><trkpt lat="42.8146223" lon="12.5997529"><ele>603.0</ele><time>2026-04-11T14:50:49.356Z</time></trkpt><trkpt lat="42.8145393" lon="12.5996696"><ele>603.0</ele><time>2026-04-11T14:50:50.364Z</time></trkpt><trkpt lat="42.8144624" lon="12.5995834"><ele>603.0</ele><time>2026-04-11T14:50:51.359Z</time></trkpt><trkpt lat="42.8143817" lon="12.5994884"><ele>603.0</ele><time>2026-04-11T14:50:52.364Z</time></trkpt><trkpt lat="42.8143028" lon="12.5993934"><ele>603.0</ele><time>2026-04-11T14:50:53.375Z</time></trkpt><trkpt lat="42.8142287" lon="12.5992909"><ele>603.0</ele><time>2026-04-11T14:50:54.356Z</time></trkpt><trkpt lat="42.8141548" lon="12.5991796"><ele>603.0</ele><time>2026-04-11T14:50:55.358Z</time></trkpt><trkpt lat="42.8140895" lon="12.5990661"><ele>603.0</ele><time>2026-04-11T14:50:56.36Z</time></trkpt><trkpt lat="42.8140237" lon="12.5989471"><ele>603.0</ele><time>2026-04-11T14:50:57.364Z</time></trkpt><trkpt lat="42.8139533" lon="12.5988273"><ele>603.0</ele><time>2026-04-11T14:50:58.366Z</time></trkpt><trkpt lat="42.8138898" lon="12.5987006"><ele>603.0</ele><time>2026-04-11T14:50:59.38Z</time></trkpt><trkpt lat="42.8138326" lon="12.5985824"><ele>603.0</ele><time>2026-04-11T14:51:00.374Z</time></trkpt><trkpt lat="42.8137776" lon="12.5984833"><ele>603.0</ele><time>2026-04-11T14:51:01.371Z</time></trkpt><trkpt lat="42.8137293" lon="12.5983908"><ele>603.0</ele><time>2026-04-11T14:51:02.367Z</time></trkpt><trkpt lat="42.8137039" lon="12.5982916"><ele>605.3333333333334</ele><time>2026-04-11T14:51:03.363Z</time></trkpt><trkpt lat="42.8136612" lon="12.5981499"><ele>607.6666666666666</ele><time>2026-04-11T14:51:05.361Z</time></trkpt><trkpt lat="42.813625" lon="12.5980548"><ele>610.0</ele><time>2026-04-11T14:51:07.359Z</time></trkpt><trkpt lat="42.8135928" lon="12.5979605"><ele>612.3333333333333</ele><time>2026-04-11T14:51:09.376Z</time></trkpt><trkpt lat="42.8135954" lon="12.5978407"><ele>614.6666666666666</ele><time>2026-04-11T14:51:11.374Z</time></trkpt><trkpt lat="42.8135425" lon="12.5977742"><ele>617.0</ele><time>2026-04-11T14:51:14.36Z</time></trkpt><trkpt lat="42.8134651" lon="12.5978315"><ele>615.2</ele><time>2026-04-11T14:51:16.364Z</time></trkpt><trkpt lat="42.8133651" lon="12.5979125"><ele>613.4000000000001</ele><time>2026-04-11T14:51:18.368Z</time></trkpt><trkpt lat="42.8133042" lon="12.5979421"><ele>611.5999999999999</ele><time>2026-04-11T14:51:19.371Z</time></trkpt><trkpt lat="42.8131824" lon="12.5979746"><ele>609.8</ele><time>2026-04-11T14:51:21.365Z</time></trkpt><trkpt lat="42.8130718" lon="12.5980009"><ele>608.0</ele><time>2026-04-11T14:51:23.378Z</time></trkpt><trkpt lat="42.8129721" lon="12.5980073"><ele>608.0</ele><time>2026-04-11T14:51:25.373Z</time></trkpt><trkpt lat="42.812864" lon="12.5980243"><ele>608.0</ele><time>2026-04-11T14:51:27.357Z</time></trkpt><trkpt lat="42.8127916" lon="12.5980359"><ele>608.0</ele><time>2026-04-11T14:51:29.371Z</time></trkpt><trkpt lat="42.8127096" lon="12.5980798"><ele>608.0</ele><time>2026-04-11T14:52:18.357Z</time></trkpt><trkpt lat="42.8125794" lon="12.5981237"><ele>608.0</ele><time>2026-04-11T14:52:20.363Z</time></trkpt><trkpt lat="42.8125154" lon="12.5981523"><ele>610.1666666666666</ele><time>2026-04-11T14:52:21.37Z</time></trkpt><trkpt lat="42.8124529" lon="12.5981854"><ele>612.3333333333333</ele><time>2026-04-11T14:52:22.361Z</time></trkpt><trkpt lat="42.8123841" lon="12.5982233"><ele>614.5</ele><time>2026-04-11T14:52:23.358Z</time></trkpt><trkpt lat="42.8122739" lon="12.5982769"><ele>616.6666666666666</ele><time>2026-04-11T14:52:25.365Z</time></trkpt><trkpt lat="42.8122141" lon="12.5983462"><ele>618.8333333333334</ele><time>2026-04-11T14:52:27.362Z</time></trkpt><trkpt lat="42.8121506" lon="12.5984367"><ele>621.0</ele><time>2026-04-11T14:52:29.368Z</time></trkpt><trkpt lat="42.8120819" lon="12.5985508"><ele>621.0</ele><time>2026-04-11T14:52:31.361Z</time></trkpt><trkpt lat="42.8119975" lon="12.5985862"><ele>621.0</ele><time>2026-04-11T14:52:33.361Z</time></trkpt><trkpt lat="42.811887" lon="12.5985235"><ele>621.0</ele><time>2026-04-11T14:52:35.357Z</time></trkpt><trkpt lat="42.8118049" lon="12.5984978"><ele>621.0</ele><time>2026-04-11T14:52:36.356Z</time></trkpt><trkpt lat="42.8117261" lon="12.5984794"><ele>621.0</ele><time>2026-04-11T14:52:37.371Z</time></trkpt><trkpt lat="42.8116432" lon="12.5984509"><ele>622.2857142857142</ele><time>2026-04-11T14:52:38.357Z</time></trkpt><trkpt lat="42.811573" lon="12.5984096"><ele>623.5714285714286</ele><time>2026-04-11T14:52:39.372Z</time></trkpt><trkpt lat="42.8115001" lon="12.5983647"><ele>624.8571428571429</ele><time>2026-04-11T14:52:40.359Z</time></trkpt><trkpt lat="42.8114286" lon="12.5983167"><ele>626.1428571428571</ele><time>2026-04-11T14:52:41.359Z</time></trkpt><trkpt lat="42.811372" lon="12.5982692"><ele>627.4285714285714</ele><time>2026-04-11T14:52:42.37Z</time></trkpt><trkpt lat="42.8112956" lon="12.5982339"><ele>628.7142857142857</ele><time>2026-04-11T14:52:44.357Z</time></trkpt><trkpt lat="42.8112563" lon="12.5981629"><ele>630.0</ele><time>2026-04-11T14:52:46.367Z</time></trkpt><trkpt lat="42.8112462" lon="12.5980359"><ele>630.0</ele><time>2026-04-11T14:52:48.359Z</time></trkpt><trkpt lat="42.8112581" lon="12.5979099"><ele>630.0</ele><time>2026-04-11T14:52:50.36Z</time></trkpt><trkpt lat="42.8112382" lon="12.5977835"><ele>630.0</ele><time>2026-04-11T14:52:52.356Z</time></trkpt><trkpt lat="42.8112182" lon="12.5976341"><ele>630.0</ele><time>2026-04-11T14:52:54.371Z</time></trkpt><trkpt lat="42.811234" lon="12.5974655"><ele>630.0</ele><time>2026-04-11T14:52:56.378Z</time></trkpt><trkpt lat="42.8112418" lon="12.5973711"><ele>631.3333333333334</ele><time>2026-04-11T14:52:57.378Z</time></trkpt><trkpt lat="42.8112472" lon="12.5972809"><ele>632.6666666666666</ele><time>2026-04-11T14:52:58.374Z</time></trkpt><trkpt lat="42.8112523" lon="12.5971901"><ele>634.0</ele><time>2026-04-11T14:52:59.373Z</time></trkpt><trkpt lat="42.8112511" lon="12.5971029"><ele>635.3333333333333</ele><time>2026-04-11T14:53:00.356Z</time></trkpt><trkpt lat="42.8112083" lon="12.596948"><ele>636.6666666666666</ele><time>2026-04-11T14:53:02.362Z</time></trkpt><trkpt lat="42.8111739" lon="12.5967901"><ele>638.0</ele><time>2026-04-11T14:53:04.36Z</time></trkpt><trkpt lat="42.8111681" lon="12.5967034"><ele>639.6666666666666</ele><time>2026-04-11T14:53:05.362Z</time></trkpt><trkpt lat="42.8111594" lon="12.5965329"><ele>641.3333333333333</ele><time>2026-04-11T14:53:07.355Z</time></trkpt><trkpt lat="42.8111665" lon="12.5964455"><ele>643.0</ele><time>2026-04-11T14:53:08.355Z</time></trkpt><trkpt lat="42.8111708" lon="12.5963531"><ele>644.6666666666666</ele><time>2026-04-11T14:53:09.389Z</time></trkpt><trkpt lat="42.81116" lon="12.5962673"><ele>646.3333333333334</ele><time>2026-04-11T14:53:10.369Z</time></trkpt><trkpt lat="42.8111408" lon="12.5961787"><ele>648.0</ele><time>2026-04-11T14:53:11.365Z</time></trkpt><trkpt lat="42.8111201" lon="12.5960883"><ele>650.8333333333334</ele><time>2026-04-11T14:53:12.36Z</time></trkpt><trkpt lat="42.811095" lon="12.5960057"><ele>653.6666666666666</ele><time>2026-04-11T14:53:13.358Z</time></trkpt><trkpt lat="42.8110669" lon="12.5959254"><ele>656.5</ele><time>2026-04-11T14:53:14.365Z</time></trkpt><trkpt lat="42.8110317" lon="12.5957664"><ele>659.3333333333333</ele><time>2026-04-11T14:53:16.361Z</time></trkpt><trkpt lat="42.8110185" lon="12.5956798"><ele>662.1666666666666</ele><time>2026-04-11T14:53:17.383Z</time></trkpt><trkpt lat="42.8110169" lon="12.5955825"><ele>665.0</ele><time>2026-04-11T14:53:18.354Z</time></trkpt><trkpt lat="42.8110179" lon="12.5954902"><ele>665.0</ele><time>2026-04-11T14:53:19.365Z</time></trkpt><trkpt lat="42.8110149" lon="12.5953997"><ele>665.0</ele><time>2026-04-11T14:53:20.359Z</time></trkpt><trkpt lat="42.8110078" lon="12.5952349"><ele>665.0</ele><time>2026-04-11T14:53:22.361Z</time></trkpt><trkpt lat="42.8109777" lon="12.5950798"><ele>665.0</ele><time>2026-04-11T14:53:24.361Z</time></trkpt><trkpt lat="42.8109586" lon="12.5949319"><ele>665.0</ele><time>2026-04-11T14:53:26.356Z</time></trkpt><trkpt lat="42.8109866" lon="12.5948003"><ele>667.6</ele><time>2026-04-11T14:53:28.37Z</time></trkpt><trkpt lat="42.8110384" lon="12.5946603"><ele>670.2</ele><time>2026-04-11T14:53:30.366Z</time></trkpt><trkpt lat="42.8110698" lon="12.5945005"><ele>672.8</ele><time>2026-04-11T14:53:32.357Z</time></trkpt><trkpt lat="42.8110854" lon="12.5944066"><ele>675.4</ele><time>2026-04-11T14:53:33.373Z</time></trkpt><trkpt lat="42.8110912" lon="12.5943151"><ele>678.0</ele><time>2026-04-11T14:53:34.356Z</time></trkpt><trkpt lat="42.8111095" lon="12.594144"><ele>681.5</ele><time>2026-04-11T14:53:36.368Z</time></trkpt><trkpt lat="42.8111412" lon="12.593988"><ele>685.0</ele><time>2026-04-11T14:53:38.366Z</time></trkpt><trkpt lat="42.8111836" lon="12.5938269"><ele>688.5</ele><time>2026-04-11T14:53:40.367Z</time></trkpt><trkpt lat="42.8112094" lon="12.5936754"><ele>692.0</ele><time>2026-04-11T14:53:42.372Z</time></trkpt><trkpt lat="42.8112126" lon="12.593513"><ele>695.2</ele><time>2026-04-11T14:53:44.37Z</time></trkpt><trkpt lat="42.8112258" lon="12.5933508"><ele>698.4000000000001</ele><time>2026-04-11T14:53:46.356Z</time></trkpt><trkpt lat="42.8112457" lon="12.5931961"><ele>701.5999999999999</ele><time>2026-04-11T14:53:48.354Z</time></trkpt><trkpt lat="42.8112371" lon="12.5930608"><ele>704.8</ele><time>2026-04-11T14:53:50.359Z</time></trkpt><trkpt lat="42.8111672" lon="12.5929868"><ele>708.0</ele><time>2026-04-11T14:53:52.356Z</time></trkpt><trkpt lat="42.8110822" lon="12.5928836"><ele>711.75</ele><time>2026-04-11T14:53:54.358Z</time></trkpt><trkpt lat="42.8109927" lon="12.5927725"><ele>715.5</ele><time>2026-04-11T14:53:56.362Z</time></trkpt><trkpt lat="42.8108992" lon="12.5926683"><ele>719.25</ele><time>2026-04-11T14:53:58.359Z</time></trkpt><trkpt lat="42.810787" lon="12.5925723"><ele>723.0</ele><time>2026-04-11T14:54:00.354Z</time></trkpt><trkpt lat="42.8107269" lon="12.5925009"><ele>723.5</ele><time>2026-04-11T14:54:01.363Z</time></trkpt><trkpt lat="42.810662" lon="12.592428"><ele>724.0</ele><time>2026-04-11T14:54:02.365Z</time></trkpt><trkpt lat="42.8105888" lon="12.5923617"><ele>724.5</ele><time>2026-04-11T14:54:03.379Z</time></trkpt><trkpt lat="42.8105204" lon="12.5923061"><ele>725.0</ele><time>2026-04-11T14:54:04.362Z</time></trkpt><trkpt lat="42.8104596" lon="12.5922545"><ele>725.5</ele><time>2026-04-11T14:54:05.366Z</time></trkpt><trkpt lat="42.8104056" lon="12.5922002"><ele>726.0</ele><time>2026-04-11T14:54:06.373Z</time></trkpt><trkpt lat="42.8103564" lon="12.5921351"><ele>726.0</ele><time>2026-04-11T14:54:07.365Z</time></trkpt><trkpt lat="42.8103175" lon="12.5920598"><ele>726.0</ele><time>2026-04-11T14:54:08.355Z</time></trkpt><trkpt lat="42.8102839" lon="12.5919796"><ele>726.0</ele><time>2026-04-11T14:54:09.364Z</time></trkpt><trkpt lat="42.8102602" lon="12.5918931"><ele>726.0</ele><time>2026-04-11T14:54:10.372Z</time></trkpt><trkpt lat="42.810233" lon="12.5917566"><ele>726.0</ele><time>2026-04-11T14:54:12.362Z</time></trkpt><trkpt lat="42.8102455" lon="12.5916441"><ele>726.0</ele><time>2026-04-11T14:54:14.359Z</time></trkpt><trkpt lat="42.81029" lon="12.5915308"><ele>728.0</ele><time>2026-04-11T14:54:16.354Z</time></trkpt><trkpt lat="42.8104028" lon="12.5914509"><ele>730.0</ele><time>2026-04-11T14:54:18.358Z</time></trkpt><trkpt lat="42.8104832" lon="12.5914314"><ele>732.0</ele><time>2026-04-11T14:54:19.355Z</time></trkpt><trkpt lat="42.8105583" lon="12.5914285"><ele>734.0</ele><time>2026-04-11T14:54:20.362Z</time></trkpt><trkpt lat="42.8106365" lon="12.5914184"><ele>736.0</ele><time>2026-04-11T14:54:21.369Z</time></trkpt><trkpt lat="42.8107124" lon="12.5914048"><ele>738.0</ele><time>2026-04-11T14:54:22.369Z</time></trkpt><trkpt lat="42.8107787" lon="12.5913882"><ele>738.0</ele><time>2026-04-11T14:54:23.359Z</time></trkpt><trkpt lat="42.810837" lon="12.5913501"><ele>738.0</ele><time>2026-04-11T14:54:24.357Z</time></trkpt><trkpt lat="42.8108971" lon="12.5913049"><ele>738.0</ele><time>2026-04-11T14:54:25.365Z</time></trkpt><trkpt lat="42.8109587" lon="12.5912462"><ele>738.0</ele><time>2026-04-11T14:54:26.385Z</time></trkpt><trkpt lat="42.8110229" lon="12.5912052"><ele>738.0</ele><time>2026-04-11T14:54:27.375Z</time></trkpt><trkpt lat="42.8111003" lon="12.5911833"><ele>738.0</ele><time>2026-04-11T14:54:28.365Z</time></trkpt><trkpt lat="42.8111778" lon="12.5911749"><ele>738.0</ele><time>2026-04-11T14:54:29.368Z</time></trkpt><trkpt lat="42.8112635" lon="12.591157"><ele>739.6666666666666</ele><time>2026-04-11T14:54:30.37Z</time></trkpt><trkpt lat="42.8113411" lon="12.5911284"><ele>741.3333333333334</ele><time>2026-04-11T14:54:31.391Z</time></trkpt><trkpt lat="42.8114216" lon="12.5911045"><ele>743.0</ele><time>2026-04-11T14:54:32.354Z</time></trkpt><trkpt lat="42.8115007" lon="12.5910887"><ele>744.6666666666667</ele><time>2026-04-11T14:54:33.37Z</time></trkpt><trkpt lat="42.8115758" lon="12.5910803"><ele>746.3333333333334</ele><time>2026-04-11T14:54:34.37Z</time></trkpt><trkpt lat="42.8116466" lon="12.5910538"><ele>748.0</ele><time>2026-04-11T14:54:35.372Z</time></trkpt><trkpt lat="42.8117098" lon="12.5910081"><ele>748.0</ele><time>2026-04-11T14:54:36.356Z</time></trkpt><trkpt lat="42.8117711" lon="12.5909237"><ele>748.0</ele><time>2026-04-11T14:54:37.375Z</time></trkpt><trkpt lat="42.81183" lon="12.5908461"><ele>748.0</ele><time>2026-04-11T14:54:38.361Z</time></trkpt><trkpt lat="42.8118932" lon="12.5907688"><ele>748.0</ele><time>2026-04-11T14:54:39.359Z</time></trkpt><trkpt lat="42.8119616" lon="12.5907017"><ele>748.0</ele><time>2026-04-11T14:54:40.364Z</time></trkpt><trkpt lat="42.8120355" lon="12.5906555"><ele>748.0</ele><time>2026-04-11T14:54:41.36Z</time></trkpt><trkpt lat="42.8121146" lon="12.5906063"><ele>748.1666666666667</ele><time>2026-04-11T14:54:42.361Z</time></trkpt><trkpt lat="42.8121922" lon="12.5905433"><ele>748.3333333333334</ele><time>2026-04-11T14:54:43.356Z</time></trkpt><trkpt lat="42.8122708" lon="12.5904893"><ele>748.5</ele><time>2026-04-11T14:54:44.367Z</time></trkpt><trkpt lat="42.8123545" lon="12.5904475"><ele>748.6666666666666</ele><time>2026-04-11T14:54:45.359Z</time></trkpt><trkpt lat="42.8124342" lon="12.5904024"><ele>748.8333333333333</ele><time>2026-04-11T14:54:46.367Z</time></trkpt><trkpt lat="42.8125165" lon="12.5903438"><ele>749.0</ele><time>2026-04-11T14:54:47.374Z</time></trkpt><trkpt lat="42.8125986" lon="12.5902728"><ele>750.2</ele><time>2026-04-11T14:54:48.356Z</time></trkpt><trkpt lat="42.812686" lon="12.5901964"><ele>751.4000000000001</ele><time>2026-04-11T14:54:49.36Z</time></trkpt><trkpt lat="42.8127818" lon="12.5901152"><ele>752.6</ele><time>2026-04-11T14:54:50.379Z</time></trkpt><trkpt lat="42.8128779" lon="12.5900358"><ele>753.8</ele><time>2026-04-11T14:54:51.364Z</time></trkpt><trkpt lat="42.8129721" lon="12.5899703"><ele>755.0</ele><time>2026-04-11T14:54:52.357Z</time></trkpt><trkpt lat="42.8130626" lon="12.5898808"><ele>755.0</ele><time>2026-04-11T14:54:53.36Z</time></trkpt><trkpt lat="42.8131411" lon="12.5897777"><ele>755.0</ele><time>2026-04-11T14:54:54.355Z</time></trkpt><trkpt lat="42.8132127" lon="12.589672"><ele>755.0</ele><time>2026-04-11T14:54:55.365Z</time></trkpt><trkpt lat="42.8132822" lon="12.5895643"><ele>755.0</ele><time>2026-04-11T14:54:56.371Z</time></trkpt><trkpt lat="42.8133482" lon="12.5894534"><ele>755.0</ele><time>2026-04-11T14:54:57.361Z</time></trkpt><trkpt lat="42.8134115" lon="12.5893322"><ele>754.8</ele><time>2026-04-11T14:54:58.367Z</time></trkpt><trkpt lat="42.8134699" lon="12.589206"><ele>754.6</ele><time>2026-04-11T14:54:59.373Z</time></trkpt><trkpt lat="42.8135206" lon="12.5890787"><ele>754.4000000000001</ele><time>2026-04-11T14:55:00.356Z</time></trkpt><trkpt lat="42.8135778" lon="12.5889341"><ele>754.2</ele><time>2026-04-11T14:55:01.369Z</time></trkpt><trkpt lat="42.8136352" lon="12.588805"><ele>754.0</ele><time>2026-04-11T14:55:02.357Z</time></trkpt><trkpt lat="42.8136969" lon="12.5886938"><ele>756.6</ele><time>2026-04-11T14:55:03.363Z</time></trkpt><trkpt lat="42.813767" lon="12.5885909"><ele>759.2</ele><time>2026-04-11T14:55:04.369Z</time></trkpt><trkpt lat="42.8138474" lon="12.5884842"><ele>761.8000000000001</ele><time>2026-04-11T14:55:05.355Z</time></trkpt><trkpt lat="42.8139256" lon="12.5883801"><ele>764.4000000000001</ele><time>2026-04-11T14:55:06.375Z</time></trkpt><trkpt lat="42.8140134" lon="12.5882771"><ele>767.0</ele><time>2026-04-11T14:55:07.371Z</time></trkpt><trkpt lat="42.8141017" lon="12.5881706"><ele>767.0</ele><time>2026-04-11T14:55:08.357Z</time></trkpt><trkpt lat="42.8141917" lon="12.5880716"><ele>767.0</ele><time>2026-04-11T14:55:09.37Z</time></trkpt><trkpt lat="42.8142834" lon="12.587952"><ele>767.0</ele><time>2026-04-11T14:55:10.363Z</time></trkpt><trkpt lat="42.814369" lon="12.5878248"><ele>767.0</ele><time>2026-04-11T14:55:11.365Z</time></trkpt><trkpt lat="42.8144578" lon="12.5876931"><ele>768.0</ele><time>2026-04-11T14:55:12.357Z</time></trkpt><trkpt lat="42.8145563" lon="12.5875718"><ele>769.0</ele><time>2026-04-11T14:55:13.361Z</time></trkpt><trkpt lat="42.8146553" lon="12.5874642"><ele>770.0</ele><time>2026-04-11T14:55:14.359Z</time></trkpt><trkpt lat="42.8147471" lon="12.5873855"><ele>771.0</ele><time>2026-04-11T14:55:15.374Z</time></trkpt><trkpt lat="42.8148377" lon="12.5873307"><ele>771.0</ele><time>2026-04-11T14:55:16.362Z</time></trkpt><trkpt lat="42.8149251" lon="12.5872916"><ele>771.0</ele><time>2026-04-11T14:55:17.362Z</time></trkpt><trkpt lat="42.8150091" lon="12.5872352"><ele>771.0</ele><time>2026-04-11T14:55:18.365Z</time></trkpt><trkpt lat="42.8150923" lon="12.5871658"><ele>771.0</ele><time>2026-04-11T14:55:19.37Z</time></trkpt><trkpt lat="42.8151759" lon="12.5870926"><ele>771.0</ele><time>2026-04-11T14:55:20.353Z</time></trkpt><trkpt lat="42.815247" lon="12.5870124"><ele>771.5</ele><time>2026-04-11T14:55:21.374Z</time></trkpt><trkpt lat="42.8152953" lon="12.5869405"><ele>772.0</ele><time>2026-04-11T14:55:22.362Z</time></trkpt><trkpt lat="42.8153431" lon="12.586845"><ele>772.5</ele><time>2026-04-11T14:55:23.36Z</time></trkpt><trkpt lat="42.8153887" lon="12.5867312"><ele>773.0</ele><time>2026-04-11T14:55:24.365Z</time></trkpt><trkpt lat="42.8154411" lon="12.5866264"><ele>773.5</ele><time>2026-04-11T14:55:25.369Z</time></trkpt><trkpt lat="42.8155115" lon="12.5865313"><ele>774.0</ele><time>2026-04-11T14:55:26.364Z</time></trkpt><trkpt lat="42.8155831" lon="12.5864496"><ele>774.0</ele><time>2026-04-11T14:55:27.363Z</time></trkpt><trkpt lat="42.8156487" lon="12.5863776"><ele>774.0</ele><time>2026-04-11T14:55:28.361Z</time></trkpt><trkpt lat="42.815701" lon="12.5863163"><ele>774.0</ele><time>2026-04-11T14:55:29.369Z</time></trkpt><trkpt lat="42.8157865" lon="12.5862364"><ele>774.0</ele><time>2026-04-11T14:55:31.365Z</time></trkpt><trkpt lat="42.8158473" lon="12.5861299"><ele>774.0</ele><time>2026-04-11T14:55:33.371Z</time></trkpt><trkpt lat="42.8158657" lon="12.5860191"><ele>774.0</ele><time>2026-04-11T14:55:35.358Z</time></trkpt><trkpt lat="42.8158593" lon="12.585889"><ele>775.8000000000001</ele><time>2026-04-11T14:56:00.359Z</time></trkpt><trkpt lat="42.8158826" lon="12.5857363"><ele>777.6</ele><time>2026-04-11T14:56:02.366Z</time></trkpt><trkpt lat="42.8158844" lon="12.5856443"><ele>779.4</ele><time>2026-04-11T14:56:03.365Z</time></trkpt><trkpt lat="42.8158857" lon="12.5854642"><ele>781.2</ele><time>2026-04-11T14:56:05.372Z</time></trkpt><trkpt lat="42.8159005" lon="12.5853671"><ele>783.0</ele><time>2026-04-11T14:56:06.366Z</time></trkpt><trkpt lat="42.8159237" lon="12.5852798"><ele>783.1428571428571</ele><time>2026-04-11T14:56:07.368Z</time></trkpt><trkpt lat="42.8159571" lon="12.5851968"><ele>783.2857142857143</ele><time>2026-04-11T14:56:08.362Z</time></trkpt><trkpt lat="42.8159883" lon="12.5851162"><ele>783.4285714285714</ele><time>2026-04-11T14:56:09.386Z</time></trkpt><trkpt lat="42.8160126" lon="12.5850301"><ele>783.5714285714286</ele><time>2026-04-11T14:56:10.362Z</time></trkpt><trkpt lat="42.8160218" lon="12.5849329"><ele>783.7142857142858</ele><time>2026-04-11T14:56:11.368Z</time></trkpt><trkpt lat="42.8160207" lon="12.5848464"><ele>783.8571428571429</ele><time>2026-04-11T14:56:12.354Z</time></trkpt><trkpt lat="42.8160213" lon="12.5847036"><ele>784.0</ele><time>2026-04-11T14:56:14.363Z</time></trkpt><trkpt lat="42.8160406" lon="12.5846176"><ele>783.4999999999999</ele><time>2026-04-11T14:56:16.36Z</time></trkpt><trkpt lat="42.8160149" lon="12.5845354"><ele>783.0</ele><time>2026-04-11T14:56:26.364Z</time></trkpt><trkpt lat="42.8159634" lon="12.5844654"><ele>782.5</ele><time>2026-04-11T14:56:28.365Z</time></trkpt><trkpt lat="42.8159096" lon="12.5843594"><ele>782.0</ele><time>2026-04-11T14:56:30.36Z</time></trkpt><trkpt lat="42.8158589" lon="12.5842439"><ele>781.4999999999999</ele><time>2026-04-11T14:56:32.364Z</time></trkpt><trkpt lat="42.8157902" lon="12.5841319"><ele>781.0</ele><time>2026-04-11T14:56:34.356Z</time></trkpt><trkpt lat="42.8157191" lon="12.5840089"><ele>780.9999999999999</ele><time>2026-04-11T14:56:36.358Z</time></trkpt><trkpt lat="42.8156127" lon="12.5839055"><ele>781.0</ele><time>2026-04-11T14:56:38.352Z</time></trkpt><trkpt lat="42.8155378" lon="12.5838713"><ele>781.0</ele><time>2026-04-11T14:56:39.362Z</time></trkpt><trkpt lat="42.815464" lon="12.583833"><ele>781.0</ele><time>2026-04-11T14:56:40.352Z</time></trkpt><trkpt lat="42.8153934" lon="12.5838057"><ele>780.9999999999999</ele><time>2026-04-11T14:56:41.367Z</time></trkpt><trkpt lat="42.8153196" lon="12.5838036"><ele>781.0</ele><time>2026-04-11T14:56:42.385Z</time></trkpt><trkpt lat="42.815245" lon="12.5838135"><ele>781.0</ele><time>2026-04-11T14:56:43.391Z</time></trkpt><trkpt lat="42.8151731" lon="12.5838356"><ele>781.0</ele><time>2026-04-11T14:56:44.356Z</time></trkpt><trkpt lat="42.8150607" lon="12.5838241"><ele>781.0</ele><time>2026-04-11T14:56:46.357Z</time></trkpt><trkpt lat="42.8149613" lon="12.5837547"><ele>781.0</ele><time>2026-04-11T14:56:48.365Z</time></trkpt><trkpt lat="42.8148552" lon="12.5837315"><ele>781.0</ele><time>2026-04-11T14:56:50.349Z</time></trkpt><trkpt lat="42.81476" lon="12.5836242"><ele>781.4999999999999</ele><time>2026-04-11T14:56:52.36Z</time></trkpt><trkpt lat="42.8147195" lon="12.583557"><ele>782.0</ele><time>2026-04-11T14:56:53.365Z</time></trkpt><trkpt lat="42.8146781" lon="12.5834907"><ele>782.5</ele><time>2026-04-11T14:56:54.363Z</time></trkpt><trkpt lat="42.814598" lon="12.5834098"><ele>783.0</ele><time>2026-04-11T14:56:56.355Z</time></trkpt><trkpt lat="42.8145144" lon="12.583359"><ele>783.4999999999999</ele><time>2026-04-11T14:56:58.356Z</time></trkpt><trkpt lat="42.814442" lon="12.5832871"><ele>784.0</ele><time>2026-04-11T14:57:00.359Z</time></trkpt><trkpt lat="42.8143636" lon="12.5831712"><ele>784.1666666666666</ele><time>2026-04-11T14:57:02.355Z</time></trkpt><trkpt lat="42.8143042" lon="12.5831194"><ele>784.3333333333333</ele><time>2026-04-11T14:57:03.37Z</time></trkpt><trkpt lat="42.8141981" lon="12.5830091"><ele>784.5</ele><time>2026-04-11T14:57:05.362Z</time></trkpt><trkpt lat="42.8141485" lon="12.5829478"><ele>784.6666666666667</ele><time>2026-04-11T14:57:06.355Z</time></trkpt><trkpt lat="42.8140513" lon="12.582868"><ele>784.8333333333334</ele><time>2026-04-11T14:57:08.358Z</time></trkpt><trkpt lat="42.8139919" lon="12.5828349"><ele>785.0</ele><time>2026-04-11T14:57:09.374Z</time></trkpt><trkpt lat="42.8139308" lon="12.5827926"><ele>785.0</ele><time>2026-04-11T14:57:10.354Z</time></trkpt><trkpt lat="42.8138738" lon="12.5827456"><ele>785.0</ele><time>2026-04-11T14:57:11.357Z</time></trkpt><trkpt lat="42.813779" lon="12.5826383"><ele>785.0</ele><time>2026-04-11T14:57:13.361Z</time></trkpt><trkpt lat="42.8136789" lon="12.5825671"><ele>785.0</ele><time>2026-04-11T14:57:15.366Z</time></trkpt><trkpt lat="42.8135878" lon="12.5824983"><ele>785.0</ele><time>2026-04-11T14:57:17.373Z</time></trkpt><trkpt lat="42.8135105" lon="12.5823675"><ele>784.5000000000001</ele><time>2026-04-11T14:57:19.359Z</time></trkpt><trkpt lat="42.8134697" lon="12.5822855"><ele>784.0</ele><time>2026-04-11T14:57:20.356Z</time></trkpt><trkpt lat="42.8134324" lon="12.5821885"><ele>783.5</ele><time>2026-04-11T14:57:21.379Z</time></trkpt><trkpt lat="42.8133954" lon="12.5821142"><ele>783.0</ele><time>2026-04-11T14:57:22.354Z</time></trkpt><trkpt lat="42.8132968" lon="12.582005"><ele>782.5000000000001</ele><time>2026-04-11T14:57:24.369Z</time></trkpt><trkpt lat="42.8132332" lon="12.581949"><ele>782.0</ele><time>2026-04-11T14:57:25.368Z</time></trkpt><trkpt lat="42.8131613" lon="12.5818951"><ele>784.0000000000001</ele><time>2026-04-11T14:57:26.363Z</time></trkpt><trkpt lat="42.813093" lon="12.5818565"><ele>786.0</ele><time>2026-04-11T14:57:27.375Z</time></trkpt><trkpt lat="42.8130294" lon="12.5818264"><ele>788.0</ele><time>2026-04-11T14:57:28.361Z</time></trkpt><trkpt lat="42.8129653" lon="12.5818039"><ele>790.0</ele><time>2026-04-11T14:57:29.367Z</time></trkpt><trkpt lat="42.8128929" lon="12.581795"><ele>792.0000000000001</ele><time>2026-04-11T14:57:30.362Z</time></trkpt><trkpt lat="42.8128267" lon="12.5817894"><ele>794.0</ele><time>2026-04-11T14:57:31.366Z</time></trkpt><trkpt lat="42.8126978" lon="12.5817715"><ele>794.0000000000001</ele><time>2026-04-11T14:57:33.363Z</time></trkpt><trkpt lat="42.8126346" lon="12.5817454"><ele>794.0</ele><time>2026-04-11T14:57:34.367Z</time></trkpt><trkpt lat="42.8125688" lon="12.5817262"><ele>794.0</ele><time>2026-04-11T14:57:35.375Z</time></trkpt><trkpt lat="42.8125013" lon="12.5817048"><ele>794.0</ele><time>2026-04-11T14:57:36.359Z</time></trkpt><trkpt lat="42.8123944" lon="12.5816506"><ele>794.0000000000001</ele><time>2026-04-11T14:57:38.367Z</time></trkpt><trkpt lat="42.8122901" lon="12.5816085"><ele>794.0</ele><time>2026-04-11T14:57:40.364Z</time></trkpt><trkpt lat="42.8122158" lon="12.5815471"><ele>794.0000000000001</ele><time>2026-04-11T14:57:42.363Z</time></trkpt><trkpt lat="42.8121542" lon="12.5814696"><ele>794.0</ele><time>2026-04-11T14:57:44.361Z</time></trkpt><trkpt lat="42.8120892" lon="12.5814045"><ele>794.0</ele><time>2026-04-11T14:57:46.36Z</time></trkpt><trkpt lat="42.8119988" lon="12.581322"><ele>794.0</ele><time>2026-04-11T14:57:48.363Z</time></trkpt><trkpt lat="42.8119435" lon="12.5812719"><ele>794.0000000000001</ele><time>2026-04-11T14:57:49.379Z</time></trkpt><trkpt lat="42.8118898" lon="12.5812013"><ele>794.0</ele><time>2026-04-11T14:57:50.37Z</time></trkpt><trkpt lat="42.8118294" lon="12.5811325"><ele>795.0</ele><time>2026-04-11T14:57:51.371Z</time></trkpt><trkpt lat="42.8117707" lon="12.5810746"><ele>796.0</ele><time>2026-04-11T14:57:52.366Z</time></trkpt><trkpt lat="42.8117157" lon="12.5810312"><ele>797.0</ele><time>2026-04-11T14:57:53.375Z</time></trkpt><trkpt lat="42.8116407" lon="12.580937"><ele>798.0</ele><time>2026-04-11T14:57:55.362Z</time></trkpt><trkpt lat="42.8115938" lon="12.5808155"><ele>799.0</ele><time>2026-04-11T14:57:57.363Z</time></trkpt><trkpt lat="42.8115278" lon="12.5806912"><ele>799.0</ele><time>2026-04-11T14:57:59.369Z</time></trkpt><trkpt lat="42.811427" lon="12.5806298"><ele>799.0</ele><time>2026-04-11T14:58:01.355Z</time></trkpt><trkpt lat="42.8113614" lon="12.5806224"><ele>799.0</ele><time>2026-04-11T14:58:02.353Z</time></trkpt><trkpt lat="42.8112895" lon="12.5806191"><ele>799.0</ele><time>2026-04-11T14:58:03.367Z</time></trkpt><trkpt lat="42.8111789" lon="12.5805903"><ele>799.0</ele><time>2026-04-11T14:58:05.357Z</time></trkpt><trkpt lat="42.8110649" lon="12.5805573"><ele>798.6</ele><time>2026-04-11T14:58:07.364Z</time></trkpt><trkpt lat="42.8109906" lon="12.5805461"><ele>798.2</ele><time>2026-04-11T14:58:08.354Z</time></trkpt><trkpt lat="42.8109084" lon="12.5805092"><ele>797.8000000000001</ele><time>2026-04-11T14:58:09.381Z</time></trkpt><trkpt lat="42.8108232" lon="12.5804506"><ele>797.4000000000001</ele><time>2026-04-11T14:58:10.37Z</time></trkpt><trkpt lat="42.810733" lon="12.5803898"><ele>797.0</ele><time>2026-04-11T14:58:11.37Z</time></trkpt><trkpt lat="42.810647" lon="12.5803368"><ele>798.1666666666667</ele><time>2026-04-11T14:58:12.361Z</time></trkpt><trkpt lat="42.8105657" lon="12.5802953"><ele>799.3333333333334</ele><time>2026-04-11T14:58:13.373Z</time></trkpt><trkpt lat="42.8104825" lon="12.5802583"><ele>800.5</ele><time>2026-04-11T14:58:14.36Z</time></trkpt><trkpt lat="42.8104059" lon="12.5802171"><ele>801.6666666666667</ele><time>2026-04-11T14:58:15.377Z</time></trkpt><trkpt lat="42.8103337" lon="12.5801785"><ele>802.8333333333334</ele><time>2026-04-11T14:58:16.355Z</time></trkpt><trkpt lat="42.8102633" lon="12.580146"><ele>804.0</ele><time>2026-04-11T14:58:17.355Z</time></trkpt><trkpt lat="42.8101927" lon="12.580112"><ele>806.1428571428571</ele><time>2026-04-11T14:58:18.362Z</time></trkpt><trkpt lat="42.8101335" lon="12.5800679"><ele>808.2857142857143</ele><time>2026-04-11T14:58:19.376Z</time></trkpt><trkpt lat="42.8100695" lon="12.5800189"><ele>810.4285714285714</ele><time>2026-04-11T14:58:20.356Z</time></trkpt><trkpt lat="42.8099987" lon="12.5799861"><ele>812.5714285714286</ele><time>2026-04-11T14:58:21.359Z</time></trkpt><trkpt lat="42.8099251" lon="12.5799779"><ele>814.7142857142858</ele><time>2026-04-11T14:58:22.359Z</time></trkpt><trkpt lat="42.8098554" lon="12.5799956"><ele>816.8571428571429</ele><time>2026-04-11T14:58:23.371Z</time></trkpt><trkpt lat="42.809794" lon="12.5800304"><ele>819.0</ele><time>2026-04-11T14:58:24.364Z</time></trkpt><trkpt lat="42.8097269" lon="12.5800748"><ele>819.0</ele><time>2026-04-11T14:58:25.364Z</time></trkpt><trkpt lat="42.809671" lon="12.5801203"><ele>819.0</ele><time>2026-04-11T14:58:26.354Z</time></trkpt><trkpt lat="42.8096135" lon="12.5801671"><ele>819.0</ele><time>2026-04-11T14:58:27.363Z</time></trkpt><trkpt lat="42.8095502" lon="12.580197"><ele>819.0</ele><time>2026-04-11T14:58:28.358Z</time></trkpt><trkpt lat="42.8094884" lon="12.5802367"><ele>819.0</ele><time>2026-04-11T14:58:29.376Z</time></trkpt><trkpt lat="42.8094252" lon="12.5802729"><ele>819.0</ele><time>2026-04-11T14:58:30.351Z</time></trkpt><trkpt lat="42.8093617" lon="12.5803024"><ele>819.0</ele><time>2026-04-11T14:58:31.353Z</time></trkpt><trkpt lat="42.8092452" lon="12.5803504"><ele>817.2</ele><time>2026-04-11T14:58:33.356Z</time></trkpt><trkpt lat="42.8091417" lon="12.5804113"><ele>815.4000000000001</ele><time>2026-04-11T14:58:35.367Z</time></trkpt><trkpt lat="42.8090505" lon="12.5804373"><ele>813.6</ele><time>2026-04-11T14:58:37.365Z</time></trkpt><trkpt lat="42.8089303" lon="12.5804657"><ele>811.8</ele><time>2026-04-11T14:58:39.361Z</time></trkpt><trkpt lat="42.8088562" lon="12.5804733"><ele>810.0</ele><time>2026-04-11T14:58:40.353Z</time></trkpt><trkpt lat="42.8087802" lon="12.5804883"><ele>810.0</ele><time>2026-04-11T14:58:41.363Z</time></trkpt><trkpt lat="42.8087011" lon="12.5805013"><ele>810.0</ele><time>2026-04-11T14:58:42.363Z</time></trkpt><trkpt lat="42.8086246" lon="12.5805223"><ele>810.0</ele><time>2026-04-11T14:58:43.371Z</time></trkpt><trkpt lat="42.808553" lon="12.5805371"><ele>810.0</ele><time>2026-04-11T14:58:44.361Z</time></trkpt><trkpt lat="42.8084819" lon="12.5805481"><ele>810.0</ele><time>2026-04-11T14:58:45.378Z</time></trkpt><trkpt lat="42.8083811" lon="12.5805504"><ele>810.0</ele><time>2026-04-11T14:58:47.357Z</time></trkpt><trkpt lat="42.8083075" lon="12.5805386"><ele>812.0</ele><time>2026-04-11T14:58:50.363Z</time></trkpt><trkpt lat="42.8082402" lon="12.5805172"><ele>814.0</ele><time>2026-04-11T14:58:53.381Z</time></trkpt><trkpt lat="42.808179" lon="12.5804872"><ele>816.0</ele><time>2026-04-11T14:58:55.366Z</time></trkpt><trkpt lat="42.8080409" lon="12.5804405"><ele>818.0</ele><time>2026-04-11T14:58:57.361Z</time></trkpt><trkpt lat="42.8079723" lon="12.580415"><ele>820.0</ele><time>2026-04-11T14:58:58.357Z</time></trkpt><trkpt lat="42.8078571" lon="12.5803624"><ele>820.75</ele><time>2026-04-11T14:59:00.35Z</time></trkpt><trkpt lat="42.8077527" lon="12.5803183"><ele>821.5</ele><time>2026-04-11T14:59:02.35Z</time></trkpt><trkpt lat="42.8076379" lon="12.5802949"><ele>822.25</ele><time>2026-04-11T14:59:04.354Z</time></trkpt><trkpt lat="42.8075165" lon="12.5802538"><ele>823.0</ele><time>2026-04-11T14:59:06.366Z</time></trkpt><trkpt lat="42.8074113" lon="12.5802713"><ele>824.6666666666666</ele><time>2026-04-11T14:59:08.351Z</time></trkpt><trkpt lat="42.8073357" lon="12.5803226"><ele>826.3333333333333</ele><time>2026-04-11T14:59:51.369Z</time></trkpt><trkpt lat="42.8072413" lon="12.580384"><ele>828.0</ele><time>2026-04-11T14:59:53.368Z</time></trkpt><trkpt lat="42.8071742" lon="12.5804152"><ele>829.6666666666667</ele><time>2026-04-11T14:59:54.352Z</time></trkpt><trkpt lat="42.8070912" lon="12.5804504"><ele>831.3333333333334</ele><time>2026-04-11T14:59:55.365Z</time></trkpt><trkpt lat="42.8070063" lon="12.5804883"><ele>833.0</ele><time>2026-04-11T14:59:56.353Z</time></trkpt><trkpt lat="42.8069157" lon="12.5805269"><ele>833.0000000000001</ele><time>2026-04-11T14:59:57.356Z</time></trkpt><trkpt lat="42.8068329" lon="12.5805617"><ele>833.0</ele><time>2026-04-11T14:59:58.353Z</time></trkpt><trkpt lat="42.8067607" lon="12.5805905"><ele>833.0</ele><time>2026-04-11T14:59:59.359Z</time></trkpt><trkpt lat="42.8066865" lon="12.5806243"><ele>833.0</ele><time>2026-04-11T15:00:00.35Z</time></trkpt><trkpt lat="42.8066084" lon="12.5806597"><ele>833.0000000000001</ele><time>2026-04-11T15:00:01.355Z</time></trkpt><trkpt lat="42.8065259" lon="12.5806893"><ele>833.0</ele><time>2026-04-11T15:00:02.362Z</time></trkpt><trkpt lat="42.806448" lon="12.5807227"><ele>834.0000000000001</ele><time>2026-04-11T15:00:03.361Z</time></trkpt><trkpt lat="42.8063701" lon="12.5807582"><ele>835.0</ele><time>2026-04-11T15:00:04.357Z</time></trkpt><trkpt lat="42.8062959" lon="12.5807892"><ele>836.0</ele><time>2026-04-11T15:00:05.359Z</time></trkpt><trkpt lat="42.8062345" lon="12.5808171"><ele>837.0</ele><time>2026-04-11T15:00:06.351Z</time></trkpt><trkpt lat="42.8061096" lon="12.5808512"><ele>838.0000000000001</ele><time>2026-04-11T15:00:08.355Z</time></trkpt><trkpt lat="42.8060316" lon="12.5808561"><ele>839.0</ele><time>2026-04-11T15:00:09.355Z</time></trkpt><trkpt lat="42.8059533" lon="12.5808565"><ele>839.8333333333334</ele><time>2026-04-11T15:00:10.343Z</time></trkpt><trkpt lat="42.8058634" lon="12.5808457"><ele>840.6666666666667</ele><time>2026-04-11T15:00:11.351Z</time></trkpt><trkpt lat="42.8057816" lon="12.5808259"><ele>841.5</ele><time>2026-04-11T15:00:12.363Z</time></trkpt><trkpt lat="42.8056963" lon="12.5808088"><ele>842.3333333333333</ele><time>2026-04-11T15:00:13.371Z</time></trkpt><trkpt lat="42.805611" lon="12.5807996"><ele>843.1666666666666</ele><time>2026-04-11T15:00:14.358Z</time></trkpt><trkpt lat="42.805524" lon="12.5808031"><ele>844.0</ele><time>2026-04-11T15:00:15.364Z</time></trkpt><trkpt lat="42.8054354" lon="12.5808074"><ele>843.9999999999999</ele><time>2026-04-11T15:00:16.356Z</time></trkpt><trkpt lat="42.8053474" lon="12.5808057"><ele>844.0</ele><time>2026-04-11T15:00:17.368Z</time></trkpt><trkpt lat="42.8052626" lon="12.5807981"><ele>844.0</ele><time>2026-04-11T15:00:18.353Z</time></trkpt><trkpt lat="42.8051757" lon="12.5807907"><ele>844.0</ele><time>2026-04-11T15:00:19.349Z</time></trkpt><trkpt lat="42.8050926" lon="12.5807763"><ele>843.9999999999999</ele><time>2026-04-11T15:00:20.349Z</time></trkpt><trkpt lat="42.8050053" lon="12.5807617"><ele>844.0</ele><time>2026-04-11T15:00:21.36Z</time></trkpt><trkpt lat="42.8049187" lon="12.5807566"><ele>845.1666666666666</ele><time>2026-04-11T15:00:22.352Z</time></trkpt><trkpt lat="42.8048349" lon="12.5807549"><ele>846.3333333333333</ele><time>2026-04-11T15:00:23.379Z</time></trkpt><trkpt lat="42.8047428" lon="12.5807493"><ele>847.5</ele><time>2026-04-11T15:00:24.369Z</time></trkpt><trkpt lat="42.8046501" lon="12.5807519"><ele>848.6666666666667</ele><time>2026-04-11T15:00:25.372Z</time></trkpt><trkpt lat="42.804567" lon="12.5807526"><ele>849.8333333333334</ele><time>2026-04-11T15:00:26.362Z</time></trkpt><trkpt lat="42.8044997" lon="12.5807581"><ele>851.0</ele><time>2026-04-11T15:00:27.372Z</time></trkpt><trkpt lat="42.8043939" lon="12.5807737"><ele>852.1666666666667</ele><time>2026-04-11T15:00:29.356Z</time></trkpt><trkpt lat="42.804279" lon="12.580761"><ele>853.3333333333334</ele><time>2026-04-11T15:00:31.353Z</time></trkpt><trkpt lat="42.8042112" lon="12.5807473"><ele>854.5</ele><time>2026-04-11T15:00:32.35Z</time></trkpt><trkpt lat="42.8041492" lon="12.5807274"><ele>855.6666666666667</ele><time>2026-04-11T15:00:33.36Z</time></trkpt><trkpt lat="42.8040217" lon="12.5806867"><ele>856.8333333333334</ele><time>2026-04-11T15:00:35.372Z</time></trkpt><trkpt lat="42.8039552" lon="12.5806606"><ele>858.0</ele><time>2026-04-11T15:00:36.357Z</time></trkpt><trkpt lat="42.80389" lon="12.5806379"><ele>858.0</ele><time>2026-04-11T15:00:37.367Z</time></trkpt><trkpt lat="42.8038278" lon="12.5806098"><ele>858.0</ele><time>2026-04-11T15:00:38.364Z</time></trkpt><trkpt lat="42.8037122" lon="12.5805445"><ele>858.0</ele><time>2026-04-11T15:00:40.36Z</time></trkpt><trkpt lat="42.8036029" lon="12.5804684"><ele>858.0</ele><time>2026-04-11T15:00:42.353Z</time></trkpt><trkpt lat="42.8035159" lon="12.5803846"><ele>858.0</ele><time>2026-04-11T15:00:44.364Z</time></trkpt><trkpt lat="42.8034629" lon="12.5803102"><ele>864.0</ele><time>2026-04-11T15:00:46.357Z</time></trkpt><trkpt lat="42.8034239" lon="12.5802375"><ele>870.0</ele><time>2026-04-11T15:00:48.352Z</time></trkpt><trkpt lat="42.8033385" lon="12.5801541"><ele>876.0</ele><time>2026-04-11T15:00:50.364Z</time></trkpt><trkpt lat="42.8032522" lon="12.5800676"><ele>882.0</ele><time>2026-04-11T15:00:52.353Z</time></trkpt><trkpt lat="42.8031502" lon="12.5799728"><ele>888.0</ele><time>2026-04-11T15:00:54.354Z</time></trkpt><trkpt lat="42.8030596" lon="12.5798837"><ele>888.0</ele><time>2026-04-11T15:00:56.347Z</time></trkpt><trkpt lat="42.8029926" lon="12.5798274"><ele>888.0</ele><time>2026-04-11T15:00:58.355Z</time></trkpt><trkpt lat="42.8029278" lon="12.5797653"><ele>888.0</ele><time>2026-04-11T15:01:01.359Z</time></trkpt><trkpt lat="42.8028665" lon="12.5797269"><ele>888.0</ele><time>2026-04-11T15:02:43.359Z</time></trkpt><trkpt lat="42.8028007" lon="12.5797154"><ele>888.0</ele><time>2026-04-11T15:03:45.353Z</time></trkpt><trkpt lat="42.8027311" lon="12.5797149"><ele>888.0</ele><time>2026-04-11T15:03:48.348Z</time></trkpt><trkpt lat="42.8026538" lon="12.5796848"><ele>888.0</ele><time>2026-04-11T15:03:50.354Z</time></trkpt><trkpt lat="42.8025792" lon="12.5796319"><ele>891.4</ele><time>2026-04-11T15:03:52.346Z</time></trkpt><trkpt lat="42.8024829" lon="12.5795834"><ele>894.8</ele><time>2026-04-11T15:03:54.345Z</time></trkpt><trkpt lat="42.8023913" lon="12.5795341"><ele>898.2</ele><time>2026-04-11T15:03:56.349Z</time></trkpt><trkpt lat="42.8022867" lon="12.5794745"><ele>901.6</ele><time>2026-04-11T15:03:58.343Z</time></trkpt><trkpt lat="42.8021763" lon="12.579428"><ele>905.0</ele><time>2026-04-11T15:04:00.355Z</time></trkpt><trkpt lat="42.8020821" lon="12.5794001"><ele>908.0000000000001</ele><time>2026-04-11T15:04:02.351Z</time></trkpt><trkpt lat="42.8019889" lon="12.5793751"><ele>911.0</ele><time>2026-04-11T15:04:04.354Z</time></trkpt><trkpt lat="42.8018901" lon="12.5793545"><ele>914.0</ele><time>2026-04-11T15:04:06.349Z</time></trkpt><trkpt lat="42.8018177" lon="12.5793097"><ele>917.0</ele><time>2026-04-11T15:04:08.35Z</time></trkpt><trkpt lat="42.8017532" lon="12.5792361"><ele>920.0000000000001</ele><time>2026-04-11T15:04:10.356Z</time></trkpt><trkpt lat="42.8016842" lon="12.57917"><ele>923.0</ele><time>2026-04-11T15:04:12.351Z</time></trkpt><trkpt lat="42.8016378" lon="12.5790722"><ele>926.2</ele><time>2026-04-11T15:04:14.361Z</time></trkpt><trkpt lat="42.8015948" lon="12.5789544"><ele>929.4</ele><time>2026-04-11T15:04:16.351Z</time></trkpt><trkpt lat="42.8015412" lon="12.5788335"><ele>932.6000000000001</ele><time>2026-04-11T15:04:18.354Z</time></trkpt><trkpt lat="42.8014844" lon="12.5787266"><ele>935.8000000000001</ele><time>2026-04-11T15:04:20.35Z</time></trkpt><trkpt lat="42.8014014" lon="12.5786198"><ele>939.0</ele><time>2026-04-11T15:04:22.355Z</time></trkpt><trkpt lat="42.801346" lon="12.5785601"><ele>940.5714285714287</ele><time>2026-04-11T15:04:23.358Z</time></trkpt><trkpt lat="42.8012843" lon="12.5785074"><ele>942.1428571428571</ele><time>2026-04-11T15:04:24.348Z</time></trkpt><trkpt lat="42.8012234" lon="12.5784591"><ele>943.7142857142858</ele><time>2026-04-11T15:04:25.362Z</time></trkpt><trkpt lat="42.8011563" lon="12.5784071"><ele>945.2857142857143</ele><time>2026-04-11T15:04:26.364Z</time></trkpt><trkpt lat="42.8010914" lon="12.5783442"><ele>946.8571428571429</ele><time>2026-04-11T15:04:27.366Z</time></trkpt><trkpt lat="42.8010323" lon="12.5782867"><ele>948.4285714285714</ele><time>2026-04-11T15:04:28.353Z</time></trkpt><trkpt lat="42.8009829" lon="12.5782209"><ele>950.0</ele><time>2026-04-11T15:04:29.363Z</time></trkpt><trkpt lat="42.8009453" lon="12.5781473"><ele>951.8</ele><time>2026-04-11T15:04:30.354Z</time></trkpt><trkpt lat="42.8009125" lon="12.5780619"><ele>953.6</ele><time>2026-04-11T15:04:31.354Z</time></trkpt><trkpt lat="42.8008848" lon="12.5779779"><ele>955.4000000000001</ele><time>2026-04-11T15:04:32.353Z</time></trkpt><trkpt lat="42.8008212" lon="12.5778517"><ele>957.2</ele><time>2026-04-11T15:04:34.353Z</time></trkpt><trkpt lat="42.8008026" lon="12.5776997"><ele>959.0</ele><time>2026-04-11T15:04:36.343Z</time></trkpt><trkpt lat="42.8007985" lon="12.577547"><ele>961.5714285714286</ele><time>2026-04-11T15:04:38.35Z</time></trkpt><trkpt lat="42.8008084" lon="12.5774497"><ele>964.1428571428571</ele><time>2026-04-11T15:04:40.358Z</time></trkpt><trkpt lat="42.8008688" lon="12.5774108"><ele>966.7142857142858</ele><time>2026-04-11T15:04:44.355Z</time></trkpt><trkpt lat="42.800865" lon="12.5773112"><ele>969.2857142857143</ele><time>2026-04-11T15:11:10.368Z</time></trkpt><trkpt lat="42.8008221" lon="12.5772085"><ele>971.8571428571429</ele><time>2026-04-11T15:11:12.362Z</time></trkpt><trkpt lat="42.800795" lon="12.5771249"><ele>974.4285714285716</ele><time>2026-04-11T15:11:13.361Z</time></trkpt><trkpt lat="42.8007726" lon="12.5770394"><ele>977.0000000000001</ele><time>2026-04-11T15:11:14.352Z</time></trkpt><trkpt lat="42.8007403" lon="12.5769466"><ele>977.8</ele><time>2026-04-11T15:11:15.354Z</time></trkpt><trkpt lat="42.8006947" lon="12.5768487"><ele>978.6</ele><time>2026-04-11T15:11:16.356Z</time></trkpt><trkpt lat="42.8006384" lon="12.5767472"><ele>979.3999999999999</ele><time>2026-04-11T15:11:17.364Z</time></trkpt><trkpt lat="42.8005775" lon="12.5766461"><ele>980.1999999999999</ele><time>2026-04-11T15:11:18.369Z</time></trkpt><trkpt lat="42.8005133" lon="12.5765386"><ele>981.0</ele><time>2026-04-11T15:11:19.382Z</time></trkpt><trkpt lat="42.8004519" lon="12.5764264"><ele>981.0</ele><time>2026-04-11T15:11:20.371Z</time></trkpt><trkpt lat="42.8003879" lon="12.5763086"><ele>980.9999999999999</ele><time>2026-04-11T15:11:21.37Z</time></trkpt><trkpt lat="42.8003368" lon="12.5761909"><ele>980.9999999999999</ele><time>2026-04-11T15:11:22.379Z</time></trkpt><trkpt lat="42.8002929" lon="12.5760801"><ele>981.0</ele><time>2026-04-11T15:11:23.366Z</time></trkpt><trkpt lat="42.8002626" lon="12.5759743"><ele>981.0</ele><time>2026-04-11T15:11:24.371Z</time></trkpt><trkpt lat="42.8002408" lon="12.5758822"><ele>981.8571428571429</ele><time>2026-04-11T15:11:25.357Z</time></trkpt><trkpt lat="42.800234" lon="12.5757955"><ele>982.7142857142857</ele><time>2026-04-11T15:11:26.372Z</time></trkpt><trkpt lat="42.8002457" lon="12.5757111"><ele>983.5714285714286</ele><time>2026-04-11T15:11:27.369Z</time></trkpt><trkpt lat="42.8002884" lon="12.5756367"><ele>984.4285714285714</ele><time>2026-04-11T15:11:28.361Z</time></trkpt><trkpt lat="42.8003454" lon="12.5755927"><ele>985.2857142857142</ele><time>2026-04-11T15:11:29.354Z</time></trkpt><trkpt lat="42.8004114" lon="12.5755746"><ele>986.1428571428571</ele><time>2026-04-11T15:11:30.353Z</time></trkpt><trkpt lat="42.8004895" lon="12.5755735"><ele>987.0</ele><time>2026-04-11T15:11:31.352Z</time></trkpt><trkpt lat="42.8005797" lon="12.5755958"><ele>987.0</ele><time>2026-04-11T15:11:32.351Z</time></trkpt><trkpt lat="42.8006855" lon="12.5756276"><ele>987.0</ele><time>2026-04-11T15:11:33.372Z</time></trkpt><trkpt lat="42.8008035" lon="12.5756473"><ele>987.0</ele><time>2026-04-11T15:11:34.38Z</time></trkpt><trkpt lat="42.8009234" lon="12.5756539"><ele>987.0</ele><time>2026-04-11T15:11:35.353Z</time></trkpt><trkpt lat="42.8010418" lon="12.575644"><ele>988.5</ele><time>2026-04-11T15:11:36.352Z</time></trkpt><trkpt lat="42.801149" lon="12.5756028"><ele>990.0</ele><time>2026-04-11T15:11:37.355Z</time></trkpt><trkpt lat="42.801254" lon="12.5755323"><ele>991.5</ele><time>2026-04-11T15:11:38.361Z</time></trkpt><trkpt lat="42.8013597" lon="12.5754292"><ele>993.0</ele><time>2026-04-11T15:11:39.364Z</time></trkpt><trkpt lat="42.8014605" lon="12.5753153"><ele>993.0</ele><time>2026-04-11T15:11:40.351Z</time></trkpt><trkpt lat="42.8015596" lon="12.5752159"><ele>993.0</ele><time>2026-04-11T15:11:41.374Z</time></trkpt><trkpt lat="42.8016604" lon="12.5751697"><ele>993.0</ele><time>2026-04-11T15:11:42.361Z</time></trkpt><trkpt lat="42.8017695" lon="12.5751698"><ele>993.0</ele><time>2026-04-11T15:11:43.359Z</time></trkpt><trkpt lat="42.8018906" lon="12.5751961"><ele>993.0</ele><time>2026-04-11T15:11:44.367Z</time></trkpt><trkpt lat="42.8020182" lon="12.5752469"><ele>993.0</ele><time>2026-04-11T15:11:45.356Z</time></trkpt><trkpt lat="42.802152" lon="12.5753035"><ele>993.0</ele><time>2026-04-11T15:11:46.365Z</time></trkpt><trkpt lat="42.8022802" lon="12.5753546"><ele>993.0</ele><time>2026-04-11T15:11:47.355Z</time></trkpt><trkpt lat="42.8024028" lon="12.5754002"><ele>989.2</ele><time>2026-04-11T15:11:48.357Z</time></trkpt><trkpt lat="42.8025182" lon="12.575431"><ele>985.4</ele><time>2026-04-11T15:11:49.37Z</time></trkpt><trkpt lat="42.802627" lon="12.5754445"><ele>981.6000000000001</ele><time>2026-04-11T15:11:50.375Z</time></trkpt><trkpt lat="42.8027351" lon="12.5754436"><ele>977.8000000000001</ele><time>2026-04-11T15:11:51.366Z</time></trkpt><trkpt lat="42.80283" lon="12.5754353"><ele>974.0</ele><time>2026-04-11T15:11:52.359Z</time></trkpt><trkpt lat="42.8029192" lon="12.5753965"><ele>974.5000000000001</ele><time>2026-04-11T15:11:53.356Z</time></trkpt><trkpt lat="42.8029869" lon="12.5753333"><ele>975.0</ele><time>2026-04-11T15:11:54.36Z</time></trkpt><trkpt lat="42.8030443" lon="12.5752515"><ele>975.5</ele><time>2026-04-11T15:11:55.357Z</time></trkpt><trkpt lat="42.8030826" lon="12.5751501"><ele>976.0</ele><time>2026-04-11T15:11:56.35Z</time></trkpt><trkpt lat="42.8030953" lon="12.5750406"><ele>976.5000000000001</ele><time>2026-04-11T15:11:57.354Z</time></trkpt><trkpt lat="42.8030819" lon="12.5749136"><ele>977.0</ele><time>2026-04-11T15:11:58.364Z</time></trkpt><trkpt lat="42.8030473" lon="12.5747783"><ele>977.0</ele><time>2026-04-11T15:11:59.366Z</time></trkpt><trkpt lat="42.8030083" lon="12.5746327"><ele>977.0</ele><time>2026-04-11T15:12:00.357Z</time></trkpt><trkpt lat="42.8029589" lon="12.5744834"><ele>977.0</ele><time>2026-04-11T15:12:01.372Z</time></trkpt><trkpt lat="42.8029038" lon="12.5743274"><ele>977.0</ele><time>2026-04-11T15:12:02.367Z</time></trkpt><trkpt lat="42.8028452" lon="12.5741687"><ele>975.0</ele><time>2026-04-11T15:12:03.357Z</time></trkpt><trkpt lat="42.8027817" lon="12.5740118"><ele>973.0</ele><time>2026-04-11T15:12:04.358Z</time></trkpt><trkpt lat="42.8027183" lon="12.5738548"><ele>971.0</ele><time>2026-04-11T15:12:05.369Z</time></trkpt><trkpt lat="42.802661" lon="12.5737089"><ele>969.0</ele><time>2026-04-11T15:12:06.353Z</time></trkpt><trkpt lat="42.8026116" lon="12.5735725"><ele>975.2</ele><time>2026-04-11T15:12:07.374Z</time></trkpt><trkpt lat="42.8025775" lon="12.5734397"><ele>981.4000000000001</ele><time>2026-04-11T15:12:08.365Z</time></trkpt><trkpt lat="42.8025588" lon="12.5732989"><ele>987.6</ele><time>2026-04-11T15:12:09.356Z</time></trkpt><trkpt lat="42.802553" lon="12.5731525"><ele>993.8</ele><time>2026-04-11T15:12:10.359Z</time></trkpt><trkpt lat="42.8025478" lon="12.5730062"><ele>1000.0</ele><time>2026-04-11T15:12:11.368Z</time></trkpt><trkpt lat="42.8025317" lon="12.5728698"><ele>999.8333333333333</ele><time>2026-04-11T15:12:12.356Z</time></trkpt><trkpt lat="42.8025059" lon="12.5727657"><ele>999.6666666666666</ele><time>2026-04-11T15:12:13.368Z</time></trkpt><trkpt lat="42.8024833" lon="12.5726635"><ele>999.5</ele><time>2026-04-11T15:12:14.354Z</time></trkpt><trkpt lat="42.8024602" lon="12.5725644"><ele>999.3333333333333</ele><time>2026-04-11T15:12:15.366Z</time></trkpt><trkpt lat="42.8024486" lon="12.5724581"><ele>999.1666666666666</ele><time>2026-04-11T15:12:16.362Z</time></trkpt><trkpt lat="42.8024484" lon="12.5723592"><ele>999.0</ele><time>2026-04-11T15:12:17.356Z</time></trkpt><trkpt lat="42.8024796" lon="12.5722578"><ele>999.0</ele><time>2026-04-11T15:12:18.365Z</time></trkpt><trkpt lat="42.8025354" lon="12.5721683"><ele>999.0000000000001</ele><time>2026-04-11T15:12:19.352Z</time></trkpt><trkpt lat="42.8026073" lon="12.5721116"><ele>999.0000000000001</ele><time>2026-04-11T15:12:20.36Z</time></trkpt><trkpt lat="42.8026944" lon="12.5720944"><ele>999.0</ele><time>2026-04-11T15:12:21.365Z</time></trkpt><trkpt lat="42.802794" lon="12.5721072"><ele>999.0</ele><time>2026-04-11T15:12:22.354Z</time></trkpt><trkpt lat="42.8028995" lon="12.5721411"><ele>997.25</ele><time>2026-04-11T15:12:23.357Z</time></trkpt><trkpt lat="42.8030111" lon="12.5721738"><ele>995.5</ele><time>2026-04-11T15:12:24.365Z</time></trkpt><trkpt lat="42.8031252" lon="12.5722036"><ele>993.75</ele><time>2026-04-11T15:12:25.35Z</time></trkpt><trkpt lat="42.8032409" lon="12.5722391"><ele>992.0</ele><time>2026-04-11T15:12:26.351Z</time></trkpt><trkpt lat="42.8033641" lon="12.5722618"><ele>992.0</ele><time>2026-04-11T15:12:27.359Z</time></trkpt><trkpt lat="42.8034931" lon="12.5722796"><ele>992.0</ele><time>2026-04-11T15:12:28.357Z</time></trkpt><trkpt lat="42.8036197" lon="12.5722807"><ele>992.0</ele><time>2026-04-11T15:12:29.364Z</time></trkpt><trkpt lat="42.8037411" lon="12.5722715"><ele>992.0</ele><time>2026-04-11T15:12:30.362Z</time></trkpt><trkpt lat="42.8038572" lon="12.5722539"><ele>993.2</ele><time>2026-04-11T15:12:31.357Z</time></trkpt><trkpt lat="42.8039542" lon="12.5722285"><ele>994.4000000000001</ele><time>2026-04-11T15:12:32.354Z</time></trkpt><trkpt lat="42.8040488" lon="12.5721946"><ele>995.5999999999999</ele><time>2026-04-11T15:12:33.361Z</time></trkpt><trkpt lat="42.8041479" lon="12.5721591"><ele>996.8</ele><time>2026-04-11T15:12:34.368Z</time></trkpt><trkpt lat="42.8042465" lon="12.5721066"><ele>998.0</ele><time>2026-04-11T15:12:35.365Z</time></trkpt><trkpt lat="42.8043352" lon="12.5720473"><ele>998.2</ele><time>2026-04-11T15:12:36.366Z</time></trkpt><trkpt lat="42.8044257" lon="12.5719756"><ele>998.4</ele><time>2026-04-11T15:12:37.366Z</time></trkpt><trkpt lat="42.8045057" lon="12.5719017"><ele>998.6000000000001</ele><time>2026-04-11T15:12:38.363Z</time></trkpt><trkpt lat="42.8045794" lon="12.5718116"><ele>998.8000000000001</ele><time>2026-04-11T15:12:39.364Z</time></trkpt><trkpt lat="42.8046408" lon="12.5717045"><ele>999.0</ele><time>2026-04-11T15:12:40.356Z</time></trkpt><trkpt lat="42.804667" lon="12.5715994"><ele>999.0</ele><time>2026-04-11T15:12:41.365Z</time></trkpt><trkpt lat="42.8046789" lon="12.5714829"><ele>999.0000000000001</ele><time>2026-04-11T15:12:42.342Z</time></trkpt><trkpt lat="42.8046667" lon="12.5713612"><ele>999.0000000000001</ele><time>2026-04-11T15:12:43.355Z</time></trkpt><trkpt lat="42.8046471" lon="12.5712295"><ele>999.0</ele><time>2026-04-11T15:12:44.357Z</time></trkpt><trkpt lat="42.8046241" lon="12.5710923"><ele>999.0</ele><time>2026-04-11T15:12:45.373Z</time></trkpt><trkpt lat="42.8046113" lon="12.5709556"><ele>999.0</ele><time>2026-04-11T15:12:46.365Z</time></trkpt><trkpt lat="42.8046074" lon="12.5708164"><ele>999.0000000000001</ele><time>2026-04-11T15:12:47.36Z</time></trkpt><trkpt lat="42.8046053" lon="12.5706767"><ele>999.0000000000001</ele><time>2026-04-11T15:12:48.359Z</time></trkpt><trkpt lat="42.8046076" lon="12.570537"><ele>999.0</ele><time>2026-04-11T15:12:49.361Z</time></trkpt><trkpt lat="42.8046003" lon="12.5703871"><ele>999.0</ele><time>2026-04-11T15:12:50.359Z</time></trkpt><trkpt lat="42.8045807" lon="12.5702438"><ele>999.4000000000001</ele><time>2026-04-11T15:12:51.359Z</time></trkpt><trkpt lat="42.8045411" lon="12.5701067"><ele>999.8000000000001</ele><time>2026-04-11T15:12:52.362Z</time></trkpt><trkpt lat="42.8044955" lon="12.5699769"><ele>1000.1999999999999</ele><time>2026-04-11T15:12:53.368Z</time></trkpt><trkpt lat="42.804431" lon="12.569852"><ele>1000.5999999999999</ele><time>2026-04-11T15:12:54.371Z</time></trkpt><trkpt lat="42.804355" lon="12.5697481"><ele>1001.0</ele><time>2026-04-11T15:12:55.363Z</time></trkpt><trkpt lat="42.8042905" lon="12.5696411"><ele>1005.8</ele><time>2026-04-11T15:12:56.365Z</time></trkpt><trkpt lat="42.8042551" lon="12.5695232"><ele>1010.5999999999999</ele><time>2026-04-11T15:12:57.358Z</time></trkpt><trkpt lat="42.8042528" lon="12.5693829"><ele>1015.4</ele><time>2026-04-11T15:12:58.34Z</time></trkpt><trkpt lat="42.8042655" lon="12.5692437"><ele>1020.2</ele><time>2026-04-11T15:12:59.355Z</time></trkpt><trkpt lat="42.8042754" lon="12.5691088"><ele>1025.0</ele><time>2026-04-11T15:13:00.35Z</time></trkpt><trkpt lat="42.8042691" lon="12.5689889"><ele>1025.0</ele><time>2026-04-11T15:13:01.358Z</time></trkpt><trkpt lat="42.8042392" lon="12.5688556"><ele>1025.0</ele><time>2026-04-11T15:13:02.355Z</time></trkpt><trkpt lat="42.8042147" lon="12.5687355"><ele>1025.0</ele><time>2026-04-11T15:13:03.362Z</time></trkpt><trkpt lat="42.8042148" lon="12.5686165"><ele>1025.0</ele><time>2026-04-11T15:13:04.358Z</time></trkpt><trkpt lat="42.8042429" lon="12.5685222"><ele>1025.0</ele><time>2026-04-11T15:13:05.358Z</time></trkpt><trkpt lat="42.8042855" lon="12.5684379"><ele>1025.0</ele><time>2026-04-11T15:13:06.358Z</time></trkpt><trkpt lat="42.8043594" lon="12.5683943"><ele>1024.2</ele><time>2026-04-11T15:13:07.35Z</time></trkpt><trkpt lat="42.804451" lon="12.5683637"><ele>1023.4</ele><time>2026-04-11T15:13:08.35Z</time></trkpt><trkpt lat="42.8045478" lon="12.5683514"><ele>1022.5999999999999</ele><time>2026-04-11T15:13:09.348Z</time></trkpt><trkpt lat="42.8046516" lon="12.5683346"><ele>1021.8</ele><time>2026-04-11T15:13:10.354Z</time></trkpt><trkpt lat="42.8047648" lon="12.5683196"><ele>1021.0</ele><time>2026-04-11T15:13:11.35Z</time></trkpt><trkpt lat="42.8048804" lon="12.5683117"><ele>1021.0</ele><time>2026-04-11T15:13:12.355Z</time></trkpt><trkpt lat="42.8049983" lon="12.5682889"><ele>1020.9999999999999</ele><time>2026-04-11T15:13:13.349Z</time></trkpt><trkpt lat="42.8051068" lon="12.5682828"><ele>1020.9999999999999</ele><time>2026-04-11T15:13:14.357Z</time></trkpt><trkpt lat="42.8052024" lon="12.5682735"><ele>1021.0</ele><time>2026-04-11T15:13:15.358Z</time></trkpt><trkpt lat="42.8052871" lon="12.5682665"><ele>1021.0</ele><time>2026-04-11T15:13:16.368Z</time></trkpt><trkpt lat="42.8053595" lon="12.568273"><ele>1020.8333333333333</ele><time>2026-04-11T15:13:17.351Z</time></trkpt><trkpt lat="42.8054239" lon="12.5682768"><ele>1020.6666666666666</ele><time>2026-04-11T15:13:18.351Z</time></trkpt><trkpt lat="42.8055" lon="12.5682585"><ele>1020.5</ele><time>2026-04-11T15:13:20.359Z</time></trkpt><trkpt lat="42.8055728" lon="12.5682451"><ele>1020.3333333333333</ele><time>2026-04-11T15:13:24.394Z</time></trkpt><trkpt lat="42.8056378" lon="12.568259"><ele>1020.1666666666666</ele><time>2026-04-11T15:13:28.349Z</time></trkpt><trkpt lat="42.8055353" lon="12.5682263"><ele>1020.0</ele><time>2026-04-11T15:14:10.403Z</time></trkpt><trkpt lat="42.8054076" lon="12.5682502"><ele>1020.0</ele><time>2026-04-11T15:14:12.34Z</time></trkpt><trkpt lat="42.8053349" lon="12.5682469"><ele>1020.0</ele><time>2026-04-11T15:14:13.356Z</time></trkpt><trkpt lat="42.8052531" lon="12.568247"><ele>1020.0</ele><time>2026-04-11T15:14:14.344Z</time></trkpt><trkpt lat="42.8051633" lon="12.5682543"><ele>1020.0</ele><time>2026-04-11T15:14:15.371Z</time></trkpt><trkpt lat="42.8050525" lon="12.5682687"><ele>1020.0</ele><time>2026-04-11T15:14:16.341Z</time></trkpt><trkpt lat="42.8049384" lon="12.5682874"><ele>1020.2</ele><time>2026-04-11T15:14:17.355Z</time></trkpt><trkpt lat="42.8048237" lon="12.568304"><ele>1020.4</ele><time>2026-04-11T15:14:18.367Z</time></trkpt><trkpt lat="42.804712" lon="12.5683206"><ele>1020.5999999999999</ele><time>2026-04-11T15:14:19.379Z</time></trkpt><trkpt lat="42.8046093" lon="12.5683267"><ele>1020.8</ele><time>2026-04-11T15:14:20.354Z</time></trkpt><trkpt lat="42.8045103" lon="12.5683383"><ele>1021.0</ele><time>2026-04-11T15:14:21.365Z</time></trkpt><trkpt lat="42.8044126" lon="12.5683647"><ele>1021.8</ele><time>2026-04-11T15:14:22.361Z</time></trkpt><trkpt lat="42.8043285" lon="12.5684019"><ele>1022.5999999999999</ele><time>2026-04-11T15:14:23.348Z</time></trkpt><trkpt lat="42.8042571" lon="12.5684686"><ele>1023.4</ele><time>2026-04-11T15:14:24.342Z</time></trkpt><trkpt lat="42.804197" lon="12.5686248"><ele>1024.2</ele><time>2026-04-11T15:14:26.361Z</time></trkpt><trkpt lat="42.8041883" lon="12.5687268"><ele>1025.0</ele><time>2026-04-11T15:14:27.336Z</time></trkpt><trkpt lat="42.8042009" lon="12.5688462"><ele>1025.0</ele><time>2026-04-11T15:14:28.388Z</time></trkpt><trkpt lat="42.8042277" lon="12.5689703"><ele>1025.0</ele><time>2026-04-11T15:14:29.349Z</time></trkpt><trkpt lat="42.8042467" lon="12.5690983"><ele>1025.0</ele><time>2026-04-11T15:14:30.353Z</time></trkpt><trkpt lat="42.8042482" lon="12.5692375"><ele>1025.0</ele><time>2026-04-11T15:14:31.359Z</time></trkpt><trkpt lat="42.8042345" lon="12.5693622"><ele>1025.0</ele><time>2026-04-11T15:14:32.35Z</time></trkpt><trkpt lat="42.8042315" lon="12.5694882"><ele>1025.6</ele><time>2026-04-11T15:14:33.349Z</time></trkpt><trkpt lat="42.8042523" lon="12.5696006"><ele>1026.2</ele><time>2026-04-11T15:14:34.352Z</time></trkpt><trkpt lat="42.8043001" lon="12.5697005"><ele>1026.8</ele><time>2026-04-11T15:14:35.361Z</time></trkpt><trkpt lat="42.8043607" lon="12.5698068"><ele>1027.4</ele><time>2026-04-11T15:14:36.35Z</time></trkpt><trkpt lat="42.804431" lon="12.5699275"><ele>1028.0</ele><time>2026-04-11T15:14:37.378Z</time></trkpt><trkpt lat="42.8044911" lon="12.570046"><ele>1022.5999999999999</ele><time>2026-04-11T15:14:38.356Z</time></trkpt><trkpt lat="42.8045467" lon="12.5701632"><ele>1017.1999999999999</ele><time>2026-04-11T15:14:39.359Z</time></trkpt><trkpt lat="42.8045841" lon="12.5702892"><ele>1011.8</ele><time>2026-04-11T15:14:40.353Z</time></trkpt><trkpt lat="42.8046098" lon="12.5704272"><ele>1006.4</ele><time>2026-04-11T15:14:41.369Z</time></trkpt><trkpt lat="42.8046243" lon="12.5705816"><ele>1001.0</ele><time>2026-04-11T15:14:42.361Z</time></trkpt><trkpt lat="42.8046271" lon="12.5707512"><ele>1000.5</ele><time>2026-04-11T15:14:43.359Z</time></trkpt><trkpt lat="42.8046272" lon="12.5709252"><ele>1000.0</ele><time>2026-04-11T15:14:44.377Z</time></trkpt><trkpt lat="42.8046355" lon="12.5710943"><ele>999.5</ele><time>2026-04-11T15:14:45.35Z</time></trkpt><trkpt lat="42.8046526" lon="12.5712528"><ele>999.0</ele><time>2026-04-11T15:14:46.354Z</time></trkpt><trkpt lat="42.8046605" lon="12.5713946"><ele>999.0</ele><time>2026-04-11T15:14:47.356Z</time></trkpt><trkpt lat="42.804661" lon="12.5715174"><ele>999.0000000000001</ele><time>2026-04-11T15:14:48.356Z</time></trkpt><trkpt lat="42.8046403" lon="12.5716265"><ele>999.0000000000001</ele><time>2026-04-11T15:14:49.371Z</time></trkpt><trkpt lat="42.8046034" lon="12.5717371"><ele>999.0</ele><time>2026-04-11T15:14:50.385Z</time></trkpt><trkpt lat="42.8045488" lon="12.5718299"><ele>999.0</ele><time>2026-04-11T15:14:51.367Z</time></trkpt><trkpt lat="42.8044688" lon="12.5719213"><ele>999.0</ele><time>2026-04-11T15:14:52.366Z</time></trkpt><trkpt lat="42.8043737" lon="12.5719905"><ele>999.0</ele><time>2026-04-11T15:14:53.375Z</time></trkpt><trkpt lat="42.8042659" lon="12.5720613"><ele>999.0</ele><time>2026-04-11T15:14:54.376Z</time></trkpt><trkpt lat="42.804162" lon="12.5721086"><ele>999.0</ele><time>2026-04-11T15:14:55.353Z</time></trkpt><trkpt lat="42.804043" lon="12.5721403"><ele>998.75</ele><time>2026-04-11T15:14:56.354Z</time></trkpt><trkpt lat="42.803928" lon="12.5721608"><ele>998.5</ele><time>2026-04-11T15:14:57.373Z</time></trkpt><trkpt lat="42.803812" lon="12.5721746"><ele>998.25</ele><time>2026-04-11T15:14:58.368Z</time></trkpt><trkpt lat="42.8036875" lon="12.572186"><ele>998.0</ele><time>2026-04-11T15:14:59.351Z</time></trkpt><trkpt lat="42.8035666" lon="12.5721917"><ele>996.5</ele><time>2026-04-11T15:15:00.364Z</time></trkpt><trkpt lat="42.8034437" lon="12.5721841"><ele>995.0</ele><time>2026-04-11T15:15:01.356Z</time></trkpt><trkpt lat="42.8033167" lon="12.5721686"><ele>993.5</ele><time>2026-04-11T15:15:02.338Z</time></trkpt><trkpt lat="42.8031905" lon="12.5721503"><ele>992.0</ele><time>2026-04-11T15:15:03.355Z</time></trkpt><trkpt lat="42.8030749" lon="12.5721298"><ele>992.0</ele><time>2026-04-11T15:15:04.363Z</time></trkpt><trkpt lat="42.8029686" lon="12.5721082"><ele>992.0</ele><time>2026-04-11T15:15:05.355Z</time></trkpt><trkpt lat="42.8028698" lon="12.5720796"><ele>992.0</ele><time>2026-04-11T15:15:06.347Z</time></trkpt><trkpt lat="42.8027739" lon="12.5720644"><ele>992.0</ele><time>2026-04-11T15:15:07.348Z</time></trkpt><trkpt lat="42.802681" lon="12.5720653"><ele>992.0</ele><time>2026-04-11T15:15:08.359Z</time></trkpt><trkpt lat="42.8025959" lon="12.5720969"><ele>993.4000000000001</ele><time>2026-04-11T15:15:09.348Z</time></trkpt><trkpt lat="42.8025221" lon="12.5721659"><ele>994.8000000000001</ele><time>2026-04-11T15:15:10.345Z</time></trkpt><trkpt lat="42.8024729" lon="12.5722612"><ele>996.2</ele><time>2026-04-11T15:15:11.355Z</time></trkpt><trkpt lat="42.8024561" lon="12.572385"><ele>997.6</ele><time>2026-04-11T15:15:12.349Z</time></trkpt><trkpt lat="42.8024587" lon="12.572529"><ele>999.0</ele><time>2026-04-11T15:15:13.341Z</time></trkpt><trkpt lat="42.8024833" lon="12.5726728"><ele>999.0</ele><time>2026-04-11T15:15:14.349Z</time></trkpt><trkpt lat="42.8025063" lon="12.5728281"><ele>999.0</ele><time>2026-04-11T15:15:15.357Z</time></trkpt><trkpt lat="42.8025244" lon="12.5729917"><ele>999.0</ele><time>2026-04-11T15:15:16.347Z</time></trkpt><trkpt lat="42.802541" lon="12.5731577"><ele>999.0</ele><time>2026-04-11T15:15:17.369Z</time></trkpt><trkpt lat="42.8025566" lon="12.5733101"><ele>999.2</ele><time>2026-04-11T15:15:18.348Z</time></trkpt><trkpt lat="42.8025804" lon="12.5734517"><ele>999.4000000000001</ele><time>2026-04-11T15:15:19.358Z</time></trkpt><trkpt lat="42.8026156" lon="12.5735868"><ele>999.6</ele><time>2026-04-11T15:15:20.346Z</time></trkpt><trkpt lat="42.8026581" lon="12.5737181"><ele>999.8</ele><time>2026-04-11T15:15:21.356Z</time></trkpt><trkpt lat="42.8027076" lon="12.5738484"><ele>1000.0</ele><time>2026-04-11T15:15:22.35Z</time></trkpt><trkpt lat="42.8027536" lon="12.5739698"><ele>995.4</ele><time>2026-04-11T15:15:23.367Z</time></trkpt><trkpt lat="42.8028068" lon="12.5741016"><ele>990.8</ele><time>2026-04-11T15:15:24.353Z</time></trkpt><trkpt lat="42.8028614" lon="12.5742337"><ele>986.2</ele><time>2026-04-11T15:15:25.36Z</time></trkpt><trkpt lat="42.8029088" lon="12.5743644"><ele>981.6</ele><time>2026-04-11T15:15:26.353Z</time></trkpt><trkpt lat="42.8029554" lon="12.5745043"><ele>977.0</ele><time>2026-04-11T15:15:27.358Z</time></trkpt><trkpt lat="42.8029999" lon="12.5746441"><ele>977.0000000000001</ele><time>2026-04-11T15:15:28.347Z</time></trkpt><trkpt lat="42.8030427" lon="12.5747748"><ele>977.0</ele><time>2026-04-11T15:15:29.352Z</time></trkpt><trkpt lat="42.8030792" lon="12.5749014"><ele>977.0</ele><time>2026-04-11T15:15:30.35Z</time></trkpt><trkpt lat="42.8030927" lon="12.5750158"><ele>977.0</ele><time>2026-04-11T15:15:31.357Z</time></trkpt><trkpt lat="42.8030842" lon="12.5751235"><ele>977.0000000000001</ele><time>2026-04-11T15:15:32.347Z</time></trkpt><trkpt lat="42.8030507" lon="12.5752186"><ele>977.0</ele><time>2026-04-11T15:15:33.349Z</time></trkpt><trkpt lat="42.8029963" lon="12.5753036"><ele>976.4000000000001</ele><time>2026-04-11T15:15:34.362Z</time></trkpt><trkpt lat="42.8029241" lon="12.5753754"><ele>975.8000000000001</ele><time>2026-04-11T15:15:35.36Z</time></trkpt><trkpt lat="42.8028403" lon="12.5754107"><ele>975.2</ele><time>2026-04-11T15:15:36.346Z</time></trkpt><trkpt lat="42.8027431" lon="12.5754318"><ele>974.6</ele><time>2026-04-11T15:15:37.348Z</time></trkpt><trkpt lat="42.8026326" lon="12.5754343"><ele>974.0</ele><time>2026-04-11T15:15:38.354Z</time></trkpt><trkpt lat="42.8025208" lon="12.5754228"><ele>973.75</ele><time>2026-04-11T15:15:39.36Z</time></trkpt><trkpt lat="42.8024122" lon="12.575391"><ele>973.5</ele><time>2026-04-11T15:15:40.361Z</time></trkpt><trkpt lat="42.8022993" lon="12.5753556"><ele>973.25</ele><time>2026-04-11T15:15:41.348Z</time></trkpt><trkpt lat="42.8021872" lon="12.5753122"><ele>973.0</ele><time>2026-04-11T15:15:42.35Z</time></trkpt><trkpt lat="42.80207" lon="12.5752603"><ele>978.0</ele><time>2026-04-11T15:15:43.356Z</time></trkpt><trkpt lat="42.8019509" lon="12.5752043"><ele>983.0</ele><time>2026-04-11T15:15:44.36Z</time></trkpt><trkpt lat="42.8018314" lon="12.5751651"><ele>988.0</ele><time>2026-04-11T15:15:45.359Z</time></trkpt><trkpt lat="42.8017214" lon="12.5751586"><ele>993.0</ele><time>2026-04-11T15:15:46.351Z</time></trkpt><trkpt lat="42.8016238" lon="12.5751939"><ele>993.0</ele><time>2026-04-11T15:15:47.357Z</time></trkpt><trkpt lat="42.8015265" lon="12.5752552"><ele>993.0</ele><time>2026-04-11T15:15:48.351Z</time></trkpt><trkpt lat="42.8014313" lon="12.5753547"><ele>993.0</ele><time>2026-04-11T15:15:49.36Z</time></trkpt><trkpt lat="42.801341" lon="12.5754525"><ele>993.0</ele><time>2026-04-11T15:15:50.372Z</time></trkpt><trkpt lat="42.8012524" lon="12.5755288"><ele>993.0</ele><time>2026-04-11T15:15:51.357Z</time></trkpt><trkpt lat="42.8011642" lon="12.5755811"><ele>991.8</ele><time>2026-04-11T15:15:52.348Z</time></trkpt><trkpt lat="42.8010627" lon="12.5756122"><ele>990.5999999999999</ele><time>2026-04-11T15:15:53.363Z</time></trkpt><trkpt lat="42.8009553" lon="12.5756218"><ele>989.4000000000001</ele><time>2026-04-11T15:15:54.368Z</time></trkpt><trkpt lat="42.8008349" lon="12.575623"><ele>988.2</ele><time>2026-04-11T15:15:55.371Z</time></trkpt><trkpt lat="42.8007212" lon="12.5756059"><ele>987.0</ele><time>2026-04-11T15:15:56.353Z</time></trkpt><trkpt lat="42.8006137" lon="12.5755859"><ele>987.0</ele><time>2026-04-11T15:15:57.358Z</time></trkpt><trkpt lat="42.8005162" lon="12.5755751"><ele>987.0</ele><time>2026-04-11T15:15:58.365Z</time></trkpt><trkpt lat="42.8004299" lon="12.5755698"><ele>987.0</ele><time>2026-04-11T15:15:59.357Z</time></trkpt><trkpt lat="42.8003504" lon="12.5755828"><ele>987.0</ele><time>2026-04-11T15:16:00.356Z</time></trkpt><trkpt lat="42.8002522" lon="12.5756877"><ele>987.0</ele><time>2026-04-11T15:16:02.354Z</time></trkpt><trkpt lat="42.8002343" lon="12.5757795"><ele>987.0</ele><time>2026-04-11T15:16:03.358Z</time></trkpt><trkpt lat="42.8002314" lon="12.5758777"><ele>987.0</ele><time>2026-04-11T15:16:04.352Z</time></trkpt><trkpt lat="42.8002548" lon="12.5759852"><ele>987.0</ele><time>2026-04-11T15:16:05.358Z</time></trkpt><trkpt lat="42.8002964" lon="12.5760903"><ele>987.0</ele><time>2026-04-11T15:16:06.353Z</time></trkpt><trkpt lat="42.8003488" lon="12.5762048"><ele>987.0</ele><time>2026-04-11T15:16:07.364Z</time></trkpt><trkpt lat="42.8004046" lon="12.5763253"><ele>987.0</ele><time>2026-04-11T15:16:08.362Z</time></trkpt><trkpt lat="42.8004573" lon="12.5764416"><ele>986.0</ele><time>2026-04-11T15:16:09.355Z</time></trkpt><trkpt lat="42.8005116" lon="12.5765506"><ele>985.0</ele><time>2026-04-11T15:16:10.35Z</time></trkpt><trkpt lat="42.800563" lon="12.5766525"><ele>984.0</ele><time>2026-04-11T15:16:11.361Z</time></trkpt><trkpt lat="42.8006131" lon="12.5767512"><ele>983.0</ele><time>2026-04-11T15:16:12.343Z</time></trkpt><trkpt lat="42.8006639" lon="12.5768452"><ele>982.0</ele><time>2026-04-11T15:16:13.354Z</time></trkpt><trkpt lat="42.8007135" lon="12.5769339"><ele>981.0</ele><time>2026-04-11T15:16:14.35Z</time></trkpt><trkpt lat="42.8007524" lon="12.5770208"><ele>981.0</ele><time>2026-04-11T15:16:15.354Z</time></trkpt><trkpt lat="42.800786" lon="12.5771092"><ele>981.0</ele><time>2026-04-11T15:16:16.347Z</time></trkpt><trkpt lat="42.8008306" lon="12.5772512"><ele>981.0</ele><time>2026-04-11T15:16:18.353Z</time></trkpt><trkpt lat="42.8008606" lon="12.5773288"><ele>981.0</ele><time>2026-04-11T15:16:20.352Z</time></trkpt><trkpt lat="42.8008153" lon="12.5772603"><ele>981.0</ele><time>2026-04-11T15:29:11.356Z</time></trkpt><trkpt lat="42.800816" lon="12.5771376"><ele>981.0</ele><time>2026-04-11T15:30:29.366Z</time></trkpt><trkpt lat="42.8007606" lon="12.5770096"><ele>981.0</ele><time>2026-04-11T15:30:31.367Z</time></trkpt><trkpt lat="42.8007182" lon="12.5769322"><ele>981.0</ele><time>2026-04-11T15:30:32.354Z</time></trkpt><trkpt lat="42.8006785" lon="12.5768564"><ele>981.0</ele><time>2026-04-11T15:30:33.357Z</time></trkpt><trkpt lat="42.8006364" lon="12.5767786"><ele>981.0</ele><time>2026-04-11T15:30:34.358Z</time></trkpt><trkpt lat="42.8005863" lon="12.5766895"><ele>981.0</ele><time>2026-04-11T15:30:35.352Z</time></trkpt><trkpt lat="42.8005309" lon="12.5765919"><ele>981.0</ele><time>2026-04-11T15:30:36.37Z</time></trkpt><trkpt lat="42.8004762" lon="12.5764955"><ele>981.0</ele><time>2026-04-11T15:30:37.349Z</time></trkpt><trkpt lat="42.8004304" lon="12.5763957"><ele>981.0</ele><time>2026-04-11T15:30:38.371Z</time></trkpt><trkpt lat="42.8003853" lon="12.5763042"><ele>981.0</ele><time>2026-04-11T15:30:39.368Z</time></trkpt><trkpt lat="42.8003413" lon="12.5762137"><ele>981.0</ele><time>2026-04-11T15:30:40.357Z</time></trkpt><trkpt lat="42.800298" lon="12.5761209"><ele>981.0</ele><time>2026-04-11T15:30:41.362Z</time></trkpt><trkpt lat="42.8002622" lon="12.576028"><ele>981.0</ele><time>2026-04-11T15:30:42.365Z</time></trkpt><trkpt lat="42.8002359" lon="12.5759336"><ele>981.8571428571429</ele><time>2026-04-11T15:30:43.372Z</time></trkpt><trkpt lat="42.8002217" lon="12.5758382"><ele>982.7142857142857</ele><time>2026-04-11T15:30:44.354Z</time></trkpt><trkpt lat="42.8002269" lon="12.5757434"><ele>983.5714285714286</ele><time>2026-04-11T15:30:45.361Z</time></trkpt><trkpt lat="42.8002589" lon="12.5756531"><ele>984.4285714285714</ele><time>2026-04-11T15:30:46.359Z</time></trkpt><trkpt lat="42.8003123" lon="12.5755977"><ele>985.2857142857142</ele><time>2026-04-11T15:30:47.358Z</time></trkpt><trkpt lat="42.8003728" lon="12.575569"><ele>986.1428571428571</ele><time>2026-04-11T15:30:48.339Z</time></trkpt><trkpt lat="42.8004395" lon="12.5755723"><ele>987.0</ele><time>2026-04-11T15:30:49.362Z</time></trkpt><trkpt lat="42.8005022" lon="12.5755899"><ele>987.0</ele><time>2026-04-11T15:30:50.354Z</time></trkpt><trkpt lat="42.8005661" lon="12.5756016"><ele>987.0</ele><time>2026-04-11T15:30:51.364Z</time></trkpt><trkpt lat="42.8006359" lon="12.5756086"><ele>987.0</ele><time>2026-04-11T15:30:52.344Z</time></trkpt><trkpt lat="42.8007074" lon="12.575618"><ele>987.0</ele><time>2026-04-11T15:30:53.35Z</time></trkpt><trkpt lat="42.8007821" lon="12.5756275"><ele>987.0</ele><time>2026-04-11T15:30:54.35Z</time></trkpt><trkpt lat="42.8008619" lon="12.57564"><ele>987.0</ele><time>2026-04-11T15:30:55.349Z</time></trkpt><trkpt lat="42.8009478" lon="12.5756507"><ele>987.0</ele><time>2026-04-11T15:30:56.341Z</time></trkpt><trkpt lat="42.8010384" lon="12.5756417"><ele>988.2</ele><time>2026-04-11T15:30:57.356Z</time></trkpt><trkpt lat="42.8011271" lon="12.5756101"><ele>989.4000000000001</ele><time>2026-04-11T15:30:58.363Z</time></trkpt><trkpt lat="42.8012148" lon="12.5755649"><ele>990.5999999999999</ele><time>2026-04-11T15:30:59.361Z</time></trkpt><trkpt lat="42.801305" lon="12.5754953"><ele>991.8</ele><time>2026-04-11T15:31:00.358Z</time></trkpt><trkpt lat="42.8013892" lon="12.5754107"><ele>993.0</ele><time>2026-04-11T15:31:01.362Z</time></trkpt><trkpt lat="42.8014706" lon="12.5753233"><ele>993.0</ele><time>2026-04-11T15:31:02.354Z</time></trkpt><trkpt lat="42.8015569" lon="12.5752497"><ele>993.0</ele><time>2026-04-11T15:31:03.357Z</time></trkpt><trkpt lat="42.8016493" lon="12.5751911"><ele>993.0</ele><time>2026-04-11T15:31:04.368Z</time></trkpt><trkpt lat="42.80175" lon="12.5751719"><ele>993.0</ele><time>2026-04-11T15:31:05.365Z</time></trkpt><trkpt lat="42.8018528" lon="12.5751845"><ele>993.0</ele><time>2026-04-11T15:31:06.353Z</time></trkpt><trkpt lat="42.8019598" lon="12.575234"><ele>993.0</ele><time>2026-04-11T15:31:07.356Z</time></trkpt><trkpt lat="42.8020695" lon="12.575285"><ele>993.0</ele><time>2026-04-11T15:31:08.363Z</time></trkpt><trkpt lat="42.8021809" lon="12.575334"><ele>993.0</ele><time>2026-04-11T15:31:09.358Z</time></trkpt><trkpt lat="42.8022926" lon="12.5753748"><ele>993.0</ele><time>2026-04-11T15:31:10.358Z</time></trkpt><trkpt lat="42.8023989" lon="12.5754083"><ele>989.2</ele><time>2026-04-11T15:31:11.357Z</time></trkpt><trkpt lat="42.8025032" lon="12.5754304"><ele>985.4</ele><time>2026-04-11T15:31:12.347Z</time></trkpt><trkpt lat="42.8026065" lon="12.5754412"><ele>981.6000000000001</ele><time>2026-04-11T15:31:13.356Z</time></trkpt><trkpt lat="42.802712" lon="12.5754438"><ele>977.8000000000001</ele><time>2026-04-11T15:31:14.357Z</time></trkpt><trkpt lat="42.8028121" lon="12.575433"><ele>974.0</ele><time>2026-04-11T15:31:15.364Z</time></trkpt><trkpt lat="42.8029036" lon="12.5753933"><ele>974.5000000000001</ele><time>2026-04-11T15:31:16.355Z</time></trkpt><trkpt lat="42.8029789" lon="12.5753295"><ele>975.0</ele><time>2026-04-11T15:31:17.358Z</time></trkpt><trkpt lat="42.8030358" lon="12.5752485"><ele>975.5</ele><time>2026-04-11T15:31:18.353Z</time></trkpt><trkpt lat="42.8030707" lon="12.5751505"><ele>976.0</ele><time>2026-04-11T15:31:19.367Z</time></trkpt><trkpt lat="42.8030879" lon="12.5750291"><ele>976.5000000000001</ele><time>2026-04-11T15:31:20.356Z</time></trkpt><trkpt lat="42.8030899" lon="12.5749059"><ele>977.0</ele><time>2026-04-11T15:31:21.366Z</time></trkpt><trkpt lat="42.803055" lon="12.5747746"><ele>977.0</ele><time>2026-04-11T15:31:22.35Z</time></trkpt><trkpt lat="42.8030142" lon="12.5746517"><ele>977.0</ele><time>2026-04-11T15:31:23.353Z</time></trkpt><trkpt lat="42.8029763" lon="12.5745246"><ele>977.0</ele><time>2026-04-11T15:31:24.354Z</time></trkpt><trkpt lat="42.8029357" lon="12.5744073"><ele>977.0</ele><time>2026-04-11T15:31:25.364Z</time></trkpt><trkpt lat="42.8028895" lon="12.5742758"><ele>977.0</ele><time>2026-04-11T15:31:26.362Z</time></trkpt><trkpt lat="42.8028379" lon="12.5741474"><ele>975.4000000000001</ele><time>2026-04-11T15:31:27.36Z</time></trkpt><trkpt lat="42.8027866" lon="12.5740271"><ele>973.8000000000001</ele><time>2026-04-11T15:31:28.357Z</time></trkpt><trkpt lat="42.8027311" lon="12.573905"><ele>972.2</ele><time>2026-04-11T15:31:29.354Z</time></trkpt><trkpt lat="42.8026816" lon="12.5737813"><ele>970.6</ele><time>2026-04-11T15:31:30.359Z</time></trkpt><trkpt lat="42.8026331" lon="12.5736566"><ele>969.0</ele><time>2026-04-11T15:31:31.362Z</time></trkpt><trkpt lat="42.8025933" lon="12.5735253"><ele>975.0</ele><time>2026-04-11T15:31:32.364Z</time></trkpt><trkpt lat="42.8025658" lon="12.573385"><ele>981.0000000000001</ele><time>2026-04-11T15:31:33.358Z</time></trkpt><trkpt lat="42.8025485" lon="12.57325"><ele>987.0000000000001</ele><time>2026-04-11T15:31:34.365Z</time></trkpt><trkpt lat="42.8025322" lon="12.5731085"><ele>993.0</ele><time>2026-04-11T15:31:35.364Z</time></trkpt><trkpt lat="42.802518" lon="12.5729671"><ele>999.0</ele><time>2026-04-11T15:31:36.354Z</time></trkpt><trkpt lat="42.8024961" lon="12.5728191"><ele>999.0</ele><time>2026-04-11T15:31:37.366Z</time></trkpt><trkpt lat="42.8024704" lon="12.5726743"><ele>999.0000000000001</ele><time>2026-04-11T15:31:38.34Z</time></trkpt><trkpt lat="42.8024491" lon="12.5725434"><ele>999.0000000000001</ele><time>2026-04-11T15:31:39.358Z</time></trkpt><trkpt lat="42.8024418" lon="12.572426"><ele>999.0</ele><time>2026-04-11T15:31:40.357Z</time></trkpt><trkpt lat="42.8024619" lon="12.5723091"><ele>999.0</ele><time>2026-04-11T15:31:41.356Z</time></trkpt><trkpt lat="42.8025082" lon="12.5722155"><ele>999.0</ele><time>2026-04-11T15:31:42.354Z</time></trkpt><trkpt lat="42.8025784" lon="12.5721482"><ele>999.0000000000001</ele><time>2026-04-11T15:31:43.349Z</time></trkpt><trkpt lat="42.8026699" lon="12.5721208"><ele>999.0000000000001</ele><time>2026-04-11T15:31:44.357Z</time></trkpt><trkpt lat="42.8027654" lon="12.5721245"><ele>999.0</ele><time>2026-04-11T15:31:45.357Z</time></trkpt><trkpt lat="42.8028637" lon="12.57215"><ele>999.0</ele><time>2026-04-11T15:31:46.366Z</time></trkpt><trkpt lat="42.8029705" lon="12.5721819"><ele>997.25</ele><time>2026-04-11T15:31:47.36Z</time></trkpt><trkpt lat="42.8030862" lon="12.5722082"><ele>995.5</ele><time>2026-04-11T15:31:48.344Z</time></trkpt><trkpt lat="42.8032016" lon="12.5722362"><ele>993.75</ele><time>2026-04-11T15:31:49.358Z</time></trkpt><trkpt lat="42.8033234" lon="12.5722599"><ele>992.0</ele><time>2026-04-11T15:31:50.344Z</time></trkpt><trkpt lat="42.803444" lon="12.5722791"><ele>993.5</ele><time>2026-04-11T15:31:51.366Z</time></trkpt><trkpt lat="42.8035642" lon="12.5722936"><ele>995.0</ele><time>2026-04-11T15:31:52.354Z</time></trkpt><trkpt lat="42.8036831" lon="12.5722941"><ele>996.5</ele><time>2026-04-11T15:31:53.378Z</time></trkpt><trkpt lat="42.8038006" lon="12.5722869"><ele>998.0</ele><time>2026-04-11T15:31:54.358Z</time></trkpt><trkpt lat="42.803914" lon="12.5722644"><ele>998.0</ele><time>2026-04-11T15:31:55.338Z</time></trkpt><trkpt lat="42.8040259" lon="12.5722353"><ele>998.0</ele><time>2026-04-11T15:31:56.368Z</time></trkpt><trkpt lat="42.8041298" lon="12.5721942"><ele>998.0</ele><time>2026-04-11T15:31:57.36Z</time></trkpt><trkpt lat="42.8042346" lon="12.5721436"><ele>998.0</ele><time>2026-04-11T15:31:58.355Z</time></trkpt><trkpt lat="42.8043401" lon="12.5720824"><ele>998.0</ele><time>2026-04-11T15:31:59.36Z</time></trkpt><trkpt lat="42.8044328" lon="12.5720023"><ele>998.2</ele><time>2026-04-11T15:32:00.363Z</time></trkpt><trkpt lat="42.8045218" lon="12.5719167"><ele>998.4</ele><time>2026-04-11T15:32:01.364Z</time></trkpt><trkpt lat="42.804601" lon="12.5717988"><ele>998.6000000000001</ele><time>2026-04-11T15:32:02.358Z</time></trkpt><trkpt lat="42.8046541" lon="12.5716865"><ele>998.8000000000001</ele><time>2026-04-11T15:32:03.366Z</time></trkpt><trkpt lat="42.8046733" lon="12.5715561"><ele>999.0</ele><time>2026-04-11T15:32:04.351Z</time></trkpt><trkpt lat="42.804675" lon="12.571413"><ele>999.0</ele><time>2026-04-11T15:32:05.371Z</time></trkpt><trkpt lat="42.8046581" lon="12.5712627"><ele>999.0000000000001</ele><time>2026-04-11T15:32:06.342Z</time></trkpt><trkpt lat="42.8046442" lon="12.5711407"><ele>999.0000000000001</ele><time>2026-04-11T15:32:07.367Z</time></trkpt><trkpt lat="42.8046176" lon="12.5710164"><ele>999.0</ele><time>2026-04-11T15:32:08.357Z</time></trkpt><trkpt lat="42.8046027" lon="12.5708899"><ele>999.0</ele><time>2026-04-11T15:32:09.359Z</time></trkpt><trkpt lat="42.804593" lon="12.5707484"><ele>999.0</ele><time>2026-04-11T15:32:10.355Z</time></trkpt><trkpt lat="42.8045906" lon="12.5706024"><ele>999.0000000000001</ele><time>2026-04-11T15:32:11.365Z</time></trkpt><trkpt lat="42.8045826" lon="12.5704625"><ele>999.0000000000001</ele><time>2026-04-11T15:32:12.358Z</time></trkpt><trkpt lat="42.8045646" lon="12.5703171"><ele>999.0</ele><time>2026-04-11T15:32:13.356Z</time></trkpt><trkpt lat="42.8045236" lon="12.5701874"><ele>999.0</ele><time>2026-04-11T15:32:14.354Z</time></trkpt><trkpt lat="42.8044704" lon="12.5700553"><ele>999.4000000000001</ele><time>2026-04-11T15:32:15.357Z</time></trkpt><trkpt lat="42.8044046" lon="12.5699326"><ele>999.8000000000001</ele><time>2026-04-11T15:32:16.352Z</time></trkpt><trkpt lat="42.8043465" lon="12.5698365"><ele>1000.1999999999999</ele><time>2026-04-11T15:32:17.356Z</time></trkpt><trkpt lat="42.8042917" lon="12.5697258"><ele>1000.5999999999999</ele><time>2026-04-11T15:32:18.347Z</time></trkpt><trkpt lat="42.8042476" lon="12.5696136"><ele>1001.0</ele><time>2026-04-11T15:32:19.349Z</time></trkpt><trkpt lat="42.8042307" lon="12.5694929"><ele>1005.8</ele><time>2026-04-11T15:32:20.349Z</time></trkpt><trkpt lat="42.8042476" lon="12.5693737"><ele>1010.5999999999999</ele><time>2026-04-11T15:32:21.359Z</time></trkpt><trkpt lat="42.8042715" lon="12.5692449"><ele>1015.4</ele><time>2026-04-11T15:32:22.35Z</time></trkpt><trkpt lat="42.8042757" lon="12.5691368"><ele>1020.2</ele><time>2026-04-11T15:32:23.353Z</time></trkpt><trkpt lat="42.8042541" lon="12.5690013"><ele>1025.0</ele><time>2026-04-11T15:32:24.353Z</time></trkpt><trkpt lat="42.8042191" lon="12.5688635"><ele>1025.0</ele><time>2026-04-11T15:32:25.353Z</time></trkpt><trkpt lat="42.8041999" lon="12.5687319"><ele>1025.0</ele><time>2026-04-11T15:32:26.35Z</time></trkpt><trkpt lat="42.804211" lon="12.568612"><ele>1025.0</ele><time>2026-04-11T15:32:27.361Z</time></trkpt><trkpt lat="42.8042497" lon="12.568498"><ele>1025.0</ele><time>2026-04-11T15:32:28.352Z</time></trkpt><trkpt lat="42.8043248" lon="12.5684067"><ele>1025.0</ele><time>2026-04-11T15:32:29.357Z</time></trkpt><trkpt lat="42.8044105" lon="12.5683647"><ele>1024.2</ele><time>2026-04-11T15:32:30.358Z</time></trkpt><trkpt lat="42.804503" lon="12.5683372"><ele>1023.4</ele><time>2026-04-11T15:32:31.351Z</time></trkpt><trkpt lat="42.804611" lon="12.5683148"><ele>1022.5999999999999</ele><time>2026-04-11T15:32:32.361Z</time></trkpt><trkpt lat="42.8047227" lon="12.5683005"><ele>1021.8</ele><time>2026-04-11T15:32:33.36Z</time></trkpt><trkpt lat="42.8048405" lon="12.5682906"><ele>1021.0</ele><time>2026-04-11T15:32:34.338Z</time></trkpt><trkpt lat="42.8049568" lon="12.5682823"><ele>1021.0</ele><time>2026-04-11T15:32:35.367Z</time></trkpt><trkpt lat="42.8050671" lon="12.568266"><ele>1020.9999999999999</ele><time>2026-04-11T15:32:36.356Z</time></trkpt><trkpt lat="42.8051707" lon="12.568253"><ele>1020.9999999999999</ele><time>2026-04-11T15:32:37.355Z</time></trkpt><trkpt lat="42.8052576" lon="12.5682398"><ele>1021.0</ele><time>2026-04-11T15:32:38.357Z</time></trkpt><trkpt lat="42.8053469" lon="12.5682335"><ele>1021.0</ele><time>2026-04-11T15:32:39.349Z</time></trkpt><trkpt lat="42.8054266" lon="12.5682367"><ele>1020.8</ele><time>2026-04-11T15:32:40.364Z</time></trkpt><trkpt lat="42.8054952" lon="12.568246"><ele>1020.5999999999999</ele><time>2026-04-11T15:32:41.357Z</time></trkpt><trkpt lat="42.805597" lon="12.5682425"><ele>1020.4</ele><time>2026-04-11T15:32:43.374Z</time></trkpt><trkpt lat="42.8057265" lon="12.5682661"><ele>1020.2</ele><time>2026-04-11T15:32:45.352Z</time></trkpt><trkpt lat="42.8058021" lon="12.5683013"><ele>1020.0</ele><time>2026-04-11T15:32:46.357Z</time></trkpt><trkpt lat="42.8058851" lon="12.5683426"><ele>1020.0</ele><time>2026-04-11T15:32:47.355Z</time></trkpt><trkpt lat="42.8059724" lon="12.5683749"><ele>1020.0</ele><time>2026-04-11T15:32:48.353Z</time></trkpt><trkpt lat="42.8060735" lon="12.5684032"><ele>1020.0</ele><time>2026-04-11T15:32:49.354Z</time></trkpt><trkpt lat="42.806175" lon="12.5684294"><ele>1020.0</ele><time>2026-04-11T15:32:50.353Z</time></trkpt><trkpt lat="42.8062837" lon="12.5684413"><ele>1020.0</ele><time>2026-04-11T15:32:51.367Z</time></trkpt><trkpt lat="42.8063935" lon="12.5684382"><ele>1018.5</ele><time>2026-04-11T15:32:52.359Z</time></trkpt><trkpt lat="42.8064994" lon="12.5683999"><ele>1017.0</ele><time>2026-04-11T15:32:53.363Z</time></trkpt><trkpt lat="42.8066051" lon="12.5683326"><ele>1015.5</ele><time>2026-04-11T15:32:54.363Z</time></trkpt><trkpt lat="42.8067033" lon="12.5682294"><ele>1014.0</ele><time>2026-04-11T15:32:55.355Z</time></trkpt><trkpt lat="42.8067932" lon="12.568111"><ele>1010.25</ele><time>2026-04-11T15:32:56.353Z</time></trkpt><trkpt lat="42.8068729" lon="12.5679813"><ele>1006.5</ele><time>2026-04-11T15:32:57.354Z</time></trkpt><trkpt lat="42.8069369" lon="12.5678472"><ele>1002.75</ele><time>2026-04-11T15:32:58.355Z</time></trkpt><trkpt lat="42.806995" lon="12.5677107"><ele>999.0</ele><time>2026-04-11T15:32:59.352Z</time></trkpt><trkpt lat="42.8070402" lon="12.5675713"><ele>999.0</ele><time>2026-04-11T15:33:00.358Z</time></trkpt><trkpt lat="42.8070746" lon="12.5674152"><ele>999.0</ele><time>2026-04-11T15:33:01.347Z</time></trkpt><trkpt lat="42.8070964" lon="12.5672626"><ele>999.0</ele><time>2026-04-11T15:33:02.355Z</time></trkpt><trkpt lat="42.8071254" lon="12.5671144"><ele>999.0</ele><time>2026-04-11T15:33:03.363Z</time></trkpt><trkpt lat="42.8071586" lon="12.5669682"><ele>1000.2</ele><time>2026-04-11T15:33:04.353Z</time></trkpt><trkpt lat="42.8072055" lon="12.5668361"><ele>1001.4000000000001</ele><time>2026-04-11T15:33:05.353Z</time></trkpt><trkpt lat="42.8072816" lon="12.5667277"><ele>1002.6</ele><time>2026-04-11T15:33:06.358Z</time></trkpt><trkpt lat="42.8073863" lon="12.5666978"><ele>1003.8</ele><time>2026-04-11T15:33:07.344Z</time></trkpt><trkpt lat="42.8075019" lon="12.566716"><ele>1005.0</ele><time>2026-04-11T15:33:08.352Z</time></trkpt><trkpt lat="42.8075993" lon="12.5667739"><ele>1002.6</ele><time>2026-04-11T15:33:09.361Z</time></trkpt><trkpt lat="42.807694" lon="12.5668276"><ele>1000.2</ele><time>2026-04-11T15:33:10.355Z</time></trkpt><trkpt lat="42.807795" lon="12.5668541"><ele>997.8</ele><time>2026-04-11T15:33:11.362Z</time></trkpt><trkpt lat="42.8079113" lon="12.5668627"><ele>995.4</ele><time>2026-04-11T15:33:12.349Z</time></trkpt><trkpt lat="42.8080201" lon="12.5668633"><ele>993.0</ele><time>2026-04-11T15:33:13.352Z</time></trkpt><trkpt lat="42.8081259" lon="12.5668419"><ele>993.0</ele><time>2026-04-11T15:33:14.355Z</time></trkpt><trkpt lat="42.8082161" lon="12.5667926"><ele>993.0</ele><time>2026-04-11T15:33:15.34Z</time></trkpt><trkpt lat="42.8082896" lon="12.5666952"><ele>993.0</ele><time>2026-04-11T15:33:16.358Z</time></trkpt><trkpt lat="42.8083301" lon="12.5665766"><ele>993.0</ele><time>2026-04-11T15:33:17.364Z</time></trkpt><trkpt lat="42.8083288" lon="12.5664404"><ele>993.0</ele><time>2026-04-11T15:33:18.355Z</time></trkpt><trkpt lat="42.8083127" lon="12.5662934"><ele>992.25</ele><time>2026-04-11T15:33:19.361Z</time></trkpt><trkpt lat="42.8082792" lon="12.5661375"><ele>991.5</ele><time>2026-04-11T15:33:20.356Z</time></trkpt><trkpt lat="42.8082366" lon="12.565968"><ele>990.75</ele><time>2026-04-11T15:33:21.352Z</time></trkpt><trkpt lat="42.8081924" lon="12.5657942"><ele>990.0</ele><time>2026-04-11T15:33:22.357Z</time></trkpt><trkpt lat="42.8081386" lon="12.5656115"><ele>990.0</ele><time>2026-04-11T15:33:23.359Z</time></trkpt><trkpt lat="42.808085" lon="12.5654224"><ele>990.0</ele><time>2026-04-11T15:33:24.357Z</time></trkpt><trkpt lat="42.8080258" lon="12.5652364"><ele>990.0</ele><time>2026-04-11T15:33:25.359Z</time></trkpt><trkpt lat="42.8079687" lon="12.5650577"><ele>990.0</ele><time>2026-04-11T15:33:26.349Z</time></trkpt><trkpt lat="42.8079156" lon="12.5648787"><ele>985.75</ele><time>2026-04-11T15:33:27.339Z</time></trkpt><trkpt lat="42.8078698" lon="12.5647056"><ele>981.5</ele><time>2026-04-11T15:33:28.332Z</time></trkpt><trkpt lat="42.8078231" lon="12.5645267"><ele>977.25</ele><time>2026-04-11T15:33:29.335Z</time></trkpt><trkpt lat="42.8077714" lon="12.5643568"><ele>973.0</ele><time>2026-04-11T15:33:30.352Z</time></trkpt><trkpt lat="42.8077229" lon="12.5641745"><ele>975.25</ele><time>2026-04-11T15:33:31.359Z</time></trkpt><trkpt lat="42.8076702" lon="12.5639847"><ele>977.5</ele><time>2026-04-11T15:33:32.339Z</time></trkpt><trkpt lat="42.8076227" lon="12.563804"><ele>979.75</ele><time>2026-04-11T15:33:33.35Z</time></trkpt><trkpt lat="42.8075737" lon="12.5636245"><ele>982.0</ele><time>2026-04-11T15:33:34.37Z</time></trkpt><trkpt lat="42.8075293" lon="12.5634462"><ele>982.0</ele><time>2026-04-11T15:33:35.357Z</time></trkpt><trkpt lat="42.8074857" lon="12.5632846"><ele>982.0</ele><time>2026-04-11T15:33:36.342Z</time></trkpt><trkpt lat="42.8074438" lon="12.5631235"><ele>982.0</ele><time>2026-04-11T15:33:37.349Z</time></trkpt><trkpt lat="42.8074137" lon="12.5629691"><ele>982.0</ele><time>2026-04-11T15:33:38.355Z</time></trkpt><trkpt lat="42.8073956" lon="12.5628262"><ele>980.8</ele><time>2026-04-11T15:33:39.357Z</time></trkpt><trkpt lat="42.8074018" lon="12.5627018"><ele>979.6</ele><time>2026-04-11T15:33:40.353Z</time></trkpt><trkpt lat="42.8074335" lon="12.5625722"><ele>978.3999999999999</ele><time>2026-04-11T15:33:41.353Z</time></trkpt><trkpt lat="42.8074981" lon="12.5624722"><ele>977.1999999999999</ele><time>2026-04-11T15:33:42.346Z</time></trkpt><trkpt lat="42.8075898" lon="12.5623977"><ele>976.0</ele><time>2026-04-11T15:33:43.35Z</time></trkpt><trkpt lat="42.8077001" lon="12.5623826"><ele>974.5</ele><time>2026-04-11T15:33:44.355Z</time></trkpt><trkpt lat="42.8078221" lon="12.5624138"><ele>973.0</ele><time>2026-04-11T15:33:45.356Z</time></trkpt><trkpt lat="42.8079221" lon="12.5624838"><ele>971.5</ele><time>2026-04-11T15:33:46.346Z</time></trkpt><trkpt lat="42.8080314" lon="12.5625606"><ele>970.0</ele><time>2026-04-11T15:33:47.34Z</time></trkpt><trkpt lat="42.8081488" lon="12.562646"><ele>970.0</ele><time>2026-04-11T15:33:48.362Z</time></trkpt><trkpt lat="42.8082704" lon="12.5627335"><ele>970.0</ele><time>2026-04-11T15:33:49.352Z</time></trkpt><trkpt lat="42.808389" lon="12.5628141"><ele>970.0</ele><time>2026-04-11T15:33:50.359Z</time></trkpt><trkpt lat="42.8085051" lon="12.562906"><ele>970.0</ele><time>2026-04-11T15:33:51.361Z</time></trkpt><trkpt lat="42.8086182" lon="12.562994"><ele>967.75</ele><time>2026-04-11T15:33:52.359Z</time></trkpt><trkpt lat="42.8087347" lon="12.5630872"><ele>965.5</ele><time>2026-04-11T15:33:53.368Z</time></trkpt><trkpt lat="42.8088521" lon="12.5631798"><ele>963.25</ele><time>2026-04-11T15:33:54.369Z</time></trkpt><trkpt lat="42.8089644" lon="12.5632781"><ele>961.0</ele><time>2026-04-11T15:33:55.363Z</time></trkpt><trkpt lat="42.8090862" lon="12.5633719"><ele>961.0</ele><time>2026-04-11T15:33:56.351Z</time></trkpt><trkpt lat="42.8092149" lon="12.563465"><ele>961.0</ele><time>2026-04-11T15:33:57.36Z</time></trkpt><trkpt lat="42.8093495" lon="12.5635544"><ele>961.0</ele><time>2026-04-11T15:33:58.355Z</time></trkpt><trkpt lat="42.809485" lon="12.5636356"><ele>961.0</ele><time>2026-04-11T15:33:59.359Z</time></trkpt><trkpt lat="42.8096218" lon="12.5637137"><ele>956.0</ele><time>2026-04-11T15:34:00.352Z</time></trkpt><trkpt lat="42.8097587" lon="12.5637825"><ele>951.0</ele><time>2026-04-11T15:34:01.354Z</time></trkpt><trkpt lat="42.8098943" lon="12.5638432"><ele>946.0</ele><time>2026-04-11T15:34:02.348Z</time></trkpt><trkpt lat="42.8100277" lon="12.5638991"><ele>941.0</ele><time>2026-04-11T15:34:03.355Z</time></trkpt><trkpt lat="42.8101581" lon="12.5639524"><ele>939.75</ele><time>2026-04-11T15:34:04.358Z</time></trkpt><trkpt lat="42.8102851" lon="12.5639963"><ele>938.5</ele><time>2026-04-11T15:34:05.363Z</time></trkpt><trkpt lat="42.8104088" lon="12.56403"><ele>937.25</ele><time>2026-04-11T15:34:06.357Z</time></trkpt><trkpt lat="42.8105312" lon="12.5640412"><ele>936.0</ele><time>2026-04-11T15:34:07.366Z</time></trkpt><trkpt lat="42.8106476" lon="12.5640106"><ele>936.0</ele><time>2026-04-11T15:34:08.354Z</time></trkpt><trkpt lat="42.8107493" lon="12.5639263"><ele>936.0</ele><time>2026-04-11T15:34:09.358Z</time></trkpt><trkpt lat="42.8108235" lon="12.5638098"><ele>936.0</ele><time>2026-04-11T15:34:10.365Z</time></trkpt><trkpt lat="42.8108715" lon="12.5636693"><ele>936.0</ele><time>2026-04-11T15:34:11.364Z</time></trkpt><trkpt lat="42.8108973" lon="12.5635089"><ele>935.0</ele><time>2026-04-11T15:34:12.357Z</time></trkpt><trkpt lat="42.8109156" lon="12.5633531"><ele>933.9999999999999</ele><time>2026-04-11T15:34:13.377Z</time></trkpt><trkpt lat="42.8109394" lon="12.5632139"><ele>932.9999999999999</ele><time>2026-04-11T15:34:14.364Z</time></trkpt><trkpt lat="42.810982" lon="12.5630995"><ele>932.0</ele><time>2026-04-11T15:34:15.356Z</time></trkpt><trkpt lat="42.8110584" lon="12.5630318"><ele>931.0</ele><time>2026-04-11T15:34:16.359Z</time></trkpt><trkpt lat="42.8111538" lon="12.5630489"><ele>931.0</ele><time>2026-04-11T15:34:17.352Z</time></trkpt><trkpt lat="42.8112493" lon="12.563104"><ele>931.0</ele><time>2026-04-11T15:34:18.356Z</time></trkpt><trkpt lat="42.8113656" lon="12.5631597"><ele>931.0</ele><time>2026-04-11T15:34:19.36Z</time></trkpt><trkpt lat="42.8114868" lon="12.5632148"><ele>931.0</ele><time>2026-04-11T15:34:20.35Z</time></trkpt><trkpt lat="42.8116158" lon="12.5632694"><ele>931.0</ele><time>2026-04-11T15:34:21.373Z</time></trkpt><trkpt lat="42.81175" lon="12.5633256"><ele>931.0</ele><time>2026-04-11T15:34:22.352Z</time></trkpt><trkpt lat="42.8118853" lon="12.5633775"><ele>931.0</ele><time>2026-04-11T15:34:23.369Z</time></trkpt><trkpt lat="42.8120082" lon="12.5634283"><ele>931.0</ele><time>2026-04-11T15:34:24.357Z</time></trkpt><trkpt lat="42.8121219" lon="12.5634741"><ele>929.0</ele><time>2026-04-11T15:34:25.355Z</time></trkpt><trkpt lat="42.8122393" lon="12.5634978"><ele>927.0</ele><time>2026-04-11T15:34:26.345Z</time></trkpt><trkpt lat="42.8123572" lon="12.5634845"><ele>925.0</ele><time>2026-04-11T15:34:27.361Z</time></trkpt><trkpt lat="42.8124762" lon="12.5634283"><ele>923.0</ele><time>2026-04-11T15:34:28.356Z</time></trkpt><trkpt lat="42.8125913" lon="12.5633453"><ele>919.5</ele><time>2026-04-11T15:34:29.36Z</time></trkpt><trkpt lat="42.8126967" lon="12.5632546"><ele>916.0</ele><time>2026-04-11T15:34:30.358Z</time></trkpt><trkpt lat="42.8127759" lon="12.5631376"><ele>912.5</ele><time>2026-04-11T15:34:31.351Z</time></trkpt><trkpt lat="42.8128279" lon="12.5629924"><ele>909.0</ele><time>2026-04-11T15:34:32.352Z</time></trkpt><trkpt lat="42.8128376" lon="12.5628323"><ele>906.75</ele><time>2026-04-11T15:34:33.338Z</time></trkpt><trkpt lat="42.8128103" lon="12.562668"><ele>904.5</ele><time>2026-04-11T15:34:34.37Z</time></trkpt><trkpt lat="42.8127631" lon="12.5624984"><ele>902.25</ele><time>2026-04-11T15:34:35.364Z</time></trkpt><trkpt lat="42.8127049" lon="12.5623344"><ele>900.0</ele><time>2026-04-11T15:34:36.348Z</time></trkpt><trkpt lat="42.8126321" lon="12.5621757"><ele>902.75</ele><time>2026-04-11T15:34:37.367Z</time></trkpt><trkpt lat="42.8125624" lon="12.5620166"><ele>905.5</ele><time>2026-04-11T15:34:38.345Z</time></trkpt><trkpt lat="42.8124978" lon="12.561856"><ele>908.25</ele><time>2026-04-11T15:34:39.364Z</time></trkpt><trkpt lat="42.812463" lon="12.5616808"><ele>911.0</ele><time>2026-04-11T15:34:40.352Z</time></trkpt><trkpt lat="42.8124543" lon="12.5614922"><ele>911.0</ele><time>2026-04-11T15:34:41.363Z</time></trkpt><trkpt lat="42.8124634" lon="12.5612994"><ele>911.0</ele><time>2026-04-11T15:34:42.359Z</time></trkpt><trkpt lat="42.8124634" lon="12.5611102"><ele>911.0</ele><time>2026-04-11T15:34:43.355Z</time></trkpt><trkpt lat="42.8124395" lon="12.5609245"><ele>911.0</ele><time>2026-04-11T15:34:44.355Z</time></trkpt><trkpt lat="42.8124089" lon="12.5607368"><ele>908.75</ele><time>2026-04-11T15:34:45.365Z</time></trkpt><trkpt lat="42.812369" lon="12.5605484"><ele>906.5</ele><time>2026-04-11T15:34:46.331Z</time></trkpt><trkpt lat="42.812317" lon="12.5603629"><ele>904.25</ele><time>2026-04-11T15:34:47.365Z</time></trkpt><trkpt lat="42.8122543" lon="12.5601818"><ele>902.0</ele><time>2026-04-11T15:34:48.366Z</time></trkpt><trkpt lat="42.812184" lon="12.5600061"><ele>900.25</ele><time>2026-04-11T15:34:49.364Z</time></trkpt><trkpt lat="42.8121082" lon="12.5598532"><ele>898.5</ele><time>2026-04-11T15:34:50.355Z</time></trkpt><trkpt lat="42.8120121" lon="12.5597186"><ele>896.75</ele><time>2026-04-11T15:34:51.357Z</time></trkpt><trkpt lat="42.8119087" lon="12.559612"><ele>895.0</ele><time>2026-04-11T15:34:52.345Z</time></trkpt><trkpt lat="42.8118021" lon="12.5595195"><ele>894.3333333333333</ele><time>2026-04-11T15:34:53.357Z</time></trkpt><trkpt lat="42.8117073" lon="12.5594463"><ele>893.6666666666666</ele><time>2026-04-11T15:34:54.364Z</time></trkpt><trkpt lat="42.8116379" lon="12.5593797"><ele>893.0</ele><time>2026-04-11T15:34:55.365Z</time></trkpt><trkpt lat="42.811594" lon="12.5592926"><ele>892.3333333333333</ele><time>2026-04-11T15:34:56.331Z</time></trkpt><trkpt lat="42.8115799" lon="12.5591987"><ele>891.6666666666666</ele><time>2026-04-11T15:34:57.365Z</time></trkpt><trkpt lat="42.8116184" lon="12.5591142"><ele>891.0</ele><time>2026-04-11T15:34:58.359Z</time></trkpt><trkpt lat="42.8116906" lon="12.5590768"><ele>891.0</ele><time>2026-04-11T15:34:59.364Z</time></trkpt><trkpt lat="42.8117768" lon="12.5590731"><ele>890.9999999999999</ele><time>2026-04-11T15:35:00.345Z</time></trkpt><trkpt lat="42.8118732" lon="12.5590964"><ele>890.9999999999999</ele><time>2026-04-11T15:35:01.366Z</time></trkpt><trkpt lat="42.8119779" lon="12.5591202"><ele>891.0</ele><time>2026-04-11T15:35:02.361Z</time></trkpt><trkpt lat="42.8120859" lon="12.5591465"><ele>891.0</ele><time>2026-04-11T15:35:03.348Z</time></trkpt><trkpt lat="42.8121884" lon="12.5591736"><ele>890.5999999999999</ele><time>2026-04-11T15:35:04.356Z</time></trkpt><trkpt lat="42.8122922" lon="12.559198"><ele>890.1999999999999</ele><time>2026-04-11T15:35:05.362Z</time></trkpt><trkpt lat="42.8123957" lon="12.5592248"><ele>889.8000000000001</ele><time>2026-04-11T15:35:06.354Z</time></trkpt><trkpt lat="42.8125015" lon="12.5592566"><ele>889.4000000000001</ele><time>2026-04-11T15:35:07.359Z</time></trkpt><trkpt lat="42.8126032" lon="12.5592863"><ele>889.0</ele><time>2026-04-11T15:35:08.358Z</time></trkpt><trkpt lat="42.8127004" lon="12.5593155"><ele>889.0</ele><time>2026-04-11T15:35:09.36Z</time></trkpt><trkpt lat="42.8127994" lon="12.5593477"><ele>889.0000000000001</ele><time>2026-04-11T15:35:10.352Z</time></trkpt><trkpt lat="42.8128986" lon="12.5593797"><ele>889.0000000000001</ele><time>2026-04-11T15:35:11.362Z</time></trkpt><trkpt lat="42.812998" lon="12.5594156"><ele>889.0</ele><time>2026-04-11T15:35:12.353Z</time></trkpt><trkpt lat="42.8130983" lon="12.5594602"><ele>889.0</ele><time>2026-04-11T15:35:13.352Z</time></trkpt><trkpt lat="42.8131952" lon="12.5595414"><ele>887.0</ele><time>2026-04-11T15:35:14.365Z</time></trkpt><trkpt lat="42.8132698" lon="12.559643"><ele>885.0</ele><time>2026-04-11T15:35:15.357Z</time></trkpt><trkpt lat="42.8133481" lon="12.5597591"><ele>883.0</ele><time>2026-04-11T15:35:16.361Z</time></trkpt><trkpt lat="42.8134071" lon="12.5598882"><ele>881.0</ele><time>2026-04-11T15:35:17.348Z</time></trkpt><trkpt lat="42.8134756" lon="12.5600324"><ele>882.0</ele><time>2026-04-11T15:35:18.342Z</time></trkpt><trkpt lat="42.8135335" lon="12.5601816"><ele>883.0</ele><time>2026-04-11T15:35:19.341Z</time></trkpt><trkpt lat="42.8135971" lon="12.5603288"><ele>884.0</ele><time>2026-04-11T15:35:20.333Z</time></trkpt><trkpt lat="42.8136676" lon="12.5604748"><ele>885.0</ele><time>2026-04-11T15:35:21.353Z</time></trkpt><trkpt lat="42.8137431" lon="12.5606116"><ele>881.0</ele><time>2026-04-11T15:35:22.344Z</time></trkpt><trkpt lat="42.8138237" lon="12.5607458"><ele>877.0</ele><time>2026-04-11T15:35:23.357Z</time></trkpt><trkpt lat="42.813904" lon="12.5608824"><ele>873.0</ele><time>2026-04-11T15:35:24.344Z</time></trkpt><trkpt lat="42.8140049" lon="12.561004"><ele>869.0</ele><time>2026-04-11T15:35:25.355Z</time></trkpt><trkpt lat="42.814113" lon="12.5611111"><ele>866.0</ele><time>2026-04-11T15:35:26.356Z</time></trkpt><trkpt lat="42.8142314" lon="12.5611995"><ele>863.0</ele><time>2026-04-11T15:35:27.367Z</time></trkpt><trkpt lat="42.8143632" lon="12.5612819"><ele>860.0</ele><time>2026-04-11T15:35:28.357Z</time></trkpt><trkpt lat="42.8145001" lon="12.5613451"><ele>857.0</ele><time>2026-04-11T15:35:29.361Z</time></trkpt><trkpt lat="42.8146371" lon="12.5614011"><ele>858.0</ele><time>2026-04-11T15:35:30.365Z</time></trkpt><trkpt lat="42.814777" lon="12.5614695"><ele>859.0</ele><time>2026-04-11T15:35:31.358Z</time></trkpt><trkpt lat="42.8149145" lon="12.561549"><ele>860.0</ele><time>2026-04-11T15:35:32.346Z</time></trkpt><trkpt lat="42.8150502" lon="12.5616397"><ele>861.0</ele><time>2026-04-11T15:35:33.355Z</time></trkpt><trkpt lat="42.8151835" lon="12.5617375"><ele>861.0</ele><time>2026-04-11T15:35:34.354Z</time></trkpt><trkpt lat="42.8153165" lon="12.5618396"><ele>861.0</ele><time>2026-04-11T15:35:35.363Z</time></trkpt><trkpt lat="42.8154506" lon="12.561943"><ele>861.0</ele><time>2026-04-11T15:35:36.356Z</time></trkpt><trkpt lat="42.8155757" lon="12.5620504"><ele>852.0</ele><time>2026-04-11T15:35:37.355Z</time></trkpt><trkpt lat="42.8156969" lon="12.5621732"><ele>843.0</ele><time>2026-04-11T15:35:38.359Z</time></trkpt><trkpt lat="42.8158179" lon="12.5623091"><ele>834.0</ele><time>2026-04-11T15:35:39.358Z</time></trkpt><trkpt lat="42.8159396" lon="12.5624548"><ele>831.0</ele><time>2026-04-11T15:35:40.352Z</time></trkpt><trkpt lat="42.8160652" lon="12.5625981"><ele>828.0</ele><time>2026-04-11T15:35:41.366Z</time></trkpt><trkpt lat="42.8161882" lon="12.5627355"><ele>825.0</ele><time>2026-04-11T15:35:42.35Z</time></trkpt><trkpt lat="42.8163102" lon="12.5628799"><ele>825.0</ele><time>2026-04-11T15:35:43.356Z</time></trkpt><trkpt lat="42.8164328" lon="12.5630235"><ele>825.0</ele><time>2026-04-11T15:35:44.363Z</time></trkpt><trkpt lat="42.8165548" lon="12.5631676"><ele>825.0</ele><time>2026-04-11T15:35:45.354Z</time></trkpt><trkpt lat="42.8166822" lon="12.5633124"><ele>825.0</ele><time>2026-04-11T15:35:46.36Z</time></trkpt><trkpt lat="42.8168094" lon="12.563456"><ele>825.0</ele><time>2026-04-11T15:35:47.366Z</time></trkpt><trkpt lat="42.8169355" lon="12.5635956"><ele>825.0</ele><time>2026-04-11T15:35:48.363Z</time></trkpt><trkpt lat="42.8170585" lon="12.5637261"><ele>819.6666666666667</ele><time>2026-04-11T15:35:49.359Z</time></trkpt><trkpt lat="42.8171837" lon="12.5638404"><ele>814.3333333333334</ele><time>2026-04-11T15:35:50.354Z</time></trkpt><trkpt lat="42.8173199" lon="12.5639309"><ele>809.0</ele><time>2026-04-11T15:35:51.36Z</time></trkpt><trkpt lat="42.8174631" lon="12.5639947"><ele>809.0</ele><time>2026-04-11T15:35:52.355Z</time></trkpt><trkpt lat="42.8176054" lon="12.5640462"><ele>809.0</ele><time>2026-04-11T15:35:53.362Z</time></trkpt><trkpt lat="42.8177367" lon="12.5641377"><ele>809.0</ele><time>2026-04-11T15:35:54.36Z</time></trkpt><trkpt lat="42.8178484" lon="12.5642809"><ele>809.0</ele><time>2026-04-11T15:35:55.352Z</time></trkpt><trkpt lat="42.8179394" lon="12.5644494"><ele>805.0</ele><time>2026-04-11T15:35:56.342Z</time></trkpt><trkpt lat="42.8180354" lon="12.5646136"><ele>801.0</ele><time>2026-04-11T15:35:57.348Z</time></trkpt><trkpt lat="42.8181243" lon="12.5647926"><ele>797.0</ele><time>2026-04-11T15:35:58.343Z</time></trkpt><trkpt lat="42.8182318" lon="12.5649525"><ele>797.0</ele><time>2026-04-11T15:35:59.344Z</time></trkpt><trkpt lat="42.8183361" lon="12.5651062"><ele>797.0</ele><time>2026-04-11T15:36:00.335Z</time></trkpt><trkpt lat="42.8184711" lon="12.5652423"><ele>797.0</ele><time>2026-04-11T15:36:01.347Z</time></trkpt><trkpt lat="42.8185911" lon="12.5653581"><ele>790.3333333333334</ele><time>2026-04-11T15:36:02.339Z</time></trkpt><trkpt lat="42.8187176" lon="12.5654673"><ele>783.6666666666667</ele><time>2026-04-11T15:36:03.346Z</time></trkpt><trkpt lat="42.8188488" lon="12.5655637"><ele>777.0</ele><time>2026-04-11T15:36:04.35Z</time></trkpt><trkpt lat="42.8190073" lon="12.5656201"><ele>777.0</ele><time>2026-04-11T15:36:05.355Z</time></trkpt><trkpt lat="42.8191492" lon="12.5656482"><ele>777.0</ele><time>2026-04-11T15:36:06.353Z</time></trkpt><trkpt lat="42.819263" lon="12.5656203"><ele>777.0</ele><time>2026-04-11T15:36:07.36Z</time></trkpt><trkpt lat="42.8193737" lon="12.5655631"><ele>777.0</ele><time>2026-04-11T15:36:08.352Z</time></trkpt><trkpt lat="42.819464" lon="12.5654985"><ele>774.3333333333334</ele><time>2026-04-11T15:36:09.366Z</time></trkpt><trkpt lat="42.8195405" lon="12.5654768"><ele>771.6666666666666</ele><time>2026-04-11T15:36:10.348Z</time></trkpt><trkpt lat="42.8196036" lon="12.5654853"><ele>769.0</ele><time>2026-04-11T15:36:11.353Z</time></trkpt><trkpt lat="42.8196149" lon="12.5656163"><ele>766.3333333333333</ele><time>2026-04-11T15:36:13.355Z</time></trkpt><trkpt lat="42.8195615" lon="12.565674"><ele>763.6666666666666</ele><time>2026-04-11T15:36:14.358Z</time></trkpt><trkpt lat="42.8194813" lon="12.5657369"><ele>761.0</ele><time>2026-04-11T15:36:15.353Z</time></trkpt><trkpt lat="42.8193826" lon="12.5657886"><ele>765.0</ele><time>2026-04-11T15:36:16.347Z</time></trkpt><trkpt lat="42.8192562" lon="12.5658428"><ele>769.0</ele><time>2026-04-11T15:36:17.359Z</time></trkpt><trkpt lat="42.8191143" lon="12.5658915"><ele>773.0</ele><time>2026-04-11T15:36:18.353Z</time></trkpt><trkpt lat="42.8189538" lon="12.5659293"><ele>777.0</ele><time>2026-04-11T15:36:19.359Z</time></trkpt><trkpt lat="42.8187886" lon="12.565941"><ele>777.0</ele><time>2026-04-11T15:36:20.349Z</time></trkpt><trkpt lat="42.8186307" lon="12.5659395"><ele>777.0</ele><time>2026-04-11T15:36:21.35Z</time></trkpt><trkpt lat="42.8184761" lon="12.5659203"><ele>777.0</ele><time>2026-04-11T15:36:22.361Z</time></trkpt><trkpt lat="42.8183255" lon="12.5658894"><ele>775.0</ele><time>2026-04-11T15:36:23.362Z</time></trkpt><trkpt lat="42.8181761" lon="12.5658497"><ele>773.0</ele><time>2026-04-11T15:36:24.357Z</time></trkpt><trkpt lat="42.8180344" lon="12.5657871"><ele>771.0</ele><time>2026-04-11T15:36:25.353Z</time></trkpt><trkpt lat="42.8178963" lon="12.5657175"><ele>769.0</ele><time>2026-04-11T15:36:26.352Z</time></trkpt><trkpt lat="42.8177638" lon="12.5656291"><ele>770.8000000000001</ele><time>2026-04-11T15:36:27.355Z</time></trkpt><trkpt lat="42.8176472" lon="12.5655388"><ele>772.6</ele><time>2026-04-11T15:36:28.344Z</time></trkpt><trkpt lat="42.8175519" lon="12.5654504"><ele>774.4</ele><time>2026-04-11T15:36:29.357Z</time></trkpt><trkpt lat="42.8174819" lon="12.5653602"><ele>776.2</ele><time>2026-04-11T15:36:30.351Z</time></trkpt><trkpt lat="42.8174144" lon="12.5652857"><ele>778.0</ele><time>2026-04-11T15:36:31.351Z</time></trkpt><trkpt lat="42.8173537" lon="12.5652547"><ele>774.0</ele><time>2026-04-11T15:36:32.347Z</time></trkpt><trkpt lat="42.8172797" lon="12.565374"><ele>770.0</ele><time>2026-04-11T15:36:34.344Z</time></trkpt><trkpt lat="42.8173066" lon="12.5654799"><ele>766.0</ele><time>2026-04-11T15:36:35.334Z</time></trkpt><trkpt lat="42.8173605" lon="12.5655657"><ele>762.0</ele><time>2026-04-11T15:36:36.36Z</time></trkpt><trkpt lat="42.8174524" lon="12.5656109"><ele>758.0</ele><time>2026-04-11T15:36:37.349Z</time></trkpt><trkpt lat="42.8175511" lon="12.5657016"><ele>758.0</ele><time>2026-04-11T15:36:38.353Z</time></trkpt><trkpt lat="42.8176503" lon="12.5658187"><ele>758.0</ele><time>2026-04-11T15:36:39.346Z</time></trkpt><trkpt lat="42.8177501" lon="12.5659477"><ele>758.0</ele><time>2026-04-11T15:36:40.347Z</time></trkpt><trkpt lat="42.817847" lon="12.5661021"><ele>758.0</ele><time>2026-04-11T15:36:41.36Z</time></trkpt><trkpt lat="42.8179497" lon="12.5662572"><ele>751.0</ele><time>2026-04-11T15:36:42.34Z</time></trkpt><trkpt lat="42.8180605" lon="12.5664024"><ele>744.0</ele><time>2026-04-11T15:36:43.362Z</time></trkpt><trkpt lat="42.8181831" lon="12.5665231"><ele>737.0</ele><time>2026-04-11T15:36:44.344Z</time></trkpt><trkpt lat="42.8183209" lon="12.5666184"><ele>737.0</ele><time>2026-04-11T15:36:45.351Z</time></trkpt><trkpt lat="42.818463" lon="12.5667127"><ele>737.0</ele><time>2026-04-11T15:36:46.353Z</time></trkpt><trkpt lat="42.8186136" lon="12.5668088"><ele>737.0</ele><time>2026-04-11T15:36:47.359Z</time></trkpt><trkpt lat="42.8187696" lon="12.5668994"><ele>739.0</ele><time>2026-04-11T15:36:48.358Z</time></trkpt><trkpt lat="42.818928" lon="12.5669858"><ele>741.0</ele><time>2026-04-11T15:36:49.363Z</time></trkpt><trkpt lat="42.8190841" lon="12.5670713"><ele>743.0</ele><time>2026-04-11T15:36:50.356Z</time></trkpt><trkpt lat="42.8192406" lon="12.5671599"><ele>730.6666666666666</ele><time>2026-04-11T15:36:51.338Z</time></trkpt><trkpt lat="42.8193947" lon="12.5672493"><ele>718.3333333333334</ele><time>2026-04-11T15:36:52.35Z</time></trkpt><trkpt lat="42.8195483" lon="12.5673313"><ele>706.0</ele><time>2026-04-11T15:36:53.361Z</time></trkpt><trkpt lat="42.8196957" lon="12.5674122"><ele>706.0</ele><time>2026-04-11T15:36:54.344Z</time></trkpt><trkpt lat="42.819845" lon="12.567489"><ele>706.0</ele><time>2026-04-11T15:36:55.343Z</time></trkpt><trkpt lat="42.8199905" lon="12.5675491"><ele>706.0</ele><time>2026-04-11T15:36:56.353Z</time></trkpt><trkpt lat="42.8201402" lon="12.5675925"><ele>701.5</ele><time>2026-04-11T15:36:57.353Z</time></trkpt><trkpt lat="42.8202859" lon="12.5676223"><ele>697.0</ele><time>2026-04-11T15:36:58.357Z</time></trkpt><trkpt lat="42.8204299" lon="12.5676286"><ele>692.5</ele><time>2026-04-11T15:36:59.339Z</time></trkpt><trkpt lat="42.8205654" lon="12.5675783"><ele>688.0</ele><time>2026-04-11T15:37:00.354Z</time></trkpt><trkpt lat="42.8207029" lon="12.56748"><ele>688.0</ele><time>2026-04-11T15:37:01.341Z</time></trkpt><trkpt lat="42.8208337" lon="12.5673782"><ele>688.0</ele><time>2026-04-11T15:37:02.347Z</time></trkpt><trkpt lat="42.8209582" lon="12.5672534"><ele>688.0</ele><time>2026-04-11T15:37:03.333Z</time></trkpt><trkpt lat="42.821085" lon="12.5671225"><ele>685.6666666666667</ele><time>2026-04-11T15:37:04.353Z</time></trkpt><trkpt lat="42.8212087" lon="12.567"><ele>683.3333333333334</ele><time>2026-04-11T15:37:05.348Z</time></trkpt><trkpt lat="42.8213359" lon="12.5668805"><ele>681.0</ele><time>2026-04-11T15:37:06.352Z</time></trkpt><trkpt lat="42.8214655" lon="12.5667691"><ele>681.0</ele><time>2026-04-11T15:37:07.35Z</time></trkpt><trkpt lat="42.8215988" lon="12.5666567"><ele>681.0</ele><time>2026-04-11T15:37:08.34Z</time></trkpt><trkpt lat="42.821733" lon="12.5665513"><ele>681.0</ele><time>2026-04-11T15:37:09.355Z</time></trkpt><trkpt lat="42.8218757" lon="12.56647"><ele>676.75</ele><time>2026-04-11T15:37:10.348Z</time></trkpt><trkpt lat="42.8220261" lon="12.5664211"><ele>672.5</ele><time>2026-04-11T15:37:11.361Z</time></trkpt><trkpt lat="42.8221718" lon="12.5663941"><ele>668.25</ele><time>2026-04-11T15:37:12.363Z</time></trkpt><trkpt lat="42.8223132" lon="12.5664045"><ele>664.0</ele><time>2026-04-11T15:37:13.361Z</time></trkpt><trkpt lat="42.8224571" lon="12.566455"><ele>664.0</ele><time>2026-04-11T15:37:14.343Z</time></trkpt><trkpt lat="42.8225866" lon="12.5665419"><ele>664.0</ele><time>2026-04-11T15:37:15.346Z</time></trkpt><trkpt lat="42.8227048" lon="12.5666739"><ele>664.0</ele><time>2026-04-11T15:37:16.352Z</time></trkpt><trkpt lat="42.822822" lon="12.5668286"><ele>665.5</ele><time>2026-04-11T15:37:17.35Z</time></trkpt><trkpt lat="42.8229325" lon="12.5669654"><ele>667.0</ele><time>2026-04-11T15:37:18.357Z</time></trkpt><trkpt lat="42.8230309" lon="12.5671158"><ele>668.5</ele><time>2026-04-11T15:37:19.355Z</time></trkpt><trkpt lat="42.8231193" lon="12.5672749"><ele>670.0</ele><time>2026-04-11T15:37:20.356Z</time></trkpt><trkpt lat="42.8231988" lon="12.5674321"><ele>666.5</ele><time>2026-04-11T15:37:21.354Z</time></trkpt><trkpt lat="42.8232714" lon="12.5675985"><ele>663.0</ele><time>2026-04-11T15:37:22.347Z</time></trkpt><trkpt lat="42.8233356" lon="12.567758"><ele>659.5</ele><time>2026-04-11T15:37:23.351Z</time></trkpt><trkpt lat="42.8234037" lon="12.5679105"><ele>656.0</ele><time>2026-04-11T15:37:24.349Z</time></trkpt><trkpt lat="42.8234901" lon="12.5680395"><ele>652.5</ele><time>2026-04-11T15:37:25.351Z</time></trkpt><trkpt lat="42.8235973" lon="12.568144"><ele>649.0</ele><time>2026-04-11T15:37:26.352Z</time></trkpt><trkpt lat="42.8237302" lon="12.5681713"><ele>645.5</ele><time>2026-04-11T15:37:27.35Z</time></trkpt><trkpt lat="42.8238837" lon="12.5681779"><ele>642.0</ele><time>2026-04-11T15:37:28.351Z</time></trkpt><trkpt lat="42.8240353" lon="12.5681851"><ele>642.0</ele><time>2026-04-11T15:37:29.354Z</time></trkpt><trkpt lat="42.824194" lon="12.568192"><ele>642.0</ele><time>2026-04-11T15:37:30.351Z</time></trkpt><trkpt lat="42.8243435" lon="12.5682067"><ele>642.0</ele><time>2026-04-11T15:37:31.353Z</time></trkpt><trkpt lat="42.8244838" lon="12.5682066"><ele>642.0</ele><time>2026-04-11T15:37:32.357Z</time></trkpt><trkpt lat="42.8246273" lon="12.5681848"><ele>638.75</ele><time>2026-04-11T15:37:33.366Z</time></trkpt><trkpt lat="42.8247638" lon="12.5681288"><ele>635.5</ele><time>2026-04-11T15:37:34.363Z</time></trkpt><trkpt lat="42.8249123" lon="12.5680704"><ele>632.25</ele><time>2026-04-11T15:37:35.358Z</time></trkpt><trkpt lat="42.8250472" lon="12.5679965"><ele>629.0</ele><time>2026-04-11T15:37:36.351Z</time></trkpt><trkpt lat="42.8251866" lon="12.5679556"><ele>627.0</ele><time>2026-04-11T15:37:37.365Z</time></trkpt><trkpt lat="42.8253231" lon="12.567974"><ele>625.0</ele><time>2026-04-11T15:37:38.358Z</time></trkpt><trkpt lat="42.8254701" lon="12.5680476"><ele>623.0</ele><time>2026-04-11T15:37:39.365Z</time></trkpt><trkpt lat="42.8256158" lon="12.5681421"><ele>623.0</ele><time>2026-04-11T15:37:40.356Z</time></trkpt><trkpt lat="42.8257529" lon="12.5682313"><ele>623.0</ele><time>2026-04-11T15:37:41.345Z</time></trkpt><trkpt lat="42.8258819" lon="12.5683245"><ele>623.0</ele><time>2026-04-11T15:37:42.356Z</time></trkpt><trkpt lat="42.8260122" lon="12.5684024"><ele>623.0</ele><time>2026-04-11T15:37:43.358Z</time></trkpt><trkpt lat="42.8261401" lon="12.5684871"><ele>621.25</ele><time>2026-04-11T15:37:44.349Z</time></trkpt><trkpt lat="42.8262642" lon="12.5685784"><ele>619.5</ele><time>2026-04-11T15:37:45.345Z</time></trkpt><trkpt lat="42.8263783" lon="12.5686957"><ele>617.75</ele><time>2026-04-11T15:37:46.36Z</time></trkpt><trkpt lat="42.8264799" lon="12.5688506"><ele>616.0</ele><time>2026-04-11T15:37:47.36Z</time></trkpt><trkpt lat="42.8265627" lon="12.5690289"><ele>616.0</ele><time>2026-04-11T15:37:48.347Z</time></trkpt><trkpt lat="42.8266352" lon="12.5692184"><ele>616.0</ele><time>2026-04-11T15:37:49.351Z</time></trkpt><trkpt lat="42.8267051" lon="12.569413"><ele>616.0</ele><time>2026-04-11T15:37:50.37Z</time></trkpt><trkpt lat="42.8267741" lon="12.5696003"><ele>610.6666666666667</ele><time>2026-04-11T15:37:51.344Z</time></trkpt><trkpt lat="42.8268525" lon="12.5697814"><ele>605.3333333333334</ele><time>2026-04-11T15:37:52.353Z</time></trkpt><trkpt lat="42.8269413" lon="12.569949"><ele>600.0</ele><time>2026-04-11T15:37:53.366Z</time></trkpt><trkpt lat="42.8270402" lon="12.570113"><ele>600.0</ele><time>2026-04-11T15:37:54.359Z</time></trkpt><trkpt lat="42.827149" lon="12.5702727"><ele>600.0</ele><time>2026-04-11T15:37:55.356Z</time></trkpt><trkpt lat="42.8272622" lon="12.5704219"><ele>600.0</ele><time>2026-04-11T15:37:56.345Z</time></trkpt><trkpt lat="42.8273704" lon="12.5705537"><ele>598.5</ele><time>2026-04-11T15:37:57.354Z</time></trkpt><trkpt lat="42.8274856" lon="12.5706517"><ele>597.0</ele><time>2026-04-11T15:37:58.339Z</time></trkpt><trkpt lat="42.8276157" lon="12.5707221"><ele>595.5</ele><time>2026-04-11T15:37:59.353Z</time></trkpt><trkpt lat="42.8277516" lon="12.5707564"><ele>594.0</ele><time>2026-04-11T15:38:00.337Z</time></trkpt><trkpt lat="42.8279018" lon="12.5707908"><ele>592.25</ele><time>2026-04-11T15:38:01.352Z</time></trkpt><trkpt lat="42.8280471" lon="12.5708114"><ele>590.5</ele><time>2026-04-11T15:38:02.354Z</time></trkpt><trkpt lat="42.8281907" lon="12.5708549"><ele>588.75</ele><time>2026-04-11T15:38:03.353Z</time></trkpt><trkpt lat="42.8283273" lon="12.570915"><ele>587.0</ele><time>2026-04-11T15:38:04.345Z</time></trkpt><trkpt lat="42.8284638" lon="12.57101"><ele>587.5</ele><time>2026-04-11T15:38:05.341Z</time></trkpt><trkpt lat="42.8285886" lon="12.5711201"><ele>588.0</ele><time>2026-04-11T15:38:06.352Z</time></trkpt><trkpt lat="42.8287111" lon="12.5712274"><ele>588.5</ele><time>2026-04-11T15:38:07.343Z</time></trkpt><trkpt lat="42.8288276" lon="12.5713195"><ele>589.0</ele><time>2026-04-11T15:38:08.334Z</time></trkpt><trkpt lat="42.8289415" lon="12.5713999"><ele>590.0</ele><time>2026-04-11T15:38:09.357Z</time></trkpt><trkpt lat="42.8290505" lon="12.5714753"><ele>591.0</ele><time>2026-04-11T15:38:10.345Z</time></trkpt><trkpt lat="42.829161" lon="12.571537"><ele>592.0</ele><time>2026-04-11T15:38:11.339Z</time></trkpt><trkpt lat="42.8292761" lon="12.5715892"><ele>593.0</ele><time>2026-04-11T15:38:12.357Z</time></trkpt><trkpt lat="42.8293934" lon="12.5716348"><ele>590.5</ele><time>2026-04-11T15:38:13.342Z</time></trkpt><trkpt lat="42.8295082" lon="12.5716802"><ele>588.0</ele><time>2026-04-11T15:38:14.353Z</time></trkpt><trkpt lat="42.829634" lon="12.5717475"><ele>585.5</ele><time>2026-04-11T15:38:15.357Z</time></trkpt><trkpt lat="42.829746" lon="12.5718136"><ele>583.0</ele><time>2026-04-11T15:38:16.342Z</time></trkpt><trkpt lat="42.8298622" lon="12.5718918"><ele>583.0</ele><time>2026-04-11T15:38:17.355Z</time></trkpt><trkpt lat="42.829969" lon="12.571996"><ele>583.0</ele><time>2026-04-11T15:38:18.343Z</time></trkpt><trkpt lat="42.8300668" lon="12.5721171"><ele>583.0</ele><time>2026-04-11T15:38:19.35Z</time></trkpt><trkpt lat="42.8301578" lon="12.5722446"><ele>583.0</ele><time>2026-04-11T15:38:20.339Z</time></trkpt><trkpt lat="42.8302631" lon="12.5723523"><ele>582.5</ele><time>2026-04-11T15:38:21.359Z</time></trkpt><trkpt lat="42.8303827" lon="12.572445"><ele>582.0</ele><time>2026-04-11T15:38:22.357Z</time></trkpt><trkpt lat="42.8305158" lon="12.5725177"><ele>581.5</ele><time>2026-04-11T15:38:23.361Z</time></trkpt><trkpt lat="42.8306519" lon="12.5725775"><ele>581.0</ele><time>2026-04-11T15:38:24.359Z</time></trkpt><trkpt lat="42.8307899" lon="12.5726224"><ele>581.0</ele><time>2026-04-11T15:38:25.352Z</time></trkpt><trkpt lat="42.830926" lon="12.5726585"><ele>581.0</ele><time>2026-04-11T15:38:26.347Z</time></trkpt><trkpt lat="42.831063" lon="12.5726956"><ele>581.0</ele><time>2026-04-11T15:38:27.364Z</time></trkpt><trkpt lat="42.8312017" lon="12.5727336"><ele>581.0</ele><time>2026-04-11T15:38:28.353Z</time></trkpt><trkpt lat="42.8313406" lon="12.5727704"><ele>581.0</ele><time>2026-04-11T15:38:29.351Z</time></trkpt><trkpt lat="42.8314775" lon="12.5728102"><ele>581.0</ele><time>2026-04-11T15:38:30.365Z</time></trkpt><trkpt lat="42.8316117" lon="12.5728493"><ele>581.0</ele><time>2026-04-11T15:38:31.348Z</time></trkpt><trkpt lat="42.8317462" lon="12.5728703"><ele>581.0</ele><time>2026-04-11T15:38:32.344Z</time></trkpt><trkpt lat="42.8318831" lon="12.5728725"><ele>577.5</ele><time>2026-04-11T15:38:33.345Z</time></trkpt><trkpt lat="42.8320249" lon="12.5728512"><ele>574.0</ele><time>2026-04-11T15:38:34.355Z</time></trkpt><trkpt lat="42.8321629" lon="12.5728095"><ele>570.5</ele><time>2026-04-11T15:38:35.34Z</time></trkpt><trkpt lat="42.8323012" lon="12.5727784"><ele>567.0</ele><time>2026-04-11T15:38:36.331Z</time></trkpt><trkpt lat="42.8324376" lon="12.5727526"><ele>567.0</ele><time>2026-04-11T15:38:37.351Z</time></trkpt><trkpt lat="42.8325694" lon="12.5727481"><ele>567.0</ele><time>2026-04-11T15:38:38.348Z</time></trkpt><trkpt lat="42.8327127" lon="12.5727676"><ele>567.0</ele><time>2026-04-11T15:38:39.338Z</time></trkpt><trkpt lat="42.8328559" lon="12.5728019"><ele>567.0</ele><time>2026-04-11T15:38:40.352Z</time></trkpt><trkpt lat="42.8329884" lon="12.572853"><ele>566.0</ele><time>2026-04-11T15:38:41.362Z</time></trkpt><trkpt lat="42.8331098" lon="12.5729154"><ele>565.0</ele><time>2026-04-11T15:38:42.353Z</time></trkpt><trkpt lat="42.8332132" lon="12.572984"><ele>564.0</ele><time>2026-04-11T15:38:43.357Z</time></trkpt><trkpt lat="42.8332963" lon="12.5730447"><ele>563.0</ele><time>2026-04-11T15:38:44.344Z</time></trkpt><trkpt lat="42.8333664" lon="12.5730986"><ele>562.0</ele><time>2026-04-11T15:38:45.365Z</time></trkpt><trkpt lat="42.8334395" lon="12.5731741"><ele>558.2</ele><time>2026-04-11T15:38:46.361Z</time></trkpt><trkpt lat="42.8335002" lon="12.5732657"><ele>554.4000000000001</ele><time>2026-04-11T15:38:47.361Z</time></trkpt><trkpt lat="42.8335428" lon="12.5733697"><ele>550.5999999999999</ele><time>2026-04-11T15:38:48.331Z</time></trkpt><trkpt lat="42.8335745" lon="12.5734829"><ele>546.8</ele><time>2026-04-11T15:38:49.359Z</time></trkpt><trkpt lat="42.8336067" lon="12.5736045"><ele>543.0</ele><time>2026-04-11T15:38:50.366Z</time></trkpt><trkpt lat="42.8336385" lon="12.5737309"><ele>541.1999999999999</ele><time>2026-04-11T15:38:51.35Z</time></trkpt><trkpt lat="42.8336629" lon="12.5738596"><ele>539.4</ele><time>2026-04-11T15:38:52.355Z</time></trkpt><trkpt lat="42.8336714" lon="12.5739891"><ele>537.5999999999999</ele><time>2026-04-11T15:38:53.356Z</time></trkpt><trkpt lat="42.8336567" lon="12.5741141"><ele>535.8</ele><time>2026-04-11T15:38:54.348Z</time></trkpt><trkpt lat="42.833609" lon="12.5742316"><ele>534.0</ele><time>2026-04-11T15:38:55.352Z</time></trkpt><trkpt lat="42.8335548" lon="12.5743239"><ele>534.0</ele><time>2026-04-11T15:38:56.347Z</time></trkpt><trkpt lat="42.8334927" lon="12.5744202"><ele>534.0</ele><time>2026-04-11T15:38:57.371Z</time></trkpt><trkpt lat="42.8334338" lon="12.5745189"><ele>534.0</ele><time>2026-04-11T15:38:58.35Z</time></trkpt><trkpt lat="42.8334" lon="12.574636"><ele>534.0</ele><time>2026-04-11T15:38:59.36Z</time></trkpt><trkpt lat="42.8333997" lon="12.5747607"><ele>534.0</ele><time>2026-04-11T15:39:00.359Z</time></trkpt><trkpt lat="42.8334198" lon="12.5748797"><ele>533.8</ele><time>2026-04-11T15:39:01.368Z</time></trkpt><trkpt lat="42.8334561" lon="12.5749892"><ele>533.5999999999999</ele><time>2026-04-11T15:39:02.347Z</time></trkpt><trkpt lat="42.8334978" lon="12.5751147"><ele>533.4</ele><time>2026-04-11T15:39:03.357Z</time></trkpt><trkpt lat="42.8335377" lon="12.575243"><ele>533.1999999999999</ele><time>2026-04-11T15:39:04.361Z</time></trkpt><trkpt lat="42.8335799" lon="12.5753837"><ele>533.0</ele><time>2026-04-11T15:39:05.372Z</time></trkpt><trkpt lat="42.8336191" lon="12.5755308"><ele>533.0</ele><time>2026-04-11T15:39:06.353Z</time></trkpt><trkpt lat="42.8336574" lon="12.5756792"><ele>533.0</ele><time>2026-04-11T15:39:07.351Z</time></trkpt><trkpt lat="42.8336941" lon="12.575824"><ele>533.0</ele><time>2026-04-11T15:39:08.363Z</time></trkpt><trkpt lat="42.8337352" lon="12.5759672"><ele>533.0</ele><time>2026-04-11T15:39:09.333Z</time></trkpt><trkpt lat="42.8337673" lon="12.5761109"><ele>533.0</ele><time>2026-04-11T15:39:10.347Z</time></trkpt><trkpt lat="42.8337912" lon="12.5762495"><ele>533.0</ele><time>2026-04-11T15:39:11.353Z</time></trkpt><trkpt lat="42.8338001" lon="12.5763831"><ele>533.0</ele><time>2026-04-11T15:39:12.335Z</time></trkpt><trkpt lat="42.8338067" lon="12.5765144"><ele>533.0</ele><time>2026-04-11T15:39:13.343Z</time></trkpt><trkpt lat="42.8338111" lon="12.5766407"><ele>533.0</ele><time>2026-04-11T15:39:14.344Z</time></trkpt><trkpt lat="42.8338289" lon="12.5767582"><ele>533.0</ele><time>2026-04-11T15:39:15.359Z</time></trkpt><trkpt lat="42.8338755" lon="12.5768878"><ele>533.0</ele><time>2026-04-11T15:39:17.357Z</time></trkpt><trkpt lat="42.8339125" lon="12.5769815"><ele>533.0</ele><time>2026-04-11T15:39:19.361Z</time></trkpt><trkpt lat="42.8339496" lon="12.5770545"><ele>533.0</ele><time>2026-04-11T15:39:22.333Z</time></trkpt><trkpt lat="42.8340257" lon="12.5771736"><ele>533.0</ele><time>2026-04-11T15:39:31.371Z</time></trkpt><trkpt lat="42.834076" lon="12.5772503"><ele>533.0</ele><time>2026-04-11T15:39:32.36Z</time></trkpt><trkpt lat="42.8341326" lon="12.5773431"><ele>532.6</ele><time>2026-04-11T15:39:33.356Z</time></trkpt><trkpt lat="42.8341897" lon="12.5774254"><ele>532.1999999999999</ele><time>2026-04-11T15:39:34.364Z</time></trkpt><trkpt lat="42.834254" lon="12.5775056"><ele>531.8</ele><time>2026-04-11T15:39:35.36Z</time></trkpt><trkpt lat="42.8343162" lon="12.5775972"><ele>531.4</ele><time>2026-04-11T15:39:36.355Z</time></trkpt><trkpt lat="42.8343784" lon="12.5777111"><ele>531.0</ele><time>2026-04-11T15:39:37.356Z</time></trkpt><trkpt lat="42.8344322" lon="12.5778337"><ele>525.5</ele><time>2026-04-11T15:39:38.358Z</time></trkpt><trkpt lat="42.8344854" lon="12.5779536"><ele>520.0</ele><time>2026-04-11T15:39:39.36Z</time></trkpt><trkpt lat="42.8345276" lon="12.5780793"><ele>514.5</ele><time>2026-04-11T15:39:40.36Z</time></trkpt><trkpt lat="42.8345571" lon="12.5781877"><ele>509.0</ele><time>2026-04-11T15:39:41.352Z</time></trkpt><trkpt lat="42.834566" lon="12.5782775"><ele>503.5</ele><time>2026-04-11T15:39:42.356Z</time></trkpt><trkpt lat="42.8346221" lon="12.578323"><ele>498.0</ele><time>2026-04-11T15:39:45.356Z</time></trkpt><trkpt lat="42.8346151" lon="12.5782291"><ele>498.0</ele><time>2026-04-11T15:39:47.357Z</time></trkpt><trkpt lat="42.8345919" lon="12.5780328"><ele>498.0</ele><time>2026-04-11T15:39:49.349Z</time></trkpt><trkpt lat="42.8345806" lon="12.5778963"><ele>498.0</ele><time>2026-04-11T15:39:50.346Z</time></trkpt><trkpt lat="42.8345701" lon="12.5777482"><ele>498.0</ele><time>2026-04-11T15:39:51.356Z</time></trkpt><trkpt lat="42.8345727" lon="12.5776046"><ele>499.75</ele><time>2026-04-11T15:39:52.353Z</time></trkpt><trkpt lat="42.834604" lon="12.5774702"><ele>501.5</ele><time>2026-04-11T15:39:53.365Z</time></trkpt><trkpt lat="42.8346802" lon="12.5773724"><ele>503.25</ele><time>2026-04-11T15:39:54.349Z</time></trkpt><trkpt lat="42.8347928" lon="12.5773138"><ele>505.0</ele><time>2026-04-11T15:39:55.337Z</time></trkpt><trkpt lat="42.8349257" lon="12.5773285"><ele>505.0</ele><time>2026-04-11T15:39:56.361Z</time></trkpt><trkpt lat="42.8350845" lon="12.5773664"><ele>505.0</ele><time>2026-04-11T15:39:57.36Z</time></trkpt><trkpt lat="42.8352471" lon="12.5774034"><ele>505.0</ele><time>2026-04-11T15:39:58.361Z</time></trkpt><trkpt lat="42.8354075" lon="12.5774263"><ele>503.0</ele><time>2026-04-11T15:39:59.354Z</time></trkpt><trkpt lat="42.8355618" lon="12.577448"><ele>501.0</ele><time>2026-04-11T15:40:00.356Z</time></trkpt><trkpt lat="42.8357055" lon="12.5774762"><ele>499.0</ele><time>2026-04-11T15:40:01.356Z</time></trkpt><trkpt lat="42.8358377" lon="12.5775034"><ele>497.0</ele><time>2026-04-11T15:40:02.359Z</time></trkpt><trkpt lat="42.8359485" lon="12.577534"><ele>494.3333333333333</ele><time>2026-04-11T15:40:03.355Z</time></trkpt><trkpt lat="42.8360365" lon="12.5775861"><ele>491.66666666666663</ele><time>2026-04-11T15:40:04.353Z</time></trkpt><trkpt lat="42.8360844" lon="12.5776704"><ele>489.0</ele><time>2026-04-11T15:40:05.361Z</time></trkpt><trkpt lat="42.8360764" lon="12.5777766"><ele>486.33333333333337</ele><time>2026-04-11T15:40:06.364Z</time></trkpt><trkpt lat="42.8360215" lon="12.5778638"><ele>483.6666666666667</ele><time>2026-04-11T15:40:07.364Z</time></trkpt><trkpt lat="42.835932" lon="12.5779129"><ele>481.0</ele><time>2026-04-11T15:40:08.347Z</time></trkpt><trkpt lat="42.8358203" lon="12.5779002"><ele>481.0</ele><time>2026-04-11T15:40:09.363Z</time></trkpt><trkpt lat="42.835697" lon="12.5778566"><ele>481.0</ele><time>2026-04-11T15:40:10.357Z</time></trkpt><trkpt lat="42.8355722" lon="12.5778119"><ele>481.0</ele><time>2026-04-11T15:40:11.339Z</time></trkpt><trkpt lat="42.8354506" lon="12.5777815"><ele>481.0</ele><time>2026-04-11T15:40:12.356Z</time></trkpt><trkpt lat="42.8353331" lon="12.5777585"><ele>484.20000000000005</ele><time>2026-04-11T15:40:13.347Z</time></trkpt><trkpt lat="42.83523" lon="12.5777686"><ele>487.40000000000003</ele><time>2026-04-11T15:40:14.334Z</time></trkpt><trkpt lat="42.8351365" lon="12.5778364"><ele>490.6</ele><time>2026-04-11T15:40:15.352Z</time></trkpt><trkpt lat="42.8350722" lon="12.5779466"><ele>493.8</ele><time>2026-04-11T15:40:16.35Z</time></trkpt><trkpt lat="42.8350548" lon="12.5780905"><ele>497.0</ele><time>2026-04-11T15:40:17.355Z</time></trkpt><trkpt lat="42.8350735" lon="12.5782453"><ele>497.25</ele><time>2026-04-11T15:40:18.347Z</time></trkpt><trkpt lat="42.8351174" lon="12.5784079"><ele>497.5</ele><time>2026-04-11T15:40:19.363Z</time></trkpt><trkpt lat="42.8351698" lon="12.5785876"><ele>497.75</ele><time>2026-04-11T15:40:20.35Z</time></trkpt><trkpt lat="42.8352225" lon="12.5787804"><ele>498.0</ele><time>2026-04-11T15:40:21.358Z</time></trkpt><trkpt lat="42.8352789" lon="12.5789797"><ele>490.33333333333337</ele><time>2026-04-11T15:40:22.37Z</time></trkpt><trkpt lat="42.835344" lon="12.5791802"><ele>482.6666666666667</ele><time>2026-04-11T15:40:23.357Z</time></trkpt><trkpt lat="42.8354062" lon="12.5793847"><ele>475.0</ele><time>2026-04-11T15:40:24.366Z</time></trkpt><trkpt lat="42.8354657" lon="12.5795808"><ele>475.0</ele><time>2026-04-11T15:40:25.351Z</time></trkpt><trkpt lat="42.8355277" lon="12.5797697"><ele>475.0</ele><time>2026-04-11T15:40:26.366Z</time></trkpt><trkpt lat="42.8355894" lon="12.5799481"><ele>475.0</ele><time>2026-04-11T15:40:27.342Z</time></trkpt><trkpt lat="42.8356546" lon="12.5801235"><ele>475.0</ele><time>2026-04-11T15:40:28.35Z</time></trkpt><trkpt lat="42.8357238" lon="12.5802919"><ele>476.25</ele><time>2026-04-11T15:40:29.359Z</time></trkpt><trkpt lat="42.8358051" lon="12.5804522"><ele>477.5</ele><time>2026-04-11T15:40:30.348Z</time></trkpt><trkpt lat="42.8359001" lon="12.5805962"><ele>478.75</ele><time>2026-04-11T15:40:31.357Z</time></trkpt><trkpt lat="42.8360003" lon="12.5807275"><ele>480.0</ele><time>2026-04-11T15:40:32.348Z</time></trkpt><trkpt lat="42.8361016" lon="12.5808513"><ele>477.4</ele><time>2026-04-11T15:40:33.346Z</time></trkpt><trkpt lat="42.8362066" lon="12.5809747"><ele>474.8</ele><time>2026-04-11T15:40:34.353Z</time></trkpt><trkpt lat="42.8362933" lon="12.5810837"><ele>472.20000000000005</ele><time>2026-04-11T15:40:35.349Z</time></trkpt><trkpt lat="42.8363603" lon="12.5811895"><ele>469.6</ele><time>2026-04-11T15:40:36.351Z</time></trkpt><trkpt lat="42.8363796" lon="12.5813021"><ele>467.0</ele><time>2026-04-11T15:40:37.357Z</time></trkpt><trkpt lat="42.8363461" lon="12.5814282"><ele>467.0</ele><time>2026-04-11T15:40:38.369Z</time></trkpt><trkpt lat="42.8362791" lon="12.5815552"><ele>467.0</ele><time>2026-04-11T15:40:39.352Z</time></trkpt><trkpt lat="42.83619" lon="12.581676"><ele>467.0</ele><time>2026-04-11T15:40:40.351Z</time></trkpt><trkpt lat="42.8360953" lon="12.5817923"><ele>467.0</ele><time>2026-04-11T15:40:41.36Z</time></trkpt><trkpt lat="42.8360037" lon="12.5819024"><ele>468.25</ele><time>2026-04-11T15:40:42.351Z</time></trkpt><trkpt lat="42.8359145" lon="12.5820111"><ele>469.5</ele><time>2026-04-11T15:40:43.342Z</time></trkpt><trkpt lat="42.835827" lon="12.5821204"><ele>470.75</ele><time>2026-04-11T15:40:44.354Z</time></trkpt><trkpt lat="42.8357572" lon="12.5822374"><ele>472.0</ele><time>2026-04-11T15:40:45.359Z</time></trkpt><trkpt lat="42.8357311" lon="12.5823709"><ele>470.6</ele><time>2026-04-11T15:40:46.357Z</time></trkpt><trkpt lat="42.8357471" lon="12.5825003"><ele>469.20000000000005</ele><time>2026-04-11T15:40:47.359Z</time></trkpt><trkpt lat="42.8358058" lon="12.5826049"><ele>467.8</ele><time>2026-04-11T15:40:48.356Z</time></trkpt><trkpt lat="42.8358992" lon="12.5826929"><ele>466.4</ele><time>2026-04-11T15:40:49.348Z</time></trkpt><trkpt lat="42.8360027" lon="12.5827849"><ele>465.0</ele><time>2026-04-11T15:40:50.352Z</time></trkpt><trkpt lat="42.8361105" lon="12.5828936"><ele>462.0</ele><time>2026-04-11T15:40:51.343Z</time></trkpt><trkpt lat="42.8362005" lon="12.5830365"><ele>459.0</ele><time>2026-04-11T15:40:52.352Z</time></trkpt><trkpt lat="42.8362886" lon="12.5831907"><ele>456.0</ele><time>2026-04-11T15:40:53.361Z</time></trkpt><trkpt lat="42.8363767" lon="12.5833361"><ele>453.0</ele><time>2026-04-11T15:40:54.36Z</time></trkpt><trkpt lat="42.836474" lon="12.5834493"><ele>453.0</ele><time>2026-04-11T15:40:55.349Z</time></trkpt><trkpt lat="42.8365906" lon="12.5835341"><ele>453.0</ele><time>2026-04-11T15:40:56.355Z</time></trkpt><trkpt lat="42.8367383" lon="12.5835874"><ele>453.0</ele><time>2026-04-11T15:40:57.353Z</time></trkpt><trkpt lat="42.8368842" lon="12.5835824"><ele>453.0</ele><time>2026-04-11T15:40:58.36Z</time></trkpt><trkpt lat="42.8370408" lon="12.5835549"><ele>452.0</ele><time>2026-04-11T15:40:59.354Z</time></trkpt><trkpt lat="42.8371954" lon="12.5835436"><ele>451.0</ele><time>2026-04-11T15:41:00.352Z</time></trkpt><trkpt lat="42.8373464" lon="12.5835399"><ele>450.0</ele><time>2026-04-11T15:41:01.356Z</time></trkpt><trkpt lat="42.8375034" lon="12.5835203"><ele>446.66666666666663</ele><time>2026-04-11T15:41:02.353Z</time></trkpt><trkpt lat="42.8376574" lon="12.5834838"><ele>443.3333333333333</ele><time>2026-04-11T15:41:03.357Z</time></trkpt><trkpt lat="42.8378283" lon="12.5834357"><ele>440.0</ele><time>2026-04-11T15:41:04.355Z</time></trkpt><trkpt lat="42.8380004" lon="12.5833885"><ele>440.0</ele><time>2026-04-11T15:41:05.358Z</time></trkpt><trkpt lat="42.8381738" lon="12.5833501"><ele>440.0</ele><time>2026-04-11T15:41:06.361Z</time></trkpt><trkpt lat="42.8383415" lon="12.5833207"><ele>440.0</ele><time>2026-04-11T15:41:07.358Z</time></trkpt><trkpt lat="42.838506" lon="12.5832933"><ele>437.0</ele><time>2026-04-11T15:41:08.365Z</time></trkpt><trkpt lat="42.8386618" lon="12.5833352"><ele>434.0</ele><time>2026-04-11T15:41:09.37Z</time></trkpt><trkpt lat="42.8388221" lon="12.5834226"><ele>431.0</ele><time>2026-04-11T15:41:10.355Z</time></trkpt><trkpt lat="42.8389864" lon="12.5835358"><ele>431.0</ele><time>2026-04-11T15:41:11.364Z</time></trkpt><trkpt lat="42.8391437" lon="12.5836649"><ele>431.0</ele><time>2026-04-11T15:41:12.364Z</time></trkpt><trkpt lat="42.8393091" lon="12.5837865"><ele>431.0</ele><time>2026-04-11T15:41:13.344Z</time></trkpt><trkpt lat="42.8394707" lon="12.5839118"><ele>431.3333333333333</ele><time>2026-04-11T15:41:14.343Z</time></trkpt><trkpt lat="42.8396199" lon="12.5840362"><ele>431.66666666666663</ele><time>2026-04-11T15:41:15.364Z</time></trkpt><trkpt lat="42.8397687" lon="12.5841577"><ele>432.0</ele><time>2026-04-11T15:41:16.364Z</time></trkpt><trkpt lat="42.8399145" lon="12.5842723"><ele>432.0</ele><time>2026-04-11T15:41:17.356Z</time></trkpt><trkpt lat="42.8400559" lon="12.5843751"><ele>432.0</ele><time>2026-04-11T15:41:18.35Z</time></trkpt><trkpt lat="42.8401939" lon="12.5844612"><ele>432.0</ele><time>2026-04-11T15:41:19.358Z</time></trkpt><trkpt lat="42.8403292" lon="12.5845253"><ele>432.25</ele><time>2026-04-11T15:41:20.362Z</time></trkpt><trkpt lat="42.8404689" lon="12.5845774"><ele>432.5</ele><time>2026-04-11T15:41:21.36Z</time></trkpt><trkpt lat="42.8406096" lon="12.5846244"><ele>432.75</ele><time>2026-04-11T15:41:22.369Z</time></trkpt><trkpt lat="42.8407509" lon="12.5846744"><ele>433.0</ele><time>2026-04-11T15:41:23.375Z</time></trkpt><trkpt lat="42.8408863" lon="12.5847255"><ele>433.25</ele><time>2026-04-11T15:41:24.351Z</time></trkpt><trkpt lat="42.8410091" lon="12.5847737"><ele>433.5</ele><time>2026-04-11T15:41:25.369Z</time></trkpt><trkpt lat="42.8411231" lon="12.5848234"><ele>433.75</ele><time>2026-04-11T15:41:26.365Z</time></trkpt><trkpt lat="42.8412277" lon="12.5848756"><ele>434.0</ele><time>2026-04-11T15:41:27.338Z</time></trkpt><trkpt lat="42.841321" lon="12.5849245"><ele>433.99999999999994</ele><time>2026-04-11T15:41:28.363Z</time></trkpt><trkpt lat="42.8413937" lon="12.5849667"><ele>434.0</ele><time>2026-04-11T15:41:29.365Z</time></trkpt><trkpt lat="42.8414545" lon="12.5849993"><ele>434.0</ele><time>2026-04-11T15:41:30.358Z</time></trkpt><trkpt lat="42.8415291" lon="12.5850472"><ele>434.0</ele><time>2026-04-11T15:41:32.356Z</time></trkpt><trkpt lat="42.841616" lon="12.5851234"><ele>433.99999999999994</ele><time>2026-04-11T15:41:35.344Z</time></trkpt><trkpt lat="42.8416698" lon="12.5851721"><ele>434.0</ele><time>2026-04-11T15:41:36.366Z</time></trkpt><trkpt lat="42.841731" lon="12.5852273"><ele>432.8333333333333</ele><time>2026-04-11T15:41:37.366Z</time></trkpt><trkpt lat="42.8418013" lon="12.585282"><ele>431.66666666666663</ele><time>2026-04-11T15:41:38.373Z</time></trkpt><trkpt lat="42.8418709" lon="12.5853354"><ele>430.5</ele><time>2026-04-11T15:41:39.366Z</time></trkpt><trkpt lat="42.8419391" lon="12.5853885"><ele>429.33333333333337</ele><time>2026-04-11T15:41:40.365Z</time></trkpt><trkpt lat="42.8420067" lon="12.5854406"><ele>428.1666666666667</ele><time>2026-04-11T15:41:41.366Z</time></trkpt><trkpt lat="42.8420691" lon="12.5854891"><ele>427.0</ele><time>2026-04-11T15:41:42.354Z</time></trkpt><trkpt lat="42.8421305" lon="12.5855307"><ele>427.0</ele><time>2026-04-11T15:41:43.355Z</time></trkpt><trkpt lat="42.8421904" lon="12.5855651"><ele>427.00000000000006</ele><time>2026-04-11T15:41:44.349Z</time></trkpt><trkpt lat="42.8423073" lon="12.5855973"><ele>427.00000000000006</ele><time>2026-04-11T15:41:46.351Z</time></trkpt><trkpt lat="42.8423788" lon="12.5854962"><ele>427.0</ele><time>2026-04-11T15:41:48.366Z</time></trkpt><trkpt lat="42.8424205" lon="12.5853396"><ele>427.0</ele><time>2026-04-11T15:41:50.365Z</time></trkpt><trkpt lat="42.8424518" lon="12.5852461"><ele>426.8</ele><time>2026-04-11T15:41:51.361Z</time></trkpt><trkpt lat="42.8424927" lon="12.5851499"><ele>426.6</ele><time>2026-04-11T15:41:52.361Z</time></trkpt><trkpt lat="42.8425386" lon="12.5850451"><ele>426.40000000000003</ele><time>2026-04-11T15:41:53.361Z</time></trkpt><trkpt lat="42.8425863" lon="12.5849308"><ele>426.20000000000005</ele><time>2026-04-11T15:41:54.353Z</time></trkpt><trkpt lat="42.8426341" lon="12.5847965"><ele>426.0</ele><time>2026-04-11T15:41:55.359Z</time></trkpt><trkpt lat="42.842686" lon="12.5846519"><ele>424.75</ele><time>2026-04-11T15:41:56.364Z</time></trkpt><trkpt lat="42.8427373" lon="12.5845002"><ele>423.5</ele><time>2026-04-11T15:41:57.35Z</time></trkpt><trkpt lat="42.8427939" lon="12.5843401"><ele>422.25</ele><time>2026-04-11T15:41:58.362Z</time></trkpt><trkpt lat="42.8428579" lon="12.5841678"><ele>421.0</ele><time>2026-04-11T15:41:59.358Z</time></trkpt><trkpt lat="42.8429286" lon="12.5839872"><ele>421.0</ele><time>2026-04-11T15:42:00.358Z</time></trkpt><trkpt lat="42.8430002" lon="12.5838036"><ele>421.0</ele><time>2026-04-11T15:42:01.363Z</time></trkpt><trkpt lat="42.843073" lon="12.5836304"><ele>421.0</ele><time>2026-04-11T15:42:02.361Z</time></trkpt><trkpt lat="42.8431506" lon="12.5834645"><ele>421.0</ele><time>2026-04-11T15:42:03.367Z</time></trkpt><trkpt lat="42.8432473" lon="12.5833119"><ele>421.33333333333337</ele><time>2026-04-11T15:42:04.349Z</time></trkpt><trkpt lat="42.8433602" lon="12.5831778"><ele>421.66666666666663</ele><time>2026-04-11T15:42:05.359Z</time></trkpt><trkpt lat="42.8434972" lon="12.5830705"><ele>422.0</ele><time>2026-04-11T15:42:06.353Z</time></trkpt><trkpt lat="42.8436472" lon="12.5829935"><ele>422.0</ele><time>2026-04-11T15:42:07.358Z</time></trkpt><trkpt lat="42.8438148" lon="12.5829323"><ele>422.0</ele><time>2026-04-11T15:42:08.358Z</time></trkpt><trkpt lat="42.8439875" lon="12.5828744"><ele>422.0</ele><time>2026-04-11T15:42:09.358Z</time></trkpt><trkpt lat="42.8441639" lon="12.5828184"><ele>422.0</ele><time>2026-04-11T15:42:10.347Z</time></trkpt><trkpt lat="42.8443439" lon="12.5827613"><ele>422.0</ele><time>2026-04-11T15:42:11.348Z</time></trkpt><trkpt lat="42.844528" lon="12.5827089"><ele>422.0</ele><time>2026-04-11T15:42:12.362Z</time></trkpt><trkpt lat="42.8447131" lon="12.5826681"><ele>422.0</ele><time>2026-04-11T15:42:13.349Z</time></trkpt><trkpt lat="42.8448918" lon="12.5826441"><ele>422.0</ele><time>2026-04-11T15:42:14.344Z</time></trkpt><trkpt lat="42.8450715" lon="12.5826391"><ele>422.0</ele><time>2026-04-11T15:42:15.362Z</time></trkpt><trkpt lat="42.8452493" lon="12.5826557"><ele>422.0</ele><time>2026-04-11T15:42:16.35Z</time></trkpt><trkpt lat="42.8454242" lon="12.5826814"><ele>422.0</ele><time>2026-04-11T15:42:17.357Z</time></trkpt><trkpt lat="42.8455902" lon="12.58271"><ele>422.0</ele><time>2026-04-11T15:42:18.356Z</time></trkpt><trkpt lat="42.8457537" lon="12.5827364"><ele>422.0</ele><time>2026-04-11T15:42:19.36Z</time></trkpt><trkpt lat="42.8459184" lon="12.5827669"><ele>422.0</ele><time>2026-04-11T15:42:20.353Z</time></trkpt><trkpt lat="42.8460827" lon="12.5827957"><ele>422.0</ele><time>2026-04-11T15:42:21.358Z</time></trkpt><trkpt lat="42.8462519" lon="12.5828215"><ele>419.3333333333333</ele><time>2026-04-11T15:42:22.354Z</time></trkpt><trkpt lat="42.8464281" lon="12.5828466"><ele>416.66666666666663</ele><time>2026-04-11T15:42:23.366Z</time></trkpt><trkpt lat="42.8466078" lon="12.5828677"><ele>414.0</ele><time>2026-04-11T15:42:24.355Z</time></trkpt><trkpt lat="42.8467874" lon="12.5828723"><ele>413.0</ele><time>2026-04-11T15:42:25.343Z</time></trkpt><trkpt lat="42.8469667" lon="12.5828575"><ele>412.0</ele><time>2026-04-11T15:42:26.366Z</time></trkpt><trkpt lat="42.8471457" lon="12.5828337"><ele>411.0</ele><time>2026-04-11T15:42:27.364Z</time></trkpt><trkpt lat="42.847321" lon="12.5827936"><ele>411.0</ele><time>2026-04-11T15:42:28.356Z</time></trkpt><trkpt lat="42.8474836" lon="12.5827493"><ele>411.0</ele><time>2026-04-11T15:42:29.359Z</time></trkpt><trkpt lat="42.8476321" lon="12.5827017"><ele>411.0</ele><time>2026-04-11T15:42:30.361Z</time></trkpt><trkpt lat="42.8477662" lon="12.5826469"><ele>410.25</ele><time>2026-04-11T15:42:31.359Z</time></trkpt><trkpt lat="42.8478892" lon="12.5825778"><ele>409.5</ele><time>2026-04-11T15:42:32.36Z</time></trkpt><trkpt lat="42.8480046" lon="12.5824919"><ele>408.75</ele><time>2026-04-11T15:42:33.365Z</time></trkpt><trkpt lat="42.8481106" lon="12.5824002"><ele>408.0</ele><time>2026-04-11T15:42:34.363Z</time></trkpt><trkpt lat="42.8482106" lon="12.5822935"><ele>408.0</ele><time>2026-04-11T15:42:35.363Z</time></trkpt><trkpt lat="42.8483114" lon="12.5821793"><ele>408.0</ele><time>2026-04-11T15:42:36.363Z</time></trkpt><trkpt lat="42.8484085" lon="12.5820662"><ele>408.0</ele><time>2026-04-11T15:42:37.348Z</time></trkpt><trkpt lat="42.8485054" lon="12.5819614"><ele>408.0</ele><time>2026-04-11T15:42:38.353Z</time></trkpt><trkpt lat="42.848604" lon="12.5818554"><ele>408.0</ele><time>2026-04-11T15:42:39.363Z</time></trkpt><trkpt lat="42.8487057" lon="12.5817416"><ele>408.0</ele><time>2026-04-11T15:42:40.362Z</time></trkpt><trkpt lat="42.8488071" lon="12.5816334"><ele>408.0</ele><time>2026-04-11T15:42:41.352Z</time></trkpt><trkpt lat="42.8489096" lon="12.5815259"><ele>408.0</ele><time>2026-04-11T15:42:42.364Z</time></trkpt><trkpt lat="42.8490148" lon="12.5814169"><ele>408.0</ele><time>2026-04-11T15:42:43.355Z</time></trkpt><trkpt lat="42.8491148" lon="12.5813139"><ele>408.0</ele><time>2026-04-11T15:42:44.361Z</time></trkpt><trkpt lat="42.8492152" lon="12.5812219"><ele>408.0</ele><time>2026-04-11T15:42:45.355Z</time></trkpt><trkpt lat="42.8493212" lon="12.5811388"><ele>408.0</ele><time>2026-04-11T15:42:46.366Z</time></trkpt><trkpt lat="42.8494311" lon="12.5810813"><ele>408.5</ele><time>2026-04-11T15:42:47.358Z</time></trkpt><trkpt lat="42.8495462" lon="12.5810408"><ele>409.0</ele><time>2026-04-11T15:42:48.347Z</time></trkpt><trkpt lat="42.8496631" lon="12.5810129"><ele>409.5</ele><time>2026-04-11T15:42:49.369Z</time></trkpt><trkpt lat="42.8497865" lon="12.5810009"><ele>410.0</ele><time>2026-04-11T15:42:50.342Z</time></trkpt><trkpt lat="42.8499046" lon="12.5810021"><ele>410.0</ele><time>2026-04-11T15:42:51.354Z</time></trkpt><trkpt lat="42.8500264" lon="12.5810072"><ele>410.0</ele><time>2026-04-11T15:42:52.347Z</time></trkpt><trkpt lat="42.8501413" lon="12.5810083"><ele>410.0</ele><time>2026-04-11T15:42:53.349Z</time></trkpt><trkpt lat="42.8502556" lon="12.5810139"><ele>410.0</ele><time>2026-04-11T15:42:54.361Z</time></trkpt><trkpt lat="42.8503717" lon="12.5810233"><ele>409.0</ele><time>2026-04-11T15:42:55.362Z</time></trkpt><trkpt lat="42.850487" lon="12.5810346"><ele>408.0</ele><time>2026-04-11T15:42:56.371Z</time></trkpt><trkpt lat="42.8505991" lon="12.5810435"><ele>407.0</ele><time>2026-04-11T15:42:57.339Z</time></trkpt><trkpt lat="42.8507188" lon="12.5810575"><ele>406.0</ele><time>2026-04-11T15:42:58.343Z</time></trkpt><trkpt lat="42.8508385" lon="12.5810354"><ele>404.25</ele><time>2026-04-11T15:42:59.357Z</time></trkpt><trkpt lat="42.8509593" lon="12.5809927"><ele>402.5</ele><time>2026-04-11T15:43:00.356Z</time></trkpt><trkpt lat="42.8510744" lon="12.5809389"><ele>400.75</ele><time>2026-04-11T15:43:01.352Z</time></trkpt><trkpt lat="42.851194" lon="12.5808613"><ele>399.0</ele><time>2026-04-11T15:43:02.369Z</time></trkpt><trkpt lat="42.8513105" lon="12.5807746"><ele>399.0</ele><time>2026-04-11T15:43:03.36Z</time></trkpt><trkpt lat="42.8514231" lon="12.580682"><ele>399.0</ele><time>2026-04-11T15:43:04.363Z</time></trkpt><trkpt lat="42.8515345" lon="12.5805783"><ele>399.0</ele><time>2026-04-11T15:43:05.352Z</time></trkpt><trkpt lat="42.8516522" lon="12.5804828"><ele>399.0</ele><time>2026-04-11T15:43:06.345Z</time></trkpt><trkpt lat="42.8517713" lon="12.5803867"><ele>395.66666666666663</ele><time>2026-04-11T15:43:07.359Z</time></trkpt><trkpt lat="42.8518953" lon="12.5802817"><ele>392.3333333333333</ele><time>2026-04-11T15:43:08.345Z</time></trkpt><trkpt lat="42.8520278" lon="12.5801682"><ele>389.0</ele><time>2026-04-11T15:43:09.354Z</time></trkpt><trkpt lat="42.8521728" lon="12.5800537"><ele>389.0</ele><time>2026-04-11T15:43:10.36Z</time></trkpt><trkpt lat="42.8523289" lon="12.5799282"><ele>389.0</ele><time>2026-04-11T15:43:11.363Z</time></trkpt><trkpt lat="42.8524959" lon="12.5798054"><ele>389.0</ele><time>2026-04-11T15:43:12.343Z</time></trkpt><trkpt lat="42.8526803" lon="12.5796915"><ele>387.66666666666663</ele><time>2026-04-11T15:43:13.356Z</time></trkpt><trkpt lat="42.8528665" lon="12.579566"><ele>386.33333333333337</ele><time>2026-04-11T15:43:14.34Z</time></trkpt><trkpt lat="42.8530425" lon="12.5794321"><ele>385.0</ele><time>2026-04-11T15:43:15.354Z</time></trkpt><trkpt lat="42.8532094" lon="12.5793183"><ele>385.0</ele><time>2026-04-11T15:43:16.353Z</time></trkpt><trkpt lat="42.8533714" lon="12.5792055"><ele>385.0</ele><time>2026-04-11T15:43:17.362Z</time></trkpt><trkpt lat="42.8535237" lon="12.5790951"><ele>385.0</ele><time>2026-04-11T15:43:18.347Z</time></trkpt><trkpt lat="42.8536738" lon="12.5789823"><ele>383.0</ele><time>2026-04-11T15:43:19.35Z</time></trkpt><trkpt lat="42.8538188" lon="12.5788645"><ele>381.0</ele><time>2026-04-11T15:43:20.358Z</time></trkpt><trkpt lat="42.8539596" lon="12.5787307"><ele>379.0</ele><time>2026-04-11T15:43:21.353Z</time></trkpt><trkpt lat="42.8540919" lon="12.578574"><ele>379.0</ele><time>2026-04-11T15:43:22.357Z</time></trkpt><trkpt lat="42.8542153" lon="12.5783951"><ele>379.0</ele><time>2026-04-11T15:43:23.347Z</time></trkpt><trkpt lat="42.8543223" lon="12.5781998"><ele>379.0</ele><time>2026-04-11T15:43:24.343Z</time></trkpt><trkpt lat="42.8544085" lon="12.5779761"><ele>377.0</ele><time>2026-04-11T15:43:25.34Z</time></trkpt><trkpt lat="42.8545056" lon="12.5777417"><ele>375.0</ele><time>2026-04-11T15:43:26.349Z</time></trkpt><trkpt lat="42.8545897" lon="12.5775073"><ele>373.0</ele><time>2026-04-11T15:43:27.356Z</time></trkpt><trkpt lat="42.8546745" lon="12.5772846"><ele>373.0</ele><time>2026-04-11T15:43:28.36Z</time></trkpt><trkpt lat="42.8547683" lon="12.5770768"><ele>373.0</ele><time>2026-04-11T15:43:29.349Z</time></trkpt><trkpt lat="42.8548675" lon="12.5768834"><ele>373.0</ele><time>2026-04-11T15:43:30.365Z</time></trkpt><trkpt lat="42.8549858" lon="12.5767027"><ele>371.3333333333333</ele><time>2026-04-11T15:43:31.356Z</time></trkpt><trkpt lat="42.8551311" lon="12.5765476"><ele>369.6666666666667</ele><time>2026-04-11T15:43:32.356Z</time></trkpt><trkpt lat="42.8552833" lon="12.5764039"><ele>368.0</ele><time>2026-04-11T15:43:33.353Z</time></trkpt><trkpt lat="42.8554329" lon="12.5762515"><ele>367.33333333333337</ele><time>2026-04-11T15:43:34.352Z</time></trkpt><trkpt lat="42.8555873" lon="12.5760917"><ele>366.6666666666667</ele><time>2026-04-11T15:43:35.369Z</time></trkpt><trkpt lat="42.8557422" lon="12.5759326"><ele>366.0</ele><time>2026-04-11T15:43:36.359Z</time></trkpt><trkpt lat="42.855897" lon="12.5757766"><ele>365.3333333333333</ele><time>2026-04-11T15:43:37.365Z</time></trkpt><trkpt lat="42.8560459" lon="12.5756201"><ele>364.66666666666663</ele><time>2026-04-11T15:43:38.357Z</time></trkpt><trkpt lat="42.856196" lon="12.5754703"><ele>364.0</ele><time>2026-04-11T15:43:39.364Z</time></trkpt><trkpt lat="42.8563484" lon="12.5753226"><ele>363.3333333333333</ele><time>2026-04-11T15:43:40.357Z</time></trkpt><trkpt lat="42.8565016" lon="12.5751828"><ele>362.6666666666667</ele><time>2026-04-11T15:43:41.359Z</time></trkpt><trkpt lat="42.8566557" lon="12.5750474"><ele>362.0</ele><time>2026-04-11T15:43:42.334Z</time></trkpt><trkpt lat="42.8568185" lon="12.574914"><ele>364.0</ele><time>2026-04-11T15:43:43.347Z</time></trkpt><trkpt lat="42.8569845" lon="12.5747982"><ele>366.0</ele><time>2026-04-11T15:43:44.353Z</time></trkpt><trkpt lat="42.8571561" lon="12.5747023"><ele>368.0</ele><time>2026-04-11T15:43:45.363Z</time></trkpt><trkpt lat="42.8573388" lon="12.5746312"><ele>368.0</ele><time>2026-04-11T15:43:46.341Z</time></trkpt><trkpt lat="42.8575282" lon="12.5745699"><ele>368.0</ele><time>2026-04-11T15:43:47.355Z</time></trkpt><trkpt lat="42.8577178" lon="12.5745045"><ele>368.0</ele><time>2026-04-11T15:43:48.356Z</time></trkpt><trkpt lat="42.8579122" lon="12.574436"><ele>368.0</ele><time>2026-04-11T15:43:49.368Z</time></trkpt><trkpt lat="42.8581036" lon="12.5743616"><ele>368.0</ele><time>2026-04-11T15:43:50.345Z</time></trkpt><trkpt lat="42.8582867" lon="12.574285"><ele>368.0</ele><time>2026-04-11T15:43:51.358Z</time></trkpt><trkpt lat="42.8584638" lon="12.5742064"><ele>368.0</ele><time>2026-04-11T15:43:52.37Z</time></trkpt><trkpt lat="42.8586351" lon="12.5741178"><ele>368.0</ele><time>2026-04-11T15:43:53.358Z</time></trkpt><trkpt lat="42.8588045" lon="12.5740207"><ele>368.0</ele><time>2026-04-11T15:43:54.351Z</time></trkpt><trkpt lat="42.8589718" lon="12.573911"><ele>368.0</ele><time>2026-04-11T15:43:55.344Z</time></trkpt><trkpt lat="42.8591424" lon="12.5737914"><ele>368.0</ele><time>2026-04-11T15:43:56.354Z</time></trkpt><trkpt lat="42.8593134" lon="12.5736662"><ele>368.0</ele><time>2026-04-11T15:43:57.357Z</time></trkpt><trkpt lat="42.8594717" lon="12.5735299"><ele>367.33333333333337</ele><time>2026-04-11T15:43:58.357Z</time></trkpt><trkpt lat="42.8596218" lon="12.5733781"><ele>366.6666666666667</ele><time>2026-04-11T15:43:59.353Z</time></trkpt><trkpt lat="42.8597676" lon="12.5732041"><ele>366.0</ele><time>2026-04-11T15:44:00.348Z</time></trkpt><trkpt lat="42.8599044" lon="12.5730238"><ele>365.3333333333333</ele><time>2026-04-11T15:44:01.36Z</time></trkpt><trkpt lat="42.8600327" lon="12.5728453"><ele>364.66666666666663</ele><time>2026-04-11T15:44:02.365Z</time></trkpt><trkpt lat="42.8601563" lon="12.5726802"><ele>364.0</ele><time>2026-04-11T15:44:03.362Z</time></trkpt><trkpt lat="42.8602683" lon="12.5725192"><ele>363.3333333333333</ele><time>2026-04-11T15:44:04.375Z</time></trkpt><trkpt lat="42.860379" lon="12.5723611"><ele>362.6666666666667</ele><time>2026-04-11T15:44:05.365Z</time></trkpt><trkpt lat="42.8604875" lon="12.5722011"><ele>362.0</ele><time>2026-04-11T15:44:06.355Z</time></trkpt><trkpt lat="42.8605978" lon="12.5720389"><ele>360.6666666666667</ele><time>2026-04-11T15:44:07.365Z</time></trkpt><trkpt lat="42.8607138" lon="12.5718721"><ele>359.3333333333333</ele><time>2026-04-11T15:44:08.37Z</time></trkpt><trkpt lat="42.8608316" lon="12.5716999"><ele>358.0</ele><time>2026-04-11T15:44:09.35Z</time></trkpt><trkpt lat="42.8609532" lon="12.5715221"><ele>357.0</ele><time>2026-04-11T15:44:10.363Z</time></trkpt><trkpt lat="42.8610749" lon="12.5713434"><ele>356.0</ele><time>2026-04-11T15:44:11.356Z</time></trkpt><trkpt lat="42.861206" lon="12.5711768"><ele>355.0</ele><time>2026-04-11T15:44:12.33Z</time></trkpt><trkpt lat="42.8613437" lon="12.5710269"><ele>354.0</ele><time>2026-04-11T15:44:13.354Z</time></trkpt><trkpt lat="42.8614805" lon="12.5708899"><ele>353.0</ele><time>2026-04-11T15:44:14.353Z</time></trkpt><trkpt lat="42.8616264" lon="12.5707316"><ele>352.0</ele><time>2026-04-11T15:44:15.347Z</time></trkpt><trkpt lat="42.8617705" lon="12.5705875"><ele>351.0</ele><time>2026-04-11T15:44:16.349Z</time></trkpt><trkpt lat="42.8619208" lon="12.570449"><ele>350.0</ele><time>2026-04-11T15:44:17.361Z</time></trkpt><trkpt lat="42.8620674" lon="12.5703048"><ele>349.0</ele><time>2026-04-11T15:44:18.357Z</time></trkpt><trkpt lat="42.8622164" lon="12.5701692"><ele>349.0</ele><time>2026-04-11T15:44:19.351Z</time></trkpt><trkpt lat="42.8623736" lon="12.5700493"><ele>349.0</ele><time>2026-04-11T15:44:20.363Z</time></trkpt><trkpt lat="42.8625351" lon="12.5699258"><ele>349.0</ele><time>2026-04-11T15:44:21.336Z</time></trkpt><trkpt lat="42.8626996" lon="12.569809"><ele>347.3333333333333</ele><time>2026-04-11T15:44:22.37Z</time></trkpt><trkpt lat="42.8628653" lon="12.569688"><ele>345.6666666666667</ele><time>2026-04-11T15:44:23.357Z</time></trkpt><trkpt lat="42.8630394" lon="12.5695695"><ele>344.0</ele><time>2026-04-11T15:44:24.35Z</time></trkpt><trkpt lat="42.8632099" lon="12.5694502"><ele>344.0</ele><time>2026-04-11T15:44:25.366Z</time></trkpt><trkpt lat="42.8633792" lon="12.5693374"><ele>344.0</ele><time>2026-04-11T15:44:26.342Z</time></trkpt><trkpt lat="42.863542" lon="12.5692143"><ele>344.0</ele><time>2026-04-11T15:44:27.358Z</time></trkpt><trkpt lat="42.8636975" lon="12.5690769"><ele>342.0</ele><time>2026-04-11T15:44:28.358Z</time></trkpt><trkpt lat="42.8638397" lon="12.5689345"><ele>340.0</ele><time>2026-04-11T15:44:29.372Z</time></trkpt><trkpt lat="42.8639762" lon="12.5687806"><ele>338.0</ele><time>2026-04-11T15:44:30.351Z</time></trkpt><trkpt lat="42.8641073" lon="12.5686172"><ele>337.6666666666667</ele><time>2026-04-11T15:44:31.359Z</time></trkpt><trkpt lat="42.8642319" lon="12.5684518"><ele>337.3333333333333</ele><time>2026-04-11T15:44:32.359Z</time></trkpt><trkpt lat="42.8643483" lon="12.5682924"><ele>337.0</ele><time>2026-04-11T15:44:33.367Z</time></trkpt><trkpt lat="42.8644635" lon="12.5681415"><ele>336.3333333333333</ele><time>2026-04-11T15:44:34.368Z</time></trkpt><trkpt lat="42.8645807" lon="12.5679792"><ele>335.6666666666667</ele><time>2026-04-11T15:44:35.356Z</time></trkpt><trkpt lat="42.8646961" lon="12.5678226"><ele>335.0</ele><time>2026-04-11T15:44:36.348Z</time></trkpt><trkpt lat="42.8648109" lon="12.5676663"><ele>335.0</ele><time>2026-04-11T15:44:37.353Z</time></trkpt><trkpt lat="42.8649244" lon="12.5675118"><ele>335.0</ele><time>2026-04-11T15:44:38.359Z</time></trkpt><trkpt lat="42.8650372" lon="12.5673604"><ele>335.0</ele><time>2026-04-11T15:44:39.355Z</time></trkpt><trkpt lat="42.8651523" lon="12.5672047"><ele>333.6666666666667</ele><time>2026-04-11T15:44:40.355Z</time></trkpt><trkpt lat="42.8652668" lon="12.5670437"><ele>332.3333333333333</ele><time>2026-04-11T15:44:41.358Z</time></trkpt><trkpt lat="42.8653802" lon="12.5668894"><ele>331.0</ele><time>2026-04-11T15:44:42.354Z</time></trkpt><trkpt lat="42.8654941" lon="12.5667398"><ele>331.0</ele><time>2026-04-11T15:44:43.353Z</time></trkpt><trkpt lat="42.8656099" lon="12.566588"><ele>331.0</ele><time>2026-04-11T15:44:44.356Z</time></trkpt><trkpt lat="42.8657272" lon="12.5664401"><ele>331.0</ele><time>2026-04-11T15:44:45.355Z</time></trkpt><trkpt lat="42.8658495" lon="12.5662943"><ele>329.0</ele><time>2026-04-11T15:44:46.366Z</time></trkpt><trkpt lat="42.8659765" lon="12.5661578"><ele>327.0</ele><time>2026-04-11T15:44:47.348Z</time></trkpt><trkpt lat="42.8661063" lon="12.5660332"><ele>325.0</ele><time>2026-04-11T15:44:48.352Z</time></trkpt><trkpt lat="42.8662405" lon="12.5659212"><ele>325.0</ele><time>2026-04-11T15:44:49.355Z</time></trkpt><trkpt lat="42.8663742" lon="12.5658192"><ele>325.0</ele><time>2026-04-11T15:44:50.345Z</time></trkpt><trkpt lat="42.8665075" lon="12.5657202"><ele>325.0</ele><time>2026-04-11T15:44:51.361Z</time></trkpt><trkpt lat="42.8666397" lon="12.5656291"><ele>325.0</ele><time>2026-04-11T15:44:52.351Z</time></trkpt><trkpt lat="42.8667675" lon="12.5655253"><ele>325.0</ele><time>2026-04-11T15:44:53.361Z</time></trkpt><trkpt lat="42.8668985" lon="12.5654219"><ele>325.0</ele><time>2026-04-11T15:44:54.361Z</time></trkpt><trkpt lat="42.8670234" lon="12.5653244"><ele>325.0</ele><time>2026-04-11T15:44:55.368Z</time></trkpt><trkpt lat="42.8671549" lon="12.5652291"><ele>322.5</ele><time>2026-04-11T15:44:56.357Z</time></trkpt><trkpt lat="42.8672864" lon="12.5651376"><ele>320.0</ele><time>2026-04-11T15:44:57.374Z</time></trkpt><trkpt lat="42.8674146" lon="12.5650468"><ele>317.5</ele><time>2026-04-11T15:44:58.358Z</time></trkpt><trkpt lat="42.8675466" lon="12.564963"><ele>315.0</ele><time>2026-04-11T15:44:59.367Z</time></trkpt><trkpt lat="42.8676793" lon="12.5648817"><ele>313.25</ele><time>2026-04-11T15:45:00.359Z</time></trkpt><trkpt lat="42.8678089" lon="12.5648002"><ele>311.5</ele><time>2026-04-11T15:45:01.351Z</time></trkpt><trkpt lat="42.8679375" lon="12.5647235"><ele>309.75</ele><time>2026-04-11T15:45:02.36Z</time></trkpt><trkpt lat="42.868065" lon="12.5646461"><ele>308.0</ele><time>2026-04-11T15:45:03.353Z</time></trkpt><trkpt lat="42.8681848" lon="12.5645744"><ele>307.75</ele><time>2026-04-11T15:45:04.365Z</time></trkpt><trkpt lat="42.8683079" lon="12.5645043"><ele>307.5</ele><time>2026-04-11T15:45:05.359Z</time></trkpt><trkpt lat="42.8684341" lon="12.5644272"><ele>307.25</ele><time>2026-04-11T15:45:06.364Z</time></trkpt><trkpt lat="42.8685583" lon="12.5643613"><ele>307.0</ele><time>2026-04-11T15:45:07.36Z</time></trkpt><trkpt lat="42.8686825" lon="12.5642947"><ele>306.75</ele><time>2026-04-11T15:45:08.343Z</time></trkpt><trkpt lat="42.8688056" lon="12.5642286"><ele>306.5</ele><time>2026-04-11T15:45:09.363Z</time></trkpt><trkpt lat="42.8689275" lon="12.564165"><ele>306.25</ele><time>2026-04-11T15:45:10.365Z</time></trkpt><trkpt lat="42.8690515" lon="12.564102"><ele>306.0</ele><time>2026-04-11T15:45:11.368Z</time></trkpt><trkpt lat="42.869175" lon="12.5640326"><ele>305.0</ele><time>2026-04-11T15:45:12.356Z</time></trkpt><trkpt lat="42.8693026" lon="12.5639481"><ele>304.0</ele><time>2026-04-11T15:45:13.36Z</time></trkpt><trkpt lat="42.8694267" lon="12.5638669"><ele>303.0</ele><time>2026-04-11T15:45:14.357Z</time></trkpt><trkpt lat="42.8695546" lon="12.563786"><ele>302.0</ele><time>2026-04-11T15:45:15.368Z</time></trkpt><trkpt lat="42.8696855" lon="12.5637059"><ele>301.75</ele><time>2026-04-11T15:45:16.358Z</time></trkpt><trkpt lat="42.8698086" lon="12.5636064"><ele>301.5</ele><time>2026-04-11T15:45:17.354Z</time></trkpt><trkpt lat="42.8699311" lon="12.5634928"><ele>301.25</ele><time>2026-04-11T15:45:18.365Z</time></trkpt><trkpt lat="42.8700334" lon="12.5633545"><ele>301.0</ele><time>2026-04-11T15:45:19.357Z</time></trkpt><trkpt lat="42.8701307" lon="12.563206"><ele>301.0</ele><time>2026-04-11T15:45:20.367Z</time></trkpt><trkpt lat="42.8702211" lon="12.5630506"><ele>301.0</ele><time>2026-04-11T15:45:21.376Z</time></trkpt><trkpt lat="42.8702992" lon="12.5628774"><ele>301.0</ele><time>2026-04-11T15:45:22.373Z</time></trkpt><trkpt lat="42.8703773" lon="12.5627092"><ele>301.0</ele><time>2026-04-11T15:45:23.35Z</time></trkpt><trkpt lat="42.8704516" lon="12.5625412"><ele>300.0</ele><time>2026-04-11T15:45:24.362Z</time></trkpt><trkpt lat="42.8705224" lon="12.5623773"><ele>299.0</ele><time>2026-04-11T15:45:25.37Z</time></trkpt><trkpt lat="42.8705946" lon="12.5622155"><ele>298.0</ele><time>2026-04-11T15:45:26.373Z</time></trkpt><trkpt lat="42.8706647" lon="12.562053"><ele>297.0</ele><time>2026-04-11T15:45:27.359Z</time></trkpt><trkpt lat="42.8707381" lon="12.5618937"><ele>296.25</ele><time>2026-04-11T15:45:28.333Z</time></trkpt><trkpt lat="42.870814" lon="12.5617294"><ele>295.5</ele><time>2026-04-11T15:45:29.364Z</time></trkpt><trkpt lat="42.8708832" lon="12.5615659"><ele>294.75</ele><time>2026-04-11T15:45:30.353Z</time></trkpt><trkpt lat="42.8709553" lon="12.5614"><ele>294.0</ele><time>2026-04-11T15:45:31.364Z</time></trkpt><trkpt lat="42.8710272" lon="12.5612434"><ele>293.5</ele><time>2026-04-11T15:45:32.377Z</time></trkpt><trkpt lat="42.8711" lon="12.5610886"><ele>293.0</ele><time>2026-04-11T15:45:33.353Z</time></trkpt><trkpt lat="42.8711634" lon="12.5609492"><ele>292.5</ele><time>2026-04-11T15:45:34.359Z</time></trkpt><trkpt lat="42.8712216" lon="12.5608259"><ele>292.0</ele><time>2026-04-11T15:45:35.365Z</time></trkpt><trkpt lat="42.8712767" lon="12.5607147"><ele>292.0</ele><time>2026-04-11T15:45:36.344Z</time></trkpt><trkpt lat="42.8713216" lon="12.5606189"><ele>292.0</ele><time>2026-04-11T15:45:37.346Z</time></trkpt><trkpt lat="42.8713633" lon="12.5605462"><ele>292.0</ele><time>2026-04-11T15:45:38.347Z</time></trkpt><trkpt lat="42.8714166" lon="12.560489"><ele>292.0</ele><time>2026-04-11T15:45:39.349Z</time></trkpt><trkpt lat="42.8714979" lon="12.5604716"><ele>292.0</ele><time>2026-04-11T15:45:44.353Z</time></trkpt><trkpt lat="42.8716" lon="12.5605475"><ele>292.0</ele><time>2026-04-11T15:45:46.349Z</time></trkpt><trkpt lat="42.8717062" lon="12.5606283"><ele>292.0</ele><time>2026-04-11T15:45:48.351Z</time></trkpt><trkpt lat="42.8717637" lon="12.5606816"><ele>292.0</ele><time>2026-04-11T15:45:49.363Z</time></trkpt><trkpt lat="42.8718699" lon="12.5607362"><ele>292.0</ele><time>2026-04-11T15:45:51.367Z</time></trkpt><trkpt lat="42.8719255" lon="12.5606577"><ele>292.0</ele><time>2026-04-11T15:45:53.362Z</time></trkpt><trkpt lat="42.8718741" lon="12.560608"><ele>292.0</ele><time>2026-04-11T15:45:55.358Z</time></trkpt><trkpt lat="42.8717841" lon="12.5605852"><ele>292.0</ele><time>2026-04-11T15:45:57.364Z</time></trkpt><trkpt lat="42.871687" lon="12.5605303"><ele>292.0</ele><time>2026-04-11T15:45:59.363Z</time></trkpt><trkpt lat="42.8715868" lon="12.5604546"><ele>292.0</ele><time>2026-04-11T15:46:01.351Z</time></trkpt><trkpt lat="42.8714784" lon="12.5603721"><ele>292.0</ele><time>2026-04-11T15:46:03.364Z</time></trkpt><trkpt lat="42.871423" lon="12.5603275"><ele>292.0</ele><time>2026-04-11T15:46:04.344Z</time></trkpt><trkpt lat="42.8713651" lon="12.5602835"><ele>292.0</ele><time>2026-04-11T15:46:05.356Z</time></trkpt><trkpt lat="42.8713022" lon="12.560241"><ele>292.0</ele><time>2026-04-11T15:46:06.361Z</time></trkpt><trkpt lat="42.8712403" lon="12.560194"><ele>291.3333333333333</ele><time>2026-04-11T15:46:07.355Z</time></trkpt><trkpt lat="42.8711776" lon="12.5601439"><ele>290.66666666666663</ele><time>2026-04-11T15:46:08.359Z</time></trkpt><trkpt lat="42.8711189" lon="12.5600929"><ele>290.0</ele><time>2026-04-11T15:46:09.354Z</time></trkpt><trkpt lat="42.871059" lon="12.5600342"><ele>289.3333333333333</ele><time>2026-04-11T15:46:10.363Z</time></trkpt><trkpt lat="42.8710001" lon="12.5599725"><ele>288.6666666666667</ele><time>2026-04-11T15:46:11.356Z</time></trkpt><trkpt lat="42.8709349" lon="12.5599064"><ele>288.0</ele><time>2026-04-11T15:46:12.359Z</time></trkpt><trkpt lat="42.8708747" lon="12.5598385"><ele>288.0</ele><time>2026-04-11T15:46:13.359Z</time></trkpt><trkpt lat="42.8708219" lon="12.559758"><ele>288.0</ele><time>2026-04-11T15:46:14.348Z</time></trkpt><trkpt lat="42.8707709" lon="12.5596729"><ele>288.0</ele><time>2026-04-11T15:46:15.364Z</time></trkpt><trkpt lat="42.870717" lon="12.5595813"><ele>288.0</ele><time>2026-04-11T15:46:16.348Z</time></trkpt><trkpt lat="42.8706699" lon="12.5594924"><ele>288.0</ele><time>2026-04-11T15:46:17.359Z</time></trkpt><trkpt lat="42.8706297" lon="12.5594195"><ele>288.0</ele><time>2026-04-11T15:46:18.356Z</time></trkpt><trkpt lat="42.87057" lon="12.5593171"><ele>288.0</ele><time>2026-04-11T15:46:20.355Z</time></trkpt><trkpt lat="42.8705293" lon="12.5592413"><ele>288.0</ele><time>2026-04-11T15:46:22.351Z</time></trkpt><trkpt lat="42.8704667" lon="12.5591032"><ele>288.0</ele><time>2026-04-11T15:46:24.362Z</time></trkpt><trkpt lat="42.8704277" lon="12.5590115"><ele>288.0</ele><time>2026-04-11T15:46:25.36Z</time></trkpt><trkpt lat="42.8703848" lon="12.5589172"><ele>288.0</ele><time>2026-04-11T15:46:26.359Z</time></trkpt><trkpt lat="42.8703445" lon="12.5588245"><ele>288.0</ele><time>2026-04-11T15:46:27.364Z</time></trkpt><trkpt lat="42.8703094" lon="12.558725"><ele>288.3333333333333</ele><time>2026-04-11T15:46:28.362Z</time></trkpt><trkpt lat="42.8702783" lon="12.5586269"><ele>288.6666666666667</ele><time>2026-04-11T15:46:29.365Z</time></trkpt><trkpt lat="42.8702571" lon="12.5585374"><ele>289.0</ele><time>2026-04-11T15:46:30.366Z</time></trkpt><trkpt lat="42.8702364" lon="12.5584491"><ele>289.33333333333337</ele><time>2026-04-11T15:46:31.358Z</time></trkpt><trkpt lat="42.8702255" lon="12.5583429"><ele>289.6666666666667</ele><time>2026-04-11T15:46:32.367Z</time></trkpt><trkpt lat="42.8702196" lon="12.5582259"><ele>290.0</ele><time>2026-04-11T15:46:33.352Z</time></trkpt><trkpt lat="42.8702185" lon="12.5580969"><ele>290.0</ele><time>2026-04-11T15:46:34.35Z</time></trkpt><trkpt lat="42.8702196" lon="12.5579563"><ele>290.0</ele><time>2026-04-11T15:46:35.364Z</time></trkpt><trkpt lat="42.8702276" lon="12.5578119"><ele>290.0</ele><time>2026-04-11T15:46:36.332Z</time></trkpt><trkpt lat="42.8702348" lon="12.5576579"><ele>290.0</ele><time>2026-04-11T15:46:37.367Z</time></trkpt><trkpt lat="42.8702349" lon="12.5574935"><ele>290.0</ele><time>2026-04-11T15:46:38.361Z</time></trkpt><trkpt lat="42.8702252" lon="12.557329"><ele>290.0</ele><time>2026-04-11T15:46:39.365Z</time></trkpt><trkpt lat="42.870205" lon="12.5571881"><ele>290.0</ele><time>2026-04-11T15:46:40.353Z</time></trkpt><trkpt lat="42.8701768" lon="12.5570535"><ele>290.0</ele><time>2026-04-11T15:46:41.368Z</time></trkpt><trkpt lat="42.8701355" lon="12.556921"><ele>290.0</ele><time>2026-04-11T15:46:42.361Z</time></trkpt><trkpt lat="42.8700896" lon="12.5567823"><ele>290.0</ele><time>2026-04-11T15:46:43.364Z</time></trkpt><trkpt lat="42.8700365" lon="12.5566354"><ele>290.5</ele><time>2026-04-11T15:46:44.36Z</time></trkpt><trkpt lat="42.8699818" lon="12.5564897"><ele>291.0</ele><time>2026-04-11T15:46:45.359Z</time></trkpt><trkpt lat="42.8699181" lon="12.5563452"><ele>291.5</ele><time>2026-04-11T15:46:46.352Z</time></trkpt><trkpt lat="42.8698456" lon="12.556191"><ele>292.0</ele><time>2026-04-11T15:46:47.348Z</time></trkpt><trkpt lat="42.8697792" lon="12.5560402"><ele>290.75</ele><time>2026-04-11T15:46:48.342Z</time></trkpt><trkpt lat="42.8697126" lon="12.5558988"><ele>289.5</ele><time>2026-04-11T15:46:49.343Z</time></trkpt><trkpt lat="42.8696433" lon="12.5557558"><ele>288.25</ele><time>2026-04-11T15:46:50.34Z</time></trkpt><trkpt lat="42.8695699" lon="12.5556275"><ele>287.0</ele><time>2026-04-11T15:46:51.343Z</time></trkpt><trkpt lat="42.8694956" lon="12.5554991"><ele>287.0</ele><time>2026-04-11T15:46:52.365Z</time></trkpt><trkpt lat="42.8694146" lon="12.555387"><ele>287.0</ele><time>2026-04-11T15:46:53.351Z</time></trkpt><trkpt lat="42.8693355" lon="12.5552707"><ele>287.0</ele><time>2026-04-11T15:46:54.358Z</time></trkpt><trkpt lat="42.8692524" lon="12.5551677"><ele>287.0</ele><time>2026-04-11T15:46:55.348Z</time></trkpt><trkpt lat="42.8691587" lon="12.5550991"><ele>288.0</ele><time>2026-04-11T15:46:56.351Z</time></trkpt><trkpt lat="42.8690654" lon="12.5550448"><ele>289.0</ele><time>2026-04-11T15:46:57.344Z</time></trkpt><trkpt lat="42.8689558" lon="12.5549782"><ele>290.0</ele><time>2026-04-11T15:46:58.355Z</time></trkpt><trkpt lat="42.8688419" lon="12.5549487"><ele>291.0</ele><time>2026-04-11T15:46:59.356Z</time></trkpt><trkpt lat="42.8687318" lon="12.5549229"><ele>292.0</ele><time>2026-04-11T15:47:00.426Z</time></trkpt><trkpt lat="42.8686109" lon="12.5549112"><ele>292.0</ele><time>2026-04-11T15:47:01.341Z</time></trkpt><trkpt lat="42.8684886" lon="12.5548833"><ele>292.0</ele><time>2026-04-11T15:47:02.336Z</time></trkpt><trkpt lat="42.8683597" lon="12.5548511"><ele>292.0</ele><time>2026-04-11T15:47:03.352Z</time></trkpt><trkpt lat="42.8682294" lon="12.5548101"><ele>292.0</ele><time>2026-04-11T15:47:04.336Z</time></trkpt><trkpt lat="42.8680993" lon="12.5547707"><ele>292.5</ele><time>2026-04-11T15:47:05.356Z</time></trkpt><trkpt lat="42.8679688" lon="12.554725"><ele>293.0</ele><time>2026-04-11T15:47:06.372Z</time></trkpt><trkpt lat="42.8678423" lon="12.5546688"><ele>293.5</ele><time>2026-04-11T15:47:07.371Z</time></trkpt><trkpt lat="42.8677235" lon="12.554594"><ele>294.0</ele><time>2026-04-11T15:47:08.355Z</time></trkpt><trkpt lat="42.8676046" lon="12.5545017"><ele>292.5</ele><time>2026-04-11T15:47:09.36Z</time></trkpt><trkpt lat="42.8674855" lon="12.5543857"><ele>291.0</ele><time>2026-04-11T15:47:10.365Z</time></trkpt><trkpt lat="42.8673796" lon="12.554253"><ele>289.5</ele><time>2026-04-11T15:47:11.37Z</time></trkpt><trkpt lat="42.8672751" lon="12.5541167"><ele>288.0</ele><time>2026-04-11T15:47:12.353Z</time></trkpt><trkpt lat="42.8671702" lon="12.553977"><ele>288.0</ele><time>2026-04-11T15:47:13.356Z</time></trkpt><trkpt lat="42.8670641" lon="12.5538362"><ele>288.0</ele><time>2026-04-11T15:47:14.348Z</time></trkpt><trkpt lat="42.8669505" lon="12.5536924"><ele>288.0</ele><time>2026-04-11T15:47:15.342Z</time></trkpt><trkpt lat="42.8668388" lon="12.5535433"><ele>287.6666666666667</ele><time>2026-04-11T15:47:16.373Z</time></trkpt><trkpt lat="42.8667264" lon="12.5533944"><ele>287.33333333333337</ele><time>2026-04-11T15:47:17.361Z</time></trkpt><trkpt lat="42.8666091" lon="12.5532414"><ele>287.0</ele><time>2026-04-11T15:47:18.348Z</time></trkpt><trkpt lat="42.8664923" lon="12.5530848"><ele>287.0</ele><time>2026-04-11T15:47:19.345Z</time></trkpt><trkpt lat="42.8663715" lon="12.552927"><ele>287.0</ele><time>2026-04-11T15:47:20.365Z</time></trkpt><trkpt lat="42.8662476" lon="12.5527752"><ele>287.0</ele><time>2026-04-11T15:47:21.347Z</time></trkpt><trkpt lat="42.8661256" lon="12.5526168"><ele>285.6666666666667</ele><time>2026-04-11T15:47:22.354Z</time></trkpt><trkpt lat="42.8660016" lon="12.5524508"><ele>284.3333333333333</ele><time>2026-04-11T15:47:23.339Z</time></trkpt><trkpt lat="42.8658754" lon="12.5522918"><ele>283.0</ele><time>2026-04-11T15:47:24.357Z</time></trkpt><trkpt lat="42.8657513" lon="12.5521318"><ele>284.66666666666663</ele><time>2026-04-11T15:47:25.365Z</time></trkpt><trkpt lat="42.8656253" lon="12.551968"><ele>286.3333333333333</ele><time>2026-04-11T15:47:26.36Z</time></trkpt><trkpt lat="42.8654957" lon="12.5518075"><ele>288.0</ele><time>2026-04-11T15:47:27.371Z</time></trkpt><trkpt lat="42.8653623" lon="12.551649"><ele>288.0</ele><time>2026-04-11T15:47:28.372Z</time></trkpt><trkpt lat="42.8652316" lon="12.5514853"><ele>288.0</ele><time>2026-04-11T15:47:29.364Z</time></trkpt><trkpt lat="42.8650984" lon="12.5513165"><ele>288.0</ele><time>2026-04-11T15:47:30.333Z</time></trkpt><trkpt lat="42.8649686" lon="12.5511429"><ele>289.0</ele><time>2026-04-11T15:47:31.355Z</time></trkpt><trkpt lat="42.864845" lon="12.5509785"><ele>290.0</ele><time>2026-04-11T15:47:32.342Z</time></trkpt><trkpt lat="42.8647312" lon="12.5507983"><ele>291.0</ele><time>2026-04-11T15:47:33.343Z</time></trkpt><trkpt lat="42.8646238" lon="12.5506146"><ele>291.0</ele><time>2026-04-11T15:47:34.357Z</time></trkpt><trkpt lat="42.864519" lon="12.5504222"><ele>291.0</ele><time>2026-04-11T15:47:35.354Z</time></trkpt><trkpt lat="42.8644178" lon="12.5502145"><ele>291.0</ele><time>2026-04-11T15:47:36.353Z</time></trkpt><trkpt lat="42.8643198" lon="12.5500039"><ele>292.0</ele><time>2026-04-11T15:47:37.355Z</time></trkpt><trkpt lat="42.8642208" lon="12.5497794"><ele>293.0</ele><time>2026-04-11T15:47:38.342Z</time></trkpt><trkpt lat="42.864124" lon="12.5495537"><ele>294.0</ele><time>2026-04-11T15:47:39.368Z</time></trkpt><trkpt lat="42.8640266" lon="12.5493245"><ele>294.0</ele><time>2026-04-11T15:47:40.36Z</time></trkpt><trkpt lat="42.8639259" lon="12.5490914"><ele>294.0</ele><time>2026-04-11T15:47:41.348Z</time></trkpt><trkpt lat="42.863824" lon="12.548855"><ele>294.0</ele><time>2026-04-11T15:47:42.349Z</time></trkpt><trkpt lat="42.8637234" lon="12.5486405"><ele>293.3333333333333</ele><time>2026-04-11T15:47:43.374Z</time></trkpt><trkpt lat="42.8636274" lon="12.5484192"><ele>292.66666666666663</ele><time>2026-04-11T15:47:44.346Z</time></trkpt><trkpt lat="42.8635294" lon="12.5482001"><ele>292.0</ele><time>2026-04-11T15:47:45.36Z</time></trkpt><trkpt lat="42.8634314" lon="12.5479821"><ele>292.3333333333333</ele><time>2026-04-11T15:47:46.371Z</time></trkpt><trkpt lat="42.8633329" lon="12.5477622"><ele>292.6666666666667</ele><time>2026-04-11T15:47:47.354Z</time></trkpt><trkpt lat="42.8632384" lon="12.5475469"><ele>293.0</ele><time>2026-04-11T15:47:48.353Z</time></trkpt><trkpt lat="42.8631474" lon="12.5473265"><ele>293.0</ele><time>2026-04-11T15:47:49.365Z</time></trkpt><trkpt lat="42.8630547" lon="12.5471146"><ele>293.0</ele><time>2026-04-11T15:47:50.357Z</time></trkpt><trkpt lat="42.8629588" lon="12.5469022"><ele>293.0</ele><time>2026-04-11T15:47:51.354Z</time></trkpt><trkpt lat="42.8628618" lon="12.5466911"><ele>293.0</ele><time>2026-04-11T15:47:52.364Z</time></trkpt><trkpt lat="42.8627688" lon="12.5464773"><ele>293.0</ele><time>2026-04-11T15:47:53.358Z</time></trkpt><trkpt lat="42.8626766" lon="12.5462617"><ele>293.0</ele><time>2026-04-11T15:47:54.366Z</time></trkpt><trkpt lat="42.862583" lon="12.54605"><ele>293.0</ele><time>2026-04-11T15:47:55.366Z</time></trkpt><trkpt lat="42.8624895" lon="12.5458338"><ele>293.0</ele><time>2026-04-11T15:47:56.356Z</time></trkpt><trkpt lat="42.8623948" lon="12.5456204"><ele>293.0</ele><time>2026-04-11T15:47:57.382Z</time></trkpt><trkpt lat="42.8622989" lon="12.5454043"><ele>293.6666666666667</ele><time>2026-04-11T15:47:58.352Z</time></trkpt><trkpt lat="42.8621994" lon="12.5451888"><ele>294.3333333333333</ele><time>2026-04-11T15:47:59.358Z</time></trkpt><trkpt lat="42.8620997" lon="12.5449713"><ele>295.0</ele><time>2026-04-11T15:48:00.36Z</time></trkpt><trkpt lat="42.8620016" lon="12.5447565"><ele>295.0</ele><time>2026-04-11T15:48:01.365Z</time></trkpt><trkpt lat="42.8619073" lon="12.544539"><ele>295.0</ele><time>2026-04-11T15:48:02.35Z</time></trkpt><trkpt lat="42.8618129" lon="12.5443247"><ele>295.0</ele><time>2026-04-11T15:48:03.358Z</time></trkpt><trkpt lat="42.8617216" lon="12.5441096"><ele>295.3333333333333</ele><time>2026-04-11T15:48:04.359Z</time></trkpt><trkpt lat="42.8616345" lon="12.5439043"><ele>295.6666666666667</ele><time>2026-04-11T15:48:05.361Z</time></trkpt><trkpt lat="42.861547" lon="12.5436996"><ele>296.0</ele><time>2026-04-11T15:48:06.364Z</time></trkpt><trkpt lat="42.8614635" lon="12.5434991"><ele>296.33333333333337</ele><time>2026-04-11T15:48:07.351Z</time></trkpt><trkpt lat="42.8613805" lon="12.5433143"><ele>296.6666666666667</ele><time>2026-04-11T15:48:08.364Z</time></trkpt><trkpt lat="42.8613007" lon="12.5431462"><ele>297.0</ele><time>2026-04-11T15:48:09.346Z</time></trkpt><trkpt lat="42.8612238" lon="12.5429703"><ele>298.3333333333333</ele><time>2026-04-11T15:48:10.374Z</time></trkpt><trkpt lat="42.8611423" lon="12.5427902"><ele>299.66666666666663</ele><time>2026-04-11T15:48:11.347Z</time></trkpt><trkpt lat="42.8610642" lon="12.5426035"><ele>301.0</ele><time>2026-04-11T15:48:12.354Z</time></trkpt><trkpt lat="42.8609852" lon="12.5424186"><ele>301.66666666666663</ele><time>2026-04-11T15:48:13.353Z</time></trkpt><trkpt lat="42.8609118" lon="12.5422295"><ele>302.3333333333333</ele><time>2026-04-11T15:48:14.35Z</time></trkpt><trkpt lat="42.8608399" lon="12.5420382"><ele>303.0</ele><time>2026-04-11T15:48:15.359Z</time></trkpt><trkpt lat="42.8607712" lon="12.5418372"><ele>303.3333333333333</ele><time>2026-04-11T15:48:16.381Z</time></trkpt><trkpt lat="42.8607034" lon="12.541641"><ele>303.66666666666663</ele><time>2026-04-11T15:48:17.351Z</time></trkpt><trkpt lat="42.8606509" lon="12.541446"><ele>304.0</ele><time>2026-04-11T15:48:18.351Z</time></trkpt><trkpt lat="42.8605919" lon="12.5412463"><ele>304.0</ele><time>2026-04-11T15:48:19.364Z</time></trkpt><trkpt lat="42.8605334" lon="12.5410454"><ele>304.0</ele><time>2026-04-11T15:48:20.349Z</time></trkpt><trkpt lat="42.8604837" lon="12.5408425"><ele>304.0</ele><time>2026-04-11T15:48:21.358Z</time></trkpt><trkpt lat="42.8604279" lon="12.5406371"><ele>304.0</ele><time>2026-04-11T15:48:22.347Z</time></trkpt><trkpt lat="42.8603686" lon="12.5404354"><ele>304.0</ele><time>2026-04-11T15:48:23.365Z</time></trkpt><trkpt lat="42.8603095" lon="12.54024"><ele>304.0</ele><time>2026-04-11T15:48:24.344Z</time></trkpt><trkpt lat="42.860251" lon="12.5400438"><ele>303.66666666666663</ele><time>2026-04-11T15:48:25.359Z</time></trkpt><trkpt lat="42.8601946" lon="12.5398478"><ele>303.3333333333333</ele><time>2026-04-11T15:48:26.352Z</time></trkpt><trkpt lat="42.8601372" lon="12.5396542"><ele>303.0</ele><time>2026-04-11T15:48:27.368Z</time></trkpt><trkpt lat="42.8600728" lon="12.5394602"><ele>304.3333333333333</ele><time>2026-04-11T15:48:28.353Z</time></trkpt><trkpt lat="42.8599975" lon="12.5392721"><ele>305.66666666666663</ele><time>2026-04-11T15:48:29.36Z</time></trkpt><trkpt lat="42.8599205" lon="12.5390802"><ele>307.0</ele><time>2026-04-11T15:48:30.356Z</time></trkpt><trkpt lat="42.8598417" lon="12.5388842"><ele>306.66666666666663</ele><time>2026-04-11T15:48:31.364Z</time></trkpt><trkpt lat="42.859762" lon="12.5386852"><ele>306.3333333333333</ele><time>2026-04-11T15:48:32.349Z</time></trkpt><trkpt lat="42.8596801" lon="12.5384828"><ele>306.0</ele><time>2026-04-11T15:48:33.365Z</time></trkpt><trkpt lat="42.859594" lon="12.5382798"><ele>306.0</ele><time>2026-04-11T15:48:34.35Z</time></trkpt><trkpt lat="42.8595027" lon="12.5380698"><ele>306.0</ele><time>2026-04-11T15:48:35.351Z</time></trkpt><trkpt lat="42.8594071" lon="12.5378588"><ele>306.0</ele><time>2026-04-11T15:48:36.348Z</time></trkpt><trkpt lat="42.8593145" lon="12.5376408"><ele>306.3333333333333</ele><time>2026-04-11T15:48:37.373Z</time></trkpt><trkpt lat="42.859219" lon="12.5374274"><ele>306.66666666666663</ele><time>2026-04-11T15:48:38.354Z</time></trkpt><trkpt lat="42.8591249" lon="12.5372176"><ele>307.0</ele><time>2026-04-11T15:48:39.344Z</time></trkpt><trkpt lat="42.8590364" lon="12.5370116"><ele>307.0</ele><time>2026-04-11T15:48:40.356Z</time></trkpt><trkpt lat="42.8589497" lon="12.5368007"><ele>307.0</ele><time>2026-04-11T15:48:41.364Z</time></trkpt><trkpt lat="42.8588734" lon="12.5365925"><ele>307.0</ele><time>2026-04-11T15:48:42.348Z</time></trkpt><trkpt lat="42.8588034" lon="12.5363863"><ele>307.3333333333333</ele><time>2026-04-11T15:48:43.357Z</time></trkpt><trkpt lat="42.8587633" lon="12.5361637"><ele>307.6666666666667</ele><time>2026-04-11T15:48:44.356Z</time></trkpt><trkpt lat="42.858754" lon="12.5359305"><ele>308.0</ele><time>2026-04-11T15:48:45.362Z</time></trkpt><trkpt lat="42.8587753" lon="12.5356852"><ele>308.0</ele><time>2026-04-11T15:48:46.36Z</time></trkpt><trkpt lat="42.8588163" lon="12.5354369"><ele>308.0</ele><time>2026-04-11T15:48:47.356Z</time></trkpt><trkpt lat="42.8588687" lon="12.5351847"><ele>308.0</ele><time>2026-04-11T15:48:48.348Z</time></trkpt><trkpt lat="42.858915" lon="12.5349246"><ele>308.33333333333337</ele><time>2026-04-11T15:48:49.357Z</time></trkpt><trkpt lat="42.8589636" lon="12.5346556"><ele>308.6666666666667</ele><time>2026-04-11T15:48:50.36Z</time></trkpt><trkpt lat="42.8590114" lon="12.5343837"><ele>309.0</ele><time>2026-04-11T15:48:51.362Z</time></trkpt><trkpt lat="42.8590576" lon="12.5341097"><ele>309.0</ele><time>2026-04-11T15:48:52.36Z</time></trkpt><trkpt lat="42.8591035" lon="12.5338435"><ele>309.0</ele><time>2026-04-11T15:48:53.361Z</time></trkpt><trkpt lat="42.8591464" lon="12.5335746"><ele>309.0</ele><time>2026-04-11T15:48:54.352Z</time></trkpt><trkpt lat="42.8591923" lon="12.5333016"><ele>309.3333333333333</ele><time>2026-04-11T15:48:55.36Z</time></trkpt><trkpt lat="42.859238" lon="12.5330358"><ele>309.66666666666663</ele><time>2026-04-11T15:48:56.354Z</time></trkpt><trkpt lat="42.8592867" lon="12.5327725"><ele>310.0</ele><time>2026-04-11T15:48:57.361Z</time></trkpt><trkpt lat="42.8593336" lon="12.5325081"><ele>310.66666666666663</ele><time>2026-04-11T15:48:58.346Z</time></trkpt><trkpt lat="42.8593836" lon="12.5322394"><ele>311.3333333333333</ele><time>2026-04-11T15:48:59.361Z</time></trkpt><trkpt lat="42.8594307" lon="12.5319744"><ele>312.0</ele><time>2026-04-11T15:49:00.348Z</time></trkpt><trkpt lat="42.859475" lon="12.5317149"><ele>312.3333333333333</ele><time>2026-04-11T15:49:01.351Z</time></trkpt><trkpt lat="42.8595188" lon="12.5314503"><ele>312.66666666666663</ele><time>2026-04-11T15:49:02.357Z</time></trkpt><trkpt lat="42.8595665" lon="12.53118"><ele>313.0</ele><time>2026-04-11T15:49:03.36Z</time></trkpt><trkpt lat="42.8596101" lon="12.5309193"><ele>313.3333333333333</ele><time>2026-04-11T15:49:04.36Z</time></trkpt><trkpt lat="42.8596526" lon="12.5306804"><ele>313.6666666666667</ele><time>2026-04-11T15:49:05.361Z</time></trkpt><trkpt lat="42.8596876" lon="12.530453"><ele>314.0</ele><time>2026-04-11T15:49:06.352Z</time></trkpt><trkpt lat="42.8597232" lon="12.5302402"><ele>314.33333333333337</ele><time>2026-04-11T15:49:07.36Z</time></trkpt><trkpt lat="42.8597637" lon="12.5300202"><ele>314.6666666666667</ele><time>2026-04-11T15:49:08.346Z</time></trkpt><trkpt lat="42.8597982" lon="12.52981"><ele>315.0</ele><time>2026-04-11T15:49:09.359Z</time></trkpt><trkpt lat="42.8598235" lon="12.5296059"><ele>315.0</ele><time>2026-04-11T15:49:10.365Z</time></trkpt><trkpt lat="42.8598221" lon="12.5294031"><ele>315.0</ele><time>2026-04-11T15:49:11.363Z</time></trkpt><trkpt lat="42.8597925" lon="12.5292117"><ele>315.0</ele><time>2026-04-11T15:49:12.353Z</time></trkpt><trkpt lat="42.8597376" lon="12.5290431"><ele>315.0</ele><time>2026-04-11T15:49:13.359Z</time></trkpt><trkpt lat="42.8596518" lon="12.5288851"><ele>315.0</ele><time>2026-04-11T15:49:14.353Z</time></trkpt><trkpt lat="42.8595493" lon="12.5287623"><ele>315.0</ele><time>2026-04-11T15:49:15.362Z</time></trkpt><trkpt lat="42.8594307" lon="12.5286677"><ele>315.0</ele><time>2026-04-11T15:49:16.362Z</time></trkpt><trkpt lat="42.8592928" lon="12.5286103"><ele>315.0</ele><time>2026-04-11T15:49:17.37Z</time></trkpt><trkpt lat="42.8591459" lon="12.5285668"><ele>316.3333333333333</ele><time>2026-04-11T15:49:18.36Z</time></trkpt><trkpt lat="42.858991" lon="12.528512"><ele>317.66666666666663</ele><time>2026-04-11T15:49:19.364Z</time></trkpt><trkpt lat="42.8588357" lon="12.5284437"><ele>319.0</ele><time>2026-04-11T15:49:20.349Z</time></trkpt><trkpt lat="42.8586767" lon="12.5283739"><ele>319.0</ele><time>2026-04-11T15:49:21.362Z</time></trkpt><trkpt lat="42.858511" lon="12.5283011"><ele>319.0</ele><time>2026-04-11T15:49:22.352Z</time></trkpt><trkpt lat="42.8583413" lon="12.5282297"><ele>319.0</ele><time>2026-04-11T15:49:23.359Z</time></trkpt><trkpt lat="42.8581664" lon="12.5281611"><ele>320.0</ele><time>2026-04-11T15:49:24.357Z</time></trkpt><trkpt lat="42.8579893" lon="12.5280925"><ele>321.0</ele><time>2026-04-11T15:49:25.348Z</time></trkpt><trkpt lat="42.8578129" lon="12.5280215"><ele>322.0</ele><time>2026-04-11T15:49:26.358Z</time></trkpt><trkpt lat="42.8576369" lon="12.5279526"><ele>325.66666666666663</ele><time>2026-04-11T15:49:27.351Z</time></trkpt><trkpt lat="42.8574589" lon="12.5278896"><ele>329.3333333333333</ele><time>2026-04-11T15:49:28.356Z</time></trkpt><trkpt lat="42.857277" lon="12.5278271"><ele>333.0</ele><time>2026-04-11T15:49:29.352Z</time></trkpt><trkpt lat="42.8571018" lon="12.5277625"><ele>333.0</ele><time>2026-04-11T15:49:30.367Z</time></trkpt><trkpt lat="42.856937" lon="12.5276983"><ele>333.0</ele><time>2026-04-11T15:49:31.353Z</time></trkpt><trkpt lat="42.8567903" lon="12.5276408"><ele>333.0</ele><time>2026-04-11T15:49:32.352Z</time></trkpt><trkpt lat="42.8566574" lon="12.5275823"><ele>333.5</ele><time>2026-04-11T15:49:33.357Z</time></trkpt><trkpt lat="42.8565372" lon="12.5275103"><ele>334.0</ele><time>2026-04-11T15:49:34.353Z</time></trkpt><trkpt lat="42.8564339" lon="12.5273966"><ele>334.5</ele><time>2026-04-11T15:49:35.373Z</time></trkpt><trkpt lat="42.8563591" lon="12.52723"><ele>335.0</ele><time>2026-04-11T15:49:36.34Z</time></trkpt><trkpt lat="42.8563139" lon="12.5270399"><ele>337.0</ele><time>2026-04-11T15:49:37.36Z</time></trkpt><trkpt lat="42.8562861" lon="12.5268308"><ele>339.0</ele><time>2026-04-11T15:49:38.348Z</time></trkpt><trkpt lat="42.8562529" lon="12.5266124"><ele>341.0</ele><time>2026-04-11T15:49:39.354Z</time></trkpt><trkpt lat="42.8562108" lon="12.5263966"><ele>342.6666666666667</ele><time>2026-04-11T15:49:40.355Z</time></trkpt><trkpt lat="42.8561604" lon="12.5261914"><ele>344.3333333333333</ele><time>2026-04-11T15:49:41.35Z</time></trkpt><trkpt lat="42.8560933" lon="12.5260126"><ele>346.0</ele><time>2026-04-11T15:49:42.341Z</time></trkpt><trkpt lat="42.8560019" lon="12.5258585"><ele>345.3333333333333</ele><time>2026-04-11T15:49:43.356Z</time></trkpt><trkpt lat="42.855883" lon="12.5257508"><ele>344.6666666666667</ele><time>2026-04-11T15:49:44.349Z</time></trkpt><trkpt lat="42.8557419" lon="12.525679"><ele>344.0</ele><time>2026-04-11T15:49:45.348Z</time></trkpt><trkpt lat="42.855583" lon="12.5256269"><ele>344.0</ele><time>2026-04-11T15:49:46.353Z</time></trkpt><trkpt lat="42.8554173" lon="12.525582"><ele>344.0</ele><time>2026-04-11T15:49:47.369Z</time></trkpt><trkpt lat="42.8552485" lon="12.5255446"><ele>344.0</ele><time>2026-04-11T15:49:48.347Z</time></trkpt><trkpt lat="42.8550815" lon="12.5255088"><ele>344.0</ele><time>2026-04-11T15:49:49.354Z</time></trkpt><trkpt lat="42.8549221" lon="12.5254699"><ele>344.0</ele><time>2026-04-11T15:49:50.36Z</time></trkpt><trkpt lat="42.8547804" lon="12.5254239"><ele>344.0</ele><time>2026-04-11T15:49:51.369Z</time></trkpt><trkpt lat="42.8546614" lon="12.5253524"><ele>344.0</ele><time>2026-04-11T15:49:52.354Z</time></trkpt><trkpt lat="42.8545734" lon="12.5252587"><ele>345.79999999999995</ele><time>2026-04-11T15:49:53.37Z</time></trkpt><trkpt lat="42.8545427" lon="12.5251026"><ele>347.59999999999997</ele><time>2026-04-11T15:49:54.35Z</time></trkpt><trkpt lat="42.8545692" lon="12.5249818"><ele>349.4</ele><time>2026-04-11T15:49:55.365Z</time></trkpt><trkpt lat="42.8546539" lon="12.5248898"><ele>351.2</ele><time>2026-04-11T15:49:56.338Z</time></trkpt><trkpt lat="42.8547718" lon="12.5248234"><ele>353.0</ele><time>2026-04-11T15:49:57.352Z</time></trkpt><trkpt lat="42.8549144" lon="12.5247726"><ele>353.0</ele><time>2026-04-11T15:49:58.348Z</time></trkpt><trkpt lat="42.8550758" lon="12.5247226"><ele>353.0</ele><time>2026-04-11T15:49:59.348Z</time></trkpt><trkpt lat="42.8552403" lon="12.5246565"><ele>353.0</ele><time>2026-04-11T15:50:00.347Z</time></trkpt><trkpt lat="42.855408" lon="12.5245848"><ele>354.33333333333337</ele><time>2026-04-11T15:50:01.351Z</time></trkpt><trkpt lat="42.8555868" lon="12.5245048"><ele>355.6666666666667</ele><time>2026-04-11T15:50:02.365Z</time></trkpt><trkpt lat="42.8557749" lon="12.5244272"><ele>357.0</ele><time>2026-04-11T15:50:03.361Z</time></trkpt><trkpt lat="42.8559615" lon="12.5243659"><ele>357.6666666666667</ele><time>2026-04-11T15:50:04.357Z</time></trkpt><trkpt lat="42.8561475" lon="12.52432"><ele>358.33333333333337</ele><time>2026-04-11T15:50:05.364Z</time></trkpt><trkpt lat="42.8563264" lon="12.5243163"><ele>359.0</ele><time>2026-04-11T15:50:06.344Z</time></trkpt><trkpt lat="42.8564805" lon="12.5243437"><ele>359.0</ele><time>2026-04-11T15:50:07.36Z</time></trkpt><trkpt lat="42.8566238" lon="12.524384"><ele>359.0</ele><time>2026-04-11T15:50:08.356Z</time></trkpt><trkpt lat="42.8567522" lon="12.5243925"><ele>359.0</ele><time>2026-04-11T15:50:09.347Z</time></trkpt><trkpt lat="42.8568683" lon="12.5243521"><ele>359.0</ele><time>2026-04-11T15:50:10.361Z</time></trkpt><trkpt lat="42.8569501" lon="12.5242527"><ele>359.0</ele><time>2026-04-11T15:50:11.353Z</time></trkpt><trkpt lat="42.8569862" lon="12.5241098"><ele>359.0</ele><time>2026-04-11T15:50:12.358Z</time></trkpt><trkpt lat="42.8569827" lon="12.5239578"><ele>359.0</ele><time>2026-04-11T15:50:13.349Z</time></trkpt><trkpt lat="42.8569362" lon="12.5238159"><ele>359.0</ele><time>2026-04-11T15:50:14.354Z</time></trkpt><trkpt lat="42.8568616" lon="12.5236803"><ele>360.25</ele><time>2026-04-11T15:50:15.376Z</time></trkpt><trkpt lat="42.8567813" lon="12.5235304"><ele>361.5</ele><time>2026-04-11T15:50:16.373Z</time></trkpt><trkpt lat="42.8566965" lon="12.5233689"><ele>362.75</ele><time>2026-04-11T15:50:17.354Z</time></trkpt><trkpt lat="42.856614" lon="12.5232066"><ele>364.0</ele><time>2026-04-11T15:50:18.348Z</time></trkpt><trkpt lat="42.856508" lon="12.5230424"><ele>365.66666666666663</ele><time>2026-04-11T15:50:19.359Z</time></trkpt><trkpt lat="42.8563711" lon="12.5228791"><ele>367.3333333333333</ele><time>2026-04-11T15:50:20.356Z</time></trkpt><trkpt lat="42.856213" lon="12.5227311"><ele>369.0</ele><time>2026-04-11T15:50:21.359Z</time></trkpt><trkpt lat="42.8560319" lon="12.5226123"><ele>369.3333333333333</ele><time>2026-04-11T15:50:22.366Z</time></trkpt><trkpt lat="42.8558358" lon="12.5225069"><ele>369.66666666666663</ele><time>2026-04-11T15:50:23.356Z</time></trkpt><trkpt lat="42.8556366" lon="12.5224214"><ele>370.0</ele><time>2026-04-11T15:50:24.354Z</time></trkpt><trkpt lat="42.8554352" lon="12.5223358"><ele>370.0</ele><time>2026-04-11T15:50:25.354Z</time></trkpt><trkpt lat="42.8552385" lon="12.5222489"><ele>370.0</ele><time>2026-04-11T15:50:26.369Z</time></trkpt><trkpt lat="42.8550452" lon="12.5221647"><ele>370.0</ele><time>2026-04-11T15:50:27.362Z</time></trkpt><trkpt lat="42.8548552" lon="12.5220934"><ele>373.66666666666663</ele><time>2026-04-11T15:50:28.357Z</time></trkpt><trkpt lat="42.8546628" lon="12.5220376"><ele>377.3333333333333</ele><time>2026-04-11T15:50:29.355Z</time></trkpt><trkpt lat="42.8544738" lon="12.5220078"><ele>381.0</ele><time>2026-04-11T15:50:30.352Z</time></trkpt><trkpt lat="42.8542911" lon="12.522008"><ele>381.3333333333333</ele><time>2026-04-11T15:50:31.353Z</time></trkpt><trkpt lat="42.8541165" lon="12.5220114"><ele>381.66666666666663</ele><time>2026-04-11T15:50:32.354Z</time></trkpt><trkpt lat="42.8539526" lon="12.5220126"><ele>382.0</ele><time>2026-04-11T15:50:33.355Z</time></trkpt><trkpt lat="42.8537938" lon="12.5220076"><ele>382.0</ele><time>2026-04-11T15:50:34.352Z</time></trkpt><trkpt lat="42.8536353" lon="12.5219907"><ele>382.0</ele><time>2026-04-11T15:50:35.362Z</time></trkpt><trkpt lat="42.8534857" lon="12.521936"><ele>382.0</ele><time>2026-04-11T15:50:36.365Z</time></trkpt><trkpt lat="42.8533435" lon="12.5218282"><ele>382.66666666666663</ele><time>2026-04-11T15:50:37.361Z</time></trkpt><trkpt lat="42.8532156" lon="12.5216791"><ele>383.3333333333333</ele><time>2026-04-11T15:50:38.353Z</time></trkpt><trkpt lat="42.8530869" lon="12.5215218"><ele>384.0</ele><time>2026-04-11T15:50:39.371Z</time></trkpt><trkpt lat="42.8529569" lon="12.5213619"><ele>385.33333333333337</ele><time>2026-04-11T15:50:40.365Z</time></trkpt><trkpt lat="42.8528198" lon="12.5211993"><ele>386.6666666666667</ele><time>2026-04-11T15:50:41.36Z</time></trkpt><trkpt lat="42.8526808" lon="12.5210212"><ele>388.0</ele><time>2026-04-11T15:50:42.355Z</time></trkpt><trkpt lat="42.8525394" lon="12.5208372"><ele>388.0</ele><time>2026-04-11T15:50:43.367Z</time></trkpt><trkpt lat="42.8523975" lon="12.5206467"><ele>388.0</ele><time>2026-04-11T15:50:44.355Z</time></trkpt><trkpt lat="42.8522595" lon="12.5204523"><ele>388.0</ele><time>2026-04-11T15:50:45.353Z</time></trkpt><trkpt lat="42.8521156" lon="12.5202628"><ele>388.0</ele><time>2026-04-11T15:50:46.344Z</time></trkpt><trkpt lat="42.8519709" lon="12.5200721"><ele>388.0</ele><time>2026-04-11T15:50:47.358Z</time></trkpt><trkpt lat="42.8518234" lon="12.519886"><ele>388.0</ele><time>2026-04-11T15:50:48.351Z</time></trkpt><trkpt lat="42.8516763" lon="12.5196955"><ele>392.6666666666667</ele><time>2026-04-11T15:50:49.345Z</time></trkpt><trkpt lat="42.8515305" lon="12.5195023"><ele>397.33333333333337</ele><time>2026-04-11T15:50:50.348Z</time></trkpt><trkpt lat="42.8513848" lon="12.5193132"><ele>402.0</ele><time>2026-04-11T15:50:51.359Z</time></trkpt><trkpt lat="42.8512362" lon="12.5191221"><ele>402.0</ele><time>2026-04-11T15:50:52.366Z</time></trkpt><trkpt lat="42.8510775" lon="12.5189362"><ele>402.0</ele><time>2026-04-11T15:50:53.353Z</time></trkpt><trkpt lat="42.8509045" lon="12.5187703"><ele>402.0</ele><time>2026-04-11T15:50:54.359Z</time></trkpt><trkpt lat="42.8507217" lon="12.5186251"><ele>403.0</ele><time>2026-04-11T15:50:55.353Z</time></trkpt><trkpt lat="42.8505384" lon="12.5184823"><ele>404.0</ele><time>2026-04-11T15:50:56.354Z</time></trkpt><trkpt lat="42.8503601" lon="12.5183353"><ele>405.0</ele><time>2026-04-11T15:50:57.351Z</time></trkpt><trkpt lat="42.8501935" lon="12.5181942"><ele>406.66666666666663</ele><time>2026-04-11T15:50:58.355Z</time></trkpt><trkpt lat="42.8500463" lon="12.5180572"><ele>408.3333333333333</ele><time>2026-04-11T15:50:59.345Z</time></trkpt><trkpt lat="42.8499145" lon="12.517924"><ele>410.0</ele><time>2026-04-11T15:51:00.357Z</time></trkpt><trkpt lat="42.8497879" lon="12.5178059"><ele>410.0</ele><time>2026-04-11T15:51:01.373Z</time></trkpt><trkpt lat="42.8496682" lon="12.5176935"><ele>410.0</ele><time>2026-04-11T15:51:02.36Z</time></trkpt><trkpt lat="42.849556" lon="12.5175846"><ele>410.0</ele><time>2026-04-11T15:51:03.357Z</time></trkpt><trkpt lat="42.8494604" lon="12.5174703"><ele>410.0</ele><time>2026-04-11T15:51:04.365Z</time></trkpt><trkpt lat="42.8493949" lon="12.5173477"><ele>410.0</ele><time>2026-04-11T15:51:05.361Z</time></trkpt><trkpt lat="42.8493573" lon="12.5172047"><ele>410.0</ele><time>2026-04-11T15:51:06.343Z</time></trkpt><trkpt lat="42.849368" lon="12.5170334"><ele>410.0</ele><time>2026-04-11T15:51:07.35Z</time></trkpt><trkpt lat="42.8494235" lon="12.5168636"><ele>410.0</ele><time>2026-04-11T15:51:08.347Z</time></trkpt><trkpt lat="42.8495109" lon="12.5167139"><ele>411.75</ele><time>2026-04-11T15:51:09.349Z</time></trkpt><trkpt lat="42.8496036" lon="12.5165587"><ele>413.5</ele><time>2026-04-11T15:51:10.364Z</time></trkpt><trkpt lat="42.8497058" lon="12.5164176"><ele>415.25</ele><time>2026-04-11T15:51:11.37Z</time></trkpt><trkpt lat="42.8497966" lon="12.5162797"><ele>417.0</ele><time>2026-04-11T15:51:12.361Z</time></trkpt><trkpt lat="42.849864" lon="12.516134"><ele>417.20000000000005</ele><time>2026-04-11T15:51:13.348Z</time></trkpt><trkpt lat="42.8498894" lon="12.5159835"><ele>417.4</ele><time>2026-04-11T15:51:14.34Z</time></trkpt><trkpt lat="42.8498719" lon="12.5158611"><ele>417.6</ele><time>2026-04-11T15:51:15.354Z</time></trkpt><trkpt lat="42.8497895" lon="12.515792"><ele>417.79999999999995</ele><time>2026-04-11T15:51:16.346Z</time></trkpt><trkpt lat="42.8496851" lon="12.5157865"><ele>418.0</ele><time>2026-04-11T15:51:17.364Z</time></trkpt><trkpt lat="42.8495675" lon="12.5158069"><ele>418.0</ele><time>2026-04-11T15:51:18.372Z</time></trkpt><trkpt lat="42.8494523" lon="12.5158827"><ele>418.0</ele><time>2026-04-11T15:51:19.368Z</time></trkpt><trkpt lat="42.8493075" lon="12.5159074"><ele>418.0</ele><time>2026-04-11T15:51:20.355Z</time></trkpt><trkpt lat="42.8491415" lon="12.5158983"><ele>418.0</ele><time>2026-04-11T15:51:21.36Z</time></trkpt><trkpt lat="42.8489799" lon="12.5158834"><ele>416.0</ele><time>2026-04-11T15:51:22.361Z</time></trkpt><trkpt lat="42.8488178" lon="12.5158438"><ele>414.0</ele><time>2026-04-11T15:51:23.352Z</time></trkpt><trkpt lat="42.8486698" lon="12.5157737"><ele>412.0</ele><time>2026-04-11T15:51:24.357Z</time></trkpt><trkpt lat="42.8485416" lon="12.5156606"><ele>412.0</ele><time>2026-04-11T15:51:25.35Z</time></trkpt><trkpt lat="42.8484248" lon="12.5155106"><ele>412.0</ele><time>2026-04-11T15:51:26.351Z</time></trkpt><trkpt lat="42.8483383" lon="12.5153189"><ele>412.0</ele><time>2026-04-11T15:51:27.357Z</time></trkpt><trkpt lat="42.8482859" lon="12.5151087"><ele>414.6666666666667</ele><time>2026-04-11T15:51:28.354Z</time></trkpt><trkpt lat="42.8482788" lon="12.5149222"><ele>417.33333333333337</ele><time>2026-04-11T15:51:29.365Z</time></trkpt><trkpt lat="42.8482895" lon="12.5146855"><ele>420.0</ele><time>2026-04-11T15:51:30.348Z</time></trkpt><trkpt lat="42.8483244" lon="12.5144675"><ele>420.33333333333337</ele><time>2026-04-11T15:51:31.35Z</time></trkpt><trkpt lat="42.8483509" lon="12.51424"><ele>420.6666666666667</ele><time>2026-04-11T15:51:32.361Z</time></trkpt><trkpt lat="42.8483779" lon="12.5140042"><ele>421.0</ele><time>2026-04-11T15:51:33.366Z</time></trkpt><trkpt lat="42.8484045" lon="12.5137716"><ele>421.75</ele><time>2026-04-11T15:51:34.341Z</time></trkpt><trkpt lat="42.8484297" lon="12.5135488"><ele>422.5</ele><time>2026-04-11T15:51:35.358Z</time></trkpt><trkpt lat="42.8484493" lon="12.5133557"><ele>423.25</ele><time>2026-04-11T15:51:36.352Z</time></trkpt><trkpt lat="42.8484598" lon="12.5131742"><ele>424.0</ele><time>2026-04-11T15:51:37.349Z</time></trkpt><trkpt lat="42.8484447" lon="12.5130246"><ele>424.0</ele><time>2026-04-11T15:51:38.364Z</time></trkpt><trkpt lat="42.848374" lon="12.512907"><ele>424.0</ele><time>2026-04-11T15:51:39.359Z</time></trkpt><trkpt lat="42.8482983" lon="12.5128729"><ele>424.0</ele><time>2026-04-11T15:51:40.339Z</time></trkpt><trkpt lat="42.848182" lon="12.5128557"><ele>424.0</ele><time>2026-04-11T15:51:41.365Z</time></trkpt><trkpt lat="42.8480567" lon="12.5129485"><ele>424.0</ele><time>2026-04-11T15:51:42.357Z</time></trkpt><trkpt lat="42.8479228" lon="12.5130476"><ele>424.0</ele><time>2026-04-11T15:51:43.371Z</time></trkpt><trkpt lat="42.8477827" lon="12.5131459"><ele>424.0</ele><time>2026-04-11T15:51:44.372Z</time></trkpt><trkpt lat="42.8476527" lon="12.5132358"><ele>425.0</ele><time>2026-04-11T15:51:45.374Z</time></trkpt><trkpt lat="42.8475286" lon="12.5133059"><ele>426.0</ele><time>2026-04-11T15:51:46.364Z</time></trkpt><trkpt lat="42.8474127" lon="12.5133862"><ele>427.0</ele><time>2026-04-11T15:51:47.364Z</time></trkpt><trkpt lat="42.8472987" lon="12.5134297"><ele>428.0</ele><time>2026-04-11T15:51:48.363Z</time></trkpt><trkpt lat="42.847191" lon="12.513438"><ele>428.0</ele><time>2026-04-11T15:51:49.363Z</time></trkpt><trkpt lat="42.8470941" lon="12.5134211"><ele>427.99999999999994</ele><time>2026-04-11T15:51:50.366Z</time></trkpt><trkpt lat="42.8469998" lon="12.5133823"><ele>427.99999999999994</ele><time>2026-04-11T15:51:51.352Z</time></trkpt><trkpt lat="42.8469174" lon="12.5133066"><ele>428.0</ele><time>2026-04-11T15:51:52.36Z</time></trkpt><trkpt lat="42.8468473" lon="12.5132047"><ele>428.0</ele><time>2026-04-11T15:51:53.352Z</time></trkpt><trkpt lat="42.8467844" lon="12.5130925"><ele>429.5</ele><time>2026-04-11T15:51:54.364Z</time></trkpt><trkpt lat="42.8467182" lon="12.5129611"><ele>431.0</ele><time>2026-04-11T15:51:55.351Z</time></trkpt><trkpt lat="42.8466532" lon="12.5128237"><ele>432.5</ele><time>2026-04-11T15:51:56.351Z</time></trkpt><trkpt lat="42.846581" lon="12.5126639"><ele>434.0</ele><time>2026-04-11T15:51:57.368Z</time></trkpt><trkpt lat="42.846511" lon="12.5125067"><ele>434.0</ele><time>2026-04-11T15:51:58.356Z</time></trkpt><trkpt lat="42.8464346" lon="12.5123466"><ele>434.0</ele><time>2026-04-11T15:51:59.364Z</time></trkpt><trkpt lat="42.8463561" lon="12.5121849"><ele>434.0</ele><time>2026-04-11T15:52:00.37Z</time></trkpt><trkpt lat="42.8462722" lon="12.5120181"><ele>434.0</ele><time>2026-04-11T15:52:01.362Z</time></trkpt><trkpt lat="42.8461779" lon="12.5118547"><ele>433.66666666666663</ele><time>2026-04-11T15:52:02.368Z</time></trkpt><trkpt lat="42.8460825" lon="12.5116862"><ele>433.33333333333337</ele><time>2026-04-11T15:52:03.367Z</time></trkpt><trkpt lat="42.8459789" lon="12.5115163"><ele>433.0</ele><time>2026-04-11T15:52:04.375Z</time></trkpt><trkpt lat="42.845872" lon="12.5113494"><ele>434.33333333333337</ele><time>2026-04-11T15:52:05.357Z</time></trkpt><trkpt lat="42.845754" lon="12.5111772"><ele>435.66666666666663</ele><time>2026-04-11T15:52:06.363Z</time></trkpt><trkpt lat="42.8456362" lon="12.5110174"><ele>437.0</ele><time>2026-04-11T15:52:07.368Z</time></trkpt><trkpt lat="42.8455106" lon="12.510864"><ele>437.0</ele><time>2026-04-11T15:52:08.362Z</time></trkpt><trkpt lat="42.8453825" lon="12.5107183"><ele>437.0</ele><time>2026-04-11T15:52:09.353Z</time></trkpt><trkpt lat="42.8452521" lon="12.5105655"><ele>437.0</ele><time>2026-04-11T15:52:10.363Z</time></trkpt><trkpt lat="42.8451207" lon="12.5104129"><ele>438.3333333333333</ele><time>2026-04-11T15:52:11.356Z</time></trkpt><trkpt lat="42.844981" lon="12.510263"><ele>439.66666666666663</ele><time>2026-04-11T15:52:12.333Z</time></trkpt><trkpt lat="42.8448379" lon="12.5101165"><ele>441.0</ele><time>2026-04-11T15:52:13.365Z</time></trkpt><trkpt lat="42.8446951" lon="12.5099679"><ele>441.0</ele><time>2026-04-11T15:52:14.36Z</time></trkpt><trkpt lat="42.8445518" lon="12.5098205"><ele>441.0</ele><time>2026-04-11T15:52:15.344Z</time></trkpt><trkpt lat="42.8444071" lon="12.5096797"><ele>441.0</ele><time>2026-04-11T15:52:16.365Z</time></trkpt><trkpt lat="42.8442607" lon="12.5095441"><ele>441.33333333333337</ele><time>2026-04-11T15:52:17.364Z</time></trkpt><trkpt lat="42.8441088" lon="12.5094126"><ele>441.6666666666667</ele><time>2026-04-11T15:52:18.359Z</time></trkpt><trkpt lat="42.8439501" lon="12.5092857"><ele>442.0</ele><time>2026-04-11T15:52:19.366Z</time></trkpt><trkpt lat="42.8437868" lon="12.5091687"><ele>442.0</ele><time>2026-04-11T15:52:20.363Z</time></trkpt><trkpt lat="42.8436208" lon="12.5090586"><ele>442.0</ele><time>2026-04-11T15:52:21.355Z</time></trkpt><trkpt lat="42.8434461" lon="12.5089682"><ele>442.0</ele><time>2026-04-11T15:52:22.361Z</time></trkpt><trkpt lat="42.8432687" lon="12.5088878"><ele>442.6666666666667</ele><time>2026-04-11T15:52:23.363Z</time></trkpt><trkpt lat="42.8430877" lon="12.5088229"><ele>443.33333333333337</ele><time>2026-04-11T15:52:24.358Z</time></trkpt><trkpt lat="42.8429055" lon="12.5087805"><ele>444.0</ele><time>2026-04-11T15:52:25.353Z</time></trkpt><trkpt lat="42.8427228" lon="12.5087488"><ele>450.0</ele><time>2026-04-11T15:52:26.362Z</time></trkpt><trkpt lat="42.8425374" lon="12.5087378"><ele>456.0</ele><time>2026-04-11T15:52:27.368Z</time></trkpt><trkpt lat="42.8423466" lon="12.5087277"><ele>462.0</ele><time>2026-04-11T15:52:28.363Z</time></trkpt><trkpt lat="42.8421541" lon="12.5087195"><ele>462.0</ele><time>2026-04-11T15:52:29.364Z</time></trkpt><trkpt lat="42.8419644" lon="12.5087099"><ele>462.0</ele><time>2026-04-11T15:52:30.362Z</time></trkpt><trkpt lat="42.8417712" lon="12.5087155"><ele>462.0</ele><time>2026-04-11T15:52:31.347Z</time></trkpt><trkpt lat="42.8415831" lon="12.5087189"><ele>465.66666666666663</ele><time>2026-04-11T15:52:32.372Z</time></trkpt><trkpt lat="42.8413942" lon="12.5087209"><ele>469.3333333333333</ele><time>2026-04-11T15:52:33.361Z</time></trkpt><trkpt lat="42.8412053" lon="12.5087221"><ele>473.0</ele><time>2026-04-11T15:52:34.349Z</time></trkpt><trkpt lat="42.8410189" lon="12.5087247"><ele>476.66666666666663</ele><time>2026-04-11T15:52:35.362Z</time></trkpt><trkpt lat="42.8408312" lon="12.5087303"><ele>480.33333333333337</ele><time>2026-04-11T15:52:36.357Z</time></trkpt><trkpt lat="42.840643" lon="12.5087383"><ele>484.0</ele><time>2026-04-11T15:52:37.352Z</time></trkpt><trkpt lat="42.8404524" lon="12.508748"><ele>478.0</ele><time>2026-04-11T15:52:38.35Z</time></trkpt><trkpt lat="42.8402561" lon="12.5087581"><ele>472.0</ele><time>2026-04-11T15:52:39.358Z</time></trkpt><trkpt lat="42.8400553" lon="12.5087704"><ele>466.0</ele><time>2026-04-11T15:52:40.36Z</time></trkpt><trkpt lat="42.839855" lon="12.5087816"><ele>466.0</ele><time>2026-04-11T15:52:41.358Z</time></trkpt><trkpt lat="42.8396505" lon="12.5087809"><ele>466.0</ele><time>2026-04-11T15:52:42.365Z</time></trkpt><trkpt lat="42.8394513" lon="12.5087666"><ele>466.0</ele><time>2026-04-11T15:52:43.359Z</time></trkpt><trkpt lat="42.839248" lon="12.5087427"><ele>474.0</ele><time>2026-04-11T15:52:44.347Z</time></trkpt><trkpt lat="42.8390451" lon="12.5087004"><ele>482.0</ele><time>2026-04-11T15:52:45.366Z</time></trkpt><trkpt lat="42.8388407" lon="12.508645"><ele>490.0</ele><time>2026-04-11T15:52:46.353Z</time></trkpt><trkpt lat="42.8386417" lon="12.5085734"><ele>490.0</ele><time>2026-04-11T15:52:47.354Z</time></trkpt><trkpt lat="42.8384488" lon="12.5084796"><ele>490.0</ele><time>2026-04-11T15:52:48.341Z</time></trkpt><trkpt lat="42.8382651" lon="12.5083638"><ele>490.0</ele><time>2026-04-11T15:52:49.352Z</time></trkpt><trkpt lat="42.8380898" lon="12.5082315"><ele>490.0</ele><time>2026-04-11T15:52:50.348Z</time></trkpt><trkpt lat="42.83792" lon="12.5080724"><ele>490.0</ele><time>2026-04-11T15:52:51.363Z</time></trkpt><trkpt lat="42.8377598" lon="12.5079042"><ele>490.0</ele><time>2026-04-11T15:52:52.349Z</time></trkpt><trkpt lat="42.8376064" lon="12.507727"><ele>489.6666666666667</ele><time>2026-04-11T15:52:53.37Z</time></trkpt><trkpt lat="42.837459" lon="12.5075421"><ele>489.33333333333337</ele><time>2026-04-11T15:52:54.345Z</time></trkpt><trkpt lat="42.8373117" lon="12.5073489"><ele>489.0</ele><time>2026-04-11T15:52:55.367Z</time></trkpt><trkpt lat="42.8371684" lon="12.5071469"><ele>486.33333333333337</ele><time>2026-04-11T15:52:56.358Z</time></trkpt><trkpt lat="42.8370239" lon="12.5069422"><ele>483.6666666666667</ele><time>2026-04-11T15:52:57.369Z</time></trkpt><trkpt lat="42.8368755" lon="12.5067411"><ele>481.0</ele><time>2026-04-11T15:52:58.345Z</time></trkpt><trkpt lat="42.8367257" lon="12.5065319"><ele>481.0</ele><time>2026-04-11T15:52:59.342Z</time></trkpt><trkpt lat="42.8365724" lon="12.5063338"><ele>481.0</ele><time>2026-04-11T15:53:00.346Z</time></trkpt><trkpt lat="42.8364229" lon="12.5061262"><ele>481.0</ele><time>2026-04-11T15:53:01.366Z</time></trkpt><trkpt lat="42.8362737" lon="12.5059162"><ele>475.6666666666667</ele><time>2026-04-11T15:53:02.353Z</time></trkpt><trkpt lat="42.836122" lon="12.50571"><ele>470.33333333333337</ele><time>2026-04-11T15:53:03.343Z</time></trkpt><trkpt lat="42.8359705" lon="12.5055028"><ele>465.0</ele><time>2026-04-11T15:53:04.348Z</time></trkpt><trkpt lat="42.8358199" lon="12.5052923"><ele>465.0</ele><time>2026-04-11T15:53:05.363Z</time></trkpt><trkpt lat="42.8356724" lon="12.5050815"><ele>465.0</ele><time>2026-04-11T15:53:06.368Z</time></trkpt><trkpt lat="42.8355159" lon="12.5048744"><ele>465.0</ele><time>2026-04-11T15:53:07.374Z</time></trkpt><trkpt lat="42.835361" lon="12.5046653"><ele>464.0</ele><time>2026-04-11T15:53:08.354Z</time></trkpt><trkpt lat="42.8352056" lon="12.5044485"><ele>463.0</ele><time>2026-04-11T15:53:09.351Z</time></trkpt><trkpt lat="42.8350468" lon="12.5042328"><ele>462.0</ele><time>2026-04-11T15:53:10.368Z</time></trkpt><trkpt lat="42.8348872" lon="12.5040127"><ele>468.5</ele><time>2026-04-11T15:53:11.359Z</time></trkpt><trkpt lat="42.8347279" lon="12.5037877"><ele>475.0</ele><time>2026-04-11T15:53:12.375Z</time></trkpt><trkpt lat="42.8345602" lon="12.5035575"><ele>479.5</ele><time>2026-04-11T15:53:13.372Z</time></trkpt><trkpt lat="42.8343948" lon="12.5033228"><ele>484.0</ele><time>2026-04-11T15:53:14.351Z</time></trkpt><trkpt lat="42.834232" lon="12.5030962"><ele>489.0</ele><time>2026-04-11T15:53:15.352Z</time></trkpt><trkpt lat="42.8340736" lon="12.5028764"><ele>494.0</ele><time>2026-04-11T15:53:16.351Z</time></trkpt><trkpt lat="42.8339179" lon="12.5026612"><ele>499.0</ele><time>2026-04-11T15:53:17.357Z</time></trkpt><trkpt lat="42.8337603" lon="12.5024456"><ele>499.0</ele><time>2026-04-11T15:53:18.358Z</time></trkpt><trkpt lat="42.8336078" lon="12.5022414"><ele>499.0</ele><time>2026-04-11T15:53:19.354Z</time></trkpt><trkpt lat="42.8334585" lon="12.5020365"><ele>499.0</ele><time>2026-04-11T15:53:20.36Z</time></trkpt><trkpt lat="42.8333085" lon="12.501822"><ele>498.33333333333337</ele><time>2026-04-11T15:53:21.361Z</time></trkpt><trkpt lat="42.8331549" lon="12.5016069"><ele>497.66666666666663</ele><time>2026-04-11T15:53:22.356Z</time></trkpt><trkpt lat="42.8330089" lon="12.5013902"><ele>497.0</ele><time>2026-04-11T15:53:23.361Z</time></trkpt><trkpt lat="42.8328584" lon="12.5011753"><ele>497.0</ele><time>2026-04-11T15:53:24.35Z</time></trkpt><trkpt lat="42.8327056" lon="12.5009633"><ele>497.0</ele><time>2026-04-11T15:53:25.368Z</time></trkpt><trkpt lat="42.8325504" lon="12.5007461"><ele>497.0</ele><time>2026-04-11T15:53:26.352Z</time></trkpt><trkpt lat="42.8324036" lon="12.50054"><ele>493.3333333333333</ele><time>2026-04-11T15:53:27.358Z</time></trkpt><trkpt lat="42.8322585" lon="12.5003435"><ele>489.66666666666663</ele><time>2026-04-11T15:53:28.344Z</time></trkpt><trkpt lat="42.8321114" lon="12.5001487"><ele>486.0</ele><time>2026-04-11T15:53:29.362Z</time></trkpt><trkpt lat="42.831966" lon="12.4999482"><ele>486.0</ele><time>2026-04-11T15:53:30.356Z</time></trkpt><trkpt lat="42.8318186" lon="12.4997442"><ele>486.0</ele><time>2026-04-11T15:53:31.365Z</time></trkpt><trkpt lat="42.8316641" lon="12.4995406"><ele>486.0</ele><time>2026-04-11T15:53:32.351Z</time></trkpt><trkpt lat="42.8315023" lon="12.4993385"><ele>482.0</ele><time>2026-04-11T15:53:33.364Z</time></trkpt><trkpt lat="42.8313389" lon="12.49913"><ele>478.0</ele><time>2026-04-11T15:53:34.364Z</time></trkpt><trkpt lat="42.8311713" lon="12.4989186"><ele>477.5</ele><time>2026-04-11T15:53:35.357Z</time></trkpt><trkpt lat="42.8310044" lon="12.4987058"><ele>477.0</ele><time>2026-04-11T15:53:36.358Z</time></trkpt><trkpt lat="42.8308375" lon="12.4984903"><ele>475.5</ele><time>2026-04-11T15:53:37.364Z</time></trkpt><trkpt lat="42.83067" lon="12.4982822"><ele>474.0</ele><time>2026-04-11T15:53:38.365Z</time></trkpt><trkpt lat="42.8305048" lon="12.4980772"><ele>473.66666666666663</ele><time>2026-04-11T15:53:39.36Z</time></trkpt><trkpt lat="42.8303401" lon="12.4978717"><ele>473.3333333333333</ele><time>2026-04-11T15:53:40.353Z</time></trkpt><trkpt lat="42.8301765" lon="12.4976715"><ele>473.0</ele><time>2026-04-11T15:53:41.374Z</time></trkpt><trkpt lat="42.8300097" lon="12.4974716"><ele>473.0</ele><time>2026-04-11T15:53:42.341Z</time></trkpt><trkpt lat="42.8298414" lon="12.4972628"><ele>473.0</ele><time>2026-04-11T15:53:43.347Z</time></trkpt><trkpt lat="42.8296733" lon="12.4970574"><ele>474.66666666666663</ele><time>2026-04-11T15:53:44.345Z</time></trkpt><trkpt lat="42.8295061" lon="12.4968528"><ele>476.33333333333337</ele><time>2026-04-11T15:53:45.35Z</time></trkpt><trkpt lat="42.8293475" lon="12.4966571"><ele>478.0</ele><time>2026-04-11T15:53:46.35Z</time></trkpt><trkpt lat="42.8291886" lon="12.4964639"><ele>477.33333333333337</ele><time>2026-04-11T15:53:47.374Z</time></trkpt><trkpt lat="42.8290294" lon="12.4962616"><ele>476.66666666666663</ele><time>2026-04-11T15:53:48.339Z</time></trkpt><trkpt lat="42.8288693" lon="12.4960559"><ele>476.0</ele><time>2026-04-11T15:53:49.348Z</time></trkpt><trkpt lat="42.8287089" lon="12.4958526"><ele>476.0</ele><time>2026-04-11T15:53:50.348Z</time></trkpt><trkpt lat="42.828541" lon="12.4956509"><ele>476.0</ele><time>2026-04-11T15:53:51.358Z</time></trkpt><trkpt lat="42.8283721" lon="12.4954479"><ele>476.0</ele><time>2026-04-11T15:53:52.36Z</time></trkpt><trkpt lat="42.8282028" lon="12.4952447"><ele>470.66666666666663</ele><time>2026-04-11T15:53:53.349Z</time></trkpt><trkpt lat="42.8280357" lon="12.4950423"><ele>465.33333333333337</ele><time>2026-04-11T15:53:54.346Z</time></trkpt><trkpt lat="42.8278673" lon="12.4948436"><ele>460.0</ele><time>2026-04-11T15:53:55.361Z</time></trkpt><trkpt lat="42.8277023" lon="12.4946391"><ele>449.5</ele><time>2026-04-11T15:53:56.359Z</time></trkpt><trkpt lat="42.827537" lon="12.4944315"><ele>439.0</ele><time>2026-04-11T15:53:57.351Z</time></trkpt><trkpt lat="42.8273679" lon="12.4942284"><ele>439.0</ele><time>2026-04-11T15:53:58.367Z</time></trkpt><trkpt lat="42.8271995" lon="12.4940172"><ele>439.0</ele><time>2026-04-11T15:53:59.361Z</time></trkpt><trkpt lat="42.8270256" lon="12.4938021"><ele>437.0</ele><time>2026-04-11T15:54:00.356Z</time></trkpt><trkpt lat="42.826847" lon="12.4935894"><ele>435.0</ele><time>2026-04-11T15:54:01.372Z</time></trkpt><trkpt lat="42.8266687" lon="12.49337"><ele>435.0</ele><time>2026-04-11T15:54:02.341Z</time></trkpt><trkpt lat="42.8264883" lon="12.4931553"><ele>435.0</ele><time>2026-04-11T15:54:03.37Z</time></trkpt><trkpt lat="42.8263123" lon="12.492942"><ele>434.5</ele><time>2026-04-11T15:54:04.373Z</time></trkpt><trkpt lat="42.8261395" lon="12.4927343"><ele>434.0</ele><time>2026-04-11T15:54:05.374Z</time></trkpt><trkpt lat="42.8259715" lon="12.4925314"><ele>434.0</ele><time>2026-04-11T15:54:06.353Z</time></trkpt><trkpt lat="42.825813" lon="12.4923387"><ele>434.0</ele><time>2026-04-11T15:54:07.365Z</time></trkpt><trkpt lat="42.8256562" lon="12.4921468"><ele>434.0</ele><time>2026-04-11T15:54:08.359Z</time></trkpt><trkpt lat="42.8254933" lon="12.4919522"><ele>432.0</ele><time>2026-04-11T15:54:09.364Z</time></trkpt><trkpt lat="42.8253365" lon="12.4917463"><ele>430.0</ele><time>2026-04-11T15:54:10.371Z</time></trkpt><trkpt lat="42.8251941" lon="12.4915127"><ele>428.0</ele><time>2026-04-11T15:54:11.359Z</time></trkpt><trkpt lat="42.8250732" lon="12.4912709"><ele>427.66666666666663</ele><time>2026-04-11T15:54:12.335Z</time></trkpt><trkpt lat="42.8249702" lon="12.491027"><ele>427.33333333333337</ele><time>2026-04-11T15:54:13.362Z</time></trkpt><trkpt lat="42.8248521" lon="12.4907987"><ele>427.0</ele><time>2026-04-11T15:54:14.355Z</time></trkpt><trkpt lat="42.824714" lon="12.4905854"><ele>425.6666666666667</ele><time>2026-04-11T15:54:15.36Z</time></trkpt><trkpt lat="42.8245666" lon="12.4903705"><ele>424.33333333333337</ele><time>2026-04-11T15:54:16.36Z</time></trkpt><trkpt lat="42.8244239" lon="12.4901414"><ele>423.0</ele><time>2026-04-11T15:54:17.372Z</time></trkpt><trkpt lat="42.8242933" lon="12.4899052"><ele>423.0</ele><time>2026-04-11T15:54:18.359Z</time></trkpt><trkpt lat="42.8241711" lon="12.489658"><ele>423.0</ele><time>2026-04-11T15:54:19.363Z</time></trkpt><trkpt lat="42.8240599" lon="12.4894133"><ele>423.0</ele><time>2026-04-11T15:54:20.356Z</time></trkpt><trkpt lat="42.8239551" lon="12.4891765"><ele>422.33333333333337</ele><time>2026-04-11T15:54:21.357Z</time></trkpt><trkpt lat="42.8238499" lon="12.4889687"><ele>421.6666666666667</ele><time>2026-04-11T15:54:22.352Z</time></trkpt><trkpt lat="42.82373" lon="12.4887813"><ele>421.0</ele><time>2026-04-11T15:54:23.36Z</time></trkpt><trkpt lat="42.8235935" lon="12.4886168"><ele>421.33333333333337</ele><time>2026-04-11T15:54:24.367Z</time></trkpt><trkpt lat="42.8234515" lon="12.4884974"><ele>421.66666666666663</ele><time>2026-04-11T15:54:25.379Z</time></trkpt><trkpt lat="42.8233219" lon="12.4883835"><ele>422.0</ele><time>2026-04-11T15:54:26.363Z</time></trkpt><trkpt lat="42.8232128" lon="12.4882608"><ele>422.0</ele><time>2026-04-11T15:54:27.362Z</time></trkpt><trkpt lat="42.8231245" lon="12.488111"><ele>422.0</ele><time>2026-04-11T15:54:28.362Z</time></trkpt><trkpt lat="42.8230483" lon="12.4879244"><ele>422.0</ele><time>2026-04-11T15:54:29.351Z</time></trkpt><trkpt lat="42.8229847" lon="12.487709"><ele>424.0</ele><time>2026-04-11T15:54:30.357Z</time></trkpt><trkpt lat="42.8229378" lon="12.4874789"><ele>426.0</ele><time>2026-04-11T15:54:31.356Z</time></trkpt><trkpt lat="42.8229028" lon="12.4872373"><ele>428.0</ele><time>2026-04-11T15:54:32.359Z</time></trkpt><trkpt lat="42.8228784" lon="12.4870016"><ele>428.0</ele><time>2026-04-11T15:54:33.348Z</time></trkpt><trkpt lat="42.8228585" lon="12.4867714"><ele>428.0</ele><time>2026-04-11T15:54:34.354Z</time></trkpt><trkpt lat="42.8228595" lon="12.4865681"><ele>428.0</ele><time>2026-04-11T15:54:35.356Z</time></trkpt><trkpt lat="42.8228989" lon="12.4863914"><ele>425.75</ele><time>2026-04-11T15:54:36.337Z</time></trkpt><trkpt lat="42.8229611" lon="12.4862315"><ele>423.5</ele><time>2026-04-11T15:54:37.367Z</time></trkpt><trkpt lat="42.8230576" lon="12.4861045"><ele>421.25</ele><time>2026-04-11T15:54:38.352Z</time></trkpt><trkpt lat="42.8231725" lon="12.4859908"><ele>419.0</ele><time>2026-04-11T15:54:39.342Z</time></trkpt><trkpt lat="42.8233033" lon="12.4859112"><ele>419.0</ele><time>2026-04-11T15:54:40.343Z</time></trkpt><trkpt lat="42.8234489" lon="12.4858335"><ele>419.0</ele><time>2026-04-11T15:54:41.352Z</time></trkpt><trkpt lat="42.8235981" lon="12.485753"><ele>419.0</ele><time>2026-04-11T15:54:42.345Z</time></trkpt><trkpt lat="42.8237402" lon="12.4856897"><ele>418.0</ele><time>2026-04-11T15:54:43.352Z</time></trkpt><trkpt lat="42.8238794" lon="12.4856225"><ele>417.0</ele><time>2026-04-11T15:54:44.356Z</time></trkpt><trkpt lat="42.8240207" lon="12.4855971"><ele>416.0</ele><time>2026-04-11T15:54:45.361Z</time></trkpt><trkpt lat="42.8241498" lon="12.4856105"><ele>415.0</ele><time>2026-04-11T15:54:46.345Z</time></trkpt><trkpt lat="42.8242738" lon="12.4856311"><ele>414.2</ele><time>2026-04-11T15:54:47.35Z</time></trkpt><trkpt lat="42.8243785" lon="12.4856258"><ele>413.4</ele><time>2026-04-11T15:54:48.353Z</time></trkpt><trkpt lat="42.824456" lon="12.485538"><ele>412.6</ele><time>2026-04-11T15:54:49.358Z</time></trkpt><trkpt lat="42.8244816" lon="12.485424"><ele>411.8</ele><time>2026-04-11T15:54:50.352Z</time></trkpt><trkpt lat="42.824462" lon="12.4852924"><ele>411.0</ele><time>2026-04-11T15:54:51.347Z</time></trkpt><trkpt lat="42.824409" lon="12.4851571"><ele>409.75</ele><time>2026-04-11T15:54:52.356Z</time></trkpt><trkpt lat="42.8243524" lon="12.4850093"><ele>408.5</ele><time>2026-04-11T15:54:53.346Z</time></trkpt><trkpt lat="42.8242862" lon="12.4848448"><ele>407.25</ele><time>2026-04-11T15:54:54.362Z</time></trkpt><trkpt lat="42.8242118" lon="12.4846638"><ele>406.0</ele><time>2026-04-11T15:54:55.349Z</time></trkpt><trkpt lat="42.8241306" lon="12.4844652"><ele>403.5</ele><time>2026-04-11T15:54:56.35Z</time></trkpt><trkpt lat="42.8240637" lon="12.4842812"><ele>401.0</ele><time>2026-04-11T15:54:57.358Z</time></trkpt><trkpt lat="42.8239932" lon="12.4841119"><ele>398.5</ele><time>2026-04-11T15:54:58.358Z</time></trkpt><trkpt lat="42.823912" lon="12.4839801"><ele>396.0</ele><time>2026-04-11T15:54:59.359Z</time></trkpt><trkpt lat="42.8238345" lon="12.4838762"><ele>396.0</ele><time>2026-04-11T15:55:00.355Z</time></trkpt><trkpt lat="42.8237384" lon="12.4838425"><ele>396.0</ele><time>2026-04-11T15:55:01.355Z</time></trkpt><trkpt lat="42.8236292" lon="12.4838954"><ele>396.0</ele><time>2026-04-11T15:55:02.352Z</time></trkpt><trkpt lat="42.8235279" lon="12.483986"><ele>396.0</ele><time>2026-04-11T15:55:03.361Z</time></trkpt><trkpt lat="42.8234254" lon="12.4841102"><ele>395.0</ele><time>2026-04-11T15:55:04.357Z</time></trkpt><trkpt lat="42.8233182" lon="12.4842317"><ele>394.0</ele><time>2026-04-11T15:55:05.374Z</time></trkpt><trkpt lat="42.8232311" lon="12.4843193"><ele>393.0</ele><time>2026-04-11T15:55:06.347Z</time></trkpt><trkpt lat="42.8231281" lon="12.4843588"><ele>392.0</ele><time>2026-04-11T15:55:07.356Z</time></trkpt><trkpt lat="42.8230221" lon="12.4843385"><ele>392.0</ele><time>2026-04-11T15:55:08.358Z</time></trkpt><trkpt lat="42.8229563" lon="12.4842693"><ele>392.0</ele><time>2026-04-11T15:55:09.358Z</time></trkpt><trkpt lat="42.8229252" lon="12.4841251"><ele>392.0</ele><time>2026-04-11T15:55:10.347Z</time></trkpt><trkpt lat="42.8229229" lon="12.4839514"><ele>392.0</ele><time>2026-04-11T15:55:11.351Z</time></trkpt><trkpt lat="42.8229486" lon="12.4837762"><ele>387.3333333333333</ele><time>2026-04-11T15:55:12.343Z</time></trkpt><trkpt lat="42.8228938" lon="12.4835677"><ele>382.66666666666663</ele><time>2026-04-11T15:55:13.355Z</time></trkpt><trkpt lat="42.8227816" lon="12.4833576"><ele>378.0</ele><time>2026-04-11T15:55:14.351Z</time></trkpt><trkpt lat="42.8226775" lon="12.4831373"><ele>374.3333333333333</ele><time>2026-04-11T15:55:15.36Z</time></trkpt><trkpt lat="42.8226022" lon="12.4828953"><ele>370.66666666666663</ele><time>2026-04-11T15:55:16.344Z</time></trkpt><trkpt lat="42.8225759" lon="12.4826468"><ele>367.0</ele><time>2026-04-11T15:55:17.367Z</time></trkpt><trkpt lat="42.8225471" lon="12.4823882"><ele>367.0</ele><time>2026-04-11T15:55:18.36Z</time></trkpt><trkpt lat="42.8225023" lon="12.4821616"><ele>367.0</ele><time>2026-04-11T15:55:19.367Z</time></trkpt><trkpt lat="42.8224316" lon="12.4819413"><ele>367.0</ele><time>2026-04-11T15:55:20.36Z</time></trkpt><trkpt lat="42.8223347" lon="12.4817221"><ele>366.3333333333333</ele><time>2026-04-11T15:55:21.361Z</time></trkpt><trkpt lat="42.8222261" lon="12.4814985"><ele>365.6666666666667</ele><time>2026-04-11T15:55:22.343Z</time></trkpt><trkpt lat="42.8221218" lon="12.4812752"><ele>365.0</ele><time>2026-04-11T15:55:23.366Z</time></trkpt><trkpt lat="42.8220174" lon="12.4810606"><ele>364.33333333333337</ele><time>2026-04-11T15:55:24.357Z</time></trkpt><trkpt lat="42.8219089" lon="12.4808547"><ele>363.6666666666667</ele><time>2026-04-11T15:55:25.369Z</time></trkpt><trkpt lat="42.8218074" lon="12.4806526"><ele>363.0</ele><time>2026-04-11T15:55:26.349Z</time></trkpt><trkpt lat="42.8217086" lon="12.4804537"><ele>364.3333333333333</ele><time>2026-04-11T15:55:27.352Z</time></trkpt><trkpt lat="42.8216231" lon="12.4802557"><ele>365.66666666666663</ele><time>2026-04-11T15:55:28.355Z</time></trkpt><trkpt lat="42.8215553" lon="12.4800632"><ele>367.0</ele><time>2026-04-11T15:55:29.36Z</time></trkpt><trkpt lat="42.8215072" lon="12.4798701"><ele>367.0</ele><time>2026-04-11T15:55:30.365Z</time></trkpt><trkpt lat="42.8214943" lon="12.4796646"><ele>367.0</ele><time>2026-04-11T15:55:31.374Z</time></trkpt><trkpt lat="42.8215131" lon="12.479472"><ele>367.0</ele><time>2026-04-11T15:55:32.352Z</time></trkpt><trkpt lat="42.821566" lon="12.4792768"><ele>367.0</ele><time>2026-04-11T15:55:33.374Z</time></trkpt><trkpt lat="42.8216325" lon="12.4790888"><ele>366.75</ele><time>2026-04-11T15:55:34.358Z</time></trkpt><trkpt lat="42.821689" lon="12.4789082"><ele>366.5</ele><time>2026-04-11T15:55:35.353Z</time></trkpt><trkpt lat="42.8217135" lon="12.4787215"><ele>366.25</ele><time>2026-04-11T15:55:36.359Z</time></trkpt><trkpt lat="42.8217077" lon="12.4785203"><ele>366.0</ele><time>2026-04-11T15:55:37.368Z</time></trkpt><trkpt lat="42.8216724" lon="12.4783219"><ele>363.3333333333333</ele><time>2026-04-11T15:55:38.354Z</time></trkpt><trkpt lat="42.8216009" lon="12.4781261"><ele>360.66666666666663</ele><time>2026-04-11T15:55:39.353Z</time></trkpt><trkpt lat="42.8215155" lon="12.4779246"><ele>358.0</ele><time>2026-04-11T15:55:40.362Z</time></trkpt><trkpt lat="42.821431" lon="12.4777175"><ele>356.0</ele><time>2026-04-11T15:55:41.364Z</time></trkpt><trkpt lat="42.8213579" lon="12.4774984"><ele>354.0</ele><time>2026-04-11T15:55:42.361Z</time></trkpt><trkpt lat="42.8213039" lon="12.4772769"><ele>352.0</ele><time>2026-04-11T15:55:43.364Z</time></trkpt><trkpt lat="42.8212737" lon="12.4770452"><ele>350.3333333333333</ele><time>2026-04-11T15:55:44.366Z</time></trkpt><trkpt lat="42.8212547" lon="12.4768258"><ele>348.6666666666667</ele><time>2026-04-11T15:55:45.364Z</time></trkpt><trkpt lat="42.8212374" lon="12.4766225"><ele>347.0</ele><time>2026-04-11T15:55:46.347Z</time></trkpt><trkpt lat="42.8211922" lon="12.4764101"><ele>347.0</ele><time>2026-04-11T15:55:47.362Z</time></trkpt><trkpt lat="42.8211198" lon="12.4762208"><ele>347.0</ele><time>2026-04-11T15:55:48.365Z</time></trkpt><trkpt lat="42.8210079" lon="12.4760657"><ele>347.0</ele><time>2026-04-11T15:55:49.369Z</time></trkpt><trkpt lat="42.820879" lon="12.4759374"><ele>350.0</ele><time>2026-04-11T15:55:50.366Z</time></trkpt><trkpt lat="42.8207527" lon="12.4758154"><ele>353.0</ele><time>2026-04-11T15:55:51.366Z</time></trkpt><trkpt lat="42.8206377" lon="12.4756796"><ele>356.0</ele><time>2026-04-11T15:55:52.379Z</time></trkpt><trkpt lat="42.8205385" lon="12.4755152"><ele>359.0</ele><time>2026-04-11T15:55:53.362Z</time></trkpt><trkpt lat="42.8204507" lon="12.4753443"><ele>362.0</ele><time>2026-04-11T15:55:54.36Z</time></trkpt><trkpt lat="42.820365" lon="12.475156"><ele>365.0</ele><time>2026-04-11T15:55:55.363Z</time></trkpt><trkpt lat="42.8202855" lon="12.4749646"><ele>365.0</ele><time>2026-04-11T15:55:56.359Z</time></trkpt><trkpt lat="42.8202104" lon="12.4747665"><ele>365.0</ele><time>2026-04-11T15:55:57.374Z</time></trkpt><trkpt lat="42.8201359" lon="12.4745696"><ele>365.0</ele><time>2026-04-11T15:55:58.352Z</time></trkpt><trkpt lat="42.8200721" lon="12.4743901"><ele>364.75</ele><time>2026-04-11T15:55:59.359Z</time></trkpt><trkpt lat="42.8200133" lon="12.4742115"><ele>364.5</ele><time>2026-04-11T15:56:00.357Z</time></trkpt><trkpt lat="42.8199779" lon="12.4740302"><ele>364.25</ele><time>2026-04-11T15:56:01.365Z</time></trkpt><trkpt lat="42.8199568" lon="12.4738354"><ele>364.0</ele><time>2026-04-11T15:56:02.38Z</time></trkpt><trkpt lat="42.8199668" lon="12.473615"><ele>365.0</ele><time>2026-04-11T15:56:03.352Z</time></trkpt><trkpt lat="42.8199905" lon="12.4734105"><ele>366.0</ele><time>2026-04-11T15:56:04.361Z</time></trkpt><trkpt lat="42.8200149" lon="12.4731845"><ele>367.0</ele><time>2026-04-11T15:56:05.362Z</time></trkpt><trkpt lat="42.8200127" lon="12.4729607"><ele>367.3333333333333</ele><time>2026-04-11T15:56:06.345Z</time></trkpt><trkpt lat="42.8199863" lon="12.4727414"><ele>367.6666666666667</ele><time>2026-04-11T15:56:07.343Z</time></trkpt><trkpt lat="42.8199462" lon="12.4725236"><ele>368.0</ele><time>2026-04-11T15:56:08.362Z</time></trkpt><trkpt lat="42.8199129" lon="12.4723106"><ele>368.0</ele><time>2026-04-11T15:56:09.364Z</time></trkpt><trkpt lat="42.8199008" lon="12.4721091"><ele>368.0</ele><time>2026-04-11T15:56:10.382Z</time></trkpt><trkpt lat="42.8199158" lon="12.4719115"><ele>368.0</ele><time>2026-04-11T15:56:11.357Z</time></trkpt><trkpt lat="42.8199607" lon="12.4717231"><ele>368.0</ele><time>2026-04-11T15:56:12.364Z</time></trkpt><trkpt lat="42.8200324" lon="12.4715484"><ele>368.6666666666667</ele><time>2026-04-11T15:56:13.36Z</time></trkpt><trkpt lat="42.8201193" lon="12.4713704"><ele>369.3333333333333</ele><time>2026-04-11T15:56:14.362Z</time></trkpt><trkpt lat="42.8202079" lon="12.471187"><ele>370.0</ele><time>2026-04-11T15:56:15.369Z</time></trkpt><trkpt lat="42.8202873" lon="12.4709818"><ele>370.0</ele><time>2026-04-11T15:56:16.349Z</time></trkpt><trkpt lat="42.8203504" lon="12.4707689"><ele>370.0</ele><time>2026-04-11T15:56:17.36Z</time></trkpt><trkpt lat="42.820394" lon="12.4705584"><ele>370.0</ele><time>2026-04-11T15:56:18.352Z</time></trkpt><trkpt lat="42.8204219" lon="12.4703551"><ele>367.0</ele><time>2026-04-11T15:56:19.351Z</time></trkpt><trkpt lat="42.8204374" lon="12.4701483"><ele>364.0</ele><time>2026-04-11T15:56:20.358Z</time></trkpt><trkpt lat="42.8204363" lon="12.4699373"><ele>361.0</ele><time>2026-04-11T15:56:21.356Z</time></trkpt><trkpt lat="42.8204063" lon="12.4697311"><ele>359.0</ele><time>2026-04-11T15:56:22.354Z</time></trkpt><trkpt lat="42.8203519" lon="12.4695306"><ele>357.0</ele><time>2026-04-11T15:56:23.358Z</time></trkpt><trkpt lat="42.8202785" lon="12.4693304"><ele>355.0</ele><time>2026-04-11T15:56:24.361Z</time></trkpt><trkpt lat="42.8201972" lon="12.4691243"><ele>356.0</ele><time>2026-04-11T15:56:25.374Z</time></trkpt><trkpt lat="42.8201122" lon="12.4689086"><ele>357.0</ele><time>2026-04-11T15:56:26.375Z</time></trkpt><trkpt lat="42.8200264" lon="12.4686915"><ele>358.0</ele><time>2026-04-11T15:56:27.358Z</time></trkpt><trkpt lat="42.8199363" lon="12.4684722"><ele>358.66666666666663</ele><time>2026-04-11T15:56:28.376Z</time></trkpt><trkpt lat="42.8198423" lon="12.4682575"><ele>359.3333333333333</ele><time>2026-04-11T15:56:29.37Z</time></trkpt><trkpt lat="42.8197462" lon="12.4680447"><ele>360.0</ele><time>2026-04-11T15:56:30.377Z</time></trkpt><trkpt lat="42.8196472" lon="12.4678376"><ele>360.6666666666667</ele><time>2026-04-11T15:56:31.375Z</time></trkpt><trkpt lat="42.8195387" lon="12.4676361"><ele>361.33333333333337</ele><time>2026-04-11T15:56:32.353Z</time></trkpt><trkpt lat="42.8194381" lon="12.4674464"><ele>362.0</ele><time>2026-04-11T15:56:33.359Z</time></trkpt><trkpt lat="42.8193333" lon="12.4672561"><ele>362.0</ele><time>2026-04-11T15:56:34.374Z</time></trkpt><trkpt lat="42.8192311" lon="12.4670582"><ele>362.0</ele><time>2026-04-11T15:56:35.37Z</time></trkpt><trkpt lat="42.8191283" lon="12.4668565"><ele>362.0</ele><time>2026-04-11T15:56:36.36Z</time></trkpt><trkpt lat="42.8190298" lon="12.4666458"><ele>362.0</ele><time>2026-04-11T15:56:37.364Z</time></trkpt><trkpt lat="42.818935" lon="12.4664372"><ele>362.0</ele><time>2026-04-11T15:56:38.368Z</time></trkpt><trkpt lat="42.8188416" lon="12.4662384"><ele>362.0</ele><time>2026-04-11T15:56:39.373Z</time></trkpt><trkpt lat="42.8187522" lon="12.4660313"><ele>362.0</ele><time>2026-04-11T15:56:40.365Z</time></trkpt><trkpt lat="42.81867" lon="12.4658142"><ele>362.0</ele><time>2026-04-11T15:56:41.359Z</time></trkpt><trkpt lat="42.818601" lon="12.4655791"><ele>362.0</ele><time>2026-04-11T15:56:42.354Z</time></trkpt><trkpt lat="42.8185507" lon="12.4653357"><ele>359.33333333333337</ele><time>2026-04-11T15:56:43.368Z</time></trkpt><trkpt lat="42.8185216" lon="12.4650802"><ele>356.6666666666667</ele><time>2026-04-11T15:56:44.361Z</time></trkpt><trkpt lat="42.8185038" lon="12.4648109"><ele>354.0</ele><time>2026-04-11T15:56:45.376Z</time></trkpt><trkpt lat="42.8184845" lon="12.4645504"><ele>354.0</ele><time>2026-04-11T15:56:46.365Z</time></trkpt><trkpt lat="42.8184619" lon="12.464289"><ele>354.0</ele><time>2026-04-11T15:56:47.368Z</time></trkpt><trkpt lat="42.8184407" lon="12.4640285"><ele>354.0</ele><time>2026-04-11T15:56:48.362Z</time></trkpt><trkpt lat="42.8184263" lon="12.4637717"><ele>353.0</ele><time>2026-04-11T15:56:49.372Z</time></trkpt><trkpt lat="42.8184186" lon="12.4635196"><ele>352.0</ele><time>2026-04-11T15:56:50.364Z</time></trkpt><trkpt lat="42.8184189" lon="12.4632737"><ele>351.0</ele><time>2026-04-11T15:56:51.368Z</time></trkpt><trkpt lat="42.8184254" lon="12.4630237"><ele>350.0</ele><time>2026-04-11T15:56:52.361Z</time></trkpt><trkpt lat="42.8184372" lon="12.4627722"><ele>349.0</ele><time>2026-04-11T15:56:53.366Z</time></trkpt><trkpt lat="42.8184524" lon="12.462518"><ele>348.0</ele><time>2026-04-11T15:56:54.364Z</time></trkpt><trkpt lat="42.8184713" lon="12.462259"><ele>346.3333333333333</ele><time>2026-04-11T15:56:55.359Z</time></trkpt><trkpt lat="42.8184906" lon="12.4620023"><ele>344.66666666666663</ele><time>2026-04-11T15:56:56.34Z</time></trkpt><trkpt lat="42.8185047" lon="12.4617354"><ele>343.0</ele><time>2026-04-11T15:56:57.372Z</time></trkpt><trkpt lat="42.818505" lon="12.4614681"><ele>340.66666666666663</ele><time>2026-04-11T15:56:58.364Z</time></trkpt><trkpt lat="42.8184966" lon="12.4612011"><ele>338.3333333333333</ele><time>2026-04-11T15:56:59.373Z</time></trkpt><trkpt lat="42.8184837" lon="12.4609261"><ele>336.0</ele><time>2026-04-11T15:57:00.37Z</time></trkpt><trkpt lat="42.8184647" lon="12.4606555"><ele>334.6666666666667</ele><time>2026-04-11T15:57:01.375Z</time></trkpt><trkpt lat="42.8184428" lon="12.460373"><ele>333.33333333333337</ele><time>2026-04-11T15:57:02.335Z</time></trkpt><trkpt lat="42.8184193" lon="12.4600889"><ele>332.0</ele><time>2026-04-11T15:57:03.36Z</time></trkpt><trkpt lat="42.8183972" lon="12.459808"><ele>330.6666666666667</ele><time>2026-04-11T15:57:04.362Z</time></trkpt><trkpt lat="42.8183736" lon="12.4595311"><ele>329.3333333333333</ele><time>2026-04-11T15:57:05.383Z</time></trkpt><trkpt lat="42.8183482" lon="12.4592531"><ele>328.0</ele><time>2026-04-11T15:57:06.372Z</time></trkpt><trkpt lat="42.8183173" lon="12.4589821"><ele>326.3333333333333</ele><time>2026-04-11T15:57:07.357Z</time></trkpt><trkpt lat="42.8182838" lon="12.4587078"><ele>324.6666666666667</ele><time>2026-04-11T15:57:08.361Z</time></trkpt><trkpt lat="42.8182478" lon="12.4584298"><ele>323.0</ele><time>2026-04-11T15:57:09.374Z</time></trkpt><trkpt lat="42.8182161" lon="12.4581481"><ele>322.0</ele><time>2026-04-11T15:57:10.361Z</time></trkpt><trkpt lat="42.8181834" lon="12.4578683"><ele>321.0</ele><time>2026-04-11T15:57:11.36Z</time></trkpt><trkpt lat="42.8181489" lon="12.45759"><ele>320.0</ele><time>2026-04-11T15:57:12.359Z</time></trkpt><trkpt lat="42.8181185" lon="12.4573078"><ele>319.0</ele><time>2026-04-11T15:57:13.374Z</time></trkpt><trkpt lat="42.8180901" lon="12.4570225"><ele>318.0</ele><time>2026-04-11T15:57:14.37Z</time></trkpt><trkpt lat="42.8180713" lon="12.4567411"><ele>317.0</ele><time>2026-04-11T15:57:15.378Z</time></trkpt><trkpt lat="42.8180585" lon="12.4564636"><ele>319.0</ele><time>2026-04-11T15:57:16.365Z</time></trkpt><trkpt lat="42.818052" lon="12.4561919"><ele>321.0</ele><time>2026-04-11T15:57:17.359Z</time></trkpt><trkpt lat="42.818038" lon="12.4559158"><ele>323.0</ele><time>2026-04-11T15:57:18.368Z</time></trkpt><trkpt lat="42.8180161" lon="12.455643"><ele>322.6666666666667</ele><time>2026-04-11T15:57:19.36Z</time></trkpt><trkpt lat="42.8179804" lon="12.455363"><ele>322.3333333333333</ele><time>2026-04-11T15:57:20.36Z</time></trkpt><trkpt lat="42.8179361" lon="12.4550812"><ele>322.0</ele><time>2026-04-11T15:57:21.375Z</time></trkpt><trkpt lat="42.8178876" lon="12.4547955"><ele>319.3333333333333</ele><time>2026-04-11T15:57:22.354Z</time></trkpt><trkpt lat="42.8178362" lon="12.4545113"><ele>316.6666666666667</ele><time>2026-04-11T15:57:23.361Z</time></trkpt><trkpt lat="42.8177803" lon="12.4542207"><ele>314.0</ele><time>2026-04-11T15:57:24.339Z</time></trkpt><trkpt lat="42.8177272" lon="12.4539439"><ele>313.0</ele><time>2026-04-11T15:57:25.379Z</time></trkpt><trkpt lat="42.8176739" lon="12.453681"><ele>312.0</ele><time>2026-04-11T15:57:26.352Z</time></trkpt><trkpt lat="42.8176317" lon="12.4534301"><ele>311.0</ele><time>2026-04-11T15:57:27.356Z</time></trkpt><trkpt lat="42.8175891" lon="12.4531893"><ele>313.33333333333337</ele><time>2026-04-11T15:57:28.366Z</time></trkpt><trkpt lat="42.8175617" lon="12.4529615"><ele>315.6666666666667</ele><time>2026-04-11T15:57:29.37Z</time></trkpt><trkpt lat="42.817562" lon="12.4527405"><ele>318.0</ele><time>2026-04-11T15:57:30.349Z</time></trkpt><trkpt lat="42.8175951" lon="12.4525022"><ele>317.0</ele><time>2026-04-11T15:57:31.355Z</time></trkpt><trkpt lat="42.8176529" lon="12.452284"><ele>316.0</ele><time>2026-04-11T15:57:32.348Z</time></trkpt><trkpt lat="42.8177192" lon="12.4520692"><ele>315.0</ele><time>2026-04-11T15:57:33.347Z</time></trkpt><trkpt lat="42.8177903" lon="12.4518463"><ele>314.3333333333333</ele><time>2026-04-11T15:57:34.36Z</time></trkpt><trkpt lat="42.8178653" lon="12.4516135"><ele>313.66666666666663</ele><time>2026-04-11T15:57:35.356Z</time></trkpt><trkpt lat="42.8179458" lon="12.4513747"><ele>313.0</ele><time>2026-04-11T15:57:36.358Z</time></trkpt><trkpt lat="42.8180284" lon="12.4511289"><ele>312.66666666666663</ele><time>2026-04-11T15:57:37.337Z</time></trkpt><trkpt lat="42.8181114" lon="12.4508842"><ele>312.3333333333333</ele><time>2026-04-11T15:57:38.351Z</time></trkpt><trkpt lat="42.8181771" lon="12.4506246"><ele>312.0</ele><time>2026-04-11T15:57:39.349Z</time></trkpt><trkpt lat="42.8182377" lon="12.4503613"><ele>312.0</ele><time>2026-04-11T15:57:40.348Z</time></trkpt><trkpt lat="42.8182845" lon="12.450086"><ele>312.0</ele><time>2026-04-11T15:57:41.361Z</time></trkpt><trkpt lat="42.8183193" lon="12.4498098"><ele>312.0</ele><time>2026-04-11T15:57:42.363Z</time></trkpt><trkpt lat="42.8183423" lon="12.4495457"><ele>312.0</ele><time>2026-04-11T15:57:43.356Z</time></trkpt><trkpt lat="42.8183633" lon="12.4492949"><ele>312.0</ele><time>2026-04-11T15:57:44.348Z</time></trkpt><trkpt lat="42.8183791" lon="12.4490581"><ele>312.0</ele><time>2026-04-11T15:57:45.36Z</time></trkpt><trkpt lat="42.8183953" lon="12.4488189"><ele>311.0</ele><time>2026-04-11T15:57:46.358Z</time></trkpt><trkpt lat="42.818404" lon="12.4485845"><ele>310.0</ele><time>2026-04-11T15:57:47.359Z</time></trkpt><trkpt lat="42.818398" lon="12.4483532"><ele>309.0</ele><time>2026-04-11T15:57:48.373Z</time></trkpt><trkpt lat="42.8183638" lon="12.4481327"><ele>306.3333333333333</ele><time>2026-04-11T15:57:49.363Z</time></trkpt><trkpt lat="42.818291" lon="12.4479291"><ele>303.66666666666663</ele><time>2026-04-11T15:57:50.345Z</time></trkpt><trkpt lat="42.8181866" lon="12.4477238"><ele>301.0</ele><time>2026-04-11T15:57:51.36Z</time></trkpt><trkpt lat="42.8180707" lon="12.447532"><ele>301.0</ele><time>2026-04-11T15:57:52.347Z</time></trkpt><trkpt lat="42.8179503" lon="12.4473324"><ele>301.0</ele><time>2026-04-11T15:57:53.346Z</time></trkpt><trkpt lat="42.8178272" lon="12.4471199"><ele>301.0</ele><time>2026-04-11T15:57:54.363Z</time></trkpt><trkpt lat="42.8177112" lon="12.446899"><ele>302.3333333333333</ele><time>2026-04-11T15:57:55.359Z</time></trkpt><trkpt lat="42.8175963" lon="12.4466646"><ele>303.6666666666667</ele><time>2026-04-11T15:57:56.369Z</time></trkpt><trkpt lat="42.8174898" lon="12.4464137"><ele>305.0</ele><time>2026-04-11T15:57:57.359Z</time></trkpt><trkpt lat="42.8173919" lon="12.4461592"><ele>305.0</ele><time>2026-04-11T15:57:58.361Z</time></trkpt><trkpt lat="42.8172988" lon="12.4459148"><ele>305.0</ele><time>2026-04-11T15:57:59.361Z</time></trkpt><trkpt lat="42.8172024" lon="12.4456977"><ele>305.0</ele><time>2026-04-11T15:58:00.354Z</time></trkpt><trkpt lat="42.8170972" lon="12.4455107"><ele>306.33333333333337</ele><time>2026-04-11T15:58:01.354Z</time></trkpt><trkpt lat="42.8169754" lon="12.4453292"><ele>307.6666666666667</ele><time>2026-04-11T15:58:02.348Z</time></trkpt><trkpt lat="42.8168404" lon="12.445179"><ele>309.0</ele><time>2026-04-11T15:58:03.369Z</time></trkpt><trkpt lat="42.8167045" lon="12.4450308"><ele>309.0</ele><time>2026-04-11T15:58:04.345Z</time></trkpt><trkpt lat="42.8165697" lon="12.4448908"><ele>309.0</ele><time>2026-04-11T15:58:05.371Z</time></trkpt><trkpt lat="42.8164433" lon="12.4447644"><ele>309.0</ele><time>2026-04-11T15:58:06.367Z</time></trkpt><trkpt lat="42.8163196" lon="12.4446312"><ele>307.6666666666667</ele><time>2026-04-11T15:58:07.36Z</time></trkpt><trkpt lat="42.8161919" lon="12.4444991"><ele>306.33333333333337</ele><time>2026-04-11T15:58:08.362Z</time></trkpt><trkpt lat="42.8160738" lon="12.4443663"><ele>305.0</ele><time>2026-04-11T15:58:09.361Z</time></trkpt><trkpt lat="42.815967" lon="12.4442342"><ele>305.0</ele><time>2026-04-11T15:58:10.358Z</time></trkpt><trkpt lat="42.8158789" lon="12.4440958"><ele>305.0</ele><time>2026-04-11T15:58:11.362Z</time></trkpt><trkpt lat="42.8158115" lon="12.4439318"><ele>305.0</ele><time>2026-04-11T15:58:12.354Z</time></trkpt><trkpt lat="42.8157627" lon="12.4437498"><ele>305.0</ele><time>2026-04-11T15:58:13.362Z</time></trkpt><trkpt lat="42.8157399" lon="12.4435471"><ele>305.0</ele><time>2026-04-11T15:58:14.371Z</time></trkpt><trkpt lat="42.8157258" lon="12.4433338"><ele>305.0</ele><time>2026-04-11T15:58:15.367Z</time></trkpt><trkpt lat="42.81571" lon="12.4431191"><ele>305.0</ele><time>2026-04-11T15:58:16.363Z</time></trkpt><trkpt lat="42.8156897" lon="12.4429007"><ele>305.33333333333337</ele><time>2026-04-11T15:58:17.364Z</time></trkpt><trkpt lat="42.815658" lon="12.4426951"><ele>305.6666666666667</ele><time>2026-04-11T15:58:18.362Z</time></trkpt><trkpt lat="42.8156042" lon="12.4424951"><ele>306.0</ele><time>2026-04-11T15:58:19.347Z</time></trkpt><trkpt lat="42.8155298" lon="12.4423005"><ele>307.0</ele><time>2026-04-11T15:58:20.361Z</time></trkpt><trkpt lat="42.8154417" lon="12.442119"><ele>308.0</ele><time>2026-04-11T15:58:21.335Z</time></trkpt><trkpt lat="42.8153418" lon="12.4419346"><ele>309.0</ele><time>2026-04-11T15:58:22.356Z</time></trkpt><trkpt lat="42.8152498" lon="12.4417645"><ele>309.0</ele><time>2026-04-11T15:58:23.358Z</time></trkpt><trkpt lat="42.8151595" lon="12.4415936"><ele>309.0</ele><time>2026-04-11T15:58:24.359Z</time></trkpt><trkpt lat="42.8150762" lon="12.4414219"><ele>309.0</ele><time>2026-04-11T15:58:25.353Z</time></trkpt><trkpt lat="42.8150036" lon="12.4412458"><ele>309.0</ele><time>2026-04-11T15:58:26.358Z</time></trkpt><trkpt lat="42.8149359" lon="12.4410674"><ele>309.0</ele><time>2026-04-11T15:58:27.355Z</time></trkpt><trkpt lat="42.8148715" lon="12.440885"><ele>309.0</ele><time>2026-04-11T15:58:28.343Z</time></trkpt><trkpt lat="42.8148083" lon="12.4407053"><ele>309.0</ele><time>2026-04-11T15:58:29.363Z</time></trkpt><trkpt lat="42.8147462" lon="12.4405231"><ele>309.5</ele><time>2026-04-11T15:58:30.347Z</time></trkpt><trkpt lat="42.814685" lon="12.440338"><ele>310.0</ele><time>2026-04-11T15:58:31.362Z</time></trkpt><trkpt lat="42.8146247" lon="12.4401573"><ele>310.5</ele><time>2026-04-11T15:58:32.36Z</time></trkpt><trkpt lat="42.8145633" lon="12.4399835"><ele>311.0</ele><time>2026-04-11T15:58:33.36Z</time></trkpt><trkpt lat="42.8145073" lon="12.4398202"><ele>311.0</ele><time>2026-04-11T15:58:34.358Z</time></trkpt><trkpt lat="42.8144504" lon="12.4396722"><ele>311.0</ele><time>2026-04-11T15:58:35.359Z</time></trkpt><trkpt lat="42.8143839" lon="12.4395303"><ele>311.0</ele><time>2026-04-11T15:58:36.359Z</time></trkpt><trkpt lat="42.8143089" lon="12.4394013"><ele>311.0</ele><time>2026-04-11T15:58:37.367Z</time></trkpt><trkpt lat="42.8142131" lon="12.4392842"><ele>310.75</ele><time>2026-04-11T15:58:38.357Z</time></trkpt><trkpt lat="42.8141075" lon="12.4391873"><ele>310.5</ele><time>2026-04-11T15:58:39.362Z</time></trkpt><trkpt lat="42.8140069" lon="12.4390971"><ele>310.25</ele><time>2026-04-11T15:58:40.355Z</time></trkpt><trkpt lat="42.8139043" lon="12.4390077"><ele>310.0</ele><time>2026-04-11T15:58:41.366Z</time></trkpt><trkpt lat="42.8138115" lon="12.438923"><ele>310.0</ele><time>2026-04-11T15:58:42.365Z</time></trkpt><trkpt lat="42.8137236" lon="12.4388416"><ele>310.0</ele><time>2026-04-11T15:58:43.37Z</time></trkpt><trkpt lat="42.8136378" lon="12.4387611"><ele>310.0</ele><time>2026-04-11T15:58:44.366Z</time></trkpt><trkpt lat="42.8135537" lon="12.4386811"><ele>310.0</ele><time>2026-04-11T15:58:45.355Z</time></trkpt><trkpt lat="42.8134728" lon="12.438596"><ele>310.0</ele><time>2026-04-11T15:58:46.365Z</time></trkpt><trkpt lat="42.8133882" lon="12.4385079"><ele>309.75</ele><time>2026-04-11T15:58:47.364Z</time></trkpt><trkpt lat="42.8132963" lon="12.4384157"><ele>309.5</ele><time>2026-04-11T15:58:48.363Z</time></trkpt><trkpt lat="42.81319" lon="12.438319"><ele>309.25</ele><time>2026-04-11T15:58:49.36Z</time></trkpt><trkpt lat="42.8130725" lon="12.4382025"><ele>309.0</ele><time>2026-04-11T15:58:50.361Z</time></trkpt><trkpt lat="42.8129529" lon="12.4380723"><ele>309.6666666666667</ele><time>2026-04-11T15:58:51.361Z</time></trkpt><trkpt lat="42.8128244" lon="12.4379443"><ele>310.33333333333337</ele><time>2026-04-11T15:58:52.345Z</time></trkpt><trkpt lat="42.8126835" lon="12.4378145"><ele>311.0</ele><time>2026-04-11T15:58:53.343Z</time></trkpt><trkpt lat="42.8125262" lon="12.4376937"><ele>309.33333333333337</ele><time>2026-04-11T15:58:54.359Z</time></trkpt><trkpt lat="42.8123651" lon="12.4375765"><ele>307.6666666666667</ele><time>2026-04-11T15:58:55.359Z</time></trkpt><trkpt lat="42.8121977" lon="12.4374506"><ele>306.0</ele><time>2026-04-11T15:58:56.357Z</time></trkpt><trkpt lat="42.8120314" lon="12.4373061"><ele>306.0</ele><time>2026-04-11T15:58:57.368Z</time></trkpt><trkpt lat="42.8118664" lon="12.4371605"><ele>306.0</ele><time>2026-04-11T15:58:58.353Z</time></trkpt><trkpt lat="42.8117028" lon="12.437006"><ele>306.0</ele><time>2026-04-11T15:58:59.335Z</time></trkpt><trkpt lat="42.8115344" lon="12.4368494"><ele>305.3333333333333</ele><time>2026-04-11T15:59:00.359Z</time></trkpt><trkpt lat="42.8113585" lon="12.4366938"><ele>304.66666666666663</ele><time>2026-04-11T15:59:01.359Z</time></trkpt><trkpt lat="42.8111814" lon="12.4365365"><ele>304.0</ele><time>2026-04-11T15:59:02.362Z</time></trkpt><trkpt lat="42.8110068" lon="12.4363783"><ele>305.3333333333333</ele><time>2026-04-11T15:59:03.369Z</time></trkpt><trkpt lat="42.810843" lon="12.4362255"><ele>306.6666666666667</ele><time>2026-04-11T15:59:04.369Z</time></trkpt><trkpt lat="42.8106935" lon="12.4360752"><ele>308.0</ele><time>2026-04-11T15:59:05.353Z</time></trkpt><trkpt lat="42.8105547" lon="12.4359007"><ele>308.0</ele><time>2026-04-11T15:59:06.355Z</time></trkpt><trkpt lat="42.8104189" lon="12.435718"><ele>308.0</ele><time>2026-04-11T15:59:07.366Z</time></trkpt><trkpt lat="42.8102888" lon="12.4355157"><ele>308.0</ele><time>2026-04-11T15:59:08.353Z</time></trkpt><trkpt lat="42.8101566" lon="12.4353097"><ele>308.0</ele><time>2026-04-11T15:59:09.363Z</time></trkpt><trkpt lat="42.8100229" lon="12.4350978"><ele>308.0</ele><time>2026-04-11T15:59:10.356Z</time></trkpt><trkpt lat="42.8098877" lon="12.4348894"><ele>308.0</ele><time>2026-04-11T15:59:11.369Z</time></trkpt><trkpt lat="42.8097606" lon="12.4346844"><ele>306.33333333333337</ele><time>2026-04-11T15:59:12.362Z</time></trkpt><trkpt lat="42.8096336" lon="12.4344792"><ele>304.6666666666667</ele><time>2026-04-11T15:59:13.367Z</time></trkpt><trkpt lat="42.8095101" lon="12.4342748"><ele>303.0</ele><time>2026-04-11T15:59:14.365Z</time></trkpt><trkpt lat="42.8093943" lon="12.4340676"><ele>302.0</ele><time>2026-04-11T15:59:15.357Z</time></trkpt><trkpt lat="42.8092895" lon="12.4338458"><ele>301.0</ele><time>2026-04-11T15:59:16.362Z</time></trkpt><trkpt lat="42.8092073" lon="12.4336122"><ele>300.0</ele><time>2026-04-11T15:59:17.354Z</time></trkpt><trkpt lat="42.8091422" lon="12.4333717"><ele>299.6666666666667</ele><time>2026-04-11T15:59:18.367Z</time></trkpt><trkpt lat="42.8090847" lon="12.4331384"><ele>299.33333333333337</ele><time>2026-04-11T15:59:19.366Z</time></trkpt><trkpt lat="42.8090258" lon="12.4329216"><ele>299.0</ele><time>2026-04-11T15:59:20.364Z</time></trkpt><trkpt lat="42.8089534" lon="12.4326877"><ele>296.33333333333337</ele><time>2026-04-11T15:59:21.362Z</time></trkpt><trkpt lat="42.8088578" lon="12.4324866"><ele>293.6666666666667</ele><time>2026-04-11T15:59:22.363Z</time></trkpt><trkpt lat="42.8087254" lon="12.4322975"><ele>291.0</ele><time>2026-04-11T15:59:23.363Z</time></trkpt><trkpt lat="42.8085735" lon="12.4321238"><ele>290.0</ele><time>2026-04-11T15:59:24.347Z</time></trkpt><trkpt lat="42.8084153" lon="12.4319654"><ele>289.0</ele><time>2026-04-11T15:59:25.369Z</time></trkpt><trkpt lat="42.8082613" lon="12.4318012"><ele>288.0</ele><time>2026-04-11T15:59:26.335Z</time></trkpt><trkpt lat="42.8081096" lon="12.431639"><ele>288.0</ele><time>2026-04-11T15:59:27.377Z</time></trkpt><trkpt lat="42.8079658" lon="12.4314829"><ele>288.0</ele><time>2026-04-11T15:59:28.349Z</time></trkpt><trkpt lat="42.8078208" lon="12.4313273"><ele>288.0</ele><time>2026-04-11T15:59:29.368Z</time></trkpt><trkpt lat="42.807673" lon="12.431171"><ele>285.0</ele><time>2026-04-11T15:59:30.376Z</time></trkpt><trkpt lat="42.8075204" lon="12.4310194"><ele>282.0</ele><time>2026-04-11T15:59:31.347Z</time></trkpt><trkpt lat="42.8073639" lon="12.4308891"><ele>279.0</ele><time>2026-04-11T15:59:32.364Z</time></trkpt><trkpt lat="42.8072087" lon="12.4307825"><ele>279.0</ele><time>2026-04-11T15:59:33.351Z</time></trkpt><trkpt lat="42.8070574" lon="12.4306801"><ele>279.0</ele><time>2026-04-11T15:59:34.354Z</time></trkpt><trkpt lat="42.8069163" lon="12.4305569"><ele>279.0</ele><time>2026-04-11T15:59:35.365Z</time></trkpt><trkpt lat="42.806789" lon="12.4303818"><ele>277.0</ele><time>2026-04-11T15:59:36.354Z</time></trkpt><trkpt lat="42.8066772" lon="12.4301978"><ele>275.0</ele><time>2026-04-11T15:59:37.357Z</time></trkpt><trkpt lat="42.8065542" lon="12.4300098"><ele>273.0</ele><time>2026-04-11T15:59:38.356Z</time></trkpt><trkpt lat="42.8064194" lon="12.4298369"><ele>273.0</ele><time>2026-04-11T15:59:39.368Z</time></trkpt><trkpt lat="42.8062632" lon="12.4296594"><ele>273.0</ele><time>2026-04-11T15:59:40.344Z</time></trkpt><trkpt lat="42.8060997" lon="12.4294817"><ele>273.0</ele><time>2026-04-11T15:59:41.357Z</time></trkpt><trkpt lat="42.805941" lon="12.4293115"><ele>269.6666666666667</ele><time>2026-04-11T15:59:42.351Z</time></trkpt><trkpt lat="42.805785" lon="12.4291401"><ele>266.33333333333337</ele><time>2026-04-11T15:59:43.346Z</time></trkpt><trkpt lat="42.8056313" lon="12.4289691"><ele>263.0</ele><time>2026-04-11T15:59:44.357Z</time></trkpt><trkpt lat="42.8054766" lon="12.4288005"><ele>260.6666666666667</ele><time>2026-04-11T15:59:45.359Z</time></trkpt><trkpt lat="42.8053228" lon="12.4286261"><ele>258.3333333333333</ele><time>2026-04-11T15:59:46.354Z</time></trkpt><trkpt lat="42.8051665" lon="12.4284536"><ele>256.0</ele><time>2026-04-11T15:59:47.358Z</time></trkpt><trkpt lat="42.8050096" lon="12.4282839"><ele>254.66666666666666</ele><time>2026-04-11T15:59:48.353Z</time></trkpt><trkpt lat="42.8048469" lon="12.428104"><ele>253.33333333333331</ele><time>2026-04-11T15:59:49.369Z</time></trkpt><trkpt lat="42.8046818" lon="12.4279244"><ele>252.0</ele><time>2026-04-11T15:59:50.37Z</time></trkpt><trkpt lat="42.8045196" lon="12.4277479"><ele>250.66666666666669</ele><time>2026-04-11T15:59:51.372Z</time></trkpt><trkpt lat="42.804359" lon="12.4275756"><ele>249.33333333333334</ele><time>2026-04-11T15:59:52.36Z</time></trkpt><trkpt lat="42.8041984" lon="12.4274017"><ele>248.0</ele><time>2026-04-11T15:59:53.346Z</time></trkpt><trkpt lat="42.8040393" lon="12.4272244"><ele>245.33333333333334</ele><time>2026-04-11T15:59:54.358Z</time></trkpt><trkpt lat="42.8038839" lon="12.4270447"><ele>242.66666666666669</ele><time>2026-04-11T15:59:55.359Z</time></trkpt><trkpt lat="42.803726" lon="12.4268603"><ele>240.0</ele><time>2026-04-11T15:59:56.356Z</time></trkpt><trkpt lat="42.8035654" lon="12.4266801"><ele>240.33333333333331</ele><time>2026-04-11T15:59:57.349Z</time></trkpt><trkpt lat="42.8034037" lon="12.426504"><ele>240.66666666666666</ele><time>2026-04-11T15:59:58.34Z</time></trkpt><trkpt lat="42.803236" lon="12.4263389"><ele>241.0</ele><time>2026-04-11T15:59:59.36Z</time></trkpt><trkpt lat="42.8030611" lon="12.4261904"><ele>241.33333333333331</ele><time>2026-04-11T16:00:00.366Z</time></trkpt><trkpt lat="42.802879" lon="12.426054"><ele>241.66666666666669</ele><time>2026-04-11T16:00:01.356Z</time></trkpt><trkpt lat="42.8026789" lon="12.4259278"><ele>242.0</ele><time>2026-04-11T16:00:02.345Z</time></trkpt><trkpt lat="42.8024846" lon="12.4257931"><ele>242.0</ele><time>2026-04-11T16:00:03.345Z</time></trkpt><trkpt lat="42.8022853" lon="12.4256599"><ele>242.0</ele><time>2026-04-11T16:00:04.359Z</time></trkpt><trkpt lat="42.8020869" lon="12.4255362"><ele>242.0</ele><time>2026-04-11T16:00:05.361Z</time></trkpt><trkpt lat="42.8018982" lon="12.4254093"><ele>245.33333333333334</ele><time>2026-04-11T16:00:06.347Z</time></trkpt><trkpt lat="42.8017211" lon="12.4252766"><ele>248.66666666666669</ele><time>2026-04-11T16:00:07.366Z</time></trkpt><trkpt lat="42.8015597" lon="12.4251218"><ele>252.0</ele><time>2026-04-11T16:00:08.354Z</time></trkpt><trkpt lat="42.80141" lon="12.4249479"><ele>252.0</ele><time>2026-04-11T16:00:09.374Z</time></trkpt><trkpt lat="42.8012711" lon="12.4247589"><ele>252.0</ele><time>2026-04-11T16:00:10.363Z</time></trkpt><trkpt lat="42.8011315" lon="12.4245677"><ele>252.0</ele><time>2026-04-11T16:00:11.362Z</time></trkpt><trkpt lat="42.8009896" lon="12.4243757"><ele>251.66666666666669</ele><time>2026-04-11T16:00:12.33Z</time></trkpt><trkpt lat="42.8008455" lon="12.4241732"><ele>251.33333333333334</ele><time>2026-04-11T16:00:13.344Z</time></trkpt><trkpt lat="42.800698" lon="12.4239612"><ele>251.0</ele><time>2026-04-11T16:00:14.358Z</time></trkpt><trkpt lat="42.8005449" lon="12.4237549"><ele>248.66666666666669</ele><time>2026-04-11T16:00:15.357Z</time></trkpt><trkpt lat="42.800393" lon="12.4235404"><ele>246.33333333333331</ele><time>2026-04-11T16:00:16.335Z</time></trkpt><trkpt lat="42.800249" lon="12.4233258"><ele>244.0</ele><time>2026-04-11T16:00:17.359Z</time></trkpt><trkpt lat="42.8001077" lon="12.4231328"><ele>241.66666666666666</ele><time>2026-04-11T16:00:18.359Z</time></trkpt><trkpt lat="42.7999733" lon="12.4229522"><ele>239.33333333333331</ele><time>2026-04-11T16:00:19.359Z</time></trkpt><trkpt lat="42.7998437" lon="12.4227878"><ele>237.0</ele><time>2026-04-11T16:00:20.363Z</time></trkpt><trkpt lat="42.7997163" lon="12.4226304"><ele>237.0</ele><time>2026-04-11T16:00:21.376Z</time></trkpt><trkpt lat="42.7995951" lon="12.4224671"><ele>237.0</ele><time>2026-04-11T16:00:22.352Z</time></trkpt><trkpt lat="42.7994763" lon="12.4223055"><ele>237.0</ele><time>2026-04-11T16:00:23.362Z</time></trkpt><trkpt lat="42.7993665" lon="12.4221523"><ele>234.66666666666669</ele><time>2026-04-11T16:00:24.351Z</time></trkpt><trkpt lat="42.7992704" lon="12.4219892"><ele>232.33333333333334</ele><time>2026-04-11T16:00:25.353Z</time></trkpt><trkpt lat="42.7991917" lon="12.4218118"><ele>230.0</ele><time>2026-04-11T16:00:26.356Z</time></trkpt><trkpt lat="42.7991471" lon="12.4216093"><ele>230.0</ele><time>2026-04-11T16:00:27.347Z</time></trkpt><trkpt lat="42.7991564" lon="12.4213859"><ele>230.0</ele><time>2026-04-11T16:00:28.354Z</time></trkpt><trkpt lat="42.7992035" lon="12.4211603"><ele>230.0</ele><time>2026-04-11T16:00:29.339Z</time></trkpt><trkpt lat="42.7992848" lon="12.4209445"><ele>225.0</ele><time>2026-04-11T16:00:30.337Z</time></trkpt><trkpt lat="42.7993669" lon="12.4207282"><ele>220.0</ele><time>2026-04-11T16:00:31.344Z</time></trkpt><trkpt lat="42.7994396" lon="12.4205172"><ele>215.0</ele><time>2026-04-11T16:00:32.344Z</time></trkpt><trkpt lat="42.7995179" lon="12.4203063"><ele>214.0</ele><time>2026-04-11T16:00:33.365Z</time></trkpt><trkpt lat="42.7995966" lon="12.4201001"><ele>213.0</ele><time>2026-04-11T16:00:34.365Z</time></trkpt><trkpt lat="42.7996707" lon="12.4198995"><ele>212.0</ele><time>2026-04-11T16:00:35.38Z</time></trkpt><trkpt lat="42.7997477" lon="12.4196936"><ele>211.0</ele><time>2026-04-11T16:00:36.354Z</time></trkpt><trkpt lat="42.799809" lon="12.4195055"><ele>210.0</ele><time>2026-04-11T16:00:37.356Z</time></trkpt><trkpt lat="42.7998537" lon="12.4193258"><ele>209.0</ele><time>2026-04-11T16:00:38.36Z</time></trkpt><trkpt lat="42.7998578" lon="12.4191302"><ele>208.0</ele><time>2026-04-11T16:00:39.353Z</time></trkpt><trkpt lat="42.7998339" lon="12.4189448"><ele>206.8</ele><time>2026-04-11T16:00:40.35Z</time></trkpt><trkpt lat="42.7997996" lon="12.4188027"><ele>205.60000000000002</ele><time>2026-04-11T16:00:41.37Z</time></trkpt><trkpt lat="42.7997601" lon="12.4186709"><ele>204.39999999999998</ele><time>2026-04-11T16:00:42.357Z</time></trkpt><trkpt lat="42.7997578" lon="12.4185426"><ele>203.2</ele><time>2026-04-11T16:00:43.365Z</time></trkpt><trkpt lat="42.7998612" lon="12.418426"><ele>202.0</ele><time>2026-04-11T16:00:45.349Z</time></trkpt><trkpt lat="42.7999365" lon="12.4184219"><ele>202.0</ele><time>2026-04-11T16:00:46.356Z</time></trkpt><trkpt lat="42.8000349" lon="12.4184633"><ele>202.0</ele><time>2026-04-11T16:00:47.348Z</time></trkpt><trkpt lat="42.8001369" lon="12.4185407"><ele>202.0</ele><time>2026-04-11T16:00:48.368Z</time></trkpt><trkpt lat="42.8002413" lon="12.4186061"><ele>202.0</ele><time>2026-04-11T16:00:49.361Z</time></trkpt><trkpt lat="42.8003514" lon="12.4186718"><ele>199.5</ele><time>2026-04-11T16:00:50.363Z</time></trkpt><trkpt lat="42.8004656" lon="12.4187228"><ele>197.0</ele><time>2026-04-11T16:00:51.374Z</time></trkpt><trkpt lat="42.8005785" lon="12.418757"><ele>194.5</ele><time>2026-04-11T16:00:52.353Z</time></trkpt><trkpt lat="42.8006899" lon="12.4187962"><ele>192.0</ele><time>2026-04-11T16:00:53.353Z</time></trkpt><trkpt lat="42.8007932" lon="12.4187972"><ele>192.0</ele><time>2026-04-11T16:00:54.344Z</time></trkpt><trkpt lat="42.8009043" lon="12.4187834"><ele>192.0</ele><time>2026-04-11T16:00:55.357Z</time></trkpt><trkpt lat="42.8010131" lon="12.4187389"><ele>192.0</ele><time>2026-04-11T16:00:56.36Z</time></trkpt><trkpt lat="42.8011013" lon="12.4186566"><ele>192.0</ele><time>2026-04-11T16:00:57.356Z</time></trkpt><trkpt lat="42.801162" lon="12.4185465"><ele>192.0</ele><time>2026-04-11T16:00:58.374Z</time></trkpt><trkpt lat="42.8012082" lon="12.4184334"><ele>191.0</ele><time>2026-04-11T16:00:59.359Z</time></trkpt><trkpt lat="42.8012457" lon="12.4183117"><ele>190.0</ele><time>2026-04-11T16:01:00.346Z</time></trkpt><trkpt lat="42.8012807" lon="12.4181882"><ele>189.0</ele><time>2026-04-11T16:01:01.347Z</time></trkpt><trkpt lat="42.8013158" lon="12.4180594"><ele>188.0</ele><time>2026-04-11T16:01:02.361Z</time></trkpt><trkpt lat="42.8013487" lon="12.417933"><ele>187.0</ele><time>2026-04-11T16:01:03.359Z</time></trkpt><trkpt lat="42.8013821" lon="12.4177905"><ele>187.0</ele><time>2026-04-11T16:01:04.361Z</time></trkpt><trkpt lat="42.8014154" lon="12.4176528"><ele>187.0</ele><time>2026-04-11T16:01:05.355Z</time></trkpt><trkpt lat="42.8014463" lon="12.4175166"><ele>187.0</ele><time>2026-04-11T16:01:06.371Z</time></trkpt><trkpt lat="42.8014757" lon="12.4173801"><ele>187.0</ele><time>2026-04-11T16:01:07.352Z</time></trkpt><trkpt lat="42.8014996" lon="12.4172446"><ele>187.0</ele><time>2026-04-11T16:01:08.366Z</time></trkpt><trkpt lat="42.8015184" lon="12.4171035"><ele>186.0</ele><time>2026-04-11T16:01:09.354Z</time></trkpt><trkpt lat="42.8015212" lon="12.4169569"><ele>185.0</ele><time>2026-04-11T16:01:10.355Z</time></trkpt><trkpt lat="42.8015093" lon="12.4168118"><ele>184.0</ele><time>2026-04-11T16:01:11.345Z</time></trkpt><trkpt lat="42.8014839" lon="12.4166686"><ele>183.0</ele><time>2026-04-11T16:01:12.358Z</time></trkpt><trkpt lat="42.8014527" lon="12.416529"><ele>182.0</ele><time>2026-04-11T16:01:13.359Z</time></trkpt><trkpt lat="42.8014232" lon="12.4163857"><ele>181.0</ele><time>2026-04-11T16:01:14.352Z</time></trkpt><trkpt lat="42.8013929" lon="12.4162469"><ele>180.0</ele><time>2026-04-11T16:01:15.361Z</time></trkpt><trkpt lat="42.8013589" lon="12.4160993"><ele>179.0</ele><time>2026-04-11T16:01:16.338Z</time></trkpt><trkpt lat="42.8013263" lon="12.4159541"><ele>178.0</ele><time>2026-04-11T16:01:17.349Z</time></trkpt><trkpt lat="42.801287" lon="12.4158091"><ele>177.0</ele><time>2026-04-11T16:01:18.369Z</time></trkpt><trkpt lat="42.8012451" lon="12.4156589"><ele>177.0</ele><time>2026-04-11T16:01:19.337Z</time></trkpt><trkpt lat="42.8012064" lon="12.4155049"><ele>177.0</ele><time>2026-04-11T16:01:20.349Z</time></trkpt><trkpt lat="42.8011656" lon="12.4153434"><ele>177.0</ele><time>2026-04-11T16:01:21.361Z</time></trkpt><trkpt lat="42.8011228" lon="12.4151737"><ele>177.0</ele><time>2026-04-11T16:01:22.351Z</time></trkpt><trkpt lat="42.801072" lon="12.4150176"><ele>176.6</ele><time>2026-04-11T16:01:23.355Z</time></trkpt><trkpt lat="42.8010186" lon="12.4148799"><ele>176.2</ele><time>2026-04-11T16:01:24.346Z</time></trkpt><trkpt lat="42.8009626" lon="12.4147492"><ele>175.8</ele><time>2026-04-11T16:01:25.358Z</time></trkpt><trkpt lat="42.800907" lon="12.4146262"><ele>175.4</ele><time>2026-04-11T16:01:26.356Z</time></trkpt><trkpt lat="42.8008552" lon="12.414509"><ele>175.0</ele><time>2026-04-11T16:01:27.36Z</time></trkpt><trkpt lat="42.8008062" lon="12.4143942"><ele>174.0</ele><time>2026-04-11T16:01:28.354Z</time></trkpt><trkpt lat="42.8007549" lon="12.4142759"><ele>173.0</ele><time>2026-04-11T16:01:29.361Z</time></trkpt><trkpt lat="42.800702" lon="12.4141498"><ele>172.0</ele><time>2026-04-11T16:01:30.349Z</time></trkpt><trkpt lat="42.80065" lon="12.4140208"><ele>171.0</ele><time>2026-04-11T16:01:31.359Z</time></trkpt><trkpt lat="42.8005912" lon="12.4138789"><ele>170.0</ele><time>2026-04-11T16:01:32.353Z</time></trkpt><trkpt lat="42.8005341" lon="12.413734"><ele>168.25</ele><time>2026-04-11T16:01:33.355Z</time></trkpt><trkpt lat="42.8004784" lon="12.4135827"><ele>166.5</ele><time>2026-04-11T16:01:34.356Z</time></trkpt><trkpt lat="42.8004243" lon="12.4134286"><ele>164.75</ele><time>2026-04-11T16:01:35.35Z</time></trkpt><trkpt lat="42.8003759" lon="12.4132751"><ele>163.0</ele><time>2026-04-11T16:01:36.352Z</time></trkpt><trkpt lat="42.8003234" lon="12.4131306"><ele>163.0</ele><time>2026-04-11T16:01:37.36Z</time></trkpt><trkpt lat="42.8002807" lon="12.4129997"><ele>163.0</ele><time>2026-04-11T16:01:38.357Z</time></trkpt><trkpt lat="42.8002458" lon="12.4128892"><ele>163.0</ele><time>2026-04-11T16:01:39.358Z</time></trkpt><trkpt lat="42.8002279" lon="12.4128044"><ele>163.0</ele><time>2026-04-11T16:01:40.346Z</time></trkpt><trkpt lat="42.8002074" lon="12.4126467"><ele>163.0</ele><time>2026-04-11T16:01:42.345Z</time></trkpt><trkpt lat="42.8002196" lon="12.4125263"><ele>161.4</ele><time>2026-04-11T16:01:44.345Z</time></trkpt><trkpt lat="42.8002282" lon="12.4124185"><ele>159.8</ele><time>2026-04-11T16:01:47.358Z</time></trkpt><trkpt lat="42.8001988" lon="12.4122919"><ele>158.2</ele><time>2026-04-11T16:01:49.35Z</time></trkpt><trkpt lat="42.8001293" lon="12.4122312"><ele>156.6</ele><time>2026-04-11T16:01:51.359Z</time></trkpt><trkpt lat="42.8000378" lon="12.4121545"><ele>155.0</ele><time>2026-04-11T16:01:53.356Z</time></trkpt><trkpt lat="42.7999316" lon="12.4120405"><ele>154.4</ele><time>2026-04-11T16:01:55.35Z</time></trkpt><trkpt lat="42.7998621" lon="12.411967"><ele>153.8</ele><time>2026-04-11T16:01:56.349Z</time></trkpt><trkpt lat="42.7997992" lon="12.4118763"><ele>153.2</ele><time>2026-04-11T16:01:57.353Z</time></trkpt><trkpt lat="42.7997242" lon="12.4117915"><ele>152.6</ele><time>2026-04-11T16:01:58.354Z</time></trkpt><trkpt lat="42.7996565" lon="12.4117023"><ele>152.0</ele><time>2026-04-11T16:01:59.36Z</time></trkpt><trkpt lat="42.7995905" lon="12.4116357"><ele>152.0</ele><time>2026-04-11T16:02:00.352Z</time></trkpt><trkpt lat="42.7995295" lon="12.4115597"><ele>152.0</ele><time>2026-04-11T16:02:01.355Z</time></trkpt><trkpt lat="42.7994646" lon="12.4114941"><ele>152.0</ele><time>2026-04-11T16:02:02.369Z</time></trkpt><trkpt lat="42.7993929" lon="12.4114194"><ele>152.0</ele><time>2026-04-11T16:02:03.357Z</time></trkpt><trkpt lat="42.7993211" lon="12.4113457"><ele>152.0</ele><time>2026-04-11T16:02:04.363Z</time></trkpt><trkpt lat="42.7992508" lon="12.4112637"><ele>152.0</ele><time>2026-04-11T16:02:05.348Z</time></trkpt><trkpt lat="42.7991804" lon="12.4111808"><ele>151.33333333333331</ele><time>2026-04-11T16:02:06.357Z</time></trkpt><trkpt lat="42.7991098" lon="12.4111002"><ele>150.66666666666666</ele><time>2026-04-11T16:02:07.36Z</time></trkpt><trkpt lat="42.7990378" lon="12.411024"><ele>150.0</ele><time>2026-04-11T16:02:08.345Z</time></trkpt><trkpt lat="42.7989717" lon="12.4109509"><ele>149.33333333333334</ele><time>2026-04-11T16:02:09.369Z</time></trkpt><trkpt lat="42.7989141" lon="12.4108741"><ele>148.66666666666669</ele><time>2026-04-11T16:02:10.361Z</time></trkpt><trkpt lat="42.7988551" lon="12.4107938"><ele>148.0</ele><time>2026-04-11T16:02:11.368Z</time></trkpt><trkpt lat="42.7987954" lon="12.4107113"><ele>148.0</ele><time>2026-04-11T16:02:12.352Z</time></trkpt><trkpt lat="42.7987327" lon="12.4106257"><ele>148.0</ele><time>2026-04-11T16:02:13.358Z</time></trkpt><trkpt lat="42.7986696" lon="12.4105347"><ele>148.0</ele><time>2026-04-11T16:02:14.355Z</time></trkpt><trkpt lat="42.7986059" lon="12.4104399"><ele>148.0</ele><time>2026-04-11T16:02:15.352Z</time></trkpt><trkpt lat="42.7985513" lon="12.4103557"><ele>148.0</ele><time>2026-04-11T16:02:16.364Z</time></trkpt><trkpt lat="42.7984773" lon="12.4102566"><ele>148.16666666666669</ele><time>2026-04-11T16:02:18.361Z</time></trkpt><trkpt lat="42.7984206" lon="12.4101816"><ele>148.33333333333334</ele><time>2026-04-11T16:02:21.361Z</time></trkpt><trkpt lat="42.7983654" lon="12.4101206"><ele>148.5</ele><time>2026-04-11T16:02:45.355Z</time></trkpt><trkpt lat="42.7983179" lon="12.4100136"><ele>148.66666666666666</ele><time>2026-04-11T16:02:48.347Z</time></trkpt><trkpt lat="42.7982914" lon="12.4099339"><ele>148.83333333333331</ele><time>2026-04-11T16:02:50.366Z</time></trkpt><trkpt lat="42.7983294" lon="12.4098359"><ele>149.0</ele><time>2026-04-11T16:02:58.36Z</time></trkpt><trkpt lat="42.7984272" lon="12.4097756"><ele>149.0</ele><time>2026-04-11T16:03:00.353Z</time></trkpt><trkpt lat="42.7984956" lon="12.4097453"><ele>149.0</ele><time>2026-04-11T16:03:01.357Z</time></trkpt><trkpt lat="42.7985754" lon="12.4097229"><ele>149.0</ele><time>2026-04-11T16:03:02.461Z</time></trkpt><trkpt lat="42.7987444" lon="12.4096808"><ele>149.0</ele><time>2026-04-11T16:03:04.364Z</time></trkpt><trkpt lat="42.7988411" lon="12.4096537"><ele>149.0</ele><time>2026-04-11T16:03:05.364Z</time></trkpt><trkpt lat="42.7989428" lon="12.409625"><ele>148.6</ele><time>2026-04-11T16:03:06.357Z</time></trkpt><trkpt lat="42.799049" lon="12.4096024"><ele>148.2</ele><time>2026-04-11T16:03:07.366Z</time></trkpt><trkpt lat="42.799154" lon="12.4095798"><ele>147.79999999999998</ele><time>2026-04-11T16:03:08.361Z</time></trkpt><trkpt lat="42.7992573" lon="12.4095466"><ele>147.4</ele><time>2026-04-11T16:03:09.358Z</time></trkpt><trkpt lat="42.7993563" lon="12.4095104"><ele>147.0</ele><time>2026-04-11T16:03:10.348Z</time></trkpt><trkpt lat="42.7994575" lon="12.4094811"><ele>147.0</ele><time>2026-04-11T16:03:11.364Z</time></trkpt><trkpt lat="42.7995592" lon="12.4094499"><ele>147.0</ele><time>2026-04-11T16:03:12.351Z</time></trkpt><trkpt lat="42.7996603" lon="12.4094204"><ele>147.0</ele><time>2026-04-11T16:03:13.362Z</time></trkpt><trkpt lat="42.7997518" lon="12.4093962"><ele>147.0</ele><time>2026-04-11T16:03:14.35Z</time></trkpt><trkpt lat="42.7998334" lon="12.4093677"><ele>147.0</ele><time>2026-04-11T16:03:15.355Z</time></trkpt><trkpt lat="42.7999057" lon="12.4093545"><ele>147.0</ele><time>2026-04-11T16:03:16.364Z</time></trkpt><trkpt lat="42.8000118" lon="12.409332"><ele>147.0</ele><time>2026-04-11T16:03:18.366Z</time></trkpt><trkpt lat="42.8001077" lon="12.4092983"><ele>147.0</ele><time>2026-04-11T16:03:20.346Z</time></trkpt><trkpt lat="42.8002353" lon="12.4092662"><ele>147.0</ele><time>2026-04-11T16:03:22.353Z</time></trkpt><trkpt lat="42.8003101" lon="12.4092452"><ele>147.0</ele><time>2026-04-11T16:03:23.36Z</time></trkpt><trkpt lat="42.8003955" lon="12.4092233"><ele>147.0</ele><time>2026-04-11T16:03:24.353Z</time></trkpt><trkpt lat="42.8004815" lon="12.409204"><ele>147.0</ele><time>2026-04-11T16:03:25.367Z</time></trkpt><trkpt lat="42.80058" lon="12.4091815"><ele>147.0</ele><time>2026-04-11T16:03:26.348Z</time></trkpt><trkpt lat="42.8006685" lon="12.4091561"><ele>147.0</ele><time>2026-04-11T16:03:27.363Z</time></trkpt><trkpt lat="42.8007393" lon="12.4091358"><ele>147.0</ele><time>2026-04-11T16:03:28.369Z</time></trkpt><trkpt lat="42.8008136" lon="12.4091226"><ele>147.0</ele><time>2026-04-11T16:03:29.337Z</time></trkpt><trkpt lat="42.8009367" lon="12.4090823"><ele>147.16666666666666</ele><time>2026-04-11T16:03:31.353Z</time></trkpt><trkpt lat="42.801012" lon="12.4090564"><ele>147.33333333333334</ele><time>2026-04-11T16:03:32.354Z</time></trkpt><trkpt lat="42.8010947" lon="12.4090348"><ele>147.5</ele><time>2026-04-11T16:03:33.367Z</time></trkpt><trkpt lat="42.8011812" lon="12.4090066"><ele>147.66666666666669</ele><time>2026-04-11T16:03:34.345Z</time></trkpt><trkpt lat="42.8012703" lon="12.4089856"><ele>147.83333333333334</ele><time>2026-04-11T16:03:35.347Z</time></trkpt><trkpt lat="42.8013544" lon="12.4089666"><ele>148.0</ele><time>2026-04-11T16:03:36.351Z</time></trkpt><trkpt lat="42.8014411" lon="12.4089384"><ele>148.0</ele><time>2026-04-11T16:03:37.354Z</time></trkpt><trkpt lat="42.8015317" lon="12.4089083"><ele>148.0</ele><time>2026-04-11T16:03:38.342Z</time></trkpt><trkpt lat="42.8016237" lon="12.4088668"><ele>148.0</ele><time>2026-04-11T16:03:39.348Z</time></trkpt><trkpt lat="42.8017205" lon="12.4088592"><ele>148.0</ele><time>2026-04-11T16:03:40.344Z</time></trkpt><trkpt lat="42.8018117" lon="12.408829"><ele>148.0</ele><time>2026-04-11T16:03:41.353Z</time></trkpt><trkpt lat="42.8019003" lon="12.4088011"><ele>148.0</ele><time>2026-04-11T16:03:42.358Z</time></trkpt><trkpt lat="42.8019852" lon="12.4087829"><ele>148.0</ele><time>2026-04-11T16:03:43.353Z</time></trkpt><trkpt lat="42.8020606" lon="12.4087475"><ele>148.0</ele><time>2026-04-11T16:03:44.345Z</time></trkpt><trkpt lat="42.8021334" lon="12.4086961"><ele>148.0</ele><time>2026-04-11T16:03:45.354Z</time></trkpt><trkpt lat="42.8021994" lon="12.408651"><ele>148.0</ele><time>2026-04-11T16:03:46.345Z</time></trkpt><trkpt lat="42.8023029" lon="12.4085739"><ele>148.0</ele><time>2026-04-11T16:03:48.348Z</time></trkpt><trkpt lat="42.8024034" lon="12.4085052"><ele>148.0</ele><time>2026-04-11T16:03:50.335Z</time></trkpt><trkpt lat="42.8025148" lon="12.4084644"><ele>148.0</ele><time>2026-04-11T16:03:52.364Z</time></trkpt><trkpt lat="42.8026212" lon="12.4083823"><ele>148.0</ele><time>2026-04-11T16:03:54.359Z</time></trkpt><trkpt lat="42.8026721" lon="12.4082348"><ele>148.0</ele><time>2026-04-11T16:03:56.354Z</time></trkpt><trkpt lat="42.8027087" lon="12.4080693"><ele>147.66666666666669</ele><time>2026-04-11T16:03:58.369Z</time></trkpt><trkpt lat="42.8027431" lon="12.4079883"><ele>147.33333333333334</ele><time>2026-04-11T16:03:59.368Z</time></trkpt><trkpt lat="42.8027894" lon="12.4079064"><ele>147.0</ele><time>2026-04-11T16:04:00.355Z</time></trkpt><trkpt lat="42.8028464" lon="12.4078207"><ele>146.66666666666666</ele><time>2026-04-11T16:04:01.367Z</time></trkpt><trkpt lat="42.8029105" lon="12.4077185"><ele>146.33333333333331</ele><time>2026-04-11T16:04:02.355Z</time></trkpt><trkpt lat="42.8029789" lon="12.4076033"><ele>146.0</ele><time>2026-04-11T16:04:03.342Z</time></trkpt><trkpt lat="42.803053" lon="12.4074855"><ele>146.0</ele><time>2026-04-11T16:04:04.356Z</time></trkpt><trkpt lat="42.80313" lon="12.4073706"><ele>146.0</ele><time>2026-04-11T16:04:05.358Z</time></trkpt><trkpt lat="42.8032137" lon="12.4072507"><ele>146.0</ele><time>2026-04-11T16:04:06.357Z</time></trkpt><trkpt lat="42.8033002" lon="12.4071206"><ele>146.0</ele><time>2026-04-11T16:04:07.362Z</time></trkpt><trkpt lat="42.8033889" lon="12.4069851"><ele>146.0</ele><time>2026-04-11T16:04:08.36Z</time></trkpt><trkpt lat="42.8034719" lon="12.4068549"><ele>146.0</ele><time>2026-04-11T16:04:09.361Z</time></trkpt><trkpt lat="42.803553" lon="12.4067245"><ele>146.0</ele><time>2026-04-11T16:04:10.353Z</time></trkpt><trkpt lat="42.8036356" lon="12.4066003"><ele>146.0</ele><time>2026-04-11T16:04:11.358Z</time></trkpt><trkpt lat="42.8037181" lon="12.4064827"><ele>146.0</ele><time>2026-04-11T16:04:12.35Z</time></trkpt><trkpt lat="42.8038001" lon="12.406384"><ele>146.0</ele><time>2026-04-11T16:04:13.366Z</time></trkpt><trkpt lat="42.8038827" lon="12.406293"><ele>146.0</ele><time>2026-04-11T16:04:14.357Z</time></trkpt><trkpt lat="42.8039671" lon="12.4062311"><ele>146.0</ele><time>2026-04-11T16:04:15.351Z</time></trkpt><trkpt lat="42.8040494" lon="12.4061895"><ele>146.0</ele><time>2026-04-11T16:04:16.36Z</time></trkpt><trkpt lat="42.8041334" lon="12.4061517"><ele>145.83333333333331</ele><time>2026-04-11T16:04:17.362Z</time></trkpt><trkpt lat="42.8042442" lon="12.4061208"><ele>145.66666666666666</ele><time>2026-04-11T16:04:19.355Z</time></trkpt><trkpt lat="42.804317" lon="12.4061074"><ele>145.5</ele><time>2026-04-11T16:04:25.36Z</time></trkpt><trkpt lat="42.804382" lon="12.4060731"><ele>145.33333333333334</ele><time>2026-04-11T16:04:27.366Z</time></trkpt><trkpt lat="42.8044394" lon="12.4060184"><ele>145.16666666666669</ele><time>2026-04-11T16:04:41.363Z</time></trkpt><trkpt lat="42.8044792" lon="12.4059473"><ele>145.0</ele><time>2026-04-11T16:04:45.348Z</time></trkpt><trkpt lat="42.8045271" lon="12.4058126"><ele>145.0</ele><time>2026-04-11T16:04:48.344Z</time></trkpt><trkpt lat="42.8045134" lon="12.405622"><ele>145.0</ele><time>2026-04-11T16:04:50.366Z</time></trkpt><trkpt lat="42.8044863" lon="12.4055146"><ele>145.0</ele><time>2026-04-11T16:04:51.371Z</time></trkpt><trkpt lat="42.8044538" lon="12.4054008"><ele>145.0</ele><time>2026-04-11T16:04:52.36Z</time></trkpt><trkpt lat="42.8044157" lon="12.4052621"><ele>145.0</ele><time>2026-04-11T16:04:53.369Z</time></trkpt><trkpt lat="42.8043659" lon="12.4051112"><ele>144.75</ele><time>2026-04-11T16:04:54.359Z</time></trkpt><trkpt lat="42.8043079" lon="12.4049525"><ele>144.5</ele><time>2026-04-11T16:04:55.357Z</time></trkpt><trkpt lat="42.8042554" lon="12.4048082"><ele>144.25</ele><time>2026-04-11T16:04:56.34Z</time></trkpt><trkpt lat="42.8041949" lon="12.4046689"><ele>144.0</ele><time>2026-04-11T16:04:57.365Z</time></trkpt><trkpt lat="42.8041264" lon="12.4045271"><ele>144.0</ele><time>2026-04-11T16:04:58.36Z</time></trkpt><trkpt lat="42.8040565" lon="12.404393"><ele>144.0</ele><time>2026-04-11T16:04:59.341Z</time></trkpt><trkpt lat="42.8039748" lon="12.4042543"><ele>144.0</ele><time>2026-04-11T16:05:00.354Z</time></trkpt><trkpt lat="42.803893" lon="12.404111"><ele>144.0</ele><time>2026-04-11T16:05:01.355Z</time></trkpt><trkpt lat="42.8038049" lon="12.4039609"><ele>143.66666666666666</ele><time>2026-04-11T16:05:02.341Z</time></trkpt><trkpt lat="42.8037159" lon="12.403799"><ele>143.33333333333331</ele><time>2026-04-11T16:05:03.359Z</time></trkpt><trkpt lat="42.8036254" lon="12.4036367"><ele>143.0</ele><time>2026-04-11T16:05:04.355Z</time></trkpt><trkpt lat="42.8035338" lon="12.403457"><ele>143.66666666666666</ele><time>2026-04-11T16:05:05.357Z</time></trkpt><trkpt lat="42.803435" lon="12.4032756"><ele>144.33333333333334</ele><time>2026-04-11T16:05:06.352Z</time></trkpt><trkpt lat="42.8033336" lon="12.4030924"><ele>145.0</ele><time>2026-04-11T16:05:07.358Z</time></trkpt><trkpt lat="42.8032269" lon="12.402901"><ele>145.0</ele><time>2026-04-11T16:05:08.348Z</time></trkpt><trkpt lat="42.8031205" lon="12.402705"><ele>145.0</ele><time>2026-04-11T16:05:09.362Z</time></trkpt><trkpt lat="42.8030153" lon="12.4025051"><ele>145.0</ele><time>2026-04-11T16:05:10.354Z</time></trkpt><trkpt lat="42.8029078" lon="12.4023096"><ele>145.33333333333334</ele><time>2026-04-11T16:05:11.363Z</time></trkpt><trkpt lat="42.8028044" lon="12.4021166"><ele>145.66666666666666</ele><time>2026-04-11T16:05:12.352Z</time></trkpt><trkpt lat="42.8026974" lon="12.4019184"><ele>146.0</ele><time>2026-04-11T16:05:13.365Z</time></trkpt><trkpt lat="42.8025844" lon="12.401729"><ele>146.0</ele><time>2026-04-11T16:05:14.35Z</time></trkpt><trkpt lat="42.80247" lon="12.4015408"><ele>146.0</ele><time>2026-04-11T16:05:15.361Z</time></trkpt><trkpt lat="42.8023571" lon="12.4013539"><ele>146.0</ele><time>2026-04-11T16:05:16.359Z</time></trkpt><trkpt lat="42.8022468" lon="12.4011604"><ele>146.33333333333331</ele><time>2026-04-11T16:05:17.365Z</time></trkpt><trkpt lat="42.8021409" lon="12.4009677"><ele>146.66666666666666</ele><time>2026-04-11T16:05:18.359Z</time></trkpt><trkpt lat="42.8020318" lon="12.4007667"><ele>147.0</ele><time>2026-04-11T16:05:19.358Z</time></trkpt><trkpt lat="42.8019214" lon="12.4005632"><ele>146.66666666666666</ele><time>2026-04-11T16:05:20.343Z</time></trkpt><trkpt lat="42.8018104" lon="12.4003595"><ele>146.33333333333331</ele><time>2026-04-11T16:05:21.348Z</time></trkpt><trkpt lat="42.8016994" lon="12.4001569"><ele>146.0</ele><time>2026-04-11T16:05:22.355Z</time></trkpt><trkpt lat="42.8015867" lon="12.3999532"><ele>146.0</ele><time>2026-04-11T16:05:23.358Z</time></trkpt><trkpt lat="42.8014739" lon="12.3997509"><ele>146.0</ele><time>2026-04-11T16:05:24.364Z</time></trkpt><trkpt lat="42.8013615" lon="12.3995496"><ele>146.0</ele><time>2026-04-11T16:05:25.352Z</time></trkpt><trkpt lat="42.8012528" lon="12.3993474"><ele>146.0</ele><time>2026-04-11T16:05:26.35Z</time></trkpt><trkpt lat="42.8011412" lon="12.3991473"><ele>146.0</ele><time>2026-04-11T16:05:27.366Z</time></trkpt><trkpt lat="42.8010278" lon="12.3989441"><ele>146.0</ele><time>2026-04-11T16:05:28.355Z</time></trkpt><trkpt lat="42.8009191" lon="12.3987464"><ele>146.0</ele><time>2026-04-11T16:05:29.355Z</time></trkpt><trkpt lat="42.8008102" lon="12.3985417"><ele>146.0</ele><time>2026-04-11T16:05:30.348Z</time></trkpt><trkpt lat="42.8006997" lon="12.3983412"><ele>146.0</ele><time>2026-04-11T16:05:31.35Z</time></trkpt><trkpt lat="42.8005864" lon="12.3981407"><ele>145.0</ele><time>2026-04-11T16:05:32.355Z</time></trkpt><trkpt lat="42.8004721" lon="12.3979425"><ele>144.0</ele><time>2026-04-11T16:05:33.356Z</time></trkpt><trkpt lat="42.8003581" lon="12.3977379"><ele>143.0</ele><time>2026-04-11T16:05:34.348Z</time></trkpt><trkpt lat="42.8002464" lon="12.3975348"><ele>144.0</ele><time>2026-04-11T16:05:35.357Z</time></trkpt><trkpt lat="42.8001326" lon="12.3973264"><ele>145.0</ele><time>2026-04-11T16:05:36.371Z</time></trkpt><trkpt lat="42.8000221" lon="12.3971214"><ele>146.0</ele><time>2026-04-11T16:05:37.353Z</time></trkpt><trkpt lat="42.7999115" lon="12.3969123"><ele>146.33333333333331</ele><time>2026-04-11T16:05:38.362Z</time></trkpt><trkpt lat="42.7997969" lon="12.3967131"><ele>146.66666666666666</ele><time>2026-04-11T16:05:39.354Z</time></trkpt><trkpt lat="42.7996801" lon="12.3965064"><ele>147.0</ele><time>2026-04-11T16:05:40.365Z</time></trkpt><trkpt lat="42.7995599" lon="12.3962971"><ele>146.66666666666666</ele><time>2026-04-11T16:05:41.372Z</time></trkpt><trkpt lat="42.7994398" lon="12.396083"><ele>146.33333333333331</ele><time>2026-04-11T16:05:42.36Z</time></trkpt><trkpt lat="42.7993169" lon="12.3958679"><ele>146.0</ele><time>2026-04-11T16:05:43.371Z</time></trkpt><trkpt lat="42.799202" lon="12.3956523"><ele>145.66666666666666</ele><time>2026-04-11T16:05:44.365Z</time></trkpt><trkpt lat="42.7990833" lon="12.3954357"><ele>145.33333333333334</ele><time>2026-04-11T16:05:45.354Z</time></trkpt><trkpt lat="42.7989652" lon="12.395224"><ele>145.0</ele><time>2026-04-11T16:05:46.369Z</time></trkpt><trkpt lat="42.7988496" lon="12.3950101"><ele>145.0</ele><time>2026-04-11T16:05:47.355Z</time></trkpt><trkpt lat="42.7987358" lon="12.3948012"><ele>145.0</ele><time>2026-04-11T16:05:48.365Z</time></trkpt><trkpt lat="42.7986178" lon="12.3945949"><ele>145.0</ele><time>2026-04-11T16:05:49.364Z</time></trkpt><trkpt lat="42.7984958" lon="12.3943865"><ele>145.0</ele><time>2026-04-11T16:05:50.358Z</time></trkpt><trkpt lat="42.7983737" lon="12.3941808"><ele>145.0</ele><time>2026-04-11T16:05:51.337Z</time></trkpt><trkpt lat="42.7982458" lon="12.3939742"><ele>145.0</ele><time>2026-04-11T16:05:52.347Z</time></trkpt><trkpt lat="42.7981164" lon="12.3937772"><ele>144.66666666666669</ele><time>2026-04-11T16:05:53.358Z</time></trkpt><trkpt lat="42.7979855" lon="12.3935731"><ele>144.33333333333334</ele><time>2026-04-11T16:05:54.343Z</time></trkpt><trkpt lat="42.7978454" lon="12.393372"><ele>144.0</ele><time>2026-04-11T16:05:55.354Z</time></trkpt><trkpt lat="42.7977036" lon="12.3931767"><ele>145.0</ele><time>2026-04-11T16:05:56.345Z</time></trkpt><trkpt lat="42.7975558" lon="12.3929838"><ele>146.0</ele><time>2026-04-11T16:05:57.355Z</time></trkpt><trkpt lat="42.7974114" lon="12.3927896"><ele>147.0</ele><time>2026-04-11T16:05:58.357Z</time></trkpt><trkpt lat="42.7972597" lon="12.3925957"><ele>147.0</ele><time>2026-04-11T16:05:59.343Z</time></trkpt><trkpt lat="42.7971033" lon="12.3924071"><ele>147.0</ele><time>2026-04-11T16:06:00.358Z</time></trkpt><trkpt lat="42.796951" lon="12.3922217"><ele>147.0</ele><time>2026-04-11T16:06:01.36Z</time></trkpt><trkpt lat="42.7968013" lon="12.3920413"><ele>146.66666666666666</ele><time>2026-04-11T16:06:02.364Z</time></trkpt><trkpt lat="42.7966543" lon="12.3918658"><ele>146.33333333333331</ele><time>2026-04-11T16:06:03.352Z</time></trkpt><trkpt lat="42.7965028" lon="12.3916927"><ele>146.0</ele><time>2026-04-11T16:06:04.343Z</time></trkpt><trkpt lat="42.7963536" lon="12.3915187"><ele>146.0</ele><time>2026-04-11T16:06:05.343Z</time></trkpt><trkpt lat="42.7962092" lon="12.3913538"><ele>146.0</ele><time>2026-04-11T16:06:06.359Z</time></trkpt><trkpt lat="42.7960695" lon="12.3911962"><ele>146.0</ele><time>2026-04-11T16:06:07.348Z</time></trkpt><trkpt lat="42.7959364" lon="12.3910398"><ele>146.33333333333331</ele><time>2026-04-11T16:06:08.356Z</time></trkpt><trkpt lat="42.7958135" lon="12.3908924"><ele>146.66666666666666</ele><time>2026-04-11T16:06:09.362Z</time></trkpt><trkpt lat="42.7957003" lon="12.3907572"><ele>147.0</ele><time>2026-04-11T16:06:10.367Z</time></trkpt><trkpt lat="42.7955959" lon="12.3906294"><ele>147.0</ele><time>2026-04-11T16:06:11.359Z</time></trkpt><trkpt lat="42.7954965" lon="12.3905096"><ele>147.0</ele><time>2026-04-11T16:06:12.353Z</time></trkpt><trkpt lat="42.7954104" lon="12.3904129"><ele>147.0</ele><time>2026-04-11T16:06:13.364Z</time></trkpt><trkpt lat="42.7953338" lon="12.3903257"><ele>147.0</ele><time>2026-04-11T16:06:14.366Z</time></trkpt><trkpt lat="42.7952744" lon="12.3902414"><ele>147.0</ele><time>2026-04-11T16:06:15.346Z</time></trkpt><trkpt lat="42.7952234" lon="12.3901797"><ele>147.0</ele><time>2026-04-11T16:06:16.379Z</time></trkpt><trkpt lat="42.795151" lon="12.3900931"><ele>147.0</ele><time>2026-04-11T16:06:18.359Z</time></trkpt><trkpt lat="42.7950959" lon="12.3900365"><ele>147.0</ele><time>2026-04-11T16:06:21.36Z</time></trkpt><trkpt lat="42.7950296" lon="12.3899672"><ele>147.0</ele><time>2026-04-11T16:07:46.334Z</time></trkpt><trkpt lat="42.7949289" lon="12.389878"><ele>147.0</ele><time>2026-04-11T16:07:48.338Z</time></trkpt><trkpt lat="42.7948846" lon="12.3898061"><ele>147.0</ele><time>2026-04-11T16:07:49.346Z</time></trkpt><trkpt lat="42.7948184" lon="12.3897083"><ele>146.85714285714286</ele><time>2026-04-11T16:07:51.352Z</time></trkpt><trkpt lat="42.7947518" lon="12.3896518"><ele>146.71428571428572</ele><time>2026-04-11T16:07:53.371Z</time></trkpt><trkpt lat="42.7947112" lon="12.3895833"><ele>146.57142857142856</ele><time>2026-04-11T16:07:55.358Z</time></trkpt><trkpt lat="42.7946762" lon="12.3895087"><ele>146.42857142857144</ele><time>2026-04-11T16:21:03.361Z</time></trkpt><trkpt lat="42.7946064" lon="12.3894456"><ele>146.28571428571428</ele><time>2026-04-11T16:21:05.379Z</time></trkpt><trkpt lat="42.7945514" lon="12.3893852"><ele>146.14285714285714</ele><time>2026-04-11T16:21:06.359Z</time></trkpt><trkpt lat="42.7944867" lon="12.3893145"><ele>146.0</ele><time>2026-04-11T16:21:07.365Z</time></trkpt><trkpt lat="42.7944063" lon="12.3892328"><ele>146.25</ele><time>2026-04-11T16:21:08.365Z</time></trkpt><trkpt lat="42.7943191" lon="12.3891378"><ele>146.5</ele><time>2026-04-11T16:21:09.368Z</time></trkpt><trkpt lat="42.7942272" lon="12.3890267"><ele>146.75</ele><time>2026-04-11T16:21:10.362Z</time></trkpt><trkpt lat="42.7941201" lon="12.3889066"><ele>147.0</ele><time>2026-04-11T16:21:11.364Z</time></trkpt><trkpt lat="42.7940015" lon="12.3887684"><ele>146.33333333333334</ele><time>2026-04-11T16:21:12.372Z</time></trkpt><trkpt lat="42.7938726" lon="12.3886185"><ele>145.66666666666669</ele><time>2026-04-11T16:21:13.351Z</time></trkpt><trkpt lat="42.7937421" lon="12.3884598"><ele>145.0</ele><time>2026-04-11T16:21:14.372Z</time></trkpt><trkpt lat="42.7935991" lon="12.3882932"><ele>144.66666666666669</ele><time>2026-04-11T16:21:15.373Z</time></trkpt><trkpt lat="42.7934435" lon="12.3881134"><ele>144.33333333333334</ele><time>2026-04-11T16:21:16.363Z</time></trkpt><trkpt lat="42.7932825" lon="12.3879224"><ele>144.0</ele><time>2026-04-11T16:21:17.358Z</time></trkpt><trkpt lat="42.7931201" lon="12.3877323"><ele>144.33333333333334</ele><time>2026-04-11T16:21:18.362Z</time></trkpt><trkpt lat="42.7929538" lon="12.387531"><ele>144.66666666666669</ele><time>2026-04-11T16:21:19.353Z</time></trkpt><trkpt lat="42.7927827" lon="12.387332"><ele>145.0</ele><time>2026-04-11T16:21:20.357Z</time></trkpt><trkpt lat="42.7926131" lon="12.3871316"><ele>145.0</ele><time>2026-04-11T16:21:21.373Z</time></trkpt><trkpt lat="42.7924377" lon="12.3869304"><ele>145.0</ele><time>2026-04-11T16:21:22.347Z</time></trkpt><trkpt lat="42.7922647" lon="12.3867314"><ele>145.0</ele><time>2026-04-11T16:21:23.362Z</time></trkpt><trkpt lat="42.7920899" lon="12.386528"><ele>145.0</ele><time>2026-04-11T16:21:24.364Z</time></trkpt><trkpt lat="42.7919133" lon="12.386321"><ele>147.0</ele><time>2026-04-11T16:21:25.366Z</time></trkpt><trkpt lat="42.7917352" lon="12.3861131"><ele>149.0</ele><time>2026-04-11T16:21:26.362Z</time></trkpt><trkpt lat="42.7915585" lon="12.385909"><ele>149.0</ele><time>2026-04-11T16:21:27.353Z</time></trkpt><trkpt lat="42.7913769" lon="12.3857038"><ele>149.0</ele><time>2026-04-11T16:21:28.355Z</time></trkpt><trkpt lat="42.7911976" lon="12.3854968"><ele>151.0</ele><time>2026-04-11T16:21:29.364Z</time></trkpt><trkpt lat="42.7910197" lon="12.3852915"><ele>153.0</ele><time>2026-04-11T16:21:30.353Z</time></trkpt><trkpt lat="42.7908434" lon="12.3850857"><ele>153.0</ele><time>2026-04-11T16:21:31.357Z</time></trkpt><trkpt lat="42.7906676" lon="12.3848787"><ele>153.0</ele><time>2026-04-11T16:21:32.341Z</time></trkpt><trkpt lat="42.7904895" lon="12.384674"><ele>153.5</ele><time>2026-04-11T16:21:33.341Z</time></trkpt><trkpt lat="42.790313" lon="12.3844718"><ele>154.0</ele><time>2026-04-11T16:21:34.362Z</time></trkpt><trkpt lat="42.790142" lon="12.3842674"><ele>154.0</ele><time>2026-04-11T16:21:35.346Z</time></trkpt><trkpt lat="42.7899715" lon="12.384061"><ele>154.0</ele><time>2026-04-11T16:21:36.348Z</time></trkpt><trkpt lat="42.7898045" lon="12.3838547"><ele>158.66666666666669</ele><time>2026-04-11T16:21:37.365Z</time></trkpt><trkpt lat="42.7896457" lon="12.383648"><ele>163.33333333333334</ele><time>2026-04-11T16:21:38.368Z</time></trkpt><trkpt lat="42.7894944" lon="12.3834302"><ele>168.0</ele><time>2026-04-11T16:21:39.36Z</time></trkpt><trkpt lat="42.7893538" lon="12.3832041"><ele>168.0</ele><time>2026-04-11T16:21:40.369Z</time></trkpt><trkpt lat="42.7892207" lon="12.3829689"><ele>168.0</ele><time>2026-04-11T16:21:41.353Z</time></trkpt><trkpt lat="42.7890929" lon="12.3827189"><ele>168.0</ele><time>2026-04-11T16:21:42.339Z</time></trkpt><trkpt lat="42.7889693" lon="12.3824596"><ele>168.0</ele><time>2026-04-11T16:21:43.369Z</time></trkpt><trkpt lat="42.7888565" lon="12.3822097"><ele>168.0</ele><time>2026-04-11T16:21:44.339Z</time></trkpt><trkpt lat="42.7887594" lon="12.3819393"><ele>168.0</ele><time>2026-04-11T16:21:45.348Z</time></trkpt><trkpt lat="42.7886671" lon="12.3816725"><ele>169.33333333333334</ele><time>2026-04-11T16:21:46.36Z</time></trkpt><trkpt lat="42.7885895" lon="12.3813938"><ele>170.66666666666669</ele><time>2026-04-11T16:21:47.362Z</time></trkpt><trkpt lat="42.7885215" lon="12.3811114"><ele>172.0</ele><time>2026-04-11T16:21:48.343Z</time></trkpt><trkpt lat="42.78846" lon="12.3808227"><ele>166.33333333333334</ele><time>2026-04-11T16:21:49.355Z</time></trkpt><trkpt lat="42.7884092" lon="12.3805306"><ele>160.66666666666666</ele><time>2026-04-11T16:21:50.338Z</time></trkpt><trkpt lat="42.7883715" lon="12.3802346"><ele>155.0</ele><time>2026-04-11T16:21:51.359Z</time></trkpt><trkpt lat="42.7883352" lon="12.379935"><ele>154.0</ele><time>2026-04-11T16:21:52.369Z</time></trkpt><trkpt lat="42.7883051" lon="12.3796307"><ele>153.0</ele><time>2026-04-11T16:21:53.361Z</time></trkpt><trkpt lat="42.7882734" lon="12.3793242"><ele>153.0</ele><time>2026-04-11T16:21:54.365Z</time></trkpt><trkpt lat="42.7882426" lon="12.3790191"><ele>153.0</ele><time>2026-04-11T16:21:55.344Z</time></trkpt><trkpt lat="42.7882097" lon="12.3787155"><ele>154.0</ele><time>2026-04-11T16:21:56.342Z</time></trkpt><trkpt lat="42.7881761" lon="12.3784099"><ele>155.0</ele><time>2026-04-11T16:21:57.359Z</time></trkpt><trkpt lat="42.7881419" lon="12.3781152"><ele>156.0</ele><time>2026-04-11T16:21:58.348Z</time></trkpt><trkpt lat="42.788103" lon="12.3778113"><ele>158.5</ele><time>2026-04-11T16:21:59.353Z</time></trkpt><trkpt lat="42.7880612" lon="12.3775085"><ele>161.0</ele><time>2026-04-11T16:22:00.35Z</time></trkpt><trkpt lat="42.7880093" lon="12.3772071"><ele>164.5</ele><time>2026-04-11T16:22:01.369Z</time></trkpt><trkpt lat="42.7879443" lon="12.376905"><ele>168.0</ele><time>2026-04-11T16:22:02.341Z</time></trkpt><trkpt lat="42.787866" lon="12.3766205"><ele>165.5</ele><time>2026-04-11T16:22:03.359Z</time></trkpt><trkpt lat="42.7877765" lon="12.3763344"><ele>163.0</ele><time>2026-04-11T16:22:04.373Z</time></trkpt><trkpt lat="42.7876755" lon="12.3760577"><ele>163.0</ele><time>2026-04-11T16:22:05.351Z</time></trkpt><trkpt lat="42.7875635" lon="12.3757814"><ele>163.0</ele><time>2026-04-11T16:22:06.36Z</time></trkpt><trkpt lat="42.7874422" lon="12.3755106"><ele>171.5</ele><time>2026-04-11T16:22:07.374Z</time></trkpt><trkpt lat="42.7873125" lon="12.3752476"><ele>180.0</ele><time>2026-04-11T16:22:08.35Z</time></trkpt><trkpt lat="42.787176" lon="12.3749913"><ele>180.0</ele><time>2026-04-11T16:22:09.36Z</time></trkpt><trkpt lat="42.7870395" lon="12.3747341"><ele>180.0</ele><time>2026-04-11T16:22:10.36Z</time></trkpt><trkpt lat="42.7869061" lon="12.3744735"><ele>171.5</ele><time>2026-04-11T16:22:11.349Z</time></trkpt><trkpt lat="42.7867741" lon="12.374212"><ele>163.0</ele><time>2026-04-11T16:22:12.367Z</time></trkpt><trkpt lat="42.7866399" lon="12.3739532"><ele>175.0</ele><time>2026-04-11T16:22:13.365Z</time></trkpt><trkpt lat="42.7865045" lon="12.3737017"><ele>187.0</ele><time>2026-04-11T16:22:14.349Z</time></trkpt><trkpt lat="42.7863669" lon="12.3734586"><ele>187.0</ele><time>2026-04-11T16:22:15.373Z</time></trkpt><trkpt lat="42.7862307" lon="12.373224"><ele>187.0</ele><time>2026-04-11T16:22:16.358Z</time></trkpt><trkpt lat="42.7860911" lon="12.3730005"><ele>187.0</ele><time>2026-04-11T16:22:17.361Z</time></trkpt><trkpt lat="42.7859375" lon="12.3727893"><ele>184.66666666666669</ele><time>2026-04-11T16:22:18.355Z</time></trkpt><trkpt lat="42.7857764" lon="12.3725932"><ele>182.33333333333334</ele><time>2026-04-11T16:22:19.356Z</time></trkpt><trkpt lat="42.785606" lon="12.3724195"><ele>180.0</ele><time>2026-04-11T16:22:20.334Z</time></trkpt><trkpt lat="42.7854306" lon="12.3722662"><ele>179.33333333333334</ele><time>2026-04-11T16:22:21.363Z</time></trkpt><trkpt lat="42.7852512" lon="12.3721406"><ele>178.66666666666669</ele><time>2026-04-11T16:22:22.359Z</time></trkpt><trkpt lat="42.7850615" lon="12.372032"><ele>178.0</ele><time>2026-04-11T16:22:23.359Z</time></trkpt><trkpt lat="42.7848609" lon="12.3719398"><ele>178.0</ele><time>2026-04-11T16:22:24.355Z</time></trkpt><trkpt lat="42.7846584" lon="12.3718721"><ele>178.0</ele><time>2026-04-11T16:22:25.361Z</time></trkpt><trkpt lat="42.7844463" lon="12.3718329"><ele>178.0</ele><time>2026-04-11T16:22:26.348Z</time></trkpt><trkpt lat="42.7842293" lon="12.3718111"><ele>174.33333333333334</ele><time>2026-04-11T16:22:27.353Z</time></trkpt><trkpt lat="42.784009" lon="12.3717985"><ele>170.66666666666666</ele><time>2026-04-11T16:22:28.35Z</time></trkpt><trkpt lat="42.7837859" lon="12.3717871"><ele>167.0</ele><time>2026-04-11T16:22:29.353Z</time></trkpt><trkpt lat="42.7835651" lon="12.3717737"><ele>167.5</ele><time>2026-04-11T16:22:30.36Z</time></trkpt><trkpt lat="42.7833372" lon="12.3717634"><ele>168.0</ele><time>2026-04-11T16:22:31.36Z</time></trkpt><trkpt lat="42.7831076" lon="12.3717524"><ele>168.0</ele><time>2026-04-11T16:22:32.361Z</time></trkpt><trkpt lat="42.782874" lon="12.3717407"><ele>168.0</ele><time>2026-04-11T16:22:33.344Z</time></trkpt><trkpt lat="42.7826427" lon="12.3717296"><ele>167.0</ele><time>2026-04-11T16:22:34.344Z</time></trkpt><trkpt lat="42.7824114" lon="12.3717172"><ele>166.0</ele><time>2026-04-11T16:22:35.363Z</time></trkpt><trkpt lat="42.7821765" lon="12.3717113"><ele>166.0</ele><time>2026-04-11T16:22:36.338Z</time></trkpt><trkpt lat="42.7819437" lon="12.3717178"><ele>166.0</ele><time>2026-04-11T16:22:37.348Z</time></trkpt><trkpt lat="42.781709" lon="12.3717385"><ele>165.5</ele><time>2026-04-11T16:22:38.355Z</time></trkpt><trkpt lat="42.7814782" lon="12.371772"><ele>165.0</ele><time>2026-04-11T16:22:39.357Z</time></trkpt><trkpt lat="42.7812581" lon="12.3718098"><ele>165.0</ele><time>2026-04-11T16:22:40.351Z</time></trkpt><trkpt lat="42.7810424" lon="12.3718543"><ele>165.0</ele><time>2026-04-11T16:22:41.354Z</time></trkpt><trkpt lat="42.7808232" lon="12.3719124"><ele>165.0</ele><time>2026-04-11T16:22:42.345Z</time></trkpt><trkpt lat="42.7806104" lon="12.3719728"><ele>163.66666666666666</ele><time>2026-04-11T16:22:43.355Z</time></trkpt><trkpt lat="42.7803985" lon="12.3720471"><ele>162.33333333333331</ele><time>2026-04-11T16:22:44.34Z</time></trkpt><trkpt lat="42.7801865" lon="12.3721245"><ele>161.0</ele><time>2026-04-11T16:22:45.352Z</time></trkpt><trkpt lat="42.7799755" lon="12.3722106"><ele>156.33333333333331</ele><time>2026-04-11T16:22:46.351Z</time></trkpt><trkpt lat="42.7797674" lon="12.3722939"><ele>151.66666666666666</ele><time>2026-04-11T16:22:47.356Z</time></trkpt><trkpt lat="42.7795598" lon="12.3723779"><ele>147.0</ele><time>2026-04-11T16:22:48.333Z</time></trkpt><trkpt lat="42.7793536" lon="12.372461"><ele>148.66666666666666</ele><time>2026-04-11T16:22:49.365Z</time></trkpt><trkpt lat="42.7791497" lon="12.3725434"><ele>150.33333333333331</ele><time>2026-04-11T16:22:50.36Z</time></trkpt><trkpt lat="42.7789537" lon="12.3726236"><ele>152.0</ele><time>2026-04-11T16:22:51.365Z</time></trkpt><trkpt lat="42.7787643" lon="12.3726983"><ele>152.0</ele><time>2026-04-11T16:22:52.361Z</time></trkpt><trkpt lat="42.7785792" lon="12.3727701"><ele>152.0</ele><time>2026-04-11T16:22:53.361Z</time></trkpt><trkpt lat="42.7783928" lon="12.3728496"><ele>152.0</ele><time>2026-04-11T16:22:54.362Z</time></trkpt><trkpt lat="42.7782073" lon="12.3729263"><ele>152.0</ele><time>2026-04-11T16:22:55.361Z</time></trkpt><trkpt lat="42.7780247" lon="12.3730067"><ele>152.0</ele><time>2026-04-11T16:22:56.354Z</time></trkpt><trkpt lat="42.7778389" lon="12.3730783"><ele>152.0</ele><time>2026-04-11T16:22:57.357Z</time></trkpt><trkpt lat="42.7776505" lon="12.3731286"><ele>149.66666666666666</ele><time>2026-04-11T16:22:58.359Z</time></trkpt><trkpt lat="42.7774552" lon="12.3731474"><ele>147.33333333333334</ele><time>2026-04-11T16:22:59.361Z</time></trkpt><trkpt lat="42.7772564" lon="12.373128"><ele>145.0</ele><time>2026-04-11T16:23:00.355Z</time></trkpt><trkpt lat="42.7770653" lon="12.3730589"><ele>147.0</ele><time>2026-04-11T16:23:01.366Z</time></trkpt><trkpt lat="42.7768818" lon="12.3729739"><ele>149.0</ele><time>2026-04-11T16:23:02.348Z</time></trkpt><trkpt lat="42.7766974" lon="12.372872"><ele>151.0</ele><time>2026-04-11T16:23:03.359Z</time></trkpt><trkpt lat="42.7765081" lon="12.3727527"><ele>151.0</ele><time>2026-04-11T16:23:04.355Z</time></trkpt><trkpt lat="42.7763149" lon="12.3726202"><ele>151.0</ele><time>2026-04-11T16:23:05.351Z</time></trkpt><trkpt lat="42.7761205" lon="12.3724912"><ele>151.0</ele><time>2026-04-11T16:23:06.355Z</time></trkpt><trkpt lat="42.7759179" lon="12.3723593"><ele>151.0</ele><time>2026-04-11T16:23:07.35Z</time></trkpt><trkpt lat="42.7757084" lon="12.3722231"><ele>151.0</ele><time>2026-04-11T16:23:08.351Z</time></trkpt><trkpt lat="42.7754983" lon="12.3720831"><ele>151.0</ele><time>2026-04-11T16:23:09.365Z</time></trkpt><trkpt lat="42.7752838" lon="12.3719439"><ele>151.0</ele><time>2026-04-11T16:23:10.355Z</time></trkpt><trkpt lat="42.7750697" lon="12.371805"><ele>149.0</ele><time>2026-04-11T16:23:11.352Z</time></trkpt><trkpt lat="42.7748552" lon="12.3716644"><ele>147.0</ele><time>2026-04-11T16:23:12.342Z</time></trkpt><trkpt lat="42.7746416" lon="12.3715157"><ele>147.0</ele><time>2026-04-11T16:23:13.349Z</time></trkpt><trkpt lat="42.7744338" lon="12.3713604"><ele>147.0</ele><time>2026-04-11T16:23:14.363Z</time></trkpt><trkpt lat="42.7742297" lon="12.371184"><ele>148.0</ele><time>2026-04-11T16:23:15.364Z</time></trkpt><trkpt lat="42.7740411" lon="12.3709893"><ele>149.0</ele><time>2026-04-11T16:23:16.36Z</time></trkpt><trkpt lat="42.7738599" lon="12.370776"><ele>149.0</ele><time>2026-04-11T16:23:17.363Z</time></trkpt><trkpt lat="42.7736904" lon="12.3705413"><ele>149.0</ele><time>2026-04-11T16:23:18.36Z</time></trkpt><trkpt lat="42.7735303" lon="12.3702843"><ele>148.0</ele><time>2026-04-11T16:23:19.367Z</time></trkpt><trkpt lat="42.773389" lon="12.3700155"><ele>147.0</ele><time>2026-04-11T16:23:20.36Z</time></trkpt><trkpt lat="42.7732544" lon="12.3697315"><ele>149.5</ele><time>2026-04-11T16:23:21.354Z</time></trkpt><trkpt lat="42.7731357" lon="12.3694347"><ele>152.0</ele><time>2026-04-11T16:23:22.365Z</time></trkpt><trkpt lat="42.7730363" lon="12.3691341"><ele>155.5</ele><time>2026-04-11T16:23:23.36Z</time></trkpt><trkpt lat="42.7729582" lon="12.3688298"><ele>159.0</ele><time>2026-04-11T16:23:24.346Z</time></trkpt><trkpt lat="42.7728907" lon="12.3685164"><ele>159.0</ele><time>2026-04-11T16:23:25.365Z</time></trkpt><trkpt lat="42.7728388" lon="12.3681981"><ele>159.0</ele><time>2026-04-11T16:23:26.357Z</time></trkpt><trkpt lat="42.7727893" lon="12.3678713"><ele>161.5</ele><time>2026-04-11T16:23:27.362Z</time></trkpt><trkpt lat="42.7727369" lon="12.3675514"><ele>164.0</ele><time>2026-04-11T16:23:28.352Z</time></trkpt><trkpt lat="42.7726834" lon="12.367242"><ele>155.5</ele><time>2026-04-11T16:23:29.364Z</time></trkpt><trkpt lat="42.7726277" lon="12.3669321"><ele>147.0</ele><time>2026-04-11T16:23:30.362Z</time></trkpt><trkpt lat="42.7725734" lon="12.3666454"><ele>147.0</ele><time>2026-04-11T16:23:31.365Z</time></trkpt><trkpt lat="42.7725175" lon="12.3663763"><ele>147.0</ele><time>2026-04-11T16:23:32.341Z</time></trkpt><trkpt lat="42.7724554" lon="12.3661127"><ele>147.0</ele><time>2026-04-11T16:23:33.349Z</time></trkpt><trkpt lat="42.7723785" lon="12.3658544"><ele>148.33333333333334</ele><time>2026-04-11T16:23:34.365Z</time></trkpt><trkpt lat="42.7722836" lon="12.3656045"><ele>149.66666666666669</ele><time>2026-04-11T16:23:35.361Z</time></trkpt><trkpt lat="42.772168" lon="12.3653603"><ele>151.0</ele><time>2026-04-11T16:23:36.355Z</time></trkpt><trkpt lat="42.7720435" lon="12.3651251"><ele>150.66666666666669</ele><time>2026-04-11T16:23:37.362Z</time></trkpt><trkpt lat="42.7719074" lon="12.3648967"><ele>150.33333333333334</ele><time>2026-04-11T16:23:38.353Z</time></trkpt><trkpt lat="42.7717644" lon="12.3646736"><ele>150.0</ele><time>2026-04-11T16:23:39.368Z</time></trkpt><trkpt lat="42.7716192" lon="12.3644499"><ele>150.0</ele><time>2026-04-11T16:23:40.367Z</time></trkpt><trkpt lat="42.7714745" lon="12.3642275"><ele>150.0</ele><time>2026-04-11T16:23:41.36Z</time></trkpt><trkpt lat="42.7713314" lon="12.3640009"><ele>150.0</ele><time>2026-04-11T16:23:42.357Z</time></trkpt><trkpt lat="42.7711901" lon="12.3637745"><ele>151.33333333333334</ele><time>2026-04-11T16:23:43.36Z</time></trkpt><trkpt lat="42.7710486" lon="12.3635427"><ele>152.66666666666669</ele><time>2026-04-11T16:23:44.355Z</time></trkpt><trkpt lat="42.770909" lon="12.3633124"><ele>154.0</ele><time>2026-04-11T16:23:45.372Z</time></trkpt><trkpt lat="42.7707639" lon="12.3630841"><ele>153.33333333333334</ele><time>2026-04-11T16:23:46.354Z</time></trkpt><trkpt lat="42.770619" lon="12.362853"><ele>152.66666666666666</ele><time>2026-04-11T16:23:47.367Z</time></trkpt><trkpt lat="42.770473" lon="12.3626249"><ele>152.0</ele><time>2026-04-11T16:23:48.365Z</time></trkpt><trkpt lat="42.7703274" lon="12.3623989"><ele>150.33333333333331</ele><time>2026-04-11T16:23:49.362Z</time></trkpt><trkpt lat="42.7701819" lon="12.362176"><ele>148.66666666666666</ele><time>2026-04-11T16:23:50.367Z</time></trkpt><trkpt lat="42.7700403" lon="12.3619521"><ele>147.0</ele><time>2026-04-11T16:23:51.376Z</time></trkpt><trkpt lat="42.7698963" lon="12.3617275"><ele>147.0</ele><time>2026-04-11T16:23:52.369Z</time></trkpt><trkpt lat="42.769752" lon="12.3615028"><ele>147.0</ele><time>2026-04-11T16:23:53.346Z</time></trkpt><trkpt lat="42.7696088" lon="12.3612777"><ele>147.0</ele><time>2026-04-11T16:23:54.366Z</time></trkpt><trkpt lat="42.7694592" lon="12.3610521"><ele>146.33333333333334</ele><time>2026-04-11T16:23:55.373Z</time></trkpt><trkpt lat="42.7693054" lon="12.3608384"><ele>145.66666666666669</ele><time>2026-04-11T16:23:56.359Z</time></trkpt><trkpt lat="42.7691418" lon="12.3606448"><ele>145.0</ele><time>2026-04-11T16:23:57.357Z</time></trkpt><trkpt lat="42.7689706" lon="12.3604658"><ele>145.66666666666669</ele><time>2026-04-11T16:23:58.338Z</time></trkpt><trkpt lat="42.7687895" lon="12.3602951"><ele>146.33333333333334</ele><time>2026-04-11T16:23:59.368Z</time></trkpt><trkpt lat="42.7686075" lon="12.3601273"><ele>147.0</ele><time>2026-04-11T16:24:00.348Z</time></trkpt><trkpt lat="42.7684279" lon="12.3599484"><ele>147.0</ele><time>2026-04-11T16:24:01.354Z</time></trkpt><trkpt lat="42.7682452" lon="12.3597774"><ele>147.0</ele><time>2026-04-11T16:24:02.361Z</time></trkpt><trkpt lat="42.768074" lon="12.3596062"><ele>147.0</ele><time>2026-04-11T16:24:03.354Z</time></trkpt><trkpt lat="42.7679205" lon="12.3594425"><ele>146.66666666666666</ele><time>2026-04-11T16:24:04.365Z</time></trkpt><trkpt lat="42.7677742" lon="12.3592694"><ele>146.33333333333331</ele><time>2026-04-11T16:24:05.357Z</time></trkpt><trkpt lat="42.7676409" lon="12.3590814"><ele>146.0</ele><time>2026-04-11T16:24:06.339Z</time></trkpt><trkpt lat="42.7675262" lon="12.3588685"><ele>146.66666666666666</ele><time>2026-04-11T16:24:07.361Z</time></trkpt><trkpt lat="42.7674361" lon="12.3586261"><ele>147.33333333333334</ele><time>2026-04-11T16:24:08.333Z</time></trkpt><trkpt lat="42.7673725" lon="12.3583636"><ele>148.0</ele><time>2026-04-11T16:24:09.35Z</time></trkpt><trkpt lat="42.7673178" lon="12.3581001"><ele>149.0</ele><time>2026-04-11T16:24:10.349Z</time></trkpt><trkpt lat="42.7672687" lon="12.3578242"><ele>150.0</ele><time>2026-04-11T16:24:11.354Z</time></trkpt><trkpt lat="42.767219" lon="12.3575412"><ele>151.0</ele><time>2026-04-11T16:24:12.336Z</time></trkpt><trkpt lat="42.7671655" lon="12.3572653"><ele>152.0</ele><time>2026-04-11T16:24:13.367Z</time></trkpt><trkpt lat="42.7671114" lon="12.3570068"><ele>153.0</ele><time>2026-04-11T16:24:14.364Z</time></trkpt><trkpt lat="42.7670568" lon="12.3567499"><ele>154.0</ele><time>2026-04-11T16:24:15.361Z</time></trkpt><trkpt lat="42.7669998" lon="12.3565078"><ele>152.0</ele><time>2026-04-11T16:24:16.367Z</time></trkpt><trkpt lat="42.766934" lon="12.3562673"><ele>150.0</ele><time>2026-04-11T16:24:17.361Z</time></trkpt><trkpt lat="42.7668434" lon="12.3560316"><ele>148.0</ele><time>2026-04-11T16:24:18.353Z</time></trkpt><trkpt lat="42.7667351" lon="12.3557984"><ele>148.0</ele><time>2026-04-11T16:24:19.364Z</time></trkpt><trkpt lat="42.7666199" lon="12.3555689"><ele>148.0</ele><time>2026-04-11T16:24:20.334Z</time></trkpt><trkpt lat="42.7665067" lon="12.3553362"><ele>148.0</ele><time>2026-04-11T16:24:21.352Z</time></trkpt><trkpt lat="42.7663889" lon="12.3551009"><ele>148.0</ele><time>2026-04-11T16:24:22.355Z</time></trkpt><trkpt lat="42.7662769" lon="12.3548653"><ele>148.0</ele><time>2026-04-11T16:24:23.35Z</time></trkpt><trkpt lat="42.7661687" lon="12.354623"><ele>148.0</ele><time>2026-04-11T16:24:24.361Z</time></trkpt><trkpt lat="42.7660679" lon="12.3543737"><ele>149.0</ele><time>2026-04-11T16:24:25.361Z</time></trkpt><trkpt lat="42.7659658" lon="12.3541199"><ele>150.0</ele><time>2026-04-11T16:24:26.354Z</time></trkpt><trkpt lat="42.7658732" lon="12.3538596"><ele>151.0</ele><time>2026-04-11T16:24:27.367Z</time></trkpt><trkpt lat="42.7657886" lon="12.3535935"><ele>151.0</ele><time>2026-04-11T16:24:28.341Z</time></trkpt><trkpt lat="42.7657048" lon="12.3533263"><ele>151.0</ele><time>2026-04-11T16:24:29.366Z</time></trkpt><trkpt lat="42.7656196" lon="12.3530568"><ele>151.0</ele><time>2026-04-11T16:24:30.349Z</time></trkpt><trkpt lat="42.7655313" lon="12.3527872"><ele>155.66666666666669</ele><time>2026-04-11T16:24:31.348Z</time></trkpt><trkpt lat="42.765442" lon="12.3525192"><ele>160.33333333333334</ele><time>2026-04-11T16:24:32.353Z</time></trkpt><trkpt lat="42.7653523" lon="12.3522446"><ele>165.0</ele><time>2026-04-11T16:24:33.347Z</time></trkpt><trkpt lat="42.7652642" lon="12.3519696"><ele>162.0</ele><time>2026-04-11T16:24:34.365Z</time></trkpt><trkpt lat="42.7651795" lon="12.3516951"><ele>159.0</ele><time>2026-04-11T16:24:35.344Z</time></trkpt><trkpt lat="42.7650949" lon="12.3514247"><ele>156.0</ele><time>2026-04-11T16:24:36.359Z</time></trkpt><trkpt lat="42.7650089" lon="12.3511538"><ele>156.0</ele><time>2026-04-11T16:24:37.366Z</time></trkpt><trkpt lat="42.7649241" lon="12.3508834"><ele>156.0</ele><time>2026-04-11T16:24:38.336Z</time></trkpt><trkpt lat="42.7648387" lon="12.3506176"><ele>156.0</ele><time>2026-04-11T16:24:39.356Z</time></trkpt><trkpt lat="42.764755" lon="12.3503604"><ele>158.0</ele><time>2026-04-11T16:24:40.372Z</time></trkpt><trkpt lat="42.7646623" lon="12.3501172"><ele>160.0</ele><time>2026-04-11T16:24:41.35Z</time></trkpt><trkpt lat="42.7645534" lon="12.3498881"><ele>162.0</ele><time>2026-04-11T16:24:42.351Z</time></trkpt><trkpt lat="42.7644259" lon="12.3496717"><ele>158.33333333333334</ele><time>2026-04-11T16:24:43.354Z</time></trkpt><trkpt lat="42.7642798" lon="12.3494831"><ele>154.66666666666669</ele><time>2026-04-11T16:24:44.372Z</time></trkpt><trkpt lat="42.7641189" lon="12.3493173"><ele>151.0</ele><time>2026-04-11T16:24:45.367Z</time></trkpt><trkpt lat="42.7639514" lon="12.3491678"><ele>151.0</ele><time>2026-04-11T16:24:46.334Z</time></trkpt><trkpt lat="42.7637861" lon="12.3490303"><ele>151.0</ele><time>2026-04-11T16:24:47.349Z</time></trkpt><trkpt lat="42.7636276" lon="12.3488982"><ele>151.0</ele><time>2026-04-11T16:24:48.352Z</time></trkpt><trkpt lat="42.7634781" lon="12.3487705"><ele>150.0</ele><time>2026-04-11T16:24:49.36Z</time></trkpt><trkpt lat="42.7633357" lon="12.3486512"><ele>149.0</ele><time>2026-04-11T16:24:50.354Z</time></trkpt><trkpt lat="42.7632055" lon="12.3485334"><ele>148.0</ele><time>2026-04-11T16:24:51.362Z</time></trkpt><trkpt lat="42.7630838" lon="12.3484254"><ele>148.0</ele><time>2026-04-11T16:24:52.365Z</time></trkpt><trkpt lat="42.7629707" lon="12.3483331"><ele>148.0</ele><time>2026-04-11T16:24:53.361Z</time></trkpt><trkpt lat="42.7628615" lon="12.3482472"><ele>148.0</ele><time>2026-04-11T16:24:54.36Z</time></trkpt><trkpt lat="42.7627532" lon="12.3481719"><ele>148.0</ele><time>2026-04-11T16:24:55.355Z</time></trkpt><trkpt lat="42.7626554" lon="12.348101"><ele>148.8</ele><time>2026-04-11T16:24:56.375Z</time></trkpt><trkpt lat="42.7625663" lon="12.3480426"><ele>149.60000000000002</ele><time>2026-04-11T16:24:57.372Z</time></trkpt><trkpt lat="42.762485" lon="12.3479851"><ele>150.39999999999998</ele><time>2026-04-11T16:24:58.365Z</time></trkpt><trkpt lat="42.7624062" lon="12.3479292"><ele>151.2</ele><time>2026-04-11T16:24:59.358Z</time></trkpt><trkpt lat="42.7623424" lon="12.3478939"><ele>152.0</ele><time>2026-04-11T16:25:00.36Z</time></trkpt><trkpt lat="42.7622291" lon="12.3478462"><ele>152.0</ele><time>2026-04-11T16:25:02.333Z</time></trkpt><trkpt lat="42.762116" lon="12.3478188"><ele>152.0</ele><time>2026-04-11T16:25:04.368Z</time></trkpt><trkpt lat="42.7620468" lon="12.3478043"><ele>152.0</ele><time>2026-04-11T16:25:05.358Z</time></trkpt><trkpt lat="42.7619749" lon="12.3477936"><ele>152.0</ele><time>2026-04-11T16:25:06.357Z</time></trkpt><trkpt lat="42.7618914" lon="12.3477917"><ele>152.0</ele><time>2026-04-11T16:25:07.364Z</time></trkpt><trkpt lat="42.7618009" lon="12.347788"><ele>152.0</ele><time>2026-04-11T16:25:08.372Z</time></trkpt><trkpt lat="42.7616962" lon="12.3477831"><ele>149.5</ele><time>2026-04-11T16:25:09.366Z</time></trkpt><trkpt lat="42.7615787" lon="12.3477836"><ele>147.0</ele><time>2026-04-11T16:25:10.352Z</time></trkpt><trkpt lat="42.7614534" lon="12.3477761"><ele>144.5</ele><time>2026-04-11T16:25:11.353Z</time></trkpt><trkpt lat="42.7613162" lon="12.3477725"><ele>142.0</ele><time>2026-04-11T16:25:12.354Z</time></trkpt><trkpt lat="42.7611745" lon="12.3477658"><ele>140.25</ele><time>2026-04-11T16:25:13.365Z</time></trkpt><trkpt lat="42.7610309" lon="12.3477568"><ele>138.5</ele><time>2026-04-11T16:25:14.367Z</time></trkpt><trkpt lat="42.7608891" lon="12.3477453"><ele>136.75</ele><time>2026-04-11T16:25:15.363Z</time></trkpt><trkpt lat="42.7607415" lon="12.3477368"><ele>135.0</ele><time>2026-04-11T16:25:16.362Z</time></trkpt><trkpt lat="42.7605919" lon="12.3477272"><ele>135.0</ele><time>2026-04-11T16:25:17.34Z</time></trkpt><trkpt lat="42.7604376" lon="12.3477173"><ele>135.0</ele><time>2026-04-11T16:25:18.355Z</time></trkpt><trkpt lat="42.7602781" lon="12.3477105"><ele>135.0</ele><time>2026-04-11T16:25:19.36Z</time></trkpt><trkpt lat="42.760118" lon="12.3477033"><ele>135.66666666666666</ele><time>2026-04-11T16:25:20.345Z</time></trkpt><trkpt lat="42.7599554" lon="12.3476796"><ele>136.33333333333331</ele><time>2026-04-11T16:25:21.347Z</time></trkpt><trkpt lat="42.7597982" lon="12.347648"><ele>137.0</ele><time>2026-04-11T16:25:22.357Z</time></trkpt><trkpt lat="42.7596432" lon="12.3475858"><ele>137.0</ele><time>2026-04-11T16:25:23.366Z</time></trkpt><trkpt lat="42.7594928" lon="12.3475074"><ele>137.0</ele><time>2026-04-11T16:25:24.359Z</time></trkpt><trkpt lat="42.7593563" lon="12.347399"><ele>137.0</ele><time>2026-04-11T16:25:25.368Z</time></trkpt><trkpt lat="42.7592277" lon="12.3472699"><ele>139.33333333333331</ele><time>2026-04-11T16:25:26.368Z</time></trkpt><trkpt lat="42.7591025" lon="12.3471233"><ele>141.66666666666666</ele><time>2026-04-11T16:25:27.355Z</time></trkpt><trkpt lat="42.7589818" lon="12.3469646"><ele>144.0</ele><time>2026-04-11T16:25:28.359Z</time></trkpt><trkpt lat="42.7588663" lon="12.3467929"><ele>144.0</ele><time>2026-04-11T16:25:29.365Z</time></trkpt><trkpt lat="42.7587612" lon="12.3466127"><ele>144.0</ele><time>2026-04-11T16:25:30.362Z</time></trkpt><trkpt lat="42.7586699" lon="12.3464212"><ele>144.0</ele><time>2026-04-11T16:25:31.362Z</time></trkpt><trkpt lat="42.7585918" lon="12.3462195"><ele>146.0</ele><time>2026-04-11T16:25:32.345Z</time></trkpt><trkpt lat="42.7585268" lon="12.3460086"><ele>148.0</ele><time>2026-04-11T16:25:33.347Z</time></trkpt><trkpt lat="42.7584782" lon="12.3457895"><ele>150.0</ele><time>2026-04-11T16:25:34.359Z</time></trkpt><trkpt lat="42.7584398" lon="12.3455634"><ele>149.33333333333334</ele><time>2026-04-11T16:25:35.363Z</time></trkpt><trkpt lat="42.7584221" lon="12.3453273"><ele>148.66666666666669</ele><time>2026-04-11T16:25:36.349Z</time></trkpt><trkpt lat="42.7584114" lon="12.3450886"><ele>148.0</ele><time>2026-04-11T16:25:37.347Z</time></trkpt><trkpt lat="42.7584005" lon="12.3448433"><ele>148.33333333333334</ele><time>2026-04-11T16:25:38.35Z</time></trkpt><trkpt lat="42.7583819" lon="12.3445963"><ele>148.66666666666666</ele><time>2026-04-11T16:25:39.353Z</time></trkpt><trkpt lat="42.7583567" lon="12.3443377"><ele>149.0</ele><time>2026-04-11T16:25:40.351Z</time></trkpt><trkpt lat="42.7583317" lon="12.34408"><ele>149.66666666666666</ele><time>2026-04-11T16:25:41.359Z</time></trkpt><trkpt lat="42.7583033" lon="12.3438131"><ele>150.33333333333334</ele><time>2026-04-11T16:25:42.359Z</time></trkpt><trkpt lat="42.7582725" lon="12.3435456"><ele>151.0</ele><time>2026-04-11T16:25:43.345Z</time></trkpt><trkpt lat="42.75824" lon="12.3432925"><ele>151.0</ele><time>2026-04-11T16:25:44.344Z</time></trkpt><trkpt lat="42.7582007" lon="12.3430557"><ele>151.0</ele><time>2026-04-11T16:25:45.354Z</time></trkpt><trkpt lat="42.7581427" lon="12.3428314"><ele>151.0</ele><time>2026-04-11T16:25:46.356Z</time></trkpt><trkpt lat="42.7580635" lon="12.3426102"><ele>151.66666666666669</ele><time>2026-04-11T16:25:47.353Z</time></trkpt><trkpt lat="42.7579747" lon="12.342401"><ele>152.33333333333334</ele><time>2026-04-11T16:25:48.344Z</time></trkpt><trkpt lat="42.7578653" lon="12.342206"><ele>153.0</ele><time>2026-04-11T16:25:49.348Z</time></trkpt><trkpt lat="42.7577406" lon="12.3420126"><ele>156.33333333333334</ele><time>2026-04-11T16:25:50.361Z</time></trkpt><trkpt lat="42.7576011" lon="12.3418292"><ele>159.66666666666669</ele><time>2026-04-11T16:25:51.351Z</time></trkpt><trkpt lat="42.7574537" lon="12.3416476"><ele>163.0</ele><time>2026-04-11T16:25:52.353Z</time></trkpt><trkpt lat="42.7573037" lon="12.3414612"><ele>159.66666666666669</ele><time>2026-04-11T16:25:53.365Z</time></trkpt><trkpt lat="42.757151" lon="12.3412686"><ele>156.33333333333334</ele><time>2026-04-11T16:25:54.353Z</time></trkpt><trkpt lat="42.756996" lon="12.3410751"><ele>153.0</ele><time>2026-04-11T16:25:55.353Z</time></trkpt><trkpt lat="42.7568437" lon="12.3408821"><ele>155.66666666666666</ele><time>2026-04-11T16:25:56.357Z</time></trkpt><trkpt lat="42.7566917" lon="12.3406931"><ele>158.33333333333331</ele><time>2026-04-11T16:25:57.356Z</time></trkpt><trkpt lat="42.7565478" lon="12.3404965"><ele>161.0</ele><time>2026-04-11T16:25:58.362Z</time></trkpt><trkpt lat="42.7564148" lon="12.3402903"><ele>161.0</ele><time>2026-04-11T16:25:59.341Z</time></trkpt><trkpt lat="42.7562936" lon="12.3400819"><ele>161.0</ele><time>2026-04-11T16:26:00.359Z</time></trkpt><trkpt lat="42.7561861" lon="12.339848"><ele>161.0</ele><time>2026-04-11T16:26:01.357Z</time></trkpt><trkpt lat="42.7560935" lon="12.339614"><ele>165.33333333333331</ele><time>2026-04-11T16:26:02.358Z</time></trkpt><trkpt lat="42.7560076" lon="12.3393586"><ele>169.66666666666666</ele><time>2026-04-11T16:26:03.344Z</time></trkpt><trkpt lat="42.7559239" lon="12.3391028"><ele>174.0</ele><time>2026-04-11T16:26:04.368Z</time></trkpt><trkpt lat="42.7558369" lon="12.3388419"><ele>174.0</ele><time>2026-04-11T16:26:05.355Z</time></trkpt><trkpt lat="42.7557494" lon="12.3385931"><ele>174.0</ele><time>2026-04-11T16:26:06.352Z</time></trkpt><trkpt lat="42.755665" lon="12.338353"><ele>174.0</ele><time>2026-04-11T16:26:07.363Z</time></trkpt><trkpt lat="42.7555811" lon="12.3381114"><ele>169.33333333333334</ele><time>2026-04-11T16:26:08.369Z</time></trkpt><trkpt lat="42.755499" lon="12.3378729"><ele>164.66666666666669</ele><time>2026-04-11T16:26:09.35Z</time></trkpt><trkpt lat="42.7554143" lon="12.337635"><ele>160.0</ele><time>2026-04-11T16:26:10.351Z</time></trkpt><trkpt lat="42.7553305" lon="12.3373856"><ele>156.66666666666669</ele><time>2026-04-11T16:26:11.348Z</time></trkpt><trkpt lat="42.7552412" lon="12.3371383"><ele>153.33333333333334</ele><time>2026-04-11T16:26:12.354Z</time></trkpt><trkpt lat="42.7551556" lon="12.3368829"><ele>150.0</ele><time>2026-04-11T16:26:13.366Z</time></trkpt><trkpt lat="42.7550667" lon="12.3366274"><ele>157.66666666666666</ele><time>2026-04-11T16:26:14.354Z</time></trkpt><trkpt lat="42.7549781" lon="12.3363694"><ele>165.33333333333331</ele><time>2026-04-11T16:26:15.36Z</time></trkpt><trkpt lat="42.7548912" lon="12.336108"><ele>173.0</ele><time>2026-04-11T16:26:16.356Z</time></trkpt><trkpt lat="42.7548034" lon="12.3358512"><ele>173.0</ele><time>2026-04-11T16:26:17.358Z</time></trkpt><trkpt lat="42.7547165" lon="12.3355914"><ele>173.0</ele><time>2026-04-11T16:26:18.346Z</time></trkpt><trkpt lat="42.7546268" lon="12.3353302"><ele>173.0</ele><time>2026-04-11T16:26:19.344Z</time></trkpt><trkpt lat="42.7545339" lon="12.3350699"><ele>172.66666666666666</ele><time>2026-04-11T16:26:20.355Z</time></trkpt><trkpt lat="42.7544434" lon="12.334819"><ele>172.33333333333334</ele><time>2026-04-11T16:26:21.363Z</time></trkpt><trkpt lat="42.7543483" lon="12.3345738"><ele>172.0</ele><time>2026-04-11T16:26:22.361Z</time></trkpt><trkpt lat="42.7542576" lon="12.3343403"><ele>172.0</ele><time>2026-04-11T16:26:23.348Z</time></trkpt><trkpt lat="42.7541687" lon="12.3341076"><ele>172.0</ele><time>2026-04-11T16:26:24.353Z</time></trkpt><trkpt lat="42.7540801" lon="12.3338786"><ele>172.0</ele><time>2026-04-11T16:26:25.363Z</time></trkpt><trkpt lat="42.7539926" lon="12.3336636"><ele>167.33333333333334</ele><time>2026-04-11T16:26:26.368Z</time></trkpt><trkpt lat="42.7539048" lon="12.333451"><ele>162.66666666666666</ele><time>2026-04-11T16:26:27.368Z</time></trkpt><trkpt lat="42.7538002" lon="12.3332557"><ele>158.0</ele><time>2026-04-11T16:26:28.363Z</time></trkpt><trkpt lat="42.7536862" lon="12.3330685"><ele>157.66666666666666</ele><time>2026-04-11T16:26:29.369Z</time></trkpt><trkpt lat="42.7535432" lon="12.3328992"><ele>157.33333333333334</ele><time>2026-04-11T16:26:30.35Z</time></trkpt><trkpt lat="42.7533814" lon="12.3327427"><ele>157.0</ele><time>2026-04-11T16:26:31.364Z</time></trkpt><trkpt lat="42.7532049" lon="12.3326047"><ele>157.0</ele><time>2026-04-11T16:26:32.338Z</time></trkpt><trkpt lat="42.7530154" lon="12.3324772"><ele>157.0</ele><time>2026-04-11T16:26:33.343Z</time></trkpt><trkpt lat="42.7528233" lon="12.3323496"><ele>157.0</ele><time>2026-04-11T16:26:34.349Z</time></trkpt><trkpt lat="42.7526326" lon="12.3322172"><ele>155.33333333333334</ele><time>2026-04-11T16:26:35.358Z</time></trkpt><trkpt lat="42.7524427" lon="12.3320845"><ele>153.66666666666666</ele><time>2026-04-11T16:26:36.362Z</time></trkpt><trkpt lat="42.7522531" lon="12.331951"><ele>152.0</ele><time>2026-04-11T16:26:37.351Z</time></trkpt><trkpt lat="42.7520602" lon="12.3318149"><ele>152.33333333333331</ele><time>2026-04-11T16:26:38.341Z</time></trkpt><trkpt lat="42.7518667" lon="12.3316758"><ele>152.66666666666666</ele><time>2026-04-11T16:26:39.366Z</time></trkpt><trkpt lat="42.7516731" lon="12.331539"><ele>153.0</ele><time>2026-04-11T16:26:40.352Z</time></trkpt><trkpt lat="42.7514853" lon="12.3313867"><ele>150.33333333333334</ele><time>2026-04-11T16:26:41.36Z</time></trkpt><trkpt lat="42.7513024" lon="12.3312299"><ele>147.66666666666669</ele><time>2026-04-11T16:26:42.357Z</time></trkpt><trkpt lat="42.7511198" lon="12.3310695"><ele>145.0</ele><time>2026-04-11T16:26:43.361Z</time></trkpt><trkpt lat="42.7509375" lon="12.3309092"><ele>144.66666666666669</ele><time>2026-04-11T16:26:44.356Z</time></trkpt><trkpt lat="42.7507543" lon="12.3307499"><ele>144.33333333333334</ele><time>2026-04-11T16:26:45.359Z</time></trkpt><trkpt lat="42.750573" lon="12.3305955"><ele>144.0</ele><time>2026-04-11T16:26:46.351Z</time></trkpt><trkpt lat="42.7503978" lon="12.3304479"><ele>143.0</ele><time>2026-04-11T16:26:47.368Z</time></trkpt><trkpt lat="42.7502306" lon="12.3303096"><ele>142.0</ele><time>2026-04-11T16:26:48.36Z</time></trkpt><trkpt lat="42.7500731" lon="12.3301735"><ele>141.0</ele><time>2026-04-11T16:26:49.356Z</time></trkpt><trkpt lat="42.7499159" lon="12.3300425"><ele>141.0</ele><time>2026-04-11T16:26:50.369Z</time></trkpt><trkpt lat="42.7497688" lon="12.3299076"><ele>141.0</ele><time>2026-04-11T16:26:51.357Z</time></trkpt><trkpt lat="42.7496333" lon="12.3297709"><ele>141.0</ele><time>2026-04-11T16:26:52.36Z</time></trkpt><trkpt lat="42.7495217" lon="12.3296202"><ele>140.33333333333334</ele><time>2026-04-11T16:26:53.361Z</time></trkpt><trkpt lat="42.7494293" lon="12.3294445"><ele>139.66666666666669</ele><time>2026-04-11T16:26:54.348Z</time></trkpt><trkpt lat="42.7493541" lon="12.3292321"><ele>139.0</ele><time>2026-04-11T16:26:55.353Z</time></trkpt><trkpt lat="42.7492831" lon="12.3290156"><ele>139.0</ele><time>2026-04-11T16:26:56.353Z</time></trkpt><trkpt lat="42.7491948" lon="12.3287971"><ele>139.0</ele><time>2026-04-11T16:26:57.356Z</time></trkpt><trkpt lat="42.7490773" lon="12.3285887"><ele>139.0</ele><time>2026-04-11T16:26:58.362Z</time></trkpt><trkpt lat="42.7489449" lon="12.3284112"><ele>139.0</ele><time>2026-04-11T16:26:59.368Z</time></trkpt><trkpt lat="42.7487834" lon="12.3282546"><ele>139.0</ele><time>2026-04-11T16:27:00.36Z</time></trkpt><trkpt lat="42.7486076" lon="12.3281094"><ele>139.0</ele><time>2026-04-11T16:27:01.368Z</time></trkpt><trkpt lat="42.7484211" lon="12.3279589"><ele>138.5</ele><time>2026-04-11T16:27:02.353Z</time></trkpt><trkpt lat="42.7482302" lon="12.3278013"><ele>138.0</ele><time>2026-04-11T16:27:03.354Z</time></trkpt><trkpt lat="42.7480332" lon="12.3276463"><ele>138.0</ele><time>2026-04-11T16:27:04.373Z</time></trkpt><trkpt lat="42.7478335" lon="12.3274846"><ele>138.0</ele><time>2026-04-11T16:27:05.364Z</time></trkpt><trkpt lat="42.7476327" lon="12.3273124"><ele>138.5</ele><time>2026-04-11T16:27:06.359Z</time></trkpt><trkpt lat="42.7474315" lon="12.3271435"><ele>139.0</ele><time>2026-04-11T16:27:07.357Z</time></trkpt><trkpt lat="42.7472316" lon="12.32698"><ele>139.0</ele><time>2026-04-11T16:27:08.362Z</time></trkpt><trkpt lat="42.7470343" lon="12.3268158"><ele>139.0</ele><time>2026-04-11T16:27:09.362Z</time></trkpt><trkpt lat="42.7468399" lon="12.3266494"><ele>138.33333333333334</ele><time>2026-04-11T16:27:10.352Z</time></trkpt><trkpt lat="42.7466485" lon="12.3264956"><ele>137.66666666666666</ele><time>2026-04-11T16:27:11.359Z</time></trkpt><trkpt lat="42.7464599" lon="12.3263416"><ele>137.0</ele><time>2026-04-11T16:27:12.356Z</time></trkpt><trkpt lat="42.7462799" lon="12.3261874"><ele>137.0</ele><time>2026-04-11T16:27:13.355Z</time></trkpt><trkpt lat="42.7461046" lon="12.3260345"><ele>137.0</ele><time>2026-04-11T16:27:14.36Z</time></trkpt><trkpt lat="42.7459354" lon="12.3258746"><ele>137.0</ele><time>2026-04-11T16:27:15.357Z</time></trkpt><trkpt lat="42.745762" lon="12.3257041"><ele>136.33333333333331</ele><time>2026-04-11T16:27:16.37Z</time></trkpt><trkpt lat="42.7456008" lon="12.3255155"><ele>135.66666666666666</ele><time>2026-04-11T16:27:17.353Z</time></trkpt><trkpt lat="42.7454478" lon="12.3253172"><ele>135.0</ele><time>2026-04-11T16:27:18.358Z</time></trkpt><trkpt lat="42.7452949" lon="12.3251217"><ele>136.0</ele><time>2026-04-11T16:27:19.362Z</time></trkpt><trkpt lat="42.745144" lon="12.3249289"><ele>137.0</ele><time>2026-04-11T16:27:20.36Z</time></trkpt><trkpt lat="42.7449992" lon="12.324741"><ele>138.0</ele><time>2026-04-11T16:27:21.334Z</time></trkpt><trkpt lat="42.7448618" lon="12.3245467"><ele>138.0</ele><time>2026-04-11T16:27:22.359Z</time></trkpt><trkpt lat="42.7447193" lon="12.3243506"><ele>138.0</ele><time>2026-04-11T16:27:23.354Z</time></trkpt><trkpt lat="42.7445918" lon="12.3241522"><ele>138.0</ele><time>2026-04-11T16:27:24.35Z</time></trkpt><trkpt lat="42.7444773" lon="12.3239386"><ele>140.33333333333334</ele><time>2026-04-11T16:27:25.359Z</time></trkpt><trkpt lat="42.7443711" lon="12.3237282"><ele>142.66666666666669</ele><time>2026-04-11T16:27:26.355Z</time></trkpt><trkpt lat="42.7442601" lon="12.323537"><ele>145.0</ele><time>2026-04-11T16:27:27.351Z</time></trkpt><trkpt lat="42.744138" lon="12.3233598"><ele>145.0</ele><time>2026-04-11T16:27:28.357Z</time></trkpt><trkpt lat="42.7439905" lon="12.3231957"><ele>145.0</ele><time>2026-04-11T16:27:29.359Z</time></trkpt><trkpt lat="42.7438354" lon="12.3230519"><ele>145.0</ele><time>2026-04-11T16:27:30.349Z</time></trkpt><trkpt lat="42.7436701" lon="12.3229457"><ele>143.0</ele><time>2026-04-11T16:27:31.353Z</time></trkpt><trkpt lat="42.7434874" lon="12.3228476"><ele>141.0</ele><time>2026-04-11T16:27:32.37Z</time></trkpt><trkpt lat="42.7433058" lon="12.3227621"><ele>139.0</ele><time>2026-04-11T16:27:33.343Z</time></trkpt><trkpt lat="42.7431152" lon="12.3226595"><ele>139.0</ele><time>2026-04-11T16:27:34.328Z</time></trkpt><trkpt lat="42.7429389" lon="12.3225247"><ele>139.0</ele><time>2026-04-11T16:27:35.348Z</time></trkpt><trkpt lat="42.7427779" lon="12.3223814"><ele>139.0</ele><time>2026-04-11T16:27:36.363Z</time></trkpt><trkpt lat="42.7426231" lon="12.3222195"><ele>138.33333333333334</ele><time>2026-04-11T16:27:37.357Z</time></trkpt><trkpt lat="42.7424684" lon="12.322068"><ele>137.66666666666666</ele><time>2026-04-11T16:27:38.36Z</time></trkpt><trkpt lat="42.7423237" lon="12.3219261"><ele>137.0</ele><time>2026-04-11T16:27:39.367Z</time></trkpt><trkpt lat="42.7421728" lon="12.3218083"><ele>137.0</ele><time>2026-04-11T16:27:40.357Z</time></trkpt><trkpt lat="42.7420111" lon="12.3217151"><ele>137.0</ele><time>2026-04-11T16:27:41.362Z</time></trkpt><trkpt lat="42.7418528" lon="12.3216683"><ele>137.0</ele><time>2026-04-11T16:27:42.355Z</time></trkpt><trkpt lat="42.7417145" lon="12.3216322"><ele>137.75</ele><time>2026-04-11T16:27:43.345Z</time></trkpt><trkpt lat="42.741607" lon="12.3215555"><ele>138.5</ele><time>2026-04-11T16:27:44.349Z</time></trkpt><trkpt lat="42.7415236" lon="12.3214475"><ele>139.25</ele><time>2026-04-11T16:27:45.354Z</time></trkpt><trkpt lat="42.7414602" lon="12.3212939"><ele>140.0</ele><time>2026-04-11T16:27:46.351Z</time></trkpt><trkpt lat="42.7414093" lon="12.3211279"><ele>140.0</ele><time>2026-04-11T16:27:47.348Z</time></trkpt><trkpt lat="42.741347" lon="12.3209532"><ele>140.0</ele><time>2026-04-11T16:27:48.356Z</time></trkpt><trkpt lat="42.7412698" lon="12.3207699"><ele>140.0</ele><time>2026-04-11T16:27:49.337Z</time></trkpt><trkpt lat="42.7411602" lon="12.3205832"><ele>141.33333333333331</ele><time>2026-04-11T16:27:50.357Z</time></trkpt><trkpt lat="42.7410165" lon="12.3204159"><ele>142.66666666666666</ele><time>2026-04-11T16:27:51.354Z</time></trkpt><trkpt lat="42.7408588" lon="12.3202726"><ele>144.0</ele><time>2026-04-11T16:27:52.36Z</time></trkpt><trkpt lat="42.7406941" lon="12.3201545"><ele>144.0</ele><time>2026-04-11T16:27:53.357Z</time></trkpt><trkpt lat="42.740542" lon="12.3200603"><ele>144.0</ele><time>2026-04-11T16:27:54.353Z</time></trkpt><trkpt lat="42.7404041" lon="12.3199611"><ele>144.0</ele><time>2026-04-11T16:27:55.345Z</time></trkpt><trkpt lat="42.7402619" lon="12.3198615"><ele>144.0</ele><time>2026-04-11T16:27:56.369Z</time></trkpt><trkpt lat="42.7401287" lon="12.3197471"><ele>144.0</ele><time>2026-04-11T16:27:57.362Z</time></trkpt><trkpt lat="42.7400202" lon="12.3196069"><ele>144.0</ele><time>2026-04-11T16:27:58.346Z</time></trkpt><trkpt lat="42.7399408" lon="12.3194336"><ele>144.0</ele><time>2026-04-11T16:27:59.359Z</time></trkpt><trkpt lat="42.7399059" lon="12.31922"><ele>144.0</ele><time>2026-04-11T16:28:00.334Z</time></trkpt><trkpt lat="42.7398933" lon="12.3189944"><ele>144.0</ele><time>2026-04-11T16:28:01.348Z</time></trkpt><trkpt lat="42.7398937" lon="12.3187709"><ele>143.66666666666666</ele><time>2026-04-11T16:28:02.348Z</time></trkpt><trkpt lat="42.7398833" lon="12.3185412"><ele>143.33333333333331</ele><time>2026-04-11T16:28:03.351Z</time></trkpt><trkpt lat="42.7398735" lon="12.3183125"><ele>143.0</ele><time>2026-04-11T16:28:04.348Z</time></trkpt><trkpt lat="42.7398608" lon="12.3180805"><ele>143.33333333333331</ele><time>2026-04-11T16:28:05.364Z</time></trkpt><trkpt lat="42.7398432" lon="12.3178451"><ele>143.66666666666666</ele><time>2026-04-11T16:28:06.347Z</time></trkpt><trkpt lat="42.7398264" lon="12.3176226"><ele>144.0</ele><time>2026-04-11T16:28:07.363Z</time></trkpt><trkpt lat="42.7398084" lon="12.3174147"><ele>143.33333333333334</ele><time>2026-04-11T16:28:08.355Z</time></trkpt><trkpt lat="42.7397757" lon="12.3172085"><ele>142.66666666666669</ele><time>2026-04-11T16:28:09.331Z</time></trkpt><trkpt lat="42.7397288" lon="12.3170097"><ele>142.0</ele><time>2026-04-11T16:28:10.362Z</time></trkpt><trkpt lat="42.7396598" lon="12.3168173"><ele>142.0</ele><time>2026-04-11T16:28:11.354Z</time></trkpt><trkpt lat="42.7395669" lon="12.3166468"><ele>142.0</ele><time>2026-04-11T16:28:12.365Z</time></trkpt><trkpt lat="42.7394566" lon="12.3164903"><ele>142.0</ele><time>2026-04-11T16:28:13.36Z</time></trkpt><trkpt lat="42.7393308" lon="12.3163493"><ele>143.66666666666669</ele><time>2026-04-11T16:28:14.355Z</time></trkpt><trkpt lat="42.7391955" lon="12.316233"><ele>145.33333333333334</ele><time>2026-04-11T16:28:15.366Z</time></trkpt><trkpt lat="42.7390452" lon="12.3161394"><ele>147.0</ele><time>2026-04-11T16:28:16.359Z</time></trkpt><trkpt lat="42.7388869" lon="12.3160756"><ele>147.0</ele><time>2026-04-11T16:28:17.356Z</time></trkpt><trkpt lat="42.7387246" lon="12.316043"><ele>147.0</ele><time>2026-04-11T16:28:18.365Z</time></trkpt><trkpt lat="42.7385579" lon="12.3160526"><ele>147.0</ele><time>2026-04-11T16:28:19.361Z</time></trkpt><trkpt lat="42.7383878" lon="12.3160978"><ele>147.0</ele><time>2026-04-11T16:28:20.36Z</time></trkpt><trkpt lat="42.7382293" lon="12.3161795"><ele>147.0</ele><time>2026-04-11T16:28:21.366Z</time></trkpt><trkpt lat="42.7380741" lon="12.3162901"><ele>147.0</ele><time>2026-04-11T16:28:22.358Z</time></trkpt><trkpt lat="42.737932" lon="12.3164163"><ele>149.0</ele><time>2026-04-11T16:28:23.354Z</time></trkpt><trkpt lat="42.7378024" lon="12.3165559"><ele>151.0</ele><time>2026-04-11T16:28:24.358Z</time></trkpt><trkpt lat="42.7376831" lon="12.3166802"><ele>153.0</ele><time>2026-04-11T16:28:25.359Z</time></trkpt><trkpt lat="42.7375538" lon="12.3167774"><ele>153.0</ele><time>2026-04-11T16:28:26.369Z</time></trkpt><trkpt lat="42.737413" lon="12.3168278"><ele>153.0</ele><time>2026-04-11T16:28:27.366Z</time></trkpt><trkpt lat="42.7372609" lon="12.3168464"><ele>153.0</ele><time>2026-04-11T16:28:28.362Z</time></trkpt><trkpt lat="42.7371068" lon="12.3168441"><ele>153.0</ele><time>2026-04-11T16:28:29.355Z</time></trkpt><trkpt lat="42.7369482" lon="12.3168207"><ele>153.0</ele><time>2026-04-11T16:28:30.349Z</time></trkpt><trkpt lat="42.7367909" lon="12.3167833"><ele>153.0</ele><time>2026-04-11T16:28:31.36Z</time></trkpt><trkpt lat="42.7366399" lon="12.3167394"><ele>154.75</ele><time>2026-04-11T16:28:32.351Z</time></trkpt><trkpt lat="42.7364988" lon="12.316692"><ele>156.5</ele><time>2026-04-11T16:28:33.347Z</time></trkpt><trkpt lat="42.7363668" lon="12.3166473"><ele>158.25</ele><time>2026-04-11T16:28:34.351Z</time></trkpt><trkpt lat="42.7362466" lon="12.3166009"><ele>160.0</ele><time>2026-04-11T16:28:35.354Z</time></trkpt><trkpt lat="42.7361344" lon="12.3165584"><ele>159.5</ele><time>2026-04-11T16:28:36.363Z</time></trkpt><trkpt lat="42.7360432" lon="12.3165162"><ele>159.0</ele><time>2026-04-11T16:28:37.36Z</time></trkpt><trkpt lat="42.7359704" lon="12.3164596"><ele>158.5</ele><time>2026-04-11T16:28:38.342Z</time></trkpt><trkpt lat="42.735918" lon="12.3164059"><ele>158.0</ele><time>2026-04-11T16:28:39.356Z</time></trkpt><trkpt lat="42.7358768" lon="12.3162683"><ele>157.5</ele><time>2026-04-11T16:28:41.336Z</time></trkpt><trkpt lat="42.7358538" lon="12.3161839"><ele>157.0</ele><time>2026-04-11T16:28:44.341Z</time></trkpt><trkpt lat="42.7358184" lon="12.3161116"><ele>157.0</ele><time>2026-04-11T16:31:19.353Z</time></trkpt><trkpt lat="42.7357434" lon="12.3160925"><ele>157.0</ele><time>2026-04-11T16:31:22.361Z</time></trkpt><trkpt lat="42.73567" lon="12.3161462"><ele>157.0</ele><time>2026-04-11T16:31:24.343Z</time></trkpt><trkpt lat="42.7355859" lon="12.3162106"><ele>157.0</ele><time>2026-04-11T16:31:26.358Z</time></trkpt><trkpt lat="42.7355061" lon="12.3162457"><ele>157.0</ele><time>2026-04-11T16:31:28.356Z</time></trkpt><trkpt lat="42.7354207" lon="12.3162509"><ele>157.0</ele><time>2026-04-11T16:31:30.336Z</time></trkpt><trkpt lat="42.7353133" lon="12.3162225"><ele>157.0</ele><time>2026-04-11T16:31:32.353Z</time></trkpt><trkpt lat="42.735243" lon="12.3161933"><ele>157.0</ele><time>2026-04-11T16:31:33.37Z</time></trkpt><trkpt lat="42.7351596" lon="12.3161671"><ele>157.0</ele><time>2026-04-11T16:31:34.357Z</time></trkpt><trkpt lat="42.735068" lon="12.3161341"><ele>157.0</ele><time>2026-04-11T16:31:35.365Z</time></trkpt><trkpt lat="42.7349747" lon="12.3160954"><ele>157.0</ele><time>2026-04-11T16:31:36.351Z</time></trkpt><trkpt lat="42.7348838" lon="12.3160496"><ele>157.0</ele><time>2026-04-11T16:31:37.355Z</time></trkpt><trkpt lat="42.7347951" lon="12.315997"><ele>156.79999999999998</ele><time>2026-04-11T16:31:38.345Z</time></trkpt><trkpt lat="42.7347112" lon="12.3159272"><ele>156.6</ele><time>2026-04-11T16:31:39.371Z</time></trkpt><trkpt lat="42.7346316" lon="12.3158397"><ele>156.39999999999998</ele><time>2026-04-11T16:31:40.35Z</time></trkpt><trkpt lat="42.7345532" lon="12.3157322"><ele>156.2</ele><time>2026-04-11T16:31:41.35Z</time></trkpt><trkpt lat="42.7344788" lon="12.3156151"><ele>156.0</ele><time>2026-04-11T16:31:42.333Z</time></trkpt><trkpt lat="42.7344046" lon="12.3154836"><ele>159.0</ele><time>2026-04-11T16:31:43.357Z</time></trkpt><trkpt lat="42.7343345" lon="12.315353"><ele>162.0</ele><time>2026-04-11T16:31:44.361Z</time></trkpt><trkpt lat="42.7342639" lon="12.3152295"><ele>165.0</ele><time>2026-04-11T16:31:45.361Z</time></trkpt><trkpt lat="42.7341994" lon="12.3151121"><ele>168.0</ele><time>2026-04-11T16:31:46.353Z</time></trkpt><trkpt lat="42.7341393" lon="12.3149904"><ele>171.0</ele><time>2026-04-11T16:31:47.366Z</time></trkpt><trkpt lat="42.7340839" lon="12.3148624"><ele>169.4</ele><time>2026-04-11T16:31:48.364Z</time></trkpt><trkpt lat="42.7340489" lon="12.3147237"><ele>167.8</ele><time>2026-04-11T16:31:49.359Z</time></trkpt><trkpt lat="42.7340269" lon="12.3145766"><ele>166.20000000000002</ele><time>2026-04-11T16:31:50.341Z</time></trkpt><trkpt lat="42.7340189" lon="12.3144333"><ele>164.60000000000002</ele><time>2026-04-11T16:31:51.362Z</time></trkpt><trkpt lat="42.7340197" lon="12.3142817"><ele>163.0</ele><time>2026-04-11T16:31:52.353Z</time></trkpt><trkpt lat="42.7340286" lon="12.3141324"><ele>163.0</ele><time>2026-04-11T16:31:53.357Z</time></trkpt><trkpt lat="42.7340394" lon="12.3139805"><ele>163.0</ele><time>2026-04-11T16:31:54.356Z</time></trkpt><trkpt lat="42.7340469" lon="12.3138245"><ele>163.0</ele><time>2026-04-11T16:31:55.359Z</time></trkpt><trkpt lat="42.7340511" lon="12.3136728"><ele>163.0</ele><time>2026-04-11T16:31:56.363Z</time></trkpt><trkpt lat="42.7340379" lon="12.3135253"><ele>163.0</ele><time>2026-04-11T16:31:57.349Z</time></trkpt><trkpt lat="42.734" lon="12.313391"><ele>161.0</ele><time>2026-04-11T16:31:58.362Z</time></trkpt><trkpt lat="42.7339355" lon="12.3132689"><ele>159.0</ele><time>2026-04-11T16:31:59.353Z</time></trkpt><trkpt lat="42.7338428" lon="12.3131693"><ele>157.0</ele><time>2026-04-11T16:32:00.356Z</time></trkpt><trkpt lat="42.7337321" lon="12.3130907"><ele>155.0</ele><time>2026-04-11T16:32:01.373Z</time></trkpt><trkpt lat="42.7336154" lon="12.3130165"><ele>156.5</ele><time>2026-04-11T16:32:02.353Z</time></trkpt><trkpt lat="42.7334906" lon="12.3129422"><ele>158.0</ele><time>2026-04-11T16:32:03.359Z</time></trkpt><trkpt lat="42.7333589" lon="12.3128764"><ele>159.5</ele><time>2026-04-11T16:32:04.34Z</time></trkpt><trkpt lat="42.7332263" lon="12.3128288"><ele>161.0</ele><time>2026-04-11T16:32:05.354Z</time></trkpt><trkpt lat="42.733089" lon="12.3127806"><ele>161.0</ele><time>2026-04-11T16:32:06.356Z</time></trkpt><trkpt lat="42.7329578" lon="12.312719"><ele>161.0</ele><time>2026-04-11T16:32:07.349Z</time></trkpt><trkpt lat="42.732833" lon="12.3126183"><ele>161.0</ele><time>2026-04-11T16:32:08.346Z</time></trkpt><trkpt lat="42.7327232" lon="12.3125015"><ele>161.0</ele><time>2026-04-11T16:32:09.344Z</time></trkpt><trkpt lat="42.7326342" lon="12.312368"><ele>163.75</ele><time>2026-04-11T16:32:10.339Z</time></trkpt><trkpt lat="42.7325611" lon="12.3122178"><ele>166.5</ele><time>2026-04-11T16:32:11.335Z</time></trkpt><trkpt lat="42.7325097" lon="12.3120683"><ele>169.25</ele><time>2026-04-11T16:32:12.331Z</time></trkpt><trkpt lat="42.7324792" lon="12.3119244"><ele>172.0</ele><time>2026-04-11T16:32:13.338Z</time></trkpt><trkpt lat="42.7324529" lon="12.3117985"><ele>172.0</ele><time>2026-04-11T16:32:14.353Z</time></trkpt><trkpt lat="42.732431" lon="12.3116508"><ele>172.0</ele><time>2026-04-11T16:32:15.352Z</time></trkpt><trkpt lat="42.7324118" lon="12.3115088"><ele>172.0</ele><time>2026-04-11T16:32:16.347Z</time></trkpt><trkpt lat="42.7323606" lon="12.3113778"><ele>172.0</ele><time>2026-04-11T16:32:17.361Z</time></trkpt><trkpt lat="42.7323036" lon="12.3112742"><ele>172.0</ele><time>2026-04-11T16:32:18.343Z</time></trkpt><trkpt lat="42.7322228" lon="12.3112084"><ele>173.75</ele><time>2026-04-11T16:32:19.35Z</time></trkpt><trkpt lat="42.7321324" lon="12.3111665"><ele>175.5</ele><time>2026-04-11T16:32:20.342Z</time></trkpt><trkpt lat="42.7320203" lon="12.3111166"><ele>177.25</ele><time>2026-04-11T16:32:21.335Z</time></trkpt><trkpt lat="42.7319026" lon="12.3110643"><ele>179.0</ele><time>2026-04-11T16:32:22.342Z</time></trkpt><trkpt lat="42.7317781" lon="12.3110162"><ele>179.0</ele><time>2026-04-11T16:32:23.327Z</time></trkpt><trkpt lat="42.7316585" lon="12.3109661"><ele>179.0</ele><time>2026-04-11T16:32:24.335Z</time></trkpt><trkpt lat="42.7311742" lon="12.3107443"><ele>181.0</ele><time>2026-04-11T16:32:28.332Z</time></trkpt><trkpt lat="42.7310552" lon="12.310702"><ele>183.0</ele><time>2026-04-11T16:32:29.352Z</time></trkpt><trkpt lat="42.7309238" lon="12.3106625"><ele>185.0</ele><time>2026-04-11T16:32:30.336Z</time></trkpt><trkpt lat="42.7307992" lon="12.3106153"><ele>187.0</ele><time>2026-04-11T16:32:31.355Z</time></trkpt><trkpt lat="42.7306721" lon="12.3105653"><ele>185.25</ele><time>2026-04-11T16:32:32.351Z</time></trkpt><trkpt lat="42.7305419" lon="12.310516"><ele>183.5</ele><time>2026-04-11T16:32:33.342Z</time></trkpt><trkpt lat="42.730422" lon="12.3104636"><ele>181.75</ele><time>2026-04-11T16:32:34.336Z</time></trkpt><trkpt lat="42.730299" lon="12.3104011"><ele>180.0</ele><time>2026-04-11T16:32:35.32Z</time></trkpt><trkpt lat="42.7301775" lon="12.3103293"><ele>180.0</ele><time>2026-04-11T16:32:36.351Z</time></trkpt><trkpt lat="42.7300588" lon="12.3102354"><ele>180.0</ele><time>2026-04-11T16:32:37.355Z</time></trkpt><trkpt lat="42.7299347" lon="12.3101383"><ele>180.0</ele><time>2026-04-11T16:32:38.337Z</time></trkpt><trkpt lat="42.7298093" lon="12.3100507"><ele>180.0</ele><time>2026-04-11T16:32:39.337Z</time></trkpt><trkpt lat="42.7296907" lon="12.3099818"><ele>180.0</ele><time>2026-04-11T16:32:40.345Z</time></trkpt><trkpt lat="42.7295815" lon="12.309903"><ele>180.0</ele><time>2026-04-11T16:32:41.349Z</time></trkpt><trkpt lat="42.7294782" lon="12.3098669"><ele>180.0</ele><time>2026-04-11T16:32:42.331Z</time></trkpt><trkpt lat="42.7293727" lon="12.3098041"><ele>180.0</ele><time>2026-04-11T16:32:43.351Z</time></trkpt><trkpt lat="42.7292651" lon="12.3097229"><ele>179.25</ele><time>2026-04-11T16:32:44.346Z</time></trkpt><trkpt lat="42.7291656" lon="12.3096224"><ele>178.5</ele><time>2026-04-11T16:32:45.345Z</time></trkpt><trkpt lat="42.7291045" lon="12.3095047"><ele>177.75</ele><time>2026-04-11T16:32:46.339Z</time></trkpt><trkpt lat="42.7290823" lon="12.3093613"><ele>177.0</ele><time>2026-04-11T16:32:47.345Z</time></trkpt><trkpt lat="42.729111" lon="12.3091732"><ele>177.0</ele><time>2026-04-11T16:32:48.352Z</time></trkpt><trkpt lat="42.7291603" lon="12.3090131"><ele>177.0</ele><time>2026-04-11T16:32:49.353Z</time></trkpt><trkpt lat="42.7292302" lon="12.3088521"><ele>177.0</ele><time>2026-04-11T16:32:50.351Z</time></trkpt><trkpt lat="42.7293114" lon="12.3086844"><ele>177.0</ele><time>2026-04-11T16:32:51.354Z</time></trkpt><trkpt lat="42.7293932" lon="12.3085368"><ele>174.25</ele><time>2026-04-11T16:32:52.349Z</time></trkpt><trkpt lat="42.7294861" lon="12.308403"><ele>171.5</ele><time>2026-04-11T16:32:53.343Z</time></trkpt><trkpt lat="42.7295913" lon="12.3083028"><ele>168.75</ele><time>2026-04-11T16:32:54.353Z</time></trkpt><trkpt lat="42.7297115" lon="12.3082295"><ele>166.0</ele><time>2026-04-11T16:32:55.33Z</time></trkpt><trkpt lat="42.7298447" lon="12.3081688"><ele>166.0</ele><time>2026-04-11T16:32:56.343Z</time></trkpt><trkpt lat="42.7299788" lon="12.308104"><ele>166.0</ele><time>2026-04-11T16:32:57.35Z</time></trkpt><trkpt lat="42.7301174" lon="12.3080406"><ele>166.0</ele><time>2026-04-11T16:32:58.341Z</time></trkpt><trkpt lat="42.7302517" lon="12.3079713"><ele>166.0</ele><time>2026-04-11T16:32:59.364Z</time></trkpt><trkpt lat="42.7303812" lon="12.3079093"><ele>167.5</ele><time>2026-04-11T16:33:00.339Z</time></trkpt><trkpt lat="42.7304984" lon="12.307836"><ele>169.0</ele><time>2026-04-11T16:33:01.354Z</time></trkpt><trkpt lat="42.7306085" lon="12.3077528"><ele>170.5</ele><time>2026-04-11T16:33:02.356Z</time></trkpt><trkpt lat="42.7307069" lon="12.3076496"><ele>172.0</ele><time>2026-04-11T16:33:03.362Z</time></trkpt><trkpt lat="42.7307835" lon="12.3075281"><ele>172.0</ele><time>2026-04-11T16:33:04.361Z</time></trkpt><trkpt lat="42.7308345" lon="12.3073886"><ele>172.0</ele><time>2026-04-11T16:33:05.35Z</time></trkpt><trkpt lat="42.730863" lon="12.3072219"><ele>172.0</ele><time>2026-04-11T16:33:06.355Z</time></trkpt><trkpt lat="42.7308598" lon="12.3070484"><ele>172.0</ele><time>2026-04-11T16:33:07.346Z</time></trkpt><trkpt lat="42.7308539" lon="12.3068748"><ele>176.5</ele><time>2026-04-11T16:33:08.36Z</time></trkpt><trkpt lat="42.730849" lon="12.3067086"><ele>181.0</ele><time>2026-04-11T16:33:09.345Z</time></trkpt><trkpt lat="42.7308389" lon="12.3065359"><ele>185.5</ele><time>2026-04-11T16:33:10.352Z</time></trkpt><trkpt lat="42.7308449" lon="12.3063612"><ele>190.0</ele><time>2026-04-11T16:33:11.339Z</time></trkpt><trkpt lat="42.7308316" lon="12.3061872"><ele>191.0</ele><time>2026-04-11T16:33:12.334Z</time></trkpt><trkpt lat="42.7308114" lon="12.3060102"><ele>192.0</ele><time>2026-04-11T16:33:13.345Z</time></trkpt><trkpt lat="42.7308036" lon="12.3058294"><ele>193.0</ele><time>2026-04-11T16:33:14.341Z</time></trkpt><trkpt lat="42.7307863" lon="12.305645"><ele>194.0</ele><time>2026-04-11T16:33:15.348Z</time></trkpt><trkpt lat="42.7307546" lon="12.3054554"><ele>195.75</ele><time>2026-04-11T16:33:16.342Z</time></trkpt><trkpt lat="42.73072" lon="12.3052597"><ele>197.5</ele><time>2026-04-11T16:33:17.342Z</time></trkpt><trkpt lat="42.7306983" lon="12.3050602"><ele>199.25</ele><time>2026-04-11T16:33:18.353Z</time></trkpt><trkpt lat="42.7306923" lon="12.3048717"><ele>201.0</ele><time>2026-04-11T16:33:19.344Z</time></trkpt><trkpt lat="42.7306443" lon="12.3046793"><ele>204.0</ele><time>2026-04-11T16:33:20.347Z</time></trkpt><trkpt lat="42.7306487" lon="12.3044935"><ele>207.0</ele><time>2026-04-11T16:33:21.349Z</time></trkpt><trkpt lat="42.7306978" lon="12.3043102"><ele>210.0</ele><time>2026-04-11T16:33:22.334Z</time></trkpt><trkpt lat="42.7307656" lon="12.3041332"><ele>213.0</ele><time>2026-04-11T16:33:23.354Z</time></trkpt><trkpt lat="42.730829" lon="12.3039633"><ele>220.33333333333331</ele><time>2026-04-11T16:33:24.338Z</time></trkpt><trkpt lat="42.7309155" lon="12.3037965"><ele>227.66666666666666</ele><time>2026-04-11T16:33:25.337Z</time></trkpt><trkpt lat="42.7310374" lon="12.3036334"><ele>235.0</ele><time>2026-04-11T16:33:26.345Z</time></trkpt><trkpt lat="42.7311948" lon="12.3034917"><ele>219.0</ele><time>2026-04-11T16:33:27.34Z</time></trkpt><trkpt lat="42.7313734" lon="12.3034046"><ele>203.0</ele><time>2026-04-11T16:33:28.339Z</time></trkpt><trkpt lat="42.7315012" lon="12.3033116"><ele>187.0</ele><time>2026-04-11T16:33:29.349Z</time></trkpt><trkpt lat="42.7316221" lon="12.303211"><ele>191.25</ele><time>2026-04-11T16:33:30.348Z</time></trkpt><trkpt lat="42.7316944" lon="12.3030652"><ele>195.5</ele><time>2026-04-11T16:33:31.352Z</time></trkpt><trkpt lat="42.7317429" lon="12.3028982"><ele>199.75</ele><time>2026-04-11T16:33:32.337Z</time></trkpt><trkpt lat="42.7317678" lon="12.3027038"><ele>204.0</ele><time>2026-04-11T16:33:33.35Z</time></trkpt><trkpt lat="42.7317983" lon="12.3025164"><ele>204.0</ele><time>2026-04-11T16:33:34.338Z</time></trkpt><trkpt lat="42.7318404" lon="12.3023235"><ele>204.0</ele><time>2026-04-11T16:33:35.362Z</time></trkpt><trkpt lat="42.7318983" lon="12.3021496"><ele>204.0</ele><time>2026-04-11T16:33:36.357Z</time></trkpt><trkpt lat="42.7319769" lon="12.3019995"><ele>204.0</ele><time>2026-04-11T16:33:37.356Z</time></trkpt><trkpt lat="42.7320831" lon="12.3018881"><ele>204.0</ele><time>2026-04-11T16:33:38.341Z</time></trkpt><trkpt lat="42.7322069" lon="12.3018067"><ele>204.0</ele><time>2026-04-11T16:33:39.35Z</time></trkpt><trkpt lat="42.7323594" lon="12.3017695"><ele>204.0</ele><time>2026-04-11T16:33:40.354Z</time></trkpt><trkpt lat="42.7325163" lon="12.3017486"><ele>204.0</ele><time>2026-04-11T16:33:41.349Z</time></trkpt><trkpt lat="42.7326818" lon="12.3017087"><ele>204.0</ele><time>2026-04-11T16:33:42.36Z</time></trkpt><trkpt lat="42.7328433" lon="12.3016558"><ele>204.0</ele><time>2026-04-11T16:33:43.362Z</time></trkpt><trkpt lat="42.7329922" lon="12.3015836"><ele>206.25</ele><time>2026-04-11T16:33:44.349Z</time></trkpt><trkpt lat="42.7331134" lon="12.3014887"><ele>208.5</ele><time>2026-04-11T16:33:45.356Z</time></trkpt><trkpt lat="42.7332341" lon="12.3013693"><ele>210.75</ele><time>2026-04-11T16:33:46.345Z</time></trkpt><trkpt lat="42.73333" lon="12.3012207"><ele>213.0</ele><time>2026-04-11T16:33:47.351Z</time></trkpt><trkpt lat="42.7334017" lon="12.3010454"><ele>213.0</ele><time>2026-04-11T16:33:48.341Z</time></trkpt><trkpt lat="42.7334651" lon="12.3008544"><ele>213.0</ele><time>2026-04-11T16:33:49.354Z</time></trkpt><trkpt lat="42.7335219" lon="12.3006654"><ele>213.0</ele><time>2026-04-11T16:33:50.361Z</time></trkpt><trkpt lat="42.7335827" lon="12.3004926"><ele>213.0</ele><time>2026-04-11T16:33:51.355Z</time></trkpt><trkpt lat="42.7336746" lon="12.3003525"><ele>210.5</ele><time>2026-04-11T16:33:52.347Z</time></trkpt><trkpt lat="42.7337915" lon="12.3002531"><ele>208.0</ele><time>2026-04-11T16:33:53.341Z</time></trkpt><trkpt lat="42.7339177" lon="12.3001704"><ele>205.5</ele><time>2026-04-11T16:33:54.349Z</time></trkpt><trkpt lat="42.7340532" lon="12.3000928"><ele>203.0</ele><time>2026-04-11T16:33:55.357Z</time></trkpt><trkpt lat="42.7341845" lon="12.2999986"><ele>203.0</ele><time>2026-04-11T16:33:56.348Z</time></trkpt><trkpt lat="42.7343088" lon="12.2998716"><ele>203.0</ele><time>2026-04-11T16:33:57.345Z</time></trkpt><trkpt lat="42.7344242" lon="12.2997221"><ele>203.0</ele><time>2026-04-11T16:33:58.343Z</time></trkpt><trkpt lat="42.7345298" lon="12.2995671"><ele>202.25</ele><time>2026-04-11T16:33:59.356Z</time></trkpt><trkpt lat="42.7346271" lon="12.2994264"><ele>201.5</ele><time>2026-04-11T16:34:00.344Z</time></trkpt><trkpt lat="42.7347087" lon="12.2992901"><ele>200.75</ele><time>2026-04-11T16:34:01.33Z</time></trkpt><trkpt lat="42.7347637" lon="12.2991369"><ele>200.0</ele><time>2026-04-11T16:34:02.348Z</time></trkpt><trkpt lat="42.734795" lon="12.2989639"><ele>201.25</ele><time>2026-04-11T16:34:03.358Z</time></trkpt><trkpt lat="42.7347865" lon="12.2987799"><ele>202.5</ele><time>2026-04-11T16:34:04.358Z</time></trkpt><trkpt lat="42.7347503" lon="12.2986079"><ele>203.75</ele><time>2026-04-11T16:34:05.365Z</time></trkpt><trkpt lat="42.7347128" lon="12.2984403"><ele>205.0</ele><time>2026-04-11T16:34:06.363Z</time></trkpt><trkpt lat="42.7346861" lon="12.2982939"><ele>205.0</ele><time>2026-04-11T16:34:07.369Z</time></trkpt><trkpt lat="42.7346892" lon="12.2981653"><ele>205.0</ele><time>2026-04-11T16:34:08.356Z</time></trkpt><trkpt lat="42.7347229" lon="12.2980235"><ele>205.0</ele><time>2026-04-11T16:34:09.362Z</time></trkpt><trkpt lat="42.7347956" lon="12.2978783"><ele>205.0</ele><time>2026-04-11T16:34:10.345Z</time></trkpt><trkpt lat="42.7348794" lon="12.297738"><ele>207.0</ele><time>2026-04-11T16:34:11.362Z</time></trkpt><trkpt lat="42.7349547" lon="12.297578"><ele>209.0</ele><time>2026-04-11T16:34:12.354Z</time></trkpt><trkpt lat="42.7350049" lon="12.2974018"><ele>211.0</ele><time>2026-04-11T16:34:13.366Z</time></trkpt><trkpt lat="42.7350366" lon="12.2972259"><ele>213.0</ele><time>2026-04-11T16:34:14.371Z</time></trkpt><trkpt lat="42.7350351" lon="12.2970451"><ele>213.75</ele><time>2026-04-11T16:34:15.362Z</time></trkpt><trkpt lat="42.7350174" lon="12.2968585"><ele>214.5</ele><time>2026-04-11T16:34:16.359Z</time></trkpt><trkpt lat="42.7349815" lon="12.2966855"><ele>215.25</ele><time>2026-04-11T16:34:17.357Z</time></trkpt><trkpt lat="42.734949" lon="12.296511"><ele>216.0</ele><time>2026-04-11T16:34:18.347Z</time></trkpt><trkpt lat="42.7349143" lon="12.2963297"><ele>215.5</ele><time>2026-04-11T16:34:19.355Z</time></trkpt><trkpt lat="42.7348868" lon="12.2961519"><ele>215.0</ele><time>2026-04-11T16:34:20.349Z</time></trkpt><trkpt lat="42.7348631" lon="12.2959679"><ele>214.5</ele><time>2026-04-11T16:34:21.346Z</time></trkpt><trkpt lat="42.7348444" lon="12.2957783"><ele>214.0</ele><time>2026-04-11T16:34:22.357Z</time></trkpt><trkpt lat="42.7348278" lon="12.2955853"><ele>214.0</ele><time>2026-04-11T16:34:23.364Z</time></trkpt><trkpt lat="42.7348076" lon="12.2953936"><ele>214.0</ele><time>2026-04-11T16:34:24.349Z</time></trkpt><trkpt lat="42.7347876" lon="12.2952133"><ele>214.0</ele><time>2026-04-11T16:34:25.349Z</time></trkpt><trkpt lat="42.7347798" lon="12.2950397"><ele>214.0</ele><time>2026-04-11T16:34:26.351Z</time></trkpt><trkpt lat="42.7347974" lon="12.2948786"><ele>216.75</ele><time>2026-04-11T16:34:27.337Z</time></trkpt><trkpt lat="42.7348521" lon="12.2947344"><ele>219.5</ele><time>2026-04-11T16:34:28.343Z</time></trkpt><trkpt lat="42.7349346" lon="12.2945963"><ele>222.25</ele><time>2026-04-11T16:34:29.353Z</time></trkpt><trkpt lat="42.7350174" lon="12.2944658"><ele>225.0</ele><time>2026-04-11T16:34:30.349Z</time></trkpt><trkpt lat="42.7350855" lon="12.2943138"><ele>225.0</ele><time>2026-04-11T16:34:31.363Z</time></trkpt><trkpt lat="42.7351245" lon="12.294141"><ele>225.0</ele><time>2026-04-11T16:34:32.349Z</time></trkpt><trkpt lat="42.7351422" lon="12.2939404"><ele>225.0</ele><time>2026-04-11T16:34:33.364Z</time></trkpt><trkpt lat="42.7351323" lon="12.2937425"><ele>225.0</ele><time>2026-04-11T16:34:34.331Z</time></trkpt><trkpt lat="42.7351353" lon="12.2935374"><ele>230.66666666666669</ele><time>2026-04-11T16:34:35.347Z</time></trkpt><trkpt lat="42.7351589" lon="12.2933389"><ele>236.33333333333334</ele><time>2026-04-11T16:34:36.348Z</time></trkpt><trkpt lat="42.7351936" lon="12.2931418"><ele>242.0</ele><time>2026-04-11T16:34:37.352Z</time></trkpt><trkpt lat="42.7352382" lon="12.2929399"><ele>230.5</ele><time>2026-04-11T16:34:38.342Z</time></trkpt><trkpt lat="42.7352643" lon="12.292736"><ele>219.0</ele><time>2026-04-11T16:34:39.353Z</time></trkpt><trkpt lat="42.7352834" lon="12.2925489"><ele>207.5</ele><time>2026-04-11T16:34:40.33Z</time></trkpt><trkpt lat="42.7352984" lon="12.2923738"><ele>196.0</ele><time>2026-04-11T16:34:41.358Z</time></trkpt><trkpt lat="42.7352993" lon="12.2922058"><ele>193.0</ele><time>2026-04-11T16:34:42.358Z</time></trkpt><trkpt lat="42.7352697" lon="12.292044"><ele>190.0</ele><time>2026-04-11T16:34:43.334Z</time></trkpt><trkpt lat="42.7352367" lon="12.291874"><ele>187.0</ele><time>2026-04-11T16:34:44.356Z</time></trkpt><trkpt lat="42.7351785" lon="12.2917072"><ele>184.0</ele><time>2026-04-11T16:34:45.346Z</time></trkpt><trkpt lat="42.7351354" lon="12.2915468"><ele>197.5</ele><time>2026-04-11T16:34:46.336Z</time></trkpt><trkpt lat="42.7350618" lon="12.291402"><ele>211.0</ele><time>2026-04-11T16:34:47.338Z</time></trkpt><trkpt lat="42.7350011" lon="12.2912484"><ele>224.5</ele><time>2026-04-11T16:34:48.343Z</time></trkpt><trkpt lat="42.7349775" lon="12.2910915"><ele>238.0</ele><time>2026-04-11T16:34:49.347Z</time></trkpt><trkpt lat="42.7350075" lon="12.2909255"><ele>238.0</ele><time>2026-04-11T16:34:50.346Z</time></trkpt><trkpt lat="42.7350528" lon="12.2907652"><ele>238.0</ele><time>2026-04-11T16:34:51.351Z</time></trkpt><trkpt lat="42.7350829" lon="12.290591"><ele>238.0</ele><time>2026-04-11T16:34:52.342Z</time></trkpt><trkpt lat="42.7351104" lon="12.2904124"><ele>238.0</ele><time>2026-04-11T16:34:53.342Z</time></trkpt><trkpt lat="42.7351124" lon="12.2902211"><ele>236.25</ele><time>2026-04-11T16:34:54.34Z</time></trkpt><trkpt lat="42.7351095" lon="12.2900221"><ele>234.5</ele><time>2026-04-11T16:34:55.352Z</time></trkpt><trkpt lat="42.7350969" lon="12.2898476"><ele>232.75</ele><time>2026-04-11T16:34:56.359Z</time></trkpt><trkpt lat="42.7350686" lon="12.2896818"><ele>231.0</ele><time>2026-04-11T16:34:57.347Z</time></trkpt><trkpt lat="42.7350149" lon="12.2895417"><ele>226.25</ele><time>2026-04-11T16:34:58.345Z</time></trkpt><trkpt lat="42.7349316" lon="12.2894302"><ele>221.5</ele><time>2026-04-11T16:34:59.355Z</time></trkpt><trkpt lat="42.7348164" lon="12.289346"><ele>216.75</ele><time>2026-04-11T16:35:00.356Z</time></trkpt><trkpt lat="42.7346893" lon="12.2892964"><ele>212.0</ele><time>2026-04-11T16:35:01.336Z</time></trkpt><trkpt lat="42.7345631" lon="12.289262"><ele>212.0</ele><time>2026-04-11T16:35:02.337Z</time></trkpt><trkpt lat="42.7344428" lon="12.2892362"><ele>212.0</ele><time>2026-04-11T16:35:03.35Z</time></trkpt><trkpt lat="42.7343403" lon="12.2891723"><ele>212.0</ele><time>2026-04-11T16:35:04.352Z</time></trkpt><trkpt lat="42.7342553" lon="12.289063"><ele>212.0</ele><time>2026-04-11T16:35:05.351Z</time></trkpt><trkpt lat="42.7342158" lon="12.2889368"><ele>217.5</ele><time>2026-04-11T16:35:06.328Z</time></trkpt><trkpt lat="42.7342183" lon="12.288759"><ele>223.0</ele><time>2026-04-11T16:35:07.353Z</time></trkpt><trkpt lat="42.7342363" lon="12.2885627"><ele>228.5</ele><time>2026-04-11T16:35:08.348Z</time></trkpt><trkpt lat="42.7342603" lon="12.2883622"><ele>234.0</ele><time>2026-04-11T16:35:09.347Z</time></trkpt><trkpt lat="42.7342875" lon="12.2881658"><ele>236.75</ele><time>2026-04-11T16:35:10.351Z</time></trkpt><trkpt lat="42.7343291" lon="12.2879805"><ele>239.5</ele><time>2026-04-11T16:35:11.337Z</time></trkpt><trkpt lat="42.734404" lon="12.2878161"><ele>242.25</ele><time>2026-04-11T16:35:12.345Z</time></trkpt><trkpt lat="42.7345098" lon="12.2876574"><ele>245.0</ele><time>2026-04-11T16:35:13.336Z</time></trkpt><trkpt lat="42.7346198" lon="12.2874981"><ele>237.75</ele><time>2026-04-11T16:35:14.361Z</time></trkpt><trkpt lat="42.7347283" lon="12.2873344"><ele>230.5</ele><time>2026-04-11T16:35:15.355Z</time></trkpt><trkpt lat="42.7348147" lon="12.2871705"><ele>223.25</ele><time>2026-04-11T16:35:16.351Z</time></trkpt><trkpt lat="42.7348874" lon="12.2870096"><ele>216.0</ele><time>2026-04-11T16:35:17.341Z</time></trkpt><trkpt lat="42.7349497" lon="12.2868476"><ele>216.0</ele><time>2026-04-11T16:35:18.346Z</time></trkpt><trkpt lat="42.734997" lon="12.2866786"><ele>216.0</ele><time>2026-04-11T16:35:19.341Z</time></trkpt><trkpt lat="42.7350383" lon="12.2865014"><ele>216.0</ele><time>2026-04-11T16:35:20.347Z</time></trkpt><trkpt lat="42.7350526" lon="12.2863157"><ele>216.0</ele><time>2026-04-11T16:35:21.355Z</time></trkpt><trkpt lat="42.7350555" lon="12.2861241"><ele>216.0</ele><time>2026-04-11T16:35:22.359Z</time></trkpt><trkpt lat="42.7350346" lon="12.285935"><ele>216.0</ele><time>2026-04-11T16:35:23.358Z</time></trkpt><trkpt lat="42.7350085" lon="12.285739"><ele>216.0</ele><time>2026-04-11T16:35:24.362Z</time></trkpt><trkpt lat="42.7349765" lon="12.2855367"><ele>216.0</ele><time>2026-04-11T16:35:25.356Z</time></trkpt><trkpt lat="42.7349488" lon="12.28534"><ele>216.0</ele><time>2026-04-11T16:35:26.344Z</time></trkpt><trkpt lat="42.7349168" lon="12.2851406"><ele>216.0</ele><time>2026-04-11T16:35:27.334Z</time></trkpt><trkpt lat="42.7348918" lon="12.2849481"><ele>216.0</ele><time>2026-04-11T16:35:28.364Z</time></trkpt><trkpt lat="42.7348639" lon="12.28475"><ele>216.0</ele><time>2026-04-11T16:35:29.353Z</time></trkpt><trkpt lat="42.7348281" lon="12.2845558"><ele>214.75</ele><time>2026-04-11T16:35:30.358Z</time></trkpt><trkpt lat="42.7347835" lon="12.2843679"><ele>213.5</ele><time>2026-04-11T16:35:31.362Z</time></trkpt><trkpt lat="42.7347238" lon="12.2841828"><ele>212.25</ele><time>2026-04-11T16:35:32.344Z</time></trkpt><trkpt lat="42.7346519" lon="12.2840076"><ele>211.0</ele><time>2026-04-11T16:35:33.353Z</time></trkpt><trkpt lat="42.73456" lon="12.2838443"><ele>212.66666666666666</ele><time>2026-04-11T16:35:34.338Z</time></trkpt><trkpt lat="42.7344526" lon="12.2836857"><ele>214.33333333333331</ele><time>2026-04-11T16:35:35.345Z</time></trkpt><trkpt lat="42.7343359" lon="12.2835438"><ele>216.0</ele><time>2026-04-11T16:35:36.342Z</time></trkpt><trkpt lat="42.7342139" lon="12.2834055"><ele>216.0</ele><time>2026-04-11T16:35:37.354Z</time></trkpt><trkpt lat="42.7340902" lon="12.283265"><ele>216.0</ele><time>2026-04-11T16:35:38.352Z</time></trkpt><trkpt lat="42.7339662" lon="12.2831243"><ele>216.0</ele><time>2026-04-11T16:35:39.333Z</time></trkpt><trkpt lat="42.7338476" lon="12.2829873"><ele>214.5</ele><time>2026-04-11T16:35:40.36Z</time></trkpt><trkpt lat="42.7337345" lon="12.2828524"><ele>213.0</ele><time>2026-04-11T16:35:41.342Z</time></trkpt><trkpt lat="42.7336216" lon="12.2827226"><ele>211.5</ele><time>2026-04-11T16:35:42.357Z</time></trkpt><trkpt lat="42.7335183" lon="12.2825875"><ele>210.0</ele><time>2026-04-11T16:35:43.352Z</time></trkpt><trkpt lat="42.7334272" lon="12.2824398"><ele>213.25</ele><time>2026-04-11T16:35:44.341Z</time></trkpt><trkpt lat="42.733369" lon="12.2822841"><ele>216.5</ele><time>2026-04-11T16:35:45.353Z</time></trkpt><trkpt lat="42.733345" lon="12.2821138"><ele>219.75</ele><time>2026-04-11T16:35:46.356Z</time></trkpt><trkpt lat="42.7333558" lon="12.2819586"><ele>223.0</ele><time>2026-04-11T16:35:47.349Z</time></trkpt><trkpt lat="42.7334168" lon="12.2818105"><ele>223.0</ele><time>2026-04-11T16:35:48.348Z</time></trkpt><trkpt lat="42.733505" lon="12.2816706"><ele>223.0</ele><time>2026-04-11T16:35:49.357Z</time></trkpt><trkpt lat="42.7335776" lon="12.2815163"><ele>223.0</ele><time>2026-04-11T16:35:50.35Z</time></trkpt><trkpt lat="42.7336333" lon="12.2813395"><ele>223.0</ele><time>2026-04-11T16:35:51.349Z</time></trkpt><trkpt lat="42.7336521" lon="12.2811475"><ele>220.33333333333331</ele><time>2026-04-11T16:35:52.366Z</time></trkpt><trkpt lat="42.7336358" lon="12.2809493"><ele>217.66666666666669</ele><time>2026-04-11T16:35:53.346Z</time></trkpt><trkpt lat="42.7335779" lon="12.2807479"><ele>215.0</ele><time>2026-04-11T16:35:54.348Z</time></trkpt><trkpt lat="42.7335045" lon="12.2805652"><ele>215.0</ele><time>2026-04-11T16:35:55.349Z</time></trkpt><trkpt lat="42.7334185" lon="12.280398"><ele>215.0</ele><time>2026-04-11T16:35:56.352Z</time></trkpt><trkpt lat="42.7333168" lon="12.2802445"><ele>215.0</ele><time>2026-04-11T16:35:57.348Z</time></trkpt><trkpt lat="42.73321" lon="12.2800893"><ele>215.0</ele><time>2026-04-11T16:35:58.357Z</time></trkpt><trkpt lat="42.7330919" lon="12.279946"><ele>215.0</ele><time>2026-04-11T16:35:59.359Z</time></trkpt><trkpt lat="42.7329676" lon="12.2797969"><ele>215.0</ele><time>2026-04-11T16:36:00.358Z</time></trkpt><trkpt lat="42.7328428" lon="12.2796482"><ele>215.0</ele><time>2026-04-11T16:36:01.357Z</time></trkpt><trkpt lat="42.7327201" lon="12.2795021"><ele>215.0</ele><time>2026-04-11T16:36:02.351Z</time></trkpt><trkpt lat="42.7325978" lon="12.2793608"><ele>215.0</ele><time>2026-04-11T16:36:03.359Z</time></trkpt><trkpt lat="42.7324829" lon="12.2792249"><ele>215.0</ele><time>2026-04-11T16:36:04.337Z</time></trkpt><trkpt lat="42.7323631" lon="12.2790851"><ele>215.0</ele><time>2026-04-11T16:36:05.336Z</time></trkpt><trkpt lat="42.7322473" lon="12.2789493"><ele>215.0</ele><time>2026-04-11T16:36:06.357Z</time></trkpt><trkpt lat="42.7321264" lon="12.2788106"><ele>216.33333333333334</ele><time>2026-04-11T16:36:07.366Z</time></trkpt><trkpt lat="42.7320113" lon="12.2786664"><ele>217.66666666666669</ele><time>2026-04-11T16:36:08.361Z</time></trkpt><trkpt lat="42.7319117" lon="12.2785103"><ele>219.0</ele><time>2026-04-11T16:36:09.341Z</time></trkpt><trkpt lat="42.7318375" lon="12.2783329"><ele>219.0</ele><time>2026-04-11T16:36:10.353Z</time></trkpt><trkpt lat="42.731788" lon="12.2781258"><ele>219.0</ele><time>2026-04-11T16:36:11.353Z</time></trkpt><trkpt lat="42.7317675" lon="12.2779126"><ele>219.0</ele><time>2026-04-11T16:36:12.354Z</time></trkpt><trkpt lat="42.7317563" lon="12.2776951"><ele>219.0</ele><time>2026-04-11T16:36:13.374Z</time></trkpt><trkpt lat="42.731743" lon="12.2774808"><ele>219.0</ele><time>2026-04-11T16:36:14.346Z</time></trkpt><trkpt lat="42.7317302" lon="12.2772706"><ele>219.0</ele><time>2026-04-11T16:36:15.367Z</time></trkpt><trkpt lat="42.7317125" lon="12.277068"><ele>217.5</ele><time>2026-04-11T16:36:16.355Z</time></trkpt><trkpt lat="42.7316836" lon="12.2768727"><ele>216.0</ele><time>2026-04-11T16:36:17.343Z</time></trkpt><trkpt lat="42.7316362" lon="12.2766867"><ele>214.5</ele><time>2026-04-11T16:36:18.355Z</time></trkpt><trkpt lat="42.7315609" lon="12.2765062"><ele>213.0</ele><time>2026-04-11T16:36:19.35Z</time></trkpt><trkpt lat="42.7314574" lon="12.276355"><ele>209.33333333333331</ele><time>2026-04-11T16:36:20.343Z</time></trkpt><trkpt lat="42.7313328" lon="12.2762153"><ele>205.66666666666666</ele><time>2026-04-11T16:36:21.333Z</time></trkpt><trkpt lat="42.7312125" lon="12.2760855"><ele>202.0</ele><time>2026-04-11T16:36:22.359Z</time></trkpt><trkpt lat="42.7310819" lon="12.2759553"><ele>205.33333333333331</ele><time>2026-04-11T16:36:23.352Z</time></trkpt><trkpt lat="42.730958" lon="12.2758275"><ele>208.66666666666669</ele><time>2026-04-11T16:36:24.357Z</time></trkpt><trkpt lat="42.7308386" lon="12.2756968"><ele>212.0</ele><time>2026-04-11T16:36:25.347Z</time></trkpt><trkpt lat="42.7307158" lon="12.2755705"><ele>212.0</ele><time>2026-04-11T16:36:26.35Z</time></trkpt><trkpt lat="42.7305942" lon="12.2754456"><ele>212.0</ele><time>2026-04-11T16:36:27.349Z</time></trkpt><trkpt lat="42.7304761" lon="12.2753267"><ele>212.0</ele><time>2026-04-11T16:36:28.345Z</time></trkpt><trkpt lat="42.7303522" lon="12.275202"><ele>212.0</ele><time>2026-04-11T16:36:29.357Z</time></trkpt><trkpt lat="42.7302299" lon="12.2750803"><ele>212.0</ele><time>2026-04-11T16:36:30.341Z</time></trkpt><trkpt lat="42.7301061" lon="12.274955"><ele>212.0</ele><time>2026-04-11T16:36:31.352Z</time></trkpt><trkpt lat="42.7299839" lon="12.2748295"><ele>211.75</ele><time>2026-04-11T16:36:32.346Z</time></trkpt><trkpt lat="42.7298685" lon="12.2747106"><ele>211.5</ele><time>2026-04-11T16:36:33.357Z</time></trkpt><trkpt lat="42.7297601" lon="12.274592"><ele>211.25</ele><time>2026-04-11T16:36:34.341Z</time></trkpt><trkpt lat="42.7296671" lon="12.2744736"><ele>211.0</ele><time>2026-04-11T16:36:35.355Z</time></trkpt><trkpt lat="42.729599" lon="12.2743417"><ele>211.0</ele><time>2026-04-11T16:36:36.352Z</time></trkpt><trkpt lat="42.7295631" lon="12.2741886"><ele>211.0</ele><time>2026-04-11T16:36:37.357Z</time></trkpt><trkpt lat="42.7295529" lon="12.2739962"><ele>211.0</ele><time>2026-04-11T16:36:38.361Z</time></trkpt><trkpt lat="42.7295619" lon="12.2737883"><ele>211.0</ele><time>2026-04-11T16:36:39.354Z</time></trkpt><trkpt lat="42.7295594" lon="12.2735818"><ele>212.5</ele><time>2026-04-11T16:36:40.328Z</time></trkpt><trkpt lat="42.7295555" lon="12.2733745"><ele>214.0</ele><time>2026-04-11T16:36:41.355Z</time></trkpt><trkpt lat="42.7295311" lon="12.2731751"><ele>215.5</ele><time>2026-04-11T16:36:42.356Z</time></trkpt><trkpt lat="42.7294732" lon="12.2729943"><ele>217.0</ele><time>2026-04-11T16:36:43.361Z</time></trkpt><trkpt lat="42.7293885" lon="12.2728104"><ele>217.0</ele><time>2026-04-11T16:36:44.354Z</time></trkpt><trkpt lat="42.7292768" lon="12.2726416"><ele>217.0</ele><time>2026-04-11T16:36:45.36Z</time></trkpt><trkpt lat="42.7291786" lon="12.2724597"><ele>217.0</ele><time>2026-04-11T16:36:46.364Z</time></trkpt><trkpt lat="42.729087" lon="12.272289"><ele>214.0</ele><time>2026-04-11T16:36:47.359Z</time></trkpt><trkpt lat="42.7290143" lon="12.2721101"><ele>211.0</ele><time>2026-04-11T16:36:48.352Z</time></trkpt><trkpt lat="42.728965" lon="12.2719199"><ele>208.0</ele><time>2026-04-11T16:36:49.362Z</time></trkpt><trkpt lat="42.7289313" lon="12.2717128"><ele>208.0</ele><time>2026-04-11T16:36:50.362Z</time></trkpt><trkpt lat="42.7289049" lon="12.2715053"><ele>208.0</ele><time>2026-04-11T16:36:51.362Z</time></trkpt><trkpt lat="42.7288739" lon="12.2712921"><ele>208.0</ele><time>2026-04-11T16:36:52.354Z</time></trkpt><trkpt lat="42.7288303" lon="12.2710946"><ele>205.75</ele><time>2026-04-11T16:36:53.34Z</time></trkpt><trkpt lat="42.7287767" lon="12.2709068"><ele>203.5</ele><time>2026-04-11T16:36:54.359Z</time></trkpt><trkpt lat="42.7287189" lon="12.270743"><ele>201.25</ele><time>2026-04-11T16:36:55.355Z</time></trkpt><trkpt lat="42.72866" lon="12.270603"><ele>199.0</ele><time>2026-04-11T16:36:56.354Z</time></trkpt><trkpt lat="42.7286049" lon="12.2704788"><ele>200.16666666666666</ele><time>2026-04-11T16:36:57.35Z</time></trkpt><trkpt lat="42.7285591" lon="12.270366"><ele>201.33333333333331</ele><time>2026-04-11T16:36:58.356Z</time></trkpt><trkpt lat="42.7285231" lon="12.270273"><ele>202.5</ele><time>2026-04-11T16:36:59.36Z</time></trkpt><trkpt lat="42.7284959" lon="12.2701934"><ele>203.66666666666669</ele><time>2026-04-11T16:37:00.349Z</time></trkpt><trkpt lat="42.7284679" lon="12.2701134"><ele>204.83333333333334</ele><time>2026-04-11T16:37:01.356Z</time></trkpt><trkpt lat="42.7284368" lon="12.2700317"><ele>206.0</ele><time>2026-04-11T16:37:02.372Z</time></trkpt><trkpt lat="42.7283941" lon="12.2699259"><ele>206.00000000000003</ele><time>2026-04-11T16:37:04.35Z</time></trkpt><trkpt lat="42.7283629" lon="12.2698389"><ele>206.0</ele><time>2026-04-11T16:37:08.339Z</time></trkpt><trkpt lat="42.7283228" lon="12.2697521"><ele>206.0</ele><time>2026-04-11T16:37:12.34Z</time></trkpt><trkpt lat="42.7282934" lon="12.2696729"><ele>206.0</ele><time>2026-04-11T16:37:14.359Z</time></trkpt><trkpt lat="42.7282504" lon="12.2695632"><ele>206.00000000000003</ele><time>2026-04-11T16:37:16.347Z</time></trkpt><trkpt lat="42.7282144" lon="12.2694465"><ele>206.0</ele><time>2026-04-11T16:37:18.361Z</time></trkpt><trkpt lat="42.7281711" lon="12.2693372"><ele>203.60000000000002</ele><time>2026-04-11T16:37:20.349Z</time></trkpt><trkpt lat="42.72812" lon="12.2692143"><ele>201.2</ele><time>2026-04-11T16:37:22.352Z</time></trkpt><trkpt lat="42.7280758" lon="12.2690995"><ele>198.8</ele><time>2026-04-11T16:37:24.352Z</time></trkpt><trkpt lat="42.7280302" lon="12.2689653"><ele>196.39999999999998</ele><time>2026-04-11T16:37:26.347Z</time></trkpt><trkpt lat="42.7279816" lon="12.2688474"><ele>194.0</ele><time>2026-04-11T16:37:28.351Z</time></trkpt><trkpt lat="42.7279271" lon="12.2687353"><ele>194.5</ele><time>2026-04-11T16:37:30.363Z</time></trkpt><trkpt lat="42.7278699" lon="12.2686159"><ele>195.0</ele><time>2026-04-11T16:37:32.354Z</time></trkpt><trkpt lat="42.7278099" lon="12.2684861"><ele>195.5</ele><time>2026-04-11T16:37:34.343Z</time></trkpt><trkpt lat="42.7277373" lon="12.2683457"><ele>196.0</ele><time>2026-04-11T16:37:36.342Z</time></trkpt><trkpt lat="42.7276692" lon="12.2682097"><ele>194.33333333333331</ele><time>2026-04-11T16:37:38.358Z</time></trkpt><trkpt lat="42.7275913" lon="12.268075"><ele>192.66666666666666</ele><time>2026-04-11T16:37:40.341Z</time></trkpt><trkpt lat="42.7275554" lon="12.2680026"><ele>191.0</ele><time>2026-04-11T16:37:41.337Z</time></trkpt><trkpt lat="42.7275191" lon="12.2679278"><ele>189.33333333333331</ele><time>2026-04-11T16:37:42.356Z</time></trkpt><trkpt lat="42.7274848" lon="12.267855"><ele>187.66666666666666</ele><time>2026-04-11T16:37:43.361Z</time></trkpt><trkpt lat="42.7274162" lon="12.2677293"><ele>186.0</ele><time>2026-04-11T16:37:45.364Z</time></trkpt><trkpt lat="42.7273422" lon="12.2676082"><ele>186.0</ele><time>2026-04-11T16:37:47.349Z</time></trkpt><trkpt lat="42.7272761" lon="12.267491"><ele>186.0</ele><time>2026-04-11T16:37:49.351Z</time></trkpt><trkpt lat="42.7272058" lon="12.267357"><ele>186.0</ele><time>2026-04-11T16:37:51.357Z</time></trkpt><trkpt lat="42.7271629" lon="12.2672884"><ele>186.0</ele><time>2026-04-11T16:37:52.348Z</time></trkpt><trkpt lat="42.7271148" lon="12.2672051"><ele>186.0</ele><time>2026-04-11T16:37:53.365Z</time></trkpt><trkpt lat="42.7270608" lon="12.2671112"><ele>186.16666666666666</ele><time>2026-04-11T16:37:54.344Z</time></trkpt><trkpt lat="42.7270057" lon="12.2670123"><ele>186.33333333333334</ele><time>2026-04-11T16:37:55.348Z</time></trkpt><trkpt lat="42.726952" lon="12.2669207"><ele>186.5</ele><time>2026-04-11T16:37:56.348Z</time></trkpt><trkpt lat="42.7269019" lon="12.2668288"><ele>186.66666666666669</ele><time>2026-04-11T16:37:57.359Z</time></trkpt><trkpt lat="42.7268524" lon="12.2667381"><ele>186.83333333333334</ele><time>2026-04-11T16:37:58.349Z</time></trkpt><trkpt lat="42.7267998" lon="12.2666459"><ele>187.0</ele><time>2026-04-11T16:37:59.339Z</time></trkpt><trkpt lat="42.7267509" lon="12.2665513"><ele>187.0</ele><time>2026-04-11T16:38:00.348Z</time></trkpt><trkpt lat="42.7267015" lon="12.2664597"><ele>187.0</ele><time>2026-04-11T16:38:01.338Z</time></trkpt><trkpt lat="42.7266513" lon="12.2663841"><ele>187.0</ele><time>2026-04-11T16:38:02.344Z</time></trkpt><trkpt lat="42.7265972" lon="12.2662964"><ele>187.0</ele><time>2026-04-11T16:38:03.339Z</time></trkpt><trkpt lat="42.7265462" lon="12.2662093"><ele>187.0</ele><time>2026-04-11T16:38:04.353Z</time></trkpt><trkpt lat="42.7264929" lon="12.2661193"><ele>187.0</ele><time>2026-04-11T16:38:05.336Z</time></trkpt><trkpt lat="42.7264423" lon="12.266021"><ele>184.8</ele><time>2026-04-11T16:38:06.336Z</time></trkpt><trkpt lat="42.7263941" lon="12.2659226"><ele>182.6</ele><time>2026-04-11T16:38:07.35Z</time></trkpt><trkpt lat="42.7263394" lon="12.2658199"><ele>180.4</ele><time>2026-04-11T16:38:08.344Z</time></trkpt><trkpt lat="42.726283" lon="12.2657172"><ele>178.20000000000002</ele><time>2026-04-11T16:38:09.346Z</time></trkpt><trkpt lat="42.7262287" lon="12.2656192"><ele>176.0</ele><time>2026-04-11T16:38:10.354Z</time></trkpt><trkpt lat="42.7261785" lon="12.2655218"><ele>177.33333333333331</ele><time>2026-04-11T16:38:11.342Z</time></trkpt><trkpt lat="42.7261321" lon="12.2654299"><ele>178.66666666666666</ele><time>2026-04-11T16:38:12.34Z</time></trkpt><trkpt lat="42.7260864" lon="12.2653404"><ele>180.0</ele><time>2026-04-11T16:38:13.35Z</time></trkpt><trkpt lat="42.7260322" lon="12.2652491"><ele>181.33333333333334</ele><time>2026-04-11T16:38:14.354Z</time></trkpt><trkpt lat="42.7259799" lon="12.2651542"><ele>182.66666666666669</ele><time>2026-04-11T16:38:15.343Z</time></trkpt><trkpt lat="42.7259174" lon="12.2650573"><ele>184.0</ele><time>2026-04-11T16:38:16.342Z</time></trkpt><trkpt lat="42.7258561" lon="12.2649475"><ele>184.0</ele><time>2026-04-11T16:38:17.362Z</time></trkpt><trkpt lat="42.7258053" lon="12.264833"><ele>184.0</ele><time>2026-04-11T16:38:18.34Z</time></trkpt><trkpt lat="42.7257476" lon="12.2647187"><ele>184.0</ele><time>2026-04-11T16:38:19.343Z</time></trkpt><trkpt lat="42.7256771" lon="12.2645964"><ele>184.0</ele><time>2026-04-11T16:38:20.35Z</time></trkpt><trkpt lat="42.7256081" lon="12.2644719"><ele>184.0</ele><time>2026-04-11T16:38:21.358Z</time></trkpt><trkpt lat="42.7255445" lon="12.2643573"><ele>183.0</ele><time>2026-04-11T16:38:22.34Z</time></trkpt><trkpt lat="42.7254798" lon="12.2642431"><ele>182.0</ele><time>2026-04-11T16:38:23.36Z</time></trkpt><trkpt lat="42.7254145" lon="12.2641259"><ele>181.0</ele><time>2026-04-11T16:38:24.381Z</time></trkpt><trkpt lat="42.7253443" lon="12.2640068"><ele>180.0</ele><time>2026-04-11T16:38:25.348Z</time></trkpt><trkpt lat="42.72527" lon="12.2638802"><ele>179.0</ele><time>2026-04-11T16:38:26.351Z</time></trkpt><trkpt lat="42.7251985" lon="12.2637615"><ele>179.0</ele><time>2026-04-11T16:38:27.358Z</time></trkpt><trkpt lat="42.725128" lon="12.2636409"><ele>179.0</ele><time>2026-04-11T16:38:28.35Z</time></trkpt><trkpt lat="42.7250567" lon="12.2635143"><ele>179.0</ele><time>2026-04-11T16:38:29.351Z</time></trkpt><trkpt lat="42.7249861" lon="12.2633886"><ele>179.0</ele><time>2026-04-11T16:38:30.355Z</time></trkpt><trkpt lat="42.7249175" lon="12.263266"><ele>179.0</ele><time>2026-04-11T16:38:31.358Z</time></trkpt><trkpt lat="42.7248466" lon="12.2631394"><ele>179.0</ele><time>2026-04-11T16:38:32.34Z</time></trkpt><trkpt lat="42.7247776" lon="12.2630075"><ele>179.0</ele><time>2026-04-11T16:38:33.344Z</time></trkpt><trkpt lat="42.7247071" lon="12.262874"><ele>179.0</ele><time>2026-04-11T16:38:34.347Z</time></trkpt><trkpt lat="42.7246399" lon="12.2627383"><ele>176.5</ele><time>2026-04-11T16:38:35.335Z</time></trkpt><trkpt lat="42.7245686" lon="12.2626014"><ele>174.0</ele><time>2026-04-11T16:38:36.34Z</time></trkpt><trkpt lat="42.724494" lon="12.2624644"><ele>171.5</ele><time>2026-04-11T16:38:37.343Z</time></trkpt><trkpt lat="42.7244146" lon="12.2623301"><ele>169.0</ele><time>2026-04-11T16:38:38.345Z</time></trkpt><trkpt lat="42.7243312" lon="12.2621951"><ele>169.0</ele><time>2026-04-11T16:38:39.368Z</time></trkpt><trkpt lat="42.7242347" lon="12.2620823"><ele>169.0</ele><time>2026-04-11T16:38:40.356Z</time></trkpt><trkpt lat="42.7241173" lon="12.2619832"><ele>169.0</ele><time>2026-04-11T16:38:41.364Z</time></trkpt><trkpt lat="42.723998" lon="12.2618995"><ele>169.0</ele><time>2026-04-11T16:38:42.349Z</time></trkpt><trkpt lat="42.7238699" lon="12.261838"><ele>169.0</ele><time>2026-04-11T16:38:43.347Z</time></trkpt><trkpt lat="42.7237377" lon="12.2618069"><ele>169.0</ele><time>2026-04-11T16:38:44.353Z</time></trkpt><trkpt lat="42.7236095" lon="12.2617956"><ele>169.0</ele><time>2026-04-11T16:38:45.365Z</time></trkpt><trkpt lat="42.7234819" lon="12.2618014"><ele>169.0</ele><time>2026-04-11T16:38:46.364Z</time></trkpt><trkpt lat="42.7233568" lon="12.2618053"><ele>168.75</ele><time>2026-04-11T16:38:47.356Z</time></trkpt><trkpt lat="42.7232239" lon="12.2618193"><ele>168.5</ele><time>2026-04-11T16:38:48.348Z</time></trkpt><trkpt lat="42.7230849" lon="12.2618315"><ele>168.25</ele><time>2026-04-11T16:38:49.367Z</time></trkpt><trkpt lat="42.7229495" lon="12.2618452"><ele>168.0</ele><time>2026-04-11T16:38:50.357Z</time></trkpt><trkpt lat="42.722812" lon="12.2618571"><ele>167.75</ele><time>2026-04-11T16:38:51.358Z</time></trkpt><trkpt lat="42.7226786" lon="12.2618674"><ele>167.5</ele><time>2026-04-11T16:38:52.353Z</time></trkpt><trkpt lat="42.7225443" lon="12.261881"><ele>167.25</ele><time>2026-04-11T16:38:53.373Z</time></trkpt><trkpt lat="42.722408" lon="12.2618934"><ele>167.0</ele><time>2026-04-11T16:38:54.362Z</time></trkpt><trkpt lat="42.7222725" lon="12.2619049"><ele>167.0</ele><time>2026-04-11T16:38:55.359Z</time></trkpt><trkpt lat="42.7221366" lon="12.2619152"><ele>167.0</ele><time>2026-04-11T16:38:56.35Z</time></trkpt><trkpt lat="42.7219985" lon="12.2619286"><ele>167.0</ele><time>2026-04-11T16:38:57.352Z</time></trkpt><trkpt lat="42.7218602" lon="12.2619444"><ele>167.0</ele><time>2026-04-11T16:38:58.355Z</time></trkpt><trkpt lat="42.7217218" lon="12.2619562"><ele>166.0</ele><time>2026-04-11T16:38:59.36Z</time></trkpt><trkpt lat="42.7215826" lon="12.2619695"><ele>165.0</ele><time>2026-04-11T16:39:00.357Z</time></trkpt><trkpt lat="42.7214404" lon="12.2619799"><ele>164.0</ele><time>2026-04-11T16:39:01.362Z</time></trkpt><trkpt lat="42.7212979" lon="12.2619875"><ele>163.0</ele><time>2026-04-11T16:39:02.351Z</time></trkpt><trkpt lat="42.7211465" lon="12.2619993"><ele>161.66666666666669</ele><time>2026-04-11T16:39:03.351Z</time></trkpt><trkpt lat="42.720989" lon="12.2620081"><ele>160.33333333333334</ele><time>2026-04-11T16:39:04.364Z</time></trkpt><trkpt lat="42.7208249" lon="12.2620243"><ele>159.0</ele><time>2026-04-11T16:39:05.349Z</time></trkpt><trkpt lat="42.7206638" lon="12.2620509"><ele>159.0</ele><time>2026-04-11T16:39:06.342Z</time></trkpt><trkpt lat="42.7205008" lon="12.2620991"><ele>159.0</ele><time>2026-04-11T16:39:07.358Z</time></trkpt><trkpt lat="42.7203418" lon="12.2621783"><ele>159.0</ele><time>2026-04-11T16:39:08.354Z</time></trkpt><trkpt lat="42.7201866" lon="12.2622792"><ele>159.33333333333334</ele><time>2026-04-11T16:39:09.359Z</time></trkpt><trkpt lat="42.7200323" lon="12.2623823"><ele>159.66666666666669</ele><time>2026-04-11T16:39:10.341Z</time></trkpt><trkpt lat="42.7198752" lon="12.2624933"><ele>160.0</ele><time>2026-04-11T16:39:11.358Z</time></trkpt><trkpt lat="42.719716" lon="12.2626034"><ele>160.0</ele><time>2026-04-11T16:39:12.352Z</time></trkpt><trkpt lat="42.7195607" lon="12.2627022"><ele>160.0</ele><time>2026-04-11T16:39:13.369Z</time></trkpt><trkpt lat="42.7194128" lon="12.262801"><ele>160.0</ele><time>2026-04-11T16:39:14.361Z</time></trkpt><trkpt lat="42.7192616" lon="12.2628974"><ele>160.33333333333334</ele><time>2026-04-11T16:39:15.354Z</time></trkpt><trkpt lat="42.7191043" lon="12.2630007"><ele>160.66666666666666</ele><time>2026-04-11T16:39:16.358Z</time></trkpt><trkpt lat="42.7189495" lon="12.2631114"><ele>161.0</ele><time>2026-04-11T16:39:17.358Z</time></trkpt><trkpt lat="42.7187975" lon="12.2632124"><ele>161.0</ele><time>2026-04-11T16:39:18.349Z</time></trkpt><trkpt lat="42.7186599" lon="12.2633013"><ele>161.0</ele><time>2026-04-11T16:39:19.372Z</time></trkpt><trkpt lat="42.7185308" lon="12.2633886"><ele>161.0</ele><time>2026-04-11T16:39:20.366Z</time></trkpt><trkpt lat="42.7184048" lon="12.2634762"><ele>161.0</ele><time>2026-04-11T16:39:21.364Z</time></trkpt><trkpt lat="42.7182786" lon="12.2635631"><ele>158.5</ele><time>2026-04-11T16:39:22.362Z</time></trkpt><trkpt lat="42.7181545" lon="12.2636477"><ele>156.0</ele><time>2026-04-11T16:39:23.353Z</time></trkpt><trkpt lat="42.7180277" lon="12.2637338"><ele>153.5</ele><time>2026-04-11T16:39:24.35Z</time></trkpt><trkpt lat="42.7178911" lon="12.2638311"><ele>151.0</ele><time>2026-04-11T16:39:25.356Z</time></trkpt><trkpt lat="42.7177576" lon="12.2639223"><ele>151.0</ele><time>2026-04-11T16:39:26.357Z</time></trkpt><trkpt lat="42.7176227" lon="12.2640119"><ele>151.0</ele><time>2026-04-11T16:39:27.367Z</time></trkpt><trkpt lat="42.7174816" lon="12.2641026"><ele>151.0</ele><time>2026-04-11T16:39:28.351Z</time></trkpt><trkpt lat="42.7173347" lon="12.2641994"><ele>151.0</ele><time>2026-04-11T16:39:29.334Z</time></trkpt><trkpt lat="42.71719" lon="12.264296"><ele>151.0</ele><time>2026-04-11T16:39:30.363Z</time></trkpt><trkpt lat="42.7170555" lon="12.2643869"><ele>151.0</ele><time>2026-04-11T16:39:31.351Z</time></trkpt><trkpt lat="42.7169302" lon="12.2644756"><ele>151.25</ele><time>2026-04-11T16:39:32.361Z</time></trkpt><trkpt lat="42.7168124" lon="12.2645556"><ele>151.5</ele><time>2026-04-11T16:39:33.358Z</time></trkpt><trkpt lat="42.7166998" lon="12.2646316"><ele>151.75</ele><time>2026-04-11T16:39:34.345Z</time></trkpt><trkpt lat="42.7165833" lon="12.264713"><ele>152.0</ele><time>2026-04-11T16:39:35.349Z</time></trkpt><trkpt lat="42.7164696" lon="12.2647895"><ele>152.0</ele><time>2026-04-11T16:39:36.354Z</time></trkpt><trkpt lat="42.7163582" lon="12.264864"><ele>152.0</ele><time>2026-04-11T16:39:37.359Z</time></trkpt><trkpt lat="42.7162493" lon="12.2649367"><ele>152.0</ele><time>2026-04-11T16:39:38.36Z</time></trkpt><trkpt lat="42.7161443" lon="12.2650123"><ele>152.0</ele><time>2026-04-11T16:39:39.36Z</time></trkpt><trkpt lat="42.7160381" lon="12.2650855"><ele>150.75</ele><time>2026-04-11T16:39:40.367Z</time></trkpt><trkpt lat="42.7159275" lon="12.2651568"><ele>149.5</ele><time>2026-04-11T16:39:41.362Z</time></trkpt><trkpt lat="42.7158134" lon="12.2652303"><ele>148.25</ele><time>2026-04-11T16:39:42.356Z</time></trkpt><trkpt lat="42.7157052" lon="12.2653056"><ele>147.0</ele><time>2026-04-11T16:39:43.347Z</time></trkpt><trkpt lat="42.7155956" lon="12.2653817"><ele>147.0</ele><time>2026-04-11T16:39:44.362Z</time></trkpt><trkpt lat="42.7154892" lon="12.2654561"><ele>147.0</ele><time>2026-04-11T16:39:45.361Z</time></trkpt><trkpt lat="42.7153826" lon="12.2655272"><ele>147.0</ele><time>2026-04-11T16:39:46.355Z</time></trkpt><trkpt lat="42.7152785" lon="12.2656013"><ele>147.0</ele><time>2026-04-11T16:39:47.36Z</time></trkpt><trkpt lat="42.7151753" lon="12.2656705"><ele>147.6</ele><time>2026-04-11T16:39:48.356Z</time></trkpt><trkpt lat="42.7150731" lon="12.2657362"><ele>148.2</ele><time>2026-04-11T16:39:49.364Z</time></trkpt><trkpt lat="42.7149705" lon="12.2657981"><ele>148.8</ele><time>2026-04-11T16:39:50.354Z</time></trkpt><trkpt lat="42.7148669" lon="12.2658561"><ele>149.4</ele><time>2026-04-11T16:39:51.363Z</time></trkpt><trkpt lat="42.7147606" lon="12.2659007"><ele>150.0</ele><time>2026-04-11T16:39:52.362Z</time></trkpt><trkpt lat="42.7146522" lon="12.2659075"><ele>150.0</ele><time>2026-04-11T16:39:53.361Z</time></trkpt><trkpt lat="42.7145405" lon="12.2658772"><ele>150.0</ele><time>2026-04-11T16:39:54.354Z</time></trkpt><trkpt lat="42.7144279" lon="12.2658241"><ele>150.0</ele><time>2026-04-11T16:39:55.358Z</time></trkpt><trkpt lat="42.7143138" lon="12.2657562"><ele>150.0</ele><time>2026-04-11T16:39:56.362Z</time></trkpt><trkpt lat="42.7141922" lon="12.2656897"><ele>150.0</ele><time>2026-04-11T16:39:57.364Z</time></trkpt><trkpt lat="42.7140629" lon="12.2656284"><ele>150.0</ele><time>2026-04-11T16:39:58.36Z</time></trkpt><trkpt lat="42.713932" lon="12.2655719"><ele>150.0</ele><time>2026-04-11T16:39:59.361Z</time></trkpt><trkpt lat="42.7138044" lon="12.2655168"><ele>150.0</ele><time>2026-04-11T16:40:00.354Z</time></trkpt><trkpt lat="42.7136775" lon="12.2654546"><ele>149.25</ele><time>2026-04-11T16:40:01.357Z</time></trkpt><trkpt lat="42.7135517" lon="12.2653909"><ele>148.5</ele><time>2026-04-11T16:40:02.352Z</time></trkpt><trkpt lat="42.7134245" lon="12.2653248"><ele>147.75</ele><time>2026-04-11T16:40:03.362Z</time></trkpt><trkpt lat="42.7132913" lon="12.265259"><ele>147.0</ele><time>2026-04-11T16:40:04.364Z</time></trkpt><trkpt lat="42.7131518" lon="12.2651917"><ele>147.0</ele><time>2026-04-11T16:40:05.337Z</time></trkpt><trkpt lat="42.7130096" lon="12.2651206"><ele>147.0</ele><time>2026-04-11T16:40:06.358Z</time></trkpt><trkpt lat="42.712867" lon="12.2650446"><ele>147.0</ele><time>2026-04-11T16:40:07.362Z</time></trkpt><trkpt lat="42.7127257" lon="12.2649708"><ele>147.33333333333334</ele><time>2026-04-11T16:40:08.363Z</time></trkpt><trkpt lat="42.7125861" lon="12.2649013"><ele>147.66666666666669</ele><time>2026-04-11T16:40:09.368Z</time></trkpt><trkpt lat="42.7124416" lon="12.264828"><ele>148.0</ele><time>2026-04-11T16:40:10.359Z</time></trkpt><trkpt lat="42.7123014" lon="12.2647534"><ele>148.0</ele><time>2026-04-11T16:40:11.356Z</time></trkpt><trkpt lat="42.7121662" lon="12.2646851"><ele>148.0</ele><time>2026-04-11T16:40:12.358Z</time></trkpt><trkpt lat="42.7120298" lon="12.2646245"><ele>148.0</ele><time>2026-04-11T16:40:13.359Z</time></trkpt><trkpt lat="42.7118932" lon="12.2645614"><ele>148.0</ele><time>2026-04-11T16:40:14.355Z</time></trkpt><trkpt lat="42.7117503" lon="12.2644912"><ele>148.0</ele><time>2026-04-11T16:40:15.36Z</time></trkpt><trkpt lat="42.7116052" lon="12.2644173"><ele>148.0</ele><time>2026-04-11T16:40:16.354Z</time></trkpt><trkpt lat="42.711462" lon="12.2643468"><ele>148.0</ele><time>2026-04-11T16:40:17.361Z</time></trkpt><trkpt lat="42.7113163" lon="12.2642868"><ele>148.0</ele><time>2026-04-11T16:40:18.358Z</time></trkpt><trkpt lat="42.711176" lon="12.2642331"><ele>148.0</ele><time>2026-04-11T16:40:19.365Z</time></trkpt><trkpt lat="42.7110377" lon="12.264188"><ele>148.0</ele><time>2026-04-11T16:40:20.353Z</time></trkpt><trkpt lat="42.7108985" lon="12.2641481"><ele>148.0</ele><time>2026-04-11T16:40:21.359Z</time></trkpt><trkpt lat="42.710756" lon="12.2641079"><ele>147.0</ele><time>2026-04-11T16:40:22.333Z</time></trkpt><trkpt lat="42.7106139" lon="12.2640727"><ele>146.0</ele><time>2026-04-11T16:40:23.357Z</time></trkpt><trkpt lat="42.71047" lon="12.2640327"><ele>145.0</ele><time>2026-04-11T16:40:24.356Z</time></trkpt><trkpt lat="42.7103249" lon="12.2639917"><ele>144.0</ele><time>2026-04-11T16:40:25.466Z</time></trkpt><trkpt lat="42.7100314" lon="12.263908"><ele>144.0</ele><time>2026-04-11T16:40:27.355Z</time></trkpt><trkpt lat="42.7098833" lon="12.2638627"><ele>144.0</ele><time>2026-04-11T16:40:28.358Z</time></trkpt><trkpt lat="42.7097346" lon="12.2638213"><ele>144.0</ele><time>2026-04-11T16:40:29.365Z</time></trkpt><trkpt lat="42.7095907" lon="12.2637836"><ele>144.0</ele><time>2026-04-11T16:40:30.361Z</time></trkpt><trkpt lat="42.7094456" lon="12.2637432"><ele>144.0</ele><time>2026-04-11T16:40:31.361Z</time></trkpt><trkpt lat="42.709302" lon="12.2637026"><ele>144.0</ele><time>2026-04-11T16:40:32.345Z</time></trkpt><trkpt lat="42.7091607" lon="12.2636624"><ele>144.0</ele><time>2026-04-11T16:40:33.348Z</time></trkpt><trkpt lat="42.7090159" lon="12.2636228"><ele>144.66666666666666</ele><time>2026-04-11T16:40:34.337Z</time></trkpt><trkpt lat="42.7088696" lon="12.2635857"><ele>145.33333333333331</ele><time>2026-04-11T16:40:35.342Z</time></trkpt><trkpt lat="42.7087222" lon="12.2635473"><ele>146.0</ele><time>2026-04-11T16:40:36.363Z</time></trkpt><trkpt lat="42.7085706" lon="12.2635151"><ele>147.0</ele><time>2026-04-11T16:40:37.355Z</time></trkpt><trkpt lat="42.7084225" lon="12.2634764"><ele>148.0</ele><time>2026-04-11T16:40:38.347Z</time></trkpt><trkpt lat="42.7082807" lon="12.2634371"><ele>149.0</ele><time>2026-04-11T16:40:39.359Z</time></trkpt><trkpt lat="42.7081451" lon="12.2633986"><ele>150.0</ele><time>2026-04-11T16:40:40.358Z</time></trkpt><trkpt lat="42.7080103" lon="12.2633526"><ele>150.0</ele><time>2026-04-11T16:40:41.351Z</time></trkpt><trkpt lat="42.7078869" lon="12.2632955"><ele>150.0</ele><time>2026-04-11T16:40:42.343Z</time></trkpt><trkpt lat="42.7077807" lon="12.2632039"><ele>150.0</ele><time>2026-04-11T16:40:43.347Z</time></trkpt><trkpt lat="42.7076966" lon="12.2630967"><ele>150.0</ele><time>2026-04-11T16:40:44.353Z</time></trkpt><trkpt lat="42.7076338" lon="12.2629761"><ele>150.0</ele><time>2026-04-11T16:40:45.36Z</time></trkpt><trkpt lat="42.7076077" lon="12.2628212"><ele>150.0</ele><time>2026-04-11T16:40:46.352Z</time></trkpt><trkpt lat="42.7076304" lon="12.2626708"><ele>150.0</ele><time>2026-04-11T16:40:47.356Z</time></trkpt><trkpt lat="42.7076833" lon="12.2625164"><ele>150.0</ele><time>2026-04-11T16:40:48.326Z</time></trkpt><trkpt lat="42.707744" lon="12.2623564"><ele>151.25</ele><time>2026-04-11T16:40:49.353Z</time></trkpt><trkpt lat="42.7078102" lon="12.2622047"><ele>152.5</ele><time>2026-04-11T16:40:50.359Z</time></trkpt><trkpt lat="42.7078786" lon="12.2620501"><ele>153.75</ele><time>2026-04-11T16:40:51.35Z</time></trkpt><trkpt lat="42.7079468" lon="12.2618895"><ele>155.0</ele><time>2026-04-11T16:40:52.343Z</time></trkpt><trkpt lat="42.7080134" lon="12.2617303"><ele>155.0</ele><time>2026-04-11T16:40:53.349Z</time></trkpt><trkpt lat="42.7080762" lon="12.2615701"><ele>155.0</ele><time>2026-04-11T16:40:54.352Z</time></trkpt><trkpt lat="42.708149" lon="12.2614231"><ele>155.0</ele><time>2026-04-11T16:40:55.346Z</time></trkpt><trkpt lat="42.7082148" lon="12.2612741"><ele>155.0</ele><time>2026-04-11T16:40:56.346Z</time></trkpt><trkpt lat="42.7082833" lon="12.2611247"><ele>157.0</ele><time>2026-04-11T16:40:57.357Z</time></trkpt><trkpt lat="42.7083505" lon="12.2609722"><ele>159.0</ele><time>2026-04-11T16:40:58.356Z</time></trkpt><trkpt lat="42.708414" lon="12.2608199"><ele>161.0</ele><time>2026-04-11T16:40:59.353Z</time></trkpt><trkpt lat="42.7084635" lon="12.2606658"><ele>163.0</ele><time>2026-04-11T16:41:00.35Z</time></trkpt><trkpt lat="42.7084967" lon="12.2605068"><ele>163.5</ele><time>2026-04-11T16:41:01.353Z</time></trkpt><trkpt lat="42.7085115" lon="12.2603399"><ele>164.0</ele><time>2026-04-11T16:41:02.348Z</time></trkpt><trkpt lat="42.7084999" lon="12.2601736"><ele>164.5</ele><time>2026-04-11T16:41:03.349Z</time></trkpt><trkpt lat="42.7084548" lon="12.2600394"><ele>165.0</ele><time>2026-04-11T16:41:04.358Z</time></trkpt><trkpt lat="42.7083972" lon="12.2598945"><ele>162.75</ele><time>2026-04-11T16:41:05.346Z</time></trkpt><trkpt lat="42.7083202" lon="12.2597634"><ele>160.5</ele><time>2026-04-11T16:41:06.346Z</time></trkpt><trkpt lat="42.7082249" lon="12.2596629"><ele>158.25</ele><time>2026-04-11T16:41:07.347Z</time></trkpt><trkpt lat="42.7081115" lon="12.2595889"><ele>156.0</ele><time>2026-04-11T16:41:08.346Z</time></trkpt><trkpt lat="42.7079879" lon="12.2595504"><ele>156.0</ele><time>2026-04-11T16:41:09.353Z</time></trkpt><trkpt lat="42.7078554" lon="12.2594981"><ele>156.0</ele><time>2026-04-11T16:41:10.353Z</time></trkpt><trkpt lat="42.7077118" lon="12.2594418"><ele>156.0</ele><time>2026-04-11T16:41:11.36Z</time></trkpt><trkpt lat="42.7075693" lon="12.2593839"><ele>156.0</ele><time>2026-04-11T16:41:12.342Z</time></trkpt><trkpt lat="42.70742" lon="12.25932"><ele>158.33333333333334</ele><time>2026-04-11T16:41:13.334Z</time></trkpt><trkpt lat="42.7072675" lon="12.2592642"><ele>160.66666666666669</ele><time>2026-04-11T16:41:14.348Z</time></trkpt><trkpt lat="42.7071115" lon="12.259211"><ele>163.0</ele><time>2026-04-11T16:41:15.356Z</time></trkpt><trkpt lat="42.7069485" lon="12.2591532"><ele>166.33333333333334</ele><time>2026-04-11T16:41:16.359Z</time></trkpt><trkpt lat="42.7067842" lon="12.2590936"><ele>169.66666666666666</ele><time>2026-04-11T16:41:17.347Z</time></trkpt><trkpt lat="42.7066243" lon="12.2590298"><ele>173.0</ele><time>2026-04-11T16:41:18.357Z</time></trkpt><trkpt lat="42.706464" lon="12.2589627"><ele>168.33333333333331</ele><time>2026-04-11T16:41:19.348Z</time></trkpt><trkpt lat="42.706305" lon="12.2588916"><ele>163.66666666666666</ele><time>2026-04-11T16:41:20.343Z</time></trkpt><trkpt lat="42.7061462" lon="12.2588235"><ele>159.0</ele><time>2026-04-11T16:41:21.346Z</time></trkpt><trkpt lat="42.7059917" lon="12.2587584"><ele>159.0</ele><time>2026-04-11T16:41:22.354Z</time></trkpt><trkpt lat="42.705841" lon="12.2586989"><ele>159.0</ele><time>2026-04-11T16:41:23.352Z</time></trkpt><trkpt lat="42.7056906" lon="12.2586382"><ele>159.0</ele><time>2026-04-11T16:41:24.347Z</time></trkpt><trkpt lat="42.7055343" lon="12.2585671"><ele>159.0</ele><time>2026-04-11T16:41:25.356Z</time></trkpt><trkpt lat="42.7053849" lon="12.2584842"><ele>159.0</ele><time>2026-04-11T16:41:26.35Z</time></trkpt><trkpt lat="42.7052375" lon="12.2583802"><ele>159.0</ele><time>2026-04-11T16:41:27.348Z</time></trkpt><trkpt lat="42.7051028" lon="12.2582734"><ele>156.75</ele><time>2026-04-11T16:41:28.349Z</time></trkpt><trkpt lat="42.704978" lon="12.2581709"><ele>154.5</ele><time>2026-04-11T16:41:29.333Z</time></trkpt><trkpt lat="42.7048535" lon="12.2580781"><ele>152.25</ele><time>2026-04-11T16:41:30.342Z</time></trkpt><trkpt lat="42.7047337" lon="12.2579964"><ele>150.0</ele><time>2026-04-11T16:41:31.35Z</time></trkpt><trkpt lat="42.7046177" lon="12.2579411"><ele>150.0</ele><time>2026-04-11T16:41:32.355Z</time></trkpt><trkpt lat="42.7045045" lon="12.2579047"><ele>150.0</ele><time>2026-04-11T16:41:33.353Z</time></trkpt><trkpt lat="42.7043915" lon="12.2578928"><ele>150.0</ele><time>2026-04-11T16:41:34.332Z</time></trkpt><trkpt lat="42.7042916" lon="12.2578768"><ele>150.0</ele><time>2026-04-11T16:41:35.336Z</time></trkpt><trkpt lat="42.7041945" lon="12.257856"><ele>150.0</ele><time>2026-04-11T16:41:36.346Z</time></trkpt><trkpt lat="42.7041023" lon="12.2578277"><ele>151.5</ele><time>2026-04-11T16:41:37.35Z</time></trkpt><trkpt lat="42.7040185" lon="12.2577914"><ele>153.0</ele><time>2026-04-11T16:41:38.353Z</time></trkpt><trkpt lat="42.7039356" lon="12.257755"><ele>154.5</ele><time>2026-04-11T16:41:39.358Z</time></trkpt><trkpt lat="42.7038575" lon="12.2577136"><ele>156.0</ele><time>2026-04-11T16:41:40.35Z</time></trkpt><trkpt lat="42.7037879" lon="12.2576781"><ele>157.5</ele><time>2026-04-11T16:41:41.359Z</time></trkpt><trkpt lat="42.7037008" lon="12.2576364"><ele>159.0</ele><time>2026-04-11T16:41:43.345Z</time></trkpt><trkpt lat="42.7036361" lon="12.2575899"><ele>159.0</ele><time>2026-04-11T16:41:46.355Z</time></trkpt><trkpt lat="42.7035779" lon="12.2575412"><ele>159.0</ele><time>2026-04-11T16:41:49.35Z</time></trkpt><trkpt lat="42.7035126" lon="12.2575237"><ele>159.0</ele><time>2026-04-11T16:42:25.33Z</time></trkpt><trkpt lat="42.7035038" lon="12.2576119"><ele>159.0</ele><time>2026-04-11T16:42:27.351Z</time></trkpt><trkpt lat="42.7035656" lon="12.2577125"><ele>159.0</ele><time>2026-04-11T16:42:29.349Z</time></trkpt><trkpt lat="42.7036289" lon="12.2577564"><ele>159.0</ele><time>2026-04-11T16:42:30.347Z</time></trkpt><trkpt lat="42.7037051" lon="12.2578195"><ele>159.0</ele><time>2026-04-11T16:42:31.349Z</time></trkpt><trkpt lat="42.7037806" lon="12.2578787"><ele>159.0</ele><time>2026-04-11T16:42:32.343Z</time></trkpt><trkpt lat="42.7038676" lon="12.257945"><ele>159.0</ele><time>2026-04-11T16:42:33.343Z</time></trkpt><trkpt lat="42.7039794" lon="12.258006"><ele>159.0</ele><time>2026-04-11T16:42:34.34Z</time></trkpt><trkpt lat="42.7041144" lon="12.2580438"><ele>159.0</ele><time>2026-04-11T16:42:35.355Z</time></trkpt><trkpt lat="42.7042615" lon="12.2580673"><ele>159.0</ele><time>2026-04-11T16:42:36.341Z</time></trkpt><trkpt lat="42.704393" lon="12.2580979"><ele>159.0</ele><time>2026-04-11T16:42:37.355Z</time></trkpt><trkpt lat="42.7045014" lon="12.2581613"><ele>159.0</ele><time>2026-04-11T16:42:38.35Z</time></trkpt><trkpt lat="42.7045957" lon="12.2582604"><ele>159.0</ele><time>2026-04-11T16:42:39.35Z</time></trkpt><trkpt lat="42.7046814" lon="12.2583926"><ele>162.5</ele><time>2026-04-11T16:42:40.35Z</time></trkpt><trkpt lat="42.7047659" lon="12.2585125"><ele>166.0</ele><time>2026-04-11T16:42:41.342Z</time></trkpt><trkpt lat="42.7048894" lon="12.2585907"><ele>169.5</ele><time>2026-04-11T16:42:42.35Z</time></trkpt><trkpt lat="42.7050244" lon="12.2586544"><ele>173.0</ele><time>2026-04-11T16:42:43.35Z</time></trkpt><trkpt lat="42.7051574" lon="12.2587244"><ele>176.25</ele><time>2026-04-11T16:42:44.343Z</time></trkpt><trkpt lat="42.7052887" lon="12.2587969"><ele>179.5</ele><time>2026-04-11T16:42:45.358Z</time></trkpt><trkpt lat="42.7054183" lon="12.2588974"><ele>182.75</ele><time>2026-04-11T16:42:46.354Z</time></trkpt><trkpt lat="42.7055308" lon="12.2590317"><ele>186.0</ele><time>2026-04-11T16:42:47.344Z</time></trkpt><trkpt lat="42.7056334" lon="12.2591687"><ele>186.0</ele><time>2026-04-11T16:42:48.333Z</time></trkpt><trkpt lat="42.7057417" lon="12.2592977"><ele>186.0</ele><time>2026-04-11T16:42:49.338Z</time></trkpt><trkpt lat="42.7058713" lon="12.2593886"><ele>186.0</ele><time>2026-04-11T16:42:50.346Z</time></trkpt><trkpt lat="42.7060092" lon="12.2594542"><ele>186.0</ele><time>2026-04-11T16:42:51.35Z</time></trkpt><trkpt lat="42.7061529" lon="12.2595043"><ele>182.75</ele><time>2026-04-11T16:42:52.346Z</time></trkpt><trkpt lat="42.7062976" lon="12.2595562"><ele>179.5</ele><time>2026-04-11T16:42:53.348Z</time></trkpt><trkpt lat="42.7064331" lon="12.2596147"><ele>176.25</ele><time>2026-04-11T16:42:54.36Z</time></trkpt><trkpt lat="42.7065487" lon="12.2596954"><ele>173.0</ele><time>2026-04-11T16:42:55.352Z</time></trkpt><trkpt lat="42.7066524" lon="12.2597858"><ele>175.75</ele><time>2026-04-11T16:42:56.349Z</time></trkpt><trkpt lat="42.7067554" lon="12.2598852"><ele>178.5</ele><time>2026-04-11T16:42:57.347Z</time></trkpt><trkpt lat="42.7068573" lon="12.2600134"><ele>181.25</ele><time>2026-04-11T16:42:58.341Z</time></trkpt><trkpt lat="42.7069406" lon="12.2601324"><ele>184.0</ele><time>2026-04-11T16:42:59.347Z</time></trkpt><trkpt lat="42.7070146" lon="12.2602401"><ele>184.0</ele><time>2026-04-11T16:43:00.34Z</time></trkpt><trkpt lat="42.707088" lon="12.2603398"><ele>184.0</ele><time>2026-04-11T16:43:01.353Z</time></trkpt><trkpt lat="42.7071636" lon="12.2604414"><ele>184.0</ele><time>2026-04-11T16:43:02.347Z</time></trkpt><trkpt lat="42.7072155" lon="12.2605469"><ele>184.0</ele><time>2026-04-11T16:43:03.351Z</time></trkpt><trkpt lat="42.7072303" lon="12.2606507"><ele>184.0</ele><time>2026-04-11T16:43:04.339Z</time></trkpt><trkpt lat="42.7072078" lon="12.2607531"><ele>185.39999999999998</ele><time>2026-04-11T16:43:05.343Z</time></trkpt><trkpt lat="42.7071626" lon="12.2608522"><ele>186.8</ele><time>2026-04-11T16:43:06.344Z</time></trkpt><trkpt lat="42.7070988" lon="12.2609614"><ele>188.2</ele><time>2026-04-11T16:43:07.339Z</time></trkpt><trkpt lat="42.7070272" lon="12.2610433"><ele>189.60000000000002</ele><time>2026-04-11T16:43:08.345Z</time></trkpt><trkpt lat="42.7069449" lon="12.2611147"><ele>191.0</ele><time>2026-04-11T16:43:09.362Z</time></trkpt><trkpt lat="42.7068511" lon="12.2611677"><ele>195.0</ele><time>2026-04-11T16:43:10.347Z</time></trkpt><trkpt lat="42.7067418" lon="12.2611842"><ele>199.0</ele><time>2026-04-11T16:43:11.36Z</time></trkpt><trkpt lat="42.706638" lon="12.2611973"><ele>203.0</ele><time>2026-04-11T16:43:12.339Z</time></trkpt><trkpt lat="42.706538" lon="12.2612384"><ele>207.0</ele><time>2026-04-11T16:43:13.341Z</time></trkpt><trkpt lat="42.7064344" lon="12.2612745"><ele>211.0</ele><time>2026-04-11T16:43:14.363Z</time></trkpt><trkpt lat="42.7063348" lon="12.2613541"><ele>209.0</ele><time>2026-04-11T16:43:15.355Z</time></trkpt><trkpt lat="42.7062777" lon="12.2614821"><ele>207.0</ele><time>2026-04-11T16:43:16.353Z</time></trkpt><trkpt lat="42.7062409" lon="12.2616526"><ele>205.0</ele><time>2026-04-11T16:43:17.347Z</time></trkpt><trkpt lat="42.706242" lon="12.2618188"><ele>203.0</ele><time>2026-04-11T16:43:18.35Z</time></trkpt><trkpt lat="42.7062664" lon="12.2619776"><ele>203.0</ele><time>2026-04-11T16:43:19.349Z</time></trkpt><trkpt lat="42.7062939" lon="12.2621406"><ele>203.0</ele><time>2026-04-11T16:43:20.348Z</time></trkpt><trkpt lat="42.7062891" lon="12.2623056"><ele>203.0</ele><time>2026-04-11T16:43:21.353Z</time></trkpt><trkpt lat="42.7062422" lon="12.2624765"><ele>203.0</ele><time>2026-04-11T16:43:22.347Z</time></trkpt><trkpt lat="42.7061635" lon="12.2626155"><ele>209.25</ele><time>2026-04-11T16:43:23.36Z</time></trkpt><trkpt lat="42.7060538" lon="12.2627261"><ele>215.5</ele><time>2026-04-11T16:43:24.353Z</time></trkpt><trkpt lat="42.7059164" lon="12.2628077"><ele>221.75</ele><time>2026-04-11T16:43:25.338Z</time></trkpt><trkpt lat="42.705767" lon="12.2628731"><ele>228.0</ele><time>2026-04-11T16:43:26.352Z</time></trkpt><trkpt lat="42.7056155" lon="12.2629312"><ele>228.0</ele><time>2026-04-11T16:43:27.354Z</time></trkpt><trkpt lat="42.7054702" lon="12.2629474"><ele>228.0</ele><time>2026-04-11T16:43:28.347Z</time></trkpt><trkpt lat="42.7053474" lon="12.262916"><ele>228.0</ele><time>2026-04-11T16:43:29.346Z</time></trkpt><trkpt lat="42.7052415" lon="12.2628596"><ele>228.0</ele><time>2026-04-11T16:43:30.353Z</time></trkpt><trkpt lat="42.7051435" lon="12.2628152"><ele>229.2</ele><time>2026-04-11T16:43:31.369Z</time></trkpt><trkpt lat="42.7050551" lon="12.2628277"><ele>230.4</ele><time>2026-04-11T16:43:32.35Z</time></trkpt><trkpt lat="42.704969" lon="12.2628986"><ele>231.59999999999997</ele><time>2026-04-11T16:43:33.359Z</time></trkpt><trkpt lat="42.7049003" lon="12.2630101"><ele>232.79999999999998</ele><time>2026-04-11T16:43:34.347Z</time></trkpt><trkpt lat="42.7048638" lon="12.26316"><ele>234.0</ele><time>2026-04-11T16:43:35.338Z</time></trkpt><trkpt lat="42.7048793" lon="12.2633199"><ele>234.0</ele><time>2026-04-11T16:43:36.353Z</time></trkpt><trkpt lat="42.7049316" lon="12.2634706"><ele>234.0</ele><time>2026-04-11T16:43:37.361Z</time></trkpt><trkpt lat="42.7049812" lon="12.2636277"><ele>234.0</ele><time>2026-04-11T16:43:38.352Z</time></trkpt><trkpt lat="42.7050251" lon="12.2638018"><ele>234.0</ele><time>2026-04-11T16:43:39.346Z</time></trkpt><trkpt lat="42.705029" lon="12.2639751"><ele>233.25</ele><time>2026-04-11T16:43:40.357Z</time></trkpt><trkpt lat="42.7049824" lon="12.2641452"><ele>232.5</ele><time>2026-04-11T16:43:41.351Z</time></trkpt><trkpt lat="42.7049305" lon="12.2643064"><ele>231.75</ele><time>2026-04-11T16:43:42.356Z</time></trkpt><trkpt lat="42.7048582" lon="12.2644601"><ele>231.0</ele><time>2026-04-11T16:43:43.346Z</time></trkpt><trkpt lat="42.7047804" lon="12.2646217"><ele>229.5</ele><time>2026-04-11T16:43:44.336Z</time></trkpt><trkpt lat="42.7047257" lon="12.2647884"><ele>228.0</ele><time>2026-04-11T16:43:45.358Z</time></trkpt><trkpt lat="42.7046872" lon="12.2649657"><ele>226.5</ele><time>2026-04-11T16:43:46.352Z</time></trkpt><trkpt lat="42.7046479" lon="12.2651659"><ele>225.0</ele><time>2026-04-11T16:43:47.352Z</time></trkpt><trkpt lat="42.7045912" lon="12.2653638"><ele>225.0</ele><time>2026-04-11T16:43:48.347Z</time></trkpt><trkpt lat="42.7045219" lon="12.2655587"><ele>225.0</ele><time>2026-04-11T16:43:49.357Z</time></trkpt><trkpt lat="42.7044518" lon="12.265749"><ele>225.0</ele><time>2026-04-11T16:43:50.355Z</time></trkpt><trkpt lat="42.7043836" lon="12.2659401"><ele>230.25</ele><time>2026-04-11T16:43:51.364Z</time></trkpt><trkpt lat="42.7043119" lon="12.266109"><ele>235.5</ele><time>2026-04-11T16:43:52.349Z</time></trkpt><trkpt lat="42.7042368" lon="12.2662463"><ele>240.75</ele><time>2026-04-11T16:43:53.357Z</time></trkpt><trkpt lat="42.7041538" lon="12.2663805"><ele>246.0</ele><time>2026-04-11T16:43:54.358Z</time></trkpt><trkpt lat="42.7040831" lon="12.2665112"><ele>246.0</ele><time>2026-04-11T16:43:55.365Z</time></trkpt><trkpt lat="42.7040335" lon="12.2666669"><ele>246.0</ele><time>2026-04-11T16:43:56.347Z</time></trkpt><trkpt lat="42.703999" lon="12.2668448"><ele>246.0</ele><time>2026-04-11T16:43:57.35Z</time></trkpt><trkpt lat="42.7039852" lon="12.2670316"><ele>246.0</ele><time>2026-04-11T16:43:58.326Z</time></trkpt><trkpt lat="42.7039986" lon="12.2672146"><ele>246.75</ele><time>2026-04-11T16:43:59.355Z</time></trkpt><trkpt lat="42.704038" lon="12.2673854"><ele>247.5</ele><time>2026-04-11T16:44:00.341Z</time></trkpt><trkpt lat="42.7040814" lon="12.267545"><ele>248.25</ele><time>2026-04-11T16:44:01.352Z</time></trkpt><trkpt lat="42.7041056" lon="12.2676968"><ele>249.0</ele><time>2026-04-11T16:44:02.365Z</time></trkpt><trkpt lat="42.7040999" lon="12.267859"><ele>249.0</ele><time>2026-04-11T16:44:03.356Z</time></trkpt><trkpt lat="42.7040775" lon="12.268023"><ele>249.0</ele><time>2026-04-11T16:44:04.346Z</time></trkpt><trkpt lat="42.7040579" lon="12.2681825"><ele>249.0</ele><time>2026-04-11T16:44:05.353Z</time></trkpt><trkpt lat="42.7040419" lon="12.2683305"><ele>249.0</ele><time>2026-04-11T16:44:06.349Z</time></trkpt><trkpt lat="42.7040159" lon="12.2684706"><ele>248.75</ele><time>2026-04-11T16:44:07.354Z</time></trkpt><trkpt lat="42.7039776" lon="12.2686138"><ele>248.5</ele><time>2026-04-11T16:44:08.348Z</time></trkpt><trkpt lat="42.703927" lon="12.2687658"><ele>248.25</ele><time>2026-04-11T16:44:09.351Z</time></trkpt><trkpt lat="42.7038766" lon="12.268926"><ele>248.0</ele><time>2026-04-11T16:44:10.362Z</time></trkpt><trkpt lat="42.7038219" lon="12.2690932"><ele>246.0</ele><time>2026-04-11T16:44:11.349Z</time></trkpt><trkpt lat="42.7037636" lon="12.2692678"><ele>244.0</ele><time>2026-04-11T16:44:12.346Z</time></trkpt><trkpt lat="42.7036957" lon="12.2694431"><ele>242.0</ele><time>2026-04-11T16:44:13.353Z</time></trkpt><trkpt lat="42.7036197" lon="12.269616"><ele>240.0</ele><time>2026-04-11T16:44:14.353Z</time></trkpt><trkpt lat="42.7035364" lon="12.2697924"><ele>246.75</ele><time>2026-04-11T16:44:15.344Z</time></trkpt><trkpt lat="42.7034564" lon="12.269961"><ele>253.5</ele><time>2026-04-11T16:44:16.351Z</time></trkpt><trkpt lat="42.7033776" lon="12.270121"><ele>260.25</ele><time>2026-04-11T16:44:17.355Z</time></trkpt><trkpt lat="42.7032925" lon="12.2702627"><ele>267.0</ele><time>2026-04-11T16:44:18.349Z</time></trkpt><trkpt lat="42.7031953" lon="12.2704003"><ele>267.0</ele><time>2026-04-11T16:44:19.354Z</time></trkpt><trkpt lat="42.7030961" lon="12.2705303"><ele>267.0</ele><time>2026-04-11T16:44:20.351Z</time></trkpt><trkpt lat="42.7030031" lon="12.2706654"><ele>267.0</ele><time>2026-04-11T16:44:21.352Z</time></trkpt><trkpt lat="42.70292" lon="12.2708155"><ele>267.0</ele><time>2026-04-11T16:44:22.354Z</time></trkpt><trkpt lat="42.7028447" lon="12.27097"><ele>263.0</ele><time>2026-04-11T16:44:23.35Z</time></trkpt><trkpt lat="42.7027668" lon="12.2711261"><ele>259.0</ele><time>2026-04-11T16:44:24.35Z</time></trkpt><trkpt lat="42.7026938" lon="12.2712821"><ele>255.0</ele><time>2026-04-11T16:44:25.352Z</time></trkpt><trkpt lat="42.7026478" lon="12.2714538"><ele>251.0</ele><time>2026-04-11T16:44:26.351Z</time></trkpt><trkpt lat="42.7026314" lon="12.2716392"><ele>257.0</ele><time>2026-04-11T16:44:27.358Z</time></trkpt><trkpt lat="42.7026321" lon="12.2718363"><ele>263.0</ele><time>2026-04-11T16:44:28.346Z</time></trkpt><trkpt lat="42.7026237" lon="12.2720236"><ele>269.0</ele><time>2026-04-11T16:44:29.334Z</time></trkpt><trkpt lat="42.702592" lon="12.2721956"><ele>275.0</ele><time>2026-04-11T16:44:30.347Z</time></trkpt><trkpt lat="42.7025378" lon="12.2723611"><ele>275.0</ele><time>2026-04-11T16:44:31.348Z</time></trkpt><trkpt lat="42.7024713" lon="12.2725226"><ele>275.0</ele><time>2026-04-11T16:44:32.343Z</time></trkpt><trkpt lat="42.7024103" lon="12.2726952"><ele>275.0</ele><time>2026-04-11T16:44:33.364Z</time></trkpt><trkpt lat="42.7023577" lon="12.2728798"><ele>275.0</ele><time>2026-04-11T16:44:34.345Z</time></trkpt><trkpt lat="42.7023038" lon="12.273067"><ele>273.0</ele><time>2026-04-11T16:44:35.338Z</time></trkpt><trkpt lat="42.7022345" lon="12.2732474"><ele>271.0</ele><time>2026-04-11T16:44:36.344Z</time></trkpt><trkpt lat="42.7021527" lon="12.2733945"><ele>269.0</ele><time>2026-04-11T16:44:37.356Z</time></trkpt><trkpt lat="42.702067" lon="12.2735127"><ele>267.0</ele><time>2026-04-11T16:44:38.359Z</time></trkpt><trkpt lat="42.701992" lon="12.2736257"><ele>267.0</ele><time>2026-04-11T16:44:39.365Z</time></trkpt><trkpt lat="42.7019419" lon="12.2737537"><ele>267.0</ele><time>2026-04-11T16:44:40.359Z</time></trkpt><trkpt lat="42.7019272" lon="12.2739046"><ele>267.0</ele><time>2026-04-11T16:44:41.358Z</time></trkpt><trkpt lat="42.7019215" lon="12.2740704"><ele>267.0</ele><time>2026-04-11T16:44:42.361Z</time></trkpt><trkpt lat="42.7019155" lon="12.2742588"><ele>273.5</ele><time>2026-04-11T16:44:43.364Z</time></trkpt><trkpt lat="42.7019111" lon="12.2744561"><ele>280.0</ele><time>2026-04-11T16:44:44.357Z</time></trkpt><trkpt lat="42.7019031" lon="12.274661"><ele>286.5</ele><time>2026-04-11T16:44:45.359Z</time></trkpt><trkpt lat="42.7018984" lon="12.2748637"><ele>293.0</ele><time>2026-04-11T16:44:46.351Z</time></trkpt><trkpt lat="42.7018906" lon="12.2750635"><ele>293.25</ele><time>2026-04-11T16:44:47.351Z</time></trkpt><trkpt lat="42.7018824" lon="12.2752622"><ele>293.5</ele><time>2026-04-11T16:44:48.346Z</time></trkpt><trkpt lat="42.7018764" lon="12.2754634"><ele>293.75</ele><time>2026-04-11T16:44:49.352Z</time></trkpt><trkpt lat="42.7018703" lon="12.2756487"><ele>294.0</ele><time>2026-04-11T16:44:50.351Z</time></trkpt><trkpt lat="42.7018616" lon="12.2758115"><ele>295.0</ele><time>2026-04-11T16:44:51.352Z</time></trkpt><trkpt lat="42.7018504" lon="12.2759686"><ele>296.0</ele><time>2026-04-11T16:44:52.347Z</time></trkpt><trkpt lat="42.70183" lon="12.2761134"><ele>297.0</ele><time>2026-04-11T16:44:53.338Z</time></trkpt><trkpt lat="42.7017886" lon="12.2762558"><ele>298.0</ele><time>2026-04-11T16:44:54.347Z</time></trkpt><trkpt lat="42.701729" lon="12.2763907"><ele>296.5</ele><time>2026-04-11T16:44:55.356Z</time></trkpt><trkpt lat="42.7016585" lon="12.2765223"><ele>295.0</ele><time>2026-04-11T16:44:56.349Z</time></trkpt><trkpt lat="42.7015793" lon="12.2766562"><ele>293.5</ele><time>2026-04-11T16:44:57.358Z</time></trkpt><trkpt lat="42.7014964" lon="12.2768036"><ele>292.0</ele><time>2026-04-11T16:44:58.361Z</time></trkpt><trkpt lat="42.7014148" lon="12.2769525"><ele>292.0</ele><time>2026-04-11T16:44:59.355Z</time></trkpt><trkpt lat="42.7013259" lon="12.2771065"><ele>292.0</ele><time>2026-04-11T16:45:00.355Z</time></trkpt><trkpt lat="42.7012379" lon="12.2772526"><ele>292.0</ele><time>2026-04-11T16:45:01.351Z</time></trkpt><trkpt lat="42.7011564" lon="12.2773845"><ele>292.0</ele><time>2026-04-11T16:45:02.354Z</time></trkpt><trkpt lat="42.7010945" lon="12.2775423"><ele>297.5</ele><time>2026-04-11T16:45:03.353Z</time></trkpt><trkpt lat="42.7010642" lon="12.2777275"><ele>303.0</ele><time>2026-04-11T16:45:04.341Z</time></trkpt><trkpt lat="42.7010503" lon="12.2779187"><ele>308.5</ele><time>2026-04-11T16:45:05.346Z</time></trkpt><trkpt lat="42.7010326" lon="12.2781007"><ele>314.0</ele><time>2026-04-11T16:45:06.347Z</time></trkpt><trkpt lat="42.7009984" lon="12.2782837"><ele>315.75</ele><time>2026-04-11T16:45:07.353Z</time></trkpt><trkpt lat="42.7009657" lon="12.2784406"><ele>317.5</ele><time>2026-04-11T16:45:08.345Z</time></trkpt><trkpt lat="42.7009577" lon="12.2786007"><ele>319.25</ele><time>2026-04-11T16:45:09.362Z</time></trkpt><trkpt lat="42.7010111" lon="12.2787565"><ele>321.0</ele><time>2026-04-11T16:45:10.354Z</time></trkpt><trkpt lat="42.7010732" lon="12.2789037"><ele>322.0</ele><time>2026-04-11T16:45:11.359Z</time></trkpt><trkpt lat="42.7011064" lon="12.279044"><ele>323.0</ele><time>2026-04-11T16:45:12.359Z</time></trkpt><trkpt lat="42.7011028" lon="12.2791864"><ele>324.0</ele><time>2026-04-11T16:45:13.353Z</time></trkpt><trkpt lat="42.7010824" lon="12.2793255"><ele>325.0</ele><time>2026-04-11T16:45:14.357Z</time></trkpt><trkpt lat="42.7010492" lon="12.2794742"><ele>326.0</ele><time>2026-04-11T16:45:15.358Z</time></trkpt><trkpt lat="42.7010256" lon="12.2796258"><ele>328.0</ele><time>2026-04-11T16:45:16.358Z</time></trkpt><trkpt lat="42.70102" lon="12.2797792"><ele>330.0</ele><time>2026-04-11T16:45:17.35Z</time></trkpt><trkpt lat="42.7010592" lon="12.2799306"><ele>332.0</ele><time>2026-04-11T16:45:18.356Z</time></trkpt><trkpt lat="42.7011198" lon="12.2800674"><ele>334.0</ele><time>2026-04-11T16:45:19.354Z</time></trkpt><trkpt lat="42.7011845" lon="12.2802003"><ele>327.25</ele><time>2026-04-11T16:45:20.342Z</time></trkpt><trkpt lat="42.7012405" lon="12.2803333"><ele>320.5</ele><time>2026-04-11T16:45:21.353Z</time></trkpt><trkpt lat="42.7012829" lon="12.2804765"><ele>313.75</ele><time>2026-04-11T16:45:22.351Z</time></trkpt><trkpt lat="42.7013069" lon="12.2806362"><ele>307.0</ele><time>2026-04-11T16:45:23.349Z</time></trkpt><trkpt lat="42.7013147" lon="12.2807998"><ele>307.0</ele><time>2026-04-11T16:45:24.335Z</time></trkpt><trkpt lat="42.7013038" lon="12.2809566"><ele>307.0</ele><time>2026-04-11T16:45:25.344Z</time></trkpt><trkpt lat="42.7012814" lon="12.2811138"><ele>307.0</ele><time>2026-04-11T16:45:26.352Z</time></trkpt><trkpt lat="42.7012409" lon="12.2812592"><ele>307.0</ele><time>2026-04-11T16:45:27.354Z</time></trkpt><trkpt lat="42.7011926" lon="12.2813949"><ele>308.2</ele><time>2026-04-11T16:45:28.344Z</time></trkpt><trkpt lat="42.7011502" lon="12.2815225"><ele>309.4</ele><time>2026-04-11T16:45:29.348Z</time></trkpt><trkpt lat="42.7011168" lon="12.2816485"><ele>310.6</ele><time>2026-04-11T16:45:30.352Z</time></trkpt><trkpt lat="42.7011115" lon="12.2817701"><ele>311.8</ele><time>2026-04-11T16:45:31.346Z</time></trkpt><trkpt lat="42.7011263" lon="12.2818795"><ele>313.0</ele><time>2026-04-11T16:45:32.338Z</time></trkpt><trkpt lat="42.7011647" lon="12.2819839"><ele>313.0</ele><time>2026-04-11T16:45:33.355Z</time></trkpt><trkpt lat="42.7012388" lon="12.2820358"><ele>313.0</ele><time>2026-04-11T16:45:34.341Z</time></trkpt><trkpt lat="42.7013351" lon="12.2820492"><ele>313.0</ele><time>2026-04-11T16:45:35.332Z</time></trkpt><trkpt lat="42.7014351" lon="12.2820274"><ele>313.0</ele><time>2026-04-11T16:45:36.34Z</time></trkpt><trkpt lat="42.7015366" lon="12.2820129"><ele>313.0</ele><time>2026-04-11T16:45:37.337Z</time></trkpt><trkpt lat="42.7016327" lon="12.2820347"><ele>313.0</ele><time>2026-04-11T16:45:38.351Z</time></trkpt><trkpt lat="42.7017295" lon="12.2821093"><ele>313.0</ele><time>2026-04-11T16:45:39.333Z</time></trkpt><trkpt lat="42.7018305" lon="12.2822125"><ele>313.0</ele><time>2026-04-11T16:45:40.343Z</time></trkpt><trkpt lat="42.7019355" lon="12.2823239"><ele>313.0</ele><time>2026-04-11T16:45:41.347Z</time></trkpt><trkpt lat="42.702041" lon="12.2824214"><ele>313.75</ele><time>2026-04-11T16:45:42.35Z</time></trkpt><trkpt lat="42.7021393" lon="12.2825213"><ele>314.5</ele><time>2026-04-11T16:45:43.345Z</time></trkpt><trkpt lat="42.702235" lon="12.2826482"><ele>315.25</ele><time>2026-04-11T16:45:44.351Z</time></trkpt><trkpt lat="42.7023136" lon="12.2828048"><ele>316.0</ele><time>2026-04-11T16:45:45.356Z</time></trkpt><trkpt lat="42.7023816" lon="12.2829562"><ele>319.75</ele><time>2026-04-11T16:45:46.346Z</time></trkpt><trkpt lat="42.7024457" lon="12.2831108"><ele>323.5</ele><time>2026-04-11T16:45:47.354Z</time></trkpt><trkpt lat="42.7025077" lon="12.2832706"><ele>327.25</ele><time>2026-04-11T16:45:48.342Z</time></trkpt><trkpt lat="42.7025651" lon="12.2834296"><ele>331.0</ele><time>2026-04-11T16:45:49.346Z</time></trkpt><trkpt lat="42.7026247" lon="12.2835849"><ele>331.0</ele><time>2026-04-11T16:45:50.35Z</time></trkpt><trkpt lat="42.7026978" lon="12.2837254"><ele>331.0</ele><time>2026-04-11T16:45:51.356Z</time></trkpt><trkpt lat="42.7027872" lon="12.2838549"><ele>331.0</ele><time>2026-04-11T16:45:52.336Z</time></trkpt><trkpt lat="42.7028834" lon="12.2839605"><ele>331.0</ele><time>2026-04-11T16:45:53.354Z</time></trkpt><trkpt lat="42.7029747" lon="12.2840539"><ele>332.20000000000005</ele><time>2026-04-11T16:45:54.354Z</time></trkpt><trkpt lat="42.7030583" lon="12.2841184"><ele>333.40000000000003</ele><time>2026-04-11T16:45:55.35Z</time></trkpt><trkpt lat="42.7031452" lon="12.2841393"><ele>334.6</ele><time>2026-04-11T16:45:56.348Z</time></trkpt><trkpt lat="42.7032318" lon="12.2841138"><ele>335.8</ele><time>2026-04-11T16:45:57.339Z</time></trkpt><trkpt lat="42.7033094" lon="12.2840536"><ele>337.0</ele><time>2026-04-11T16:45:58.348Z</time></trkpt><trkpt lat="42.7033804" lon="12.2839504"><ele>336.0</ele><time>2026-04-11T16:45:59.347Z</time></trkpt><trkpt lat="42.7034307" lon="12.2838241"><ele>335.0</ele><time>2026-04-11T16:46:00.339Z</time></trkpt><trkpt lat="42.703454" lon="12.2836778"><ele>334.0</ele><time>2026-04-11T16:46:01.354Z</time></trkpt><trkpt lat="42.7034251" lon="12.2834934"><ele>333.0</ele><time>2026-04-11T16:46:02.342Z</time></trkpt><trkpt lat="42.7033642" lon="12.2833183"><ele>333.0</ele><time>2026-04-11T16:46:03.351Z</time></trkpt><trkpt lat="42.7032809" lon="12.2831747"><ele>333.0</ele><time>2026-04-11T16:46:04.326Z</time></trkpt><trkpt lat="42.7032121" lon="12.2830706"><ele>333.0</ele><time>2026-04-11T16:46:05.341Z</time></trkpt><trkpt lat="42.7031551" lon="12.2829448"><ele>333.0</ele><time>2026-04-11T16:46:06.328Z</time></trkpt><trkpt lat="42.7031278" lon="12.2827922"><ele>334.5</ele><time>2026-04-11T16:46:07.349Z</time></trkpt><trkpt lat="42.7031154" lon="12.282625"><ele>336.0</ele><time>2026-04-11T16:46:08.333Z</time></trkpt><trkpt lat="42.7031065" lon="12.2824625"><ele>337.5</ele><time>2026-04-11T16:46:09.355Z</time></trkpt><trkpt lat="42.7030976" lon="12.282285"><ele>339.0</ele><time>2026-04-11T16:46:10.336Z</time></trkpt><trkpt lat="42.7030874" lon="12.2821073"><ele>339.75</ele><time>2026-04-11T16:46:11.344Z</time></trkpt><trkpt lat="42.7030649" lon="12.2819183"><ele>340.5</ele><time>2026-04-11T16:46:12.35Z</time></trkpt><trkpt lat="42.7030086" lon="12.2817361"><ele>341.25</ele><time>2026-04-11T16:46:13.344Z</time></trkpt><trkpt lat="42.7029505" lon="12.2815787"><ele>342.0</ele><time>2026-04-11T16:46:14.349Z</time></trkpt><trkpt lat="42.7028892" lon="12.2814347"><ele>342.0</ele><time>2026-04-11T16:46:15.347Z</time></trkpt><trkpt lat="42.7028363" lon="12.2813135"><ele>342.0</ele><time>2026-04-11T16:46:16.355Z</time></trkpt><trkpt lat="42.7028004" lon="12.2812126"><ele>342.0</ele><time>2026-04-11T16:46:17.359Z</time></trkpt><trkpt lat="42.7027751" lon="12.2811263"><ele>342.0</ele><time>2026-04-11T16:46:18.35Z</time></trkpt><trkpt lat="42.7027579" lon="12.2810293"><ele>342.0</ele><time>2026-04-11T16:46:19.358Z</time></trkpt><trkpt lat="42.7027654" lon="12.2809251"><ele>342.0</ele><time>2026-04-11T16:46:20.352Z</time></trkpt><trkpt lat="42.7027956" lon="12.2808166"><ele>342.0</ele><time>2026-04-11T16:46:21.355Z</time></trkpt><trkpt lat="42.7028517" lon="12.2807118"><ele>342.0</ele><time>2026-04-11T16:46:22.359Z</time></trkpt><trkpt lat="42.7029164" lon="12.2806059"><ele>342.0</ele><time>2026-04-11T16:46:23.365Z</time></trkpt><trkpt lat="42.7029987" lon="12.2805104"><ele>342.0</ele><time>2026-04-11T16:46:24.354Z</time></trkpt><trkpt lat="42.7030952" lon="12.2804454"><ele>342.0</ele><time>2026-04-11T16:46:25.353Z</time></trkpt><trkpt lat="42.7031999" lon="12.280425"><ele>342.0</ele><time>2026-04-11T16:46:26.348Z</time></trkpt><trkpt lat="42.7033227" lon="12.2804426"><ele>342.0</ele><time>2026-04-11T16:46:27.355Z</time></trkpt><trkpt lat="42.7034221" lon="12.2805324"><ele>342.0</ele><time>2026-04-11T16:46:28.355Z</time></trkpt><trkpt lat="42.7035052" lon="12.2806609"><ele>342.0</ele><time>2026-04-11T16:46:29.359Z</time></trkpt><trkpt lat="42.7035582" lon="12.280834"><ele>342.75</ele><time>2026-04-11T16:46:30.357Z</time></trkpt><trkpt lat="42.7036088" lon="12.2809909"><ele>343.5</ele><time>2026-04-11T16:46:31.347Z</time></trkpt><trkpt lat="42.7036573" lon="12.2811635"><ele>344.25</ele><time>2026-04-11T16:46:32.357Z</time></trkpt><trkpt lat="42.7036985" lon="12.2813398"><ele>345.0</ele><time>2026-04-11T16:46:33.364Z</time></trkpt><trkpt lat="42.7037538" lon="12.2815093"><ele>345.0</ele><time>2026-04-11T16:46:34.356Z</time></trkpt><trkpt lat="42.7038239" lon="12.2816688"><ele>345.0</ele><time>2026-04-11T16:46:35.348Z</time></trkpt><trkpt lat="42.7039106" lon="12.281817"><ele>345.0</ele><time>2026-04-11T16:46:36.36Z</time></trkpt><trkpt lat="42.7040115" lon="12.2819594"><ele>345.0</ele><time>2026-04-11T16:46:37.365Z</time></trkpt><trkpt lat="42.7041163" lon="12.2821045"><ele>345.0</ele><time>2026-04-11T16:46:38.361Z</time></trkpt><trkpt lat="42.7042232" lon="12.2822493"><ele>345.0</ele><time>2026-04-11T16:46:39.355Z</time></trkpt><trkpt lat="42.704322" lon="12.2824159"><ele>345.0</ele><time>2026-04-11T16:46:40.359Z</time></trkpt><trkpt lat="42.7044073" lon="12.2825826"><ele>347.5</ele><time>2026-04-11T16:46:41.336Z</time></trkpt><trkpt lat="42.7044926" lon="12.2827392"><ele>350.0</ele><time>2026-04-11T16:46:42.356Z</time></trkpt><trkpt lat="42.7045719" lon="12.2828814"><ele>352.5</ele><time>2026-04-11T16:46:43.355Z</time></trkpt><trkpt lat="42.7046467" lon="12.2830131"><ele>355.0</ele><time>2026-04-11T16:46:44.342Z</time></trkpt><trkpt lat="42.7047221" lon="12.2831049"><ele>356.75</ele><time>2026-04-11T16:46:45.344Z</time></trkpt><trkpt lat="42.7048127" lon="12.2831878"><ele>358.5</ele><time>2026-04-11T16:46:46.361Z</time></trkpt><trkpt lat="42.7049214" lon="12.2832502"><ele>360.25</ele><time>2026-04-11T16:46:47.362Z</time></trkpt><trkpt lat="42.7050392" lon="12.2832807"><ele>362.0</ele><time>2026-04-11T16:46:48.348Z</time></trkpt><trkpt lat="42.7051585" lon="12.2832577"><ele>362.8</ele><time>2026-04-11T16:46:49.352Z</time></trkpt><trkpt lat="42.7052461" lon="12.283181"><ele>363.6</ele><time>2026-04-11T16:46:50.363Z</time></trkpt><trkpt lat="42.7053054" lon="12.2830639"><ele>364.40000000000003</ele><time>2026-04-11T16:46:51.372Z</time></trkpt><trkpt lat="42.7053643" lon="12.2829344"><ele>365.20000000000005</ele><time>2026-04-11T16:46:52.362Z</time></trkpt><trkpt lat="42.7054345" lon="12.2828292"><ele>366.0</ele><time>2026-04-11T16:46:53.359Z</time></trkpt><trkpt lat="42.7055245" lon="12.2827278"><ele>366.0</ele><time>2026-04-11T16:46:54.357Z</time></trkpt><trkpt lat="42.7056668" lon="12.2826708"><ele>366.0</ele><time>2026-04-11T16:46:55.363Z</time></trkpt><trkpt lat="42.7058035" lon="12.2826154"><ele>366.0</ele><time>2026-04-11T16:46:56.343Z</time></trkpt><trkpt lat="42.7059306" lon="12.2825465"><ele>366.0</ele><time>2026-04-11T16:46:57.361Z</time></trkpt><trkpt lat="42.7060488" lon="12.2824492"><ele>368.25</ele><time>2026-04-11T16:46:58.351Z</time></trkpt><trkpt lat="42.7061533" lon="12.2823242"><ele>370.5</ele><time>2026-04-11T16:46:59.358Z</time></trkpt><trkpt lat="42.706245" lon="12.2821859"><ele>372.75</ele><time>2026-04-11T16:47:00.359Z</time></trkpt><trkpt lat="42.7063313" lon="12.282033"><ele>375.0</ele><time>2026-04-11T16:47:01.338Z</time></trkpt><trkpt lat="42.7064159" lon="12.2818746"><ele>375.0</ele><time>2026-04-11T16:47:02.355Z</time></trkpt><trkpt lat="42.7065121" lon="12.2817225"><ele>375.0</ele><time>2026-04-11T16:47:03.37Z</time></trkpt><trkpt lat="42.7066165" lon="12.2815797"><ele>375.0</ele><time>2026-04-11T16:47:04.367Z</time></trkpt><trkpt lat="42.7067359" lon="12.2814441"><ele>377.6666666666667</ele><time>2026-04-11T16:47:05.366Z</time></trkpt><trkpt lat="42.7068571" lon="12.2813107"><ele>380.33333333333337</ele><time>2026-04-11T16:47:06.344Z</time></trkpt><trkpt lat="42.7069732" lon="12.2811726"><ele>383.0</ele><time>2026-04-11T16:47:07.357Z</time></trkpt><trkpt lat="42.7070891" lon="12.2810365"><ele>383.0</ele><time>2026-04-11T16:47:08.333Z</time></trkpt><trkpt lat="42.7072005" lon="12.2809049"><ele>383.0</ele><time>2026-04-11T16:47:09.353Z</time></trkpt><trkpt lat="42.7073044" lon="12.2807797"><ele>383.0</ele><time>2026-04-11T16:47:10.352Z</time></trkpt><trkpt lat="42.707408" lon="12.2806627"><ele>383.0</ele><time>2026-04-11T16:47:11.358Z</time></trkpt><trkpt lat="42.7075125" lon="12.2805418"><ele>381.25</ele><time>2026-04-11T16:47:12.34Z</time></trkpt><trkpt lat="42.7076198" lon="12.2804298"><ele>379.5</ele><time>2026-04-11T16:47:13.353Z</time></trkpt><trkpt lat="42.7077306" lon="12.2803161"><ele>377.75</ele><time>2026-04-11T16:47:14.352Z</time></trkpt><trkpt lat="42.7078458" lon="12.2802087"><ele>376.0</ele><time>2026-04-11T16:47:15.359Z</time></trkpt><trkpt lat="42.7079691" lon="12.2801018"><ele>381.3333333333333</ele><time>2026-04-11T16:47:16.362Z</time></trkpt><trkpt lat="42.7081015" lon="12.2799978"><ele>386.66666666666663</ele><time>2026-04-11T16:47:17.351Z</time></trkpt><trkpt lat="42.7082374" lon="12.2798928"><ele>392.0</ele><time>2026-04-11T16:47:18.347Z</time></trkpt><trkpt lat="42.7083747" lon="12.2797875"><ele>392.3333333333333</ele><time>2026-04-11T16:47:19.345Z</time></trkpt><trkpt lat="42.7085115" lon="12.2796773"><ele>392.66666666666663</ele><time>2026-04-11T16:47:20.338Z</time></trkpt><trkpt lat="42.7086496" lon="12.2795596"><ele>393.0</ele><time>2026-04-11T16:47:21.361Z</time></trkpt><trkpt lat="42.708777" lon="12.27944"><ele>393.0</ele><time>2026-04-11T16:47:22.347Z</time></trkpt><trkpt lat="42.7088984" lon="12.2793245"><ele>393.0</ele><time>2026-04-11T16:47:23.352Z</time></trkpt><trkpt lat="42.7090219" lon="12.2792245"><ele>393.0</ele><time>2026-04-11T16:47:24.349Z</time></trkpt><trkpt lat="42.7091514" lon="12.279133"><ele>393.0</ele><time>2026-04-11T16:47:25.355Z</time></trkpt><trkpt lat="42.7092853" lon="12.2790628"><ele>395.2</ele><time>2026-04-11T16:47:26.356Z</time></trkpt><trkpt lat="42.7094112" lon="12.2790222"><ele>397.4</ele><time>2026-04-11T16:47:27.348Z</time></trkpt><trkpt lat="42.7095199" lon="12.2790002"><ele>399.59999999999997</ele><time>2026-04-11T16:47:28.362Z</time></trkpt><trkpt lat="42.7096186" lon="12.2789947"><ele>401.79999999999995</ele><time>2026-04-11T16:47:29.357Z</time></trkpt><trkpt lat="42.7096953" lon="12.2790175"><ele>404.0</ele><time>2026-04-11T16:47:30.345Z</time></trkpt><trkpt lat="42.7097569" lon="12.2790846"><ele>404.0</ele><time>2026-04-11T16:47:31.354Z</time></trkpt><trkpt lat="42.709795" lon="12.2791742"><ele>404.0</ele><time>2026-04-11T16:47:32.343Z</time></trkpt><trkpt lat="42.7097873" lon="12.2792841"><ele>404.0</ele><time>2026-04-11T16:47:33.351Z</time></trkpt><trkpt lat="42.7097369" lon="12.2793778"><ele>404.0</ele><time>2026-04-11T16:47:34.365Z</time></trkpt><trkpt lat="42.7096559" lon="12.2794539"><ele>404.0</ele><time>2026-04-11T16:47:35.331Z</time></trkpt><trkpt lat="42.7095571" lon="12.2795249"><ele>404.0</ele><time>2026-04-11T16:47:36.356Z</time></trkpt><trkpt lat="42.7094543" lon="12.2795874"><ele>404.0</ele><time>2026-04-11T16:47:37.35Z</time></trkpt><trkpt lat="42.7093533" lon="12.2796752"><ele>404.0</ele><time>2026-04-11T16:47:38.354Z</time></trkpt><trkpt lat="42.7092543" lon="12.279783"><ele>404.0</ele><time>2026-04-11T16:47:39.345Z</time></trkpt><trkpt lat="42.7091576" lon="12.2799108"><ele>405.75</ele><time>2026-04-11T16:47:40.35Z</time></trkpt><trkpt lat="42.7090605" lon="12.2800512"><ele>407.5</ele><time>2026-04-11T16:47:41.349Z</time></trkpt><trkpt lat="42.7089681" lon="12.280205"><ele>409.25</ele><time>2026-04-11T16:47:42.346Z</time></trkpt><trkpt lat="42.7088877" lon="12.2803697"><ele>411.0</ele><time>2026-04-11T16:47:43.333Z</time></trkpt><trkpt lat="42.7088181" lon="12.2805182"><ele>410.0</ele><time>2026-04-11T16:47:44.335Z</time></trkpt><trkpt lat="42.7087288" lon="12.2806762"><ele>409.0</ele><time>2026-04-11T16:47:45.332Z</time></trkpt><trkpt lat="42.7086415" lon="12.2808433"><ele>408.0</ele><time>2026-04-11T16:47:46.33Z</time></trkpt><trkpt lat="42.7085575" lon="12.2809882"><ele>407.0</ele><time>2026-04-11T16:47:47.353Z</time></trkpt><trkpt lat="42.7084836" lon="12.2811556"><ele>407.0</ele><time>2026-04-11T16:47:48.341Z</time></trkpt><trkpt lat="42.7084163" lon="12.2813272"><ele>407.0</ele><time>2026-04-11T16:47:49.343Z</time></trkpt><trkpt lat="42.7083488" lon="12.2815074"><ele>407.0</ele><time>2026-04-11T16:47:50.336Z</time></trkpt><trkpt lat="42.7082871" lon="12.2817081"><ele>411.3333333333333</ele><time>2026-04-11T16:47:51.348Z</time></trkpt><trkpt lat="42.7082313" lon="12.2819038"><ele>415.66666666666663</ele><time>2026-04-11T16:47:52.345Z</time></trkpt><trkpt lat="42.7081731" lon="12.2821056"><ele>420.0</ele><time>2026-04-11T16:47:53.349Z</time></trkpt><trkpt lat="42.7081149" lon="12.2823026"><ele>422.5</ele><time>2026-04-11T16:47:54.349Z</time></trkpt><trkpt lat="42.7080538" lon="12.2824953"><ele>425.0</ele><time>2026-04-11T16:47:55.346Z</time></trkpt><trkpt lat="42.7080027" lon="12.2826832"><ele>427.5</ele><time>2026-04-11T16:47:56.348Z</time></trkpt><trkpt lat="42.7079581" lon="12.2828588"><ele>430.0</ele><time>2026-04-11T16:47:57.354Z</time></trkpt><trkpt lat="42.7079283" lon="12.2830235"><ele>432.25</ele><time>2026-04-11T16:47:58.349Z</time></trkpt><trkpt lat="42.7079207" lon="12.2832124"><ele>434.5</ele><time>2026-04-11T16:47:59.362Z</time></trkpt><trkpt lat="42.7079221" lon="12.2833931"><ele>436.75</ele><time>2026-04-11T16:48:00.359Z</time></trkpt><trkpt lat="42.7079422" lon="12.2835996"><ele>439.0</ele><time>2026-04-11T16:48:01.346Z</time></trkpt><trkpt lat="42.7079834" lon="12.2838013"><ele>439.33333333333337</ele><time>2026-04-11T16:48:02.327Z</time></trkpt><trkpt lat="42.7080284" lon="12.2840005"><ele>439.66666666666663</ele><time>2026-04-11T16:48:03.34Z</time></trkpt><trkpt lat="42.7080717" lon="12.2842085"><ele>440.0</ele><time>2026-04-11T16:48:04.331Z</time></trkpt><trkpt lat="42.7081186" lon="12.2844006"><ele>440.0</ele><time>2026-04-11T16:48:05.344Z</time></trkpt><trkpt lat="42.7081578" lon="12.2846024"><ele>440.0</ele><time>2026-04-11T16:48:06.333Z</time></trkpt><trkpt lat="42.7082026" lon="12.2847962"><ele>440.0</ele><time>2026-04-11T16:48:07.355Z</time></trkpt><trkpt lat="42.70826" lon="12.2849905"><ele>439.5</ele><time>2026-04-11T16:48:08.358Z</time></trkpt><trkpt lat="42.7083074" lon="12.2851698"><ele>439.0</ele><time>2026-04-11T16:48:09.353Z</time></trkpt><trkpt lat="42.7083691" lon="12.2853194"><ele>438.5</ele><time>2026-04-11T16:48:10.36Z</time></trkpt><trkpt lat="42.7084347" lon="12.2854547"><ele>438.0</ele><time>2026-04-11T16:48:11.361Z</time></trkpt><trkpt lat="42.7085178" lon="12.285572"><ele>440.5</ele><time>2026-04-11T16:48:12.355Z</time></trkpt><trkpt lat="42.7086333" lon="12.2856846"><ele>443.0</ele><time>2026-04-11T16:48:13.342Z</time></trkpt><trkpt lat="42.7087585" lon="12.2857914"><ele>445.5</ele><time>2026-04-11T16:48:14.356Z</time></trkpt><trkpt lat="42.7088864" lon="12.2858956"><ele>448.0</ele><time>2026-04-11T16:48:15.357Z</time></trkpt><trkpt lat="42.7090156" lon="12.2859995"><ele>448.0</ele><time>2026-04-11T16:48:16.352Z</time></trkpt><trkpt lat="42.709143" lon="12.2861001"><ele>448.0</ele><time>2026-04-11T16:48:17.353Z</time></trkpt><trkpt lat="42.7092615" lon="12.2862029"><ele>448.0</ele><time>2026-04-11T16:48:18.343Z</time></trkpt><trkpt lat="42.7093751" lon="12.2863174"><ele>448.0</ele><time>2026-04-11T16:48:19.357Z</time></trkpt><trkpt lat="42.7094668" lon="12.2864854"><ele>449.25</ele><time>2026-04-11T16:48:20.347Z</time></trkpt><trkpt lat="42.709547" lon="12.2866437"><ele>450.5</ele><time>2026-04-11T16:48:21.364Z</time></trkpt><trkpt lat="42.7096189" lon="12.2868161"><ele>451.75</ele><time>2026-04-11T16:48:22.353Z</time></trkpt><trkpt lat="42.7097063" lon="12.286969"><ele>453.0</ele><time>2026-04-11T16:48:23.344Z</time></trkpt><trkpt lat="42.7097997" lon="12.2871005"><ele>453.0</ele><time>2026-04-11T16:48:24.345Z</time></trkpt><trkpt lat="42.7099056" lon="12.2871936"><ele>453.0</ele><time>2026-04-11T16:48:25.355Z</time></trkpt><trkpt lat="42.7100183" lon="12.2872842"><ele>453.0</ele><time>2026-04-11T16:48:26.352Z</time></trkpt><trkpt lat="42.7101278" lon="12.2873581"><ele>453.0</ele><time>2026-04-11T16:48:27.355Z</time></trkpt><trkpt lat="42.7102269" lon="12.2874199"><ele>453.3333333333333</ele><time>2026-04-11T16:48:28.356Z</time></trkpt><trkpt lat="42.710315" lon="12.2874634"><ele>453.66666666666663</ele><time>2026-04-11T16:48:29.354Z</time></trkpt><trkpt lat="42.7103927" lon="12.2874854"><ele>454.0</ele><time>2026-04-11T16:48:30.354Z</time></trkpt><trkpt lat="42.7104645" lon="12.2874759"><ele>454.3333333333333</ele><time>2026-04-11T16:48:31.358Z</time></trkpt><trkpt lat="42.7105274" lon="12.2874432"><ele>454.66666666666663</ele><time>2026-04-11T16:48:32.368Z</time></trkpt><trkpt lat="42.7106185" lon="12.2873727"><ele>455.0</ele><time>2026-04-11T16:48:34.337Z</time></trkpt><trkpt lat="42.7106781" lon="12.2873264"><ele>455.49999999999994</ele><time>2026-04-11T16:48:36.346Z</time></trkpt><trkpt lat="42.7107255" lon="12.2872601"><ele>456.0</ele><time>2026-04-11T16:48:38.345Z</time></trkpt><trkpt lat="42.7107342" lon="12.28714"><ele>456.5</ele><time>2026-04-11T16:48:40.335Z</time></trkpt><trkpt lat="42.7107161" lon="12.2870268"><ele>457.0</ele><time>2026-04-11T16:48:42.346Z</time></trkpt><trkpt lat="42.7106904" lon="12.2869253"><ele>457.49999999999994</ele><time>2026-04-11T16:48:45.356Z</time></trkpt><trkpt lat="42.7106869" lon="12.2868352"><ele>458.0</ele><time>2026-04-11T16:48:50.352Z</time></trkpt><trkpt lat="42.7107127" lon="12.2867443"><ele>457.99999999999994</ele><time>2026-04-11T16:48:54.344Z</time></trkpt><trkpt lat="42.7107139" lon="12.2866537"><ele>458.0</ele><time>2026-04-11T16:52:21.365Z</time></trkpt><trkpt lat="42.710687" lon="12.2865558"><ele>458.0</ele><time>2026-04-11T17:01:53.349Z</time></trkpt><trkpt lat="42.7106217" lon="12.2865562"><ele>458.0</ele><time>2026-04-11T17:02:08.328Z</time></trkpt><trkpt lat="42.7106212" lon="12.2866973"><ele>457.99999999999994</ele><time>2026-04-11T17:02:11.358Z</time></trkpt><trkpt lat="42.7106674" lon="12.2868573"><ele>458.0</ele><time>2026-04-11T17:02:13.354Z</time></trkpt><trkpt lat="42.7106942" lon="12.286947"><ele>458.0</ele><time>2026-04-11T17:02:14.344Z</time></trkpt><trkpt lat="42.7107067" lon="12.2870962"><ele>457.99999999999994</ele><time>2026-04-11T17:02:16.351Z</time></trkpt><trkpt lat="42.7106756" lon="12.287237"><ele>457.99999999999994</ele><time>2026-04-11T17:02:18.349Z</time></trkpt><trkpt lat="42.710597" lon="12.287366"><ele>458.0</ele><time>2026-04-11T17:02:20.347Z</time></trkpt><trkpt lat="42.7105354" lon="12.2874156"><ele>458.0</ele><time>2026-04-11T17:02:21.354Z</time></trkpt><trkpt lat="42.7104707" lon="12.2874487"><ele>457.4</ele><time>2026-04-11T17:02:22.364Z</time></trkpt><trkpt lat="42.7103957" lon="12.2874563"><ele>456.79999999999995</ele><time>2026-04-11T17:02:23.354Z</time></trkpt><trkpt lat="42.7103104" lon="12.2874317"><ele>456.2</ele><time>2026-04-11T17:02:24.353Z</time></trkpt><trkpt lat="42.7102146" lon="12.2873792"><ele>455.6</ele><time>2026-04-11T17:02:25.355Z</time></trkpt><trkpt lat="42.7101089" lon="12.287307"><ele>455.0</ele><time>2026-04-11T17:02:26.362Z</time></trkpt><trkpt lat="42.709992" lon="12.2872274"><ele>454.5</ele><time>2026-04-11T17:02:27.364Z</time></trkpt><trkpt lat="42.709872" lon="12.287134"><ele>454.0</ele><time>2026-04-11T17:02:28.361Z</time></trkpt><trkpt lat="42.7097601" lon="12.2870121"><ele>453.5</ele><time>2026-04-11T17:02:29.351Z</time></trkpt><trkpt lat="42.709663" lon="12.2868475"><ele>453.0</ele><time>2026-04-11T17:02:30.351Z</time></trkpt><trkpt lat="42.7095796" lon="12.286659"><ele>453.0</ele><time>2026-04-11T17:02:31.351Z</time></trkpt><trkpt lat="42.7095013" lon="12.2864732"><ele>453.0</ele><time>2026-04-11T17:02:32.334Z</time></trkpt><trkpt lat="42.7093951" lon="12.2863038"><ele>453.0</ele><time>2026-04-11T17:02:33.349Z</time></trkpt><trkpt lat="42.7092543" lon="12.2861617"><ele>451.33333333333337</ele><time>2026-04-11T17:02:34.35Z</time></trkpt><trkpt lat="42.7091053" lon="12.2860355"><ele>449.6666666666667</ele><time>2026-04-11T17:02:35.341Z</time></trkpt><trkpt lat="42.7089424" lon="12.2859129"><ele>448.0</ele><time>2026-04-11T17:02:36.33Z</time></trkpt><trkpt lat="42.7087862" lon="12.2857945"><ele>448.0</ele><time>2026-04-11T17:02:37.341Z</time></trkpt><trkpt lat="42.7086408" lon="12.2856847"><ele>448.0</ele><time>2026-04-11T17:02:38.35Z</time></trkpt><trkpt lat="42.7085132" lon="12.2855472"><ele>448.0</ele><time>2026-04-11T17:02:39.357Z</time></trkpt><trkpt lat="42.7084067" lon="12.2853826"><ele>445.33333333333337</ele><time>2026-04-11T17:02:40.329Z</time></trkpt><trkpt lat="42.7083235" lon="12.2851831"><ele>442.66666666666663</ele><time>2026-04-11T17:02:41.349Z</time></trkpt><trkpt lat="42.7082558" lon="12.2849525"><ele>440.0</ele><time>2026-04-11T17:02:42.348Z</time></trkpt><trkpt lat="42.7081909" lon="12.2847121"><ele>440.0</ele><time>2026-04-11T17:02:43.344Z</time></trkpt><trkpt lat="42.7081274" lon="12.2844494"><ele>440.0</ele><time>2026-04-11T17:02:44.353Z</time></trkpt><trkpt lat="42.708065" lon="12.2841915"><ele>440.0</ele><time>2026-04-11T17:02:45.339Z</time></trkpt><trkpt lat="42.7080049" lon="12.2839401"><ele>439.66666666666663</ele><time>2026-04-11T17:02:46.351Z</time></trkpt><trkpt lat="42.7079537" lon="12.2837001"><ele>439.33333333333337</ele><time>2026-04-11T17:02:47.353Z</time></trkpt><trkpt lat="42.7079239" lon="12.2834697"><ele>439.0</ele><time>2026-04-11T17:02:48.353Z</time></trkpt><trkpt lat="42.7079145" lon="12.2832588"><ele>436.0</ele><time>2026-04-11T17:02:49.362Z</time></trkpt><trkpt lat="42.7079259" lon="12.2830592"><ele>433.0</ele><time>2026-04-11T17:02:50.348Z</time></trkpt><trkpt lat="42.7079616" lon="12.2828611"><ele>430.0</ele><time>2026-04-11T17:02:51.342Z</time></trkpt><trkpt lat="42.7080138" lon="12.2826578"><ele>430.0</ele><time>2026-04-11T17:02:52.327Z</time></trkpt><trkpt lat="42.7080672" lon="12.282442"><ele>430.0</ele><time>2026-04-11T17:02:53.338Z</time></trkpt><trkpt lat="42.7081331" lon="12.2822217"><ele>430.0</ele><time>2026-04-11T17:02:54.346Z</time></trkpt><trkpt lat="42.7082036" lon="12.2819971"><ele>426.6666666666667</ele><time>2026-04-11T17:02:55.348Z</time></trkpt><trkpt lat="42.7082652" lon="12.2817729"><ele>423.33333333333337</ele><time>2026-04-11T17:02:56.345Z</time></trkpt><trkpt lat="42.7083354" lon="12.2815602"><ele>420.0</ele><time>2026-04-11T17:02:57.357Z</time></trkpt><trkpt lat="42.7084081" lon="12.2813471"><ele>423.0</ele><time>2026-04-11T17:02:58.35Z</time></trkpt><trkpt lat="42.7085017" lon="12.2811471"><ele>426.0</ele><time>2026-04-11T17:02:59.349Z</time></trkpt><trkpt lat="42.7086013" lon="12.2809469"><ele>429.0</ele><time>2026-04-11T17:03:00.344Z</time></trkpt><trkpt lat="42.7087004" lon="12.2807487"><ele>423.0</ele><time>2026-04-11T17:03:01.343Z</time></trkpt><trkpt lat="42.7087964" lon="12.2805475"><ele>417.0</ele><time>2026-04-11T17:03:02.341Z</time></trkpt><trkpt lat="42.7088884" lon="12.2803479"><ele>411.0</ele><time>2026-04-11T17:03:03.334Z</time></trkpt><trkpt lat="42.7089854" lon="12.2801605"><ele>411.0</ele><time>2026-04-11T17:03:04.364Z</time></trkpt><trkpt lat="42.7090922" lon="12.280001"><ele>411.0</ele><time>2026-04-11T17:03:05.363Z</time></trkpt><trkpt lat="42.7092093" lon="12.2798461"><ele>411.0</ele><time>2026-04-11T17:03:06.353Z</time></trkpt><trkpt lat="42.709335" lon="12.279712"><ele>409.25</ele><time>2026-04-11T17:03:07.358Z</time></trkpt><trkpt lat="42.7094597" lon="12.2796066"><ele>407.5</ele><time>2026-04-11T17:03:08.349Z</time></trkpt><trkpt lat="42.7095746" lon="12.279529"><ele>405.75</ele><time>2026-04-11T17:03:09.345Z</time></trkpt><trkpt lat="42.7096721" lon="12.2794495"><ele>404.0</ele><time>2026-04-11T17:03:10.348Z</time></trkpt><trkpt lat="42.709754" lon="12.2793738"><ele>403.99999999999994</ele><time>2026-04-11T17:03:11.349Z</time></trkpt><trkpt lat="42.7098134" lon="12.279288"><ele>404.0</ele><time>2026-04-11T17:03:12.331Z</time></trkpt><trkpt lat="42.7098333" lon="12.2791829"><ele>404.0</ele><time>2026-04-11T17:03:13.356Z</time></trkpt><trkpt lat="42.7098041" lon="12.2790877"><ele>404.0</ele><time>2026-04-11T17:03:14.342Z</time></trkpt><trkpt lat="42.7097342" lon="12.2790151"><ele>403.99999999999994</ele><time>2026-04-11T17:03:15.356Z</time></trkpt><trkpt lat="42.7096308" lon="12.2789782"><ele>404.0</ele><time>2026-04-11T17:03:16.353Z</time></trkpt><trkpt lat="42.7095123" lon="12.2789861"><ele>401.25</ele><time>2026-04-11T17:03:17.361Z</time></trkpt><trkpt lat="42.7093837" lon="12.2790193"><ele>398.5</ele><time>2026-04-11T17:03:18.35Z</time></trkpt><trkpt lat="42.7092458" lon="12.2790786"><ele>395.75</ele><time>2026-04-11T17:03:19.348Z</time></trkpt><trkpt lat="42.7091065" lon="12.2791612"><ele>393.0</ele><time>2026-04-11T17:03:20.357Z</time></trkpt><trkpt lat="42.7089693" lon="12.2792632"><ele>393.0</ele><time>2026-04-11T17:03:21.354Z</time></trkpt><trkpt lat="42.7088328" lon="12.279385"><ele>393.0</ele><time>2026-04-11T17:03:22.35Z</time></trkpt><trkpt lat="42.7086934" lon="12.2795131"><ele>393.0</ele><time>2026-04-11T17:03:23.345Z</time></trkpt><trkpt lat="42.7085486" lon="12.2796337"><ele>392.66666666666663</ele><time>2026-04-11T17:03:24.353Z</time></trkpt><trkpt lat="42.7083917" lon="12.2797565"><ele>392.3333333333333</ele><time>2026-04-11T17:03:25.354Z</time></trkpt><trkpt lat="42.7082373" lon="12.2798805"><ele>392.0</ele><time>2026-04-11T17:03:26.351Z</time></trkpt><trkpt lat="42.7080839" lon="12.2800041"><ele>392.0</ele><time>2026-04-11T17:03:27.333Z</time></trkpt><trkpt lat="42.7079351" lon="12.2801268"><ele>392.0</ele><time>2026-04-11T17:03:28.358Z</time></trkpt><trkpt lat="42.7077803" lon="12.2802554"><ele>392.0</ele><time>2026-04-11T17:03:29.354Z</time></trkpt><trkpt lat="42.7076269" lon="12.2803989"><ele>389.0</ele><time>2026-04-11T17:03:30.356Z</time></trkpt><trkpt lat="42.7074735" lon="12.2805591"><ele>386.0</ele><time>2026-04-11T17:03:31.352Z</time></trkpt><trkpt lat="42.7073222" lon="12.2807316"><ele>383.0</ele><time>2026-04-11T17:03:32.351Z</time></trkpt><trkpt lat="42.7071638" lon="12.2809067"><ele>383.0</ele><time>2026-04-11T17:03:33.326Z</time></trkpt><trkpt lat="42.7070083" lon="12.2810799"><ele>383.0</ele><time>2026-04-11T17:03:34.335Z</time></trkpt><trkpt lat="42.7068505" lon="12.2812494"><ele>383.0</ele><time>2026-04-11T17:03:35.343Z</time></trkpt><trkpt lat="42.706705" lon="12.2814176"><ele>380.33333333333337</ele><time>2026-04-11T17:03:36.33Z</time></trkpt><trkpt lat="42.7065813" lon="12.2815924"><ele>377.6666666666667</ele><time>2026-04-11T17:03:37.334Z</time></trkpt><trkpt lat="42.7064562" lon="12.2817747"><ele>375.0</ele><time>2026-04-11T17:03:38.339Z</time></trkpt><trkpt lat="42.7063514" lon="12.281986"><ele>375.0</ele><time>2026-04-11T17:03:39.34Z</time></trkpt><trkpt lat="42.7062464" lon="12.2821755"><ele>375.0</ele><time>2026-04-11T17:03:40.332Z</time></trkpt><trkpt lat="42.7061284" lon="12.282341"><ele>375.0</ele><time>2026-04-11T17:03:41.355Z</time></trkpt><trkpt lat="42.7059878" lon="12.2824796"><ele>372.0</ele><time>2026-04-11T17:03:42.369Z</time></trkpt><trkpt lat="42.7058324" lon="12.2825832"><ele>369.0</ele><time>2026-04-11T17:03:43.347Z</time></trkpt><trkpt lat="42.7056814" lon="12.2826532"><ele>366.0</ele><time>2026-04-11T17:03:44.354Z</time></trkpt><trkpt lat="42.7055496" lon="12.2827014"><ele>366.0</ele><time>2026-04-11T17:03:45.36Z</time></trkpt><trkpt lat="42.7054462" lon="12.2828008"><ele>366.0</ele><time>2026-04-11T17:03:46.345Z</time></trkpt><trkpt lat="42.7053629" lon="12.2829374"><ele>366.0</ele><time>2026-04-11T17:03:47.351Z</time></trkpt><trkpt lat="42.705296" lon="12.2830902"><ele>366.0</ele><time>2026-04-11T17:03:48.338Z</time></trkpt><trkpt lat="42.7052108" lon="12.2832025"><ele>365.0</ele><time>2026-04-11T17:03:49.357Z</time></trkpt><trkpt lat="42.7051008" lon="12.2832453"><ele>364.0</ele><time>2026-04-11T17:03:50.346Z</time></trkpt><trkpt lat="42.7049726" lon="12.2832285"><ele>363.0</ele><time>2026-04-11T17:03:51.361Z</time></trkpt><trkpt lat="42.7048464" lon="12.2831779"><ele>362.0</ele><time>2026-04-11T17:03:52.355Z</time></trkpt><trkpt lat="42.7047335" lon="12.2830699"><ele>359.6666666666667</ele><time>2026-04-11T17:03:53.353Z</time></trkpt><trkpt lat="42.7046339" lon="12.2829259"><ele>357.3333333333333</ele><time>2026-04-11T17:03:54.348Z</time></trkpt><trkpt lat="42.704532" lon="12.282761"><ele>355.0</ele><time>2026-04-11T17:03:55.346Z</time></trkpt><trkpt lat="42.7044239" lon="12.2825899"><ele>355.3333333333333</ele><time>2026-04-11T17:03:56.349Z</time></trkpt><trkpt lat="42.7043155" lon="12.2824087"><ele>355.6666666666667</ele><time>2026-04-11T17:03:57.357Z</time></trkpt><trkpt lat="42.7041989" lon="12.2822147"><ele>356.0</ele><time>2026-04-11T17:03:58.346Z</time></trkpt><trkpt lat="42.7040751" lon="12.2820183"><ele>352.33333333333337</ele><time>2026-04-11T17:03:59.359Z</time></trkpt><trkpt lat="42.703949" lon="12.2818238"><ele>348.6666666666667</ele><time>2026-04-11T17:04:00.354Z</time></trkpt><trkpt lat="42.7038358" lon="12.2816272"><ele>345.0</ele><time>2026-04-11T17:04:01.354Z</time></trkpt><trkpt lat="42.7037525" lon="12.2814136"><ele>344.0</ele><time>2026-04-11T17:04:02.342Z</time></trkpt><trkpt lat="42.7036881" lon="12.2811889"><ele>343.0</ele><time>2026-04-11T17:04:03.347Z</time></trkpt><trkpt lat="42.7036312" lon="12.2809744"><ele>342.0</ele><time>2026-04-11T17:04:04.356Z</time></trkpt><trkpt lat="42.703558" lon="12.2807718"><ele>342.0</ele><time>2026-04-11T17:04:05.338Z</time></trkpt><trkpt lat="42.7034795" lon="12.2806189"><ele>342.0</ele><time>2026-04-11T17:04:06.335Z</time></trkpt><trkpt lat="42.7033936" lon="12.2804835"><ele>342.0</ele><time>2026-04-11T17:04:07.329Z</time></trkpt><trkpt lat="42.7032862" lon="12.2804071"><ele>342.0</ele><time>2026-04-11T17:04:08.338Z</time></trkpt><trkpt lat="42.7031675" lon="12.2803947"><ele>342.0</ele><time>2026-04-11T17:04:09.337Z</time></trkpt><trkpt lat="42.7030452" lon="12.2804415"><ele>342.0</ele><time>2026-04-11T17:04:10.354Z</time></trkpt><trkpt lat="42.702937" lon="12.2805609"><ele>342.0</ele><time>2026-04-11T17:04:11.335Z</time></trkpt><trkpt lat="42.7028497" lon="12.2806997"><ele>342.0</ele><time>2026-04-11T17:04:12.342Z</time></trkpt><trkpt lat="42.7027876" lon="12.280841"><ele>342.0</ele><time>2026-04-11T17:04:13.364Z</time></trkpt><trkpt lat="42.7027499" lon="12.2809822"><ele>342.0</ele><time>2026-04-11T17:04:14.354Z</time></trkpt><trkpt lat="42.7027657" lon="12.281138"><ele>342.0</ele><time>2026-04-11T17:04:15.357Z</time></trkpt><trkpt lat="42.702827" lon="12.2812903"><ele>342.0</ele><time>2026-04-11T17:04:16.349Z</time></trkpt><trkpt lat="42.7029033" lon="12.2814605"><ele>342.0</ele><time>2026-04-11T17:04:17.351Z</time></trkpt><trkpt lat="42.7029809" lon="12.2816454"><ele>342.0</ele><time>2026-04-11T17:04:18.35Z</time></trkpt><trkpt lat="42.7030378" lon="12.2818414"><ele>342.0</ele><time>2026-04-11T17:04:19.349Z</time></trkpt><trkpt lat="42.7030744" lon="12.2820504"><ele>342.0</ele><time>2026-04-11T17:04:20.341Z</time></trkpt><trkpt lat="42.7030862" lon="12.2822556"><ele>342.0</ele><time>2026-04-11T17:04:21.35Z</time></trkpt><trkpt lat="42.703087" lon="12.2824731"><ele>342.0</ele><time>2026-04-11T17:04:22.344Z</time></trkpt><trkpt lat="42.7030977" lon="12.2826761"><ele>341.25</ele><time>2026-04-11T17:04:23.349Z</time></trkpt><trkpt lat="42.7031224" lon="12.2828531"><ele>340.5</ele><time>2026-04-11T17:04:24.341Z</time></trkpt><trkpt lat="42.7031627" lon="12.2830111"><ele>339.75</ele><time>2026-04-11T17:04:25.338Z</time></trkpt><trkpt lat="42.7032499" lon="12.2831604"><ele>339.0</ele><time>2026-04-11T17:04:26.352Z</time></trkpt><trkpt lat="42.7033403" lon="12.2833173"><ele>338.5</ele><time>2026-04-11T17:04:27.349Z</time></trkpt><trkpt lat="42.7033853" lon="12.2834856"><ele>338.0</ele><time>2026-04-11T17:04:28.341Z</time></trkpt><trkpt lat="42.7033875" lon="12.2836686"><ele>337.5</ele><time>2026-04-11T17:04:29.347Z</time></trkpt><trkpt lat="42.7033719" lon="12.2838391"><ele>337.0</ele><time>2026-04-11T17:04:30.344Z</time></trkpt><trkpt lat="42.7033142" lon="12.2839921"><ele>337.0</ele><time>2026-04-11T17:04:31.343Z</time></trkpt><trkpt lat="42.7032405" lon="12.2840851"><ele>337.0</ele><time>2026-04-11T17:04:32.347Z</time></trkpt><trkpt lat="42.7031258" lon="12.284117"><ele>337.0</ele><time>2026-04-11T17:04:33.354Z</time></trkpt><trkpt lat="42.7030304" lon="12.2840727"><ele>337.0</ele><time>2026-04-11T17:04:34.341Z</time></trkpt><trkpt lat="42.7029403" lon="12.2839684"><ele>337.0</ele><time>2026-04-11T17:04:35.36Z</time></trkpt><trkpt lat="42.7028363" lon="12.2838387"><ele>335.5</ele><time>2026-04-11T17:04:36.328Z</time></trkpt><trkpt lat="42.7027417" lon="12.2837061"><ele>334.0</ele><time>2026-04-11T17:04:37.342Z</time></trkpt><trkpt lat="42.7026545" lon="12.2835537"><ele>332.5</ele><time>2026-04-11T17:04:38.336Z</time></trkpt><trkpt lat="42.7025738" lon="12.2833658"><ele>331.0</ele><time>2026-04-11T17:04:39.352Z</time></trkpt><trkpt lat="42.7024993" lon="12.283158"><ele>326.0</ele><time>2026-04-11T17:04:40.352Z</time></trkpt><trkpt lat="42.7024154" lon="12.2829562"><ele>321.0</ele><time>2026-04-11T17:04:41.339Z</time></trkpt><trkpt lat="42.7023382" lon="12.2827655"><ele>316.0</ele><time>2026-04-11T17:04:42.336Z</time></trkpt><trkpt lat="42.7022516" lon="12.2825974"><ele>316.0</ele><time>2026-04-11T17:04:43.341Z</time></trkpt><trkpt lat="42.7021424" lon="12.2824396"><ele>316.0</ele><time>2026-04-11T17:04:44.353Z</time></trkpt><trkpt lat="42.7020127" lon="12.2823105"><ele>316.0</ele><time>2026-04-11T17:04:45.343Z</time></trkpt><trkpt lat="42.7018794" lon="12.2821974"><ele>315.25</ele><time>2026-04-11T17:04:46.344Z</time></trkpt><trkpt lat="42.7017611" lon="12.282094"><ele>314.5</ele><time>2026-04-11T17:04:47.346Z</time></trkpt><trkpt lat="42.7016509" lon="12.2820096"><ele>313.75</ele><time>2026-04-11T17:04:48.347Z</time></trkpt><trkpt lat="42.7015325" lon="12.2819831"><ele>313.0</ele><time>2026-04-11T17:04:49.346Z</time></trkpt><trkpt lat="42.7014143" lon="12.2820134"><ele>313.0</ele><time>2026-04-11T17:04:50.336Z</time></trkpt><trkpt lat="42.701312" lon="12.2820398"><ele>313.0</ele><time>2026-04-11T17:04:51.339Z</time></trkpt><trkpt lat="42.7012168" lon="12.2819997"><ele>313.0</ele><time>2026-04-11T17:04:52.34Z</time></trkpt><trkpt lat="42.701161" lon="12.2818875"><ele>313.0</ele><time>2026-04-11T17:04:53.352Z</time></trkpt><trkpt lat="42.701124" lon="12.2817521"><ele>313.0</ele><time>2026-04-11T17:04:54.35Z</time></trkpt><trkpt lat="42.7011471" lon="12.2816078"><ele>313.0</ele><time>2026-04-11T17:04:55.337Z</time></trkpt><trkpt lat="42.7011921" lon="12.281455"><ele>313.0</ele><time>2026-04-11T17:04:56.343Z</time></trkpt><trkpt lat="42.7012507" lon="12.2812679"><ele>313.0</ele><time>2026-04-11T17:04:57.338Z</time></trkpt><trkpt lat="42.7013043" lon="12.2810907"><ele>313.0</ele><time>2026-04-11T17:04:58.345Z</time></trkpt><trkpt lat="42.7013312" lon="12.2808925"><ele>311.5</ele><time>2026-04-11T17:04:59.352Z</time></trkpt><trkpt lat="42.7013347" lon="12.2807012"><ele>310.0</ele><time>2026-04-11T17:05:00.355Z</time></trkpt><trkpt lat="42.7013248" lon="12.2805184"><ele>308.5</ele><time>2026-04-11T17:05:01.344Z</time></trkpt><trkpt lat="42.7012849" lon="12.2803409"><ele>307.0</ele><time>2026-04-11T17:05:02.344Z</time></trkpt><trkpt lat="42.7012223" lon="12.2801669"><ele>305.5</ele><time>2026-04-11T17:05:03.347Z</time></trkpt><trkpt lat="42.7011352" lon="12.280016"><ele>304.0</ele><time>2026-04-11T17:05:04.348Z</time></trkpt><trkpt lat="42.7010515" lon="12.279873"><ele>302.5</ele><time>2026-04-11T17:05:05.35Z</time></trkpt><trkpt lat="42.7010141" lon="12.2797086"><ele>301.0</ele><time>2026-04-11T17:05:06.35Z</time></trkpt><trkpt lat="42.7010284" lon="12.2795496"><ele>300.0</ele><time>2026-04-11T17:05:07.347Z</time></trkpt><trkpt lat="42.7010648" lon="12.2793933"><ele>299.0</ele><time>2026-04-11T17:05:08.356Z</time></trkpt><trkpt lat="42.7011067" lon="12.2792415"><ele>298.0</ele><time>2026-04-11T17:05:09.354Z</time></trkpt><trkpt lat="42.7011284" lon="12.2791039"><ele>297.0</ele><time>2026-04-11T17:05:10.344Z</time></trkpt><trkpt lat="42.7011343" lon="12.2789833"><ele>296.0</ele><time>2026-04-11T17:05:11.369Z</time></trkpt><trkpt lat="42.7010791" lon="12.2788515"><ele>302.25</ele><time>2026-04-11T17:05:12.338Z</time></trkpt><trkpt lat="42.7010211" lon="12.2787024"><ele>308.5</ele><time>2026-04-11T17:05:13.349Z</time></trkpt><trkpt lat="42.7009852" lon="12.2785368"><ele>314.75</ele><time>2026-04-11T17:05:14.352Z</time></trkpt><trkpt lat="42.7009963" lon="12.2783754"><ele>321.0</ele><time>2026-04-11T17:05:15.348Z</time></trkpt><trkpt lat="42.7010192" lon="12.2782113"><ele>319.25</ele><time>2026-04-11T17:05:16.348Z</time></trkpt><trkpt lat="42.7010467" lon="12.2780385"><ele>317.5</ele><time>2026-04-11T17:05:17.343Z</time></trkpt><trkpt lat="42.7010627" lon="12.2778571"><ele>315.75</ele><time>2026-04-11T17:05:18.342Z</time></trkpt><trkpt lat="42.7010821" lon="12.2776823"><ele>314.0</ele><time>2026-04-11T17:05:19.351Z</time></trkpt><trkpt lat="42.7011077" lon="12.2775136"><ele>308.5</ele><time>2026-04-11T17:05:20.349Z</time></trkpt><trkpt lat="42.7011653" lon="12.2773576"><ele>303.0</ele><time>2026-04-11T17:05:21.361Z</time></trkpt><trkpt lat="42.7012411" lon="12.2772089"><ele>297.5</ele><time>2026-04-11T17:05:22.343Z</time></trkpt><trkpt lat="42.7013317" lon="12.2770638"><ele>292.0</ele><time>2026-04-11T17:05:23.356Z</time></trkpt><trkpt lat="42.7014247" lon="12.2769136"><ele>292.0</ele><time>2026-04-11T17:05:24.347Z</time></trkpt><trkpt lat="42.7015225" lon="12.2767581"><ele>292.0</ele><time>2026-04-11T17:05:25.363Z</time></trkpt><trkpt lat="42.7016172" lon="12.2765867"><ele>292.0</ele><time>2026-04-11T17:05:26.321Z</time></trkpt><trkpt lat="42.7017079" lon="12.276412"><ele>293.5</ele><time>2026-04-11T17:05:27.332Z</time></trkpt><trkpt lat="42.7017895" lon="12.2762596"><ele>295.0</ele><time>2026-04-11T17:05:28.336Z</time></trkpt><trkpt lat="42.7018512" lon="12.2760851"><ele>296.5</ele><time>2026-04-11T17:05:29.345Z</time></trkpt><trkpt lat="42.7018851" lon="12.2759092"><ele>298.0</ele><time>2026-04-11T17:05:30.342Z</time></trkpt><trkpt lat="42.7018858" lon="12.2757109"><ele>296.66666666666663</ele><time>2026-04-11T17:05:31.35Z</time></trkpt><trkpt lat="42.701886" lon="12.2754788"><ele>295.3333333333333</ele><time>2026-04-11T17:05:32.331Z</time></trkpt><trkpt lat="42.7018904" lon="12.275241"><ele>294.0</ele><time>2026-04-11T17:05:33.337Z</time></trkpt><trkpt lat="42.7018985" lon="12.2750029"><ele>294.0</ele><time>2026-04-11T17:05:34.332Z</time></trkpt><trkpt lat="42.7018977" lon="12.2747763"><ele>294.0</ele><time>2026-04-11T17:05:35.333Z</time></trkpt><trkpt lat="42.7019008" lon="12.2745583"><ele>294.0</ele><time>2026-04-11T17:05:36.329Z</time></trkpt><trkpt lat="42.7018966" lon="12.2743372"><ele>293.75</ele><time>2026-04-11T17:05:37.328Z</time></trkpt><trkpt lat="42.7019054" lon="12.274145"><ele>293.5</ele><time>2026-04-11T17:05:38.334Z</time></trkpt><trkpt lat="42.7019163" lon="12.2739522"><ele>293.25</ele><time>2026-04-11T17:05:39.341Z</time></trkpt><trkpt lat="42.7019254" lon="12.2738097"><ele>293.0</ele><time>2026-04-11T17:05:40.337Z</time></trkpt><trkpt lat="42.7019718" lon="12.2736777"><ele>288.5</ele><time>2026-04-11T17:05:41.35Z</time></trkpt><trkpt lat="42.7020388" lon="12.2735353"><ele>284.0</ele><time>2026-04-11T17:05:42.351Z</time></trkpt><trkpt lat="42.7021317" lon="12.2733943"><ele>279.5</ele><time>2026-04-11T17:05:43.339Z</time></trkpt><trkpt lat="42.7022467" lon="12.2732431"><ele>275.0</ele><time>2026-04-11T17:05:44.319Z</time></trkpt><trkpt lat="42.7023097" lon="12.273027"><ele>275.0</ele><time>2026-04-11T17:05:45.342Z</time></trkpt><trkpt lat="42.7023805" lon="12.2727974"><ele>275.0</ele><time>2026-04-11T17:05:46.337Z</time></trkpt><trkpt lat="42.7024473" lon="12.2725784"><ele>275.0</ele><time>2026-04-11T17:05:47.349Z</time></trkpt><trkpt lat="42.7025181" lon="12.2723878"><ele>277.0</ele><time>2026-04-11T17:05:48.34Z</time></trkpt><trkpt lat="42.7025761" lon="12.2721977"><ele>279.0</ele><time>2026-04-11T17:05:49.34Z</time></trkpt><trkpt lat="42.7026163" lon="12.2720075"><ele>281.0</ele><time>2026-04-11T17:05:50.336Z</time></trkpt><trkpt lat="42.7026362" lon="12.2718044"><ele>283.0</ele><time>2026-04-11T17:05:51.338Z</time></trkpt><trkpt lat="42.7026371" lon="12.2715942"><ele>284.0</ele><time>2026-04-11T17:05:52.355Z</time></trkpt><trkpt lat="42.7026529" lon="12.2713839"><ele>285.0</ele><time>2026-04-11T17:05:53.35Z</time></trkpt><trkpt lat="42.7027178" lon="12.2711608"><ele>286.0</ele><time>2026-04-11T17:05:54.345Z</time></trkpt><trkpt lat="42.7028279" lon="12.2709331"><ele>279.66666666666663</ele><time>2026-04-11T17:05:55.345Z</time></trkpt><trkpt lat="42.7029507" lon="12.270716"><ele>273.3333333333333</ele><time>2026-04-11T17:05:56.347Z</time></trkpt><trkpt lat="42.703093" lon="12.2705135"><ele>267.0</ele><time>2026-04-11T17:05:57.342Z</time></trkpt><trkpt lat="42.7032307" lon="12.2703245"><ele>267.0</ele><time>2026-04-11T17:05:58.349Z</time></trkpt><trkpt lat="42.7033523" lon="12.2701417"><ele>267.0</ele><time>2026-04-11T17:05:59.353Z</time></trkpt><trkpt lat="42.7034566" lon="12.2699562"><ele>267.0</ele><time>2026-04-11T17:06:00.332Z</time></trkpt><trkpt lat="42.7035676" lon="12.2697638"><ele>258.0</ele><time>2026-04-11T17:06:01.349Z</time></trkpt><trkpt lat="42.7036765" lon="12.2695551"><ele>249.0</ele><time>2026-04-11T17:06:02.354Z</time></trkpt><trkpt lat="42.7037681" lon="12.2693358"><ele>240.0</ele><time>2026-04-11T17:06:03.351Z</time></trkpt><trkpt lat="42.7038451" lon="12.2691186"><ele>242.66666666666669</ele><time>2026-04-11T17:06:04.342Z</time></trkpt><trkpt lat="42.703914" lon="12.2689083"><ele>245.33333333333334</ele><time>2026-04-11T17:06:05.346Z</time></trkpt><trkpt lat="42.7039861" lon="12.2687071"><ele>248.0</ele><time>2026-04-11T17:06:06.353Z</time></trkpt><trkpt lat="42.7040545" lon="12.2685079"><ele>248.0</ele><time>2026-04-11T17:06:07.349Z</time></trkpt><trkpt lat="42.7041068" lon="12.2683054"><ele>248.0</ele><time>2026-04-11T17:06:08.348Z</time></trkpt><trkpt lat="42.7041352" lon="12.2680917"><ele>248.0</ele><time>2026-04-11T17:06:09.338Z</time></trkpt><trkpt lat="42.7041535" lon="12.2678886"><ele>248.25</ele><time>2026-04-11T17:06:10.362Z</time></trkpt><trkpt lat="42.7041541" lon="12.2677006"><ele>248.5</ele><time>2026-04-11T17:06:11.325Z</time></trkpt><trkpt lat="42.7041318" lon="12.26752"><ele>248.75</ele><time>2026-04-11T17:06:12.357Z</time></trkpt><trkpt lat="42.7040769" lon="12.2673234"><ele>249.0</ele><time>2026-04-11T17:06:13.349Z</time></trkpt><trkpt lat="42.7040247" lon="12.2671161"><ele>248.0</ele><time>2026-04-11T17:06:14.359Z</time></trkpt><trkpt lat="42.7040164" lon="12.2668936"><ele>247.0</ele><time>2026-04-11T17:06:15.355Z</time></trkpt><trkpt lat="42.7040522" lon="12.2666916"><ele>246.0</ele><time>2026-04-11T17:06:16.342Z</time></trkpt><trkpt lat="42.7041021" lon="12.2664909"><ele>247.66666666666669</ele><time>2026-04-11T17:06:17.342Z</time></trkpt><trkpt lat="42.7041836" lon="12.2662962"><ele>249.33333333333334</ele><time>2026-04-11T17:06:18.354Z</time></trkpt><trkpt lat="42.7043004" lon="12.2660971"><ele>251.0</ele><time>2026-04-11T17:06:19.345Z</time></trkpt><trkpt lat="42.7044084" lon="12.2658838"><ele>242.33333333333334</ele><time>2026-04-11T17:06:20.351Z</time></trkpt><trkpt lat="42.7045059" lon="12.2656504"><ele>233.66666666666669</ele><time>2026-04-11T17:06:21.328Z</time></trkpt><trkpt lat="42.7045843" lon="12.2654235"><ele>225.0</ele><time>2026-04-11T17:06:22.341Z</time></trkpt><trkpt lat="42.7046496" lon="12.2652179"><ele>225.0</ele><time>2026-04-11T17:06:23.35Z</time></trkpt><trkpt lat="42.7046988" lon="12.2650209"><ele>225.0</ele><time>2026-04-11T17:06:24.353Z</time></trkpt><trkpt lat="42.7047383" lon="12.2648408"><ele>225.0</ele><time>2026-04-11T17:06:25.355Z</time></trkpt><trkpt lat="42.7047682" lon="12.2646788"><ele>225.0</ele><time>2026-04-11T17:06:26.34Z</time></trkpt><trkpt lat="42.7048286" lon="12.2645108"><ele>227.0</ele><time>2026-04-11T17:06:27.348Z</time></trkpt><trkpt lat="42.7049286" lon="12.264344"><ele>229.0</ele><time>2026-04-11T17:06:28.338Z</time></trkpt><trkpt lat="42.7050236" lon="12.264177"><ele>231.0</ele><time>2026-04-11T17:06:29.337Z</time></trkpt><trkpt lat="42.7050949" lon="12.2639949"><ele>231.75</ele><time>2026-04-11T17:06:30.354Z</time></trkpt><trkpt lat="42.7051103" lon="12.263828"><ele>232.5</ele><time>2026-04-11T17:06:31.353Z</time></trkpt><trkpt lat="42.7050943" lon="12.2636711"><ele>233.25</ele><time>2026-04-11T17:06:32.349Z</time></trkpt><trkpt lat="42.7050464" lon="12.2635313"><ele>234.0</ele><time>2026-04-11T17:06:33.349Z</time></trkpt><trkpt lat="42.704987" lon="12.2633997"><ele>234.0</ele><time>2026-04-11T17:06:34.347Z</time></trkpt><trkpt lat="42.7049471" lon="12.2632843"><ele>233.99999999999997</ele><time>2026-04-11T17:06:35.357Z</time></trkpt><trkpt lat="42.7049349" lon="12.2631649"><ele>233.99999999999997</ele><time>2026-04-11T17:06:36.338Z</time></trkpt><trkpt lat="42.7049697" lon="12.2630297"><ele>234.0</ele><time>2026-04-11T17:06:37.331Z</time></trkpt><trkpt lat="42.7050368" lon="12.2629315"><ele>234.0</ele><time>2026-04-11T17:06:38.336Z</time></trkpt><trkpt lat="42.7051283" lon="12.2628862"><ele>235.5</ele><time>2026-04-11T17:06:39.35Z</time></trkpt><trkpt lat="42.7052416" lon="12.2629197"><ele>237.0</ele><time>2026-04-11T17:06:40.359Z</time></trkpt><trkpt lat="42.7053671" lon="12.2629817"><ele>238.5</ele><time>2026-04-11T17:06:41.352Z</time></trkpt><trkpt lat="42.7055074" lon="12.26299"><ele>240.0</ele><time>2026-04-11T17:06:42.354Z</time></trkpt><trkpt lat="42.7056515" lon="12.262927"><ele>236.0</ele><time>2026-04-11T17:06:43.353Z</time></trkpt><trkpt lat="42.7058086" lon="12.2628382"><ele>232.0</ele><time>2026-04-11T17:06:44.347Z</time></trkpt><trkpt lat="42.7059551" lon="12.2627597"><ele>228.0</ele><time>2026-04-11T17:06:45.353Z</time></trkpt><trkpt lat="42.7060996" lon="12.2626714"><ele>221.75</ele><time>2026-04-11T17:06:46.344Z</time></trkpt><trkpt lat="42.7062331" lon="12.2625615"><ele>215.5</ele><time>2026-04-11T17:06:47.344Z</time></trkpt><trkpt lat="42.7063043" lon="12.2624207"><ele>209.25</ele><time>2026-04-11T17:06:48.352Z</time></trkpt><trkpt lat="42.7063213" lon="12.2622436"><ele>203.0</ele><time>2026-04-11T17:06:49.336Z</time></trkpt><trkpt lat="42.7063043" lon="12.2620658"><ele>203.0</ele><time>2026-04-11T17:06:50.346Z</time></trkpt><trkpt lat="42.7062808" lon="12.2619126"><ele>203.0</ele><time>2026-04-11T17:06:51.348Z</time></trkpt><trkpt lat="42.706265" lon="12.2617587"><ele>203.0</ele><time>2026-04-11T17:06:52.344Z</time></trkpt><trkpt lat="42.7062742" lon="12.2615894"><ele>203.0</ele><time>2026-04-11T17:06:53.359Z</time></trkpt><trkpt lat="42.7063092" lon="12.2614323"><ele>205.0</ele><time>2026-04-11T17:06:54.347Z</time></trkpt><trkpt lat="42.7063781" lon="12.2613002"><ele>207.0</ele><time>2026-04-11T17:06:55.354Z</time></trkpt><trkpt lat="42.7064917" lon="12.2612157"><ele>209.0</ele><time>2026-04-11T17:06:56.339Z</time></trkpt><trkpt lat="42.7066347" lon="12.2611771"><ele>211.0</ele><time>2026-04-11T17:06:57.349Z</time></trkpt><trkpt lat="42.7067864" lon="12.2611594"><ele>206.0</ele><time>2026-04-11T17:06:58.352Z</time></trkpt><trkpt lat="42.7069384" lon="12.2611292"><ele>201.0</ele><time>2026-04-11T17:06:59.323Z</time></trkpt><trkpt lat="42.707055" lon="12.2610423"><ele>196.0</ele><time>2026-04-11T17:07:00.324Z</time></trkpt><trkpt lat="42.7071537" lon="12.2609227"><ele>191.0</ele><time>2026-04-11T17:07:01.353Z</time></trkpt><trkpt lat="42.7072314" lon="12.2607945"><ele>191.0</ele><time>2026-04-11T17:07:02.343Z</time></trkpt><trkpt lat="42.7072505" lon="12.2606772"><ele>191.0</ele><time>2026-04-11T17:07:03.368Z</time></trkpt><trkpt lat="42.7072308" lon="12.2605431"><ele>191.0</ele><time>2026-04-11T17:07:04.343Z</time></trkpt><trkpt lat="42.7071699" lon="12.2604145"><ele>191.0</ele><time>2026-04-11T17:07:05.357Z</time></trkpt><trkpt lat="42.707084" lon="12.2602886"><ele>191.0</ele><time>2026-04-11T17:07:06.351Z</time></trkpt><trkpt lat="42.7069769" lon="12.2601583"><ele>193.66666666666666</ele><time>2026-04-11T17:07:07.358Z</time></trkpt><trkpt lat="42.7068607" lon="12.2600102"><ele>196.33333333333331</ele><time>2026-04-11T17:07:08.353Z</time></trkpt><trkpt lat="42.706748" lon="12.2598568"><ele>199.0</ele><time>2026-04-11T17:07:09.348Z</time></trkpt><trkpt lat="42.7066173" lon="12.2597283"><ele>190.33333333333331</ele><time>2026-04-11T17:07:10.342Z</time></trkpt><trkpt lat="42.7064879" lon="12.259626"><ele>181.66666666666666</ele><time>2026-04-11T17:07:11.349Z</time></trkpt><trkpt lat="42.7063544" lon="12.2595373"><ele>173.0</ele><time>2026-04-11T17:07:12.357Z</time></trkpt><trkpt lat="42.7061969" lon="12.259471"><ele>177.33333333333331</ele><time>2026-04-11T17:07:13.346Z</time></trkpt><trkpt lat="42.7060327" lon="12.2594123"><ele>181.66666666666666</ele><time>2026-04-11T17:07:14.347Z</time></trkpt><trkpt lat="42.7058665" lon="12.2593468"><ele>186.0</ele><time>2026-04-11T17:07:15.351Z</time></trkpt><trkpt lat="42.7057256" lon="12.2592421"><ele>186.0</ele><time>2026-04-11T17:07:16.35Z</time></trkpt><trkpt lat="42.7056008" lon="12.2591024"><ele>186.0</ele><time>2026-04-11T17:07:17.337Z</time></trkpt><trkpt lat="42.7054793" lon="12.2589423"><ele>186.0</ele><time>2026-04-11T17:07:18.346Z</time></trkpt><trkpt lat="42.7053307" lon="12.258785"><ele>181.66666666666666</ele><time>2026-04-11T17:07:19.35Z</time></trkpt><trkpt lat="42.7051633" lon="12.25868"><ele>177.33333333333331</ele><time>2026-04-11T17:07:20.34Z</time></trkpt><trkpt lat="42.704977" lon="12.2585848"><ele>173.0</ele><time>2026-04-11T17:07:21.345Z</time></trkpt><trkpt lat="42.7048117" lon="12.2584906"><ele>173.0</ele><time>2026-04-11T17:07:22.348Z</time></trkpt><trkpt lat="42.7046905" lon="12.2583628"><ele>173.0</ele><time>2026-04-11T17:07:23.355Z</time></trkpt><trkpt lat="42.7045886" lon="12.2582316"><ele>173.0</ele><time>2026-04-11T17:07:24.336Z</time></trkpt><trkpt lat="42.7044721" lon="12.2581141"><ele>173.0</ele><time>2026-04-11T17:07:25.35Z</time></trkpt><trkpt lat="42.7043068" lon="12.2580572"><ele>168.33333333333331</ele><time>2026-04-11T17:07:26.344Z</time></trkpt><trkpt lat="42.7041374" lon="12.2580251"><ele>163.66666666666666</ele><time>2026-04-11T17:07:27.344Z</time></trkpt><trkpt lat="42.7039796" lon="12.2579738"><ele>159.0</ele><time>2026-04-11T17:07:28.343Z</time></trkpt><trkpt lat="42.703859" lon="12.2579031"><ele>159.0</ele><time>2026-04-11T17:07:29.341Z</time></trkpt><trkpt lat="42.7037599" lon="12.2578161"><ele>159.0</ele><time>2026-04-11T17:07:30.35Z</time></trkpt><trkpt lat="42.7036848" lon="12.2577384"><ele>159.0</ele><time>2026-04-11T17:07:31.344Z</time></trkpt><trkpt lat="42.7036286" lon="12.2576721"><ele>159.0</ele><time>2026-04-11T17:07:32.354Z</time></trkpt><trkpt lat="42.7035472" lon="12.2575525"><ele>159.0</ele><time>2026-04-11T17:07:34.345Z</time></trkpt><trkpt lat="42.7034843" lon="12.2574943"><ele>157.33333333333334</ele><time>2026-04-11T17:07:36.34Z</time></trkpt><trkpt lat="42.7033929" lon="12.2574463"><ele>155.66666666666666</ele><time>2026-04-11T17:07:39.345Z</time></trkpt><trkpt lat="42.7033053" lon="12.2573982"><ele>154.0</ele><time>2026-04-11T17:07:41.327Z</time></trkpt><trkpt lat="42.7032298" lon="12.257347"><ele>152.33333333333331</ele><time>2026-04-11T17:07:43.354Z</time></trkpt><trkpt lat="42.7031582" lon="12.2573011"><ele>150.66666666666666</ele><time>2026-04-11T17:07:46.345Z</time></trkpt><trkpt lat="42.7030934" lon="12.2572745"><ele>149.0</ele><time>2026-04-11T17:08:07.355Z</time></trkpt><trkpt lat="42.7030287" lon="12.2572386"><ele>149.0</ele><time>2026-04-11T17:08:08.347Z</time></trkpt><trkpt lat="42.7029573" lon="12.2571976"><ele>149.0</ele><time>2026-04-11T17:08:09.346Z</time></trkpt><trkpt lat="42.7028884" lon="12.2571565"><ele>149.0</ele><time>2026-04-11T17:08:10.35Z</time></trkpt><trkpt lat="42.7028137" lon="12.2571028"><ele>149.0</ele><time>2026-04-11T17:08:11.352Z</time></trkpt><trkpt lat="42.7027239" lon="12.2570363"><ele>149.0</ele><time>2026-04-11T17:08:12.344Z</time></trkpt><trkpt lat="42.7026337" lon="12.2569702"><ele>149.0</ele><time>2026-04-11T17:08:13.347Z</time></trkpt><trkpt lat="42.7025307" lon="12.2568977"><ele>154.25</ele><time>2026-04-11T17:08:14.341Z</time></trkpt><trkpt lat="42.7024085" lon="12.2568242"><ele>159.5</ele><time>2026-04-11T17:08:15.357Z</time></trkpt><trkpt lat="42.7022726" lon="12.2567575"><ele>164.75</ele><time>2026-04-11T17:08:16.345Z</time></trkpt><trkpt lat="42.7021372" lon="12.2566878"><ele>170.0</ele><time>2026-04-11T17:08:17.341Z</time></trkpt><trkpt lat="42.7019955" lon="12.2565922"><ele>175.0</ele><time>2026-04-11T17:08:18.357Z</time></trkpt><trkpt lat="42.7018816" lon="12.2564582"><ele>180.0</ele><time>2026-04-11T17:08:19.353Z</time></trkpt><trkpt lat="42.7017957" lon="12.2562801"><ele>185.0</ele><time>2026-04-11T17:08:20.352Z</time></trkpt><trkpt lat="42.7017358" lon="12.2560717"><ele>185.0</ele><time>2026-04-11T17:08:21.35Z</time></trkpt><trkpt lat="42.7016733" lon="12.2558592"><ele>185.0</ele><time>2026-04-11T17:08:22.357Z</time></trkpt><trkpt lat="42.7015856" lon="12.2556878"><ele>185.0</ele><time>2026-04-11T17:08:23.347Z</time></trkpt><trkpt lat="42.7014511" lon="12.2555727"><ele>185.66666666666666</ele><time>2026-04-11T17:08:24.356Z</time></trkpt><trkpt lat="42.7012866" lon="12.2555078"><ele>186.33333333333334</ele><time>2026-04-11T17:08:25.353Z</time></trkpt><trkpt lat="42.7011203" lon="12.2554519"><ele>187.0</ele><time>2026-04-11T17:08:26.359Z</time></trkpt><trkpt lat="42.700979" lon="12.2553648"><ele>187.0</ele><time>2026-04-11T17:08:27.349Z</time></trkpt><trkpt lat="42.7008663" lon="12.2551953"><ele>187.0</ele><time>2026-04-11T17:08:28.325Z</time></trkpt><trkpt lat="42.7007881" lon="12.2549959"><ele>187.0</ele><time>2026-04-11T17:08:29.351Z</time></trkpt><trkpt lat="42.7007322" lon="12.2547449"><ele>184.33333333333334</ele><time>2026-04-11T17:08:30.347Z</time></trkpt><trkpt lat="42.7006908" lon="12.2544973"><ele>181.66666666666666</ele><time>2026-04-11T17:08:31.346Z</time></trkpt><trkpt lat="42.7006522" lon="12.2542566"><ele>179.0</ele><time>2026-04-11T17:08:32.346Z</time></trkpt><trkpt lat="42.7006006" lon="12.2540316"><ele>175.0</ele><time>2026-04-11T17:08:33.359Z</time></trkpt><trkpt lat="42.7005262" lon="12.2538062"><ele>171.0</ele><time>2026-04-11T17:08:34.349Z</time></trkpt><trkpt lat="42.7004195" lon="12.2535831"><ele>167.0</ele><time>2026-04-11T17:08:35.363Z</time></trkpt><trkpt lat="42.7002881" lon="12.2534086"><ele>168.0</ele><time>2026-04-11T17:08:36.355Z</time></trkpt><trkpt lat="42.7001296" lon="12.2532506"><ele>169.0</ele><time>2026-04-11T17:08:37.329Z</time></trkpt><trkpt lat="42.6999371" lon="12.2531313"><ele>170.0</ele><time>2026-04-11T17:08:38.353Z</time></trkpt><trkpt lat="42.6997335" lon="12.2530174"><ele>170.0</ele><time>2026-04-11T17:08:39.351Z</time></trkpt><trkpt lat="42.6995412" lon="12.2528598"><ele>170.0</ele><time>2026-04-11T17:08:40.361Z</time></trkpt><trkpt lat="42.6993739" lon="12.2526837"><ele>170.0</ele><time>2026-04-11T17:08:41.348Z</time></trkpt><trkpt lat="42.699225" lon="12.2525265"><ele>170.0</ele><time>2026-04-11T17:08:42.348Z</time></trkpt><trkpt lat="42.6990837" lon="12.2523627"><ele>170.0</ele><time>2026-04-11T17:08:43.357Z</time></trkpt><trkpt lat="42.6989588" lon="12.2521855"><ele>170.0</ele><time>2026-04-11T17:08:44.354Z</time></trkpt><trkpt lat="42.6988636" lon="12.251967"><ele>170.0</ele><time>2026-04-11T17:08:45.35Z</time></trkpt><trkpt lat="42.698816" lon="12.2517192"><ele>170.0</ele><time>2026-04-11T17:08:46.352Z</time></trkpt><trkpt lat="42.6988012" lon="12.2514695"><ele>170.0</ele><time>2026-04-11T17:08:47.357Z</time></trkpt><trkpt lat="42.6988356" lon="12.2512259"><ele>169.66666666666666</ele><time>2026-04-11T17:08:48.339Z</time></trkpt><trkpt lat="42.6988756" lon="12.2509647"><ele>169.33333333333334</ele><time>2026-04-11T17:08:49.354Z</time></trkpt><trkpt lat="42.6989097" lon="12.250691"><ele>169.0</ele><time>2026-04-11T17:08:50.36Z</time></trkpt><trkpt lat="42.6989256" lon="12.2504216"><ele>169.0</ele><time>2026-04-11T17:08:51.355Z</time></trkpt><trkpt lat="42.6989379" lon="12.2501629"><ele>169.0</ele><time>2026-04-11T17:08:52.341Z</time></trkpt><trkpt lat="42.6989669" lon="12.2498942"><ele>169.0</ele><time>2026-04-11T17:08:53.355Z</time></trkpt><trkpt lat="42.699018" lon="12.2496178"><ele>168.66666666666669</ele><time>2026-04-11T17:08:54.35Z</time></trkpt><trkpt lat="42.6990916" lon="12.2493344"><ele>168.33333333333334</ele><time>2026-04-11T17:08:55.349Z</time></trkpt><trkpt lat="42.6991722" lon="12.2490701"><ele>168.0</ele><time>2026-04-11T17:08:56.345Z</time></trkpt><trkpt lat="42.6992432" lon="12.2488056"><ele>167.0</ele><time>2026-04-11T17:08:57.37Z</time></trkpt><trkpt lat="42.69931" lon="12.2485517"><ele>166.0</ele><time>2026-04-11T17:08:58.358Z</time></trkpt><trkpt lat="42.6993735" lon="12.2483065"><ele>165.0</ele><time>2026-04-11T17:08:59.361Z</time></trkpt><trkpt lat="42.6994415" lon="12.2480758"><ele>163.5</ele><time>2026-04-11T17:09:00.355Z</time></trkpt><trkpt lat="42.6994985" lon="12.2478683"><ele>162.0</ele><time>2026-04-11T17:09:01.369Z</time></trkpt><trkpt lat="42.6995477" lon="12.2476815"><ele>160.5</ele><time>2026-04-11T17:09:02.36Z</time></trkpt><trkpt lat="42.6995783" lon="12.2475185"><ele>159.0</ele><time>2026-04-11T17:09:03.343Z</time></trkpt><trkpt lat="42.6995634" lon="12.247373"><ele>158.75</ele><time>2026-04-11T17:09:04.343Z</time></trkpt><trkpt lat="42.6995123" lon="12.2472506"><ele>158.5</ele><time>2026-04-11T17:09:05.356Z</time></trkpt><trkpt lat="42.6994212" lon="12.2471655"><ele>158.25</ele><time>2026-04-11T17:09:06.329Z</time></trkpt><trkpt lat="42.6993025" lon="12.2471498"><ele>158.0</ele><time>2026-04-11T17:09:07.356Z</time></trkpt><trkpt lat="42.6991621" lon="12.247189"><ele>157.5</ele><time>2026-04-11T17:09:08.341Z</time></trkpt><trkpt lat="42.6990332" lon="12.2472748"><ele>157.0</ele><time>2026-04-11T17:09:09.349Z</time></trkpt><trkpt lat="42.6988969" lon="12.2473636"><ele>156.5</ele><time>2026-04-11T17:09:10.343Z</time></trkpt><trkpt lat="42.6987647" lon="12.2474369"><ele>156.0</ele><time>2026-04-11T17:09:11.346Z</time></trkpt><trkpt lat="42.6986341" lon="12.2474683"><ele>154.75</ele><time>2026-04-11T17:09:12.346Z</time></trkpt><trkpt lat="42.698516" lon="12.2474335"><ele>153.5</ele><time>2026-04-11T17:09:13.352Z</time></trkpt><trkpt lat="42.6984161" lon="12.2473166"><ele>152.25</ele><time>2026-04-11T17:09:14.357Z</time></trkpt><trkpt lat="42.698349" lon="12.2471493"><ele>151.0</ele><time>2026-04-11T17:09:15.358Z</time></trkpt><trkpt lat="42.6982946" lon="12.2469255"><ele>150.66666666666669</ele><time>2026-04-11T17:09:16.355Z</time></trkpt><trkpt lat="42.6982538" lon="12.2466973"><ele>150.33333333333334</ele><time>2026-04-11T17:09:17.346Z</time></trkpt><trkpt lat="42.6982034" lon="12.2464412"><ele>150.0</ele><time>2026-04-11T17:09:18.344Z</time></trkpt><trkpt lat="42.698151" lon="12.2461692"><ele>149.33333333333334</ele><time>2026-04-11T17:09:19.345Z</time></trkpt><trkpt lat="42.6980937" lon="12.2458905"><ele>148.66666666666669</ele><time>2026-04-11T17:09:20.342Z</time></trkpt><trkpt lat="42.6980439" lon="12.2456121"><ele>148.0</ele><time>2026-04-11T17:09:21.353Z</time></trkpt><trkpt lat="42.6980008" lon="12.2453223"><ele>148.0</ele><time>2026-04-11T17:09:22.346Z</time></trkpt><trkpt lat="42.6979788" lon="12.2450337"><ele>148.0</ele><time>2026-04-11T17:09:23.353Z</time></trkpt><trkpt lat="42.6979823" lon="12.2447598"><ele>148.0</ele><time>2026-04-11T17:09:24.363Z</time></trkpt><trkpt lat="42.6980132" lon="12.2444941"><ele>148.33333333333334</ele><time>2026-04-11T17:09:25.356Z</time></trkpt><trkpt lat="42.6980603" lon="12.2442272"><ele>148.66666666666666</ele><time>2026-04-11T17:09:26.339Z</time></trkpt><trkpt lat="42.6981297" lon="12.2439646"><ele>149.0</ele><time>2026-04-11T17:09:27.351Z</time></trkpt><trkpt lat="42.6982146" lon="12.243699"><ele>149.0</ele><time>2026-04-11T17:09:28.361Z</time></trkpt><trkpt lat="42.6983012" lon="12.2434315"><ele>149.0</ele><time>2026-04-11T17:09:29.352Z</time></trkpt><trkpt lat="42.6983929" lon="12.2431679"><ele>149.0</ele><time>2026-04-11T17:09:30.365Z</time></trkpt><trkpt lat="42.6984784" lon="12.2428983"><ele>149.33333333333331</ele><time>2026-04-11T17:09:31.349Z</time></trkpt><trkpt lat="42.698561" lon="12.2426385"><ele>149.66666666666666</ele><time>2026-04-11T17:09:32.355Z</time></trkpt><trkpt lat="42.6986406" lon="12.2423862"><ele>150.0</ele><time>2026-04-11T17:09:33.333Z</time></trkpt><trkpt lat="42.6987188" lon="12.2421428"><ele>149.33333333333334</ele><time>2026-04-11T17:09:34.353Z</time></trkpt><trkpt lat="42.6987893" lon="12.2419153"><ele>148.66666666666669</ele><time>2026-04-11T17:09:35.356Z</time></trkpt><trkpt lat="42.6988466" lon="12.24171"><ele>148.0</ele><time>2026-04-11T17:09:36.354Z</time></trkpt><trkpt lat="42.6988744" lon="12.2415134"><ele>145.0</ele><time>2026-04-11T17:09:37.337Z</time></trkpt><trkpt lat="42.6988502" lon="12.2413121"><ele>142.0</ele><time>2026-04-11T17:09:38.341Z</time></trkpt><trkpt lat="42.6987712" lon="12.2411057"><ele>139.0</ele><time>2026-04-11T17:09:39.354Z</time></trkpt><trkpt lat="42.6986652" lon="12.2408836"><ele>137.66666666666669</ele><time>2026-04-11T17:09:40.341Z</time></trkpt><trkpt lat="42.6985503" lon="12.2406596"><ele>136.33333333333334</ele><time>2026-04-11T17:09:41.35Z</time></trkpt><trkpt lat="42.6984393" lon="12.240439"><ele>135.0</ele><time>2026-04-11T17:09:42.357Z</time></trkpt><trkpt lat="42.6983304" lon="12.2401997"><ele>135.0</ele><time>2026-04-11T17:09:43.341Z</time></trkpt><trkpt lat="42.6982233" lon="12.2399556"><ele>135.0</ele><time>2026-04-11T17:09:44.345Z</time></trkpt><trkpt lat="42.6981188" lon="12.2397257"><ele>135.0</ele><time>2026-04-11T17:09:45.352Z</time></trkpt><trkpt lat="42.6980145" lon="12.2395068"><ele>135.0</ele><time>2026-04-11T17:09:46.361Z</time></trkpt><trkpt lat="42.6979281" lon="12.2392792"><ele>135.0</ele><time>2026-04-11T17:09:47.356Z</time></trkpt><trkpt lat="42.6978769" lon="12.2390466"><ele>135.0</ele><time>2026-04-11T17:09:48.344Z</time></trkpt><trkpt lat="42.6978643" lon="12.2388013"><ele>135.33333333333334</ele><time>2026-04-11T17:09:49.359Z</time></trkpt><trkpt lat="42.6978792" lon="12.2385446"><ele>135.66666666666669</ele><time>2026-04-11T17:09:50.349Z</time></trkpt><trkpt lat="42.6979063" lon="12.2382627"><ele>136.0</ele><time>2026-04-11T17:09:51.351Z</time></trkpt><trkpt lat="42.6979293" lon="12.2379831"><ele>136.0</ele><time>2026-04-11T17:09:52.355Z</time></trkpt><trkpt lat="42.6979396" lon="12.2376946"><ele>136.0</ele><time>2026-04-11T17:09:53.369Z</time></trkpt><trkpt lat="42.6979353" lon="12.2374033"><ele>136.0</ele><time>2026-04-11T17:09:54.357Z</time></trkpt><trkpt lat="42.6979107" lon="12.237106"><ele>136.0</ele><time>2026-04-11T17:09:55.346Z</time></trkpt><trkpt lat="42.6978892" lon="12.2368059"><ele>136.0</ele><time>2026-04-11T17:09:56.349Z</time></trkpt><trkpt lat="42.6978821" lon="12.2364983"><ele>136.0</ele><time>2026-04-11T17:09:57.352Z</time></trkpt><trkpt lat="42.6978999" lon="12.2362001"><ele>136.0</ele><time>2026-04-11T17:09:58.354Z</time></trkpt><trkpt lat="42.6979345" lon="12.235898"><ele>136.0</ele><time>2026-04-11T17:09:59.336Z</time></trkpt><trkpt lat="42.6979675" lon="12.2355931"><ele>135.5</ele><time>2026-04-11T17:10:00.347Z</time></trkpt><trkpt lat="42.6979959" lon="12.2352795"><ele>135.0</ele><time>2026-04-11T17:10:01.348Z</time></trkpt><trkpt lat="42.6980311" lon="12.23497"><ele>137.66666666666666</ele><time>2026-04-11T17:10:02.344Z</time></trkpt><trkpt lat="42.6980741" lon="12.2346751"><ele>140.33333333333331</ele><time>2026-04-11T17:10:03.352Z</time></trkpt><trkpt lat="42.6981121" lon="12.2343739"><ele>143.0</ele><time>2026-04-11T17:10:04.338Z</time></trkpt><trkpt lat="42.6981569" lon="12.2340803"><ele>146.0</ele><time>2026-04-11T17:10:05.338Z</time></trkpt><trkpt lat="42.6982114" lon="12.2338139"><ele>149.0</ele><time>2026-04-11T17:10:06.338Z</time></trkpt><trkpt lat="42.6982854" lon="12.2335651"><ele>152.0</ele><time>2026-04-11T17:10:07.342Z</time></trkpt><trkpt lat="42.6984065" lon="12.2333374"><ele>148.66666666666666</ele><time>2026-04-11T17:10:08.339Z</time></trkpt><trkpt lat="42.6985474" lon="12.2331056"><ele>145.33333333333334</ele><time>2026-04-11T17:10:09.326Z</time></trkpt><trkpt lat="42.6986922" lon="12.2328715"><ele>142.0</ele><time>2026-04-11T17:10:10.343Z</time></trkpt><trkpt lat="42.6988213" lon="12.2326418"><ele>142.0</ele><time>2026-04-11T17:10:11.331Z</time></trkpt><trkpt lat="42.6989527" lon="12.2324182"><ele>142.0</ele><time>2026-04-11T17:10:12.326Z</time></trkpt><trkpt lat="42.6990573" lon="12.2322073"><ele>142.0</ele><time>2026-04-11T17:10:13.361Z</time></trkpt><trkpt lat="42.699146" lon="12.2320161"><ele>142.66666666666669</ele><time>2026-04-11T17:10:14.36Z</time></trkpt><trkpt lat="42.6992293" lon="12.2318365"><ele>143.33333333333334</ele><time>2026-04-11T17:10:15.354Z</time></trkpt><trkpt lat="42.6992644" lon="12.2316323"><ele>144.0</ele><time>2026-04-11T17:10:16.346Z</time></trkpt><trkpt lat="42.6992575" lon="12.231437"><ele>144.0</ele><time>2026-04-11T17:10:17.348Z</time></trkpt><trkpt lat="42.6992508" lon="12.2312435"><ele>144.0</ele><time>2026-04-11T17:10:18.333Z</time></trkpt><trkpt lat="42.6992312" lon="12.2310437"><ele>144.0</ele><time>2026-04-11T17:10:19.346Z</time></trkpt><trkpt lat="42.699219" lon="12.2308418"><ele>144.0</ele><time>2026-04-11T17:10:20.331Z</time></trkpt><trkpt lat="42.6991938" lon="12.2306363"><ele>142.25</ele><time>2026-04-11T17:10:21.346Z</time></trkpt><trkpt lat="42.6991639" lon="12.2304333"><ele>140.5</ele><time>2026-04-11T17:10:22.329Z</time></trkpt><trkpt lat="42.6991263" lon="12.2302543"><ele>138.75</ele><time>2026-04-11T17:10:23.347Z</time></trkpt><trkpt lat="42.6990818" lon="12.2300929"><ele>137.0</ele><time>2026-04-11T17:10:24.362Z</time></trkpt><trkpt lat="42.69903" lon="12.2299693"><ele>137.0</ele><time>2026-04-11T17:10:25.357Z</time></trkpt><trkpt lat="42.6989855" lon="12.2298507"><ele>137.0</ele><time>2026-04-11T17:10:26.334Z</time></trkpt><trkpt lat="42.6989477" lon="12.2297262"><ele>137.0</ele><time>2026-04-11T17:10:27.35Z</time></trkpt><trkpt lat="42.6989336" lon="12.2295881"><ele>137.0</ele><time>2026-04-11T17:10:28.354Z</time></trkpt><trkpt lat="42.6989409" lon="12.2294406"><ele>137.0</ele><time>2026-04-11T17:10:29.349Z</time></trkpt><trkpt lat="42.6989573" lon="12.229273"><ele>136.0</ele><time>2026-04-11T17:10:30.357Z</time></trkpt><trkpt lat="42.6989703" lon="12.2290903"><ele>135.0</ele><time>2026-04-11T17:10:31.35Z</time></trkpt><trkpt lat="42.6989727" lon="12.2289077"><ele>134.0</ele><time>2026-04-11T17:10:32.342Z</time></trkpt><trkpt lat="42.6989677" lon="12.2287209"><ele>133.0</ele><time>2026-04-11T17:10:33.361Z</time></trkpt><trkpt lat="42.6989481" lon="12.2285318"><ele>132.0</ele><time>2026-04-11T17:10:34.343Z</time></trkpt><trkpt lat="42.6989191" lon="12.2283523"><ele>131.0</ele><time>2026-04-11T17:10:35.373Z</time></trkpt><trkpt lat="42.6988937" lon="12.2281762"><ele>130.0</ele><time>2026-04-11T17:10:36.349Z</time></trkpt><trkpt lat="42.6988835" lon="12.2280008"><ele>129.0</ele><time>2026-04-11T17:10:37.331Z</time></trkpt><trkpt lat="42.6988906" lon="12.2278265"><ele>128.75</ele><time>2026-04-11T17:10:38.368Z</time></trkpt><trkpt lat="42.6989118" lon="12.2276549"><ele>128.5</ele><time>2026-04-11T17:10:39.353Z</time></trkpt><trkpt lat="42.6989383" lon="12.2274885"><ele>128.25</ele><time>2026-04-11T17:10:40.356Z</time></trkpt><trkpt lat="42.698967" lon="12.227324"><ele>128.0</ele><time>2026-04-11T17:10:41.363Z</time></trkpt><trkpt lat="42.6989968" lon="12.2271551"><ele>127.75</ele><time>2026-04-11T17:10:42.356Z</time></trkpt><trkpt lat="42.6990219" lon="12.2269866"><ele>127.5</ele><time>2026-04-11T17:10:43.349Z</time></trkpt><trkpt lat="42.6990394" lon="12.2268082"><ele>127.25</ele><time>2026-04-11T17:10:44.337Z</time></trkpt><trkpt lat="42.6990294" lon="12.2266276"><ele>127.0</ele><time>2026-04-11T17:10:45.362Z</time></trkpt><trkpt lat="42.6989958" lon="12.2264564"><ele>125.75</ele><time>2026-04-11T17:10:46.353Z</time></trkpt><trkpt lat="42.6989501" lon="12.2262976"><ele>124.5</ele><time>2026-04-11T17:10:47.335Z</time></trkpt><trkpt lat="42.6988868" lon="12.2261399"><ele>123.25</ele><time>2026-04-11T17:10:48.346Z</time></trkpt><trkpt lat="42.6988029" lon="12.2260063"><ele>122.0</ele><time>2026-04-11T17:10:49.326Z</time></trkpt><trkpt lat="42.6986961" lon="12.2258919"><ele>122.0</ele><time>2026-04-11T17:10:50.362Z</time></trkpt><trkpt lat="42.6985863" lon="12.2257948"><ele>122.0</ele><time>2026-04-11T17:10:51.361Z</time></trkpt><trkpt lat="42.6984694" lon="12.2256875"><ele>122.0</ele><time>2026-04-11T17:10:52.354Z</time></trkpt><trkpt lat="42.6983595" lon="12.2255707"><ele>122.0</ele><time>2026-04-11T17:10:53.359Z</time></trkpt><trkpt lat="42.6982566" lon="12.2254263"><ele>125.0</ele><time>2026-04-11T17:10:54.365Z</time></trkpt><trkpt lat="42.6981728" lon="12.2252644"><ele>128.0</ele><time>2026-04-11T17:10:55.357Z</time></trkpt><trkpt lat="42.6980938" lon="12.22508"><ele>131.0</ele><time>2026-04-11T17:10:56.358Z</time></trkpt><trkpt lat="42.6980261" lon="12.2248832"><ele>130.33333333333331</ele><time>2026-04-11T17:10:57.36Z</time></trkpt><trkpt lat="42.6979683" lon="12.2246727"><ele>129.66666666666666</ele><time>2026-04-11T17:10:58.349Z</time></trkpt><trkpt lat="42.6979147" lon="12.2244568"><ele>129.0</ele><time>2026-04-11T17:10:59.36Z</time></trkpt><trkpt lat="42.6978685" lon="12.2242464"><ele>129.0</ele><time>2026-04-11T17:11:00.352Z</time></trkpt><trkpt lat="42.6978303" lon="12.2240409"><ele>129.0</ele><time>2026-04-11T17:11:01.375Z</time></trkpt><trkpt lat="42.6978082" lon="12.2238377"><ele>129.0</ele><time>2026-04-11T17:11:02.344Z</time></trkpt><trkpt lat="42.6978162" lon="12.2236296"><ele>129.33333333333334</ele><time>2026-04-11T17:11:03.348Z</time></trkpt><trkpt lat="42.697846" lon="12.2234262"><ele>129.66666666666669</ele><time>2026-04-11T17:11:04.35Z</time></trkpt><trkpt lat="42.6978825" lon="12.2232115"><ele>130.0</ele><time>2026-04-11T17:11:05.352Z</time></trkpt><trkpt lat="42.6979307" lon="12.222997"><ele>131.66666666666669</ele><time>2026-04-11T17:11:06.349Z</time></trkpt><trkpt lat="42.6979644" lon="12.2227859"><ele>133.33333333333334</ele><time>2026-04-11T17:11:07.347Z</time></trkpt><trkpt lat="42.6979641" lon="12.2225746"><ele>135.0</ele><time>2026-04-11T17:11:08.35Z</time></trkpt><trkpt lat="42.6978999" lon="12.2223717"><ele>134.33333333333334</ele><time>2026-04-11T17:11:09.359Z</time></trkpt><trkpt lat="42.6978047" lon="12.2221729"><ele>133.66666666666669</ele><time>2026-04-11T17:11:10.348Z</time></trkpt><trkpt lat="42.6976849" lon="12.2219812"><ele>133.0</ele><time>2026-04-11T17:11:11.345Z</time></trkpt><trkpt lat="42.6975614" lon="12.2218016"><ele>134.66666666666669</ele><time>2026-04-11T17:11:12.353Z</time></trkpt><trkpt lat="42.6974219" lon="12.2216145"><ele>136.33333333333334</ele><time>2026-04-11T17:11:13.351Z</time></trkpt><trkpt lat="42.697273" lon="12.2214197"><ele>138.0</ele><time>2026-04-11T17:11:14.334Z</time></trkpt><trkpt lat="42.6971144" lon="12.2212203"><ele>138.0</ele><time>2026-04-11T17:11:15.342Z</time></trkpt><trkpt lat="42.6969412" lon="12.2210219"><ele>138.0</ele><time>2026-04-11T17:11:16.345Z</time></trkpt><trkpt lat="42.6967501" lon="12.2208288"><ele>139.5</ele><time>2026-04-11T17:11:17.342Z</time></trkpt><trkpt lat="42.6965566" lon="12.2206321"><ele>141.0</ele><time>2026-04-11T17:11:18.347Z</time></trkpt><trkpt lat="42.6963757" lon="12.2204402"><ele>141.0</ele><time>2026-04-11T17:11:19.338Z</time></trkpt><trkpt lat="42.6962048" lon="12.2202518"><ele>141.0</ele><time>2026-04-11T17:11:20.357Z</time></trkpt><trkpt lat="42.6960256" lon="12.2201074"><ele>141.0</ele><time>2026-04-11T17:11:21.346Z</time></trkpt><trkpt lat="42.6958576" lon="12.2199687"><ele>140.0</ele><time>2026-04-11T17:11:22.356Z</time></trkpt><trkpt lat="42.6956709" lon="12.2198827"><ele>139.0</ele><time>2026-04-11T17:11:23.362Z</time></trkpt><trkpt lat="42.6954837" lon="12.2198258"><ele>138.0</ele><time>2026-04-11T17:11:24.351Z</time></trkpt><trkpt lat="42.6953173" lon="12.2197752"><ele>140.33333333333334</ele><time>2026-04-11T17:11:25.363Z</time></trkpt><trkpt lat="42.6951725" lon="12.2197062"><ele>142.66666666666669</ele><time>2026-04-11T17:11:26.342Z</time></trkpt><trkpt lat="42.6950278" lon="12.219576"><ele>145.0</ele><time>2026-04-11T17:11:27.355Z</time></trkpt><trkpt lat="42.6949124" lon="12.2193985"><ele>145.0</ele><time>2026-04-11T17:11:28.365Z</time></trkpt><trkpt lat="42.6948408" lon="12.2191685"><ele>145.0</ele><time>2026-04-11T17:11:29.341Z</time></trkpt><trkpt lat="42.6948127" lon="12.218907"><ele>145.0</ele><time>2026-04-11T17:11:30.35Z</time></trkpt><trkpt lat="42.6948218" lon="12.2186335"><ele>144.0</ele><time>2026-04-11T17:11:31.352Z</time></trkpt><trkpt lat="42.6948498" lon="12.2183483"><ele>143.0</ele><time>2026-04-11T17:11:32.348Z</time></trkpt><trkpt lat="42.6948732" lon="12.218091"><ele>142.0</ele><time>2026-04-11T17:11:33.348Z</time></trkpt><trkpt lat="42.6948915" lon="12.2178531"><ele>141.66666666666669</ele><time>2026-04-11T17:11:34.358Z</time></trkpt><trkpt lat="42.6949011" lon="12.2176243"><ele>141.33333333333334</ele><time>2026-04-11T17:11:35.344Z</time></trkpt><trkpt lat="42.6948939" lon="12.217403"><ele>141.0</ele><time>2026-04-11T17:11:36.353Z</time></trkpt><trkpt lat="42.6948433" lon="12.2171912"><ele>141.0</ele><time>2026-04-11T17:11:37.337Z</time></trkpt><trkpt lat="42.6947638" lon="12.2169765"><ele>141.0</ele><time>2026-04-11T17:11:38.36Z</time></trkpt><trkpt lat="42.6946704" lon="12.2167644"><ele>141.0</ele><time>2026-04-11T17:11:39.35Z</time></trkpt><trkpt lat="42.6945802" lon="12.2165535"><ele>141.0</ele><time>2026-04-11T17:11:40.357Z</time></trkpt><trkpt lat="42.6944901" lon="12.2163504"><ele>141.0</ele><time>2026-04-11T17:11:41.345Z</time></trkpt><trkpt lat="42.6944036" lon="12.2161413"><ele>141.0</ele><time>2026-04-11T17:11:42.339Z</time></trkpt><trkpt lat="42.6943174" lon="12.2159297"><ele>141.0</ele><time>2026-04-11T17:11:43.364Z</time></trkpt><trkpt lat="42.694229" lon="12.2157227"><ele>141.0</ele><time>2026-04-11T17:11:44.342Z</time></trkpt><trkpt lat="42.6941423" lon="12.2155159"><ele>141.0</ele><time>2026-04-11T17:11:45.368Z</time></trkpt><trkpt lat="42.6940583" lon="12.2153173"><ele>140.5</ele><time>2026-04-11T17:11:46.341Z</time></trkpt><trkpt lat="42.6939778" lon="12.2151368"><ele>140.0</ele><time>2026-04-11T17:11:47.35Z</time></trkpt><trkpt lat="42.6939021" lon="12.2149645"><ele>139.5</ele><time>2026-04-11T17:11:48.355Z</time></trkpt><trkpt lat="42.6938259" lon="12.2148027"><ele>139.0</ele><time>2026-04-11T17:11:49.359Z</time></trkpt><trkpt lat="42.6937505" lon="12.2146483"><ele>138.5</ele><time>2026-04-11T17:11:50.356Z</time></trkpt><trkpt lat="42.6936667" lon="12.2145118"><ele>138.0</ele><time>2026-04-11T17:11:51.356Z</time></trkpt><trkpt lat="42.6935793" lon="12.2143883"><ele>137.5</ele><time>2026-04-11T17:11:52.351Z</time></trkpt><trkpt lat="42.6934819" lon="12.2142721"><ele>137.0</ele><time>2026-04-11T17:11:53.362Z</time></trkpt><trkpt lat="42.693377" lon="12.214152"><ele>137.0</ele><time>2026-04-11T17:11:54.358Z</time></trkpt><trkpt lat="42.6932655" lon="12.2140438"><ele>137.0</ele><time>2026-04-11T17:11:55.36Z</time></trkpt><trkpt lat="42.6931521" lon="12.2139434"><ele>137.0</ele><time>2026-04-11T17:11:56.345Z</time></trkpt><trkpt lat="42.6930313" lon="12.2138513"><ele>137.0</ele><time>2026-04-11T17:11:57.352Z</time></trkpt><trkpt lat="42.6929059" lon="12.2137592"><ele>136.33333333333331</ele><time>2026-04-11T17:11:58.345Z</time></trkpt><trkpt lat="42.6927713" lon="12.2136707"><ele>135.66666666666666</ele><time>2026-04-11T17:11:59.36Z</time></trkpt><trkpt lat="42.692628" lon="12.21358"><ele>135.0</ele><time>2026-04-11T17:12:00.364Z</time></trkpt><trkpt lat="42.6924819" lon="12.2134863"><ele>134.33333333333334</ele><time>2026-04-11T17:12:01.36Z</time></trkpt><trkpt lat="42.6923298" lon="12.2133861"><ele>133.66666666666669</ele><time>2026-04-11T17:12:02.34Z</time></trkpt><trkpt lat="42.6921717" lon="12.213281"><ele>133.0</ele><time>2026-04-11T17:12:03.368Z</time></trkpt><trkpt lat="42.6920079" lon="12.2131756"><ele>132.0</ele><time>2026-04-11T17:12:04.36Z</time></trkpt><trkpt lat="42.6918418" lon="12.2130718"><ele>131.0</ele><time>2026-04-11T17:12:05.359Z</time></trkpt><trkpt lat="42.6916721" lon="12.2129611"><ele>130.0</ele><time>2026-04-11T17:12:06.349Z</time></trkpt><trkpt lat="42.6914965" lon="12.2128444"><ele>130.0</ele><time>2026-04-11T17:12:07.358Z</time></trkpt><trkpt lat="42.691316" lon="12.2127265"><ele>130.0</ele><time>2026-04-11T17:12:08.357Z</time></trkpt><trkpt lat="42.6911334" lon="12.2126054"><ele>130.0</ele><time>2026-04-11T17:12:09.368Z</time></trkpt><trkpt lat="42.6909507" lon="12.2124865"><ele>130.33333333333334</ele><time>2026-04-11T17:12:10.368Z</time></trkpt><trkpt lat="42.6907748" lon="12.2123726"><ele>130.66666666666666</ele><time>2026-04-11T17:12:11.344Z</time></trkpt><trkpt lat="42.6906072" lon="12.2122625"><ele>131.0</ele><time>2026-04-11T17:12:12.354Z</time></trkpt><trkpt lat="42.6904415" lon="12.2121539"><ele>130.33333333333331</ele><time>2026-04-11T17:12:13.357Z</time></trkpt><trkpt lat="42.6902731" lon="12.2120452"><ele>129.66666666666666</ele><time>2026-04-11T17:12:14.356Z</time></trkpt><trkpt lat="42.6901064" lon="12.2119396"><ele>129.0</ele><time>2026-04-11T17:12:15.354Z</time></trkpt><trkpt lat="42.6899403" lon="12.2118356"><ele>128.33333333333334</ele><time>2026-04-11T17:12:16.338Z</time></trkpt><trkpt lat="42.6897831" lon="12.2117373"><ele>127.66666666666667</ele><time>2026-04-11T17:12:17.353Z</time></trkpt><trkpt lat="42.6896332" lon="12.2116458"><ele>127.0</ele><time>2026-04-11T17:12:18.359Z</time></trkpt><trkpt lat="42.6895013" lon="12.2115671"><ele>126.25</ele><time>2026-04-11T17:12:19.354Z</time></trkpt><trkpt lat="42.6893814" lon="12.2114936"><ele>125.5</ele><time>2026-04-11T17:12:20.35Z</time></trkpt><trkpt lat="42.6892719" lon="12.2114213"><ele>124.75</ele><time>2026-04-11T17:12:21.352Z</time></trkpt><trkpt lat="42.6891674" lon="12.211363"><ele>124.0</ele><time>2026-04-11T17:12:22.36Z</time></trkpt><trkpt lat="42.6890796" lon="12.2112981"><ele>123.14285714285715</ele><time>2026-04-11T17:12:23.342Z</time></trkpt><trkpt lat="42.6890035" lon="12.2112334"><ele>122.2857142857143</ele><time>2026-04-11T17:12:24.366Z</time></trkpt><trkpt lat="42.6889351" lon="12.2111693"><ele>121.42857142857143</ele><time>2026-04-11T17:12:25.357Z</time></trkpt><trkpt lat="42.6888799" lon="12.211108"><ele>120.57142857142858</ele><time>2026-04-11T17:12:26.358Z</time></trkpt><trkpt lat="42.6888321" lon="12.2110417"><ele>119.71428571428572</ele><time>2026-04-11T17:12:27.354Z</time></trkpt><trkpt lat="42.6887945" lon="12.210969"><ele>118.85714285714286</ele><time>2026-04-11T17:12:28.353Z</time></trkpt><trkpt lat="42.6887688" lon="12.2108828"><ele>118.0</ele><time>2026-04-11T17:12:29.344Z</time></trkpt><trkpt lat="42.6887577" lon="12.2107772"><ele>117.0</ele><time>2026-04-11T17:12:30.372Z</time></trkpt><trkpt lat="42.6887599" lon="12.2106576"><ele>116.00000000000001</ele><time>2026-04-11T17:12:31.339Z</time></trkpt><trkpt lat="42.6887587" lon="12.2105296"><ele>115.00000000000001</ele><time>2026-04-11T17:12:32.355Z</time></trkpt><trkpt lat="42.6887577" lon="12.2103939"><ele>114.0</ele><time>2026-04-11T17:12:33.357Z</time></trkpt><trkpt lat="42.6887589" lon="12.2102383"><ele>113.0</ele><time>2026-04-11T17:12:34.355Z</time></trkpt><trkpt lat="42.6887679" lon="12.2100756"><ele>113.0</ele><time>2026-04-11T17:12:35.369Z</time></trkpt><trkpt lat="42.6887693" lon="12.209914"><ele>113.0</ele><time>2026-04-11T17:12:36.346Z</time></trkpt><trkpt lat="42.688756" lon="12.2097493"><ele>113.0</ele><time>2026-04-11T17:12:37.341Z</time></trkpt><trkpt lat="42.6887217" lon="12.209586"><ele>113.0</ele><time>2026-04-11T17:12:38.364Z</time></trkpt><trkpt lat="42.6886775" lon="12.2094242"><ele>111.75</ele><time>2026-04-11T17:12:39.364Z</time></trkpt><trkpt lat="42.6886333" lon="12.2092707"><ele>110.5</ele><time>2026-04-11T17:12:40.362Z</time></trkpt><trkpt lat="42.6885825" lon="12.2091093"><ele>109.25</ele><time>2026-04-11T17:12:41.361Z</time></trkpt><trkpt lat="42.6885288" lon="12.2089388"><ele>108.0</ele><time>2026-04-11T17:12:42.367Z</time></trkpt><trkpt lat="42.6884737" lon="12.2087612"><ele>103.66666666666667</ele><time>2026-04-11T17:12:43.336Z</time></trkpt><trkpt lat="42.6884134" lon="12.2085759"><ele>99.33333333333334</ele><time>2026-04-11T17:12:44.351Z</time></trkpt><trkpt lat="42.688355" lon="12.2083852"><ele>95.0</ele><time>2026-04-11T17:12:45.367Z</time></trkpt><trkpt lat="42.6882884" lon="12.2081937"><ele>96.0</ele><time>2026-04-11T17:12:46.349Z</time></trkpt><trkpt lat="42.688224" lon="12.2079956"><ele>97.0</ele><time>2026-04-11T17:12:47.367Z</time></trkpt><trkpt lat="42.6881615" lon="12.2077949"><ele>98.0</ele><time>2026-04-11T17:12:48.358Z</time></trkpt><trkpt lat="42.6880947" lon="12.2075856"><ele>98.0</ele><time>2026-04-11T17:12:49.353Z</time></trkpt><trkpt lat="42.6880341" lon="12.2073727"><ele>98.0</ele><time>2026-04-11T17:12:50.348Z</time></trkpt><trkpt lat="42.6879702" lon="12.2071549"><ele>98.0</ele><time>2026-04-11T17:12:51.352Z</time></trkpt><trkpt lat="42.6879047" lon="12.206939"><ele>98.33333333333333</ele><time>2026-04-11T17:12:52.351Z</time></trkpt><trkpt lat="42.6878383" lon="12.2067212"><ele>98.66666666666666</ele><time>2026-04-11T17:12:53.35Z</time></trkpt><trkpt lat="42.6877693" lon="12.2065036"><ele>99.0</ele><time>2026-04-11T17:12:54.343Z</time></trkpt><trkpt lat="42.6877" lon="12.2062861"><ele>99.33333333333334</ele><time>2026-04-11T17:12:55.356Z</time></trkpt><trkpt lat="42.6876341" lon="12.2060661"><ele>99.66666666666667</ele><time>2026-04-11T17:12:56.345Z</time></trkpt><trkpt lat="42.6875651" lon="12.2058421"><ele>100.0</ele><time>2026-04-11T17:12:57.331Z</time></trkpt><trkpt lat="42.6875018" lon="12.2056185"><ele>100.0</ele><time>2026-04-11T17:12:58.355Z</time></trkpt><trkpt lat="42.6874337" lon="12.2054021"><ele>100.0</ele><time>2026-04-11T17:12:59.354Z</time></trkpt><trkpt lat="42.687363" lon="12.2051848"><ele>100.0</ele><time>2026-04-11T17:13:00.345Z</time></trkpt><trkpt lat="42.6872986" lon="12.204975"><ele>100.0</ele><time>2026-04-11T17:13:01.364Z</time></trkpt><trkpt lat="42.6872371" lon="12.2047881"><ele>100.0</ele><time>2026-04-11T17:13:02.36Z</time></trkpt><trkpt lat="42.6871808" lon="12.2046066"><ele>100.0</ele><time>2026-04-11T17:13:03.359Z</time></trkpt><trkpt lat="42.6871325" lon="12.2044316"><ele>100.0</ele><time>2026-04-11T17:13:04.325Z</time></trkpt><trkpt lat="42.6871098" lon="12.2042583"><ele>100.0</ele><time>2026-04-11T17:13:05.342Z</time></trkpt><trkpt lat="42.6871268" lon="12.2040875"><ele>100.0</ele><time>2026-04-11T17:13:06.367Z</time></trkpt><trkpt lat="42.6871967" lon="12.2039494"><ele>100.0</ele><time>2026-04-11T17:13:07.343Z</time></trkpt><trkpt lat="42.6872991" lon="12.2038168"><ele>100.0</ele><time>2026-04-11T17:13:08.355Z</time></trkpt><trkpt lat="42.6874043" lon="12.2036787"><ele>100.66666666666667</ele><time>2026-04-11T17:13:09.357Z</time></trkpt><trkpt lat="42.6875322" lon="12.2035576"><ele>101.33333333333334</ele><time>2026-04-11T17:13:10.35Z</time></trkpt><trkpt lat="42.6876674" lon="12.2034273"><ele>102.0</ele><time>2026-04-11T17:13:11.362Z</time></trkpt><trkpt lat="42.6878233" lon="12.2033074"><ele>102.0</ele><time>2026-04-11T17:13:12.333Z</time></trkpt><trkpt lat="42.6879892" lon="12.2031994"><ele>102.0</ele><time>2026-04-11T17:13:13.346Z</time></trkpt><trkpt lat="42.6881626" lon="12.2030952"><ele>102.0</ele><time>2026-04-11T17:13:14.363Z</time></trkpt><trkpt lat="42.6883416" lon="12.2029941"><ele>102.0</ele><time>2026-04-11T17:13:15.362Z</time></trkpt><trkpt lat="42.6885231" lon="12.2028832"><ele>102.0</ele><time>2026-04-11T17:13:16.327Z</time></trkpt><trkpt lat="42.6887157" lon="12.2027723"><ele>102.0</ele><time>2026-04-11T17:13:17.345Z</time></trkpt><trkpt lat="42.6889074" lon="12.2026622"><ele>102.0</ele><time>2026-04-11T17:13:18.359Z</time></trkpt><trkpt lat="42.6891028" lon="12.2025516"><ele>102.0</ele><time>2026-04-11T17:13:19.358Z</time></trkpt><trkpt lat="42.6892982" lon="12.2024352"><ele>102.0</ele><time>2026-04-11T17:13:20.342Z</time></trkpt><trkpt lat="42.6894885" lon="12.2023234"><ele>102.33333333333334</ele><time>2026-04-11T17:13:21.354Z</time></trkpt><trkpt lat="42.6896674" lon="12.2022121"><ele>102.66666666666667</ele><time>2026-04-11T17:13:22.353Z</time></trkpt><trkpt lat="42.6898353" lon="12.2021017"><ele>103.0</ele><time>2026-04-11T17:13:23.357Z</time></trkpt><trkpt lat="42.6899871" lon="12.2019745"><ele>103.0</ele><time>2026-04-11T17:13:24.343Z</time></trkpt><trkpt lat="42.6901308" lon="12.2018331"><ele>103.0</ele><time>2026-04-11T17:13:25.359Z</time></trkpt><trkpt lat="42.6902641" lon="12.2016636"><ele>103.0</ele><time>2026-04-11T17:13:26.356Z</time></trkpt><trkpt lat="42.6903912" lon="12.2014795"><ele>103.0</ele><time>2026-04-11T17:13:27.353Z</time></trkpt><trkpt lat="42.6905149" lon="12.2012886"><ele>103.0</ele><time>2026-04-11T17:13:28.349Z</time></trkpt><trkpt lat="42.6906439" lon="12.2010957"><ele>103.0</ele><time>2026-04-11T17:13:29.345Z</time></trkpt><trkpt lat="42.6907703" lon="12.2009038"><ele>103.0</ele><time>2026-04-11T17:13:30.348Z</time></trkpt><trkpt lat="42.690905" lon="12.2007104"><ele>103.0</ele><time>2026-04-11T17:13:31.361Z</time></trkpt><trkpt lat="42.6910434" lon="12.2005063"><ele>103.0</ele><time>2026-04-11T17:13:32.34Z</time></trkpt><trkpt lat="42.6911849" lon="12.2002966"><ele>103.0</ele><time>2026-04-11T17:13:33.332Z</time></trkpt><trkpt lat="42.6913269" lon="12.2000852"><ele>103.0</ele><time>2026-04-11T17:13:34.348Z</time></trkpt><trkpt lat="42.6914661" lon="12.1998741"><ele>103.0</ele><time>2026-04-11T17:13:35.356Z</time></trkpt><trkpt lat="42.6915914" lon="12.199667"><ele>104.33333333333334</ele><time>2026-04-11T17:13:36.36Z</time></trkpt><trkpt lat="42.6917095" lon="12.199465"><ele>105.66666666666666</ele><time>2026-04-11T17:13:37.333Z</time></trkpt><trkpt lat="42.6918121" lon="12.1992684"><ele>107.0</ele><time>2026-04-11T17:13:38.352Z</time></trkpt><trkpt lat="42.6919024" lon="12.1990854"><ele>107.0</ele><time>2026-04-11T17:13:39.363Z</time></trkpt><trkpt lat="42.6919785" lon="12.1989147"><ele>107.0</ele><time>2026-04-11T17:13:40.348Z</time></trkpt><trkpt lat="42.6920466" lon="12.198762"><ele>107.0</ele><time>2026-04-11T17:13:41.364Z</time></trkpt><trkpt lat="42.6921163" lon="12.198621"><ele>107.0</ele><time>2026-04-11T17:13:42.333Z</time></trkpt><trkpt lat="42.6921701" lon="12.1984941"><ele>106.99999999999999</ele><time>2026-04-11T17:13:43.362Z</time></trkpt><trkpt lat="42.6922096" lon="12.1983798"><ele>107.0</ele><time>2026-04-11T17:13:44.35Z</time></trkpt><trkpt lat="42.6922206" lon="12.1982779"><ele>107.0</ele><time>2026-04-11T17:13:45.354Z</time></trkpt><trkpt lat="42.6922087" lon="12.1981915"><ele>107.0</ele><time>2026-04-11T17:13:46.343Z</time></trkpt><trkpt lat="42.6921461" lon="12.1981064"><ele>106.99999999999999</ele><time>2026-04-11T17:13:48.338Z</time></trkpt><trkpt lat="42.6920516" lon="12.1980745"><ele>107.0</ele><time>2026-04-11T17:13:50.349Z</time></trkpt><trkpt lat="42.691949" lon="12.1980764"><ele>109.19999999999999</ele><time>2026-04-11T17:13:52.353Z</time></trkpt><trkpt lat="42.6918399" lon="12.1980849"><ele>111.39999999999999</ele><time>2026-04-11T17:13:54.349Z</time></trkpt><trkpt lat="42.6917545" lon="12.198112"><ele>113.60000000000001</ele><time>2026-04-11T17:13:56.352Z</time></trkpt><trkpt lat="42.6916782" lon="12.1981827"><ele>115.80000000000001</ele><time>2026-04-11T17:14:17.363Z</time></trkpt><trkpt lat="42.6915622" lon="12.1982798"><ele>118.0</ele><time>2026-04-11T17:14:19.371Z</time></trkpt><trkpt lat="42.6914991" lon="12.1983405"><ele>118.0</ele><time>2026-04-11T17:14:20.345Z</time></trkpt><trkpt lat="42.6914207" lon="12.1983977"><ele>118.00000000000001</ele><time>2026-04-11T17:14:21.357Z</time></trkpt><trkpt lat="42.691329" lon="12.1984485"><ele>118.00000000000001</ele><time>2026-04-11T17:14:22.359Z</time></trkpt><trkpt lat="42.6912271" lon="12.1985031"><ele>118.0</ele><time>2026-04-11T17:14:23.357Z</time></trkpt><trkpt lat="42.6911148" lon="12.1985761"><ele>118.0</ele><time>2026-04-11T17:14:24.354Z</time></trkpt><trkpt lat="42.6909957" lon="12.1986817"><ele>120.33333333333334</ele><time>2026-04-11T17:14:25.358Z</time></trkpt><trkpt lat="42.6908754" lon="12.1988144"><ele>122.66666666666666</ele><time>2026-04-11T17:14:26.364Z</time></trkpt><trkpt lat="42.6907475" lon="12.1989633"><ele>125.0</ele><time>2026-04-11T17:14:27.352Z</time></trkpt><trkpt lat="42.6906106" lon="12.1991209"><ele>120.66666666666666</ele><time>2026-04-11T17:14:28.354Z</time></trkpt><trkpt lat="42.6904639" lon="12.1992888"><ele>116.33333333333334</ele><time>2026-04-11T17:14:29.345Z</time></trkpt><trkpt lat="42.6903113" lon="12.1994618"><ele>112.0</ele><time>2026-04-11T17:14:30.469Z</time></trkpt><trkpt lat="42.6899977" lon="12.1998093"><ele>109.33333333333334</ele><time>2026-04-11T17:14:32.35Z</time></trkpt><trkpt lat="42.689821" lon="12.1999744"><ele>106.66666666666666</ele><time>2026-04-11T17:14:33.334Z</time></trkpt><trkpt lat="42.6896355" lon="12.2001305"><ele>104.0</ele><time>2026-04-11T17:14:34.357Z</time></trkpt><trkpt lat="42.6894341" lon="12.2002871"><ele>110.5</ele><time>2026-04-11T17:14:35.351Z</time></trkpt><trkpt lat="42.6892231" lon="12.2004463"><ele>117.0</ele><time>2026-04-11T17:14:36.36Z</time></trkpt><trkpt lat="42.6890062" lon="12.2006061"><ele>112.5</ele><time>2026-04-11T17:14:37.333Z</time></trkpt><trkpt lat="42.6887801" lon="12.2007744"><ele>108.0</ele><time>2026-04-11T17:14:38.335Z</time></trkpt><trkpt lat="42.688559" lon="12.2009413"><ele>120.0</ele><time>2026-04-11T17:14:39.346Z</time></trkpt><trkpt lat="42.688344" lon="12.2011064"><ele>132.0</ele><time>2026-04-11T17:14:40.36Z</time></trkpt><trkpt lat="42.688138" lon="12.201269"><ele>132.0</ele><time>2026-04-11T17:14:41.355Z</time></trkpt><trkpt lat="42.6879439" lon="12.2014466"><ele>132.0</ele><time>2026-04-11T17:14:42.348Z</time></trkpt><trkpt lat="42.6877657" lon="12.2016353"><ele>134.33333333333334</ele><time>2026-04-11T17:14:43.35Z</time></trkpt><trkpt lat="42.6875954" lon="12.2018266"><ele>136.66666666666669</ele><time>2026-04-11T17:14:44.345Z</time></trkpt><trkpt lat="42.6874255" lon="12.2020146"><ele>139.0</ele><time>2026-04-11T17:14:45.36Z</time></trkpt><trkpt lat="42.6872519" lon="12.2021871"><ele>139.0</ele><time>2026-04-11T17:14:46.355Z</time></trkpt><trkpt lat="42.6870618" lon="12.2023203"><ele>139.0</ele><time>2026-04-11T17:14:47.334Z</time></trkpt><trkpt lat="42.6868662" lon="12.2024305"><ele>139.0</ele><time>2026-04-11T17:14:48.337Z</time></trkpt><trkpt lat="42.6866666" lon="12.2025211"><ele>139.0</ele><time>2026-04-11T17:14:49.344Z</time></trkpt><trkpt lat="42.6864564" lon="12.2026043"><ele>139.0</ele><time>2026-04-11T17:14:50.347Z</time></trkpt><trkpt lat="42.6862559" lon="12.2026716"><ele>139.0</ele><time>2026-04-11T17:14:51.349Z</time></trkpt><trkpt lat="42.6860611" lon="12.2027039"><ele>142.66666666666669</ele><time>2026-04-11T17:14:52.334Z</time></trkpt><trkpt lat="42.6858585" lon="12.2027123"><ele>146.33333333333334</ele><time>2026-04-11T17:14:53.344Z</time></trkpt><trkpt lat="42.6856514" lon="12.2026916"><ele>150.0</ele><time>2026-04-11T17:14:54.373Z</time></trkpt><trkpt lat="42.6854374" lon="12.2026688"><ele>150.66666666666666</ele><time>2026-04-11T17:14:55.35Z</time></trkpt><trkpt lat="42.6852187" lon="12.2026409"><ele>151.33333333333331</ele><time>2026-04-11T17:14:56.351Z</time></trkpt><trkpt lat="42.6850039" lon="12.2026144"><ele>152.0</ele><time>2026-04-11T17:14:57.357Z</time></trkpt><trkpt lat="42.6847922" lon="12.2025828"><ele>152.0</ele><time>2026-04-11T17:14:58.352Z</time></trkpt><trkpt lat="42.6845786" lon="12.2025449"><ele>152.0</ele><time>2026-04-11T17:14:59.355Z</time></trkpt><trkpt lat="42.6843663" lon="12.2025018"><ele>152.0</ele><time>2026-04-11T17:15:00.349Z</time></trkpt><trkpt lat="42.6841573" lon="12.2024622"><ele>152.66666666666666</ele><time>2026-04-11T17:15:01.359Z</time></trkpt><trkpt lat="42.683951" lon="12.2024269"><ele>153.33333333333334</ele><time>2026-04-11T17:15:02.348Z</time></trkpt><trkpt lat="42.6837538" lon="12.2023927"><ele>154.0</ele><time>2026-04-11T17:15:03.35Z</time></trkpt><trkpt lat="42.6835574" lon="12.2023548"><ele>166.33333333333334</ele><time>2026-04-11T17:15:04.357Z</time></trkpt><trkpt lat="42.683368" lon="12.202322"><ele>178.66666666666666</ele><time>2026-04-11T17:15:05.348Z</time></trkpt><trkpt lat="42.6831812" lon="12.2022931"><ele>191.0</ele><time>2026-04-11T17:15:06.339Z</time></trkpt><trkpt lat="42.6830043" lon="12.2022787"><ele>191.0</ele><time>2026-04-11T17:15:07.343Z</time></trkpt><trkpt lat="42.6828244" lon="12.2022865"><ele>191.0</ele><time>2026-04-11T17:15:08.352Z</time></trkpt><trkpt lat="42.6826471" lon="12.2023331"><ele>191.0</ele><time>2026-04-11T17:15:09.344Z</time></trkpt><trkpt lat="42.6824681" lon="12.2024124"><ele>182.66666666666666</ele><time>2026-04-11T17:15:10.353Z</time></trkpt><trkpt lat="42.6823013" lon="12.202497"><ele>174.33333333333334</ele><time>2026-04-11T17:15:11.361Z</time></trkpt><trkpt lat="42.6821485" lon="12.2025418"><ele>166.0</ele><time>2026-04-11T17:15:12.358Z</time></trkpt><trkpt lat="42.682002" lon="12.2025669"><ele>168.0</ele><time>2026-04-11T17:15:13.348Z</time></trkpt><trkpt lat="42.6818557" lon="12.202546"><ele>170.0</ele><time>2026-04-11T17:15:14.361Z</time></trkpt><trkpt lat="42.6817021" lon="12.2024869"><ele>172.0</ele><time>2026-04-11T17:15:15.361Z</time></trkpt><trkpt lat="42.6815336" lon="12.2024432"><ele>172.0</ele><time>2026-04-11T17:15:16.355Z</time></trkpt><trkpt lat="42.681363" lon="12.202424"><ele>172.0</ele><time>2026-04-11T17:15:17.358Z</time></trkpt><trkpt lat="42.6811941" lon="12.2024502"><ele>172.0</ele><time>2026-04-11T17:15:18.357Z</time></trkpt><trkpt lat="42.6810306" lon="12.2025191"><ele>176.0</ele><time>2026-04-11T17:15:19.352Z</time></trkpt><trkpt lat="42.6808757" lon="12.2025916"><ele>180.0</ele><time>2026-04-11T17:15:20.349Z</time></trkpt><trkpt lat="42.6807276" lon="12.2026594"><ele>184.0</ele><time>2026-04-11T17:15:21.355Z</time></trkpt><trkpt lat="42.6805864" lon="12.202716"><ele>184.0</ele><time>2026-04-11T17:15:22.362Z</time></trkpt><trkpt lat="42.6804559" lon="12.2027531"><ele>184.0</ele><time>2026-04-11T17:15:23.35Z</time></trkpt><trkpt lat="42.6803371" lon="12.2027662"><ele>184.0</ele><time>2026-04-11T17:15:24.343Z</time></trkpt><trkpt lat="42.68023" lon="12.2027394"><ele>184.0</ele><time>2026-04-11T17:15:25.355Z</time></trkpt><trkpt lat="42.6801423" lon="12.2026699"><ele>183.5</ele><time>2026-04-11T17:15:26.343Z</time></trkpt><trkpt lat="42.6800857" lon="12.2025616"><ele>183.0</ele><time>2026-04-11T17:15:27.356Z</time></trkpt><trkpt lat="42.6800555" lon="12.2024148"><ele>182.5</ele><time>2026-04-11T17:15:28.342Z</time></trkpt><trkpt lat="42.6800494" lon="12.2022569"><ele>182.0</ele><time>2026-04-11T17:15:29.356Z</time></trkpt><trkpt lat="42.6800608" lon="12.2020821"><ele>182.0</ele><time>2026-04-11T17:15:30.323Z</time></trkpt><trkpt lat="42.680076" lon="12.2018737"><ele>182.0</ele><time>2026-04-11T17:15:31.34Z</time></trkpt><trkpt lat="42.680091" lon="12.201658"><ele>182.0</ele><time>2026-04-11T17:15:32.34Z</time></trkpt><trkpt lat="42.6801042" lon="12.2014296"><ele>183.0</ele><time>2026-04-11T17:15:33.348Z</time></trkpt><trkpt lat="42.6801234" lon="12.2012077"><ele>184.0</ele><time>2026-04-11T17:15:34.337Z</time></trkpt><trkpt lat="42.6801438" lon="12.200975"><ele>185.0</ele><time>2026-04-11T17:15:35.349Z</time></trkpt><trkpt lat="42.6801665" lon="12.2007599"><ele>184.0</ele><time>2026-04-11T17:15:36.352Z</time></trkpt><trkpt lat="42.6802052" lon="12.2005518"><ele>183.0</ele><time>2026-04-11T17:15:37.341Z</time></trkpt><trkpt lat="42.6802935" lon="12.2003662"><ele>182.0</ele><time>2026-04-11T17:15:38.331Z</time></trkpt><trkpt lat="42.6804182" lon="12.2002144"><ele>185.33333333333331</ele><time>2026-04-11T17:15:39.355Z</time></trkpt><trkpt lat="42.6805652" lon="12.2000554"><ele>188.66666666666666</ele><time>2026-04-11T17:15:40.354Z</time></trkpt><trkpt lat="42.6807094" lon="12.1998919"><ele>192.0</ele><time>2026-04-11T17:15:41.363Z</time></trkpt><trkpt lat="42.6808442" lon="12.1997323"><ele>192.0</ele><time>2026-04-11T17:15:42.352Z</time></trkpt><trkpt lat="42.6809775" lon="12.1995901"><ele>192.0</ele><time>2026-04-11T17:15:43.347Z</time></trkpt><trkpt lat="42.6811146" lon="12.1994728"><ele>192.0</ele><time>2026-04-11T17:15:44.354Z</time></trkpt><trkpt lat="42.6812632" lon="12.1993809"><ele>198.33333333333331</ele><time>2026-04-11T17:15:45.358Z</time></trkpt><trkpt lat="42.6814241" lon="12.1993209"><ele>204.66666666666666</ele><time>2026-04-11T17:15:46.345Z</time></trkpt><trkpt lat="42.6815924" lon="12.199264"><ele>211.0</ele><time>2026-04-11T17:15:47.359Z</time></trkpt><trkpt lat="42.681765" lon="12.1992053"><ele>213.0</ele><time>2026-04-11T17:15:48.354Z</time></trkpt><trkpt lat="42.6819421" lon="12.19915"><ele>215.0</ele><time>2026-04-11T17:15:49.357Z</time></trkpt><trkpt lat="42.6821158" lon="12.1991122"><ele>217.0</ele><time>2026-04-11T17:15:50.344Z</time></trkpt><trkpt lat="42.6822916" lon="12.1990727"><ele>217.0</ele><time>2026-04-11T17:15:51.356Z</time></trkpt><trkpt lat="42.6824582" lon="12.1990021"><ele>217.0</ele><time>2026-04-11T17:15:52.338Z</time></trkpt><trkpt lat="42.6826091" lon="12.1988743"><ele>217.0</ele><time>2026-04-11T17:15:53.359Z</time></trkpt><trkpt lat="42.6827461" lon="12.198706"><ele>219.33333333333331</ele><time>2026-04-11T17:15:54.356Z</time></trkpt><trkpt lat="42.6828702" lon="12.1985175"><ele>221.66666666666669</ele><time>2026-04-11T17:15:55.35Z</time></trkpt><trkpt lat="42.6829918" lon="12.1983095"><ele>224.0</ele><time>2026-04-11T17:15:56.344Z</time></trkpt><trkpt lat="42.6831008" lon="12.1980966"><ele>224.33333333333334</ele><time>2026-04-11T17:15:57.363Z</time></trkpt><trkpt lat="42.6831923" lon="12.1978553"><ele>224.66666666666669</ele><time>2026-04-11T17:15:58.35Z</time></trkpt><trkpt lat="42.6832579" lon="12.1976202"><ele>225.0</ele><time>2026-04-11T17:15:59.346Z</time></trkpt><trkpt lat="42.6832969" lon="12.1973856"><ele>226.33333333333331</ele><time>2026-04-11T17:16:00.366Z</time></trkpt><trkpt lat="42.6832934" lon="12.1971564"><ele>227.66666666666666</ele><time>2026-04-11T17:16:01.345Z</time></trkpt><trkpt lat="42.6832682" lon="12.1969205"><ele>229.0</ele><time>2026-04-11T17:16:02.361Z</time></trkpt><trkpt lat="42.6832287" lon="12.1966739"><ele>229.33333333333331</ele><time>2026-04-11T17:16:03.338Z</time></trkpt><trkpt lat="42.6831832" lon="12.196422"><ele>229.66666666666669</ele><time>2026-04-11T17:16:04.344Z</time></trkpt><trkpt lat="42.6831315" lon="12.196154"><ele>230.0</ele><time>2026-04-11T17:16:05.337Z</time></trkpt><trkpt lat="42.6830803" lon="12.1958995"><ele>231.0</ele><time>2026-04-11T17:16:06.348Z</time></trkpt><trkpt lat="42.6830339" lon="12.1956604"><ele>232.0</ele><time>2026-04-11T17:16:07.347Z</time></trkpt><trkpt lat="42.6829862" lon="12.1954125"><ele>233.0</ele><time>2026-04-11T17:16:08.357Z</time></trkpt><trkpt lat="42.6829403" lon="12.1951592"><ele>233.0</ele><time>2026-04-11T17:16:09.358Z</time></trkpt><trkpt lat="42.6828984" lon="12.1949132"><ele>233.0</ele><time>2026-04-11T17:16:10.345Z</time></trkpt><trkpt lat="42.6828562" lon="12.1946689"><ele>233.0</ele><time>2026-04-11T17:16:11.358Z</time></trkpt><trkpt lat="42.6828031" lon="12.1944332"><ele>235.66666666666669</ele><time>2026-04-11T17:16:12.347Z</time></trkpt><trkpt lat="42.6827345" lon="12.1942012"><ele>238.33333333333331</ele><time>2026-04-11T17:16:13.354Z</time></trkpt><trkpt lat="42.6826473" lon="12.193975"><ele>241.0</ele><time>2026-04-11T17:16:14.354Z</time></trkpt><trkpt lat="42.6825487" lon="12.1937639"><ele>242.0</ele><time>2026-04-11T17:16:15.351Z</time></trkpt><trkpt lat="42.6824488" lon="12.1935451"><ele>243.0</ele><time>2026-04-11T17:16:16.365Z</time></trkpt><trkpt lat="42.6823515" lon="12.1933303"><ele>244.0</ele><time>2026-04-11T17:16:17.359Z</time></trkpt><trkpt lat="42.6822667" lon="12.1931059"><ele>244.0</ele><time>2026-04-11T17:16:18.361Z</time></trkpt><trkpt lat="42.6821838" lon="12.1928792"><ele>244.0</ele><time>2026-04-11T17:16:19.343Z</time></trkpt><trkpt lat="42.6820937" lon="12.1926674"><ele>244.0</ele><time>2026-04-11T17:16:20.34Z</time></trkpt><trkpt lat="42.6819916" lon="12.1924608"><ele>243.66666666666666</ele><time>2026-04-11T17:16:21.341Z</time></trkpt><trkpt lat="42.6818743" lon="12.192274"><ele>243.33333333333331</ele><time>2026-04-11T17:16:22.351Z</time></trkpt><trkpt lat="42.6817343" lon="12.1921082"><ele>243.0</ele><time>2026-04-11T17:16:23.348Z</time></trkpt><trkpt lat="42.6815778" lon="12.1919536"><ele>243.0</ele><time>2026-04-11T17:16:24.349Z</time></trkpt><trkpt lat="42.681417" lon="12.1917968"><ele>243.0</ele><time>2026-04-11T17:16:25.364Z</time></trkpt><trkpt lat="42.6812586" lon="12.1916399"><ele>243.0</ele><time>2026-04-11T17:16:26.365Z</time></trkpt><trkpt lat="42.6811017" lon="12.1914777"><ele>244.0</ele><time>2026-04-11T17:16:27.366Z</time></trkpt><trkpt lat="42.6809408" lon="12.1913116"><ele>245.0</ele><time>2026-04-11T17:16:28.352Z</time></trkpt><trkpt lat="42.6807804" lon="12.1911503"><ele>246.0</ele><time>2026-04-11T17:16:29.347Z</time></trkpt><trkpt lat="42.6806158" lon="12.1909904"><ele>246.0</ele><time>2026-04-11T17:16:30.363Z</time></trkpt><trkpt lat="42.6804535" lon="12.1908259"><ele>246.0</ele><time>2026-04-11T17:16:31.348Z</time></trkpt><trkpt lat="42.6802903" lon="12.1906605"><ele>246.0</ele><time>2026-04-11T17:16:32.346Z</time></trkpt><trkpt lat="42.6801248" lon="12.1905044"><ele>247.66666666666669</ele><time>2026-04-11T17:16:33.329Z</time></trkpt><trkpt lat="42.679949" lon="12.1903629"><ele>249.33333333333334</ele><time>2026-04-11T17:16:34.343Z</time></trkpt><trkpt lat="42.6797774" lon="12.1902209"><ele>251.0</ele><time>2026-04-11T17:16:35.352Z</time></trkpt><trkpt lat="42.6796034" lon="12.1900822"><ele>252.66666666666669</ele><time>2026-04-11T17:16:36.351Z</time></trkpt><trkpt lat="42.6794227" lon="12.1899436"><ele>254.33333333333331</ele><time>2026-04-11T17:16:37.345Z</time></trkpt><trkpt lat="42.6792414" lon="12.1898089"><ele>256.0</ele><time>2026-04-11T17:16:38.324Z</time></trkpt><trkpt lat="42.6790588" lon="12.1896725"><ele>256.0</ele><time>2026-04-11T17:16:39.358Z</time></trkpt><trkpt lat="42.6788773" lon="12.189536"><ele>256.0</ele><time>2026-04-11T17:16:40.342Z</time></trkpt><trkpt lat="42.6786963" lon="12.1894037"><ele>256.0</ele><time>2026-04-11T17:16:41.336Z</time></trkpt><trkpt lat="42.6785228" lon="12.1892637"><ele>259.66666666666663</ele><time>2026-04-11T17:16:42.363Z</time></trkpt><trkpt lat="42.678348" lon="12.1891254"><ele>263.3333333333333</ele><time>2026-04-11T17:16:43.341Z</time></trkpt><trkpt lat="42.678171" lon="12.1889914"><ele>267.0</ele><time>2026-04-11T17:16:44.35Z</time></trkpt><trkpt lat="42.6779929" lon="12.188852"><ele>267.0</ele><time>2026-04-11T17:16:45.345Z</time></trkpt><trkpt lat="42.6778091" lon="12.1887114"><ele>267.0</ele><time>2026-04-11T17:16:46.344Z</time></trkpt><trkpt lat="42.6776255" lon="12.1885725"><ele>267.0</ele><time>2026-04-11T17:16:47.34Z</time></trkpt><trkpt lat="42.6774432" lon="12.1884344"><ele>270.0</ele><time>2026-04-11T17:16:48.347Z</time></trkpt><trkpt lat="42.6772572" lon="12.1882928"><ele>273.0</ele><time>2026-04-11T17:16:49.363Z</time></trkpt><trkpt lat="42.6770743" lon="12.1881509"><ele>276.0</ele><time>2026-04-11T17:16:50.352Z</time></trkpt><trkpt lat="42.6768938" lon="12.1880148"><ele>278.6666666666667</ele><time>2026-04-11T17:16:51.359Z</time></trkpt><trkpt lat="42.676713" lon="12.1878755"><ele>281.33333333333337</ele><time>2026-04-11T17:16:52.348Z</time></trkpt><trkpt lat="42.6765342" lon="12.1877347"><ele>284.0</ele><time>2026-04-11T17:16:53.356Z</time></trkpt><trkpt lat="42.6763566" lon="12.1875998"><ele>284.0</ele><time>2026-04-11T17:16:54.361Z</time></trkpt><trkpt lat="42.676178" lon="12.1874629"><ele>284.0</ele><time>2026-04-11T17:16:55.351Z</time></trkpt><trkpt lat="42.675998" lon="12.1873233"><ele>284.0</ele><time>2026-04-11T17:16:56.354Z</time></trkpt><trkpt lat="42.6758123" lon="12.1871824"><ele>286.33333333333337</ele><time>2026-04-11T17:16:57.354Z</time></trkpt><trkpt lat="42.675618" lon="12.1870516"><ele>288.6666666666667</ele><time>2026-04-11T17:16:58.353Z</time></trkpt><trkpt lat="42.6754217" lon="12.1869242"><ele>291.0</ele><time>2026-04-11T17:16:59.336Z</time></trkpt><trkpt lat="42.6752222" lon="12.1868094"><ele>292.3333333333333</ele><time>2026-04-11T17:17:00.365Z</time></trkpt><trkpt lat="42.6750204" lon="12.1866995"><ele>293.66666666666663</ele><time>2026-04-11T17:17:01.356Z</time></trkpt><trkpt lat="42.6748276" lon="12.1865885"><ele>295.0</ele><time>2026-04-11T17:17:02.348Z</time></trkpt><trkpt lat="42.6746429" lon="12.1864852"><ele>296.3333333333333</ele><time>2026-04-11T17:17:03.344Z</time></trkpt><trkpt lat="42.6744632" lon="12.1863783"><ele>297.6666666666667</ele><time>2026-04-11T17:17:04.359Z</time></trkpt><trkpt lat="42.6742947" lon="12.1862596"><ele>299.0</ele><time>2026-04-11T17:17:05.358Z</time></trkpt><trkpt lat="42.6741462" lon="12.18611"><ele>300.6666666666667</ele><time>2026-04-11T17:17:06.351Z</time></trkpt><trkpt lat="42.6740232" lon="12.1859122"><ele>302.3333333333333</ele><time>2026-04-11T17:17:07.36Z</time></trkpt><trkpt lat="42.6739254" lon="12.1856687"><ele>304.0</ele><time>2026-04-11T17:17:08.354Z</time></trkpt><trkpt lat="42.6738435" lon="12.185416"><ele>305.66666666666663</ele><time>2026-04-11T17:17:09.36Z</time></trkpt><trkpt lat="42.6737717" lon="12.1851548"><ele>307.3333333333333</ele><time>2026-04-11T17:17:10.361Z</time></trkpt><trkpt lat="42.6737077" lon="12.1848937"><ele>309.0</ele><time>2026-04-11T17:17:11.36Z</time></trkpt><trkpt lat="42.6736418" lon="12.184655"><ele>312.3333333333333</ele><time>2026-04-11T17:17:12.335Z</time></trkpt><trkpt lat="42.6735686" lon="12.1844219"><ele>315.66666666666663</ele><time>2026-04-11T17:17:13.356Z</time></trkpt><trkpt lat="42.6734843" lon="12.1841929"><ele>319.0</ele><time>2026-04-11T17:17:14.361Z</time></trkpt><trkpt lat="42.6733824" lon="12.1839702"><ele>319.0</ele><time>2026-04-11T17:17:15.345Z</time></trkpt><trkpt lat="42.6732762" lon="12.1837449"><ele>319.0</ele><time>2026-04-11T17:17:16.343Z</time></trkpt><trkpt lat="42.6731641" lon="12.1835186"><ele>319.0</ele><time>2026-04-11T17:17:17.351Z</time></trkpt><trkpt lat="42.6730523" lon="12.183285"><ele>319.0</ele><time>2026-04-11T17:17:18.343Z</time></trkpt><trkpt lat="42.672937" lon="12.1830492"><ele>319.0</ele><time>2026-04-11T17:17:19.355Z</time></trkpt><trkpt lat="42.6728195" lon="12.1828166"><ele>319.0</ele><time>2026-04-11T17:17:20.341Z</time></trkpt><trkpt lat="42.6727034" lon="12.182572"><ele>319.0</ele><time>2026-04-11T17:17:21.352Z</time></trkpt><trkpt lat="42.6725821" lon="12.1823273"><ele>319.0</ele><time>2026-04-11T17:17:22.342Z</time></trkpt><trkpt lat="42.6724581" lon="12.1820864"><ele>319.0</ele><time>2026-04-11T17:17:23.36Z</time></trkpt><trkpt lat="42.67234" lon="12.1818436"><ele>319.0</ele><time>2026-04-11T17:17:24.357Z</time></trkpt><trkpt lat="42.6722237" lon="12.1816044"><ele>319.0</ele><time>2026-04-11T17:17:25.36Z</time></trkpt><trkpt lat="42.6721091" lon="12.1813659"><ele>319.0</ele><time>2026-04-11T17:17:26.335Z</time></trkpt><trkpt lat="42.6719995" lon="12.1811249"><ele>319.3333333333333</ele><time>2026-04-11T17:17:27.327Z</time></trkpt><trkpt lat="42.6718855" lon="12.1808859"><ele>319.6666666666667</ele><time>2026-04-11T17:17:28.347Z</time></trkpt><trkpt lat="42.6717686" lon="12.1806558"><ele>320.0</ele><time>2026-04-11T17:17:29.341Z</time></trkpt><trkpt lat="42.6716713" lon="12.1804374"><ele>320.0</ele><time>2026-04-11T17:17:30.325Z</time></trkpt><trkpt lat="42.6715789" lon="12.1802296"><ele>320.0</ele><time>2026-04-11T17:17:31.347Z</time></trkpt><trkpt lat="42.6714865" lon="12.1800524"><ele>320.0</ele><time>2026-04-11T17:17:32.332Z</time></trkpt><trkpt lat="42.671419" lon="12.1798989"><ele>319.8</ele><time>2026-04-11T17:17:33.332Z</time></trkpt><trkpt lat="42.6713523" lon="12.1797541"><ele>319.6</ele><time>2026-04-11T17:17:34.348Z</time></trkpt><trkpt lat="42.6713113" lon="12.1796259"><ele>319.4</ele><time>2026-04-11T17:17:35.358Z</time></trkpt><trkpt lat="42.6712864" lon="12.1795294"><ele>319.2</ele><time>2026-04-11T17:17:36.342Z</time></trkpt><trkpt lat="42.6712814" lon="12.1794426"><ele>319.0</ele><time>2026-04-11T17:17:38.344Z</time></trkpt><trkpt lat="42.6712711" lon="12.1793151"><ele>319.0</ele><time>2026-04-11T17:17:41.353Z</time></trkpt><trkpt lat="42.6712668" lon="12.1792257"><ele>319.0</ele><time>2026-04-11T17:17:42.35Z</time></trkpt><trkpt lat="42.6712137" lon="12.1790897"><ele>319.0</ele><time>2026-04-11T17:17:44.333Z</time></trkpt><trkpt lat="42.6711607" lon="12.1790269"><ele>319.0</ele><time>2026-04-11T17:17:45.365Z</time></trkpt><trkpt lat="42.671088" lon="12.1789182"><ele>319.0</ele><time>2026-04-11T17:17:47.345Z</time></trkpt><trkpt lat="42.6710337" lon="12.1788351"><ele>319.0</ele><time>2026-04-11T17:17:49.338Z</time></trkpt><trkpt lat="42.6709907" lon="12.1787608"><ele>318.16666666666663</ele><time>2026-04-11T17:17:51.331Z</time></trkpt><trkpt lat="42.6709386" lon="12.1786806"><ele>317.3333333333333</ele><time>2026-04-11T17:17:54.343Z</time></trkpt><trkpt lat="42.6708923" lon="12.1786088"><ele>316.5</ele><time>2026-04-11T17:17:57.348Z</time></trkpt><trkpt lat="42.6708565" lon="12.1785135"><ele>315.6666666666667</ele><time>2026-04-11T17:18:01.338Z</time></trkpt><trkpt lat="42.6708248" lon="12.1784246"><ele>314.83333333333337</ele><time>2026-04-11T17:18:21.358Z</time></trkpt><trkpt lat="42.6707705" lon="12.1783285"><ele>314.0</ele><time>2026-04-11T17:18:24.341Z</time></trkpt><trkpt lat="42.6707401" lon="12.1782276"><ele>313.5</ele><time>2026-04-11T17:18:26.331Z</time></trkpt><trkpt lat="42.6707256" lon="12.1780738"><ele>313.0</ele><time>2026-04-11T17:18:28.34Z</time></trkpt><trkpt lat="42.6707194" lon="12.1779869"><ele>312.5</ele><time>2026-04-11T17:18:29.354Z</time></trkpt><trkpt lat="42.6707127" lon="12.177885"><ele>312.0</ele><time>2026-04-11T17:18:30.348Z</time></trkpt><trkpt lat="42.6707101" lon="12.1777701"><ele>311.5</ele><time>2026-04-11T17:18:31.342Z</time></trkpt><trkpt lat="42.6707115" lon="12.1776423"><ele>311.0</ele><time>2026-04-11T17:18:32.339Z</time></trkpt><trkpt lat="42.6707163" lon="12.1775004"><ele>310.25</ele><time>2026-04-11T17:18:33.348Z</time></trkpt><trkpt lat="42.670723" lon="12.177346"><ele>309.5</ele><time>2026-04-11T17:18:34.342Z</time></trkpt><trkpt lat="42.6707289" lon="12.1771808"><ele>308.75</ele><time>2026-04-11T17:18:35.335Z</time></trkpt><trkpt lat="42.6707365" lon="12.1770097"><ele>308.0</ele><time>2026-04-11T17:18:36.34Z</time></trkpt><trkpt lat="42.6707461" lon="12.1768239"><ele>308.0</ele><time>2026-04-11T17:18:37.356Z</time></trkpt><trkpt lat="42.6707544" lon="12.1766248"><ele>308.0</ele><time>2026-04-11T17:18:38.345Z</time></trkpt><trkpt lat="42.6707637" lon="12.1764282"><ele>308.0</ele><time>2026-04-11T17:18:39.341Z</time></trkpt><trkpt lat="42.6707707" lon="12.1762182"><ele>308.0</ele><time>2026-04-11T17:18:40.341Z</time></trkpt><trkpt lat="42.6707822" lon="12.1759804"><ele>308.0</ele><time>2026-04-11T17:18:41.346Z</time></trkpt><trkpt lat="42.6707931" lon="12.1757373"><ele>308.0</ele><time>2026-04-11T17:18:42.34Z</time></trkpt><trkpt lat="42.6708054" lon="12.1754919"><ele>308.0</ele><time>2026-04-11T17:18:43.349Z</time></trkpt><trkpt lat="42.6708188" lon="12.1752404"><ele>308.0</ele><time>2026-04-11T17:18:44.344Z</time></trkpt><trkpt lat="42.6708288" lon="12.1749877"><ele>308.0</ele><time>2026-04-11T17:18:45.351Z</time></trkpt><trkpt lat="42.6708342" lon="12.1747345"><ele>308.0</ele><time>2026-04-11T17:18:46.35Z</time></trkpt><trkpt lat="42.6708395" lon="12.1744704"><ele>308.33333333333337</ele><time>2026-04-11T17:18:47.352Z</time></trkpt><trkpt lat="42.6708465" lon="12.1742124"><ele>308.6666666666667</ele><time>2026-04-11T17:18:48.355Z</time></trkpt><trkpt lat="42.6708571" lon="12.1739491"><ele>309.0</ele><time>2026-04-11T17:18:49.351Z</time></trkpt><trkpt lat="42.6708694" lon="12.173697"><ele>309.0</ele><time>2026-04-11T17:18:50.359Z</time></trkpt><trkpt lat="42.6708767" lon="12.1734485"><ele>309.0</ele><time>2026-04-11T17:18:51.358Z</time></trkpt><trkpt lat="42.6708774" lon="12.1732002"><ele>309.0</ele><time>2026-04-11T17:18:52.347Z</time></trkpt><trkpt lat="42.6708705" lon="12.1729579"><ele>308.6666666666667</ele><time>2026-04-11T17:18:53.367Z</time></trkpt><trkpt lat="42.6708478" lon="12.1727118"><ele>308.33333333333337</ele><time>2026-04-11T17:18:54.348Z</time></trkpt><trkpt lat="42.6708067" lon="12.1724671"><ele>308.0</ele><time>2026-04-11T17:18:55.342Z</time></trkpt><trkpt lat="42.670755" lon="12.1722187"><ele>308.6666666666667</ele><time>2026-04-11T17:18:56.352Z</time></trkpt><trkpt lat="42.6707008" lon="12.171971"><ele>309.3333333333333</ele><time>2026-04-11T17:18:57.348Z</time></trkpt><trkpt lat="42.6706426" lon="12.1717228"><ele>310.0</ele><time>2026-04-11T17:18:58.343Z</time></trkpt><trkpt lat="42.6705875" lon="12.1714778"><ele>311.0</ele><time>2026-04-11T17:18:59.345Z</time></trkpt><trkpt lat="42.6705347" lon="12.1712349"><ele>312.0</ele><time>2026-04-11T17:19:00.35Z</time></trkpt><trkpt lat="42.6704767" lon="12.1709902"><ele>313.0</ele><time>2026-04-11T17:19:01.357Z</time></trkpt><trkpt lat="42.6704205" lon="12.1707505"><ele>313.66666666666663</ele><time>2026-04-11T17:19:02.354Z</time></trkpt><trkpt lat="42.6703698" lon="12.1705125"><ele>314.3333333333333</ele><time>2026-04-11T17:19:03.334Z</time></trkpt><trkpt lat="42.6703156" lon="12.1702723"><ele>315.0</ele><time>2026-04-11T17:19:04.337Z</time></trkpt><trkpt lat="42.6702589" lon="12.1700295"><ele>315.3333333333333</ele><time>2026-04-11T17:19:05.354Z</time></trkpt><trkpt lat="42.6701961" lon="12.1697881"><ele>315.66666666666663</ele><time>2026-04-11T17:19:06.351Z</time></trkpt><trkpt lat="42.6701385" lon="12.1695572"><ele>316.0</ele><time>2026-04-11T17:19:07.343Z</time></trkpt><trkpt lat="42.6700859" lon="12.169339"><ele>316.0</ele><time>2026-04-11T17:19:08.35Z</time></trkpt><trkpt lat="42.6700376" lon="12.16912"><ele>316.0</ele><time>2026-04-11T17:19:09.347Z</time></trkpt><trkpt lat="42.6699983" lon="12.1689034"><ele>316.0</ele><time>2026-04-11T17:19:10.349Z</time></trkpt><trkpt lat="42.6699816" lon="12.1686863"><ele>314.66666666666663</ele><time>2026-04-11T17:19:11.349Z</time></trkpt><trkpt lat="42.6699974" lon="12.1684633"><ele>313.3333333333333</ele><time>2026-04-11T17:19:12.359Z</time></trkpt><trkpt lat="42.6700415" lon="12.1682332"><ele>312.0</ele><time>2026-04-11T17:19:13.349Z</time></trkpt><trkpt lat="42.6701027" lon="12.1679955"><ele>311.0</ele><time>2026-04-11T17:19:14.34Z</time></trkpt><trkpt lat="42.6701625" lon="12.1677514"><ele>310.0</ele><time>2026-04-11T17:19:15.349Z</time></trkpt><trkpt lat="42.6702107" lon="12.1675128"><ele>309.0</ele><time>2026-04-11T17:19:16.349Z</time></trkpt><trkpt lat="42.6702333" lon="12.1672737"><ele>309.0</ele><time>2026-04-11T17:19:17.354Z</time></trkpt><trkpt lat="42.670228" lon="12.1670405"><ele>309.0</ele><time>2026-04-11T17:19:18.359Z</time></trkpt><trkpt lat="42.6701991" lon="12.1667926"><ele>309.0</ele><time>2026-04-11T17:19:19.356Z</time></trkpt><trkpt lat="42.6701587" lon="12.1665368"><ele>309.3333333333333</ele><time>2026-04-11T17:19:20.357Z</time></trkpt><trkpt lat="42.6701184" lon="12.1662851"><ele>309.66666666666663</ele><time>2026-04-11T17:19:21.348Z</time></trkpt><trkpt lat="42.6700837" lon="12.1660284"><ele>310.0</ele><time>2026-04-11T17:19:22.351Z</time></trkpt><trkpt lat="42.6700538" lon="12.1657702"><ele>310.66666666666663</ele><time>2026-04-11T17:19:23.357Z</time></trkpt><trkpt lat="42.6700364" lon="12.1655206"><ele>311.3333333333333</ele><time>2026-04-11T17:19:24.348Z</time></trkpt><trkpt lat="42.6700222" lon="12.1652715"><ele>312.0</ele><time>2026-04-11T17:19:25.347Z</time></trkpt><trkpt lat="42.6700029" lon="12.1650255"><ele>313.3333333333333</ele><time>2026-04-11T17:19:26.357Z</time></trkpt><trkpt lat="42.6699719" lon="12.1647839"><ele>314.66666666666663</ele><time>2026-04-11T17:19:27.344Z</time></trkpt><trkpt lat="42.669927" lon="12.1645385"><ele>316.0</ele><time>2026-04-11T17:19:28.348Z</time></trkpt><trkpt lat="42.669878" lon="12.164296"><ele>316.0</ele><time>2026-04-11T17:19:29.358Z</time></trkpt><trkpt lat="42.6698225" lon="12.1640497"><ele>316.0</ele><time>2026-04-11T17:19:30.354Z</time></trkpt><trkpt lat="42.669767" lon="12.1638121"><ele>316.0</ele><time>2026-04-11T17:19:31.35Z</time></trkpt><trkpt lat="42.6697174" lon="12.1635818"><ele>317.3333333333333</ele><time>2026-04-11T17:19:32.33Z</time></trkpt><trkpt lat="42.6696699" lon="12.1633568"><ele>318.6666666666667</ele><time>2026-04-11T17:19:33.335Z</time></trkpt><trkpt lat="42.6696223" lon="12.1631292"><ele>320.0</ele><time>2026-04-11T17:19:34.363Z</time></trkpt><trkpt lat="42.6695747" lon="12.1629039"><ele>320.33333333333337</ele><time>2026-04-11T17:19:35.35Z</time></trkpt><trkpt lat="42.6695304" lon="12.162686"><ele>320.6666666666667</ele><time>2026-04-11T17:19:36.341Z</time></trkpt><trkpt lat="42.6694822" lon="12.1624873"><ele>321.0</ele><time>2026-04-11T17:19:37.343Z</time></trkpt><trkpt lat="42.6694344" lon="12.1622984"><ele>322.25</ele><time>2026-04-11T17:19:38.345Z</time></trkpt><trkpt lat="42.6693721" lon="12.1621205"><ele>323.5</ele><time>2026-04-11T17:19:39.339Z</time></trkpt><trkpt lat="42.6692851" lon="12.1619517"><ele>324.75</ele><time>2026-04-11T17:19:40.351Z</time></trkpt><trkpt lat="42.6691831" lon="12.1618186"><ele>326.0</ele><time>2026-04-11T17:19:41.354Z</time></trkpt><trkpt lat="42.6690621" lon="12.161709"><ele>326.0</ele><time>2026-04-11T17:19:42.348Z</time></trkpt><trkpt lat="42.668927" lon="12.1616201"><ele>326.0</ele><time>2026-04-11T17:19:43.35Z</time></trkpt><trkpt lat="42.6687844" lon="12.1615432"><ele>326.0</ele><time>2026-04-11T17:19:44.344Z</time></trkpt><trkpt lat="42.6686375" lon="12.161469"><ele>327.25</ele><time>2026-04-11T17:19:45.361Z</time></trkpt><trkpt lat="42.6684987" lon="12.1613924"><ele>328.5</ele><time>2026-04-11T17:19:46.352Z</time></trkpt><trkpt lat="42.6683733" lon="12.1612967"><ele>329.75</ele><time>2026-04-11T17:19:47.36Z</time></trkpt><trkpt lat="42.6682729" lon="12.1611798"><ele>331.0</ele><time>2026-04-11T17:19:48.354Z</time></trkpt><trkpt lat="42.6682176" lon="12.161028"><ele>331.0</ele><time>2026-04-11T17:19:49.334Z</time></trkpt><trkpt lat="42.668201" lon="12.1608551"><ele>331.0</ele><time>2026-04-11T17:19:50.335Z</time></trkpt><trkpt lat="42.6682345" lon="12.1606752"><ele>331.0</ele><time>2026-04-11T17:19:51.342Z</time></trkpt><trkpt lat="42.6682999" lon="12.1604968"><ele>331.0</ele><time>2026-04-11T17:19:52.349Z</time></trkpt><trkpt lat="42.6683917" lon="12.1603299"><ele>333.75</ele><time>2026-04-11T17:19:53.353Z</time></trkpt><trkpt lat="42.6684885" lon="12.1601513"><ele>336.5</ele><time>2026-04-11T17:19:54.357Z</time></trkpt><trkpt lat="42.6685606" lon="12.1599841"><ele>339.25</ele><time>2026-04-11T17:19:55.356Z</time></trkpt><trkpt lat="42.6686136" lon="12.1598144"><ele>342.0</ele><time>2026-04-11T17:19:56.34Z</time></trkpt><trkpt lat="42.6686295" lon="12.1596285"><ele>343.0</ele><time>2026-04-11T17:19:57.348Z</time></trkpt><trkpt lat="42.668607" lon="12.1594359"><ele>344.0</ele><time>2026-04-11T17:19:58.334Z</time></trkpt><trkpt lat="42.668541" lon="12.1592558"><ele>345.0</ele><time>2026-04-11T17:19:59.375Z</time></trkpt><trkpt lat="42.6684571" lon="12.1591068"><ele>346.0</ele><time>2026-04-11T17:20:00.349Z</time></trkpt><trkpt lat="42.668353" lon="12.158971"><ele>347.0</ele><time>2026-04-11T17:20:01.355Z</time></trkpt><trkpt lat="42.6682304" lon="12.1588376"><ele>348.0</ele><time>2026-04-11T17:20:02.351Z</time></trkpt><trkpt lat="42.6681048" lon="12.1587059"><ele>349.0</ele><time>2026-04-11T17:20:03.357Z</time></trkpt><trkpt lat="42.6679814" lon="12.1585685"><ele>349.0</ele><time>2026-04-11T17:20:04.355Z</time></trkpt><trkpt lat="42.6678552" lon="12.1584308"><ele>349.0</ele><time>2026-04-11T17:20:05.346Z</time></trkpt><trkpt lat="42.6677217" lon="12.1582923"><ele>349.0</ele><time>2026-04-11T17:20:06.33Z</time></trkpt><trkpt lat="42.6675908" lon="12.1581481"><ele>350.66666666666663</ele><time>2026-04-11T17:20:07.348Z</time></trkpt><trkpt lat="42.6674625" lon="12.1580039"><ele>352.3333333333333</ele><time>2026-04-11T17:20:08.343Z</time></trkpt><trkpt lat="42.6673272" lon="12.1578591"><ele>354.0</ele><time>2026-04-11T17:20:09.357Z</time></trkpt><trkpt lat="42.6671871" lon="12.1577137"><ele>354.0</ele><time>2026-04-11T17:20:10.342Z</time></trkpt><trkpt lat="42.6670469" lon="12.1575616"><ele>354.0</ele><time>2026-04-11T17:20:11.344Z</time></trkpt><trkpt lat="42.6669094" lon="12.1574037"><ele>354.0</ele><time>2026-04-11T17:20:12.343Z</time></trkpt><trkpt lat="42.6667714" lon="12.1572476"><ele>355.0</ele><time>2026-04-11T17:20:13.341Z</time></trkpt><trkpt lat="42.6666318" lon="12.1570923"><ele>356.0</ele><time>2026-04-11T17:20:14.347Z</time></trkpt><trkpt lat="42.6664939" lon="12.1569361"><ele>357.0</ele><time>2026-04-11T17:20:15.355Z</time></trkpt><trkpt lat="42.6663569" lon="12.1567835"><ele>357.0</ele><time>2026-04-11T17:20:16.351Z</time></trkpt><trkpt lat="42.6662171" lon="12.1566185"><ele>357.0</ele><time>2026-04-11T17:20:17.345Z</time></trkpt><trkpt lat="42.6660772" lon="12.1564594"><ele>357.0</ele><time>2026-04-11T17:20:18.35Z</time></trkpt><trkpt lat="42.6659304" lon="12.156304"><ele>357.0</ele><time>2026-04-11T17:20:19.353Z</time></trkpt><trkpt lat="42.6657845" lon="12.1561496"><ele>357.0</ele><time>2026-04-11T17:20:20.337Z</time></trkpt><trkpt lat="42.6656394" lon="12.1559915"><ele>357.0</ele><time>2026-04-11T17:20:21.328Z</time></trkpt><trkpt lat="42.6654948" lon="12.155832"><ele>356.6666666666667</ele><time>2026-04-11T17:20:22.348Z</time></trkpt><trkpt lat="42.6653513" lon="12.1556742"><ele>356.33333333333337</ele><time>2026-04-11T17:20:23.351Z</time></trkpt><trkpt lat="42.6652107" lon="12.155521"><ele>356.0</ele><time>2026-04-11T17:20:24.333Z</time></trkpt><trkpt lat="42.6650708" lon="12.1553706"><ele>356.6666666666667</ele><time>2026-04-11T17:20:25.362Z</time></trkpt><trkpt lat="42.6649331" lon="12.1552158"><ele>357.3333333333333</ele><time>2026-04-11T17:20:26.36Z</time></trkpt><trkpt lat="42.6647909" lon="12.1550569"><ele>358.0</ele><time>2026-04-11T17:20:27.352Z</time></trkpt><trkpt lat="42.6646479" lon="12.1548975"><ele>358.3333333333333</ele><time>2026-04-11T17:20:28.352Z</time></trkpt><trkpt lat="42.6645027" lon="12.1547358"><ele>358.6666666666667</ele><time>2026-04-11T17:20:29.345Z</time></trkpt><trkpt lat="42.6643535" lon="12.1545736"><ele>359.0</ele><time>2026-04-11T17:20:30.356Z</time></trkpt><trkpt lat="42.6642007" lon="12.1544108"><ele>359.6666666666667</ele><time>2026-04-11T17:20:31.338Z</time></trkpt><trkpt lat="42.6640509" lon="12.1542491"><ele>360.3333333333333</ele><time>2026-04-11T17:20:32.349Z</time></trkpt><trkpt lat="42.6639021" lon="12.1540835"><ele>361.0</ele><time>2026-04-11T17:20:33.351Z</time></trkpt><trkpt lat="42.6637532" lon="12.153919"><ele>361.3333333333333</ele><time>2026-04-11T17:20:34.35Z</time></trkpt><trkpt lat="42.663602" lon="12.1537513"><ele>361.6666666666667</ele><time>2026-04-11T17:20:35.36Z</time></trkpt><trkpt lat="42.6634511" lon="12.1535835"><ele>362.0</ele><time>2026-04-11T17:20:36.342Z</time></trkpt><trkpt lat="42.6633007" lon="12.1534132"><ele>362.0</ele><time>2026-04-11T17:20:37.362Z</time></trkpt><trkpt lat="42.6631495" lon="12.1532406"><ele>362.0</ele><time>2026-04-11T17:20:38.35Z</time></trkpt><trkpt lat="42.6630023" lon="12.1530776"><ele>362.0</ele><time>2026-04-11T17:20:39.342Z</time></trkpt><trkpt lat="42.6628542" lon="12.1529167"><ele>362.33333333333337</ele><time>2026-04-11T17:20:40.375Z</time></trkpt><trkpt lat="42.662705" lon="12.152755"><ele>362.6666666666667</ele><time>2026-04-11T17:20:41.353Z</time></trkpt><trkpt lat="42.6625604" lon="12.1525915"><ele>363.0</ele><time>2026-04-11T17:20:42.345Z</time></trkpt><trkpt lat="42.662414" lon="12.1524229"><ele>363.0</ele><time>2026-04-11T17:20:43.349Z</time></trkpt><trkpt lat="42.6622675" lon="12.1522595"><ele>363.0</ele><time>2026-04-11T17:20:44.345Z</time></trkpt><trkpt lat="42.6621196" lon="12.1520944"><ele>363.0</ele><time>2026-04-11T17:20:45.346Z</time></trkpt><trkpt lat="42.6619696" lon="12.1519297"><ele>363.6666666666667</ele><time>2026-04-11T17:20:46.34Z</time></trkpt><trkpt lat="42.6618238" lon="12.1517661"><ele>364.33333333333337</ele><time>2026-04-11T17:20:47.341Z</time></trkpt><trkpt lat="42.6616764" lon="12.1515955"><ele>365.0</ele><time>2026-04-11T17:20:48.354Z</time></trkpt><trkpt lat="42.6615276" lon="12.1514278"><ele>365.0</ele><time>2026-04-11T17:20:49.347Z</time></trkpt><trkpt lat="42.6613789" lon="12.1512584"><ele>365.0</ele><time>2026-04-11T17:20:50.347Z</time></trkpt><trkpt lat="42.6612267" lon="12.151088"><ele>365.0</ele><time>2026-04-11T17:20:51.358Z</time></trkpt><trkpt lat="42.6610705" lon="12.1509211"><ele>365.33333333333337</ele><time>2026-04-11T17:20:52.346Z</time></trkpt><trkpt lat="42.6609062" lon="12.1507517"><ele>365.6666666666667</ele><time>2026-04-11T17:20:53.352Z</time></trkpt><trkpt lat="42.660741" lon="12.1505919"><ele>366.0</ele><time>2026-04-11T17:20:54.361Z</time></trkpt><trkpt lat="42.6605718" lon="12.1504319"><ele>366.6666666666667</ele><time>2026-04-11T17:20:55.358Z</time></trkpt><trkpt lat="42.6603984" lon="12.1502735"><ele>367.33333333333337</ele><time>2026-04-11T17:20:56.343Z</time></trkpt><trkpt lat="42.66023" lon="12.1501216"><ele>368.0</ele><time>2026-04-11T17:20:57.353Z</time></trkpt><trkpt lat="42.6600657" lon="12.1499671"><ele>365.0</ele><time>2026-04-11T17:20:58.364Z</time></trkpt><trkpt lat="42.659901" lon="12.1498121"><ele>362.0</ele><time>2026-04-11T17:20:59.34Z</time></trkpt><trkpt lat="42.6597448" lon="12.1496726"><ele>359.0</ele><time>2026-04-11T17:21:00.351Z</time></trkpt><trkpt lat="42.6595886" lon="12.1495313"><ele>362.33333333333337</ele><time>2026-04-11T17:21:01.324Z</time></trkpt><trkpt lat="42.6594292" lon="12.1493917"><ele>365.6666666666667</ele><time>2026-04-11T17:21:02.35Z</time></trkpt><trkpt lat="42.6592708" lon="12.1492454"><ele>369.0</ele><time>2026-04-11T17:21:03.347Z</time></trkpt><trkpt lat="42.6591068" lon="12.1490941"><ele>365.6666666666667</ele><time>2026-04-11T17:21:04.332Z</time></trkpt><trkpt lat="42.658948" lon="12.1489488"><ele>362.33333333333337</ele><time>2026-04-11T17:21:05.345Z</time></trkpt><trkpt lat="42.6587919" lon="12.1488066"><ele>359.0</ele><time>2026-04-11T17:21:06.35Z</time></trkpt><trkpt lat="42.6586384" lon="12.1486611"><ele>363.6666666666667</ele><time>2026-04-11T17:21:07.348Z</time></trkpt><trkpt lat="42.6584827" lon="12.1485211"><ele>368.3333333333333</ele><time>2026-04-11T17:21:08.33Z</time></trkpt><trkpt lat="42.6583298" lon="12.1483768"><ele>373.0</ele><time>2026-04-11T17:21:09.33Z</time></trkpt><trkpt lat="42.6581733" lon="12.1482315"><ele>372.3333333333333</ele><time>2026-04-11T17:21:10.344Z</time></trkpt><trkpt lat="42.6580209" lon="12.1480737"><ele>371.6666666666667</ele><time>2026-04-11T17:21:11.347Z</time></trkpt><trkpt lat="42.6578821" lon="12.1479072"><ele>371.0</ele><time>2026-04-11T17:21:12.338Z</time></trkpt><trkpt lat="42.657762" lon="12.1477278"><ele>372.6666666666667</ele><time>2026-04-11T17:21:13.333Z</time></trkpt><trkpt lat="42.6576427" lon="12.1475463"><ele>374.3333333333333</ele><time>2026-04-11T17:21:14.345Z</time></trkpt><trkpt lat="42.6575285" lon="12.1473565"><ele>376.0</ele><time>2026-04-11T17:21:15.348Z</time></trkpt><trkpt lat="42.657413" lon="12.1471697"><ele>376.3333333333333</ele><time>2026-04-11T17:21:16.355Z</time></trkpt><trkpt lat="42.6573053" lon="12.1469754"><ele>376.6666666666667</ele><time>2026-04-11T17:21:17.371Z</time></trkpt><trkpt lat="42.6572046" lon="12.1467703"><ele>377.0</ele><time>2026-04-11T17:21:18.345Z</time></trkpt><trkpt lat="42.6571079" lon="12.1465512"><ele>377.33333333333337</ele><time>2026-04-11T17:21:19.371Z</time></trkpt><trkpt lat="42.6570119" lon="12.1463378"><ele>377.6666666666667</ele><time>2026-04-11T17:21:20.35Z</time></trkpt><trkpt lat="42.6569183" lon="12.1461245"><ele>378.0</ele><time>2026-04-11T17:21:21.358Z</time></trkpt><trkpt lat="42.6568223" lon="12.1459121"><ele>378.3333333333333</ele><time>2026-04-11T17:21:22.355Z</time></trkpt><trkpt lat="42.6567313" lon="12.1457164"><ele>378.66666666666663</ele><time>2026-04-11T17:21:23.349Z</time></trkpt><trkpt lat="42.6566341" lon="12.1455385"><ele>379.0</ele><time>2026-04-11T17:21:24.336Z</time></trkpt><trkpt lat="42.6565242" lon="12.1453668"><ele>379.0</ele><time>2026-04-11T17:21:25.346Z</time></trkpt><trkpt lat="42.6563927" lon="12.1452069"><ele>379.0</ele><time>2026-04-11T17:21:26.343Z</time></trkpt><trkpt lat="42.6562406" lon="12.1450509"><ele>379.0</ele><time>2026-04-11T17:21:27.357Z</time></trkpt><trkpt lat="42.6560898" lon="12.1448915"><ele>379.3333333333333</ele><time>2026-04-11T17:21:28.351Z</time></trkpt><trkpt lat="42.6559348" lon="12.1447249"><ele>379.6666666666667</ele><time>2026-04-11T17:21:29.346Z</time></trkpt><trkpt lat="42.6557786" lon="12.1445519"><ele>380.0</ele><time>2026-04-11T17:21:30.344Z</time></trkpt><trkpt lat="42.6556235" lon="12.1443797"><ele>380.0</ele><time>2026-04-11T17:21:31.347Z</time></trkpt><trkpt lat="42.6554686" lon="12.1442052"><ele>380.0</ele><time>2026-04-11T17:21:32.34Z</time></trkpt><trkpt lat="42.6553109" lon="12.1440285"><ele>380.0</ele><time>2026-04-11T17:21:33.359Z</time></trkpt><trkpt lat="42.6551538" lon="12.1438525"><ele>381.0</ele><time>2026-04-11T17:21:34.325Z</time></trkpt><trkpt lat="42.6549984" lon="12.1436735"><ele>382.0</ele><time>2026-04-11T17:21:35.352Z</time></trkpt><trkpt lat="42.6548401" lon="12.1434986"><ele>383.0</ele><time>2026-04-11T17:21:36.349Z</time></trkpt><trkpt lat="42.6546831" lon="12.1433238"><ele>382.6666666666667</ele><time>2026-04-11T17:21:37.346Z</time></trkpt><trkpt lat="42.6545273" lon="12.1431502"><ele>382.3333333333333</ele><time>2026-04-11T17:21:38.357Z</time></trkpt><trkpt lat="42.6543741" lon="12.1429795"><ele>382.0</ele><time>2026-04-11T17:21:39.334Z</time></trkpt><trkpt lat="42.6542221" lon="12.1428063"><ele>382.66666666666663</ele><time>2026-04-11T17:21:40.361Z</time></trkpt><trkpt lat="42.6540677" lon="12.1426366"><ele>383.3333333333333</ele><time>2026-04-11T17:21:41.342Z</time></trkpt><trkpt lat="42.6539134" lon="12.1424687"><ele>384.0</ele><time>2026-04-11T17:21:42.336Z</time></trkpt><trkpt lat="42.6537614" lon="12.142298"><ele>384.66666666666663</ele><time>2026-04-11T17:21:43.344Z</time></trkpt><trkpt lat="42.6536082" lon="12.1421257"><ele>385.3333333333333</ele><time>2026-04-11T17:21:44.344Z</time></trkpt><trkpt lat="42.653454" lon="12.1419508"><ele>386.0</ele><time>2026-04-11T17:21:45.325Z</time></trkpt><trkpt lat="42.6533035" lon="12.1417787"><ele>386.0</ele><time>2026-04-11T17:21:46.354Z</time></trkpt><trkpt lat="42.6531505" lon="12.1416077"><ele>386.0</ele><time>2026-04-11T17:21:47.35Z</time></trkpt><trkpt lat="42.652996" lon="12.1414373"><ele>386.0</ele><time>2026-04-11T17:21:48.346Z</time></trkpt><trkpt lat="42.652844" lon="12.1412664"><ele>386.66666666666663</ele><time>2026-04-11T17:21:49.335Z</time></trkpt><trkpt lat="42.6526891" lon="12.1410987"><ele>387.33333333333337</ele><time>2026-04-11T17:21:50.343Z</time></trkpt><trkpt lat="42.6525344" lon="12.1409263"><ele>388.0</ele><time>2026-04-11T17:21:51.348Z</time></trkpt><trkpt lat="42.6523795" lon="12.1407499"><ele>388.6666666666667</ele><time>2026-04-11T17:21:52.349Z</time></trkpt><trkpt lat="42.6522314" lon="12.1405807"><ele>389.33333333333337</ele><time>2026-04-11T17:21:53.353Z</time></trkpt><trkpt lat="42.6520933" lon="12.1404186"><ele>390.0</ele><time>2026-04-11T17:21:54.347Z</time></trkpt><trkpt lat="42.6519584" lon="12.1402629"><ele>390.33333333333337</ele><time>2026-04-11T17:21:55.352Z</time></trkpt><trkpt lat="42.6518236" lon="12.1400915"><ele>390.6666666666667</ele><time>2026-04-11T17:21:56.32Z</time></trkpt><trkpt lat="42.651696" lon="12.1399005"><ele>391.0</ele><time>2026-04-11T17:21:57.35Z</time></trkpt><trkpt lat="42.6515752" lon="12.1396951"><ele>391.6666666666667</ele><time>2026-04-11T17:21:58.338Z</time></trkpt><trkpt lat="42.6514559" lon="12.1394793"><ele>392.33333333333337</ele><time>2026-04-11T17:21:59.343Z</time></trkpt><trkpt lat="42.651339" lon="12.1392656"><ele>393.0</ele><time>2026-04-11T17:22:00.323Z</time></trkpt><trkpt lat="42.6512062" lon="12.1390368"><ele>393.0</ele><time>2026-04-11T17:22:01.349Z</time></trkpt><trkpt lat="42.6510771" lon="12.1388136"><ele>393.0</ele><time>2026-04-11T17:22:02.348Z</time></trkpt><trkpt lat="42.6509471" lon="12.1385923"><ele>393.0</ele><time>2026-04-11T17:22:03.347Z</time></trkpt><trkpt lat="42.6508199" lon="12.1383768"><ele>393.0</ele><time>2026-04-11T17:22:04.334Z</time></trkpt><trkpt lat="42.6506908" lon="12.1381514"><ele>393.0</ele><time>2026-04-11T17:22:05.341Z</time></trkpt><trkpt lat="42.6505592" lon="12.1379214"><ele>393.0</ele><time>2026-04-11T17:22:06.343Z</time></trkpt><trkpt lat="42.650426" lon="12.1376867"><ele>393.0</ele><time>2026-04-11T17:22:07.352Z</time></trkpt><trkpt lat="42.6502974" lon="12.1374473"><ele>393.0</ele><time>2026-04-11T17:22:08.358Z</time></trkpt><trkpt lat="42.6501574" lon="12.1372115"><ele>393.0</ele><time>2026-04-11T17:22:09.353Z</time></trkpt><trkpt lat="42.6500194" lon="12.1369768"><ele>393.0</ele><time>2026-04-11T17:22:10.347Z</time></trkpt><trkpt lat="42.6498829" lon="12.1367404"><ele>393.0</ele><time>2026-04-11T17:22:11.353Z</time></trkpt><trkpt lat="42.6497517" lon="12.1365186"><ele>393.0</ele><time>2026-04-11T17:22:12.342Z</time></trkpt><trkpt lat="42.6496304" lon="12.1363055"><ele>393.66666666666663</ele><time>2026-04-11T17:22:13.36Z</time></trkpt><trkpt lat="42.6495188" lon="12.1360989"><ele>394.3333333333333</ele><time>2026-04-11T17:22:14.344Z</time></trkpt><trkpt lat="42.6494075" lon="12.1359042"><ele>395.0</ele><time>2026-04-11T17:22:15.355Z</time></trkpt><trkpt lat="42.6492984" lon="12.1357133"><ele>395.66666666666663</ele><time>2026-04-11T17:22:16.327Z</time></trkpt><trkpt lat="42.6491884" lon="12.1355384"><ele>396.33333333333337</ele><time>2026-04-11T17:22:17.35Z</time></trkpt><trkpt lat="42.6490837" lon="12.1353892"><ele>397.0</ele><time>2026-04-11T17:22:18.349Z</time></trkpt><trkpt lat="42.6489554" lon="12.1352818"><ele>397.0</ele><time>2026-04-11T17:22:19.359Z</time></trkpt><trkpt lat="42.6488095" lon="12.1352283"><ele>397.0</ele><time>2026-04-11T17:22:20.345Z</time></trkpt><trkpt lat="42.6486501" lon="12.1351901"><ele>397.0</ele><time>2026-04-11T17:22:21.329Z</time></trkpt><trkpt lat="42.648492" lon="12.1351322"><ele>397.6666666666667</ele><time>2026-04-11T17:22:22.35Z</time></trkpt><trkpt lat="42.6483569" lon="12.1350328"><ele>398.33333333333337</ele><time>2026-04-11T17:22:23.349Z</time></trkpt><trkpt lat="42.6482167" lon="12.1348778"><ele>399.0</ele><time>2026-04-11T17:22:24.332Z</time></trkpt><trkpt lat="42.6480857" lon="12.1346882"><ele>399.0</ele><time>2026-04-11T17:22:25.35Z</time></trkpt><trkpt lat="42.6479502" lon="12.1344868"><ele>399.0</ele><time>2026-04-11T17:22:26.35Z</time></trkpt><trkpt lat="42.647805" lon="12.1342764"><ele>399.0</ele><time>2026-04-11T17:22:27.366Z</time></trkpt><trkpt lat="42.6476546" lon="12.134072"><ele>399.33333333333337</ele><time>2026-04-11T17:22:28.342Z</time></trkpt><trkpt lat="42.6475054" lon="12.1338668"><ele>399.6666666666667</ele><time>2026-04-11T17:22:29.328Z</time></trkpt><trkpt lat="42.6473468" lon="12.1336568"><ele>400.0</ele><time>2026-04-11T17:22:30.345Z</time></trkpt><trkpt lat="42.647191" lon="12.1334409"><ele>400.0</ele><time>2026-04-11T17:22:31.345Z</time></trkpt><trkpt lat="42.6470404" lon="12.1332272"><ele>400.0</ele><time>2026-04-11T17:22:32.34Z</time></trkpt><trkpt lat="42.6468899" lon="12.1330163"><ele>400.0</ele><time>2026-04-11T17:22:33.349Z</time></trkpt><trkpt lat="42.6467415" lon="12.1328097"><ele>401.0</ele><time>2026-04-11T17:22:34.331Z</time></trkpt><trkpt lat="42.6465935" lon="12.1326054"><ele>402.0</ele><time>2026-04-11T17:22:35.356Z</time></trkpt><trkpt lat="42.6464473" lon="12.132401"><ele>403.0</ele><time>2026-04-11T17:22:36.362Z</time></trkpt><trkpt lat="42.6463056" lon="12.132195"><ele>403.6666666666667</ele><time>2026-04-11T17:22:37.349Z</time></trkpt><trkpt lat="42.6461663" lon="12.1319905"><ele>404.33333333333337</ele><time>2026-04-11T17:22:38.322Z</time></trkpt><trkpt lat="42.6460303" lon="12.1317852"><ele>405.0</ele><time>2026-04-11T17:22:39.332Z</time></trkpt><trkpt lat="42.645894" lon="12.1315819"><ele>406.33333333333337</ele><time>2026-04-11T17:22:40.336Z</time></trkpt><trkpt lat="42.6457599" lon="12.1313823"><ele>407.6666666666667</ele><time>2026-04-11T17:22:41.343Z</time></trkpt><trkpt lat="42.6456267" lon="12.1311855"><ele>409.0</ele><time>2026-04-11T17:22:42.346Z</time></trkpt><trkpt lat="42.6454942" lon="12.1309891"><ele>409.0</ele><time>2026-04-11T17:22:43.353Z</time></trkpt><trkpt lat="42.6453644" lon="12.130792"><ele>409.0</ele><time>2026-04-11T17:22:44.358Z</time></trkpt><trkpt lat="42.6452331" lon="12.1306039"><ele>409.0</ele><time>2026-04-11T17:22:45.345Z</time></trkpt><trkpt lat="42.6451076" lon="12.1304205"><ele>410.0</ele><time>2026-04-11T17:22:46.34Z</time></trkpt><trkpt lat="42.6449869" lon="12.1302396"><ele>411.0</ele><time>2026-04-11T17:22:47.352Z</time></trkpt><trkpt lat="42.6448666" lon="12.1300587"><ele>412.0</ele><time>2026-04-11T17:22:48.327Z</time></trkpt><trkpt lat="42.6447472" lon="12.129879"><ele>412.0</ele><time>2026-04-11T17:22:49.352Z</time></trkpt><trkpt lat="42.6446316" lon="12.1296921"><ele>412.0</ele><time>2026-04-11T17:22:50.347Z</time></trkpt><trkpt lat="42.6445209" lon="12.1294977"><ele>412.0</ele><time>2026-04-11T17:22:51.337Z</time></trkpt><trkpt lat="42.6444109" lon="12.1292958"><ele>413.6666666666667</ele><time>2026-04-11T17:22:52.346Z</time></trkpt><trkpt lat="42.6443006" lon="12.129102"><ele>415.33333333333337</ele><time>2026-04-11T17:22:53.343Z</time></trkpt><trkpt lat="42.6441914" lon="12.1289085"><ele>417.0</ele><time>2026-04-11T17:22:54.351Z</time></trkpt><trkpt lat="42.6440806" lon="12.1287065"><ele>417.33333333333337</ele><time>2026-04-11T17:22:55.343Z</time></trkpt><trkpt lat="42.6439639" lon="12.1284994"><ele>417.6666666666667</ele><time>2026-04-11T17:22:56.348Z</time></trkpt><trkpt lat="42.6438471" lon="12.1282921"><ele>418.0</ele><time>2026-04-11T17:22:57.364Z</time></trkpt><trkpt lat="42.6437351" lon="12.1280816"><ele>418.6666666666667</ele><time>2026-04-11T17:22:58.334Z</time></trkpt><trkpt lat="42.643628" lon="12.1278713"><ele>419.33333333333337</ele><time>2026-04-11T17:22:59.35Z</time></trkpt><trkpt lat="42.6435218" lon="12.1276613"><ele>420.0</ele><time>2026-04-11T17:23:00.334Z</time></trkpt><trkpt lat="42.6434156" lon="12.1274501"><ele>420.66666666666663</ele><time>2026-04-11T17:23:01.348Z</time></trkpt><trkpt lat="42.6433094" lon="12.1272397"><ele>421.3333333333333</ele><time>2026-04-11T17:23:02.358Z</time></trkpt><trkpt lat="42.6432001" lon="12.1270254"><ele>422.0</ele><time>2026-04-11T17:23:03.351Z</time></trkpt><trkpt lat="42.6430908" lon="12.126813"><ele>422.0</ele><time>2026-04-11T17:23:04.349Z</time></trkpt><trkpt lat="42.6429851" lon="12.1265967"><ele>422.0</ele><time>2026-04-11T17:23:05.349Z</time></trkpt><trkpt lat="42.6428787" lon="12.1263838"><ele>422.0</ele><time>2026-04-11T17:23:06.355Z</time></trkpt><trkpt lat="42.6427749" lon="12.1261766"><ele>423.0</ele><time>2026-04-11T17:23:07.358Z</time></trkpt><trkpt lat="42.6426728" lon="12.1259768"><ele>424.0</ele><time>2026-04-11T17:23:08.356Z</time></trkpt><trkpt lat="42.6425726" lon="12.1257787"><ele>425.0</ele><time>2026-04-11T17:23:09.346Z</time></trkpt><trkpt lat="42.6424821" lon="12.1255828"><ele>425.66666666666663</ele><time>2026-04-11T17:23:10.344Z</time></trkpt><trkpt lat="42.6424092" lon="12.1253756"><ele>426.33333333333337</ele><time>2026-04-11T17:23:11.35Z</time></trkpt><trkpt lat="42.6423734" lon="12.1251371"><ele>427.0</ele><time>2026-04-11T17:23:12.337Z</time></trkpt><trkpt lat="42.6423508" lon="12.1248946"><ele>428.0</ele><time>2026-04-11T17:23:13.338Z</time></trkpt><trkpt lat="42.6423366" lon="12.124637"><ele>429.0</ele><time>2026-04-11T17:23:14.356Z</time></trkpt><trkpt lat="42.6423183" lon="12.1243726"><ele>430.0</ele><time>2026-04-11T17:23:15.362Z</time></trkpt><trkpt lat="42.6423044" lon="12.1240982"><ele>431.0</ele><time>2026-04-11T17:23:16.351Z</time></trkpt><trkpt lat="42.6422868" lon="12.1238152"><ele>432.0</ele><time>2026-04-11T17:23:17.345Z</time></trkpt><trkpt lat="42.6422699" lon="12.123534"><ele>433.0</ele><time>2026-04-11T17:23:18.349Z</time></trkpt><trkpt lat="42.6422516" lon="12.1232534"><ele>434.0</ele><time>2026-04-11T17:23:19.35Z</time></trkpt><trkpt lat="42.6422294" lon="12.1229721"><ele>435.0</ele><time>2026-04-11T17:23:20.338Z</time></trkpt><trkpt lat="42.6422123" lon="12.122694"><ele>436.0</ele><time>2026-04-11T17:23:21.337Z</time></trkpt><trkpt lat="42.6421992" lon="12.1224365"><ele>436.33333333333337</ele><time>2026-04-11T17:23:22.35Z</time></trkpt><trkpt lat="42.6421807" lon="12.1221789"><ele>436.66666666666663</ele><time>2026-04-11T17:23:23.347Z</time></trkpt><trkpt lat="42.6421606" lon="12.1219236"><ele>437.0</ele><time>2026-04-11T17:23:24.348Z</time></trkpt><trkpt lat="42.6421435" lon="12.1216691"><ele>437.0</ele><time>2026-04-11T17:23:25.361Z</time></trkpt><trkpt lat="42.642132" lon="12.1214187"><ele>437.0</ele><time>2026-04-11T17:23:26.357Z</time></trkpt><trkpt lat="42.6421107" lon="12.1211617"><ele>437.0</ele><time>2026-04-11T17:23:27.356Z</time></trkpt><trkpt lat="42.6420844" lon="12.1209201"><ele>437.66666666666663</ele><time>2026-04-11T17:23:28.349Z</time></trkpt><trkpt lat="42.6420475" lon="12.1206771"><ele>438.33333333333337</ele><time>2026-04-11T17:23:29.344Z</time></trkpt><trkpt lat="42.6419885" lon="12.1204408"><ele>439.0</ele><time>2026-04-11T17:23:30.337Z</time></trkpt><trkpt lat="42.6419181" lon="12.1202105"><ele>440.0</ele><time>2026-04-11T17:23:31.353Z</time></trkpt><trkpt lat="42.6418399" lon="12.1199781"><ele>441.0</ele><time>2026-04-11T17:23:32.344Z</time></trkpt><trkpt lat="42.6417583" lon="12.1197479"><ele>442.0</ele><time>2026-04-11T17:23:33.346Z</time></trkpt><trkpt lat="42.6416789" lon="12.119531"><ele>442.33333333333337</ele><time>2026-04-11T17:23:34.344Z</time></trkpt><trkpt lat="42.6416043" lon="12.1193343"><ele>442.66666666666663</ele><time>2026-04-11T17:23:35.355Z</time></trkpt><trkpt lat="42.641537" lon="12.1191548"><ele>443.0</ele><time>2026-04-11T17:23:36.357Z</time></trkpt><trkpt lat="42.6414754" lon="12.1189843"><ele>443.2</ele><time>2026-04-11T17:23:37.363Z</time></trkpt><trkpt lat="42.6414222" lon="12.1188394"><ele>443.4</ele><time>2026-04-11T17:23:38.335Z</time></trkpt><trkpt lat="42.6413674" lon="12.1186994"><ele>443.59999999999997</ele><time>2026-04-11T17:23:39.336Z</time></trkpt><trkpt lat="42.6413192" lon="12.118567"><ele>443.79999999999995</ele><time>2026-04-11T17:23:40.358Z</time></trkpt><trkpt lat="42.6412716" lon="12.1184425"><ele>444.0</ele><time>2026-04-11T17:23:41.357Z</time></trkpt><trkpt lat="42.6412249" lon="12.1183121"><ele>444.3333333333333</ele><time>2026-04-11T17:23:42.352Z</time></trkpt><trkpt lat="42.6411801" lon="12.1181862"><ele>444.66666666666663</ele><time>2026-04-11T17:23:43.352Z</time></trkpt><trkpt lat="42.6411344" lon="12.1180668"><ele>445.0</ele><time>2026-04-11T17:23:44.353Z</time></trkpt><trkpt lat="42.6411032" lon="12.1179663"><ele>445.3333333333333</ele><time>2026-04-11T17:23:45.35Z</time></trkpt><trkpt lat="42.6410827" lon="12.1178643"><ele>445.66666666666663</ele><time>2026-04-11T17:23:46.356Z</time></trkpt><trkpt lat="42.6410775" lon="12.117769"><ele>446.0</ele><time>2026-04-11T17:23:47.35Z</time></trkpt><trkpt lat="42.6411133" lon="12.1176429"><ele>445.99999999999994</ele><time>2026-04-11T17:23:49.335Z</time></trkpt><trkpt lat="42.6411454" lon="12.1175438"><ele>446.0</ele><time>2026-04-11T17:23:51.36Z</time></trkpt><trkpt lat="42.6411636" lon="12.1174515"><ele>446.0</ele><time>2026-04-11T17:24:21.342Z</time></trkpt><trkpt lat="42.6412103" lon="12.1173411"><ele>446.0</ele><time>2026-04-11T17:24:24.337Z</time></trkpt><trkpt lat="42.6412761" lon="12.1172117"><ele>445.99999999999994</ele><time>2026-04-11T17:24:26.349Z</time></trkpt><trkpt lat="42.64132" lon="12.1171081"><ele>446.0</ele><time>2026-04-11T17:24:27.353Z</time></trkpt><trkpt lat="42.6413675" lon="12.1169994"><ele>446.5</ele><time>2026-04-11T17:24:28.342Z</time></trkpt><trkpt lat="42.6414099" lon="12.1168772"><ele>447.0</ele><time>2026-04-11T17:24:29.346Z</time></trkpt><trkpt lat="42.6414578" lon="12.1167466"><ele>447.5</ele><time>2026-04-11T17:24:30.35Z</time></trkpt><trkpt lat="42.6414944" lon="12.1165802"><ele>448.0</ele><time>2026-04-11T17:24:31.353Z</time></trkpt><trkpt lat="42.6415255" lon="12.1164141"><ele>448.5</ele><time>2026-04-11T17:24:32.356Z</time></trkpt><trkpt lat="42.6415508" lon="12.1162384"><ele>449.0</ele><time>2026-04-11T17:24:33.363Z</time></trkpt><trkpt lat="42.6415746" lon="12.1160526"><ele>449.5</ele><time>2026-04-11T17:24:34.344Z</time></trkpt><trkpt lat="42.6415951" lon="12.1158611"><ele>450.0</ele><time>2026-04-11T17:24:35.353Z</time></trkpt><trkpt lat="42.6416265" lon="12.1156667"><ele>451.0</ele><time>2026-04-11T17:24:36.353Z</time></trkpt><trkpt lat="42.6416747" lon="12.115471"><ele>452.0</ele><time>2026-04-11T17:24:37.359Z</time></trkpt><trkpt lat="42.6417401" lon="12.1152741"><ele>453.0</ele><time>2026-04-11T17:24:38.35Z</time></trkpt><trkpt lat="42.6418149" lon="12.1150829"><ele>453.66666666666663</ele><time>2026-04-11T17:24:39.354Z</time></trkpt><trkpt lat="42.6418918" lon="12.1148879"><ele>454.3333333333333</ele><time>2026-04-11T17:24:40.329Z</time></trkpt><trkpt lat="42.6419623" lon="12.114694"><ele>455.0</ele><time>2026-04-11T17:24:41.34Z</time></trkpt><trkpt lat="42.6420177" lon="12.1144971"><ele>455.0</ele><time>2026-04-11T17:24:42.361Z</time></trkpt><trkpt lat="42.6420442" lon="12.1143038"><ele>455.0</ele><time>2026-04-11T17:24:43.344Z</time></trkpt><trkpt lat="42.6420287" lon="12.1140859"><ele>455.0</ele><time>2026-04-11T17:24:44.343Z</time></trkpt><trkpt lat="42.6419843" lon="12.1138702"><ele>455.3333333333333</ele><time>2026-04-11T17:24:45.353Z</time></trkpt><trkpt lat="42.6419326" lon="12.1136518"><ele>455.66666666666663</ele><time>2026-04-11T17:24:46.344Z</time></trkpt><trkpt lat="42.6418722" lon="12.1134395"><ele>456.0</ele><time>2026-04-11T17:24:47.34Z</time></trkpt><trkpt lat="42.6418127" lon="12.1132396"><ele>456.33333333333337</ele><time>2026-04-11T17:24:48.348Z</time></trkpt><trkpt lat="42.641737" lon="12.1130442"><ele>456.6666666666667</ele><time>2026-04-11T17:24:49.35Z</time></trkpt><trkpt lat="42.6416606" lon="12.1128399"><ele>457.0</ele><time>2026-04-11T17:24:50.375Z</time></trkpt><trkpt lat="42.6415964" lon="12.1126331"><ele>457.0</ele><time>2026-04-11T17:24:51.358Z</time></trkpt><trkpt lat="42.6415609" lon="12.1124154"><ele>457.0</ele><time>2026-04-11T17:24:52.354Z</time></trkpt><trkpt lat="42.6415385" lon="12.1121919"><ele>457.0</ele><time>2026-04-11T17:24:53.338Z</time></trkpt><trkpt lat="42.6415324" lon="12.1119621"><ele>457.33333333333337</ele><time>2026-04-11T17:24:54.346Z</time></trkpt><trkpt lat="42.6415269" lon="12.1117285"><ele>457.66666666666663</ele><time>2026-04-11T17:24:55.343Z</time></trkpt><trkpt lat="42.6415116" lon="12.1114903"><ele>458.0</ele><time>2026-04-11T17:24:56.354Z</time></trkpt><trkpt lat="42.6414974" lon="12.1112535"><ele>458.66666666666663</ele><time>2026-04-11T17:24:57.337Z</time></trkpt><trkpt lat="42.6414865" lon="12.1110179"><ele>459.33333333333337</ele><time>2026-04-11T17:24:58.35Z</time></trkpt><trkpt lat="42.6414703" lon="12.1107831"><ele>460.0</ele><time>2026-04-11T17:24:59.354Z</time></trkpt><trkpt lat="42.6414617" lon="12.1105519"><ele>461.33333333333337</ele><time>2026-04-11T17:25:00.357Z</time></trkpt><trkpt lat="42.6414544" lon="12.1103169"><ele>462.66666666666663</ele><time>2026-04-11T17:25:01.35Z</time></trkpt><trkpt lat="42.6414474" lon="12.11008"><ele>464.0</ele><time>2026-04-11T17:25:02.345Z</time></trkpt><trkpt lat="42.6414323" lon="12.1098414"><ele>464.0</ele><time>2026-04-11T17:25:03.351Z</time></trkpt><trkpt lat="42.6414207" lon="12.1096038"><ele>464.0</ele><time>2026-04-11T17:25:04.348Z</time></trkpt><trkpt lat="42.6414078" lon="12.1093576"><ele>464.0</ele><time>2026-04-11T17:25:05.346Z</time></trkpt><trkpt lat="42.6413959" lon="12.1091141"><ele>464.66666666666663</ele><time>2026-04-11T17:25:06.347Z</time></trkpt><trkpt lat="42.6413868" lon="12.1088747"><ele>465.33333333333337</ele><time>2026-04-11T17:25:07.366Z</time></trkpt><trkpt lat="42.641378" lon="12.1086319"><ele>466.0</ele><time>2026-04-11T17:25:08.343Z</time></trkpt><trkpt lat="42.6413692" lon="12.1083899"><ele>466.33333333333337</ele><time>2026-04-11T17:25:09.352Z</time></trkpt><trkpt lat="42.6413583" lon="12.108144"><ele>466.66666666666663</ele><time>2026-04-11T17:25:10.352Z</time></trkpt><trkpt lat="42.6413459" lon="12.1078995"><ele>467.0</ele><time>2026-04-11T17:25:11.342Z</time></trkpt><trkpt lat="42.6413307" lon="12.107649"><ele>467.66666666666663</ele><time>2026-04-11T17:25:12.349Z</time></trkpt><trkpt lat="42.6413119" lon="12.1074016"><ele>468.33333333333337</ele><time>2026-04-11T17:25:13.349Z</time></trkpt><trkpt lat="42.6412949" lon="12.1071521"><ele>469.0</ele><time>2026-04-11T17:25:14.356Z</time></trkpt><trkpt lat="42.6412689" lon="12.1069021"><ele>469.0</ele><time>2026-04-11T17:25:15.354Z</time></trkpt><trkpt lat="42.6412444" lon="12.1066556"><ele>469.0</ele><time>2026-04-11T17:25:16.346Z</time></trkpt><trkpt lat="42.6412143" lon="12.1064016"><ele>469.0</ele><time>2026-04-11T17:25:17.348Z</time></trkpt><trkpt lat="42.641179" lon="12.1061446"><ele>469.6666666666667</ele><time>2026-04-11T17:25:18.349Z</time></trkpt><trkpt lat="42.6411406" lon="12.1058842"><ele>470.33333333333337</ele><time>2026-04-11T17:25:19.342Z</time></trkpt><trkpt lat="42.6411092" lon="12.1056289"><ele>471.0</ele><time>2026-04-11T17:25:20.34Z</time></trkpt><trkpt lat="42.6410905" lon="12.1053643"><ele>471.33333333333337</ele><time>2026-04-11T17:25:21.35Z</time></trkpt><trkpt lat="42.6410898" lon="12.1050949"><ele>471.6666666666667</ele><time>2026-04-11T17:25:22.35Z</time></trkpt><trkpt lat="42.6411018" lon="12.1048331"><ele>472.0</ele><time>2026-04-11T17:25:23.349Z</time></trkpt><trkpt lat="42.6411201" lon="12.1045715"><ele>472.33333333333337</ele><time>2026-04-11T17:25:24.357Z</time></trkpt><trkpt lat="42.641137" lon="12.1043096"><ele>472.66666666666663</ele><time>2026-04-11T17:25:25.353Z</time></trkpt><trkpt lat="42.6411599" lon="12.1040536"><ele>473.0</ele><time>2026-04-11T17:25:26.34Z</time></trkpt><trkpt lat="42.6411737" lon="12.1037903"><ele>473.0</ele><time>2026-04-11T17:25:27.352Z</time></trkpt><trkpt lat="42.64119" lon="12.1035265"><ele>473.0</ele><time>2026-04-11T17:25:28.354Z</time></trkpt><trkpt lat="42.6412024" lon="12.1032658"><ele>473.0</ele><time>2026-04-11T17:25:29.347Z</time></trkpt><trkpt lat="42.6412102" lon="12.103007"><ele>473.3333333333333</ele><time>2026-04-11T17:25:30.35Z</time></trkpt><trkpt lat="42.6412141" lon="12.1027491"><ele>473.66666666666663</ele><time>2026-04-11T17:25:31.363Z</time></trkpt><trkpt lat="42.6412114" lon="12.1024947"><ele>474.0</ele><time>2026-04-11T17:25:32.351Z</time></trkpt><trkpt lat="42.6412006" lon="12.1022378"><ele>475.0</ele><time>2026-04-11T17:25:33.349Z</time></trkpt><trkpt lat="42.6411812" lon="12.1019819"><ele>476.0</ele><time>2026-04-11T17:25:34.338Z</time></trkpt><trkpt lat="42.6411532" lon="12.1017378"><ele>477.0</ele><time>2026-04-11T17:25:35.343Z</time></trkpt><trkpt lat="42.6411138" lon="12.1014961"><ele>478.33333333333337</ele><time>2026-04-11T17:25:36.347Z</time></trkpt><trkpt lat="42.6410706" lon="12.1012683"><ele>479.6666666666667</ele><time>2026-04-11T17:25:37.363Z</time></trkpt><trkpt lat="42.6410202" lon="12.1010369"><ele>481.0</ele><time>2026-04-11T17:25:38.338Z</time></trkpt><trkpt lat="42.640969" lon="12.1008027"><ele>482.0</ele><time>2026-04-11T17:25:39.333Z</time></trkpt><trkpt lat="42.6409107" lon="12.1005761"><ele>483.0</ele><time>2026-04-11T17:25:40.331Z</time></trkpt><trkpt lat="42.6408507" lon="12.1003485"><ele>484.0</ele><time>2026-04-11T17:25:41.348Z</time></trkpt><trkpt lat="42.6407728" lon="12.1001263"><ele>484.6666666666667</ele><time>2026-04-11T17:25:42.32Z</time></trkpt><trkpt lat="42.640703" lon="12.0998998"><ele>485.33333333333337</ele><time>2026-04-11T17:25:43.345Z</time></trkpt><trkpt lat="42.6406245" lon="12.0997"><ele>486.0</ele><time>2026-04-11T17:25:44.345Z</time></trkpt><trkpt lat="42.640544" lon="12.0995178"><ele>486.0</ele><time>2026-04-11T17:25:45.353Z</time></trkpt><trkpt lat="42.6404679" lon="12.0993514"><ele>486.0</ele><time>2026-04-11T17:25:46.347Z</time></trkpt><trkpt lat="42.6404018" lon="12.0991846"><ele>486.0</ele><time>2026-04-11T17:25:47.374Z</time></trkpt><trkpt lat="42.640352" lon="12.0990067"><ele>486.0</ele><time>2026-04-11T17:25:48.352Z</time></trkpt><trkpt lat="42.6403272" lon="12.0988156"><ele>486.6</ele><time>2026-04-11T17:25:49.348Z</time></trkpt><trkpt lat="42.6403263" lon="12.0986382"><ele>487.20000000000005</ele><time>2026-04-11T17:25:50.358Z</time></trkpt><trkpt lat="42.6403425" lon="12.0984815"><ele>487.79999999999995</ele><time>2026-04-11T17:25:51.355Z</time></trkpt><trkpt lat="42.6403663" lon="12.0983414"><ele>488.4</ele><time>2026-04-11T17:25:52.357Z</time></trkpt><trkpt lat="42.6403912" lon="12.098227"><ele>489.0</ele><time>2026-04-11T17:25:53.365Z</time></trkpt><trkpt lat="42.640414" lon="12.0981241"><ele>488.79999999999995</ele><time>2026-04-11T17:25:54.357Z</time></trkpt><trkpt lat="42.640428" lon="12.0980108"><ele>488.59999999999997</ele><time>2026-04-11T17:25:56.362Z</time></trkpt><trkpt lat="42.6403589" lon="12.0978714"><ele>488.4</ele><time>2026-04-11T17:25:59.362Z</time></trkpt><trkpt lat="42.6403001" lon="12.0978117"><ele>488.2</ele><time>2026-04-11T17:26:00.344Z</time></trkpt><trkpt lat="42.6402333" lon="12.0977491"><ele>488.0</ele><time>2026-04-11T17:26:01.347Z</time></trkpt><trkpt lat="42.6401582" lon="12.0976748"><ele>488.0</ele><time>2026-04-11T17:26:02.329Z</time></trkpt><trkpt lat="42.6400716" lon="12.0975981"><ele>488.0</ele><time>2026-04-11T17:26:03.351Z</time></trkpt><trkpt lat="42.6399692" lon="12.0975085"><ele>488.0</ele><time>2026-04-11T17:26:04.35Z</time></trkpt><trkpt lat="42.6398501" lon="12.0974012"><ele>488.0</ele><time>2026-04-11T17:26:05.343Z</time></trkpt><trkpt lat="42.6397316" lon="12.0972908"><ele>489.0</ele><time>2026-04-11T17:26:06.353Z</time></trkpt><trkpt lat="42.6395989" lon="12.0971718"><ele>490.0</ele><time>2026-04-11T17:26:07.352Z</time></trkpt><trkpt lat="42.6394587" lon="12.0970445"><ele>491.0</ele><time>2026-04-11T17:26:08.361Z</time></trkpt><trkpt lat="42.6393119" lon="12.096913"><ele>491.0</ele><time>2026-04-11T17:26:09.326Z</time></trkpt><trkpt lat="42.6391634" lon="12.0967805"><ele>491.0</ele><time>2026-04-11T17:26:10.354Z</time></trkpt><trkpt lat="42.63901" lon="12.0966467"><ele>491.0</ele><time>2026-04-11T17:26:11.359Z</time></trkpt><trkpt lat="42.6388572" lon="12.0965107"><ele>492.0</ele><time>2026-04-11T17:26:12.344Z</time></trkpt><trkpt lat="42.6387063" lon="12.0963723"><ele>493.0</ele><time>2026-04-11T17:26:13.362Z</time></trkpt><trkpt lat="42.6385615" lon="12.0962415"><ele>494.0</ele><time>2026-04-11T17:26:14.353Z</time></trkpt><trkpt lat="42.6384248" lon="12.0961233"><ele>495.0</ele><time>2026-04-11T17:26:15.334Z</time></trkpt><trkpt lat="42.6382886" lon="12.0960045"><ele>496.0</ele><time>2026-04-11T17:26:16.365Z</time></trkpt><trkpt lat="42.6381566" lon="12.095881"><ele>497.0</ele><time>2026-04-11T17:26:17.367Z</time></trkpt><trkpt lat="42.6380281" lon="12.0957629"><ele>497.25</ele><time>2026-04-11T17:26:18.351Z</time></trkpt><trkpt lat="42.637905" lon="12.0956523"><ele>497.5</ele><time>2026-04-11T17:26:19.361Z</time></trkpt><trkpt lat="42.6377874" lon="12.0955359"><ele>497.75</ele><time>2026-04-11T17:26:20.347Z</time></trkpt><trkpt lat="42.6376698" lon="12.0954143"><ele>498.0</ele><time>2026-04-11T17:26:21.363Z</time></trkpt><trkpt lat="42.6375597" lon="12.0952786"><ele>498.0</ele><time>2026-04-11T17:26:22.348Z</time></trkpt><trkpt lat="42.6374473" lon="12.0951406"><ele>498.0</ele><time>2026-04-11T17:26:23.337Z</time></trkpt><trkpt lat="42.637337" lon="12.0949888"><ele>498.0</ele><time>2026-04-11T17:26:24.35Z</time></trkpt><trkpt lat="42.6372221" lon="12.0948316"><ele>498.33333333333337</ele><time>2026-04-11T17:26:25.351Z</time></trkpt><trkpt lat="42.6371081" lon="12.0946761"><ele>498.6666666666667</ele><time>2026-04-11T17:26:26.348Z</time></trkpt><trkpt lat="42.636997" lon="12.0945256"><ele>499.0</ele><time>2026-04-11T17:26:27.349Z</time></trkpt><trkpt lat="42.6368903" lon="12.0943745"><ele>499.0</ele><time>2026-04-11T17:26:28.34Z</time></trkpt><trkpt lat="42.636794" lon="12.0942222"><ele>499.0</ele><time>2026-04-11T17:26:29.362Z</time></trkpt><trkpt lat="42.6367199" lon="12.0940858"><ele>499.0</ele><time>2026-04-11T17:26:30.352Z</time></trkpt><trkpt lat="42.6366811" lon="12.0939394"><ele>499.0</ele><time>2026-04-11T17:26:31.348Z</time></trkpt><trkpt lat="42.6366789" lon="12.0937944"><ele>499.5</ele><time>2026-04-11T17:26:32.342Z</time></trkpt><trkpt lat="42.6367201" lon="12.0936587"><ele>500.0</ele><time>2026-04-11T17:26:33.328Z</time></trkpt><trkpt lat="42.6367965" lon="12.0935196"><ele>500.5</ele><time>2026-04-11T17:26:34.36Z</time></trkpt><trkpt lat="42.6368937" lon="12.0933926"><ele>501.0</ele><time>2026-04-11T17:26:35.355Z</time></trkpt><trkpt lat="42.6370086" lon="12.0932761"><ele>503.0</ele><time>2026-04-11T17:26:36.345Z</time></trkpt><trkpt lat="42.6371285" lon="12.0931521"><ele>505.0</ele><time>2026-04-11T17:26:37.351Z</time></trkpt><trkpt lat="42.6372578" lon="12.0930133"><ele>507.0</ele><time>2026-04-11T17:26:38.35Z</time></trkpt><trkpt lat="42.6373972" lon="12.0928685"><ele>507.0</ele><time>2026-04-11T17:26:39.333Z</time></trkpt><trkpt lat="42.6375377" lon="12.0927198"><ele>507.0</ele><time>2026-04-11T17:26:40.343Z</time></trkpt><trkpt lat="42.6376812" lon="12.0925688"><ele>507.0</ele><time>2026-04-11T17:26:41.358Z</time></trkpt><trkpt lat="42.6378301" lon="12.0924186"><ele>507.66666666666663</ele><time>2026-04-11T17:26:42.352Z</time></trkpt><trkpt lat="42.6379763" lon="12.0922638"><ele>508.3333333333333</ele><time>2026-04-11T17:26:43.371Z</time></trkpt><trkpt lat="42.6381185" lon="12.0921258"><ele>509.0</ele><time>2026-04-11T17:26:44.349Z</time></trkpt><trkpt lat="42.6382561" lon="12.092004"><ele>509.0</ele><time>2026-04-11T17:26:45.345Z</time></trkpt><trkpt lat="42.6383972" lon="12.0918924"><ele>509.0</ele><time>2026-04-11T17:26:46.344Z</time></trkpt><trkpt lat="42.6385461" lon="12.0917758"><ele>509.0</ele><time>2026-04-11T17:26:47.359Z</time></trkpt><trkpt lat="42.6386914" lon="12.091664"><ele>508.66666666666663</ele><time>2026-04-11T17:26:48.351Z</time></trkpt><trkpt lat="42.6388356" lon="12.0915543"><ele>508.33333333333337</ele><time>2026-04-11T17:26:49.353Z</time></trkpt><trkpt lat="42.638982" lon="12.0914407"><ele>508.0</ele><time>2026-04-11T17:26:50.358Z</time></trkpt><trkpt lat="42.6391298" lon="12.0913271"><ele>508.0</ele><time>2026-04-11T17:26:51.352Z</time></trkpt><trkpt lat="42.6392775" lon="12.0912148"><ele>508.0</ele><time>2026-04-11T17:26:52.344Z</time></trkpt><trkpt lat="42.6394295" lon="12.0911001"><ele>508.0</ele><time>2026-04-11T17:26:53.339Z</time></trkpt><trkpt lat="42.6395823" lon="12.0909862"><ele>507.6666666666667</ele><time>2026-04-11T17:26:54.348Z</time></trkpt><trkpt lat="42.6397241" lon="12.0908668"><ele>507.33333333333337</ele><time>2026-04-11T17:26:55.357Z</time></trkpt><trkpt lat="42.6398592" lon="12.0907337"><ele>507.0</ele><time>2026-04-11T17:26:56.354Z</time></trkpt><trkpt lat="42.63998" lon="12.0905778"><ele>506.66666666666663</ele><time>2026-04-11T17:26:57.358Z</time></trkpt><trkpt lat="42.6400905" lon="12.0903953"><ele>506.3333333333333</ele><time>2026-04-11T17:26:58.362Z</time></trkpt><trkpt lat="42.640185" lon="12.0902039"><ele>506.0</ele><time>2026-04-11T17:26:59.356Z</time></trkpt><trkpt lat="42.6402726" lon="12.0899985"><ele>507.66666666666663</ele><time>2026-04-11T17:27:00.36Z</time></trkpt><trkpt lat="42.6403415" lon="12.0897762"><ele>509.33333333333337</ele><time>2026-04-11T17:27:01.348Z</time></trkpt><trkpt lat="42.6403935" lon="12.0895427"><ele>511.0</ele><time>2026-04-11T17:27:02.35Z</time></trkpt><trkpt lat="42.640421" lon="12.0893044"><ele>511.0</ele><time>2026-04-11T17:27:03.344Z</time></trkpt><trkpt lat="42.640432" lon="12.0890515"><ele>511.0</ele><time>2026-04-11T17:27:04.361Z</time></trkpt><trkpt lat="42.640442" lon="12.088791"><ele>511.0</ele><time>2026-04-11T17:27:05.355Z</time></trkpt><trkpt lat="42.64046" lon="12.0885255"><ele>511.0</ele><time>2026-04-11T17:27:06.351Z</time></trkpt><trkpt lat="42.6404784" lon="12.0882658"><ele>511.0</ele><time>2026-04-11T17:27:07.366Z</time></trkpt><trkpt lat="42.6404954" lon="12.088009"><ele>511.0</ele><time>2026-04-11T17:27:08.35Z</time></trkpt><trkpt lat="42.6405115" lon="12.0877572"><ele>511.0</ele><time>2026-04-11T17:27:09.363Z</time></trkpt><trkpt lat="42.6405292" lon="12.0875091"><ele>511.0</ele><time>2026-04-11T17:27:10.355Z</time></trkpt><trkpt lat="42.6405424" lon="12.0872607"><ele>511.0</ele><time>2026-04-11T17:27:11.36Z</time></trkpt><trkpt lat="42.6405592" lon="12.0870056"><ele>511.0</ele><time>2026-04-11T17:27:12.346Z</time></trkpt><trkpt lat="42.6405723" lon="12.086738"><ele>511.0</ele><time>2026-04-11T17:27:13.35Z</time></trkpt><trkpt lat="42.6405829" lon="12.0864643"><ele>511.0</ele><time>2026-04-11T17:27:14.377Z</time></trkpt><trkpt lat="42.6405944" lon="12.0861826"><ele>512.3333333333334</ele><time>2026-04-11T17:27:15.341Z</time></trkpt><trkpt lat="42.6406118" lon="12.0859"><ele>513.6666666666666</ele><time>2026-04-11T17:27:16.342Z</time></trkpt><trkpt lat="42.6406256" lon="12.085614"><ele>515.0</ele><time>2026-04-11T17:27:17.353Z</time></trkpt><trkpt lat="42.6406536" lon="12.08533"><ele>515.3333333333333</ele><time>2026-04-11T17:27:18.368Z</time></trkpt><trkpt lat="42.6406615" lon="12.0850664"><ele>515.6666666666666</ele><time>2026-04-11T17:27:19.354Z</time></trkpt><trkpt lat="42.6406763" lon="12.0848184"><ele>516.0</ele><time>2026-04-11T17:27:20.357Z</time></trkpt><trkpt lat="42.6406848" lon="12.0845668"><ele>514.6666666666666</ele><time>2026-04-11T17:27:21.333Z</time></trkpt><trkpt lat="42.6406988" lon="12.0843285"><ele>513.3333333333333</ele><time>2026-04-11T17:27:22.355Z</time></trkpt><trkpt lat="42.6407229" lon="12.0840844"><ele>512.0</ele><time>2026-04-11T17:27:23.352Z</time></trkpt><trkpt lat="42.6407722" lon="12.0838311"><ele>511.3333333333333</ele><time>2026-04-11T17:27:24.354Z</time></trkpt><trkpt lat="42.6408233" lon="12.0835662"><ele>510.66666666666663</ele><time>2026-04-11T17:27:25.35Z</time></trkpt><trkpt lat="42.6408703" lon="12.0833084"><ele>510.0</ele><time>2026-04-11T17:27:26.364Z</time></trkpt><trkpt lat="42.6409175" lon="12.0830548"><ele>510.0</ele><time>2026-04-11T17:27:27.346Z</time></trkpt><trkpt lat="42.6409605" lon="12.0827986"><ele>510.0</ele><time>2026-04-11T17:27:28.371Z</time></trkpt><trkpt lat="42.6410009" lon="12.0825452"><ele>510.0</ele><time>2026-04-11T17:27:29.351Z</time></trkpt><trkpt lat="42.641037" lon="12.0822942"><ele>510.0</ele><time>2026-04-11T17:27:30.353Z</time></trkpt><trkpt lat="42.6410599" lon="12.0820337"><ele>510.0</ele><time>2026-04-11T17:27:31.364Z</time></trkpt><trkpt lat="42.6410773" lon="12.0817712"><ele>510.0</ele><time>2026-04-11T17:27:32.363Z</time></trkpt><trkpt lat="42.6410928" lon="12.0815034"><ele>510.0</ele><time>2026-04-11T17:27:33.357Z</time></trkpt><trkpt lat="42.6411023" lon="12.0812255"><ele>510.0</ele><time>2026-04-11T17:27:34.35Z</time></trkpt><trkpt lat="42.641113" lon="12.0809462"><ele>510.0</ele><time>2026-04-11T17:27:35.333Z</time></trkpt><trkpt lat="42.6411228" lon="12.0806629"><ele>510.0</ele><time>2026-04-11T17:27:36.339Z</time></trkpt><trkpt lat="42.6411299" lon="12.0803865"><ele>510.0</ele><time>2026-04-11T17:27:37.352Z</time></trkpt><trkpt lat="42.6411435" lon="12.0801183"><ele>510.0</ele><time>2026-04-11T17:27:38.365Z</time></trkpt><trkpt lat="42.6411704" lon="12.0798544"><ele>510.33333333333337</ele><time>2026-04-11T17:27:39.344Z</time></trkpt><trkpt lat="42.6412084" lon="12.0795956"><ele>510.6666666666667</ele><time>2026-04-11T17:27:40.334Z</time></trkpt><trkpt lat="42.6412622" lon="12.0793317"><ele>511.0</ele><time>2026-04-11T17:27:41.33Z</time></trkpt><trkpt lat="42.6413289" lon="12.0790766"><ele>511.0</ele><time>2026-04-11T17:27:42.342Z</time></trkpt><trkpt lat="42.641397" lon="12.0788332"><ele>511.0</ele><time>2026-04-11T17:27:43.348Z</time></trkpt><trkpt lat="42.6414664" lon="12.0785893"><ele>511.0</ele><time>2026-04-11T17:27:44.328Z</time></trkpt><trkpt lat="42.6415358" lon="12.0783513"><ele>511.6666666666667</ele><time>2026-04-11T17:27:45.356Z</time></trkpt><trkpt lat="42.6416086" lon="12.0781146"><ele>512.3333333333334</ele><time>2026-04-11T17:27:46.338Z</time></trkpt><trkpt lat="42.6416819" lon="12.0778837"><ele>513.0</ele><time>2026-04-11T17:27:47.35Z</time></trkpt><trkpt lat="42.6417685" lon="12.0776652"><ele>513.0</ele><time>2026-04-11T17:27:48.362Z</time></trkpt><trkpt lat="42.6418626" lon="12.0774501"><ele>513.0</ele><time>2026-04-11T17:27:49.358Z</time></trkpt><trkpt lat="42.6419605" lon="12.0772352"><ele>513.0</ele><time>2026-04-11T17:27:50.344Z</time></trkpt><trkpt lat="42.6420621" lon="12.0770134"><ele>512.0</ele><time>2026-04-11T17:27:51.354Z</time></trkpt><trkpt lat="42.6421644" lon="12.0767856"><ele>511.0</ele><time>2026-04-11T17:27:52.342Z</time></trkpt><trkpt lat="42.6422634" lon="12.0765586"><ele>510.0</ele><time>2026-04-11T17:27:53.357Z</time></trkpt><trkpt lat="42.6423605" lon="12.0763479"><ele>510.0</ele><time>2026-04-11T17:27:54.365Z</time></trkpt><trkpt lat="42.6424581" lon="12.0761434"><ele>510.0</ele><time>2026-04-11T17:27:55.344Z</time></trkpt><trkpt lat="42.6425663" lon="12.0759416"><ele>510.0</ele><time>2026-04-11T17:27:56.348Z</time></trkpt><trkpt lat="42.6426819" lon="12.0757457"><ele>509.33333333333337</ele><time>2026-04-11T17:27:57.353Z</time></trkpt><trkpt lat="42.6428119" lon="12.0755597"><ele>508.6666666666667</ele><time>2026-04-11T17:27:58.344Z</time></trkpt><trkpt lat="42.6429559" lon="12.0753873"><ele>508.0</ele><time>2026-04-11T17:27:59.35Z</time></trkpt><trkpt lat="42.6431114" lon="12.0752295"><ele>508.0</ele><time>2026-04-11T17:28:00.359Z</time></trkpt><trkpt lat="42.6432668" lon="12.0750885"><ele>508.0</ele><time>2026-04-11T17:28:01.352Z</time></trkpt><trkpt lat="42.6434226" lon="12.0749427"><ele>508.0</ele><time>2026-04-11T17:28:02.358Z</time></trkpt><trkpt lat="42.6435684" lon="12.0748046"><ele>509.33333333333337</ele><time>2026-04-11T17:28:03.348Z</time></trkpt><trkpt lat="42.643707" lon="12.0746696"><ele>510.66666666666663</ele><time>2026-04-11T17:28:04.353Z</time></trkpt><trkpt lat="42.6438409" lon="12.074528"><ele>512.0</ele><time>2026-04-11T17:28:05.351Z</time></trkpt><trkpt lat="42.6439665" lon="12.0743642"><ele>512.0</ele><time>2026-04-11T17:28:06.356Z</time></trkpt><trkpt lat="42.6440669" lon="12.0741789"><ele>512.0</ele><time>2026-04-11T17:28:07.358Z</time></trkpt><trkpt lat="42.6441408" lon="12.0739732"><ele>512.0</ele><time>2026-04-11T17:28:08.336Z</time></trkpt><trkpt lat="42.6441802" lon="12.0737474"><ele>512.0</ele><time>2026-04-11T17:28:09.356Z</time></trkpt><trkpt lat="42.6441885" lon="12.0735139"><ele>512.0</ele><time>2026-04-11T17:28:10.351Z</time></trkpt><trkpt lat="42.6441551" lon="12.0732691"><ele>512.0</ele><time>2026-04-11T17:28:11.357Z</time></trkpt><trkpt lat="42.6440928" lon="12.0730137"><ele>511.3333333333333</ele><time>2026-04-11T17:28:12.349Z</time></trkpt><trkpt lat="42.6440185" lon="12.0727607"><ele>510.66666666666663</ele><time>2026-04-11T17:28:13.352Z</time></trkpt><trkpt lat="42.6439437" lon="12.0725026"><ele>510.0</ele><time>2026-04-11T17:28:14.325Z</time></trkpt><trkpt lat="42.6438864" lon="12.0722372"><ele>510.0</ele><time>2026-04-11T17:28:15.346Z</time></trkpt><trkpt lat="42.6438387" lon="12.0719685"><ele>510.0</ele><time>2026-04-11T17:28:16.337Z</time></trkpt><trkpt lat="42.6437935" lon="12.0717055"><ele>510.0</ele><time>2026-04-11T17:28:17.354Z</time></trkpt><trkpt lat="42.6437539" lon="12.0714605"><ele>510.0</ele><time>2026-04-11T17:28:18.355Z</time></trkpt><trkpt lat="42.6437179" lon="12.0712305"><ele>510.0</ele><time>2026-04-11T17:28:19.347Z</time></trkpt><trkpt lat="42.6436977" lon="12.0710036"><ele>510.0</ele><time>2026-04-11T17:28:20.335Z</time></trkpt><trkpt lat="42.6437014" lon="12.0707721"><ele>511.0</ele><time>2026-04-11T17:28:21.343Z</time></trkpt><trkpt lat="42.643734" lon="12.0705244"><ele>512.0</ele><time>2026-04-11T17:28:22.348Z</time></trkpt><trkpt lat="42.6438008" lon="12.0702756"><ele>513.0</ele><time>2026-04-11T17:28:23.351Z</time></trkpt><trkpt lat="42.6438948" lon="12.070045"><ele>514.0</ele><time>2026-04-11T17:28:24.344Z</time></trkpt><trkpt lat="42.6439888" lon="12.0698175"><ele>515.0</ele><time>2026-04-11T17:28:25.345Z</time></trkpt><trkpt lat="42.6440622" lon="12.0695806"><ele>516.0</ele><time>2026-04-11T17:28:26.354Z</time></trkpt><trkpt lat="42.6441051" lon="12.0693334"><ele>516.0</ele><time>2026-04-11T17:28:27.343Z</time></trkpt><trkpt lat="42.6441235" lon="12.0690621"><ele>516.0</ele><time>2026-04-11T17:28:28.351Z</time></trkpt><trkpt lat="42.6441263" lon="12.0687856"><ele>516.0</ele><time>2026-04-11T17:28:29.354Z</time></trkpt><trkpt lat="42.644121" lon="12.0685188"><ele>516.3333333333334</ele><time>2026-04-11T17:28:30.344Z</time></trkpt><trkpt lat="42.64411" lon="12.0682514"><ele>516.6666666666667</ele><time>2026-04-11T17:28:31.345Z</time></trkpt><trkpt lat="42.6440928" lon="12.0679815"><ele>517.0</ele><time>2026-04-11T17:28:32.341Z</time></trkpt><trkpt lat="42.6440649" lon="12.067713"><ele>517.6666666666667</ele><time>2026-04-11T17:28:33.346Z</time></trkpt><trkpt lat="42.6440305" lon="12.0674407"><ele>518.3333333333334</ele><time>2026-04-11T17:28:34.353Z</time></trkpt><trkpt lat="42.6439898" lon="12.067165"><ele>519.0</ele><time>2026-04-11T17:28:35.346Z</time></trkpt><trkpt lat="42.6439468" lon="12.0668939"><ele>519.0</ele><time>2026-04-11T17:28:36.351Z</time></trkpt><trkpt lat="42.6439073" lon="12.0666226"><ele>519.0</ele><time>2026-04-11T17:28:37.338Z</time></trkpt><trkpt lat="42.6438658" lon="12.0663521"><ele>519.0</ele><time>2026-04-11T17:28:38.343Z</time></trkpt><trkpt lat="42.6438267" lon="12.0660794"><ele>519.3333333333334</ele><time>2026-04-11T17:28:39.335Z</time></trkpt><trkpt lat="42.643783" lon="12.0658041"><ele>519.6666666666667</ele><time>2026-04-11T17:28:40.334Z</time></trkpt><trkpt lat="42.6437408" lon="12.0655386"><ele>520.0</ele><time>2026-04-11T17:28:41.353Z</time></trkpt><trkpt lat="42.6436962" lon="12.0652722"><ele>520.0</ele><time>2026-04-11T17:28:42.35Z</time></trkpt><trkpt lat="42.6436534" lon="12.0650052"><ele>520.0</ele><time>2026-04-11T17:28:43.349Z</time></trkpt><trkpt lat="42.6436143" lon="12.0647405"><ele>520.0</ele><time>2026-04-11T17:28:44.342Z</time></trkpt><trkpt lat="42.6435735" lon="12.0644687"><ele>521.6666666666667</ele><time>2026-04-11T17:28:45.339Z</time></trkpt><trkpt lat="42.6435314" lon="12.0641978"><ele>523.3333333333334</ele><time>2026-04-11T17:28:46.345Z</time></trkpt><trkpt lat="42.6434965" lon="12.0639316"><ele>525.0</ele><time>2026-04-11T17:28:47.358Z</time></trkpt><trkpt lat="42.6434565" lon="12.0636736"><ele>525.0</ele><time>2026-04-11T17:28:48.346Z</time></trkpt><trkpt lat="42.6434226" lon="12.0634172"><ele>525.0</ele><time>2026-04-11T17:28:49.356Z</time></trkpt><trkpt lat="42.6434015" lon="12.0631744"><ele>525.0</ele><time>2026-04-11T17:28:50.351Z</time></trkpt><trkpt lat="42.6433909" lon="12.0629325"><ele>525.6666666666666</ele><time>2026-04-11T17:28:51.356Z</time></trkpt><trkpt lat="42.6433928" lon="12.0626814"><ele>526.3333333333333</ele><time>2026-04-11T17:28:52.33Z</time></trkpt><trkpt lat="42.6434057" lon="12.0624329"><ele>527.0</ele><time>2026-04-11T17:28:53.356Z</time></trkpt><trkpt lat="42.6434216" lon="12.0621812"><ele>527.6666666666666</ele><time>2026-04-11T17:28:54.349Z</time></trkpt><trkpt lat="42.6434368" lon="12.0619269"><ele>528.3333333333334</ele><time>2026-04-11T17:28:55.349Z</time></trkpt><trkpt lat="42.6434511" lon="12.0616759"><ele>529.0</ele><time>2026-04-11T17:28:56.35Z</time></trkpt><trkpt lat="42.6434616" lon="12.0614223"><ele>530.3333333333334</ele><time>2026-04-11T17:28:57.342Z</time></trkpt><trkpt lat="42.6434693" lon="12.0611688"><ele>531.6666666666666</ele><time>2026-04-11T17:28:58.345Z</time></trkpt><trkpt lat="42.6434593" lon="12.0609162"><ele>533.0</ele><time>2026-04-11T17:28:59.344Z</time></trkpt><trkpt lat="42.6434413" lon="12.0606604"><ele>533.6666666666666</ele><time>2026-04-11T17:29:00.345Z</time></trkpt><trkpt lat="42.6434144" lon="12.0604062"><ele>534.3333333333334</ele><time>2026-04-11T17:29:01.341Z</time></trkpt><trkpt lat="42.6433782" lon="12.0601518"><ele>535.0</ele><time>2026-04-11T17:29:02.349Z</time></trkpt><trkpt lat="42.6433483" lon="12.0598995"><ele>535.3333333333334</ele><time>2026-04-11T17:29:03.349Z</time></trkpt><trkpt lat="42.6433123" lon="12.0596389"><ele>535.6666666666666</ele><time>2026-04-11T17:29:04.329Z</time></trkpt><trkpt lat="42.6432766" lon="12.0593739"><ele>536.0</ele><time>2026-04-11T17:29:05.339Z</time></trkpt><trkpt lat="42.6432411" lon="12.0591105"><ele>535.0</ele><time>2026-04-11T17:29:06.346Z</time></trkpt><trkpt lat="42.643203" lon="12.0588429"><ele>534.0</ele><time>2026-04-11T17:29:07.353Z</time></trkpt><trkpt lat="42.6431644" lon="12.0585738"><ele>533.0</ele><time>2026-04-11T17:29:08.354Z</time></trkpt><trkpt lat="42.6431292" lon="12.0582997"><ele>531.6666666666666</ele><time>2026-04-11T17:29:09.344Z</time></trkpt><trkpt lat="42.6430924" lon="12.0580202"><ele>530.3333333333334</ele><time>2026-04-11T17:29:10.34Z</time></trkpt><trkpt lat="42.6430552" lon="12.0577411"><ele>529.0</ele><time>2026-04-11T17:29:11.356Z</time></trkpt><trkpt lat="42.6430173" lon="12.0574608"><ele>528.3333333333334</ele><time>2026-04-11T17:29:12.344Z</time></trkpt><trkpt lat="42.6429788" lon="12.0571791"><ele>527.6666666666666</ele><time>2026-04-11T17:29:13.343Z</time></trkpt><trkpt lat="42.6429406" lon="12.0568976"><ele>527.0</ele><time>2026-04-11T17:29:14.34Z</time></trkpt><trkpt lat="42.6429037" lon="12.0566184"><ele>526.6666666666666</ele><time>2026-04-11T17:29:15.354Z</time></trkpt><trkpt lat="42.6428647" lon="12.0563372"><ele>526.3333333333334</ele><time>2026-04-11T17:29:16.349Z</time></trkpt><trkpt lat="42.6428296" lon="12.0560577"><ele>526.0</ele><time>2026-04-11T17:29:17.356Z</time></trkpt><trkpt lat="42.6427895" lon="12.0557762"><ele>527.0</ele><time>2026-04-11T17:29:18.352Z</time></trkpt><trkpt lat="42.6427479" lon="12.0554969"><ele>528.0</ele><time>2026-04-11T17:29:19.35Z</time></trkpt><trkpt lat="42.6427065" lon="12.0552166"><ele>529.0</ele><time>2026-04-11T17:29:20.349Z</time></trkpt><trkpt lat="42.6426667" lon="12.054937"><ele>529.0</ele><time>2026-04-11T17:29:21.445Z</time></trkpt><trkpt lat="42.642594" lon="12.0543805"><ele>529.0</ele><time>2026-04-11T17:29:23.361Z</time></trkpt><trkpt lat="42.6425672" lon="12.0540925"><ele>529.0</ele><time>2026-04-11T17:29:24.341Z</time></trkpt><trkpt lat="42.642549" lon="12.0538049"><ele>529.0</ele><time>2026-04-11T17:29:25.362Z</time></trkpt><trkpt lat="42.6425362" lon="12.0535138"><ele>529.0</ele><time>2026-04-11T17:29:26.334Z</time></trkpt><trkpt lat="42.6425303" lon="12.0532224"><ele>529.0</ele><time>2026-04-11T17:29:27.345Z</time></trkpt><trkpt lat="42.642526" lon="12.0529217"><ele>529.0</ele><time>2026-04-11T17:29:28.345Z</time></trkpt><trkpt lat="42.6425186" lon="12.0526267"><ele>529.0</ele><time>2026-04-11T17:29:29.343Z</time></trkpt><trkpt lat="42.6425129" lon="12.0523287"><ele>529.3333333333334</ele><time>2026-04-11T17:29:30.345Z</time></trkpt><trkpt lat="42.6425061" lon="12.0520344"><ele>529.6666666666666</ele><time>2026-04-11T17:29:31.354Z</time></trkpt><trkpt lat="42.6425038" lon="12.0517405"><ele>530.0</ele><time>2026-04-11T17:29:32.344Z</time></trkpt><trkpt lat="42.6424944" lon="12.0514429"><ele>530.0</ele><time>2026-04-11T17:29:33.353Z</time></trkpt><trkpt lat="42.6424828" lon="12.0511389"><ele>530.0</ele><time>2026-04-11T17:29:34.356Z</time></trkpt><trkpt lat="42.6424754" lon="12.0508392"><ele>530.0</ele><time>2026-04-11T17:29:35.342Z</time></trkpt><trkpt lat="42.6424659" lon="12.0505339"><ele>530.5</ele><time>2026-04-11T17:29:36.349Z</time></trkpt><trkpt lat="42.6424561" lon="12.0502247"><ele>531.0</ele><time>2026-04-11T17:29:37.35Z</time></trkpt><trkpt lat="42.6424529" lon="12.0499104"><ele>533.0</ele><time>2026-04-11T17:29:38.347Z</time></trkpt><trkpt lat="42.6424488" lon="12.0495945"><ele>535.0</ele><time>2026-04-11T17:29:39.334Z</time></trkpt><trkpt lat="42.6424441" lon="12.0492839"><ele>536.6666666666667</ele><time>2026-04-11T17:29:40.326Z</time></trkpt><trkpt lat="42.6424389" lon="12.0489783"><ele>538.3333333333334</ele><time>2026-04-11T17:29:41.361Z</time></trkpt><trkpt lat="42.6424355" lon="12.048675"><ele>540.0</ele><time>2026-04-11T17:29:42.345Z</time></trkpt><trkpt lat="42.6424293" lon="12.0483674"><ele>542.3333333333334</ele><time>2026-04-11T17:29:43.345Z</time></trkpt><trkpt lat="42.64242" lon="12.0480677"><ele>544.6666666666667</ele><time>2026-04-11T17:29:44.347Z</time></trkpt><trkpt lat="42.6424051" lon="12.0477721"><ele>547.0</ele><time>2026-04-11T17:29:45.355Z</time></trkpt><trkpt lat="42.6423878" lon="12.0474868"><ele>547.3333333333334</ele><time>2026-04-11T17:29:46.352Z</time></trkpt><trkpt lat="42.6423707" lon="12.0472041"><ele>547.6666666666666</ele><time>2026-04-11T17:29:47.358Z</time></trkpt><trkpt lat="42.6423485" lon="12.0469267"><ele>548.0</ele><time>2026-04-11T17:29:48.351Z</time></trkpt><trkpt lat="42.6423277" lon="12.0466563"><ele>549.0</ele><time>2026-04-11T17:29:49.346Z</time></trkpt><trkpt lat="42.642309" lon="12.0463805"><ele>550.0</ele><time>2026-04-11T17:29:50.354Z</time></trkpt><trkpt lat="42.6422958" lon="12.0461"><ele>551.0</ele><time>2026-04-11T17:29:51.347Z</time></trkpt><trkpt lat="42.6422936" lon="12.0458211"><ele>552.0</ele><time>2026-04-11T17:29:52.339Z</time></trkpt><trkpt lat="42.6422967" lon="12.0455416"><ele>553.0</ele><time>2026-04-11T17:29:53.353Z</time></trkpt><trkpt lat="42.6423069" lon="12.0452595"><ele>554.0</ele><time>2026-04-11T17:29:54.347Z</time></trkpt><trkpt lat="42.6423107" lon="12.0449672"><ele>555.3333333333333</ele><time>2026-04-11T17:29:55.326Z</time></trkpt><trkpt lat="42.6423157" lon="12.044676"><ele>556.6666666666666</ele><time>2026-04-11T17:29:56.346Z</time></trkpt><trkpt lat="42.6423173" lon="12.0443861"><ele>558.0</ele><time>2026-04-11T17:29:57.342Z</time></trkpt><trkpt lat="42.6423158" lon="12.044093"><ele>559.3333333333334</ele><time>2026-04-11T17:29:58.353Z</time></trkpt><trkpt lat="42.6423146" lon="12.0437982"><ele>560.6666666666667</ele><time>2026-04-11T17:29:59.449Z</time></trkpt><trkpt lat="42.6423132" lon="12.0435102"><ele>562.0</ele><time>2026-04-11T17:30:00.358Z</time></trkpt><trkpt lat="42.6423137" lon="12.0432257"><ele>563.0</ele><time>2026-04-11T17:30:01.349Z</time></trkpt><trkpt lat="42.6423111" lon="12.0429414"><ele>564.0</ele><time>2026-04-11T17:30:02.351Z</time></trkpt><trkpt lat="42.642312" lon="12.0426632"><ele>565.0</ele><time>2026-04-11T17:30:03.361Z</time></trkpt><trkpt lat="42.6423098" lon="12.0423883"><ele>566.0</ele><time>2026-04-11T17:30:04.341Z</time></trkpt><trkpt lat="42.6423084" lon="12.0421094"><ele>567.0</ele><time>2026-04-11T17:30:05.34Z</time></trkpt><trkpt lat="42.6423085" lon="12.0418352"><ele>568.0</ele><time>2026-04-11T17:30:06.331Z</time></trkpt><trkpt lat="42.6423122" lon="12.0415542"><ele>568.6666666666667</ele><time>2026-04-11T17:30:07.353Z</time></trkpt><trkpt lat="42.6423167" lon="12.041274"><ele>569.3333333333334</ele><time>2026-04-11T17:30:08.348Z</time></trkpt><trkpt lat="42.642318" lon="12.0409954"><ele>570.0</ele><time>2026-04-11T17:30:09.364Z</time></trkpt><trkpt lat="42.6423166" lon="12.0407346"><ele>570.0</ele><time>2026-04-11T17:30:10.358Z</time></trkpt><trkpt lat="42.6423138" lon="12.0404899"><ele>570.0</ele><time>2026-04-11T17:30:11.356Z</time></trkpt><trkpt lat="42.6423145" lon="12.0402546"><ele>570.0</ele><time>2026-04-11T17:30:12.36Z</time></trkpt><trkpt lat="42.6423249" lon="12.0400204"><ele>570.0</ele><time>2026-04-11T17:30:13.363Z</time></trkpt><trkpt lat="42.6423392" lon="12.0397858"><ele>570.0</ele><time>2026-04-11T17:30:14.361Z</time></trkpt><trkpt lat="42.6423729" lon="12.0395597"><ele>570.0</ele><time>2026-04-11T17:30:15.34Z</time></trkpt><trkpt lat="42.6424188" lon="12.0393387"><ele>570.3333333333334</ele><time>2026-04-11T17:30:16.361Z</time></trkpt><trkpt lat="42.6424759" lon="12.0391159"><ele>570.6666666666667</ele><time>2026-04-11T17:30:17.335Z</time></trkpt><trkpt lat="42.6425508" lon="12.0388979"><ele>571.0</ele><time>2026-04-11T17:30:18.352Z</time></trkpt><trkpt lat="42.6426326" lon="12.0386825"><ele>571.0</ele><time>2026-04-11T17:30:19.366Z</time></trkpt><trkpt lat="42.6427227" lon="12.0384745"><ele>571.0</ele><time>2026-04-11T17:30:20.355Z</time></trkpt><trkpt lat="42.6428161" lon="12.0382631"><ele>571.0</ele><time>2026-04-11T17:30:21.354Z</time></trkpt><trkpt lat="42.6429063" lon="12.0380578"><ele>572.0</ele><time>2026-04-11T17:30:22.352Z</time></trkpt><trkpt lat="42.6429918" lon="12.0378569"><ele>573.0</ele><time>2026-04-11T17:30:23.36Z</time></trkpt><trkpt lat="42.6430701" lon="12.0376405"><ele>574.0</ele><time>2026-04-11T17:30:24.35Z</time></trkpt><trkpt lat="42.6431362" lon="12.0374128"><ele>574.0</ele><time>2026-04-11T17:30:25.337Z</time></trkpt><trkpt lat="42.643192" lon="12.0371708"><ele>574.0</ele><time>2026-04-11T17:30:26.354Z</time></trkpt><trkpt lat="42.6432458" lon="12.036925"><ele>574.0</ele><time>2026-04-11T17:30:27.358Z</time></trkpt><trkpt lat="42.6433023" lon="12.036682"><ele>573.0</ele><time>2026-04-11T17:30:28.356Z</time></trkpt><trkpt lat="42.6433576" lon="12.0364539"><ele>572.0</ele><time>2026-04-11T17:30:29.358Z</time></trkpt><trkpt lat="42.6434146" lon="12.036241"><ele>571.0</ele><time>2026-04-11T17:30:30.343Z</time></trkpt><trkpt lat="42.6434685" lon="12.0360274"><ele>571.0</ele><time>2026-04-11T17:30:31.353Z</time></trkpt><trkpt lat="42.6435241" lon="12.0358111"><ele>571.0</ele><time>2026-04-11T17:30:32.356Z</time></trkpt><trkpt lat="42.6435757" lon="12.0355952"><ele>571.0</ele><time>2026-04-11T17:30:33.356Z</time></trkpt><trkpt lat="42.6436135" lon="12.035374"><ele>571.0</ele><time>2026-04-11T17:30:34.351Z</time></trkpt><trkpt lat="42.6436319" lon="12.0351558"><ele>571.0</ele><time>2026-04-11T17:30:35.351Z</time></trkpt><trkpt lat="42.6436319" lon="12.0349295"><ele>571.0</ele><time>2026-04-11T17:30:36.343Z</time></trkpt><trkpt lat="42.6436194" lon="12.034716"><ele>570.6</ele><time>2026-04-11T17:30:37.356Z</time></trkpt><trkpt lat="42.6436031" lon="12.0345332"><ele>570.2</ele><time>2026-04-11T17:30:38.356Z</time></trkpt><trkpt lat="42.6435937" lon="12.0343912"><ele>569.8</ele><time>2026-04-11T17:30:39.352Z</time></trkpt><trkpt lat="42.6435875" lon="12.0342932"><ele>569.4</ele><time>2026-04-11T17:30:40.328Z</time></trkpt><trkpt lat="42.6435713" lon="12.0341888"><ele>569.0</ele><time>2026-04-11T17:30:42.357Z</time></trkpt><trkpt lat="42.643545" lon="12.034069"><ele>570.0</ele><time>2026-04-11T17:30:45.353Z</time></trkpt><trkpt lat="42.6435307" lon="12.0339543"><ele>571.0</ele><time>2026-04-11T17:30:47.343Z</time></trkpt><trkpt lat="42.6435125" lon="12.0338261"><ele>572.0</ele><time>2026-04-11T17:30:49.369Z</time></trkpt><trkpt lat="42.643487" lon="12.0336691"><ele>573.0</ele><time>2026-04-11T17:30:51.369Z</time></trkpt><trkpt lat="42.6434736" lon="12.0335731"><ele>574.0</ele><time>2026-04-11T17:30:52.348Z</time></trkpt><trkpt lat="42.6434581" lon="12.0334759"><ele>575.0</ele><time>2026-04-11T17:30:53.369Z</time></trkpt><trkpt lat="42.6434414" lon="12.0333817"><ele>575.6666666666666</ele><time>2026-04-11T17:30:54.337Z</time></trkpt><trkpt lat="42.643427" lon="12.0332851"><ele>576.3333333333333</ele><time>2026-04-11T17:30:55.353Z</time></trkpt><trkpt lat="42.6434133" lon="12.0331801"><ele>577.0</ele><time>2026-04-11T17:30:56.354Z</time></trkpt><trkpt lat="42.6433951" lon="12.0330648"><ele>577.6666666666666</ele><time>2026-04-11T17:30:57.363Z</time></trkpt><trkpt lat="42.6433844" lon="12.0329401"><ele>578.3333333333334</ele><time>2026-04-11T17:30:58.354Z</time></trkpt><trkpt lat="42.6433689" lon="12.0328125"><ele>579.0</ele><time>2026-04-11T17:30:59.363Z</time></trkpt><trkpt lat="42.6433498" lon="12.0326664"><ele>579.0</ele><time>2026-04-11T17:31:00.352Z</time></trkpt><trkpt lat="42.6433227" lon="12.0324988"><ele>579.0</ele><time>2026-04-11T17:31:01.347Z</time></trkpt><trkpt lat="42.6432975" lon="12.0323204"><ele>579.0</ele><time>2026-04-11T17:31:02.342Z</time></trkpt><trkpt lat="42.6432719" lon="12.0321323"><ele>579.0</ele><time>2026-04-11T17:31:03.346Z</time></trkpt><trkpt lat="42.6432519" lon="12.0319277"><ele>579.6666666666666</ele><time>2026-04-11T17:31:04.361Z</time></trkpt><trkpt lat="42.6432266" lon="12.0317139"><ele>580.3333333333333</ele><time>2026-04-11T17:31:05.363Z</time></trkpt><trkpt lat="42.6431846" lon="12.0314906"><ele>581.0</ele><time>2026-04-11T17:31:06.342Z</time></trkpt><trkpt lat="42.6431239" lon="12.031269"><ele>581.3333333333333</ele><time>2026-04-11T17:31:07.365Z</time></trkpt><trkpt lat="42.643047" lon="12.0310568"><ele>581.6666666666666</ele><time>2026-04-11T17:31:08.333Z</time></trkpt><trkpt lat="42.6429684" lon="12.0308407"><ele>582.0</ele><time>2026-04-11T17:31:09.344Z</time></trkpt><trkpt lat="42.6428903" lon="12.0306286"><ele>582.6666666666666</ele><time>2026-04-11T17:31:10.355Z</time></trkpt><trkpt lat="42.6428282" lon="12.03042"><ele>583.3333333333333</ele><time>2026-04-11T17:31:11.357Z</time></trkpt><trkpt lat="42.6427926" lon="12.030215"><ele>584.0</ele><time>2026-04-11T17:31:12.355Z</time></trkpt><trkpt lat="42.6427881" lon="12.030004"><ele>585.3333333333333</ele><time>2026-04-11T17:31:13.348Z</time></trkpt><trkpt lat="42.6428076" lon="12.029785"><ele>586.6666666666666</ele><time>2026-04-11T17:31:14.346Z</time></trkpt><trkpt lat="42.6428476" lon="12.0295618"><ele>588.0</ele><time>2026-04-11T17:31:15.355Z</time></trkpt><trkpt lat="42.6429101" lon="12.0293254"><ele>589.0</ele><time>2026-04-11T17:31:16.348Z</time></trkpt><trkpt lat="42.6429866" lon="12.029081"><ele>590.0</ele><time>2026-04-11T17:31:17.367Z</time></trkpt><trkpt lat="42.6430662" lon="12.0288333"><ele>591.0</ele><time>2026-04-11T17:31:18.332Z</time></trkpt><trkpt lat="42.6431466" lon="12.0285813"><ele>591.0</ele><time>2026-04-11T17:31:19.349Z</time></trkpt><trkpt lat="42.643225" lon="12.0283302"><ele>591.0</ele><time>2026-04-11T17:31:20.354Z</time></trkpt><trkpt lat="42.6432976" lon="12.0280939"><ele>591.0</ele><time>2026-04-11T17:31:21.352Z</time></trkpt><trkpt lat="42.6433617" lon="12.0278663"><ele>590.6666666666666</ele><time>2026-04-11T17:31:22.343Z</time></trkpt><trkpt lat="42.6434259" lon="12.02764"><ele>590.3333333333333</ele><time>2026-04-11T17:31:23.359Z</time></trkpt><trkpt lat="42.6434827" lon="12.0274057"><ele>590.0</ele><time>2026-04-11T17:31:24.353Z</time></trkpt><trkpt lat="42.643527" lon="12.0271662"><ele>588.0</ele><time>2026-04-11T17:31:25.345Z</time></trkpt><trkpt lat="42.6435663" lon="12.0269219"><ele>586.0</ele><time>2026-04-11T17:31:26.351Z</time></trkpt><trkpt lat="42.6436019" lon="12.0266784"><ele>584.0</ele><time>2026-04-11T17:31:27.341Z</time></trkpt><trkpt lat="42.6436313" lon="12.0264325"><ele>583.0</ele><time>2026-04-11T17:31:28.37Z</time></trkpt><trkpt lat="42.6436599" lon="12.0261965"><ele>582.0</ele><time>2026-04-11T17:31:29.349Z</time></trkpt><trkpt lat="42.6436777" lon="12.0259514"><ele>581.0</ele><time>2026-04-11T17:31:30.346Z</time></trkpt><trkpt lat="42.6436952" lon="12.0257083"><ele>581.0</ele><time>2026-04-11T17:31:31.355Z</time></trkpt><trkpt lat="42.6437119" lon="12.0254608"><ele>581.0</ele><time>2026-04-11T17:31:32.357Z</time></trkpt><trkpt lat="42.6437314" lon="12.0252116"><ele>581.0</ele><time>2026-04-11T17:31:33.347Z</time></trkpt><trkpt lat="42.6437529" lon="12.0249609"><ele>579.0</ele><time>2026-04-11T17:31:34.345Z</time></trkpt><trkpt lat="42.6437756" lon="12.0247021"><ele>577.0</ele><time>2026-04-11T17:31:35.361Z</time></trkpt><trkpt lat="42.6437947" lon="12.0244376"><ele>575.0</ele><time>2026-04-11T17:31:36.329Z</time></trkpt><trkpt lat="42.643812" lon="12.0241683"><ele>573.6666666666666</ele><time>2026-04-11T17:31:37.348Z</time></trkpt><trkpt lat="42.6438317" lon="12.023895"><ele>572.3333333333334</ele><time>2026-04-11T17:31:38.349Z</time></trkpt><trkpt lat="42.6438565" lon="12.0236297"><ele>571.0</ele><time>2026-04-11T17:31:39.349Z</time></trkpt><trkpt lat="42.6438752" lon="12.0233765"><ele>569.6666666666667</ele><time>2026-04-11T17:31:40.333Z</time></trkpt><trkpt lat="42.6438921" lon="12.0231325"><ele>568.3333333333334</ele><time>2026-04-11T17:31:41.343Z</time></trkpt><trkpt lat="42.6439108" lon="12.0228913"><ele>567.0</ele><time>2026-04-11T17:31:42.358Z</time></trkpt><trkpt lat="42.6439268" lon="12.0226543"><ele>566.0</ele><time>2026-04-11T17:31:43.349Z</time></trkpt><trkpt lat="42.6439441" lon="12.0224139"><ele>565.0</ele><time>2026-04-11T17:31:44.357Z</time></trkpt><trkpt lat="42.6439719" lon="12.0221833"><ele>564.0</ele><time>2026-04-11T17:31:45.357Z</time></trkpt><trkpt lat="42.6440137" lon="12.0219543"><ele>564.0</ele><time>2026-04-11T17:31:46.348Z</time></trkpt><trkpt lat="42.6440814" lon="12.0217214"><ele>564.0</ele><time>2026-04-11T17:31:47.339Z</time></trkpt><trkpt lat="42.6441741" lon="12.0214959"><ele>564.0</ele><time>2026-04-11T17:31:48.353Z</time></trkpt><trkpt lat="42.6442882" lon="12.0212913"><ele>563.0</ele><time>2026-04-11T17:31:49.337Z</time></trkpt><trkpt lat="42.6444336" lon="12.0211106"><ele>562.0</ele><time>2026-04-11T17:31:50.357Z</time></trkpt><trkpt lat="42.6445931" lon="12.0209609"><ele>561.0</ele><time>2026-04-11T17:31:51.359Z</time></trkpt><trkpt lat="42.6447578" lon="12.0208386"><ele>556.3333333333334</ele><time>2026-04-11T17:31:52.357Z</time></trkpt><trkpt lat="42.6449127" lon="12.0207147"><ele>551.6666666666667</ele><time>2026-04-11T17:31:53.354Z</time></trkpt><trkpt lat="42.6450435" lon="12.0205619"><ele>547.0</ele><time>2026-04-11T17:31:54.352Z</time></trkpt><trkpt lat="42.6451563" lon="12.020378"><ele>547.0</ele><time>2026-04-11T17:31:55.347Z</time></trkpt><trkpt lat="42.6452331" lon="12.0201473"><ele>547.0</ele><time>2026-04-11T17:31:56.348Z</time></trkpt><trkpt lat="42.6452732" lon="12.0198967"><ele>547.0</ele><time>2026-04-11T17:31:57.357Z</time></trkpt><trkpt lat="42.645286" lon="12.0196178"><ele>544.6666666666667</ele><time>2026-04-11T17:31:58.342Z</time></trkpt><trkpt lat="42.6452873" lon="12.019339"><ele>542.3333333333334</ele><time>2026-04-11T17:31:59.34Z</time></trkpt><trkpt lat="42.6452928" lon="12.0190643"><ele>540.0</ele><time>2026-04-11T17:32:00.342Z</time></trkpt><trkpt lat="42.6452932" lon="12.0188074"><ele>539.6666666666666</ele><time>2026-04-11T17:32:01.361Z</time></trkpt><trkpt lat="42.6452939" lon="12.018553"><ele>539.3333333333333</ele><time>2026-04-11T17:32:02.358Z</time></trkpt><trkpt lat="42.6452967" lon="12.0183088"><ele>539.0</ele><time>2026-04-11T17:32:03.344Z</time></trkpt><trkpt lat="42.6452983" lon="12.0180782"><ele>539.0</ele><time>2026-04-11T17:32:04.352Z</time></trkpt><trkpt lat="42.6453035" lon="12.017852"><ele>539.0</ele><time>2026-04-11T17:32:05.347Z</time></trkpt><trkpt lat="42.6453211" lon="12.0176272"><ele>539.0</ele><time>2026-04-11T17:32:06.348Z</time></trkpt><trkpt lat="42.6453619" lon="12.0174098"><ele>536.6666666666666</ele><time>2026-04-11T17:32:07.352Z</time></trkpt><trkpt lat="42.6454442" lon="12.0172042"><ele>534.3333333333334</ele><time>2026-04-11T17:32:08.343Z</time></trkpt><trkpt lat="42.6455565" lon="12.0170234"><ele>532.0</ele><time>2026-04-11T17:32:09.35Z</time></trkpt><trkpt lat="42.6457003" lon="12.0168659"><ele>532.0</ele><time>2026-04-11T17:32:10.352Z</time></trkpt><trkpt lat="42.6458632" lon="12.0167393"><ele>532.0</ele><time>2026-04-11T17:32:11.348Z</time></trkpt><trkpt lat="42.6460391" lon="12.0166293"><ele>532.0</ele><time>2026-04-11T17:32:12.353Z</time></trkpt><trkpt lat="42.6462153" lon="12.016505"><ele>531.0</ele><time>2026-04-11T17:32:13.346Z</time></trkpt><trkpt lat="42.6463771" lon="12.016342"><ele>530.0</ele><time>2026-04-11T17:32:14.353Z</time></trkpt><trkpt lat="42.6465138" lon="12.0161297"><ele>529.0</ele><time>2026-04-11T17:32:15.35Z</time></trkpt><trkpt lat="42.6466237" lon="12.0158945"><ele>527.3333333333334</ele><time>2026-04-11T17:32:16.351Z</time></trkpt><trkpt lat="42.6467267" lon="12.0156548"><ele>525.6666666666666</ele><time>2026-04-11T17:32:17.346Z</time></trkpt><trkpt lat="42.6468239" lon="12.0154222"><ele>524.0</ele><time>2026-04-11T17:32:18.338Z</time></trkpt><trkpt lat="42.6468952" lon="12.0151762"><ele>523.3333333333333</ele><time>2026-04-11T17:32:19.346Z</time></trkpt><trkpt lat="42.6469492" lon="12.0149216"><ele>522.6666666666666</ele><time>2026-04-11T17:32:20.35Z</time></trkpt><trkpt lat="42.6469915" lon="12.0146639"><ele>522.0</ele><time>2026-04-11T17:32:21.365Z</time></trkpt><trkpt lat="42.6470153" lon="12.0144166"><ele>521.6666666666666</ele><time>2026-04-11T17:32:22.355Z</time></trkpt><trkpt lat="42.6470109" lon="12.0141597"><ele>521.3333333333333</ele><time>2026-04-11T17:32:23.351Z</time></trkpt><trkpt lat="42.6469861" lon="12.0138982"><ele>521.0</ele><time>2026-04-11T17:32:24.357Z</time></trkpt><trkpt lat="42.6469446" lon="12.0136338"><ele>519.0</ele><time>2026-04-11T17:32:25.356Z</time></trkpt><trkpt lat="42.6469042" lon="12.0133652"><ele>517.0</ele><time>2026-04-11T17:32:26.354Z</time></trkpt><trkpt lat="42.6468672" lon="12.0130916"><ele>515.0</ele><time>2026-04-11T17:32:27.358Z</time></trkpt><trkpt lat="42.6468326" lon="12.0128294"><ele>513.6666666666666</ele><time>2026-04-11T17:32:28.343Z</time></trkpt><trkpt lat="42.6468035" lon="12.0125809"><ele>512.3333333333334</ele><time>2026-04-11T17:32:29.358Z</time></trkpt><trkpt lat="42.6467678" lon="12.0123362"><ele>511.0</ele><time>2026-04-11T17:32:30.345Z</time></trkpt><trkpt lat="42.6467212" lon="12.0121048"><ele>511.33333333333337</ele><time>2026-04-11T17:32:31.348Z</time></trkpt><trkpt lat="42.6466426" lon="12.0118804"><ele>511.66666666666663</ele><time>2026-04-11T17:32:32.347Z</time></trkpt><trkpt lat="42.6465315" lon="12.0116796"><ele>512.0</ele><time>2026-04-11T17:32:33.348Z</time></trkpt><trkpt lat="42.6464065" lon="12.0115111"><ele>512.0</ele><time>2026-04-11T17:32:34.347Z</time></trkpt><trkpt lat="42.6462652" lon="12.011398"><ele>512.0</ele><time>2026-04-11T17:32:35.34Z</time></trkpt><trkpt lat="42.6461021" lon="12.0113158"><ele>512.0</ele><time>2026-04-11T17:32:36.339Z</time></trkpt><trkpt lat="42.6459125" lon="12.0112894"><ele>511.66666666666663</ele><time>2026-04-11T17:32:37.334Z</time></trkpt><trkpt lat="42.6457211" lon="12.0112795"><ele>511.33333333333337</ele><time>2026-04-11T17:32:38.351Z</time></trkpt><trkpt lat="42.6455527" lon="12.0112648"><ele>511.0</ele><time>2026-04-11T17:32:39.345Z</time></trkpt><trkpt lat="42.6453833" lon="12.011245"><ele>508.0</ele><time>2026-04-11T17:32:40.33Z</time></trkpt><trkpt lat="42.6452294" lon="12.0112012"><ele>505.0</ele><time>2026-04-11T17:32:41.355Z</time></trkpt><trkpt lat="42.6450894" lon="12.0110983"><ele>502.0</ele><time>2026-04-11T17:32:42.352Z</time></trkpt><trkpt lat="42.6449551" lon="12.0109366"><ele>503.6666666666667</ele><time>2026-04-11T17:32:43.349Z</time></trkpt><trkpt lat="42.6448162" lon="12.0107701"><ele>505.33333333333337</ele><time>2026-04-11T17:32:44.347Z</time></trkpt><trkpt lat="42.6446779" lon="12.0106045"><ele>507.0</ele><time>2026-04-11T17:32:45.346Z</time></trkpt><trkpt lat="42.6445427" lon="12.0104354"><ele>502.33333333333337</ele><time>2026-04-11T17:32:46.342Z</time></trkpt><trkpt lat="42.6444244" lon="12.0102675"><ele>497.6666666666667</ele><time>2026-04-11T17:32:47.347Z</time></trkpt><trkpt lat="42.6443237" lon="12.0100779"><ele>493.0</ele><time>2026-04-11T17:32:48.351Z</time></trkpt><trkpt lat="42.6442504" lon="12.0098859"><ele>492.33333333333337</ele><time>2026-04-11T17:32:49.335Z</time></trkpt><trkpt lat="42.6442141" lon="12.009671"><ele>491.66666666666663</ele><time>2026-04-11T17:32:50.332Z</time></trkpt><trkpt lat="42.6441992" lon="12.0094531"><ele>491.0</ele><time>2026-04-11T17:32:51.349Z</time></trkpt><trkpt lat="42.6442174" lon="12.0092187"><ele>489.3333333333333</ele><time>2026-04-11T17:32:52.349Z</time></trkpt><trkpt lat="42.6442478" lon="12.008971"><ele>487.66666666666663</ele><time>2026-04-11T17:32:53.348Z</time></trkpt><trkpt lat="42.6442873" lon="12.0087126"><ele>486.0</ele><time>2026-04-11T17:32:54.333Z</time></trkpt><trkpt lat="42.6443283" lon="12.0084396"><ele>485.33333333333337</ele><time>2026-04-11T17:32:55.351Z</time></trkpt><trkpt lat="42.6443724" lon="12.0081634"><ele>484.6666666666667</ele><time>2026-04-11T17:32:56.337Z</time></trkpt><trkpt lat="42.6444107" lon="12.0078799"><ele>484.0</ele><time>2026-04-11T17:32:57.359Z</time></trkpt><trkpt lat="42.6444473" lon="12.0076147"><ele>485.6666666666667</ele><time>2026-04-11T17:32:58.344Z</time></trkpt><trkpt lat="42.6444847" lon="12.0073653"><ele>487.33333333333337</ele><time>2026-04-11T17:32:59.36Z</time></trkpt><trkpt lat="42.6445216" lon="12.0071349"><ele>489.0</ele><time>2026-04-11T17:33:00.339Z</time></trkpt><trkpt lat="42.6445541" lon="12.0069008"><ele>489.0</ele><time>2026-04-11T17:33:01.354Z</time></trkpt><trkpt lat="42.6445918" lon="12.0066818"><ele>489.0</ele><time>2026-04-11T17:33:02.36Z</time></trkpt><trkpt lat="42.6446402" lon="12.0064764"><ele>489.0</ele><time>2026-04-11T17:33:03.356Z</time></trkpt><trkpt lat="42.6447104" lon="12.0062947"><ele>486.33333333333337</ele><time>2026-04-11T17:33:04.369Z</time></trkpt><trkpt lat="42.6447915" lon="12.0061229"><ele>483.6666666666667</ele><time>2026-04-11T17:33:05.355Z</time></trkpt><trkpt lat="42.6448904" lon="12.0059658"><ele>481.0</ele><time>2026-04-11T17:33:06.361Z</time></trkpt><trkpt lat="42.6450075" lon="12.0058224"><ele>479.6666666666667</ele><time>2026-04-11T17:33:07.357Z</time></trkpt><trkpt lat="42.6451373" lon="12.0056976"><ele>478.33333333333337</ele><time>2026-04-11T17:33:08.343Z</time></trkpt><trkpt lat="42.6452733" lon="12.005577"><ele>477.0</ele><time>2026-04-11T17:33:09.346Z</time></trkpt><trkpt lat="42.6454068" lon="12.0054556"><ele>477.0</ele><time>2026-04-11T17:33:10.346Z</time></trkpt><trkpt lat="42.6455379" lon="12.0053362"><ele>477.0</ele><time>2026-04-11T17:33:11.347Z</time></trkpt><trkpt lat="42.6456571" lon="12.005218"><ele>477.0</ele><time>2026-04-11T17:33:12.351Z</time></trkpt><trkpt lat="42.6457743" lon="12.0050997"><ele>479.5</ele><time>2026-04-11T17:33:13.36Z</time></trkpt><trkpt lat="42.6458926" lon="12.0049884"><ele>482.0</ele><time>2026-04-11T17:33:14.343Z</time></trkpt><trkpt lat="42.6460115" lon="12.0048792"><ele>484.5</ele><time>2026-04-11T17:33:15.325Z</time></trkpt><trkpt lat="42.6461308" lon="12.0047846"><ele>487.0</ele><time>2026-04-11T17:33:16.342Z</time></trkpt><trkpt lat="42.6462498" lon="12.0046951"><ele>487.0</ele><time>2026-04-11T17:33:17.346Z</time></trkpt><trkpt lat="42.646367" lon="12.0046061"><ele>487.0</ele><time>2026-04-11T17:33:18.345Z</time></trkpt><trkpt lat="42.6464658" lon="12.0044975"><ele>487.0</ele><time>2026-04-11T17:33:19.354Z</time></trkpt><trkpt lat="42.6465308" lon="12.0043564"><ele>487.0</ele><time>2026-04-11T17:33:20.35Z</time></trkpt><trkpt lat="42.6465651" lon="12.0041875"><ele>485.0</ele><time>2026-04-11T17:33:21.351Z</time></trkpt><trkpt lat="42.6465769" lon="12.003999"><ele>483.0</ele><time>2026-04-11T17:33:22.343Z</time></trkpt><trkpt lat="42.6465812" lon="12.0038247"><ele>481.0</ele><time>2026-04-11T17:33:23.353Z</time></trkpt><trkpt lat="42.646582" lon="12.0036541"><ele>479.0</ele><time>2026-04-11T17:33:24.345Z</time></trkpt><trkpt lat="42.6465815" lon="12.0034928"><ele>479.0</ele><time>2026-04-11T17:33:25.345Z</time></trkpt><trkpt lat="42.6465888" lon="12.0033387"><ele>479.0</ele><time>2026-04-11T17:33:26.349Z</time></trkpt><trkpt lat="42.6465934" lon="12.0031857"><ele>479.0</ele><time>2026-04-11T17:33:27.362Z</time></trkpt><trkpt lat="42.6466001" lon="12.0030304"><ele>479.0</ele><time>2026-04-11T17:33:28.34Z</time></trkpt><trkpt lat="42.6466139" lon="12.0028693"><ele>477.25</ele><time>2026-04-11T17:33:29.354Z</time></trkpt><trkpt lat="42.6466339" lon="12.0027026"><ele>475.5</ele><time>2026-04-11T17:33:30.345Z</time></trkpt><trkpt lat="42.6466575" lon="12.0025327"><ele>473.75</ele><time>2026-04-11T17:33:31.349Z</time></trkpt><trkpt lat="42.6466835" lon="12.0023608"><ele>472.0</ele><time>2026-04-11T17:33:32.354Z</time></trkpt><trkpt lat="42.6467225" lon="12.0021881"><ele>472.5</ele><time>2026-04-11T17:33:33.357Z</time></trkpt><trkpt lat="42.6467807" lon="12.0020066"><ele>473.0</ele><time>2026-04-11T17:33:34.354Z</time></trkpt><trkpt lat="42.6468488" lon="12.0018298"><ele>473.5</ele><time>2026-04-11T17:33:35.361Z</time></trkpt><trkpt lat="42.6469212" lon="12.0016575"><ele>474.0</ele><time>2026-04-11T17:33:36.343Z</time></trkpt><trkpt lat="42.6469896" lon="12.001484"><ele>474.0</ele><time>2026-04-11T17:33:37.341Z</time></trkpt><trkpt lat="42.6470582" lon="12.0013231"><ele>474.0</ele><time>2026-04-11T17:33:38.35Z</time></trkpt><trkpt lat="42.6471226" lon="12.00117"><ele>474.0</ele><time>2026-04-11T17:33:39.351Z</time></trkpt><trkpt lat="42.6471813" lon="12.0010199"><ele>474.0</ele><time>2026-04-11T17:33:40.33Z</time></trkpt><trkpt lat="42.6472253" lon="12.0008756"><ele>473.79999999999995</ele><time>2026-04-11T17:33:41.335Z</time></trkpt><trkpt lat="42.6472445" lon="12.0007305"><ele>473.59999999999997</ele><time>2026-04-11T17:33:42.344Z</time></trkpt><trkpt lat="42.647235" lon="12.0005901"><ele>473.4</ele><time>2026-04-11T17:33:43.342Z</time></trkpt><trkpt lat="42.6471868" lon="12.0004556"><ele>473.2</ele><time>2026-04-11T17:33:44.352Z</time></trkpt><trkpt lat="42.6471023" lon="12.0003409"><ele>473.0</ele><time>2026-04-11T17:33:45.342Z</time></trkpt><trkpt lat="42.6469964" lon="12.0002442"><ele>470.0</ele><time>2026-04-11T17:33:46.351Z</time></trkpt><trkpt lat="42.6468856" lon="12.0001548"><ele>467.0</ele><time>2026-04-11T17:33:47.349Z</time></trkpt><trkpt lat="42.6467746" lon="12.0000705"><ele>464.0</ele><time>2026-04-11T17:33:48.357Z</time></trkpt><trkpt lat="42.646673" lon="11.999985"><ele>461.0</ele><time>2026-04-11T17:33:49.355Z</time></trkpt><trkpt lat="42.6465832" lon="11.9998927"><ele>461.0</ele><time>2026-04-11T17:33:50.353Z</time></trkpt><trkpt lat="42.6465073" lon="11.9997729"><ele>461.0</ele><time>2026-04-11T17:33:51.347Z</time></trkpt><trkpt lat="42.6464765" lon="11.999641"><ele>461.0</ele><time>2026-04-11T17:33:52.347Z</time></trkpt><trkpt lat="42.646481" lon="11.9994943"><ele>461.0</ele><time>2026-04-11T17:33:53.365Z</time></trkpt><trkpt lat="42.6465206" lon="11.9993528"><ele>461.0</ele><time>2026-04-11T17:33:54.354Z</time></trkpt><trkpt lat="42.6465879" lon="11.999228"><ele>460.75</ele><time>2026-04-11T17:33:55.358Z</time></trkpt><trkpt lat="42.6466709" lon="11.999116"><ele>460.5</ele><time>2026-04-11T17:33:56.355Z</time></trkpt><trkpt lat="42.6467557" lon="11.9990003"><ele>460.25</ele><time>2026-04-11T17:33:57.356Z</time></trkpt><trkpt lat="42.6468379" lon="11.9988895"><ele>460.0</ele><time>2026-04-11T17:33:58.361Z</time></trkpt><trkpt lat="42.6469246" lon="11.9987789"><ele>459.0</ele><time>2026-04-11T17:33:59.35Z</time></trkpt><trkpt lat="42.6470127" lon="11.9986633"><ele>458.0</ele><time>2026-04-11T17:34:00.347Z</time></trkpt><trkpt lat="42.6471051" lon="11.9985458"><ele>457.0</ele><time>2026-04-11T17:34:01.355Z</time></trkpt><trkpt lat="42.6471992" lon="11.9984283"><ele>456.0</ele><time>2026-04-11T17:34:02.35Z</time></trkpt><trkpt lat="42.6472894" lon="11.9983132"><ele>456.0</ele><time>2026-04-11T17:34:03.364Z</time></trkpt><trkpt lat="42.6473789" lon="11.9982095"><ele>456.0</ele><time>2026-04-11T17:34:04.341Z</time></trkpt><trkpt lat="42.6474763" lon="11.9981104"><ele>456.0</ele><time>2026-04-11T17:34:05.361Z</time></trkpt><trkpt lat="42.6475819" lon="11.9980318"><ele>456.0</ele><time>2026-04-11T17:34:06.344Z</time></trkpt><trkpt lat="42.6476962" lon="11.9979922"><ele>456.25</ele><time>2026-04-11T17:34:07.351Z</time></trkpt><trkpt lat="42.6478267" lon="11.9979986"><ele>456.5</ele><time>2026-04-11T17:34:08.337Z</time></trkpt><trkpt lat="42.6479548" lon="11.9980333"><ele>456.75</ele><time>2026-04-11T17:34:09.358Z</time></trkpt><trkpt lat="42.6480826" lon="11.9980857"><ele>457.0</ele><time>2026-04-11T17:34:10.347Z</time></trkpt><trkpt lat="42.6482082" lon="11.998131"><ele>457.0</ele><time>2026-04-11T17:34:11.353Z</time></trkpt><trkpt lat="42.6483279" lon="11.9981762"><ele>457.0</ele><time>2026-04-11T17:34:12.348Z</time></trkpt><trkpt lat="42.6484432" lon="11.9982155"><ele>457.0</ele><time>2026-04-11T17:34:13.349Z</time></trkpt><trkpt lat="42.6485575" lon="11.9982536"><ele>457.0</ele><time>2026-04-11T17:34:14.349Z</time></trkpt><trkpt lat="42.6486722" lon="11.9982888"><ele>457.0</ele><time>2026-04-11T17:34:15.339Z</time></trkpt><trkpt lat="42.6487883" lon="11.998316"><ele>457.0</ele><time>2026-04-11T17:34:16.352Z</time></trkpt><trkpt lat="42.648905" lon="11.9983168"><ele>457.0</ele><time>2026-04-11T17:34:17.337Z</time></trkpt><trkpt lat="42.6490142" lon="11.9982667"><ele>457.0</ele><time>2026-04-11T17:34:18.344Z</time></trkpt><trkpt lat="42.6491121" lon="11.9981706"><ele>457.0</ele><time>2026-04-11T17:34:19.344Z</time></trkpt><trkpt lat="42.6491943" lon="11.9980441"><ele>457.0</ele><time>2026-04-11T17:34:20.342Z</time></trkpt><trkpt lat="42.6492471" lon="11.9979108"><ele>457.0</ele><time>2026-04-11T17:34:21.346Z</time></trkpt><trkpt lat="42.64927" lon="11.9977663"><ele>457.0</ele><time>2026-04-11T17:34:22.343Z</time></trkpt><trkpt lat="42.6492654" lon="11.9976129"><ele>454.25</ele><time>2026-04-11T17:34:23.352Z</time></trkpt><trkpt lat="42.6492476" lon="11.9974591"><ele>451.5</ele><time>2026-04-11T17:34:24.351Z</time></trkpt><trkpt lat="42.6492272" lon="11.9973146"><ele>448.75</ele><time>2026-04-11T17:34:25.349Z</time></trkpt><trkpt lat="42.6492044" lon="11.9971639"><ele>446.0</ele><time>2026-04-11T17:34:26.349Z</time></trkpt><trkpt lat="42.6491733" lon="11.996998"><ele>446.0</ele><time>2026-04-11T17:34:27.343Z</time></trkpt><trkpt lat="42.6491334" lon="11.9968492"><ele>446.0</ele><time>2026-04-11T17:34:28.338Z</time></trkpt><trkpt lat="42.6490751" lon="11.9966997"><ele>446.0</ele><time>2026-04-11T17:34:29.351Z</time></trkpt><trkpt lat="42.6490101" lon="11.9965639"><ele>446.0</ele><time>2026-04-11T17:34:30.353Z</time></trkpt><trkpt lat="42.6489387" lon="11.9964361"><ele>445.0</ele><time>2026-04-11T17:34:31.352Z</time></trkpt><trkpt lat="42.648878" lon="11.9963054"><ele>444.0</ele><time>2026-04-11T17:34:32.329Z</time></trkpt><trkpt lat="42.6488392" lon="11.9961654"><ele>443.0</ele><time>2026-04-11T17:34:33.347Z</time></trkpt><trkpt lat="42.6488265" lon="11.9960151"><ele>442.0</ele><time>2026-04-11T17:34:34.352Z</time></trkpt><trkpt lat="42.6488411" lon="11.9958599"><ele>441.5</ele><time>2026-04-11T17:34:35.361Z</time></trkpt><trkpt lat="42.6488691" lon="11.9957103"><ele>441.0</ele><time>2026-04-11T17:34:36.346Z</time></trkpt><trkpt lat="42.6489083" lon="11.9955412"><ele>440.5</ele><time>2026-04-11T17:34:37.35Z</time></trkpt><trkpt lat="42.6489477" lon="11.9953653"><ele>440.0</ele><time>2026-04-11T17:34:38.349Z</time></trkpt><trkpt lat="42.6489871" lon="11.9951789"><ele>437.66666666666663</ele><time>2026-04-11T17:34:39.352Z</time></trkpt><trkpt lat="42.6490332" lon="11.9949831"><ele>435.33333333333337</ele><time>2026-04-11T17:34:40.331Z</time></trkpt><trkpt lat="42.6490765" lon="11.9947802"><ele>433.0</ele><time>2026-04-11T17:34:41.354Z</time></trkpt><trkpt lat="42.6491203" lon="11.9945887"><ele>433.0</ele><time>2026-04-11T17:34:42.346Z</time></trkpt><trkpt lat="42.6491646" lon="11.9944047"><ele>433.0</ele><time>2026-04-11T17:34:43.348Z</time></trkpt><trkpt lat="42.6492083" lon="11.9942215"><ele>433.0</ele><time>2026-04-11T17:34:44.344Z</time></trkpt><trkpt lat="42.6492493" lon="11.9940333"><ele>433.0</ele><time>2026-04-11T17:34:45.347Z</time></trkpt><trkpt lat="42.6492898" lon="11.993843"><ele>432.0</ele><time>2026-04-11T17:34:46.352Z</time></trkpt><trkpt lat="42.6493286" lon="11.9936593"><ele>431.0</ele><time>2026-04-11T17:34:47.356Z</time></trkpt><trkpt lat="42.6493635" lon="11.9934748"><ele>430.0</ele><time>2026-04-11T17:34:48.348Z</time></trkpt><trkpt lat="42.6493995" lon="11.9933013"><ele>429.0</ele><time>2026-04-11T17:34:49.354Z</time></trkpt><trkpt lat="42.6494417" lon="11.9931324"><ele>429.75</ele><time>2026-04-11T17:34:50.357Z</time></trkpt><trkpt lat="42.6494986" lon="11.9929872"><ele>430.5</ele><time>2026-04-11T17:34:51.354Z</time></trkpt><trkpt lat="42.6495784" lon="11.9928843"><ele>431.25</ele><time>2026-04-11T17:34:52.356Z</time></trkpt><trkpt lat="42.6496926" lon="11.9928416"><ele>432.0</ele><time>2026-04-11T17:34:53.351Z</time></trkpt><trkpt lat="42.6498197" lon="11.992837"><ele>432.0</ele><time>2026-04-11T17:34:54.352Z</time></trkpt><trkpt lat="42.649943" lon="11.9928438"><ele>432.0</ele><time>2026-04-11T17:34:55.354Z</time></trkpt><trkpt lat="42.6500666" lon="11.9928492"><ele>432.0</ele><time>2026-04-11T17:34:56.346Z</time></trkpt><trkpt lat="42.6501855" lon="11.9928527"><ele>432.0</ele><time>2026-04-11T17:34:57.345Z</time></trkpt><trkpt lat="42.6502972" lon="11.9928505"><ele>433.0</ele><time>2026-04-11T17:34:58.352Z</time></trkpt><trkpt lat="42.65041" lon="11.9928399"><ele>434.00000000000006</ele><time>2026-04-11T17:34:59.352Z</time></trkpt><trkpt lat="42.6505117" lon="11.9928085"><ele>435.00000000000006</ele><time>2026-04-11T17:35:00.348Z</time></trkpt><trkpt lat="42.6506004" lon="11.992738"><ele>436.0</ele><time>2026-04-11T17:35:01.357Z</time></trkpt><trkpt lat="42.6506711" lon="11.9926477"><ele>437.0</ele><time>2026-04-11T17:35:02.332Z</time></trkpt><trkpt lat="42.6507154" lon="11.9925392"><ele>434.8</ele><time>2026-04-11T17:35:03.349Z</time></trkpt><trkpt lat="42.6507296" lon="11.9924339"><ele>432.6</ele><time>2026-04-11T17:35:04.341Z</time></trkpt><trkpt lat="42.6507097" lon="11.9923075"><ele>430.40000000000003</ele><time>2026-04-11T17:35:05.355Z</time></trkpt><trkpt lat="42.6506635" lon="11.9921845"><ele>428.20000000000005</ele><time>2026-04-11T17:35:06.34Z</time></trkpt><trkpt lat="42.6505892" lon="11.9920914"><ele>426.0</ele><time>2026-04-11T17:35:07.343Z</time></trkpt><trkpt lat="42.6504999" lon="11.9920444"><ele>426.0</ele><time>2026-04-11T17:35:08.338Z</time></trkpt><trkpt lat="42.6504031" lon="11.9920449"><ele>426.0</ele><time>2026-04-11T17:35:09.323Z</time></trkpt><trkpt lat="42.6502979" lon="11.9920589"><ele>426.0</ele><time>2026-04-11T17:35:10.371Z</time></trkpt><trkpt lat="42.6501891" lon="11.9920652"><ele>426.0</ele><time>2026-04-11T17:35:11.352Z</time></trkpt><trkpt lat="42.6500834" lon="11.9920584"><ele>426.0</ele><time>2026-04-11T17:35:12.341Z</time></trkpt><trkpt lat="42.6499729" lon="11.992013"><ele>424.5</ele><time>2026-04-11T17:35:13.334Z</time></trkpt><trkpt lat="42.6498664" lon="11.9919277"><ele>423.0</ele><time>2026-04-11T17:35:14.336Z</time></trkpt><trkpt lat="42.6497737" lon="11.9918351"><ele>421.5</ele><time>2026-04-11T17:35:15.329Z</time></trkpt><trkpt lat="42.6496599" lon="11.9917398"><ele>420.0</ele><time>2026-04-11T17:35:16.339Z</time></trkpt><trkpt lat="42.6495565" lon="11.9916409"><ele>416.25</ele><time>2026-04-11T17:35:17.353Z</time></trkpt><trkpt lat="42.6494535" lon="11.9915398"><ele>412.5</ele><time>2026-04-11T17:35:18.34Z</time></trkpt><trkpt lat="42.6493694" lon="11.9914258"><ele>408.75</ele><time>2026-04-11T17:35:19.354Z</time></trkpt><trkpt lat="42.6493077" lon="11.9912938"><ele>405.0</ele><time>2026-04-11T17:35:20.34Z</time></trkpt><trkpt lat="42.6492558" lon="11.991141"><ele>405.0</ele><time>2026-04-11T17:35:21.347Z</time></trkpt><trkpt lat="42.6491943" lon="11.9909793"><ele>405.0</ele><time>2026-04-11T17:35:22.34Z</time></trkpt><trkpt lat="42.6491225" lon="11.9908426"><ele>405.0</ele><time>2026-04-11T17:35:23.348Z</time></trkpt><trkpt lat="42.6490342" lon="11.9907314"><ele>405.0</ele><time>2026-04-11T17:35:24.353Z</time></trkpt><trkpt lat="42.648948" lon="11.9906335"><ele>405.2</ele><time>2026-04-11T17:35:25.351Z</time></trkpt><trkpt lat="42.648876" lon="11.9905343"><ele>405.4</ele><time>2026-04-11T17:35:26.355Z</time></trkpt><trkpt lat="42.648855" lon="11.9904018"><ele>405.6</ele><time>2026-04-11T17:35:27.347Z</time></trkpt><trkpt lat="42.6488739" lon="11.9902598"><ele>405.8</ele><time>2026-04-11T17:35:28.35Z</time></trkpt><trkpt lat="42.6489189" lon="11.9901341"><ele>406.0</ele><time>2026-04-11T17:35:29.356Z</time></trkpt><trkpt lat="42.6489645" lon="11.9900081"><ele>406.5</ele><time>2026-04-11T17:35:30.345Z</time></trkpt><trkpt lat="42.6490063" lon="11.9898682"><ele>407.0</ele><time>2026-04-11T17:35:31.364Z</time></trkpt><trkpt lat="42.6490547" lon="11.989737"><ele>407.5</ele><time>2026-04-11T17:35:32.34Z</time></trkpt><trkpt lat="42.6491122" lon="11.9896003"><ele>408.0</ele><time>2026-04-11T17:35:33.347Z</time></trkpt><trkpt lat="42.6491851" lon="11.9894714"><ele>408.0</ele><time>2026-04-11T17:35:34.35Z</time></trkpt><trkpt lat="42.6492695" lon="11.9893431"><ele>408.0</ele><time>2026-04-11T17:35:35.352Z</time></trkpt><trkpt lat="42.6493606" lon="11.9892175"><ele>408.0</ele><time>2026-04-11T17:35:36.351Z</time></trkpt><trkpt lat="42.649459" lon="11.9890928"><ele>408.0</ele><time>2026-04-11T17:35:37.343Z</time></trkpt><trkpt lat="42.6495606" lon="11.988966"><ele>407.66666666666663</ele><time>2026-04-11T17:35:38.348Z</time></trkpt><trkpt lat="42.6496641" lon="11.9888226"><ele>407.3333333333333</ele><time>2026-04-11T17:35:39.354Z</time></trkpt><trkpt lat="42.6497711" lon="11.9886759"><ele>407.0</ele><time>2026-04-11T17:35:40.332Z</time></trkpt><trkpt lat="42.6498781" lon="11.9885283"><ele>407.0</ele><time>2026-04-11T17:35:41.356Z</time></trkpt><trkpt lat="42.6499822" lon="11.9883947"><ele>407.0</ele><time>2026-04-11T17:35:42.33Z</time></trkpt><trkpt lat="42.650082" lon="11.9882508"><ele>407.0</ele><time>2026-04-11T17:35:43.356Z</time></trkpt><trkpt lat="42.6501796" lon="11.988122"><ele>407.0</ele><time>2026-04-11T17:35:44.347Z</time></trkpt><trkpt lat="42.6502697" lon="11.9879888"><ele>406.75</ele><time>2026-04-11T17:35:45.364Z</time></trkpt><trkpt lat="42.6503546" lon="11.9878575"><ele>406.5</ele><time>2026-04-11T17:35:46.354Z</time></trkpt><trkpt lat="42.6503781" lon="11.9877066"><ele>406.25</ele><time>2026-04-11T17:35:47.345Z</time></trkpt><trkpt lat="42.6503606" lon="11.9875378"><ele>406.0</ele><time>2026-04-11T17:35:48.346Z</time></trkpt><trkpt lat="42.6502937" lon="11.9873813"><ele>402.25</ele><time>2026-04-11T17:35:49.352Z</time></trkpt><trkpt lat="42.6502346" lon="11.9872077"><ele>398.5</ele><time>2026-04-11T17:35:50.331Z</time></trkpt><trkpt lat="42.6501905" lon="11.9870741"><ele>394.75</ele><time>2026-04-11T17:35:51.338Z</time></trkpt><trkpt lat="42.6501603" lon="11.9869442"><ele>391.0</ele><time>2026-04-11T17:35:52.328Z</time></trkpt><trkpt lat="42.6501212" lon="11.9868083"><ele>391.0</ele><time>2026-04-11T17:35:53.332Z</time></trkpt><trkpt lat="42.6500926" lon="11.9866784"><ele>391.0</ele><time>2026-04-11T17:35:54.362Z</time></trkpt><trkpt lat="42.6500534" lon="11.9865409"><ele>391.0</ele><time>2026-04-11T17:35:55.351Z</time></trkpt><trkpt lat="42.6500403" lon="11.986403"><ele>391.0</ele><time>2026-04-11T17:35:56.349Z</time></trkpt><trkpt lat="42.6500487" lon="11.9862771"><ele>391.0</ele><time>2026-04-11T17:35:57.337Z</time></trkpt><trkpt lat="42.6500884" lon="11.9861597"><ele>390.8</ele><time>2026-04-11T17:35:58.34Z</time></trkpt><trkpt lat="42.6501493" lon="11.9860536"><ele>390.6</ele><time>2026-04-11T17:35:59.333Z</time></trkpt><trkpt lat="42.6502174" lon="11.9859663"><ele>390.4</ele><time>2026-04-11T17:36:00.362Z</time></trkpt><trkpt lat="42.6502872" lon="11.9858679"><ele>390.2</ele><time>2026-04-11T17:36:01.347Z</time></trkpt><trkpt lat="42.6503597" lon="11.9857604"><ele>390.0</ele><time>2026-04-11T17:36:02.346Z</time></trkpt><trkpt lat="42.6504334" lon="11.9856474"><ele>390.5</ele><time>2026-04-11T17:36:03.326Z</time></trkpt><trkpt lat="42.6505086" lon="11.9855338"><ele>391.0</ele><time>2026-04-11T17:36:04.346Z</time></trkpt><trkpt lat="42.6505875" lon="11.9854102"><ele>391.5</ele><time>2026-04-11T17:36:05.348Z</time></trkpt><trkpt lat="42.6506735" lon="11.9852943"><ele>392.0</ele><time>2026-04-11T17:36:06.338Z</time></trkpt><trkpt lat="42.6507522" lon="11.9851778"><ele>392.0</ele><time>2026-04-11T17:36:07.335Z</time></trkpt><trkpt lat="42.6508384" lon="11.9850615"><ele>392.0</ele><time>2026-04-11T17:36:08.346Z</time></trkpt><trkpt lat="42.6509208" lon="11.9849394"><ele>392.0</ele><time>2026-04-11T17:36:09.333Z</time></trkpt><trkpt lat="42.6509856" lon="11.9848104"><ele>392.0</ele><time>2026-04-11T17:36:10.351Z</time></trkpt><trkpt lat="42.6510159" lon="11.984673"><ele>390.6</ele><time>2026-04-11T17:36:11.351Z</time></trkpt><trkpt lat="42.6509954" lon="11.9845577"><ele>389.20000000000005</ele><time>2026-04-11T17:36:12.356Z</time></trkpt><trkpt lat="42.6509514" lon="11.9844276"><ele>387.8</ele><time>2026-04-11T17:36:13.364Z</time></trkpt><trkpt lat="42.6508724" lon="11.9843582"><ele>386.4</ele><time>2026-04-11T17:36:14.339Z</time></trkpt><trkpt lat="42.6507577" lon="11.9843409"><ele>385.0</ele><time>2026-04-11T17:36:15.355Z</time></trkpt><trkpt lat="42.6506471" lon="11.9843598"><ele>385.0</ele><time>2026-04-11T17:36:16.345Z</time></trkpt><trkpt lat="42.6505617" lon="11.9844058"><ele>385.0</ele><time>2026-04-11T17:36:17.358Z</time></trkpt><trkpt lat="42.6504899" lon="11.9844918"><ele>385.0</ele><time>2026-04-11T17:36:18.366Z</time></trkpt><trkpt lat="42.6504165" lon="11.984582"><ele>385.0</ele><time>2026-04-11T17:36:19.352Z</time></trkpt><trkpt lat="42.6503437" lon="11.9846727"><ele>385.0</ele><time>2026-04-11T17:36:20.353Z</time></trkpt><trkpt lat="42.6502654" lon="11.9847688"><ele>385.0</ele><time>2026-04-11T17:36:21.35Z</time></trkpt><trkpt lat="42.650185" lon="11.9848608"><ele>385.0</ele><time>2026-04-11T17:36:22.345Z</time></trkpt><trkpt lat="42.6500982" lon="11.9849617"><ele>385.0</ele><time>2026-04-11T17:36:23.326Z</time></trkpt><trkpt lat="42.6500124" lon="11.98506"><ele>385.0</ele><time>2026-04-11T17:36:24.355Z</time></trkpt><trkpt lat="42.6499244" lon="11.9851623"><ele>385.0</ele><time>2026-04-11T17:36:25.334Z</time></trkpt><trkpt lat="42.6498321" lon="11.9852722"><ele>385.0</ele><time>2026-04-11T17:36:26.349Z</time></trkpt><trkpt lat="42.6497419" lon="11.9853854"><ele>385.0</ele><time>2026-04-11T17:36:27.349Z</time></trkpt><trkpt lat="42.6496496" lon="11.9854926"><ele>385.0</ele><time>2026-04-11T17:36:28.352Z</time></trkpt><trkpt lat="42.6495516" lon="11.985593"><ele>385.0</ele><time>2026-04-11T17:36:29.362Z</time></trkpt><trkpt lat="42.6494436" lon="11.9856925"><ele>383.0</ele><time>2026-04-11T17:36:30.353Z</time></trkpt><trkpt lat="42.6493263" lon="11.9857932"><ele>381.0</ele><time>2026-04-11T17:36:31.354Z</time></trkpt><trkpt lat="42.6492151" lon="11.985883"><ele>379.0</ele><time>2026-04-11T17:36:32.348Z</time></trkpt><trkpt lat="42.6491035" lon="11.9859752"><ele>377.0</ele><time>2026-04-11T17:36:33.359Z</time></trkpt><trkpt lat="42.6490015" lon="11.9860679"><ele>377.0</ele><time>2026-04-11T17:36:34.354Z</time></trkpt><trkpt lat="42.6488982" lon="11.9861552"><ele>377.0</ele><time>2026-04-11T17:36:35.348Z</time></trkpt><trkpt lat="42.6487907" lon="11.9862463"><ele>377.0</ele><time>2026-04-11T17:36:36.327Z</time></trkpt><trkpt lat="42.648687" lon="11.9863282"><ele>377.0</ele><time>2026-04-11T17:36:37.347Z</time></trkpt><trkpt lat="42.6485838" lon="11.986419"><ele>375.5</ele><time>2026-04-11T17:36:38.325Z</time></trkpt><trkpt lat="42.6484877" lon="11.9865095"><ele>374.0</ele><time>2026-04-11T17:36:39.357Z</time></trkpt><trkpt lat="42.6483876" lon="11.986606"><ele>372.5</ele><time>2026-04-11T17:36:40.349Z</time></trkpt><trkpt lat="42.6482889" lon="11.986689"><ele>371.0</ele><time>2026-04-11T17:36:41.336Z</time></trkpt><trkpt lat="42.6482005" lon="11.9867697"><ele>371.0</ele><time>2026-04-11T17:36:42.336Z</time></trkpt><trkpt lat="42.6481109" lon="11.9868229"><ele>371.0</ele><time>2026-04-11T17:36:43.335Z</time></trkpt><trkpt lat="42.6480155" lon="11.9868406"><ele>371.0</ele><time>2026-04-11T17:36:44.329Z</time></trkpt><trkpt lat="42.6479308" lon="11.9867952"><ele>371.0</ele><time>2026-04-11T17:36:45.32Z</time></trkpt><trkpt lat="42.6478367" lon="11.9867066"><ele>371.0</ele><time>2026-04-11T17:36:46.345Z</time></trkpt><trkpt lat="42.647761" lon="11.9866018"><ele>369.75</ele><time>2026-04-11T17:36:47.337Z</time></trkpt><trkpt lat="42.6476676" lon="11.9864961"><ele>368.5</ele><time>2026-04-11T17:36:48.346Z</time></trkpt><trkpt lat="42.6475742" lon="11.9863798"><ele>367.25</ele><time>2026-04-11T17:36:49.357Z</time></trkpt><trkpt lat="42.6474869" lon="11.9862827"><ele>366.0</ele><time>2026-04-11T17:36:50.369Z</time></trkpt><trkpt lat="42.6474058" lon="11.9861701"><ele>366.0</ele><time>2026-04-11T17:36:51.35Z</time></trkpt><trkpt lat="42.6473264" lon="11.9860644"><ele>366.0</ele><time>2026-04-11T17:36:52.335Z</time></trkpt><trkpt lat="42.6472435" lon="11.9859842"><ele>366.0</ele><time>2026-04-11T17:36:53.347Z</time></trkpt><trkpt lat="42.6471542" lon="11.9859161"><ele>366.0</ele><time>2026-04-11T17:36:54.349Z</time></trkpt><trkpt lat="42.6470532" lon="11.9858617"><ele>366.0</ele><time>2026-04-11T17:36:55.332Z</time></trkpt><trkpt lat="42.6469542" lon="11.9858076"><ele>364.20000000000005</ele><time>2026-04-11T17:36:56.346Z</time></trkpt><trkpt lat="42.6468653" lon="11.9857754"><ele>362.40000000000003</ele><time>2026-04-11T17:36:57.347Z</time></trkpt><trkpt lat="42.6467772" lon="11.9857424"><ele>360.6</ele><time>2026-04-11T17:36:58.343Z</time></trkpt><trkpt lat="42.6466909" lon="11.9857108"><ele>358.8</ele><time>2026-04-11T17:36:59.35Z</time></trkpt><trkpt lat="42.6466006" lon="11.9856988"><ele>357.0</ele><time>2026-04-11T17:37:00.339Z</time></trkpt><trkpt lat="42.6465126" lon="11.9857062"><ele>357.0</ele><time>2026-04-11T17:37:01.338Z</time></trkpt><trkpt lat="42.646437" lon="11.9857461"><ele>357.0</ele><time>2026-04-11T17:37:02.338Z</time></trkpt><trkpt lat="42.6463727" lon="11.9858082"><ele>357.0</ele><time>2026-04-11T17:37:03.352Z</time></trkpt><trkpt lat="42.6463292" lon="11.9859013"><ele>357.0</ele><time>2026-04-11T17:37:04.355Z</time></trkpt><trkpt lat="42.6463107" lon="11.9860081"><ele>357.0</ele><time>2026-04-11T17:37:05.354Z</time></trkpt><trkpt lat="42.6462922" lon="11.9861442"><ele>357.0</ele><time>2026-04-11T17:37:06.329Z</time></trkpt><trkpt lat="42.646275" lon="11.9862742"><ele>357.8</ele><time>2026-04-11T17:37:07.342Z</time></trkpt><trkpt lat="42.6462572" lon="11.9864043"><ele>358.6</ele><time>2026-04-11T17:37:08.332Z</time></trkpt><trkpt lat="42.6462435" lon="11.9865281"><ele>359.40000000000003</ele><time>2026-04-11T17:37:09.332Z</time></trkpt><trkpt lat="42.646231" lon="11.9866527"><ele>360.20000000000005</ele><time>2026-04-11T17:37:10.336Z</time></trkpt><trkpt lat="42.6462278" lon="11.9867756"><ele>361.0</ele><time>2026-04-11T17:37:11.337Z</time></trkpt><trkpt lat="42.6462342" lon="11.9869"><ele>361.0</ele><time>2026-04-11T17:37:12.329Z</time></trkpt><trkpt lat="42.6462449" lon="11.9870125"><ele>361.0</ele><time>2026-04-11T17:37:13.35Z</time></trkpt><trkpt lat="42.6462548" lon="11.9871217"><ele>361.0</ele><time>2026-04-11T17:37:14.356Z</time></trkpt><trkpt lat="42.646266" lon="11.9872367"><ele>361.0</ele><time>2026-04-11T17:37:15.33Z</time></trkpt><trkpt lat="42.6462763" lon="11.9873574"><ele>361.0</ele><time>2026-04-11T17:37:16.336Z</time></trkpt><trkpt lat="42.6462892" lon="11.9874947"><ele>361.0</ele><time>2026-04-11T17:37:17.342Z</time></trkpt><trkpt lat="42.6462997" lon="11.987629"><ele>360.0</ele><time>2026-04-11T17:37:18.321Z</time></trkpt><trkpt lat="42.6463211" lon="11.9877566"><ele>359.0</ele><time>2026-04-11T17:37:19.346Z</time></trkpt><trkpt lat="42.6463652" lon="11.9878852"><ele>358.0</ele><time>2026-04-11T17:37:20.354Z</time></trkpt><trkpt lat="42.6464338" lon="11.9880008"><ele>357.0</ele><time>2026-04-11T17:37:21.355Z</time></trkpt><trkpt lat="42.6465312" lon="11.9880877"><ele>356.0</ele><time>2026-04-11T17:37:22.342Z</time></trkpt><trkpt lat="42.646619" lon="11.9881797"><ele>356.0</ele><time>2026-04-11T17:37:23.353Z</time></trkpt><trkpt lat="42.6466967" lon="11.9882718"><ele>356.0</ele><time>2026-04-11T17:37:24.341Z</time></trkpt><trkpt lat="42.6467403" lon="11.9883686"><ele>356.0</ele><time>2026-04-11T17:37:25.351Z</time></trkpt><trkpt lat="42.6467548" lon="11.9884623"><ele>356.0</ele><time>2026-04-11T17:37:26.35Z</time></trkpt><trkpt lat="42.6467314" lon="11.9885507"><ele>356.0</ele><time>2026-04-11T17:37:27.362Z</time></trkpt><trkpt lat="42.6466373" lon="11.9886426"><ele>356.0</ele><time>2026-04-11T17:37:29.34Z</time></trkpt><trkpt lat="42.6465698" lon="11.9886458"><ele>356.0</ele><time>2026-04-11T17:37:30.366Z</time></trkpt><trkpt lat="42.6464941" lon="11.9886223"><ele>356.0</ele><time>2026-04-11T17:37:31.351Z</time></trkpt><trkpt lat="42.6464212" lon="11.988568"><ele>356.0</ele><time>2026-04-11T17:37:32.338Z</time></trkpt><trkpt lat="42.6463381" lon="11.9884919"><ele>356.0</ele><time>2026-04-11T17:37:33.338Z</time></trkpt><trkpt lat="42.64626" lon="11.9884078"><ele>356.0</ele><time>2026-04-11T17:37:34.339Z</time></trkpt><trkpt lat="42.6461867" lon="11.9883342"><ele>354.1666666666667</ele><time>2026-04-11T17:37:35.337Z</time></trkpt><trkpt lat="42.6461237" lon="11.988251"><ele>352.33333333333337</ele><time>2026-04-11T17:37:36.338Z</time></trkpt><trkpt lat="42.6460721" lon="11.9881638"><ele>350.5</ele><time>2026-04-11T17:37:37.343Z</time></trkpt><trkpt lat="42.6460443" lon="11.9880591"><ele>348.6666666666667</ele><time>2026-04-11T17:37:38.34Z</time></trkpt><trkpt lat="42.6460411" lon="11.9879363"><ele>346.8333333333333</ele><time>2026-04-11T17:37:39.333Z</time></trkpt><trkpt lat="42.6460515" lon="11.9878185"><ele>345.0</ele><time>2026-04-11T17:37:40.324Z</time></trkpt><trkpt lat="42.6460694" lon="11.987706"><ele>345.0</ele><time>2026-04-11T17:37:41.355Z</time></trkpt><trkpt lat="42.6460943" lon="11.98757"><ele>345.0</ele><time>2026-04-11T17:37:42.351Z</time></trkpt><trkpt lat="42.6460989" lon="11.9874475"><ele>345.0</ele><time>2026-04-11T17:37:43.35Z</time></trkpt><trkpt lat="42.6460838" lon="11.987342"><ele>345.0</ele><time>2026-04-11T17:37:44.343Z</time></trkpt><trkpt lat="42.6460435" lon="11.9872611"><ele>345.0</ele><time>2026-04-11T17:37:45.349Z</time></trkpt><trkpt lat="42.6459891" lon="11.9872036"><ele>345.0</ele><time>2026-04-11T17:37:46.321Z</time></trkpt><trkpt lat="42.6458703" lon="11.9872075"><ele>345.0</ele><time>2026-04-11T17:37:48.346Z</time></trkpt><trkpt lat="42.6458146" lon="11.9872481"><ele>345.0</ele><time>2026-04-11T17:37:49.357Z</time></trkpt><trkpt lat="42.645774" lon="11.9873173"><ele>345.0</ele><time>2026-04-11T17:37:50.345Z</time></trkpt><trkpt lat="42.6457783" lon="11.9874666"><ele>345.0</ele><time>2026-04-11T17:37:52.342Z</time></trkpt><trkpt lat="42.6457933" lon="11.9875499"><ele>345.0</ele><time>2026-04-11T17:37:53.334Z</time></trkpt><trkpt lat="42.645806" lon="11.987639"><ele>345.0</ele><time>2026-04-11T17:37:54.35Z</time></trkpt><trkpt lat="42.6457917" lon="11.9877928"><ele>345.0</ele><time>2026-04-11T17:37:56.339Z</time></trkpt><trkpt lat="42.6457591" lon="11.9878697"><ele>345.0</ele><time>2026-04-11T17:37:57.353Z</time></trkpt><trkpt lat="42.6456928" lon="11.9879121"><ele>345.0</ele><time>2026-04-11T17:37:58.333Z</time></trkpt><trkpt lat="42.6456108" lon="11.9879269"><ele>345.0</ele><time>2026-04-11T17:37:59.331Z</time></trkpt><trkpt lat="42.6455392" lon="11.9878862"><ele>345.0</ele><time>2026-04-11T17:38:00.331Z</time></trkpt><trkpt lat="42.6454824" lon="11.98781"><ele>345.0</ele><time>2026-04-11T17:38:01.337Z</time></trkpt><trkpt lat="42.6454411" lon="11.9877343"><ele>345.0</ele><time>2026-04-11T17:38:02.333Z</time></trkpt><trkpt lat="42.645395" lon="11.9876584"><ele>345.0</ele><time>2026-04-11T17:38:03.345Z</time></trkpt><trkpt lat="42.6453458" lon="11.9875931"><ele>345.0</ele><time>2026-04-11T17:38:04.332Z</time></trkpt><trkpt lat="42.645274" lon="11.987556"><ele>345.0</ele><time>2026-04-11T17:38:05.346Z</time></trkpt><trkpt lat="42.6451513" lon="11.987606"><ele>345.0</ele><time>2026-04-11T17:38:07.342Z</time></trkpt><trkpt lat="42.6450911" lon="11.9876566"><ele>345.0</ele><time>2026-04-11T17:38:08.345Z</time></trkpt><trkpt lat="42.6450322" lon="11.9877179"><ele>345.0</ele><time>2026-04-11T17:38:09.33Z</time></trkpt><trkpt lat="42.6449681" lon="11.9877801"><ele>343.6666666666667</ele><time>2026-04-11T17:38:10.341Z</time></trkpt><trkpt lat="42.6448969" lon="11.9878547"><ele>342.3333333333333</ele><time>2026-04-11T17:38:11.34Z</time></trkpt><trkpt lat="42.6448263" lon="11.9879316"><ele>341.0</ele><time>2026-04-11T17:38:12.344Z</time></trkpt><trkpt lat="42.6447666" lon="11.9879866"><ele>339.66666666666663</ele><time>2026-04-11T17:38:13.335Z</time></trkpt><trkpt lat="42.6446561" lon="11.9880459"><ele>338.3333333333333</ele><time>2026-04-11T17:38:15.351Z</time></trkpt><trkpt lat="42.6445912" lon="11.9880462"><ele>337.0</ele><time>2026-04-11T17:38:16.338Z</time></trkpt><trkpt lat="42.6445323" lon="11.9880098"><ele>337.0</ele><time>2026-04-11T17:38:17.329Z</time></trkpt><trkpt lat="42.6444523" lon="11.9878779"><ele>337.0</ele><time>2026-04-11T17:38:19.349Z</time></trkpt><trkpt lat="42.6444471" lon="11.9877469"><ele>337.0</ele><time>2026-04-11T17:38:21.365Z</time></trkpt><trkpt lat="42.6444667" lon="11.9876284"><ele>337.0</ele><time>2026-04-11T17:38:23.343Z</time></trkpt><trkpt lat="42.6444892" lon="11.9875055"><ele>337.0</ele><time>2026-04-11T17:38:25.344Z</time></trkpt><trkpt lat="42.6445089" lon="11.9874077"><ele>335.40000000000003</ele><time>2026-04-11T17:38:27.367Z</time></trkpt><trkpt lat="42.644518" lon="11.987322"><ele>333.8</ele><time>2026-04-11T17:38:29.344Z</time></trkpt><trkpt lat="42.6445182" lon="11.9871907"><ele>332.2</ele><time>2026-04-11T17:38:31.341Z</time></trkpt><trkpt lat="42.6444875" lon="11.9870592"><ele>330.6</ele><time>2026-04-11T17:38:33.346Z</time></trkpt><trkpt lat="42.6444236" lon="11.9869444"><ele>329.0</ele><time>2026-04-11T17:38:35.363Z</time></trkpt><trkpt lat="42.6443602" lon="11.9868405"><ele>328.1666666666667</ele><time>2026-04-11T17:38:37.337Z</time></trkpt><trkpt lat="42.6442977" lon="11.986738"><ele>327.33333333333337</ele><time>2026-04-11T17:38:39.355Z</time></trkpt><trkpt lat="42.644254" lon="11.9866647"><ele>326.5</ele><time>2026-04-11T17:38:41.335Z</time></trkpt><trkpt lat="42.6442234" lon="11.9865758"><ele>325.6666666666667</ele><time>2026-04-11T17:38:46.344Z</time></trkpt><trkpt lat="42.6441545" lon="11.986532"><ele>324.8333333333333</ele><time>2026-04-11T17:39:47.351Z</time></trkpt><trkpt lat="42.6440795" lon="11.9865253"><ele>324.0</ele><time>2026-04-11T17:39:48.347Z</time></trkpt><trkpt lat="42.6439901" lon="11.9865669"><ele>324.0</ele><time>2026-04-11T17:39:49.346Z</time></trkpt><trkpt lat="42.6439019" lon="11.986668"><ele>324.0</ele><time>2026-04-11T17:39:50.348Z</time></trkpt><trkpt lat="42.6438157" lon="11.986791"><ele>324.0</ele><time>2026-04-11T17:39:51.362Z</time></trkpt><trkpt lat="42.6437147" lon="11.9869061"><ele>324.0</ele><time>2026-04-11T17:39:52.351Z</time></trkpt><trkpt lat="42.6436078" lon="11.9870286"><ele>322.5</ele><time>2026-04-11T17:39:53.357Z</time></trkpt><trkpt lat="42.6434992" lon="11.987153"><ele>321.0</ele><time>2026-04-11T17:39:54.355Z</time></trkpt><trkpt lat="42.6433962" lon="11.9872681"><ele>319.5</ele><time>2026-04-11T17:39:55.36Z</time></trkpt><trkpt lat="42.6432944" lon="11.9873792"><ele>318.0</ele><time>2026-04-11T17:39:56.339Z</time></trkpt><trkpt lat="42.6431908" lon="11.9874877"><ele>318.75</ele><time>2026-04-11T17:39:57.347Z</time></trkpt><trkpt lat="42.6430867" lon="11.9875909"><ele>319.5</ele><time>2026-04-11T17:39:58.347Z</time></trkpt><trkpt lat="42.6429836" lon="11.9877057"><ele>320.25</ele><time>2026-04-11T17:39:59.352Z</time></trkpt><trkpt lat="42.6428777" lon="11.9878156"><ele>321.0</ele><time>2026-04-11T17:40:00.356Z</time></trkpt><trkpt lat="42.6427748" lon="11.9879262"><ele>320.5</ele><time>2026-04-11T17:40:01.364Z</time></trkpt><trkpt lat="42.642668" lon="11.9880322"><ele>320.0</ele><time>2026-04-11T17:40:02.351Z</time></trkpt><trkpt lat="42.6425565" lon="11.9881408"><ele>319.5</ele><time>2026-04-11T17:40:03.353Z</time></trkpt><trkpt lat="42.6424469" lon="11.9882521"><ele>319.0</ele><time>2026-04-11T17:40:04.347Z</time></trkpt><trkpt lat="42.6423423" lon="11.9883646"><ele>319.0</ele><time>2026-04-11T17:40:05.357Z</time></trkpt><trkpt lat="42.642243" lon="11.988484"><ele>319.0</ele><time>2026-04-11T17:40:06.358Z</time></trkpt><trkpt lat="42.6421467" lon="11.988612"><ele>319.0</ele><time>2026-04-11T17:40:07.35Z</time></trkpt><trkpt lat="42.6420594" lon="11.988747"><ele>319.0</ele><time>2026-04-11T17:40:08.346Z</time></trkpt><trkpt lat="42.6419798" lon="11.9888816"><ele>319.25</ele><time>2026-04-11T17:40:09.352Z</time></trkpt><trkpt lat="42.6419077" lon="11.9890231"><ele>319.5</ele><time>2026-04-11T17:40:10.356Z</time></trkpt><trkpt lat="42.6418227" lon="11.9891653"><ele>319.75</ele><time>2026-04-11T17:40:11.345Z</time></trkpt><trkpt lat="42.6417392" lon="11.98931"><ele>320.0</ele><time>2026-04-11T17:40:12.347Z</time></trkpt><trkpt lat="42.6416506" lon="11.9894561"><ele>320.0</ele><time>2026-04-11T17:40:13.357Z</time></trkpt><trkpt lat="42.6415609" lon="11.9896035"><ele>320.0</ele><time>2026-04-11T17:40:14.352Z</time></trkpt><trkpt lat="42.6414744" lon="11.9897535"><ele>320.0</ele><time>2026-04-11T17:40:15.364Z</time></trkpt><trkpt lat="42.6413876" lon="11.9899059"><ele>320.0</ele><time>2026-04-11T17:40:16.357Z</time></trkpt><trkpt lat="42.6412954" lon="11.9900566"><ele>320.0</ele><time>2026-04-11T17:40:17.35Z</time></trkpt><trkpt lat="42.641203" lon="11.9901873"><ele>320.0</ele><time>2026-04-11T17:40:18.355Z</time></trkpt><trkpt lat="42.6411074" lon="11.9903102"><ele>320.0</ele><time>2026-04-11T17:40:19.353Z</time></trkpt><trkpt lat="42.6409997" lon="11.9904201"><ele>320.0</ele><time>2026-04-11T17:40:20.349Z</time></trkpt><trkpt lat="42.6408839" lon="11.990523"><ele>320.0</ele><time>2026-04-11T17:40:21.351Z</time></trkpt><trkpt lat="42.6407585" lon="11.9906198"><ele>320.0</ele><time>2026-04-11T17:40:22.354Z</time></trkpt><trkpt lat="42.6406349" lon="11.9907135"><ele>320.0</ele><time>2026-04-11T17:40:23.361Z</time></trkpt><trkpt lat="42.6405121" lon="11.9908077"><ele>320.0</ele><time>2026-04-11T17:40:24.342Z</time></trkpt><trkpt lat="42.6403913" lon="11.9909031"><ele>320.0</ele><time>2026-04-11T17:40:25.359Z</time></trkpt><trkpt lat="42.6402702" lon="11.9910065"><ele>320.0</ele><time>2026-04-11T17:40:26.342Z</time></trkpt><trkpt lat="42.6401508" lon="11.9911111"><ele>320.0</ele><time>2026-04-11T17:40:27.35Z</time></trkpt><trkpt lat="42.6400243" lon="11.9912174"><ele>320.0</ele><time>2026-04-11T17:40:28.35Z</time></trkpt><trkpt lat="42.6398947" lon="11.9913235"><ele>320.0</ele><time>2026-04-11T17:40:29.357Z</time></trkpt><trkpt lat="42.6397564" lon="11.9914507"><ele>320.0</ele><time>2026-04-11T17:40:30.355Z</time></trkpt><trkpt lat="42.6396306" lon="11.9915649"><ele>320.0</ele><time>2026-04-11T17:40:31.338Z</time></trkpt><trkpt lat="42.6395093" lon="11.9916933"><ele>321.0</ele><time>2026-04-11T17:40:32.35Z</time></trkpt><trkpt lat="42.639389" lon="11.9918339"><ele>322.0</ele><time>2026-04-11T17:40:33.359Z</time></trkpt><trkpt lat="42.6392678" lon="11.9919868"><ele>323.0</ele><time>2026-04-11T17:40:34.353Z</time></trkpt><trkpt lat="42.6391429" lon="11.992149"><ele>323.0</ele><time>2026-04-11T17:40:35.355Z</time></trkpt><trkpt lat="42.6390182" lon="11.9923108"><ele>323.0</ele><time>2026-04-11T17:40:36.357Z</time></trkpt><trkpt lat="42.6388927" lon="11.9924722"><ele>323.0</ele><time>2026-04-11T17:40:37.354Z</time></trkpt><trkpt lat="42.6387632" lon="11.9926334"><ele>321.6666666666667</ele><time>2026-04-11T17:40:38.339Z</time></trkpt><trkpt lat="42.6386284" lon="11.9927907"><ele>320.3333333333333</ele><time>2026-04-11T17:40:39.354Z</time></trkpt><trkpt lat="42.6384835" lon="11.9929343"><ele>319.0</ele><time>2026-04-11T17:40:40.347Z</time></trkpt><trkpt lat="42.6383269" lon="11.9930648"><ele>319.0</ele><time>2026-04-11T17:40:41.335Z</time></trkpt><trkpt lat="42.6381671" lon="11.9931909"><ele>319.0</ele><time>2026-04-11T17:40:42.344Z</time></trkpt><trkpt lat="42.6380088" lon="11.9933163"><ele>319.0</ele><time>2026-04-11T17:40:43.354Z</time></trkpt><trkpt lat="42.6378614" lon="11.9934399"><ele>318.3333333333333</ele><time>2026-04-11T17:40:44.351Z</time></trkpt><trkpt lat="42.6377273" lon="11.9935594"><ele>317.6666666666667</ele><time>2026-04-11T17:40:45.344Z</time></trkpt><trkpt lat="42.6375989" lon="11.9936778"><ele>317.0</ele><time>2026-04-11T17:40:46.35Z</time></trkpt><trkpt lat="42.6374625" lon="11.9937958"><ele>317.0</ele><time>2026-04-11T17:40:47.333Z</time></trkpt><trkpt lat="42.6373202" lon="11.9939178"><ele>317.0</ele><time>2026-04-11T17:40:48.338Z</time></trkpt><trkpt lat="42.6371841" lon="11.9940382"><ele>317.0</ele><time>2026-04-11T17:40:49.355Z</time></trkpt><trkpt lat="42.6370616" lon="11.9941547"><ele>317.5</ele><time>2026-04-11T17:40:50.342Z</time></trkpt><trkpt lat="42.6369421" lon="11.9942568"><ele>318.0</ele><time>2026-04-11T17:40:51.365Z</time></trkpt><trkpt lat="42.6368271" lon="11.9943477"><ele>318.5</ele><time>2026-04-11T17:40:52.346Z</time></trkpt><trkpt lat="42.6367114" lon="11.9944284"><ele>319.0</ele><time>2026-04-11T17:40:53.358Z</time></trkpt><trkpt lat="42.6365881" lon="11.9944986"><ele>319.0</ele><time>2026-04-11T17:40:54.346Z</time></trkpt><trkpt lat="42.6364573" lon="11.9945697"><ele>319.0</ele><time>2026-04-11T17:40:55.352Z</time></trkpt><trkpt lat="42.6363216" lon="11.9946358"><ele>319.0</ele><time>2026-04-11T17:40:56.359Z</time></trkpt><trkpt lat="42.6361735" lon="11.9946981"><ele>319.0</ele><time>2026-04-11T17:40:57.35Z</time></trkpt><trkpt lat="42.6360189" lon="11.9947548"><ele>317.3333333333333</ele><time>2026-04-11T17:40:58.359Z</time></trkpt><trkpt lat="42.6358613" lon="11.9948096"><ele>315.6666666666667</ele><time>2026-04-11T17:40:59.355Z</time></trkpt><trkpt lat="42.6356942" lon="11.9948574"><ele>314.0</ele><time>2026-04-11T17:41:00.329Z</time></trkpt><trkpt lat="42.6355232" lon="11.9949099"><ele>314.0</ele><time>2026-04-11T17:41:01.354Z</time></trkpt><trkpt lat="42.6353432" lon="11.9949689"><ele>314.0</ele><time>2026-04-11T17:41:02.349Z</time></trkpt><trkpt lat="42.6351663" lon="11.995025"><ele>314.0</ele><time>2026-04-11T17:41:03.361Z</time></trkpt><trkpt lat="42.6349809" lon="11.9950827"><ele>315.33333333333337</ele><time>2026-04-11T17:41:04.363Z</time></trkpt><trkpt lat="42.6347922" lon="11.9951532"><ele>316.6666666666667</ele><time>2026-04-11T17:41:05.362Z</time></trkpt><trkpt lat="42.6346061" lon="11.995239"><ele>318.0</ele><time>2026-04-11T17:41:06.353Z</time></trkpt><trkpt lat="42.6344317" lon="11.9953483"><ele>318.0</ele><time>2026-04-11T17:41:07.36Z</time></trkpt><trkpt lat="42.6342619" lon="11.995475"><ele>318.0</ele><time>2026-04-11T17:41:08.347Z</time></trkpt><trkpt lat="42.6340926" lon="11.9956192"><ele>318.0</ele><time>2026-04-11T17:41:09.367Z</time></trkpt><trkpt lat="42.6339223" lon="11.9957638"><ele>322.0</ele><time>2026-04-11T17:41:10.34Z</time></trkpt><trkpt lat="42.6337517" lon="11.9959124"><ele>326.0</ele><time>2026-04-11T17:41:11.339Z</time></trkpt><trkpt lat="42.6335843" lon="11.9960641"><ele>330.0</ele><time>2026-04-11T17:41:12.35Z</time></trkpt><trkpt lat="42.633417" lon="11.9962176"><ele>330.0</ele><time>2026-04-11T17:41:13.361Z</time></trkpt><trkpt lat="42.6332536" lon="11.9963737"><ele>330.0</ele><time>2026-04-11T17:41:14.363Z</time></trkpt><trkpt lat="42.6330892" lon="11.9965247"><ele>330.0</ele><time>2026-04-11T17:41:15.348Z</time></trkpt><trkpt lat="42.6329251" lon="11.9966624"><ele>333.3333333333333</ele><time>2026-04-11T17:41:16.341Z</time></trkpt><trkpt lat="42.6327525" lon="11.9967926"><ele>336.66666666666663</ele><time>2026-04-11T17:41:17.353Z</time></trkpt><trkpt lat="42.6325765" lon="11.9969126"><ele>340.0</ele><time>2026-04-11T17:41:18.366Z</time></trkpt><trkpt lat="42.6324027" lon="11.9970318"><ele>340.0</ele><time>2026-04-11T17:41:19.346Z</time></trkpt><trkpt lat="42.6322258" lon="11.9971469"><ele>340.0</ele><time>2026-04-11T17:41:20.341Z</time></trkpt><trkpt lat="42.632045" lon="11.9972556"><ele>340.0</ele><time>2026-04-11T17:41:21.352Z</time></trkpt><trkpt lat="42.6318649" lon="11.9973628"><ele>344.0</ele><time>2026-04-11T17:41:22.348Z</time></trkpt><trkpt lat="42.6316844" lon="11.9974714"><ele>348.0</ele><time>2026-04-11T17:41:23.352Z</time></trkpt><trkpt lat="42.6314996" lon="11.9975854"><ele>352.0</ele><time>2026-04-11T17:41:24.349Z</time></trkpt><trkpt lat="42.6313204" lon="11.9976886"><ele>347.66666666666663</ele><time>2026-04-11T17:41:25.349Z</time></trkpt><trkpt lat="42.6311386" lon="11.9977921"><ele>343.3333333333333</ele><time>2026-04-11T17:41:26.331Z</time></trkpt><trkpt lat="42.6309511" lon="11.9978845"><ele>339.0</ele><time>2026-04-11T17:41:27.339Z</time></trkpt><trkpt lat="42.6307633" lon="11.9979737"><ele>339.0</ele><time>2026-04-11T17:41:28.346Z</time></trkpt><trkpt lat="42.6305741" lon="11.9980476"><ele>339.0</ele><time>2026-04-11T17:41:29.357Z</time></trkpt><trkpt lat="42.630386" lon="11.998117"><ele>339.0</ele><time>2026-04-11T17:41:30.344Z</time></trkpt><trkpt lat="42.6301973" lon="11.9981816"><ele>334.6666666666667</ele><time>2026-04-11T17:41:31.355Z</time></trkpt><trkpt lat="42.6300101" lon="11.9982333"><ele>330.33333333333337</ele><time>2026-04-11T17:41:32.345Z</time></trkpt><trkpt lat="42.6298181" lon="11.9982672"><ele>326.0</ele><time>2026-04-11T17:41:33.353Z</time></trkpt><trkpt lat="42.6296217" lon="11.9982838"><ele>323.33333333333337</ele><time>2026-04-11T17:41:34.348Z</time></trkpt><trkpt lat="42.6294266" lon="11.998298"><ele>320.6666666666667</ele><time>2026-04-11T17:41:35.338Z</time></trkpt><trkpt lat="42.6292251" lon="11.9983186"><ele>318.0</ele><time>2026-04-11T17:41:36.34Z</time></trkpt><trkpt lat="42.6290281" lon="11.9983631"><ele>323.0</ele><time>2026-04-11T17:41:37.334Z</time></trkpt><trkpt lat="42.6288327" lon="11.9984133"><ele>328.0</ele><time>2026-04-11T17:41:38.363Z</time></trkpt><trkpt lat="42.6286406" lon="11.9984687"><ele>333.0</ele><time>2026-04-11T17:41:39.356Z</time></trkpt><trkpt lat="42.6284508" lon="11.998533"><ele>333.0</ele><time>2026-04-11T17:41:40.359Z</time></trkpt><trkpt lat="42.6282584" lon="11.9986053"><ele>333.0</ele><time>2026-04-11T17:41:41.33Z</time></trkpt><trkpt lat="42.6280704" lon="11.9986953"><ele>333.0</ele><time>2026-04-11T17:41:42.352Z</time></trkpt><trkpt lat="42.62788" lon="11.998783"><ele>331.0</ele><time>2026-04-11T17:41:43.347Z</time></trkpt><trkpt lat="42.6276895" lon="11.9988639"><ele>329.0</ele><time>2026-04-11T17:41:44.331Z</time></trkpt><trkpt lat="42.6274967" lon="11.99894"><ele>327.0</ele><time>2026-04-11T17:41:45.351Z</time></trkpt><trkpt lat="42.6273046" lon="11.9990116"><ele>327.0</ele><time>2026-04-11T17:41:46.357Z</time></trkpt><trkpt lat="42.6271143" lon="11.999083"><ele>327.0</ele><time>2026-04-11T17:41:47.354Z</time></trkpt><trkpt lat="42.6269253" lon="11.999153"><ele>327.0</ele><time>2026-04-11T17:41:48.345Z</time></trkpt><trkpt lat="42.6267344" lon="11.9992175"><ele>332.3333333333333</ele><time>2026-04-11T17:41:49.365Z</time></trkpt><trkpt lat="42.626539" lon="11.9992632"><ele>337.66666666666663</ele><time>2026-04-11T17:41:50.357Z</time></trkpt><trkpt lat="42.6263375" lon="11.9992923"><ele>343.0</ele><time>2026-04-11T17:41:51.345Z</time></trkpt><trkpt lat="42.6261278" lon="11.9993074"><ele>343.0</ele><time>2026-04-11T17:41:52.345Z</time></trkpt><trkpt lat="42.625913" lon="11.9993158"><ele>343.0</ele><time>2026-04-11T17:41:53.339Z</time></trkpt><trkpt lat="42.6256935" lon="11.9993255"><ele>343.0</ele><time>2026-04-11T17:41:54.347Z</time></trkpt><trkpt lat="42.6254706" lon="11.9993342"><ele>339.0</ele><time>2026-04-11T17:41:55.36Z</time></trkpt><trkpt lat="42.6252536" lon="11.9993463"><ele>335.0</ele><time>2026-04-11T17:41:56.35Z</time></trkpt><trkpt lat="42.6250396" lon="11.9993546"><ele>331.0</ele><time>2026-04-11T17:41:57.36Z</time></trkpt><trkpt lat="42.6248245" lon="11.9993627"><ele>331.0</ele><time>2026-04-11T17:41:58.352Z</time></trkpt><trkpt lat="42.624609" lon="11.9993657"><ele>331.0</ele><time>2026-04-11T17:41:59.367Z</time></trkpt><trkpt lat="42.6243967" lon="11.9993686"><ele>331.0</ele><time>2026-04-11T17:42:00.365Z</time></trkpt><trkpt lat="42.6241961" lon="11.9993728"><ele>329.3333333333333</ele><time>2026-04-11T17:42:01.351Z</time></trkpt><trkpt lat="42.6240034" lon="11.9993699"><ele>327.6666666666667</ele><time>2026-04-11T17:42:02.352Z</time></trkpt><trkpt lat="42.6238038" lon="11.9993473"><ele>326.0</ele><time>2026-04-11T17:42:03.357Z</time></trkpt><trkpt lat="42.623612" lon="11.9993067"><ele>326.0</ele><time>2026-04-11T17:42:04.348Z</time></trkpt><trkpt lat="42.623429" lon="11.9992358"><ele>326.0</ele><time>2026-04-11T17:42:05.357Z</time></trkpt><trkpt lat="42.6232566" lon="11.9991281"><ele>326.0</ele><time>2026-04-11T17:42:06.35Z</time></trkpt><trkpt lat="42.6230886" lon="11.9989761"><ele>324.33333333333337</ele><time>2026-04-11T17:42:07.354Z</time></trkpt><trkpt lat="42.6229426" lon="11.9987971"><ele>322.6666666666667</ele><time>2026-04-11T17:42:08.363Z</time></trkpt><trkpt lat="42.6228085" lon="11.9986133"><ele>321.0</ele><time>2026-04-11T17:42:09.356Z</time></trkpt><trkpt lat="42.6226625" lon="11.9984531"><ele>319.6666666666667</ele><time>2026-04-11T17:42:10.331Z</time></trkpt><trkpt lat="42.6224886" lon="11.9983243"><ele>318.33333333333337</ele><time>2026-04-11T17:42:11.345Z</time></trkpt><trkpt lat="42.6222958" lon="11.998238"><ele>317.0</ele><time>2026-04-11T17:42:12.359Z</time></trkpt><trkpt lat="42.6220879" lon="11.9981933"><ele>317.33333333333337</ele><time>2026-04-11T17:42:13.354Z</time></trkpt><trkpt lat="42.6218726" lon="11.9981726"><ele>317.6666666666667</ele><time>2026-04-11T17:42:14.351Z</time></trkpt><trkpt lat="42.6216496" lon="11.9981543"><ele>318.0</ele><time>2026-04-11T17:42:15.351Z</time></trkpt><trkpt lat="42.6214296" lon="11.9981289"><ele>318.0</ele><time>2026-04-11T17:42:16.337Z</time></trkpt><trkpt lat="42.621202" lon="11.9981094"><ele>318.0</ele><time>2026-04-11T17:42:17.357Z</time></trkpt><trkpt lat="42.6209807" lon="11.9980987"><ele>318.0</ele><time>2026-04-11T17:42:18.349Z</time></trkpt><trkpt lat="42.6207644" lon="11.9980851"><ele>318.3333333333333</ele><time>2026-04-11T17:42:19.36Z</time></trkpt><trkpt lat="42.6205593" lon="11.9980716"><ele>318.66666666666663</ele><time>2026-04-11T17:42:20.345Z</time></trkpt><trkpt lat="42.6203706" lon="11.9980558"><ele>319.0</ele><time>2026-04-11T17:42:21.365Z</time></trkpt><trkpt lat="42.6201819" lon="11.9980152"><ele>320.3333333333333</ele><time>2026-04-11T17:42:22.362Z</time></trkpt><trkpt lat="42.6199906" lon="11.99795"><ele>321.6666666666667</ele><time>2026-04-11T17:42:23.356Z</time></trkpt><trkpt lat="42.6198004" lon="11.997845"><ele>323.0</ele><time>2026-04-11T17:42:24.346Z</time></trkpt><trkpt lat="42.6196224" lon="11.9977062"><ele>324.33333333333337</ele><time>2026-04-11T17:42:25.354Z</time></trkpt><trkpt lat="42.619455" lon="11.9975667"><ele>325.6666666666667</ele><time>2026-04-11T17:42:26.361Z</time></trkpt><trkpt lat="42.6192844" lon="11.9974238"><ele>327.0</ele><time>2026-04-11T17:42:27.352Z</time></trkpt><trkpt lat="42.6190971" lon="11.9973029"><ele>323.3333333333333</ele><time>2026-04-11T17:42:28.355Z</time></trkpt><trkpt lat="42.6188968" lon="11.9972003"><ele>319.66666666666663</ele><time>2026-04-11T17:42:29.368Z</time></trkpt><trkpt lat="42.6186894" lon="11.9971302"><ele>316.0</ele><time>2026-04-11T17:42:30.345Z</time></trkpt><trkpt lat="42.6184845" lon="11.997077"><ele>316.0</ele><time>2026-04-11T17:42:31.329Z</time></trkpt><trkpt lat="42.6182888" lon="11.9970216"><ele>316.0</ele><time>2026-04-11T17:42:32.348Z</time></trkpt><trkpt lat="42.6181024" lon="11.9969711"><ele>316.0</ele><time>2026-04-11T17:42:33.344Z</time></trkpt><trkpt lat="42.6179177" lon="11.9969203"><ele>316.3333333333333</ele><time>2026-04-11T17:42:34.349Z</time></trkpt><trkpt lat="42.6177268" lon="11.9968686"><ele>316.6666666666667</ele><time>2026-04-11T17:42:35.354Z</time></trkpt><trkpt lat="42.6175392" lon="11.9968171"><ele>317.0</ele><time>2026-04-11T17:42:36.352Z</time></trkpt><trkpt lat="42.6173498" lon="11.996769"><ele>317.0</ele><time>2026-04-11T17:42:37.362Z</time></trkpt><trkpt lat="42.6171683" lon="11.9967207"><ele>317.0</ele><time>2026-04-11T17:42:38.349Z</time></trkpt><trkpt lat="42.6170007" lon="11.9966714"><ele>317.0</ele><time>2026-04-11T17:42:39.346Z</time></trkpt><trkpt lat="42.6168436" lon="11.9966212"><ele>315.6666666666667</ele><time>2026-04-11T17:42:40.353Z</time></trkpt><trkpt lat="42.6166942" lon="11.9965532"><ele>314.3333333333333</ele><time>2026-04-11T17:42:41.333Z</time></trkpt><trkpt lat="42.6165488" lon="11.9964708"><ele>313.0</ele><time>2026-04-11T17:42:42.356Z</time></trkpt><trkpt lat="42.6164062" lon="11.9963646"><ele>313.0</ele><time>2026-04-11T17:42:43.349Z</time></trkpt><trkpt lat="42.6162659" lon="11.9962623"><ele>313.0</ele><time>2026-04-11T17:42:44.352Z</time></trkpt><trkpt lat="42.6161346" lon="11.9961566"><ele>313.0</ele><time>2026-04-11T17:42:45.324Z</time></trkpt><trkpt lat="42.6160153" lon="11.9960509"><ele>312.5</ele><time>2026-04-11T17:42:46.337Z</time></trkpt><trkpt lat="42.6159094" lon="11.9959521"><ele>312.0</ele><time>2026-04-11T17:42:47.355Z</time></trkpt><trkpt lat="42.6157926" lon="11.9958766"><ele>311.5</ele><time>2026-04-11T17:42:48.356Z</time></trkpt><trkpt lat="42.6156788" lon="11.9958331"><ele>311.0</ele><time>2026-04-11T17:42:49.355Z</time></trkpt><trkpt lat="42.6155705" lon="11.9958332"><ele>312.0</ele><time>2026-04-11T17:42:50.35Z</time></trkpt><trkpt lat="42.6154653" lon="11.9958748"><ele>313.0</ele><time>2026-04-11T17:42:51.325Z</time></trkpt><trkpt lat="42.6153697" lon="11.9959582"><ele>314.0</ele><time>2026-04-11T17:42:52.359Z</time></trkpt><trkpt lat="42.6152702" lon="11.9960772"><ele>315.0</ele><time>2026-04-11T17:42:53.352Z</time></trkpt><trkpt lat="42.6151748" lon="11.9961977"><ele>315.0</ele><time>2026-04-11T17:42:54.364Z</time></trkpt><trkpt lat="42.6150719" lon="11.9963194"><ele>315.0</ele><time>2026-04-11T17:42:55.362Z</time></trkpt><trkpt lat="42.614959" lon="11.9964439"><ele>315.0</ele><time>2026-04-11T17:42:56.352Z</time></trkpt><trkpt lat="42.6148415" lon="11.9965587"><ele>315.0</ele><time>2026-04-11T17:42:57.356Z</time></trkpt><trkpt lat="42.6147166" lon="11.9966614"><ele>317.6666666666667</ele><time>2026-04-11T17:42:58.358Z</time></trkpt><trkpt lat="42.6145855" lon="11.9967667"><ele>320.33333333333337</ele><time>2026-04-11T17:42:59.343Z</time></trkpt><trkpt lat="42.6144492" lon="11.9968628"><ele>323.0</ele><time>2026-04-11T17:43:00.347Z</time></trkpt><trkpt lat="42.6143003" lon="11.9969622"><ele>323.0</ele><time>2026-04-11T17:43:01.356Z</time></trkpt><trkpt lat="42.6141491" lon="11.997058"><ele>323.0</ele><time>2026-04-11T17:43:02.348Z</time></trkpt><trkpt lat="42.6139919" lon="11.9971468"><ele>323.0</ele><time>2026-04-11T17:43:03.356Z</time></trkpt><trkpt lat="42.6138327" lon="11.9972333"><ele>323.0</ele><time>2026-04-11T17:43:04.352Z</time></trkpt><trkpt lat="42.6136665" lon="11.9973151"><ele>323.0</ele><time>2026-04-11T17:43:05.362Z</time></trkpt><trkpt lat="42.6134982" lon="11.9973866"><ele>323.0</ele><time>2026-04-11T17:43:06.347Z</time></trkpt><trkpt lat="42.6133254" lon="11.997447"><ele>320.0</ele><time>2026-04-11T17:43:07.359Z</time></trkpt><trkpt lat="42.6131497" lon="11.9974954"><ele>317.0</ele><time>2026-04-11T17:43:08.343Z</time></trkpt><trkpt lat="42.6129699" lon="11.9975274"><ele>314.0</ele><time>2026-04-11T17:43:09.351Z</time></trkpt><trkpt lat="42.6127936" lon="11.9975425"><ele>314.0</ele><time>2026-04-11T17:43:10.343Z</time></trkpt><trkpt lat="42.6126133" lon="11.9975359"><ele>314.0</ele><time>2026-04-11T17:43:11.354Z</time></trkpt><trkpt lat="42.6124347" lon="11.9975047"><ele>314.0</ele><time>2026-04-11T17:43:12.337Z</time></trkpt><trkpt lat="42.6122544" lon="11.9974495"><ele>314.0</ele><time>2026-04-11T17:43:13.362Z</time></trkpt><trkpt lat="42.6120802" lon="11.9973737"><ele>314.0</ele><time>2026-04-11T17:43:14.344Z</time></trkpt><trkpt lat="42.6118996" lon="11.9972809"><ele>314.0</ele><time>2026-04-11T17:43:15.357Z</time></trkpt><trkpt lat="42.611723" lon="11.9971895"><ele>317.0</ele><time>2026-04-11T17:43:16.35Z</time></trkpt><trkpt lat="42.6115516" lon="11.9970975"><ele>320.0</ele><time>2026-04-11T17:43:17.359Z</time></trkpt><trkpt lat="42.6113895" lon="11.9970101"><ele>323.0</ele><time>2026-04-11T17:43:18.353Z</time></trkpt><trkpt lat="42.6112282" lon="11.9969282"><ele>325.6666666666667</ele><time>2026-04-11T17:43:19.354Z</time></trkpt><trkpt lat="42.6110625" lon="11.9968458"><ele>328.3333333333333</ele><time>2026-04-11T17:43:20.36Z</time></trkpt><trkpt lat="42.6108951" lon="11.9967841"><ele>331.0</ele><time>2026-04-11T17:43:21.358Z</time></trkpt><trkpt lat="42.6107289" lon="11.9967598"><ele>331.0</ele><time>2026-04-11T17:43:22.351Z</time></trkpt><trkpt lat="42.6105531" lon="11.9967539"><ele>331.0</ele><time>2026-04-11T17:43:23.356Z</time></trkpt><trkpt lat="42.6103758" lon="11.996759"><ele>331.0</ele><time>2026-04-11T17:43:24.351Z</time></trkpt><trkpt lat="42.6101966" lon="11.9967676"><ele>332.0</ele><time>2026-04-11T17:43:25.351Z</time></trkpt><trkpt lat="42.6100177" lon="11.9967757"><ele>333.0</ele><time>2026-04-11T17:43:26.353Z</time></trkpt><trkpt lat="42.6098374" lon="11.9967867"><ele>334.0</ele><time>2026-04-11T17:43:27.372Z</time></trkpt><trkpt lat="42.6096533" lon="11.9967944"><ele>329.66666666666663</ele><time>2026-04-11T17:43:28.368Z</time></trkpt><trkpt lat="42.6094676" lon="11.9967959"><ele>325.3333333333333</ele><time>2026-04-11T17:43:29.351Z</time></trkpt><trkpt lat="42.609281" lon="11.9967901"><ele>321.0</ele><time>2026-04-11T17:43:30.354Z</time></trkpt><trkpt lat="42.609093" lon="11.9967794"><ele>321.0</ele><time>2026-04-11T17:43:31.355Z</time></trkpt><trkpt lat="42.6089081" lon="11.9967583"><ele>321.0</ele><time>2026-04-11T17:43:32.337Z</time></trkpt><trkpt lat="42.6087264" lon="11.9967308"><ele>321.0</ele><time>2026-04-11T17:43:33.352Z</time></trkpt><trkpt lat="42.6085486" lon="11.9967076"><ele>319.3333333333333</ele><time>2026-04-11T17:43:34.334Z</time></trkpt><trkpt lat="42.6083743" lon="11.9966882"><ele>317.66666666666663</ele><time>2026-04-11T17:43:35.355Z</time></trkpt><trkpt lat="42.6081995" lon="11.9966721"><ele>316.0</ele><time>2026-04-11T17:43:36.359Z</time></trkpt><trkpt lat="42.6080221" lon="11.9966543"><ele>314.66666666666663</ele><time>2026-04-11T17:43:37.352Z</time></trkpt><trkpt lat="42.6078418" lon="11.996638"><ele>313.3333333333333</ele><time>2026-04-11T17:43:38.35Z</time></trkpt><trkpt lat="42.6076624" lon="11.9966208"><ele>312.0</ele><time>2026-04-11T17:43:39.369Z</time></trkpt><trkpt lat="42.6074816" lon="11.9966049"><ele>312.0</ele><time>2026-04-11T17:43:40.35Z</time></trkpt><trkpt lat="42.6073028" lon="11.9965888"><ele>312.0</ele><time>2026-04-11T17:43:41.342Z</time></trkpt><trkpt lat="42.6071166" lon="11.9965764"><ele>312.0</ele><time>2026-04-11T17:43:42.351Z</time></trkpt><trkpt lat="42.6069275" lon="11.996564"><ele>312.0</ele><time>2026-04-11T17:43:43.358Z</time></trkpt><trkpt lat="42.6067377" lon="11.9965488"><ele>312.0</ele><time>2026-04-11T17:43:44.337Z</time></trkpt><trkpt lat="42.6065494" lon="11.996535"><ele>312.0</ele><time>2026-04-11T17:43:45.353Z</time></trkpt><trkpt lat="42.6063649" lon="11.9965182"><ele>312.0</ele><time>2026-04-11T17:43:46.36Z</time></trkpt><trkpt lat="42.6061803" lon="11.9964992"><ele>312.0</ele><time>2026-04-11T17:43:47.34Z</time></trkpt><trkpt lat="42.606003" lon="11.9964845"><ele>312.0</ele><time>2026-04-11T17:43:48.346Z</time></trkpt><trkpt lat="42.6058361" lon="11.9964692"><ele>312.3333333333333</ele><time>2026-04-11T17:43:49.341Z</time></trkpt><trkpt lat="42.6056716" lon="11.9964531"><ele>312.66666666666663</ele><time>2026-04-11T17:43:50.348Z</time></trkpt><trkpt lat="42.6055068" lon="11.9964391"><ele>313.0</ele><time>2026-04-11T17:43:51.363Z</time></trkpt><trkpt lat="42.6053423" lon="11.996422"><ele>313.75</ele><time>2026-04-11T17:43:52.35Z</time></trkpt><trkpt lat="42.6051886" lon="11.996409"><ele>314.5</ele><time>2026-04-11T17:43:53.349Z</time></trkpt><trkpt lat="42.6050427" lon="11.9963937"><ele>315.25</ele><time>2026-04-11T17:43:54.357Z</time></trkpt><trkpt lat="42.6049045" lon="11.9963849"><ele>316.0</ele><time>2026-04-11T17:43:55.364Z</time></trkpt><trkpt lat="42.604781" lon="11.9963914"><ele>316.0</ele><time>2026-04-11T17:43:56.358Z</time></trkpt><trkpt lat="42.604669" lon="11.9964185"><ele>316.0</ele><time>2026-04-11T17:43:57.373Z</time></trkpt><trkpt lat="42.6045659" lon="11.9964669"><ele>316.0</ele><time>2026-04-11T17:43:58.348Z</time></trkpt><trkpt lat="42.6044799" lon="11.9965158"><ele>316.0</ele><time>2026-04-11T17:43:59.349Z</time></trkpt><trkpt lat="42.604404" lon="11.9965732"><ele>316.0</ele><time>2026-04-11T17:44:00.349Z</time></trkpt><trkpt lat="42.6043391" lon="11.9966276"><ele>315.66666666666663</ele><time>2026-04-11T17:44:01.367Z</time></trkpt><trkpt lat="42.6042582" lon="11.9966147"><ele>315.3333333333333</ele><time>2026-04-11T17:44:03.348Z</time></trkpt><trkpt lat="42.6042033" lon="11.996533"><ele>315.0</ele><time>2026-04-11T17:44:05.349Z</time></trkpt><trkpt lat="42.6041658" lon="11.9964513"><ele>314.6666666666667</ele><time>2026-04-11T17:44:08.354Z</time></trkpt><trkpt lat="42.6042174" lon="11.996376"><ele>314.33333333333337</ele><time>2026-04-11T17:45:09.354Z</time></trkpt><trkpt lat="42.604279" lon="11.9963466"><ele>314.0</ele><time>2026-04-11T17:45:11.334Z</time></trkpt><trkpt lat="42.6043501" lon="11.9963103"><ele>314.0</ele><time>2026-04-11T17:45:13.35Z</time></trkpt><trkpt lat="42.6044387" lon="11.9962574"><ele>314.0</ele><time>2026-04-11T17:45:15.359Z</time></trkpt><trkpt lat="42.6045089" lon="11.9962057"><ele>316.0</ele><time>2026-04-11T17:45:17.352Z</time></trkpt><trkpt lat="42.6045613" lon="11.9961507"><ele>316.0</ele><time>2026-04-11T17:45:19.334Z</time></trkpt><trkpt lat="42.6045778" lon="11.9960549"><ele>316.0</ele><time>2026-04-11T17:45:22.328Z</time></trkpt><trkpt lat="42.6046343" lon="11.9959921"><ele>316.0</ele><time>2026-04-11T17:46:07.343Z</time></trkpt></trkseg></trk></gpx>